<?xml version="1.0" encoding="UTF-8" standalone="no" ?>
<gpx xmlns="http://www.topografix.com/GPX/1/1" xmlns:xsi="http://www.w3.org/2001/XMLSchema-instance" xsi:schemaLocation="http://www.topografix.com/GPX/1/1 http://www.topografix.com/GPX/1/1/gpx.xsd" version="1.1" creator="VisuGPX - https://www.visugpx.com">
  <metadata>
    <name>E-NE-Breuil La Filée Vertou Haie Fouassière Vallet La Remaudière Chapelle Basse Mer Mauves EV6 Nantes</name>
    <desc><![CDATA[E-NE-Breuil La Filée Vertou Haie Fouassière Vallet La Remaudière Chapelle Basse Mer Mauves EV6 Nantes]]></desc>
  </metadata>
  <trk>
    <name><![CDATA[2021-04-24 11:00 +02:00]]></name>
    <trkseg>
      <trkpt lat="47.16792" lon="-1.62661">
        <ele>84</ele>
        <time>2021-04-24T09:00:55.000Z</time>
      </trkpt>
      <trkpt lat="47.16797" lon="-1.62648">
        <ele>75</ele>
        <time>2021-04-24T09:00:57.000Z</time>
      </trkpt>
      <trkpt lat="47.16786" lon="-1.62646">
        <ele>59</ele>
        <time>2021-04-24T09:02:43.000Z</time>
      </trkpt>
      <trkpt lat="47.16777" lon="-1.62645">
        <ele>62</ele>
        <time>2021-04-24T09:04:07.000Z</time>
      </trkpt>
      <trkpt lat="47.16785" lon="-1.62652">
        <ele>62</ele>
        <time>2021-04-24T09:04:13.000Z</time>
      </trkpt>
      <trkpt lat="47.16794" lon="-1.62639">
        <ele>67</ele>
        <time>2021-04-24T09:04:16.000Z</time>
      </trkpt>
      <trkpt lat="47.168" lon="-1.62628">
        <ele>68</ele>
        <time>2021-04-24T09:04:18.000Z</time>
      </trkpt>
      <trkpt lat="47.16808" lon="-1.62616">
        <ele>69</ele>
        <time>2021-04-24T09:04:20.000Z</time>
      </trkpt>
      <trkpt lat="47.16816" lon="-1.62604">
        <ele>69</ele>
        <time>2021-04-24T09:04:22.000Z</time>
      </trkpt>
      <trkpt lat="47.16824" lon="-1.62592">
        <ele>70</ele>
        <time>2021-04-24T09:04:24.000Z</time>
      </trkpt>
      <trkpt lat="47.16829" lon="-1.62575">
        <ele>69</ele>
        <time>2021-04-24T09:04:26.000Z</time>
      </trkpt>
      <trkpt lat="47.16826" lon="-1.62559">
        <ele>68</ele>
        <time>2021-04-24T09:04:28.000Z</time>
      </trkpt>
      <trkpt lat="47.16814" lon="-1.62551">
        <ele>67</ele>
        <time>2021-04-24T09:04:30.000Z</time>
      </trkpt>
      <trkpt lat="47.16804" lon="-1.62544">
        <ele>66</ele>
        <time>2021-04-24T09:04:32.000Z</time>
      </trkpt>
      <trkpt lat="47.16793" lon="-1.62538">
        <ele>66</ele>
        <time>2021-04-24T09:04:34.000Z</time>
      </trkpt>
      <trkpt lat="47.16782" lon="-1.62532">
        <ele>65</ele>
        <time>2021-04-24T09:04:36.000Z</time>
      </trkpt>
      <trkpt lat="47.1677" lon="-1.62524">
        <ele>65</ele>
        <time>2021-04-24T09:04:38.000Z</time>
      </trkpt>
      <trkpt lat="47.16759" lon="-1.62518">
        <ele>65</ele>
        <time>2021-04-24T09:04:40.000Z</time>
      </trkpt>
      <trkpt lat="47.16747" lon="-1.62512">
        <ele>65</ele>
        <time>2021-04-24T09:04:42.000Z</time>
      </trkpt>
      <trkpt lat="47.16735" lon="-1.62505">
        <ele>65</ele>
        <time>2021-04-24T09:04:44.000Z</time>
      </trkpt>
      <trkpt lat="47.16723" lon="-1.625">
        <ele>65</ele>
        <time>2021-04-24T09:04:46.000Z</time>
      </trkpt>
      <trkpt lat="47.16714" lon="-1.62494">
        <ele>65</ele>
        <time>2021-04-24T09:04:48.000Z</time>
      </trkpt>
      <trkpt lat="47.16712" lon="-1.62476">
        <ele>66</ele>
        <time>2021-04-24T09:04:50.000Z</time>
      </trkpt>
      <trkpt lat="47.16713" lon="-1.62457">
        <ele>66</ele>
        <time>2021-04-24T09:04:52.000Z</time>
      </trkpt>
      <trkpt lat="47.16714" lon="-1.62437">
        <ele>67</ele>
        <time>2021-04-24T09:04:54.000Z</time>
      </trkpt>
      <trkpt lat="47.16719" lon="-1.62418">
        <ele>67</ele>
        <time>2021-04-24T09:04:56.000Z</time>
      </trkpt>
      <trkpt lat="47.16725" lon="-1.62399">
        <ele>67</ele>
        <time>2021-04-24T09:04:58.000Z</time>
      </trkpt>
      <trkpt lat="47.16731" lon="-1.6238">
        <ele>67</ele>
        <time>2021-04-24T09:05:00.000Z</time>
      </trkpt>
      <trkpt lat="47.1674" lon="-1.62363">
        <ele>67</ele>
        <time>2021-04-24T09:05:02.000Z</time>
      </trkpt>
      <trkpt lat="47.16752" lon="-1.62351">
        <ele>67</ele>
        <time>2021-04-24T09:05:04.000Z</time>
      </trkpt>
      <trkpt lat="47.16764" lon="-1.62342">
        <ele>67</ele>
        <time>2021-04-24T09:05:06.000Z</time>
      </trkpt>
      <trkpt lat="47.16776" lon="-1.62334">
        <ele>68</ele>
        <time>2021-04-24T09:05:08.000Z</time>
      </trkpt>
      <trkpt lat="47.16789" lon="-1.62327">
        <ele>68</ele>
        <time>2021-04-24T09:05:10.000Z</time>
      </trkpt>
      <trkpt lat="47.16801" lon="-1.6232">
        <ele>69</ele>
        <time>2021-04-24T09:05:12.000Z</time>
      </trkpt>
      <trkpt lat="47.16814" lon="-1.62312">
        <ele>69</ele>
        <time>2021-04-24T09:05:14.000Z</time>
      </trkpt>
      <trkpt lat="47.16826" lon="-1.62302">
        <ele>69</ele>
        <time>2021-04-24T09:05:16.000Z</time>
      </trkpt>
      <trkpt lat="47.16837" lon="-1.62291">
        <ele>68</ele>
        <time>2021-04-24T09:05:18.000Z</time>
      </trkpt>
      <trkpt lat="47.16847" lon="-1.62278">
        <ele>69</ele>
        <time>2021-04-24T09:05:20.000Z</time>
      </trkpt>
      <trkpt lat="47.16857" lon="-1.62265">
        <ele>69</ele>
        <time>2021-04-24T09:05:22.000Z</time>
      </trkpt>
      <trkpt lat="47.16867" lon="-1.62252">
        <ele>69</ele>
        <time>2021-04-24T09:05:24.000Z</time>
      </trkpt>
      <trkpt lat="47.16877" lon="-1.6224">
        <ele>70</ele>
        <time>2021-04-24T09:05:26.000Z</time>
      </trkpt>
      <trkpt lat="47.16887" lon="-1.62228">
        <ele>69</ele>
        <time>2021-04-24T09:05:28.000Z</time>
      </trkpt>
      <trkpt lat="47.16896" lon="-1.62214">
        <ele>69</ele>
        <time>2021-04-24T09:05:30.000Z</time>
      </trkpt>
      <trkpt lat="47.16906" lon="-1.62201">
        <ele>69</ele>
        <time>2021-04-24T09:05:32.000Z</time>
      </trkpt>
      <trkpt lat="47.16916" lon="-1.62185">
        <ele>69</ele>
        <time>2021-04-24T09:05:34.000Z</time>
      </trkpt>
      <trkpt lat="47.16925" lon="-1.62169">
        <ele>69</ele>
        <time>2021-04-24T09:05:36.000Z</time>
      </trkpt>
      <trkpt lat="47.16933" lon="-1.62152">
        <ele>69</ele>
        <time>2021-04-24T09:05:38.000Z</time>
      </trkpt>
      <trkpt lat="47.16941" lon="-1.62136">
        <ele>69</ele>
        <time>2021-04-24T09:05:40.000Z</time>
      </trkpt>
      <trkpt lat="47.16949" lon="-1.62121">
        <ele>69</ele>
        <time>2021-04-24T09:05:42.000Z</time>
      </trkpt>
      <trkpt lat="47.16957" lon="-1.62105">
        <ele>69</ele>
        <time>2021-04-24T09:05:44.000Z</time>
      </trkpt>
      <trkpt lat="47.16965" lon="-1.62089">
        <ele>68</ele>
        <time>2021-04-24T09:05:46.000Z</time>
      </trkpt>
      <trkpt lat="47.16974" lon="-1.62074">
        <ele>68</ele>
        <time>2021-04-24T09:05:48.000Z</time>
      </trkpt>
      <trkpt lat="47.16981" lon="-1.62058">
        <ele>68</ele>
        <time>2021-04-24T09:05:50.000Z</time>
      </trkpt>
      <trkpt lat="47.1699" lon="-1.62043">
        <ele>68</ele>
        <time>2021-04-24T09:05:52.000Z</time>
      </trkpt>
      <trkpt lat="47.17" lon="-1.62028">
        <ele>68</ele>
        <time>2021-04-24T09:05:54.000Z</time>
      </trkpt>
      <trkpt lat="47.17008" lon="-1.62013">
        <ele>68</ele>
        <time>2021-04-24T09:05:56.000Z</time>
      </trkpt>
      <trkpt lat="47.17017" lon="-1.61999">
        <ele>68</ele>
        <time>2021-04-24T09:05:58.000Z</time>
      </trkpt>
      <trkpt lat="47.17026" lon="-1.61986">
        <ele>68</ele>
        <time>2021-04-24T09:06:00.000Z</time>
      </trkpt>
      <trkpt lat="47.17036" lon="-1.61973">
        <ele>68</ele>
        <time>2021-04-24T09:06:02.000Z</time>
      </trkpt>
      <trkpt lat="47.17046" lon="-1.6196">
        <ele>69</ele>
        <time>2021-04-24T09:06:04.000Z</time>
      </trkpt>
      <trkpt lat="47.17055" lon="-1.61947">
        <ele>68</ele>
        <time>2021-04-24T09:06:06.000Z</time>
      </trkpt>
      <trkpt lat="47.17065" lon="-1.61935">
        <ele>68</ele>
        <time>2021-04-24T09:06:08.000Z</time>
      </trkpt>
      <trkpt lat="47.17075" lon="-1.61923">
        <ele>68</ele>
        <time>2021-04-24T09:06:10.000Z</time>
      </trkpt>
      <trkpt lat="47.17086" lon="-1.61912">
        <ele>68</ele>
        <time>2021-04-24T09:06:12.000Z</time>
      </trkpt>
      <trkpt lat="47.17098" lon="-1.61901">
        <ele>68</ele>
        <time>2021-04-24T09:06:14.000Z</time>
      </trkpt>
      <trkpt lat="47.17108" lon="-1.61891">
        <ele>69</ele>
        <time>2021-04-24T09:06:16.000Z</time>
      </trkpt>
      <trkpt lat="47.17119" lon="-1.6188">
        <ele>68</ele>
        <time>2021-04-24T09:06:18.000Z</time>
      </trkpt>
      <trkpt lat="47.1713" lon="-1.6187">
        <ele>68</ele>
        <time>2021-04-24T09:06:20.000Z</time>
      </trkpt>
      <trkpt lat="47.17141" lon="-1.61861">
        <ele>68</ele>
        <time>2021-04-24T09:06:22.000Z</time>
      </trkpt>
      <trkpt lat="47.17152" lon="-1.6185">
        <ele>69</ele>
        <time>2021-04-24T09:06:24.000Z</time>
      </trkpt>
      <trkpt lat="47.17162" lon="-1.6184">
        <ele>69</ele>
        <time>2021-04-24T09:06:26.000Z</time>
      </trkpt>
      <trkpt lat="47.17173" lon="-1.6183">
        <ele>69</ele>
        <time>2021-04-24T09:06:28.000Z</time>
      </trkpt>
      <trkpt lat="47.17183" lon="-1.6182">
        <ele>69</ele>
        <time>2021-04-24T09:06:30.000Z</time>
      </trkpt>
      <trkpt lat="47.17194" lon="-1.6181">
        <ele>68</ele>
        <time>2021-04-24T09:06:32.000Z</time>
      </trkpt>
      <trkpt lat="47.17204" lon="-1.61799">
        <ele>68</ele>
        <time>2021-04-24T09:06:34.000Z</time>
      </trkpt>
      <trkpt lat="47.17214" lon="-1.61788">
        <ele>68</ele>
        <time>2021-04-24T09:06:36.000Z</time>
      </trkpt>
      <trkpt lat="47.1722" lon="-1.61772">
        <ele>68</ele>
        <time>2021-04-24T09:06:38.000Z</time>
      </trkpt>
      <trkpt lat="47.17217" lon="-1.61755">
        <ele>68</ele>
        <time>2021-04-24T09:06:40.000Z</time>
      </trkpt>
      <trkpt lat="47.17208" lon="-1.61742">
        <ele>68</ele>
        <time>2021-04-24T09:06:42.000Z</time>
      </trkpt>
      <trkpt lat="47.17199" lon="-1.61729">
        <ele>68</ele>
        <time>2021-04-24T09:06:44.000Z</time>
      </trkpt>
      <trkpt lat="47.1719" lon="-1.61716">
        <ele>68</ele>
        <time>2021-04-24T09:06:46.000Z</time>
      </trkpt>
      <trkpt lat="47.17178" lon="-1.61702">
        <ele>68</ele>
        <time>2021-04-24T09:06:48.000Z</time>
      </trkpt>
      <trkpt lat="47.17166" lon="-1.61687">
        <ele>68</ele>
        <time>2021-04-24T09:06:50.000Z</time>
      </trkpt>
      <trkpt lat="47.17151" lon="-1.61675">
        <ele>67</ele>
        <time>2021-04-24T09:06:52.000Z</time>
      </trkpt>
      <trkpt lat="47.17134" lon="-1.61666">
        <ele>65</ele>
        <time>2021-04-24T09:06:54.000Z</time>
      </trkpt>
      <trkpt lat="47.17119" lon="-1.61657">
        <ele>64</ele>
        <time>2021-04-24T09:06:56.000Z</time>
      </trkpt>
      <trkpt lat="47.17104" lon="-1.61648">
        <ele>63</ele>
        <time>2021-04-24T09:06:58.000Z</time>
      </trkpt>
      <trkpt lat="47.17091" lon="-1.6164">
        <ele>63</ele>
        <time>2021-04-24T09:07:00.000Z</time>
      </trkpt>
      <trkpt lat="47.1706" lon="-1.61628">
        <ele>64</ele>
        <time>2021-04-24T09:07:04.000Z</time>
      </trkpt>
      <trkpt lat="47.17049" lon="-1.61617">
        <ele>63</ele>
        <time>2021-04-24T09:07:06.000Z</time>
      </trkpt>
      <trkpt lat="47.17036" lon="-1.61611">
        <ele>62</ele>
        <time>2021-04-24T09:07:08.000Z</time>
      </trkpt>
      <trkpt lat="47.17025" lon="-1.616">
        <ele>61</ele>
        <time>2021-04-24T09:07:10.000Z</time>
      </trkpt>
      <trkpt lat="47.17021" lon="-1.61584">
        <ele>60</ele>
        <time>2021-04-24T09:07:12.000Z</time>
      </trkpt>
      <trkpt lat="47.17015" lon="-1.61565">
        <ele>61</ele>
        <time>2021-04-24T09:07:14.000Z</time>
      </trkpt>
      <trkpt lat="47.1701" lon="-1.61547">
        <ele>61</ele>
        <time>2021-04-24T09:07:16.000Z</time>
      </trkpt>
      <trkpt lat="47.17005" lon="-1.61529">
        <ele>62</ele>
        <time>2021-04-24T09:07:18.000Z</time>
      </trkpt>
      <trkpt lat="47.17" lon="-1.61512">
        <ele>62</ele>
        <time>2021-04-24T09:07:20.000Z</time>
      </trkpt>
      <trkpt lat="47.16994" lon="-1.61494">
        <ele>62</ele>
        <time>2021-04-24T09:07:22.000Z</time>
      </trkpt>
      <trkpt lat="47.1699" lon="-1.61476">
        <ele>62</ele>
        <time>2021-04-24T09:07:24.000Z</time>
      </trkpt>
      <trkpt lat="47.16985" lon="-1.61459">
        <ele>63</ele>
        <time>2021-04-24T09:07:26.000Z</time>
      </trkpt>
      <trkpt lat="47.16979" lon="-1.61444">
        <ele>63</ele>
        <time>2021-04-24T09:07:28.000Z</time>
      </trkpt>
      <trkpt lat="47.16973" lon="-1.6143">
        <ele>65</ele>
        <time>2021-04-24T09:07:30.000Z</time>
      </trkpt>
      <trkpt lat="47.16968" lon="-1.61417">
        <ele>65</ele>
        <time>2021-04-24T09:07:32.000Z</time>
      </trkpt>
      <trkpt lat="47.16961" lon="-1.61403">
        <ele>65</ele>
        <time>2021-04-24T09:07:34.000Z</time>
      </trkpt>
      <trkpt lat="47.16954" lon="-1.61389">
        <ele>65</ele>
        <time>2021-04-24T09:07:36.000Z</time>
      </trkpt>
      <trkpt lat="47.16948" lon="-1.61375">
        <ele>64</ele>
        <time>2021-04-24T09:07:38.000Z</time>
      </trkpt>
      <trkpt lat="47.16941" lon="-1.61359">
        <ele>64</ele>
        <time>2021-04-24T09:07:40.000Z</time>
      </trkpt>
      <trkpt lat="47.16934" lon="-1.61343">
        <ele>63</ele>
        <time>2021-04-24T09:07:42.000Z</time>
      </trkpt>
      <trkpt lat="47.16927" lon="-1.61326">
        <ele>63</ele>
        <time>2021-04-24T09:07:44.000Z</time>
      </trkpt>
      <trkpt lat="47.16919" lon="-1.61308">
        <ele>62</ele>
        <time>2021-04-24T09:07:46.000Z</time>
      </trkpt>
      <trkpt lat="47.1691" lon="-1.61292">
        <ele>62</ele>
        <time>2021-04-24T09:07:48.000Z</time>
      </trkpt>
      <trkpt lat="47.16897" lon="-1.61277">
        <ele>61</ele>
        <time>2021-04-24T09:07:50.000Z</time>
      </trkpt>
      <trkpt lat="47.16882" lon="-1.61267">
        <ele>60</ele>
        <time>2021-04-24T09:07:52.000Z</time>
      </trkpt>
      <trkpt lat="47.16865" lon="-1.61264">
        <ele>59</ele>
        <time>2021-04-24T09:07:54.000Z</time>
      </trkpt>
      <trkpt lat="47.16856" lon="-1.61265">
        <ele>59</ele>
        <time>2021-04-24T09:07:55.000Z</time>
      </trkpt>
      <trkpt lat="47.16836" lon="-1.61265">
        <ele>57</ele>
        <time>2021-04-24T09:07:57.000Z</time>
      </trkpt>
      <trkpt lat="47.16825" lon="-1.6126">
        <ele>57</ele>
        <time>2021-04-24T09:07:58.000Z</time>
      </trkpt>
      <trkpt lat="47.16815" lon="-1.61256">
        <ele>56</ele>
        <time>2021-04-24T09:07:59.000Z</time>
      </trkpt>
      <trkpt lat="47.16806" lon="-1.61251">
        <ele>56</ele>
        <time>2021-04-24T09:08:00.000Z</time>
      </trkpt>
      <trkpt lat="47.16797" lon="-1.61245">
        <ele>56</ele>
        <time>2021-04-24T09:08:01.000Z</time>
      </trkpt>
      <trkpt lat="47.16789" lon="-1.6124">
        <ele>57</ele>
        <time>2021-04-24T09:08:02.000Z</time>
      </trkpt>
      <trkpt lat="47.16773" lon="-1.6123">
        <ele>57</ele>
        <time>2021-04-24T09:08:04.000Z</time>
      </trkpt>
      <trkpt lat="47.16759" lon="-1.6122">
        <ele>57</ele>
        <time>2021-04-24T09:08:06.000Z</time>
      </trkpt>
      <trkpt lat="47.16747" lon="-1.61211">
        <ele>56</ele>
        <time>2021-04-24T09:08:08.000Z</time>
      </trkpt>
      <trkpt lat="47.16734" lon="-1.61203">
        <ele>56</ele>
        <time>2021-04-24T09:08:10.000Z</time>
      </trkpt>
      <trkpt lat="47.16721" lon="-1.61194">
        <ele>57</ele>
        <time>2021-04-24T09:08:12.000Z</time>
      </trkpt>
      <trkpt lat="47.1671" lon="-1.61187">
        <ele>58</ele>
        <time>2021-04-24T09:08:14.000Z</time>
      </trkpt>
      <trkpt lat="47.167" lon="-1.61181">
        <ele>59</ele>
        <time>2021-04-24T09:08:16.000Z</time>
      </trkpt>
      <trkpt lat="47.1669" lon="-1.61174">
        <ele>59</ele>
        <time>2021-04-24T09:08:18.000Z</time>
      </trkpt>
      <trkpt lat="47.1668" lon="-1.61168">
        <ele>59</ele>
        <time>2021-04-24T09:08:20.000Z</time>
      </trkpt>
      <trkpt lat="47.16672" lon="-1.61159">
        <ele>59</ele>
        <time>2021-04-24T09:08:22.000Z</time>
      </trkpt>
      <trkpt lat="47.16664" lon="-1.61149">
        <ele>60</ele>
        <time>2021-04-24T09:08:24.000Z</time>
      </trkpt>
      <trkpt lat="47.16659" lon="-1.61131">
        <ele>61</ele>
        <time>2021-04-24T09:08:27.000Z</time>
      </trkpt>
      <trkpt lat="47.16657" lon="-1.61117">
        <ele>61</ele>
        <time>2021-04-24T09:08:29.000Z</time>
      </trkpt>
      <trkpt lat="47.16654" lon="-1.61102">
        <ele>62</ele>
        <time>2021-04-24T09:08:31.000Z</time>
      </trkpt>
      <trkpt lat="47.16652" lon="-1.61086">
        <ele>63</ele>
        <time>2021-04-24T09:08:33.000Z</time>
      </trkpt>
      <trkpt lat="47.1665" lon="-1.61069">
        <ele>63</ele>
        <time>2021-04-24T09:08:35.000Z</time>
      </trkpt>
      <trkpt lat="47.16647" lon="-1.61053">
        <ele>63</ele>
        <time>2021-04-24T09:08:37.000Z</time>
      </trkpt>
      <trkpt lat="47.16644" lon="-1.61039">
        <ele>63</ele>
        <time>2021-04-24T09:08:39.000Z</time>
      </trkpt>
      <trkpt lat="47.16642" lon="-1.61023">
        <ele>63</ele>
        <time>2021-04-24T09:08:41.000Z</time>
      </trkpt>
      <trkpt lat="47.16638" lon="-1.61009">
        <ele>64</ele>
        <time>2021-04-24T09:08:43.000Z</time>
      </trkpt>
      <trkpt lat="47.16632" lon="-1.60995">
        <ele>66</ele>
        <time>2021-04-24T09:08:45.000Z</time>
      </trkpt>
      <trkpt lat="47.16626" lon="-1.6098">
        <ele>66</ele>
        <time>2021-04-24T09:08:47.000Z</time>
      </trkpt>
      <trkpt lat="47.16619" lon="-1.60967">
        <ele>66</ele>
        <time>2021-04-24T09:08:49.000Z</time>
      </trkpt>
      <trkpt lat="47.16612" lon="-1.60954">
        <ele>67</ele>
        <time>2021-04-24T09:08:51.000Z</time>
      </trkpt>
      <trkpt lat="47.16606" lon="-1.60941">
        <ele>68</ele>
        <time>2021-04-24T09:08:53.000Z</time>
      </trkpt>
      <trkpt lat="47.16599" lon="-1.60927">
        <ele>68</ele>
        <time>2021-04-24T09:08:55.000Z</time>
      </trkpt>
      <trkpt lat="47.16593" lon="-1.60913">
        <ele>68</ele>
        <time>2021-04-24T09:08:57.000Z</time>
      </trkpt>
      <trkpt lat="47.16586" lon="-1.60899">
        <ele>69</ele>
        <time>2021-04-24T09:08:59.000Z</time>
      </trkpt>
      <trkpt lat="47.1658" lon="-1.60885">
        <ele>70</ele>
        <time>2021-04-24T09:09:01.000Z</time>
      </trkpt>
      <trkpt lat="47.16573" lon="-1.60871">
        <ele>71</ele>
        <time>2021-04-24T09:09:03.000Z</time>
      </trkpt>
      <trkpt lat="47.16567" lon="-1.60857">
        <ele>70</ele>
        <time>2021-04-24T09:09:05.000Z</time>
      </trkpt>
      <trkpt lat="47.1656" lon="-1.60845">
        <ele>71</ele>
        <time>2021-04-24T09:09:07.000Z</time>
      </trkpt>
      <trkpt lat="47.16553" lon="-1.60831">
        <ele>71</ele>
        <time>2021-04-24T09:09:09.000Z</time>
      </trkpt>
      <trkpt lat="47.16545" lon="-1.60817">
        <ele>71</ele>
        <time>2021-04-24T09:09:11.000Z</time>
      </trkpt>
      <trkpt lat="47.16537" lon="-1.60806">
        <ele>71</ele>
        <time>2021-04-24T09:09:13.000Z</time>
      </trkpt>
      <trkpt lat="47.16529" lon="-1.60794">
        <ele>71</ele>
        <time>2021-04-24T09:09:15.000Z</time>
      </trkpt>
      <trkpt lat="47.16522" lon="-1.60782">
        <ele>71</ele>
        <time>2021-04-24T09:09:17.000Z</time>
      </trkpt>
      <trkpt lat="47.16519" lon="-1.60766">
        <ele>72</ele>
        <time>2021-04-24T09:09:19.000Z</time>
      </trkpt>
      <trkpt lat="47.16521" lon="-1.60747">
        <ele>73</ele>
        <time>2021-04-24T09:09:21.000Z</time>
      </trkpt>
      <trkpt lat="47.16524" lon="-1.6073">
        <ele>72</ele>
        <time>2021-04-24T09:09:23.000Z</time>
      </trkpt>
      <trkpt lat="47.16527" lon="-1.60713">
        <ele>73</ele>
        <time>2021-04-24T09:09:25.000Z</time>
      </trkpt>
      <trkpt lat="47.16531" lon="-1.60696">
        <ele>73</ele>
        <time>2021-04-24T09:09:27.000Z</time>
      </trkpt>
      <trkpt lat="47.16534" lon="-1.6068">
        <ele>73</ele>
        <time>2021-04-24T09:09:29.000Z</time>
      </trkpt>
      <trkpt lat="47.16537" lon="-1.60664">
        <ele>74</ele>
        <time>2021-04-24T09:09:31.000Z</time>
      </trkpt>
      <trkpt lat="47.1654" lon="-1.60648">
        <ele>74</ele>
        <time>2021-04-24T09:09:33.000Z</time>
      </trkpt>
      <trkpt lat="47.16544" lon="-1.60632">
        <ele>74</ele>
        <time>2021-04-24T09:09:35.000Z</time>
      </trkpt>
      <trkpt lat="47.16547" lon="-1.60615">
        <ele>74</ele>
        <time>2021-04-24T09:09:37.000Z</time>
      </trkpt>
      <trkpt lat="47.1655" lon="-1.60599">
        <ele>74</ele>
        <time>2021-04-24T09:09:39.000Z</time>
      </trkpt>
      <trkpt lat="47.16554" lon="-1.60584">
        <ele>74</ele>
        <time>2021-04-24T09:09:41.000Z</time>
      </trkpt>
      <trkpt lat="47.16557" lon="-1.60569">
        <ele>75</ele>
        <time>2021-04-24T09:09:43.000Z</time>
      </trkpt>
      <trkpt lat="47.1656" lon="-1.60553">
        <ele>75</ele>
        <time>2021-04-24T09:09:45.000Z</time>
      </trkpt>
      <trkpt lat="47.16566" lon="-1.6054">
        <ele>75</ele>
        <time>2021-04-24T09:09:47.000Z</time>
      </trkpt>
      <trkpt lat="47.16575" lon="-1.60531">
        <ele>75</ele>
        <time>2021-04-24T09:09:49.000Z</time>
      </trkpt>
      <trkpt lat="47.16586" lon="-1.60527">
        <ele>75</ele>
        <time>2021-04-24T09:09:51.000Z</time>
      </trkpt>
      <trkpt lat="47.16598" lon="-1.60522">
        <ele>75</ele>
        <time>2021-04-24T09:09:53.000Z</time>
      </trkpt>
      <trkpt lat="47.16609" lon="-1.60518">
        <ele>74</ele>
        <time>2021-04-24T09:09:55.000Z</time>
      </trkpt>
      <trkpt lat="47.16621" lon="-1.60513">
        <ele>74</ele>
        <time>2021-04-24T09:09:57.000Z</time>
      </trkpt>
      <trkpt lat="47.16633" lon="-1.60506">
        <ele>74</ele>
        <time>2021-04-24T09:09:59.000Z</time>
      </trkpt>
      <trkpt lat="47.16645" lon="-1.605">
        <ele>74</ele>
        <time>2021-04-24T09:10:01.000Z</time>
      </trkpt>
      <trkpt lat="47.16657" lon="-1.60492">
        <ele>75</ele>
        <time>2021-04-24T09:10:03.000Z</time>
      </trkpt>
      <trkpt lat="47.16668" lon="-1.60484">
        <ele>74</ele>
        <time>2021-04-24T09:10:05.000Z</time>
      </trkpt>
      <trkpt lat="47.16679" lon="-1.60477">
        <ele>74</ele>
        <time>2021-04-24T09:10:07.000Z</time>
      </trkpt>
      <trkpt lat="47.1669" lon="-1.60469">
        <ele>73</ele>
        <time>2021-04-24T09:10:09.000Z</time>
      </trkpt>
      <trkpt lat="47.16701" lon="-1.6046">
        <ele>73</ele>
        <time>2021-04-24T09:10:11.000Z</time>
      </trkpt>
      <trkpt lat="47.16712" lon="-1.60451">
        <ele>74</ele>
        <time>2021-04-24T09:10:13.000Z</time>
      </trkpt>
      <trkpt lat="47.16722" lon="-1.60443">
        <ele>74</ele>
        <time>2021-04-24T09:10:15.000Z</time>
      </trkpt>
      <trkpt lat="47.16733" lon="-1.60435">
        <ele>73</ele>
        <time>2021-04-24T09:10:17.000Z</time>
      </trkpt>
      <trkpt lat="47.16743" lon="-1.60426">
        <ele>74</ele>
        <time>2021-04-24T09:10:19.000Z</time>
      </trkpt>
      <trkpt lat="47.16754" lon="-1.60418">
        <ele>73</ele>
        <time>2021-04-24T09:10:21.000Z</time>
      </trkpt>
      <trkpt lat="47.16765" lon="-1.60411">
        <ele>73</ele>
        <time>2021-04-24T09:10:23.000Z</time>
      </trkpt>
      <trkpt lat="47.16776" lon="-1.60405">
        <ele>73</ele>
        <time>2021-04-24T09:10:25.000Z</time>
      </trkpt>
      <trkpt lat="47.16788" lon="-1.604">
        <ele>73</ele>
        <time>2021-04-24T09:10:27.000Z</time>
      </trkpt>
      <trkpt lat="47.16801" lon="-1.60395">
        <ele>73</ele>
        <time>2021-04-24T09:10:29.000Z</time>
      </trkpt>
      <trkpt lat="47.16813" lon="-1.6039">
        <ele>73</ele>
        <time>2021-04-24T09:10:31.000Z</time>
      </trkpt>
      <trkpt lat="47.16825" lon="-1.60384">
        <ele>74</ele>
        <time>2021-04-24T09:10:33.000Z</time>
      </trkpt>
      <trkpt lat="47.16836" lon="-1.60378">
        <ele>75</ele>
        <time>2021-04-24T09:10:35.000Z</time>
      </trkpt>
      <trkpt lat="47.16848" lon="-1.60372">
        <ele>75</ele>
        <time>2021-04-24T09:10:37.000Z</time>
      </trkpt>
      <trkpt lat="47.1686" lon="-1.60369">
        <ele>74</ele>
        <time>2021-04-24T09:10:39.000Z</time>
      </trkpt>
      <trkpt lat="47.16871" lon="-1.60365">
        <ele>74</ele>
        <time>2021-04-24T09:10:41.000Z</time>
      </trkpt>
      <trkpt lat="47.16883" lon="-1.6036">
        <ele>74</ele>
        <time>2021-04-24T09:10:43.000Z</time>
      </trkpt>
      <trkpt lat="47.16895" lon="-1.60355">
        <ele>74</ele>
        <time>2021-04-24T09:10:45.000Z</time>
      </trkpt>
      <trkpt lat="47.16906" lon="-1.60351">
        <ele>74</ele>
        <time>2021-04-24T09:10:47.000Z</time>
      </trkpt>
      <trkpt lat="47.16916" lon="-1.60346">
        <ele>75</ele>
        <time>2021-04-24T09:10:49.000Z</time>
      </trkpt>
      <trkpt lat="47.16926" lon="-1.60339">
        <ele>75</ele>
        <time>2021-04-24T09:10:51.000Z</time>
      </trkpt>
      <trkpt lat="47.16932" lon="-1.60328">
        <ele>75</ele>
        <time>2021-04-24T09:10:53.000Z</time>
      </trkpt>
      <trkpt lat="47.16932" lon="-1.60313">
        <ele>75</ele>
        <time>2021-04-24T09:10:56.000Z</time>
      </trkpt>
      <trkpt lat="47.16921" lon="-1.60307">
        <ele>74</ele>
        <time>2021-04-24T09:10:58.000Z</time>
      </trkpt>
      <trkpt lat="47.16909" lon="-1.60304">
        <ele>74</ele>
        <time>2021-04-24T09:11:00.000Z</time>
      </trkpt>
      <trkpt lat="47.16896" lon="-1.60301">
        <ele>73</ele>
        <time>2021-04-24T09:11:02.000Z</time>
      </trkpt>
      <trkpt lat="47.16882" lon="-1.60299">
        <ele>73</ele>
        <time>2021-04-24T09:11:04.000Z</time>
      </trkpt>
      <trkpt lat="47.16869" lon="-1.60295">
        <ele>73</ele>
        <time>2021-04-24T09:11:06.000Z</time>
      </trkpt>
      <trkpt lat="47.16856" lon="-1.60291">
        <ele>72</ele>
        <time>2021-04-24T09:11:08.000Z</time>
      </trkpt>
      <trkpt lat="47.16843" lon="-1.60288">
        <ele>73</ele>
        <time>2021-04-24T09:11:10.000Z</time>
      </trkpt>
      <trkpt lat="47.1683" lon="-1.60286">
        <ele>73</ele>
        <time>2021-04-24T09:11:12.000Z</time>
      </trkpt>
      <trkpt lat="47.16817" lon="-1.60281">
        <ele>74</ele>
        <time>2021-04-24T09:11:14.000Z</time>
      </trkpt>
      <trkpt lat="47.16806" lon="-1.60271">
        <ele>73</ele>
        <time>2021-04-24T09:11:16.000Z</time>
      </trkpt>
      <trkpt lat="47.16797" lon="-1.60258">
        <ele>73</ele>
        <time>2021-04-24T09:11:18.000Z</time>
      </trkpt>
      <trkpt lat="47.16788" lon="-1.60245">
        <ele>72</ele>
        <time>2021-04-24T09:11:20.000Z</time>
      </trkpt>
      <trkpt lat="47.1678" lon="-1.60231">
        <ele>72</ele>
        <time>2021-04-24T09:11:22.000Z</time>
      </trkpt>
      <trkpt lat="47.16772" lon="-1.60216">
        <ele>71</ele>
        <time>2021-04-24T09:11:24.000Z</time>
      </trkpt>
      <trkpt lat="47.16764" lon="-1.60202">
        <ele>71</ele>
        <time>2021-04-24T09:11:26.000Z</time>
      </trkpt>
      <trkpt lat="47.16756" lon="-1.60189">
        <ele>71</ele>
        <time>2021-04-24T09:11:28.000Z</time>
      </trkpt>
      <trkpt lat="47.16748" lon="-1.60176">
        <ele>71</ele>
        <time>2021-04-24T09:11:30.000Z</time>
      </trkpt>
      <trkpt lat="47.1674" lon="-1.60162">
        <ele>70</ele>
        <time>2021-04-24T09:11:32.000Z</time>
      </trkpt>
      <trkpt lat="47.16732" lon="-1.60148">
        <ele>70</ele>
        <time>2021-04-24T09:11:34.000Z</time>
      </trkpt>
      <trkpt lat="47.16724" lon="-1.60134">
        <ele>70</ele>
        <time>2021-04-24T09:11:36.000Z</time>
      </trkpt>
      <trkpt lat="47.16715" lon="-1.60121">
        <ele>69</ele>
        <time>2021-04-24T09:11:38.000Z</time>
      </trkpt>
      <trkpt lat="47.16707" lon="-1.60107">
        <ele>69</ele>
        <time>2021-04-24T09:11:40.000Z</time>
      </trkpt>
      <trkpt lat="47.16699" lon="-1.60094">
        <ele>69</ele>
        <time>2021-04-24T09:11:42.000Z</time>
      </trkpt>
      <trkpt lat="47.16691" lon="-1.60081">
        <ele>70</ele>
        <time>2021-04-24T09:11:44.000Z</time>
      </trkpt>
      <trkpt lat="47.16684" lon="-1.60068">
        <ele>70</ele>
        <time>2021-04-24T09:11:46.000Z</time>
      </trkpt>
      <trkpt lat="47.16675" lon="-1.60056">
        <ele>71</ele>
        <time>2021-04-24T09:11:48.000Z</time>
      </trkpt>
      <trkpt lat="47.16668" lon="-1.60043">
        <ele>71</ele>
        <time>2021-04-24T09:11:50.000Z</time>
      </trkpt>
      <trkpt lat="47.1666" lon="-1.6003">
        <ele>71</ele>
        <time>2021-04-24T09:11:52.000Z</time>
      </trkpt>
      <trkpt lat="47.16653" lon="-1.60018">
        <ele>71</ele>
        <time>2021-04-24T09:11:54.000Z</time>
      </trkpt>
      <trkpt lat="47.16646" lon="-1.60005">
        <ele>71</ele>
        <time>2021-04-24T09:11:56.000Z</time>
      </trkpt>
      <trkpt lat="47.16638" lon="-1.59993">
        <ele>71</ele>
        <time>2021-04-24T09:11:58.000Z</time>
      </trkpt>
      <trkpt lat="47.16629" lon="-1.5998">
        <ele>71</ele>
        <time>2021-04-24T09:12:00.000Z</time>
      </trkpt>
      <trkpt lat="47.16621" lon="-1.59967">
        <ele>71</ele>
        <time>2021-04-24T09:12:02.000Z</time>
      </trkpt>
      <trkpt lat="47.16613" lon="-1.59954">
        <ele>72</ele>
        <time>2021-04-24T09:12:04.000Z</time>
      </trkpt>
      <trkpt lat="47.16605" lon="-1.59941">
        <ele>71</ele>
        <time>2021-04-24T09:12:06.000Z</time>
      </trkpt>
      <trkpt lat="47.16596" lon="-1.59929">
        <ele>71</ele>
        <time>2021-04-24T09:12:08.000Z</time>
      </trkpt>
      <trkpt lat="47.16586" lon="-1.59916">
        <ele>71</ele>
        <time>2021-04-24T09:12:10.000Z</time>
      </trkpt>
      <trkpt lat="47.16575" lon="-1.59905">
        <ele>70</ele>
        <time>2021-04-24T09:12:12.000Z</time>
      </trkpt>
      <trkpt lat="47.16564" lon="-1.59894">
        <ele>70</ele>
        <time>2021-04-24T09:12:14.000Z</time>
      </trkpt>
      <trkpt lat="47.16551" lon="-1.59881">
        <ele>70</ele>
        <time>2021-04-24T09:12:16.000Z</time>
      </trkpt>
      <trkpt lat="47.1654" lon="-1.5987">
        <ele>70</ele>
        <time>2021-04-24T09:12:18.000Z</time>
      </trkpt>
      <trkpt lat="47.16528" lon="-1.59859">
        <ele>70</ele>
        <time>2021-04-24T09:12:20.000Z</time>
      </trkpt>
      <trkpt lat="47.16516" lon="-1.59849">
        <ele>71</ele>
        <time>2021-04-24T09:12:22.000Z</time>
      </trkpt>
      <trkpt lat="47.16504" lon="-1.59839">
        <ele>71</ele>
        <time>2021-04-24T09:12:24.000Z</time>
      </trkpt>
      <trkpt lat="47.16492" lon="-1.59828">
        <ele>71</ele>
        <time>2021-04-24T09:12:26.000Z</time>
      </trkpt>
      <trkpt lat="47.1648" lon="-1.59818">
        <ele>71</ele>
        <time>2021-04-24T09:12:28.000Z</time>
      </trkpt>
      <trkpt lat="47.16468" lon="-1.59808">
        <ele>70</ele>
        <time>2021-04-24T09:12:30.000Z</time>
      </trkpt>
      <trkpt lat="47.16457" lon="-1.59799">
        <ele>70</ele>
        <time>2021-04-24T09:12:32.000Z</time>
      </trkpt>
      <trkpt lat="47.16445" lon="-1.59789">
        <ele>70</ele>
        <time>2021-04-24T09:12:34.000Z</time>
      </trkpt>
      <trkpt lat="47.16434" lon="-1.59779">
        <ele>71</ele>
        <time>2021-04-24T09:12:36.000Z</time>
      </trkpt>
      <trkpt lat="47.16423" lon="-1.5977">
        <ele>71</ele>
        <time>2021-04-24T09:12:38.000Z</time>
      </trkpt>
      <trkpt lat="47.16411" lon="-1.59761">
        <ele>71</ele>
        <time>2021-04-24T09:12:40.000Z</time>
      </trkpt>
      <trkpt lat="47.164" lon="-1.59751">
        <ele>71</ele>
        <time>2021-04-24T09:12:42.000Z</time>
      </trkpt>
      <trkpt lat="47.1639" lon="-1.59741">
        <ele>72</ele>
        <time>2021-04-24T09:12:44.000Z</time>
      </trkpt>
      <trkpt lat="47.16379" lon="-1.5973">
        <ele>72</ele>
        <time>2021-04-24T09:12:46.000Z</time>
      </trkpt>
      <trkpt lat="47.16368" lon="-1.59719">
        <ele>72</ele>
        <time>2021-04-24T09:12:48.000Z</time>
      </trkpt>
      <trkpt lat="47.16358" lon="-1.59704">
        <ele>72</ele>
        <time>2021-04-24T09:12:50.000Z</time>
      </trkpt>
      <trkpt lat="47.16348" lon="-1.5969">
        <ele>72</ele>
        <time>2021-04-24T09:12:52.000Z</time>
      </trkpt>
      <trkpt lat="47.16339" lon="-1.59675">
        <ele>72</ele>
        <time>2021-04-24T09:12:54.000Z</time>
      </trkpt>
      <trkpt lat="47.1633" lon="-1.59661">
        <ele>72</ele>
        <time>2021-04-24T09:12:56.000Z</time>
      </trkpt>
      <trkpt lat="47.16322" lon="-1.59648">
        <ele>72</ele>
        <time>2021-04-24T09:12:58.000Z</time>
      </trkpt>
      <trkpt lat="47.16313" lon="-1.59636">
        <ele>72</ele>
        <time>2021-04-24T09:13:00.000Z</time>
      </trkpt>
      <trkpt lat="47.16305" lon="-1.59625">
        <ele>72</ele>
        <time>2021-04-24T09:13:02.000Z</time>
      </trkpt>
      <trkpt lat="47.16296" lon="-1.59621">
        <ele>72</ele>
        <time>2021-04-24T09:13:04.000Z</time>
      </trkpt>
      <trkpt lat="47.16285" lon="-1.59627">
        <ele>72</ele>
        <time>2021-04-24T09:13:06.000Z</time>
      </trkpt>
      <trkpt lat="47.16275" lon="-1.59635">
        <ele>72</ele>
        <time>2021-04-24T09:13:08.000Z</time>
      </trkpt>
      <trkpt lat="47.16263" lon="-1.59641">
        <ele>72</ele>
        <time>2021-04-24T09:13:10.000Z</time>
      </trkpt>
      <trkpt lat="47.1625" lon="-1.59647">
        <ele>72</ele>
        <time>2021-04-24T09:13:12.000Z</time>
      </trkpt>
      <trkpt lat="47.16237" lon="-1.59654">
        <ele>72</ele>
        <time>2021-04-24T09:13:14.000Z</time>
      </trkpt>
      <trkpt lat="47.16224" lon="-1.5966">
        <ele>72</ele>
        <time>2021-04-24T09:13:16.000Z</time>
      </trkpt>
      <trkpt lat="47.16211" lon="-1.59667">
        <ele>72</ele>
        <time>2021-04-24T09:13:18.000Z</time>
      </trkpt>
      <trkpt lat="47.16199" lon="-1.59674">
        <ele>73</ele>
        <time>2021-04-24T09:13:20.000Z</time>
      </trkpt>
      <trkpt lat="47.16186" lon="-1.59681">
        <ele>73</ele>
        <time>2021-04-24T09:13:22.000Z</time>
      </trkpt>
      <trkpt lat="47.16174" lon="-1.59687">
        <ele>73</ele>
        <time>2021-04-24T09:13:24.000Z</time>
      </trkpt>
      <trkpt lat="47.16161" lon="-1.59694">
        <ele>74</ele>
        <time>2021-04-24T09:13:26.000Z</time>
      </trkpt>
      <trkpt lat="47.16149" lon="-1.59701">
        <ele>74</ele>
        <time>2021-04-24T09:13:28.000Z</time>
      </trkpt>
      <trkpt lat="47.16136" lon="-1.59708">
        <ele>75</ele>
        <time>2021-04-24T09:13:30.000Z</time>
      </trkpt>
      <trkpt lat="47.16124" lon="-1.59715">
        <ele>75</ele>
        <time>2021-04-24T09:13:32.000Z</time>
      </trkpt>
      <trkpt lat="47.16112" lon="-1.59722">
        <ele>75</ele>
        <time>2021-04-24T09:13:34.000Z</time>
      </trkpt>
      <trkpt lat="47.161" lon="-1.5973">
        <ele>75</ele>
        <time>2021-04-24T09:13:36.000Z</time>
      </trkpt>
      <trkpt lat="47.16087" lon="-1.59739">
        <ele>75</ele>
        <time>2021-04-24T09:13:38.000Z</time>
      </trkpt>
      <trkpt lat="47.16075" lon="-1.59747">
        <ele>75</ele>
        <time>2021-04-24T09:13:40.000Z</time>
      </trkpt>
      <trkpt lat="47.16063" lon="-1.59755">
        <ele>76</ele>
        <time>2021-04-24T09:13:42.000Z</time>
      </trkpt>
      <trkpt lat="47.1605" lon="-1.59762">
        <ele>76</ele>
        <time>2021-04-24T09:13:44.000Z</time>
      </trkpt>
      <trkpt lat="47.16039" lon="-1.5977">
        <ele>76</ele>
        <time>2021-04-24T09:13:46.000Z</time>
      </trkpt>
      <trkpt lat="47.16028" lon="-1.59777">
        <ele>76</ele>
        <time>2021-04-24T09:13:48.000Z</time>
      </trkpt>
      <trkpt lat="47.16015" lon="-1.59783">
        <ele>76</ele>
        <time>2021-04-24T09:13:50.000Z</time>
      </trkpt>
      <trkpt lat="47.16003" lon="-1.59791">
        <ele>76</ele>
        <time>2021-04-24T09:13:52.000Z</time>
      </trkpt>
      <trkpt lat="47.15991" lon="-1.59799">
        <ele>76</ele>
        <time>2021-04-24T09:13:54.000Z</time>
      </trkpt>
      <trkpt lat="47.15979" lon="-1.59806">
        <ele>76</ele>
        <time>2021-04-24T09:13:56.000Z</time>
      </trkpt>
      <trkpt lat="47.15966" lon="-1.59813">
        <ele>76</ele>
        <time>2021-04-24T09:13:58.000Z</time>
      </trkpt>
      <trkpt lat="47.15953" lon="-1.59819">
        <ele>77</ele>
        <time>2021-04-24T09:14:00.000Z</time>
      </trkpt>
      <trkpt lat="47.15941" lon="-1.59826">
        <ele>77</ele>
        <time>2021-04-24T09:14:02.000Z</time>
      </trkpt>
      <trkpt lat="47.15929" lon="-1.59833">
        <ele>77</ele>
        <time>2021-04-24T09:14:04.000Z</time>
      </trkpt>
      <trkpt lat="47.15918" lon="-1.59844">
        <ele>77</ele>
        <time>2021-04-24T09:14:06.000Z</time>
      </trkpt>
      <trkpt lat="47.15909" lon="-1.59859">
        <ele>77</ele>
        <time>2021-04-24T09:14:08.000Z</time>
      </trkpt>
      <trkpt lat="47.15898" lon="-1.59866">
        <ele>77</ele>
        <time>2021-04-24T09:14:10.000Z</time>
      </trkpt>
      <trkpt lat="47.15886" lon="-1.59855">
        <ele>78</ele>
        <time>2021-04-24T09:14:12.000Z</time>
      </trkpt>
      <trkpt lat="47.1588" lon="-1.59838">
        <ele>78</ele>
        <time>2021-04-24T09:14:14.000Z</time>
      </trkpt>
      <trkpt lat="47.15875" lon="-1.59821">
        <ele>78</ele>
        <time>2021-04-24T09:14:16.000Z</time>
      </trkpt>
      <trkpt lat="47.15868" lon="-1.59805">
        <ele>77</ele>
        <time>2021-04-24T09:14:18.000Z</time>
      </trkpt>
      <trkpt lat="47.15858" lon="-1.59791">
        <ele>77</ele>
        <time>2021-04-24T09:14:20.000Z</time>
      </trkpt>
      <trkpt lat="47.15847" lon="-1.59779">
        <ele>77</ele>
        <time>2021-04-24T09:14:22.000Z</time>
      </trkpt>
      <trkpt lat="47.15836" lon="-1.59768">
        <ele>77</ele>
        <time>2021-04-24T09:14:24.000Z</time>
      </trkpt>
      <trkpt lat="47.15824" lon="-1.59758">
        <ele>77</ele>
        <time>2021-04-24T09:14:26.000Z</time>
      </trkpt>
      <trkpt lat="47.15813" lon="-1.59749">
        <ele>77</ele>
        <time>2021-04-24T09:14:28.000Z</time>
      </trkpt>
      <trkpt lat="47.15802" lon="-1.5974">
        <ele>77</ele>
        <time>2021-04-24T09:14:30.000Z</time>
      </trkpt>
      <trkpt lat="47.1579" lon="-1.59734">
        <ele>77</ele>
        <time>2021-04-24T09:14:32.000Z</time>
      </trkpt>
      <trkpt lat="47.15778" lon="-1.5973">
        <ele>78</ele>
        <time>2021-04-24T09:14:34.000Z</time>
      </trkpt>
      <trkpt lat="47.15767" lon="-1.59721">
        <ele>78</ele>
        <time>2021-04-24T09:14:36.000Z</time>
      </trkpt>
      <trkpt lat="47.15763" lon="-1.59703">
        <ele>78</ele>
        <time>2021-04-24T09:14:38.000Z</time>
      </trkpt>
      <trkpt lat="47.15764" lon="-1.59684">
        <ele>77</ele>
        <time>2021-04-24T09:14:40.000Z</time>
      </trkpt>
      <trkpt lat="47.15765" lon="-1.59665">
        <ele>77</ele>
        <time>2021-04-24T09:14:42.000Z</time>
      </trkpt>
      <trkpt lat="47.15764" lon="-1.59647">
        <ele>77</ele>
        <time>2021-04-24T09:14:44.000Z</time>
      </trkpt>
      <trkpt lat="47.15763" lon="-1.5963">
        <ele>77</ele>
        <time>2021-04-24T09:14:46.000Z</time>
      </trkpt>
      <trkpt lat="47.15761" lon="-1.59611">
        <ele>77</ele>
        <time>2021-04-24T09:14:48.000Z</time>
      </trkpt>
      <trkpt lat="47.1576" lon="-1.59593">
        <ele>78</ele>
        <time>2021-04-24T09:14:50.000Z</time>
      </trkpt>
      <trkpt lat="47.15759" lon="-1.59576">
        <ele>78</ele>
        <time>2021-04-24T09:14:52.000Z</time>
      </trkpt>
      <trkpt lat="47.15758" lon="-1.59557">
        <ele>77</ele>
        <time>2021-04-24T09:14:54.000Z</time>
      </trkpt>
      <trkpt lat="47.15758" lon="-1.5954">
        <ele>78</ele>
        <time>2021-04-24T09:14:56.000Z</time>
      </trkpt>
      <trkpt lat="47.15758" lon="-1.59522">
        <ele>78</ele>
        <time>2021-04-24T09:14:58.000Z</time>
      </trkpt>
      <trkpt lat="47.15759" lon="-1.59504">
        <ele>78</ele>
        <time>2021-04-24T09:15:00.000Z</time>
      </trkpt>
      <trkpt lat="47.1576" lon="-1.59485">
        <ele>77</ele>
        <time>2021-04-24T09:15:02.000Z</time>
      </trkpt>
      <trkpt lat="47.15762" lon="-1.59468">
        <ele>77</ele>
        <time>2021-04-24T09:15:04.000Z</time>
      </trkpt>
      <trkpt lat="47.15765" lon="-1.5945">
        <ele>77</ele>
        <time>2021-04-24T09:15:06.000Z</time>
      </trkpt>
      <trkpt lat="47.15768" lon="-1.59433">
        <ele>78</ele>
        <time>2021-04-24T09:15:08.000Z</time>
      </trkpt>
      <trkpt lat="47.15771" lon="-1.59415">
        <ele>78</ele>
        <time>2021-04-24T09:15:10.000Z</time>
      </trkpt>
      <trkpt lat="47.15774" lon="-1.59397">
        <ele>78</ele>
        <time>2021-04-24T09:15:12.000Z</time>
      </trkpt>
      <trkpt lat="47.15777" lon="-1.59378">
        <ele>78</ele>
        <time>2021-04-24T09:15:14.000Z</time>
      </trkpt>
      <trkpt lat="47.1578" lon="-1.59359">
        <ele>78</ele>
        <time>2021-04-24T09:15:16.000Z</time>
      </trkpt>
      <trkpt lat="47.15783" lon="-1.5934">
        <ele>78</ele>
        <time>2021-04-24T09:15:18.000Z</time>
      </trkpt>
      <trkpt lat="47.15786" lon="-1.59321">
        <ele>78</ele>
        <time>2021-04-24T09:15:20.000Z</time>
      </trkpt>
      <trkpt lat="47.15789" lon="-1.59303">
        <ele>78</ele>
        <time>2021-04-24T09:15:22.000Z</time>
      </trkpt>
      <trkpt lat="47.15792" lon="-1.59285">
        <ele>79</ele>
        <time>2021-04-24T09:15:24.000Z</time>
      </trkpt>
      <trkpt lat="47.15795" lon="-1.59266">
        <ele>79</ele>
        <time>2021-04-24T09:15:26.000Z</time>
      </trkpt>
      <trkpt lat="47.15798" lon="-1.59248">
        <ele>79</ele>
        <time>2021-04-24T09:15:28.000Z</time>
      </trkpt>
      <trkpt lat="47.15802" lon="-1.5923">
        <ele>79</ele>
        <time>2021-04-24T09:15:30.000Z</time>
      </trkpt>
      <trkpt lat="47.15808" lon="-1.59213">
        <ele>79</ele>
        <time>2021-04-24T09:15:32.000Z</time>
      </trkpt>
      <trkpt lat="47.15812" lon="-1.59196">
        <ele>80</ele>
        <time>2021-04-24T09:15:34.000Z</time>
      </trkpt>
      <trkpt lat="47.15813" lon="-1.59178">
        <ele>80</ele>
        <time>2021-04-24T09:15:36.000Z</time>
      </trkpt>
      <trkpt lat="47.15814" lon="-1.59159">
        <ele>80</ele>
        <time>2021-04-24T09:15:38.000Z</time>
      </trkpt>
      <trkpt lat="47.15823" lon="-1.59145">
        <ele>80</ele>
        <time>2021-04-24T09:15:40.000Z</time>
      </trkpt>
      <trkpt lat="47.15836" lon="-1.5914">
        <ele>79</ele>
        <time>2021-04-24T09:15:42.000Z</time>
      </trkpt>
      <trkpt lat="47.15848" lon="-1.59136">
        <ele>79</ele>
        <time>2021-04-24T09:15:44.000Z</time>
      </trkpt>
      <trkpt lat="47.15859" lon="-1.59123">
        <ele>79</ele>
        <time>2021-04-24T09:15:46.000Z</time>
      </trkpt>
      <trkpt lat="47.15868" lon="-1.5911">
        <ele>79</ele>
        <time>2021-04-24T09:15:48.000Z</time>
      </trkpt>
      <trkpt lat="47.15877" lon="-1.59096">
        <ele>80</ele>
        <time>2021-04-24T09:15:50.000Z</time>
      </trkpt>
      <trkpt lat="47.15886" lon="-1.59082">
        <ele>81</ele>
        <time>2021-04-24T09:15:52.000Z</time>
      </trkpt>
      <trkpt lat="47.15897" lon="-1.59068">
        <ele>82</ele>
        <time>2021-04-24T09:15:54.000Z</time>
      </trkpt>
      <trkpt lat="47.15905" lon="-1.59052">
        <ele>82</ele>
        <time>2021-04-24T09:15:56.000Z</time>
      </trkpt>
      <trkpt lat="47.15914" lon="-1.59038">
        <ele>82</ele>
        <time>2021-04-24T09:15:58.000Z</time>
      </trkpt>
      <trkpt lat="47.15923" lon="-1.59023">
        <ele>83</ele>
        <time>2021-04-24T09:16:00.000Z</time>
      </trkpt>
      <trkpt lat="47.15931" lon="-1.59008">
        <ele>82</ele>
        <time>2021-04-24T09:16:02.000Z</time>
      </trkpt>
      <trkpt lat="47.15938" lon="-1.58994">
        <ele>82</ele>
        <time>2021-04-24T09:16:04.000Z</time>
      </trkpt>
      <trkpt lat="47.15946" lon="-1.58979">
        <ele>82</ele>
        <time>2021-04-24T09:16:06.000Z</time>
      </trkpt>
      <trkpt lat="47.15954" lon="-1.58965">
        <ele>81</ele>
        <time>2021-04-24T09:16:08.000Z</time>
      </trkpt>
      <trkpt lat="47.15962" lon="-1.58951">
        <ele>81</ele>
        <time>2021-04-24T09:16:10.000Z</time>
      </trkpt>
      <trkpt lat="47.1597" lon="-1.58938">
        <ele>81</ele>
        <time>2021-04-24T09:16:12.000Z</time>
      </trkpt>
      <trkpt lat="47.15977" lon="-1.58924">
        <ele>81</ele>
        <time>2021-04-24T09:16:14.000Z</time>
      </trkpt>
      <trkpt lat="47.15985" lon="-1.58911">
        <ele>81</ele>
        <time>2021-04-24T09:16:16.000Z</time>
      </trkpt>
      <trkpt lat="47.15993" lon="-1.58898">
        <ele>81</ele>
        <time>2021-04-24T09:16:18.000Z</time>
      </trkpt>
      <trkpt lat="47.16001" lon="-1.58885">
        <ele>81</ele>
        <time>2021-04-24T09:16:20.000Z</time>
      </trkpt>
      <trkpt lat="47.16011" lon="-1.58873">
        <ele>80</ele>
        <time>2021-04-24T09:16:22.000Z</time>
      </trkpt>
      <trkpt lat="47.1602" lon="-1.58862">
        <ele>80</ele>
        <time>2021-04-24T09:16:24.000Z</time>
      </trkpt>
      <trkpt lat="47.16029" lon="-1.58852">
        <ele>80</ele>
        <time>2021-04-24T09:16:26.000Z</time>
      </trkpt>
      <trkpt lat="47.16037" lon="-1.5884">
        <ele>80</ele>
        <time>2021-04-24T09:16:28.000Z</time>
      </trkpt>
      <trkpt lat="47.16045" lon="-1.58829">
        <ele>81</ele>
        <time>2021-04-24T09:16:30.000Z</time>
      </trkpt>
      <trkpt lat="47.16053" lon="-1.58819">
        <ele>81</ele>
        <time>2021-04-24T09:16:32.000Z</time>
      </trkpt>
      <trkpt lat="47.1606" lon="-1.58809">
        <ele>80</ele>
        <time>2021-04-24T09:16:34.000Z</time>
      </trkpt>
      <trkpt lat="47.1607" lon="-1.58797">
        <ele>80</ele>
        <time>2021-04-24T09:16:37.000Z</time>
      </trkpt>
      <trkpt lat="47.16078" lon="-1.58786">
        <ele>79</ele>
        <time>2021-04-24T09:16:40.000Z</time>
      </trkpt>
      <trkpt lat="47.16086" lon="-1.58775">
        <ele>79</ele>
        <time>2021-04-24T09:16:44.000Z</time>
      </trkpt>
      <trkpt lat="47.16092" lon="-1.58766">
        <ele>79</ele>
        <time>2021-04-24T09:16:46.000Z</time>
      </trkpt>
      <trkpt lat="47.161" lon="-1.58755">
        <ele>79</ele>
        <time>2021-04-24T09:16:48.000Z</time>
      </trkpt>
      <trkpt lat="47.1611" lon="-1.58743">
        <ele>80</ele>
        <time>2021-04-24T09:16:50.000Z</time>
      </trkpt>
      <trkpt lat="47.16119" lon="-1.5873">
        <ele>79</ele>
        <time>2021-04-24T09:16:52.000Z</time>
      </trkpt>
      <trkpt lat="47.16127" lon="-1.58719">
        <ele>79</ele>
        <time>2021-04-24T09:16:54.000Z</time>
      </trkpt>
      <trkpt lat="47.16136" lon="-1.58707">
        <ele>79</ele>
        <time>2021-04-24T09:16:56.000Z</time>
      </trkpt>
      <trkpt lat="47.16146" lon="-1.58696">
        <ele>78</ele>
        <time>2021-04-24T09:16:58.000Z</time>
      </trkpt>
      <trkpt lat="47.16155" lon="-1.58684">
        <ele>78</ele>
        <time>2021-04-24T09:17:00.000Z</time>
      </trkpt>
      <trkpt lat="47.16163" lon="-1.58673">
        <ele>78</ele>
        <time>2021-04-24T09:17:02.000Z</time>
      </trkpt>
      <trkpt lat="47.16173" lon="-1.58661">
        <ele>78</ele>
        <time>2021-04-24T09:17:04.000Z</time>
      </trkpt>
      <trkpt lat="47.16182" lon="-1.58649">
        <ele>78</ele>
        <time>2021-04-24T09:17:06.000Z</time>
      </trkpt>
      <trkpt lat="47.16191" lon="-1.58637">
        <ele>78</ele>
        <time>2021-04-24T09:17:08.000Z</time>
      </trkpt>
      <trkpt lat="47.16201" lon="-1.58625">
        <ele>78</ele>
        <time>2021-04-24T09:17:10.000Z</time>
      </trkpt>
      <trkpt lat="47.16211" lon="-1.58612">
        <ele>78</ele>
        <time>2021-04-24T09:17:12.000Z</time>
      </trkpt>
      <trkpt lat="47.1622" lon="-1.586">
        <ele>78</ele>
        <time>2021-04-24T09:17:14.000Z</time>
      </trkpt>
      <trkpt lat="47.16229" lon="-1.58587">
        <ele>78</ele>
        <time>2021-04-24T09:17:16.000Z</time>
      </trkpt>
      <trkpt lat="47.16239" lon="-1.58575">
        <ele>77</ele>
        <time>2021-04-24T09:17:18.000Z</time>
      </trkpt>
      <trkpt lat="47.16248" lon="-1.58563">
        <ele>77</ele>
        <time>2021-04-24T09:17:20.000Z</time>
      </trkpt>
      <trkpt lat="47.16258" lon="-1.58551">
        <ele>77</ele>
        <time>2021-04-24T09:17:22.000Z</time>
      </trkpt>
      <trkpt lat="47.16267" lon="-1.58538">
        <ele>78</ele>
        <time>2021-04-24T09:17:24.000Z</time>
      </trkpt>
      <trkpt lat="47.16275" lon="-1.58526">
        <ele>78</ele>
        <time>2021-04-24T09:17:26.000Z</time>
      </trkpt>
      <trkpt lat="47.16284" lon="-1.58513">
        <ele>78</ele>
        <time>2021-04-24T09:17:28.000Z</time>
      </trkpt>
      <trkpt lat="47.16294" lon="-1.58501">
        <ele>77</ele>
        <time>2021-04-24T09:17:30.000Z</time>
      </trkpt>
      <trkpt lat="47.16304" lon="-1.5849">
        <ele>78</ele>
        <time>2021-04-24T09:17:32.000Z</time>
      </trkpt>
      <trkpt lat="47.16313" lon="-1.58478">
        <ele>78</ele>
        <time>2021-04-24T09:17:34.000Z</time>
      </trkpt>
      <trkpt lat="47.16322" lon="-1.58464">
        <ele>78</ele>
        <time>2021-04-24T09:17:36.000Z</time>
      </trkpt>
      <trkpt lat="47.16332" lon="-1.58452">
        <ele>78</ele>
        <time>2021-04-24T09:17:38.000Z</time>
      </trkpt>
      <trkpt lat="47.16342" lon="-1.5844">
        <ele>78</ele>
        <time>2021-04-24T09:17:40.000Z</time>
      </trkpt>
      <trkpt lat="47.16351" lon="-1.58428">
        <ele>77</ele>
        <time>2021-04-24T09:17:42.000Z</time>
      </trkpt>
      <trkpt lat="47.16361" lon="-1.58416">
        <ele>77</ele>
        <time>2021-04-24T09:17:44.000Z</time>
      </trkpt>
      <trkpt lat="47.16371" lon="-1.58404">
        <ele>77</ele>
        <time>2021-04-24T09:17:46.000Z</time>
      </trkpt>
      <trkpt lat="47.1638" lon="-1.58392">
        <ele>77</ele>
        <time>2021-04-24T09:17:48.000Z</time>
      </trkpt>
      <trkpt lat="47.16389" lon="-1.5838">
        <ele>78</ele>
        <time>2021-04-24T09:17:50.000Z</time>
      </trkpt>
      <trkpt lat="47.16398" lon="-1.58368">
        <ele>78</ele>
        <time>2021-04-24T09:17:52.000Z</time>
      </trkpt>
      <trkpt lat="47.16407" lon="-1.58356">
        <ele>78</ele>
        <time>2021-04-24T09:17:54.000Z</time>
      </trkpt>
      <trkpt lat="47.16416" lon="-1.58344">
        <ele>78</ele>
        <time>2021-04-24T09:17:56.000Z</time>
      </trkpt>
      <trkpt lat="47.16425" lon="-1.58331">
        <ele>78</ele>
        <time>2021-04-24T09:17:58.000Z</time>
      </trkpt>
      <trkpt lat="47.16433" lon="-1.5832">
        <ele>78</ele>
        <time>2021-04-24T09:18:00.000Z</time>
      </trkpt>
      <trkpt lat="47.16443" lon="-1.58308">
        <ele>79</ele>
        <time>2021-04-24T09:18:02.000Z</time>
      </trkpt>
      <trkpt lat="47.16451" lon="-1.58296">
        <ele>79</ele>
        <time>2021-04-24T09:18:04.000Z</time>
      </trkpt>
      <trkpt lat="47.1646" lon="-1.58285">
        <ele>79</ele>
        <time>2021-04-24T09:18:06.000Z</time>
      </trkpt>
      <trkpt lat="47.16469" lon="-1.58273">
        <ele>79</ele>
        <time>2021-04-24T09:18:08.000Z</time>
      </trkpt>
      <trkpt lat="47.16479" lon="-1.58262">
        <ele>79</ele>
        <time>2021-04-24T09:18:10.000Z</time>
      </trkpt>
      <trkpt lat="47.16488" lon="-1.5825">
        <ele>79</ele>
        <time>2021-04-24T09:18:12.000Z</time>
      </trkpt>
      <trkpt lat="47.16497" lon="-1.58238">
        <ele>79</ele>
        <time>2021-04-24T09:18:14.000Z</time>
      </trkpt>
      <trkpt lat="47.16505" lon="-1.58226">
        <ele>79</ele>
        <time>2021-04-24T09:18:16.000Z</time>
      </trkpt>
      <trkpt lat="47.16514" lon="-1.58215">
        <ele>79</ele>
        <time>2021-04-24T09:18:18.000Z</time>
      </trkpt>
      <trkpt lat="47.16523" lon="-1.58204">
        <ele>79</ele>
        <time>2021-04-24T09:18:20.000Z</time>
      </trkpt>
      <trkpt lat="47.16532" lon="-1.58192">
        <ele>79</ele>
        <time>2021-04-24T09:18:22.000Z</time>
      </trkpt>
      <trkpt lat="47.16541" lon="-1.5818">
        <ele>79</ele>
        <time>2021-04-24T09:18:24.000Z</time>
      </trkpt>
      <trkpt lat="47.16549" lon="-1.58169">
        <ele>80</ele>
        <time>2021-04-24T09:18:26.000Z</time>
      </trkpt>
      <trkpt lat="47.16558" lon="-1.58157">
        <ele>80</ele>
        <time>2021-04-24T09:18:28.000Z</time>
      </trkpt>
      <trkpt lat="47.16566" lon="-1.58145">
        <ele>80</ele>
        <time>2021-04-24T09:18:30.000Z</time>
      </trkpt>
      <trkpt lat="47.16576" lon="-1.58134">
        <ele>80</ele>
        <time>2021-04-24T09:18:32.000Z</time>
      </trkpt>
      <trkpt lat="47.16585" lon="-1.58123">
        <ele>79</ele>
        <time>2021-04-24T09:18:34.000Z</time>
      </trkpt>
      <trkpt lat="47.16594" lon="-1.58111">
        <ele>79</ele>
        <time>2021-04-24T09:18:36.000Z</time>
      </trkpt>
      <trkpt lat="47.16602" lon="-1.58099">
        <ele>79</ele>
        <time>2021-04-24T09:18:38.000Z</time>
      </trkpt>
      <trkpt lat="47.16611" lon="-1.58087">
        <ele>79</ele>
        <time>2021-04-24T09:18:40.000Z</time>
      </trkpt>
      <trkpt lat="47.16619" lon="-1.58076">
        <ele>80</ele>
        <time>2021-04-24T09:18:42.000Z</time>
      </trkpt>
      <trkpt lat="47.16622" lon="-1.58061">
        <ele>80</ele>
        <time>2021-04-24T09:18:44.000Z</time>
      </trkpt>
      <trkpt lat="47.16616" lon="-1.58047">
        <ele>80</ele>
        <time>2021-04-24T09:18:46.000Z</time>
      </trkpt>
      <trkpt lat="47.16606" lon="-1.58037">
        <ele>80</ele>
        <time>2021-04-24T09:18:48.000Z</time>
      </trkpt>
      <trkpt lat="47.16595" lon="-1.58027">
        <ele>80</ele>
        <time>2021-04-24T09:18:50.000Z</time>
      </trkpt>
      <trkpt lat="47.16583" lon="-1.58019">
        <ele>80</ele>
        <time>2021-04-24T09:18:52.000Z</time>
      </trkpt>
      <trkpt lat="47.16573" lon="-1.5801">
        <ele>80</ele>
        <time>2021-04-24T09:18:54.000Z</time>
      </trkpt>
      <trkpt lat="47.16563" lon="-1.58">
        <ele>81</ele>
        <time>2021-04-24T09:18:56.000Z</time>
      </trkpt>
      <trkpt lat="47.16553" lon="-1.57989">
        <ele>81</ele>
        <time>2021-04-24T09:18:58.000Z</time>
      </trkpt>
      <trkpt lat="47.16542" lon="-1.57979">
        <ele>81</ele>
        <time>2021-04-24T09:19:00.000Z</time>
      </trkpt>
      <trkpt lat="47.16532" lon="-1.57968">
        <ele>81</ele>
        <time>2021-04-24T09:19:02.000Z</time>
      </trkpt>
      <trkpt lat="47.16522" lon="-1.57958">
        <ele>81</ele>
        <time>2021-04-24T09:19:04.000Z</time>
      </trkpt>
      <trkpt lat="47.16513" lon="-1.57948">
        <ele>82</ele>
        <time>2021-04-24T09:19:06.000Z</time>
      </trkpt>
      <trkpt lat="47.16503" lon="-1.57938">
        <ele>82</ele>
        <time>2021-04-24T09:19:08.000Z</time>
      </trkpt>
      <trkpt lat="47.16493" lon="-1.57928">
        <ele>82</ele>
        <time>2021-04-24T09:19:10.000Z</time>
      </trkpt>
      <trkpt lat="47.16483" lon="-1.57919">
        <ele>82</ele>
        <time>2021-04-24T09:19:12.000Z</time>
      </trkpt>
      <trkpt lat="47.16473" lon="-1.57909">
        <ele>83</ele>
        <time>2021-04-24T09:19:14.000Z</time>
      </trkpt>
      <trkpt lat="47.16463" lon="-1.57901">
        <ele>83</ele>
        <time>2021-04-24T09:19:16.000Z</time>
      </trkpt>
      <trkpt lat="47.16454" lon="-1.57892">
        <ele>83</ele>
        <time>2021-04-24T09:19:18.000Z</time>
      </trkpt>
      <trkpt lat="47.16443" lon="-1.57884">
        <ele>83</ele>
        <time>2021-04-24T09:19:20.000Z</time>
      </trkpt>
      <trkpt lat="47.16433" lon="-1.57877">
        <ele>83</ele>
        <time>2021-04-24T09:19:22.000Z</time>
      </trkpt>
      <trkpt lat="47.16423" lon="-1.5787">
        <ele>83</ele>
        <time>2021-04-24T09:19:24.000Z</time>
      </trkpt>
      <trkpt lat="47.16413" lon="-1.57862">
        <ele>83</ele>
        <time>2021-04-24T09:19:26.000Z</time>
      </trkpt>
      <trkpt lat="47.16402" lon="-1.57855">
        <ele>84</ele>
        <time>2021-04-24T09:19:28.000Z</time>
      </trkpt>
      <trkpt lat="47.16391" lon="-1.57847">
        <ele>84</ele>
        <time>2021-04-24T09:19:30.000Z</time>
      </trkpt>
      <trkpt lat="47.1638" lon="-1.57839">
        <ele>84</ele>
        <time>2021-04-24T09:19:32.000Z</time>
      </trkpt>
      <trkpt lat="47.1637" lon="-1.5783">
        <ele>84</ele>
        <time>2021-04-24T09:19:34.000Z</time>
      </trkpt>
      <trkpt lat="47.1636" lon="-1.57822">
        <ele>84</ele>
        <time>2021-04-24T09:19:36.000Z</time>
      </trkpt>
      <trkpt lat="47.16351" lon="-1.57812">
        <ele>84</ele>
        <time>2021-04-24T09:19:38.000Z</time>
      </trkpt>
      <trkpt lat="47.16343" lon="-1.57799">
        <ele>84</ele>
        <time>2021-04-24T09:19:40.000Z</time>
      </trkpt>
      <trkpt lat="47.16336" lon="-1.57785">
        <ele>85</ele>
        <time>2021-04-24T09:19:42.000Z</time>
      </trkpt>
      <trkpt lat="47.16328" lon="-1.57772">
        <ele>84</ele>
        <time>2021-04-24T09:19:44.000Z</time>
      </trkpt>
      <trkpt lat="47.1632" lon="-1.5776">
        <ele>84</ele>
        <time>2021-04-24T09:19:46.000Z</time>
      </trkpt>
      <trkpt lat="47.16312" lon="-1.57747">
        <ele>84</ele>
        <time>2021-04-24T09:19:48.000Z</time>
      </trkpt>
      <trkpt lat="47.16304" lon="-1.57735">
        <ele>85</ele>
        <time>2021-04-24T09:19:50.000Z</time>
      </trkpt>
      <trkpt lat="47.16296" lon="-1.57723">
        <ele>84</ele>
        <time>2021-04-24T09:19:52.000Z</time>
      </trkpt>
      <trkpt lat="47.16288" lon="-1.57711">
        <ele>84</ele>
        <time>2021-04-24T09:19:54.000Z</time>
      </trkpt>
      <trkpt lat="47.16281" lon="-1.57699">
        <ele>84</ele>
        <time>2021-04-24T09:19:56.000Z</time>
      </trkpt>
      <trkpt lat="47.16272" lon="-1.5769">
        <ele>84</ele>
        <time>2021-04-24T09:19:58.000Z</time>
      </trkpt>
      <trkpt lat="47.16262" lon="-1.5768">
        <ele>84</ele>
        <time>2021-04-24T09:20:00.000Z</time>
      </trkpt>
      <trkpt lat="47.16253" lon="-1.57671">
        <ele>84</ele>
        <time>2021-04-24T09:20:02.000Z</time>
      </trkpt>
      <trkpt lat="47.16243" lon="-1.57662">
        <ele>84</ele>
        <time>2021-04-24T09:20:04.000Z</time>
      </trkpt>
      <trkpt lat="47.16234" lon="-1.57652">
        <ele>84</ele>
        <time>2021-04-24T09:20:06.000Z</time>
      </trkpt>
      <trkpt lat="47.16225" lon="-1.57641">
        <ele>83</ele>
        <time>2021-04-24T09:20:08.000Z</time>
      </trkpt>
      <trkpt lat="47.16216" lon="-1.5763">
        <ele>83</ele>
        <time>2021-04-24T09:20:10.000Z</time>
      </trkpt>
      <trkpt lat="47.16208" lon="-1.57618">
        <ele>83</ele>
        <time>2021-04-24T09:20:12.000Z</time>
      </trkpt>
      <trkpt lat="47.16201" lon="-1.57605">
        <ele>83</ele>
        <time>2021-04-24T09:20:14.000Z</time>
      </trkpt>
      <trkpt lat="47.16194" lon="-1.57593">
        <ele>83</ele>
        <time>2021-04-24T09:20:16.000Z</time>
      </trkpt>
      <trkpt lat="47.16188" lon="-1.57578">
        <ele>82</ele>
        <time>2021-04-24T09:20:18.000Z</time>
      </trkpt>
      <trkpt lat="47.16181" lon="-1.57564">
        <ele>82</ele>
        <time>2021-04-24T09:20:20.000Z</time>
      </trkpt>
      <trkpt lat="47.16175" lon="-1.57549">
        <ele>82</ele>
        <time>2021-04-24T09:20:22.000Z</time>
      </trkpt>
      <trkpt lat="47.1617" lon="-1.57534">
        <ele>82</ele>
        <time>2021-04-24T09:20:24.000Z</time>
      </trkpt>
      <trkpt lat="47.16168" lon="-1.57518">
        <ele>82</ele>
        <time>2021-04-24T09:20:26.000Z</time>
      </trkpt>
      <trkpt lat="47.16167" lon="-1.57501">
        <ele>81</ele>
        <time>2021-04-24T09:20:28.000Z</time>
      </trkpt>
      <trkpt lat="47.16168" lon="-1.57483">
        <ele>81</ele>
        <time>2021-04-24T09:20:30.000Z</time>
      </trkpt>
      <trkpt lat="47.16168" lon="-1.57465">
        <ele>81</ele>
        <time>2021-04-24T09:20:32.000Z</time>
      </trkpt>
      <trkpt lat="47.16169" lon="-1.57447">
        <ele>81</ele>
        <time>2021-04-24T09:20:34.000Z</time>
      </trkpt>
      <trkpt lat="47.16168" lon="-1.57429">
        <ele>81</ele>
        <time>2021-04-24T09:20:36.000Z</time>
      </trkpt>
      <trkpt lat="47.16167" lon="-1.57412">
        <ele>81</ele>
        <time>2021-04-24T09:20:38.000Z</time>
      </trkpt>
      <trkpt lat="47.16166" lon="-1.57395">
        <ele>80</ele>
        <time>2021-04-24T09:20:40.000Z</time>
      </trkpt>
      <trkpt lat="47.16166" lon="-1.57379">
        <ele>80</ele>
        <time>2021-04-24T09:20:42.000Z</time>
      </trkpt>
      <trkpt lat="47.16163" lon="-1.57365">
        <ele>80</ele>
        <time>2021-04-24T09:20:44.000Z</time>
      </trkpt>
      <trkpt lat="47.1615" lon="-1.57363">
        <ele>80</ele>
        <time>2021-04-24T09:20:47.000Z</time>
      </trkpt>
      <trkpt lat="47.16138" lon="-1.57367">
        <ele>81</ele>
        <time>2021-04-24T09:20:49.000Z</time>
      </trkpt>
      <trkpt lat="47.16126" lon="-1.57371">
        <ele>81</ele>
        <time>2021-04-24T09:20:51.000Z</time>
      </trkpt>
      <trkpt lat="47.16115" lon="-1.57375">
        <ele>81</ele>
        <time>2021-04-24T09:20:53.000Z</time>
      </trkpt>
      <trkpt lat="47.16102" lon="-1.57379">
        <ele>82</ele>
        <time>2021-04-24T09:20:55.000Z</time>
      </trkpt>
      <trkpt lat="47.16091" lon="-1.57383">
        <ele>82</ele>
        <time>2021-04-24T09:20:57.000Z</time>
      </trkpt>
      <trkpt lat="47.16079" lon="-1.57386">
        <ele>81</ele>
        <time>2021-04-24T09:20:59.000Z</time>
      </trkpt>
      <trkpt lat="47.16067" lon="-1.57387">
        <ele>81</ele>
        <time>2021-04-24T09:21:01.000Z</time>
      </trkpt>
      <trkpt lat="47.16055" lon="-1.57388">
        <ele>81</ele>
        <time>2021-04-24T09:21:03.000Z</time>
      </trkpt>
      <trkpt lat="47.16043" lon="-1.57386">
        <ele>82</ele>
        <time>2021-04-24T09:21:05.000Z</time>
      </trkpt>
      <trkpt lat="47.16029" lon="-1.57382">
        <ele>82</ele>
        <time>2021-04-24T09:21:07.000Z</time>
      </trkpt>
      <trkpt lat="47.16017" lon="-1.57378">
        <ele>82</ele>
        <time>2021-04-24T09:21:09.000Z</time>
      </trkpt>
      <trkpt lat="47.16005" lon="-1.57374">
        <ele>82</ele>
        <time>2021-04-24T09:21:11.000Z</time>
      </trkpt>
      <trkpt lat="47.15993" lon="-1.57369">
        <ele>82</ele>
        <time>2021-04-24T09:21:13.000Z</time>
      </trkpt>
      <trkpt lat="47.15981" lon="-1.57364">
        <ele>82</ele>
        <time>2021-04-24T09:21:15.000Z</time>
      </trkpt>
      <trkpt lat="47.15969" lon="-1.57356">
        <ele>81</ele>
        <time>2021-04-24T09:21:17.000Z</time>
      </trkpt>
      <trkpt lat="47.15958" lon="-1.57344">
        <ele>81</ele>
        <time>2021-04-24T09:21:19.000Z</time>
      </trkpt>
      <trkpt lat="47.15949" lon="-1.57331">
        <ele>81</ele>
        <time>2021-04-24T09:21:21.000Z</time>
      </trkpt>
      <trkpt lat="47.15939" lon="-1.57317">
        <ele>81</ele>
        <time>2021-04-24T09:21:23.000Z</time>
      </trkpt>
      <trkpt lat="47.1593" lon="-1.57303">
        <ele>80</ele>
        <time>2021-04-24T09:21:25.000Z</time>
      </trkpt>
      <trkpt lat="47.15921" lon="-1.5729">
        <ele>80</ele>
        <time>2021-04-24T09:21:27.000Z</time>
      </trkpt>
      <trkpt lat="47.15913" lon="-1.57276">
        <ele>80</ele>
        <time>2021-04-24T09:21:29.000Z</time>
      </trkpt>
      <trkpt lat="47.15904" lon="-1.5726">
        <ele>79</ele>
        <time>2021-04-24T09:21:31.000Z</time>
      </trkpt>
      <trkpt lat="47.15896" lon="-1.57244">
        <ele>79</ele>
        <time>2021-04-24T09:21:33.000Z</time>
      </trkpt>
      <trkpt lat="47.15888" lon="-1.57229">
        <ele>78</ele>
        <time>2021-04-24T09:21:35.000Z</time>
      </trkpt>
      <trkpt lat="47.15881" lon="-1.57213">
        <ele>78</ele>
        <time>2021-04-24T09:21:37.000Z</time>
      </trkpt>
      <trkpt lat="47.15873" lon="-1.57198">
        <ele>77</ele>
        <time>2021-04-24T09:21:39.000Z</time>
      </trkpt>
      <trkpt lat="47.15866" lon="-1.57184">
        <ele>77</ele>
        <time>2021-04-24T09:21:41.000Z</time>
      </trkpt>
      <trkpt lat="47.15859" lon="-1.5717">
        <ele>76</ele>
        <time>2021-04-24T09:21:43.000Z</time>
      </trkpt>
      <trkpt lat="47.15851" lon="-1.57153">
        <ele>76</ele>
        <time>2021-04-24T09:21:45.000Z</time>
      </trkpt>
      <trkpt lat="47.15842" lon="-1.57134">
        <ele>75</ele>
        <time>2021-04-24T09:21:47.000Z</time>
      </trkpt>
      <trkpt lat="47.15832" lon="-1.57116">
        <ele>74</ele>
        <time>2021-04-24T09:21:49.000Z</time>
      </trkpt>
      <trkpt lat="47.15823" lon="-1.57098">
        <ele>73</ele>
        <time>2021-04-24T09:21:51.000Z</time>
      </trkpt>
      <trkpt lat="47.15814" lon="-1.5708">
        <ele>73</ele>
        <time>2021-04-24T09:21:53.000Z</time>
      </trkpt>
      <trkpt lat="47.15807" lon="-1.57064">
        <ele>73</ele>
        <time>2021-04-24T09:21:55.000Z</time>
      </trkpt>
      <trkpt lat="47.15798" lon="-1.57047">
        <ele>72</ele>
        <time>2021-04-24T09:21:57.000Z</time>
      </trkpt>
      <trkpt lat="47.1579" lon="-1.57031">
        <ele>72</ele>
        <time>2021-04-24T09:21:59.000Z</time>
      </trkpt>
      <trkpt lat="47.15782" lon="-1.57015">
        <ele>71</ele>
        <time>2021-04-24T09:22:01.000Z</time>
      </trkpt>
      <trkpt lat="47.15774" lon="-1.56997">
        <ele>71</ele>
        <time>2021-04-24T09:22:03.000Z</time>
      </trkpt>
      <trkpt lat="47.15765" lon="-1.5698">
        <ele>71</ele>
        <time>2021-04-24T09:22:05.000Z</time>
      </trkpt>
      <trkpt lat="47.15757" lon="-1.56963">
        <ele>72</ele>
        <time>2021-04-24T09:22:07.000Z</time>
      </trkpt>
      <trkpt lat="47.15749" lon="-1.56947">
        <ele>72</ele>
        <time>2021-04-24T09:22:09.000Z</time>
      </trkpt>
      <trkpt lat="47.15741" lon="-1.5693">
        <ele>72</ele>
        <time>2021-04-24T09:22:11.000Z</time>
      </trkpt>
      <trkpt lat="47.15734" lon="-1.56914">
        <ele>72</ele>
        <time>2021-04-24T09:22:13.000Z</time>
      </trkpt>
      <trkpt lat="47.15727" lon="-1.56897">
        <ele>73</ele>
        <time>2021-04-24T09:22:15.000Z</time>
      </trkpt>
      <trkpt lat="47.15722" lon="-1.56879">
        <ele>75</ele>
        <time>2021-04-24T09:22:17.000Z</time>
      </trkpt>
      <trkpt lat="47.15717" lon="-1.5686">
        <ele>76</ele>
        <time>2021-04-24T09:22:19.000Z</time>
      </trkpt>
      <trkpt lat="47.15714" lon="-1.56842">
        <ele>77</ele>
        <time>2021-04-24T09:22:21.000Z</time>
      </trkpt>
      <trkpt lat="47.15711" lon="-1.56823">
        <ele>78</ele>
        <time>2021-04-24T09:22:23.000Z</time>
      </trkpt>
      <trkpt lat="47.15707" lon="-1.56795">
        <ele>77</ele>
        <time>2021-04-24T09:22:26.000Z</time>
      </trkpt>
      <trkpt lat="47.15704" lon="-1.56777">
        <ele>78</ele>
        <time>2021-04-24T09:22:28.000Z</time>
      </trkpt>
      <trkpt lat="47.15701" lon="-1.56758">
        <ele>78</ele>
        <time>2021-04-24T09:22:30.000Z</time>
      </trkpt>
      <trkpt lat="47.15699" lon="-1.56739">
        <ele>78</ele>
        <time>2021-04-24T09:22:32.000Z</time>
      </trkpt>
      <trkpt lat="47.15699" lon="-1.56723">
        <ele>78</ele>
        <time>2021-04-24T09:22:34.000Z</time>
      </trkpt>
      <trkpt lat="47.15698" lon="-1.56704">
        <ele>78</ele>
        <time>2021-04-24T09:22:36.000Z</time>
      </trkpt>
      <trkpt lat="47.15698" lon="-1.56686">
        <ele>78</ele>
        <time>2021-04-24T09:22:38.000Z</time>
      </trkpt>
      <trkpt lat="47.15699" lon="-1.56668">
        <ele>78</ele>
        <time>2021-04-24T09:22:40.000Z</time>
      </trkpt>
      <trkpt lat="47.15702" lon="-1.56651">
        <ele>79</ele>
        <time>2021-04-24T09:22:42.000Z</time>
      </trkpt>
      <trkpt lat="47.15706" lon="-1.56633">
        <ele>79</ele>
        <time>2021-04-24T09:22:44.000Z</time>
      </trkpt>
      <trkpt lat="47.1571" lon="-1.56617">
        <ele>79</ele>
        <time>2021-04-24T09:22:46.000Z</time>
      </trkpt>
      <trkpt lat="47.15716" lon="-1.566">
        <ele>79</ele>
        <time>2021-04-24T09:22:48.000Z</time>
      </trkpt>
      <trkpt lat="47.15721" lon="-1.56583">
        <ele>80</ele>
        <time>2021-04-24T09:22:50.000Z</time>
      </trkpt>
      <trkpt lat="47.15725" lon="-1.56567">
        <ele>80</ele>
        <time>2021-04-24T09:22:52.000Z</time>
      </trkpt>
      <trkpt lat="47.15731" lon="-1.56549">
        <ele>80</ele>
        <time>2021-04-24T09:22:54.000Z</time>
      </trkpt>
      <trkpt lat="47.15738" lon="-1.56525">
        <ele>79</ele>
        <time>2021-04-24T09:22:57.000Z</time>
      </trkpt>
      <trkpt lat="47.15741" lon="-1.56508">
        <ele>79</ele>
        <time>2021-04-24T09:22:59.000Z</time>
      </trkpt>
      <trkpt lat="47.15743" lon="-1.56481">
        <ele>79</ele>
        <time>2021-04-24T09:23:02.000Z</time>
      </trkpt>
      <trkpt lat="47.1574" lon="-1.56462">
        <ele>78</ele>
        <time>2021-04-24T09:23:04.000Z</time>
      </trkpt>
      <trkpt lat="47.15733" lon="-1.56445">
        <ele>78</ele>
        <time>2021-04-24T09:23:06.000Z</time>
      </trkpt>
      <trkpt lat="47.15724" lon="-1.56432">
        <ele>78</ele>
        <time>2021-04-24T09:23:08.000Z</time>
      </trkpt>
      <trkpt lat="47.15709" lon="-1.56413">
        <ele>79</ele>
        <time>2021-04-24T09:23:11.000Z</time>
      </trkpt>
      <trkpt lat="47.15698" lon="-1.5639">
        <ele>79</ele>
        <time>2021-04-24T09:23:14.000Z</time>
      </trkpt>
      <trkpt lat="47.15694" lon="-1.56373">
        <ele>79</ele>
        <time>2021-04-24T09:23:16.000Z</time>
      </trkpt>
      <trkpt lat="47.1569" lon="-1.56355">
        <ele>79</ele>
        <time>2021-04-24T09:23:18.000Z</time>
      </trkpt>
      <trkpt lat="47.15687" lon="-1.56338">
        <ele>80</ele>
        <time>2021-04-24T09:23:20.000Z</time>
      </trkpt>
      <trkpt lat="47.15677" lon="-1.56315">
        <ele>80</ele>
        <time>2021-04-24T09:23:23.000Z</time>
      </trkpt>
      <trkpt lat="47.15665" lon="-1.56307">
        <ele>80</ele>
        <time>2021-04-24T09:23:25.000Z</time>
      </trkpt>
      <trkpt lat="47.15654" lon="-1.56298">
        <ele>80</ele>
        <time>2021-04-24T09:23:27.000Z</time>
      </trkpt>
      <trkpt lat="47.15645" lon="-1.56284">
        <ele>80</ele>
        <time>2021-04-24T09:23:29.000Z</time>
      </trkpt>
      <trkpt lat="47.15635" lon="-1.5626">
        <ele>80</ele>
        <time>2021-04-24T09:23:32.000Z</time>
      </trkpt>
      <trkpt lat="47.15628" lon="-1.56243">
        <ele>80</ele>
        <time>2021-04-24T09:23:34.000Z</time>
      </trkpt>
      <trkpt lat="47.15621" lon="-1.56225">
        <ele>80</ele>
        <time>2021-04-24T09:23:36.000Z</time>
      </trkpt>
      <trkpt lat="47.15611" lon="-1.562">
        <ele>80</ele>
        <time>2021-04-24T09:23:39.000Z</time>
      </trkpt>
      <trkpt lat="47.15604" lon="-1.56183">
        <ele>80</ele>
        <time>2021-04-24T09:23:41.000Z</time>
      </trkpt>
      <trkpt lat="47.15597" lon="-1.56168">
        <ele>80</ele>
        <time>2021-04-24T09:23:43.000Z</time>
      </trkpt>
      <trkpt lat="47.1559" lon="-1.56152">
        <ele>80</ele>
        <time>2021-04-24T09:23:45.000Z</time>
      </trkpt>
      <trkpt lat="47.15583" lon="-1.56136">
        <ele>81</ele>
        <time>2021-04-24T09:23:47.000Z</time>
      </trkpt>
      <trkpt lat="47.15577" lon="-1.56119">
        <ele>81</ele>
        <time>2021-04-24T09:23:49.000Z</time>
      </trkpt>
      <trkpt lat="47.15573" lon="-1.56104">
        <ele>81</ele>
        <time>2021-04-24T09:23:51.000Z</time>
      </trkpt>
      <trkpt lat="47.15573" lon="-1.56085">
        <ele>81</ele>
        <time>2021-04-24T09:23:53.000Z</time>
      </trkpt>
      <trkpt lat="47.15579" lon="-1.56059">
        <ele>80</ele>
        <time>2021-04-24T09:23:56.000Z</time>
      </trkpt>
      <trkpt lat="47.15579" lon="-1.56033">
        <ele>79</ele>
        <time>2021-04-24T09:23:59.000Z</time>
      </trkpt>
      <trkpt lat="47.15562" lon="-1.56019">
        <ele>79</ele>
        <time>2021-04-24T09:24:02.000Z</time>
      </trkpt>
      <trkpt lat="47.15551" lon="-1.56011">
        <ele>80</ele>
        <time>2021-04-24T09:24:04.000Z</time>
      </trkpt>
      <trkpt lat="47.15539" lon="-1.56002">
        <ele>80</ele>
        <time>2021-04-24T09:24:06.000Z</time>
      </trkpt>
      <trkpt lat="47.15528" lon="-1.55993">
        <ele>80</ele>
        <time>2021-04-24T09:24:08.000Z</time>
      </trkpt>
      <trkpt lat="47.15519" lon="-1.55984">
        <ele>80</ele>
        <time>2021-04-24T09:24:10.000Z</time>
      </trkpt>
      <trkpt lat="47.15508" lon="-1.55976">
        <ele>80</ele>
        <time>2021-04-24T09:24:12.000Z</time>
      </trkpt>
      <trkpt lat="47.15496" lon="-1.55966">
        <ele>80</ele>
        <time>2021-04-24T09:24:14.000Z</time>
      </trkpt>
      <trkpt lat="47.15484" lon="-1.55956">
        <ele>80</ele>
        <time>2021-04-24T09:24:16.000Z</time>
      </trkpt>
      <trkpt lat="47.15474" lon="-1.55948">
        <ele>80</ele>
        <time>2021-04-24T09:24:18.000Z</time>
      </trkpt>
      <trkpt lat="47.15463" lon="-1.5594">
        <ele>80</ele>
        <time>2021-04-24T09:24:20.000Z</time>
      </trkpt>
      <trkpt lat="47.15451" lon="-1.55932">
        <ele>79</ele>
        <time>2021-04-24T09:24:22.000Z</time>
      </trkpt>
      <trkpt lat="47.15439" lon="-1.55923">
        <ele>79</ele>
        <time>2021-04-24T09:24:24.000Z</time>
      </trkpt>
      <trkpt lat="47.15425" lon="-1.55914">
        <ele>78</ele>
        <time>2021-04-24T09:24:26.000Z</time>
      </trkpt>
      <trkpt lat="47.15412" lon="-1.55907">
        <ele>78</ele>
        <time>2021-04-24T09:24:28.000Z</time>
      </trkpt>
      <trkpt lat="47.15401" lon="-1.559">
        <ele>78</ele>
        <time>2021-04-24T09:24:30.000Z</time>
      </trkpt>
      <trkpt lat="47.15394" lon="-1.55892">
        <ele>78</ele>
        <time>2021-04-24T09:24:34.000Z</time>
      </trkpt>
      <trkpt lat="47.15384" lon="-1.55889">
        <ele>78</ele>
        <time>2021-04-24T09:24:45.000Z</time>
      </trkpt>
      <trkpt lat="47.15379" lon="-1.55874">
        <ele>78</ele>
        <time>2021-04-24T09:24:47.000Z</time>
      </trkpt>
      <trkpt lat="47.15378" lon="-1.55854">
        <ele>77</ele>
        <time>2021-04-24T09:24:49.000Z</time>
      </trkpt>
      <trkpt lat="47.15372" lon="-1.55835">
        <ele>76</ele>
        <time>2021-04-24T09:24:51.000Z</time>
      </trkpt>
      <trkpt lat="47.15357" lon="-1.5581">
        <ele>77</ele>
        <time>2021-04-24T09:24:54.000Z</time>
      </trkpt>
      <trkpt lat="47.15348" lon="-1.55794">
        <ele>77</ele>
        <time>2021-04-24T09:24:56.000Z</time>
      </trkpt>
      <trkpt lat="47.1534" lon="-1.55778">
        <ele>78</ele>
        <time>2021-04-24T09:24:58.000Z</time>
      </trkpt>
      <trkpt lat="47.15331" lon="-1.55761">
        <ele>78</ele>
        <time>2021-04-24T09:25:00.000Z</time>
      </trkpt>
      <trkpt lat="47.15323" lon="-1.55745">
        <ele>78</ele>
        <time>2021-04-24T09:25:02.000Z</time>
      </trkpt>
      <trkpt lat="47.15314" lon="-1.55728">
        <ele>78</ele>
        <time>2021-04-24T09:25:04.000Z</time>
      </trkpt>
      <trkpt lat="47.15307" lon="-1.55711">
        <ele>78</ele>
        <time>2021-04-24T09:25:06.000Z</time>
      </trkpt>
      <trkpt lat="47.15299" lon="-1.55695">
        <ele>78</ele>
        <time>2021-04-24T09:25:08.000Z</time>
      </trkpt>
      <trkpt lat="47.1529" lon="-1.55679">
        <ele>77</ele>
        <time>2021-04-24T09:25:10.000Z</time>
      </trkpt>
      <trkpt lat="47.15282" lon="-1.55662">
        <ele>77</ele>
        <time>2021-04-24T09:25:12.000Z</time>
      </trkpt>
      <trkpt lat="47.15274" lon="-1.55646">
        <ele>77</ele>
        <time>2021-04-24T09:25:14.000Z</time>
      </trkpt>
      <trkpt lat="47.15267" lon="-1.55629">
        <ele>76</ele>
        <time>2021-04-24T09:25:16.000Z</time>
      </trkpt>
      <trkpt lat="47.1526" lon="-1.55611">
        <ele>76</ele>
        <time>2021-04-24T09:25:18.000Z</time>
      </trkpt>
      <trkpt lat="47.15254" lon="-1.55594">
        <ele>76</ele>
        <time>2021-04-24T09:25:20.000Z</time>
      </trkpt>
      <trkpt lat="47.15244" lon="-1.55567">
        <ele>75</ele>
        <time>2021-04-24T09:25:23.000Z</time>
      </trkpt>
      <trkpt lat="47.15237" lon="-1.5555">
        <ele>75</ele>
        <time>2021-04-24T09:25:25.000Z</time>
      </trkpt>
      <trkpt lat="47.15231" lon="-1.55532">
        <ele>75</ele>
        <time>2021-04-24T09:25:27.000Z</time>
      </trkpt>
      <trkpt lat="47.15225" lon="-1.55514">
        <ele>74</ele>
        <time>2021-04-24T09:25:29.000Z</time>
      </trkpt>
      <trkpt lat="47.15217" lon="-1.55497">
        <ele>74</ele>
        <time>2021-04-24T09:25:31.000Z</time>
      </trkpt>
      <trkpt lat="47.1521" lon="-1.55481">
        <ele>74</ele>
        <time>2021-04-24T09:25:33.000Z</time>
      </trkpt>
      <trkpt lat="47.15199" lon="-1.5547">
        <ele>74</ele>
        <time>2021-04-24T09:25:35.000Z</time>
      </trkpt>
      <trkpt lat="47.15186" lon="-1.55465">
        <ele>74</ele>
        <time>2021-04-24T09:25:37.000Z</time>
      </trkpt>
      <trkpt lat="47.15173" lon="-1.55464">
        <ele>74</ele>
        <time>2021-04-24T09:25:39.000Z</time>
      </trkpt>
      <trkpt lat="47.1516" lon="-1.55467">
        <ele>74</ele>
        <time>2021-04-24T09:25:41.000Z</time>
      </trkpt>
      <trkpt lat="47.15146" lon="-1.5547">
        <ele>75</ele>
        <time>2021-04-24T09:25:43.000Z</time>
      </trkpt>
      <trkpt lat="47.15133" lon="-1.55474">
        <ele>75</ele>
        <time>2021-04-24T09:25:45.000Z</time>
      </trkpt>
      <trkpt lat="47.1512" lon="-1.55477">
        <ele>75</ele>
        <time>2021-04-24T09:25:47.000Z</time>
      </trkpt>
      <trkpt lat="47.15106" lon="-1.55481">
        <ele>74</ele>
        <time>2021-04-24T09:25:49.000Z</time>
      </trkpt>
      <trkpt lat="47.15094" lon="-1.55485">
        <ele>74</ele>
        <time>2021-04-24T09:25:51.000Z</time>
      </trkpt>
      <trkpt lat="47.15081" lon="-1.55489">
        <ele>75</ele>
        <time>2021-04-24T09:25:53.000Z</time>
      </trkpt>
      <trkpt lat="47.15067" lon="-1.55492">
        <ele>74</ele>
        <time>2021-04-24T09:25:55.000Z</time>
      </trkpt>
      <trkpt lat="47.15054" lon="-1.55496">
        <ele>74</ele>
        <time>2021-04-24T09:25:57.000Z</time>
      </trkpt>
      <trkpt lat="47.15041" lon="-1.55499">
        <ele>74</ele>
        <time>2021-04-24T09:25:59.000Z</time>
      </trkpt>
      <trkpt lat="47.15027" lon="-1.55502">
        <ele>75</ele>
        <time>2021-04-24T09:26:01.000Z</time>
      </trkpt>
      <trkpt lat="47.15014" lon="-1.55506">
        <ele>74</ele>
        <time>2021-04-24T09:26:03.000Z</time>
      </trkpt>
      <trkpt lat="47.15" lon="-1.5551">
        <ele>74</ele>
        <time>2021-04-24T09:26:05.000Z</time>
      </trkpt>
      <trkpt lat="47.14987" lon="-1.55513">
        <ele>74</ele>
        <time>2021-04-24T09:26:07.000Z</time>
      </trkpt>
      <trkpt lat="47.14974" lon="-1.55517">
        <ele>74</ele>
        <time>2021-04-24T09:26:09.000Z</time>
      </trkpt>
      <trkpt lat="47.14961" lon="-1.55521">
        <ele>74</ele>
        <time>2021-04-24T09:26:11.000Z</time>
      </trkpt>
      <trkpt lat="47.14948" lon="-1.55525">
        <ele>74</ele>
        <time>2021-04-24T09:26:13.000Z</time>
      </trkpt>
      <trkpt lat="47.14934" lon="-1.55528">
        <ele>74</ele>
        <time>2021-04-24T09:26:15.000Z</time>
      </trkpt>
      <trkpt lat="47.1492" lon="-1.55532">
        <ele>74</ele>
        <time>2021-04-24T09:26:17.000Z</time>
      </trkpt>
      <trkpt lat="47.14907" lon="-1.55535">
        <ele>74</ele>
        <time>2021-04-24T09:26:19.000Z</time>
      </trkpt>
      <trkpt lat="47.14893" lon="-1.55538">
        <ele>74</ele>
        <time>2021-04-24T09:26:21.000Z</time>
      </trkpt>
      <trkpt lat="47.1488" lon="-1.55537">
        <ele>75</ele>
        <time>2021-04-24T09:26:23.000Z</time>
      </trkpt>
      <trkpt lat="47.14867" lon="-1.55533">
        <ele>75</ele>
        <time>2021-04-24T09:26:25.000Z</time>
      </trkpt>
      <trkpt lat="47.14854" lon="-1.55524">
        <ele>75</ele>
        <time>2021-04-24T09:26:27.000Z</time>
      </trkpt>
      <trkpt lat="47.14844" lon="-1.55512">
        <ele>74</ele>
        <time>2021-04-24T09:26:29.000Z</time>
      </trkpt>
      <trkpt lat="47.14833" lon="-1.55499">
        <ele>73</ele>
        <time>2021-04-24T09:26:31.000Z</time>
      </trkpt>
      <trkpt lat="47.14822" lon="-1.55487">
        <ele>73</ele>
        <time>2021-04-24T09:26:33.000Z</time>
      </trkpt>
      <trkpt lat="47.14812" lon="-1.55475">
        <ele>73</ele>
        <time>2021-04-24T09:26:35.000Z</time>
      </trkpt>
      <trkpt lat="47.14801" lon="-1.55464">
        <ele>73</ele>
        <time>2021-04-24T09:26:37.000Z</time>
      </trkpt>
      <trkpt lat="47.14785" lon="-1.55447">
        <ele>72</ele>
        <time>2021-04-24T09:26:40.000Z</time>
      </trkpt>
      <trkpt lat="47.14774" lon="-1.55437">
        <ele>72</ele>
        <time>2021-04-24T09:26:42.000Z</time>
      </trkpt>
      <trkpt lat="47.14763" lon="-1.55426">
        <ele>72</ele>
        <time>2021-04-24T09:26:44.000Z</time>
      </trkpt>
      <trkpt lat="47.14752" lon="-1.55416">
        <ele>71</ele>
        <time>2021-04-24T09:26:46.000Z</time>
      </trkpt>
      <trkpt lat="47.14741" lon="-1.55406">
        <ele>72</ele>
        <time>2021-04-24T09:26:48.000Z</time>
      </trkpt>
      <trkpt lat="47.14729" lon="-1.55396">
        <ele>72</ele>
        <time>2021-04-24T09:26:50.000Z</time>
      </trkpt>
      <trkpt lat="47.14718" lon="-1.55385">
        <ele>71</ele>
        <time>2021-04-24T09:26:52.000Z</time>
      </trkpt>
      <trkpt lat="47.14707" lon="-1.55374">
        <ele>71</ele>
        <time>2021-04-24T09:26:54.000Z</time>
      </trkpt>
      <trkpt lat="47.14696" lon="-1.55362">
        <ele>71</ele>
        <time>2021-04-24T09:26:56.000Z</time>
      </trkpt>
      <trkpt lat="47.14686" lon="-1.5535">
        <ele>71</ele>
        <time>2021-04-24T09:26:58.000Z</time>
      </trkpt>
      <trkpt lat="47.14676" lon="-1.55337">
        <ele>71</ele>
        <time>2021-04-24T09:27:00.000Z</time>
      </trkpt>
      <trkpt lat="47.14667" lon="-1.55324">
        <ele>70</ele>
        <time>2021-04-24T09:27:02.000Z</time>
      </trkpt>
      <trkpt lat="47.14657" lon="-1.55312">
        <ele>70</ele>
        <time>2021-04-24T09:27:04.000Z</time>
      </trkpt>
      <trkpt lat="47.14648" lon="-1.553">
        <ele>70</ele>
        <time>2021-04-24T09:27:06.000Z</time>
      </trkpt>
      <trkpt lat="47.14639" lon="-1.55286">
        <ele>70</ele>
        <time>2021-04-24T09:27:08.000Z</time>
      </trkpt>
      <trkpt lat="47.1463" lon="-1.55273">
        <ele>70</ele>
        <time>2021-04-24T09:27:10.000Z</time>
      </trkpt>
      <trkpt lat="47.14621" lon="-1.5526">
        <ele>69</ele>
        <time>2021-04-24T09:27:12.000Z</time>
      </trkpt>
      <trkpt lat="47.14612" lon="-1.55244">
        <ele>69</ele>
        <time>2021-04-24T09:27:14.000Z</time>
      </trkpt>
      <trkpt lat="47.14604" lon="-1.55229">
        <ele>69</ele>
        <time>2021-04-24T09:27:16.000Z</time>
      </trkpt>
      <trkpt lat="47.14596" lon="-1.55215">
        <ele>69</ele>
        <time>2021-04-24T09:27:18.000Z</time>
      </trkpt>
      <trkpt lat="47.14587" lon="-1.55199">
        <ele>68</ele>
        <time>2021-04-24T09:27:20.000Z</time>
      </trkpt>
      <trkpt lat="47.14579" lon="-1.55184">
        <ele>68</ele>
        <time>2021-04-24T09:27:22.000Z</time>
      </trkpt>
      <trkpt lat="47.14571" lon="-1.55169">
        <ele>68</ele>
        <time>2021-04-24T09:27:24.000Z</time>
      </trkpt>
      <trkpt lat="47.14562" lon="-1.55153">
        <ele>67</ele>
        <time>2021-04-24T09:27:26.000Z</time>
      </trkpt>
      <trkpt lat="47.14553" lon="-1.55137">
        <ele>67</ele>
        <time>2021-04-24T09:27:28.000Z</time>
      </trkpt>
      <trkpt lat="47.14545" lon="-1.55121">
        <ele>66</ele>
        <time>2021-04-24T09:27:30.000Z</time>
      </trkpt>
      <trkpt lat="47.14536" lon="-1.55105">
        <ele>66</ele>
        <time>2021-04-24T09:27:32.000Z</time>
      </trkpt>
      <trkpt lat="47.14527" lon="-1.55087">
        <ele>65</ele>
        <time>2021-04-24T09:27:34.000Z</time>
      </trkpt>
      <trkpt lat="47.14519" lon="-1.5507">
        <ele>65</ele>
        <time>2021-04-24T09:27:36.000Z</time>
      </trkpt>
      <trkpt lat="47.14512" lon="-1.55052">
        <ele>65</ele>
        <time>2021-04-24T09:27:38.000Z</time>
      </trkpt>
      <trkpt lat="47.14505" lon="-1.55035">
        <ele>66</ele>
        <time>2021-04-24T09:27:40.000Z</time>
      </trkpt>
      <trkpt lat="47.14498" lon="-1.55019">
        <ele>66</ele>
        <time>2021-04-24T09:27:42.000Z</time>
      </trkpt>
      <trkpt lat="47.14489" lon="-1.55004">
        <ele>66</ele>
        <time>2021-04-24T09:27:44.000Z</time>
      </trkpt>
      <trkpt lat="47.14479" lon="-1.54991">
        <ele>67</ele>
        <time>2021-04-24T09:27:46.000Z</time>
      </trkpt>
      <trkpt lat="47.14469" lon="-1.54979">
        <ele>67</ele>
        <time>2021-04-24T09:27:48.000Z</time>
      </trkpt>
      <trkpt lat="47.14458" lon="-1.54969">
        <ele>67</ele>
        <time>2021-04-24T09:27:50.000Z</time>
      </trkpt>
      <trkpt lat="47.14447" lon="-1.54957">
        <ele>67</ele>
        <time>2021-04-24T09:27:52.000Z</time>
      </trkpt>
      <trkpt lat="47.14436" lon="-1.54945">
        <ele>67</ele>
        <time>2021-04-24T09:27:54.000Z</time>
      </trkpt>
      <trkpt lat="47.14425" lon="-1.54934">
        <ele>68</ele>
        <time>2021-04-24T09:27:56.000Z</time>
      </trkpt>
      <trkpt lat="47.14414" lon="-1.54923">
        <ele>68</ele>
        <time>2021-04-24T09:27:58.000Z</time>
      </trkpt>
      <trkpt lat="47.14402" lon="-1.54911">
        <ele>68</ele>
        <time>2021-04-24T09:28:00.000Z</time>
      </trkpt>
      <trkpt lat="47.14392" lon="-1.549">
        <ele>68</ele>
        <time>2021-04-24T09:28:02.000Z</time>
      </trkpt>
      <trkpt lat="47.14381" lon="-1.54889">
        <ele>68</ele>
        <time>2021-04-24T09:28:04.000Z</time>
      </trkpt>
      <trkpt lat="47.1437" lon="-1.54878">
        <ele>68</ele>
        <time>2021-04-24T09:28:06.000Z</time>
      </trkpt>
      <trkpt lat="47.14359" lon="-1.54866">
        <ele>68</ele>
        <time>2021-04-24T09:28:08.000Z</time>
      </trkpt>
      <trkpt lat="47.14348" lon="-1.54856">
        <ele>67</ele>
        <time>2021-04-24T09:28:10.000Z</time>
      </trkpt>
      <trkpt lat="47.14337" lon="-1.54846">
        <ele>67</ele>
        <time>2021-04-24T09:28:12.000Z</time>
      </trkpt>
      <trkpt lat="47.14326" lon="-1.54835">
        <ele>67</ele>
        <time>2021-04-24T09:28:14.000Z</time>
      </trkpt>
      <trkpt lat="47.14315" lon="-1.54826">
        <ele>67</ele>
        <time>2021-04-24T09:28:16.000Z</time>
      </trkpt>
      <trkpt lat="47.14303" lon="-1.54817">
        <ele>67</ele>
        <time>2021-04-24T09:28:18.000Z</time>
      </trkpt>
      <trkpt lat="47.14292" lon="-1.54808">
        <ele>67</ele>
        <time>2021-04-24T09:28:20.000Z</time>
      </trkpt>
      <trkpt lat="47.14279" lon="-1.54799">
        <ele>66</ele>
        <time>2021-04-24T09:28:22.000Z</time>
      </trkpt>
      <trkpt lat="47.14265" lon="-1.5479">
        <ele>66</ele>
        <time>2021-04-24T09:28:24.000Z</time>
      </trkpt>
      <trkpt lat="47.14253" lon="-1.54781">
        <ele>67</ele>
        <time>2021-04-24T09:28:26.000Z</time>
      </trkpt>
      <trkpt lat="47.14242" lon="-1.54772">
        <ele>67</ele>
        <time>2021-04-24T09:28:28.000Z</time>
      </trkpt>
      <trkpt lat="47.14231" lon="-1.54764">
        <ele>67</ele>
        <time>2021-04-24T09:28:30.000Z</time>
      </trkpt>
      <trkpt lat="47.1422" lon="-1.54756">
        <ele>67</ele>
        <time>2021-04-24T09:28:32.000Z</time>
      </trkpt>
      <trkpt lat="47.14209" lon="-1.54748">
        <ele>68</ele>
        <time>2021-04-24T09:28:34.000Z</time>
      </trkpt>
      <trkpt lat="47.14199" lon="-1.54742">
        <ele>67</ele>
        <time>2021-04-24T09:28:36.000Z</time>
      </trkpt>
      <trkpt lat="47.14191" lon="-1.54733">
        <ele>67</ele>
        <time>2021-04-24T09:28:44.000Z</time>
      </trkpt>
      <trkpt lat="47.1419" lon="-1.54713">
        <ele>67</ele>
        <time>2021-04-24T09:28:48.000Z</time>
      </trkpt>
      <trkpt lat="47.14193" lon="-1.54697">
        <ele>67</ele>
        <time>2021-04-24T09:28:50.000Z</time>
      </trkpt>
      <trkpt lat="47.14196" lon="-1.5468">
        <ele>67</ele>
        <time>2021-04-24T09:28:52.000Z</time>
      </trkpt>
      <trkpt lat="47.14195" lon="-1.54664">
        <ele>68</ele>
        <time>2021-04-24T09:28:54.000Z</time>
      </trkpt>
      <trkpt lat="47.14187" lon="-1.5465">
        <ele>67</ele>
        <time>2021-04-24T09:28:56.000Z</time>
      </trkpt>
      <trkpt lat="47.14178" lon="-1.54638">
        <ele>68</ele>
        <time>2021-04-24T09:28:58.000Z</time>
      </trkpt>
      <trkpt lat="47.14168" lon="-1.54627">
        <ele>68</ele>
        <time>2021-04-24T09:29:00.000Z</time>
      </trkpt>
      <trkpt lat="47.14158" lon="-1.54616">
        <ele>68</ele>
        <time>2021-04-24T09:29:02.000Z</time>
      </trkpt>
      <trkpt lat="47.14149" lon="-1.54605">
        <ele>68</ele>
        <time>2021-04-24T09:29:04.000Z</time>
      </trkpt>
      <trkpt lat="47.14139" lon="-1.54594">
        <ele>68</ele>
        <time>2021-04-24T09:29:06.000Z</time>
      </trkpt>
      <trkpt lat="47.1413" lon="-1.54583">
        <ele>68</ele>
        <time>2021-04-24T09:29:08.000Z</time>
      </trkpt>
      <trkpt lat="47.14121" lon="-1.54572">
        <ele>68</ele>
        <time>2021-04-24T09:29:10.000Z</time>
      </trkpt>
      <trkpt lat="47.14112" lon="-1.54561">
        <ele>67</ele>
        <time>2021-04-24T09:29:12.000Z</time>
      </trkpt>
      <trkpt lat="47.14103" lon="-1.5455">
        <ele>67</ele>
        <time>2021-04-24T09:29:14.000Z</time>
      </trkpt>
      <trkpt lat="47.14094" lon="-1.54539">
        <ele>67</ele>
        <time>2021-04-24T09:29:16.000Z</time>
      </trkpt>
      <trkpt lat="47.14085" lon="-1.5453">
        <ele>68</ele>
        <time>2021-04-24T09:29:18.000Z</time>
      </trkpt>
      <trkpt lat="47.14076" lon="-1.54519">
        <ele>68</ele>
        <time>2021-04-24T09:29:20.000Z</time>
      </trkpt>
      <trkpt lat="47.14065" lon="-1.54508">
        <ele>68</ele>
        <time>2021-04-24T09:29:22.000Z</time>
      </trkpt>
      <trkpt lat="47.14055" lon="-1.54498">
        <ele>68</ele>
        <time>2021-04-24T09:29:24.000Z</time>
      </trkpt>
      <trkpt lat="47.14045" lon="-1.54489">
        <ele>68</ele>
        <time>2021-04-24T09:29:26.000Z</time>
      </trkpt>
      <trkpt lat="47.14035" lon="-1.5448">
        <ele>69</ele>
        <time>2021-04-24T09:29:28.000Z</time>
      </trkpt>
      <trkpt lat="47.14024" lon="-1.54472">
        <ele>70</ele>
        <time>2021-04-24T09:29:30.000Z</time>
      </trkpt>
      <trkpt lat="47.14014" lon="-1.54464">
        <ele>71</ele>
        <time>2021-04-24T09:29:32.000Z</time>
      </trkpt>
      <trkpt lat="47.14004" lon="-1.54456">
        <ele>72</ele>
        <time>2021-04-24T09:29:34.000Z</time>
      </trkpt>
      <trkpt lat="47.13995" lon="-1.54448">
        <ele>72</ele>
        <time>2021-04-24T09:29:36.000Z</time>
      </trkpt>
      <trkpt lat="47.13985" lon="-1.54439">
        <ele>72</ele>
        <time>2021-04-24T09:29:38.000Z</time>
      </trkpt>
      <trkpt lat="47.13975" lon="-1.5443">
        <ele>73</ele>
        <time>2021-04-24T09:29:40.000Z</time>
      </trkpt>
      <trkpt lat="47.13962" lon="-1.54421">
        <ele>72</ele>
        <time>2021-04-24T09:29:42.000Z</time>
      </trkpt>
      <trkpt lat="47.13951" lon="-1.54412">
        <ele>73</ele>
        <time>2021-04-24T09:29:44.000Z</time>
      </trkpt>
      <trkpt lat="47.13941" lon="-1.54403">
        <ele>73</ele>
        <time>2021-04-24T09:29:46.000Z</time>
      </trkpt>
      <trkpt lat="47.13931" lon="-1.54395">
        <ele>74</ele>
        <time>2021-04-24T09:29:48.000Z</time>
      </trkpt>
      <trkpt lat="47.1392" lon="-1.54386">
        <ele>74</ele>
        <time>2021-04-24T09:29:50.000Z</time>
      </trkpt>
      <trkpt lat="47.1391" lon="-1.54378">
        <ele>74</ele>
        <time>2021-04-24T09:29:52.000Z</time>
      </trkpt>
      <trkpt lat="47.139" lon="-1.5437">
        <ele>74</ele>
        <time>2021-04-24T09:29:54.000Z</time>
      </trkpt>
      <trkpt lat="47.1389" lon="-1.54361">
        <ele>75</ele>
        <time>2021-04-24T09:29:56.000Z</time>
      </trkpt>
      <trkpt lat="47.1388" lon="-1.54353">
        <ele>75</ele>
        <time>2021-04-24T09:29:58.000Z</time>
      </trkpt>
      <trkpt lat="47.13869" lon="-1.54344">
        <ele>75</ele>
        <time>2021-04-24T09:30:00.000Z</time>
      </trkpt>
      <trkpt lat="47.13858" lon="-1.54335">
        <ele>75</ele>
        <time>2021-04-24T09:30:02.000Z</time>
      </trkpt>
      <trkpt lat="47.13848" lon="-1.54328">
        <ele>75</ele>
        <time>2021-04-24T09:30:04.000Z</time>
      </trkpt>
      <trkpt lat="47.13838" lon="-1.5432">
        <ele>76</ele>
        <time>2021-04-24T09:30:06.000Z</time>
      </trkpt>
      <trkpt lat="47.13827" lon="-1.54313">
        <ele>76</ele>
        <time>2021-04-24T09:30:08.000Z</time>
      </trkpt>
      <trkpt lat="47.13816" lon="-1.54308">
        <ele>76</ele>
        <time>2021-04-24T09:30:10.000Z</time>
      </trkpt>
      <trkpt lat="47.13805" lon="-1.54303">
        <ele>76</ele>
        <time>2021-04-24T09:30:12.000Z</time>
      </trkpt>
      <trkpt lat="47.13794" lon="-1.54298">
        <ele>77</ele>
        <time>2021-04-24T09:30:14.000Z</time>
      </trkpt>
      <trkpt lat="47.13783" lon="-1.54294">
        <ele>77</ele>
        <time>2021-04-24T09:30:16.000Z</time>
      </trkpt>
      <trkpt lat="47.13773" lon="-1.54289">
        <ele>77</ele>
        <time>2021-04-24T09:30:18.000Z</time>
      </trkpt>
      <trkpt lat="47.13764" lon="-1.54284">
        <ele>77</ele>
        <time>2021-04-24T09:30:20.000Z</time>
      </trkpt>
      <trkpt lat="47.13753" lon="-1.54279">
        <ele>77</ele>
        <time>2021-04-24T09:30:22.000Z</time>
      </trkpt>
      <trkpt lat="47.13743" lon="-1.54274">
        <ele>77</ele>
        <time>2021-04-24T09:30:24.000Z</time>
      </trkpt>
      <trkpt lat="47.13733" lon="-1.54268">
        <ele>77</ele>
        <time>2021-04-24T09:30:26.000Z</time>
      </trkpt>
      <trkpt lat="47.13721" lon="-1.54262">
        <ele>77</ele>
        <time>2021-04-24T09:30:28.000Z</time>
      </trkpt>
      <trkpt lat="47.13706" lon="-1.54257">
        <ele>76</ele>
        <time>2021-04-24T09:30:30.000Z</time>
      </trkpt>
      <trkpt lat="47.13692" lon="-1.54251">
        <ele>76</ele>
        <time>2021-04-24T09:30:32.000Z</time>
      </trkpt>
      <trkpt lat="47.13679" lon="-1.54244">
        <ele>75</ele>
        <time>2021-04-24T09:30:34.000Z</time>
      </trkpt>
      <trkpt lat="47.13666" lon="-1.54237">
        <ele>75</ele>
        <time>2021-04-24T09:30:36.000Z</time>
      </trkpt>
      <trkpt lat="47.13655" lon="-1.54232">
        <ele>75</ele>
        <time>2021-04-24T09:30:38.000Z</time>
      </trkpt>
      <trkpt lat="47.13644" lon="-1.54226">
        <ele>75</ele>
        <time>2021-04-24T09:30:40.000Z</time>
      </trkpt>
      <trkpt lat="47.13632" lon="-1.54219">
        <ele>75</ele>
        <time>2021-04-24T09:30:42.000Z</time>
      </trkpt>
      <trkpt lat="47.1362" lon="-1.54212">
        <ele>75</ele>
        <time>2021-04-24T09:30:44.000Z</time>
      </trkpt>
      <trkpt lat="47.13609" lon="-1.54204">
        <ele>75</ele>
        <time>2021-04-24T09:30:46.000Z</time>
      </trkpt>
      <trkpt lat="47.136" lon="-1.54197">
        <ele>75</ele>
        <time>2021-04-24T09:30:48.000Z</time>
      </trkpt>
      <trkpt lat="47.1359" lon="-1.54188">
        <ele>75</ele>
        <time>2021-04-24T09:30:50.000Z</time>
      </trkpt>
      <trkpt lat="47.13578" lon="-1.54176">
        <ele>74</ele>
        <time>2021-04-24T09:30:52.000Z</time>
      </trkpt>
      <trkpt lat="47.13567" lon="-1.54162">
        <ele>74</ele>
        <time>2021-04-24T09:30:54.000Z</time>
      </trkpt>
      <trkpt lat="47.13557" lon="-1.54147">
        <ele>74</ele>
        <time>2021-04-24T09:30:56.000Z</time>
      </trkpt>
      <trkpt lat="47.13547" lon="-1.54133">
        <ele>74</ele>
        <time>2021-04-24T09:30:58.000Z</time>
      </trkpt>
      <trkpt lat="47.13538" lon="-1.54119">
        <ele>74</ele>
        <time>2021-04-24T09:31:00.000Z</time>
      </trkpt>
      <trkpt lat="47.13529" lon="-1.54106">
        <ele>75</ele>
        <time>2021-04-24T09:31:02.000Z</time>
      </trkpt>
      <trkpt lat="47.1352" lon="-1.54093">
        <ele>75</ele>
        <time>2021-04-24T09:31:04.000Z</time>
      </trkpt>
      <trkpt lat="47.13511" lon="-1.54079">
        <ele>75</ele>
        <time>2021-04-24T09:31:06.000Z</time>
      </trkpt>
      <trkpt lat="47.13502" lon="-1.54066">
        <ele>75</ele>
        <time>2021-04-24T09:31:08.000Z</time>
      </trkpt>
      <trkpt lat="47.13493" lon="-1.54053">
        <ele>75</ele>
        <time>2021-04-24T09:31:10.000Z</time>
      </trkpt>
      <trkpt lat="47.13484" lon="-1.54039">
        <ele>75</ele>
        <time>2021-04-24T09:31:12.000Z</time>
      </trkpt>
      <trkpt lat="47.13476" lon="-1.54025">
        <ele>75</ele>
        <time>2021-04-24T09:31:14.000Z</time>
      </trkpt>
      <trkpt lat="47.13467" lon="-1.54011">
        <ele>75</ele>
        <time>2021-04-24T09:31:16.000Z</time>
      </trkpt>
      <trkpt lat="47.1346" lon="-1.53996">
        <ele>75</ele>
        <time>2021-04-24T09:31:18.000Z</time>
      </trkpt>
      <trkpt lat="47.13452" lon="-1.53982">
        <ele>75</ele>
        <time>2021-04-24T09:31:20.000Z</time>
      </trkpt>
      <trkpt lat="47.13444" lon="-1.53967">
        <ele>75</ele>
        <time>2021-04-24T09:31:22.000Z</time>
      </trkpt>
      <trkpt lat="47.13437" lon="-1.53953">
        <ele>74</ele>
        <time>2021-04-24T09:31:24.000Z</time>
      </trkpt>
      <trkpt lat="47.13429" lon="-1.53938">
        <ele>74</ele>
        <time>2021-04-24T09:31:26.000Z</time>
      </trkpt>
      <trkpt lat="47.1342" lon="-1.53923">
        <ele>73</ele>
        <time>2021-04-24T09:31:28.000Z</time>
      </trkpt>
      <trkpt lat="47.13412" lon="-1.53907">
        <ele>73</ele>
        <time>2021-04-24T09:31:30.000Z</time>
      </trkpt>
      <trkpt lat="47.13404" lon="-1.53891">
        <ele>74</ele>
        <time>2021-04-24T09:31:32.000Z</time>
      </trkpt>
      <trkpt lat="47.13395" lon="-1.53876">
        <ele>74</ele>
        <time>2021-04-24T09:31:34.000Z</time>
      </trkpt>
      <trkpt lat="47.13387" lon="-1.53861">
        <ele>74</ele>
        <time>2021-04-24T09:31:36.000Z</time>
      </trkpt>
      <trkpt lat="47.13379" lon="-1.53846">
        <ele>74</ele>
        <time>2021-04-24T09:31:38.000Z</time>
      </trkpt>
      <trkpt lat="47.13372" lon="-1.53831">
        <ele>74</ele>
        <time>2021-04-24T09:31:40.000Z</time>
      </trkpt>
      <trkpt lat="47.13364" lon="-1.53817">
        <ele>74</ele>
        <time>2021-04-24T09:31:42.000Z</time>
      </trkpt>
      <trkpt lat="47.13356" lon="-1.53802">
        <ele>74</ele>
        <time>2021-04-24T09:31:44.000Z</time>
      </trkpt>
      <trkpt lat="47.13349" lon="-1.53788">
        <ele>74</ele>
        <time>2021-04-24T09:31:46.000Z</time>
      </trkpt>
      <trkpt lat="47.13342" lon="-1.53774">
        <ele>74</ele>
        <time>2021-04-24T09:31:48.000Z</time>
      </trkpt>
      <trkpt lat="47.13334" lon="-1.53759">
        <ele>74</ele>
        <time>2021-04-24T09:31:50.000Z</time>
      </trkpt>
      <trkpt lat="47.13327" lon="-1.53743">
        <ele>74</ele>
        <time>2021-04-24T09:31:52.000Z</time>
      </trkpt>
      <trkpt lat="47.1332" lon="-1.53727">
        <ele>74</ele>
        <time>2021-04-24T09:31:54.000Z</time>
      </trkpt>
      <trkpt lat="47.13313" lon="-1.53712">
        <ele>74</ele>
        <time>2021-04-24T09:31:56.000Z</time>
      </trkpt>
      <trkpt lat="47.13307" lon="-1.53696">
        <ele>74</ele>
        <time>2021-04-24T09:31:58.000Z</time>
      </trkpt>
      <trkpt lat="47.13301" lon="-1.5368">
        <ele>74</ele>
        <time>2021-04-24T09:32:00.000Z</time>
      </trkpt>
      <trkpt lat="47.13295" lon="-1.53664">
        <ele>75</ele>
        <time>2021-04-24T09:32:02.000Z</time>
      </trkpt>
      <trkpt lat="47.13289" lon="-1.53648">
        <ele>75</ele>
        <time>2021-04-24T09:32:04.000Z</time>
      </trkpt>
      <trkpt lat="47.13284" lon="-1.5363">
        <ele>75</ele>
        <time>2021-04-24T09:32:06.000Z</time>
      </trkpt>
      <trkpt lat="47.13278" lon="-1.53612">
        <ele>75</ele>
        <time>2021-04-24T09:32:08.000Z</time>
      </trkpt>
      <trkpt lat="47.13272" lon="-1.53594">
        <ele>75</ele>
        <time>2021-04-24T09:32:10.000Z</time>
      </trkpt>
      <trkpt lat="47.13266" lon="-1.53577">
        <ele>76</ele>
        <time>2021-04-24T09:32:12.000Z</time>
      </trkpt>
      <trkpt lat="47.1326" lon="-1.5356">
        <ele>76</ele>
        <time>2021-04-24T09:32:14.000Z</time>
      </trkpt>
      <trkpt lat="47.13254" lon="-1.53542">
        <ele>77</ele>
        <time>2021-04-24T09:32:16.000Z</time>
      </trkpt>
      <trkpt lat="47.13249" lon="-1.53526">
        <ele>76</ele>
        <time>2021-04-24T09:32:18.000Z</time>
      </trkpt>
      <trkpt lat="47.13243" lon="-1.53508">
        <ele>76</ele>
        <time>2021-04-24T09:32:20.000Z</time>
      </trkpt>
      <trkpt lat="47.13237" lon="-1.53492">
        <ele>76</ele>
        <time>2021-04-24T09:32:22.000Z</time>
      </trkpt>
      <trkpt lat="47.13232" lon="-1.53475">
        <ele>76</ele>
        <time>2021-04-24T09:32:24.000Z</time>
      </trkpt>
      <trkpt lat="47.13227" lon="-1.53459">
        <ele>76</ele>
        <time>2021-04-24T09:32:26.000Z</time>
      </trkpt>
      <trkpt lat="47.13222" lon="-1.53442">
        <ele>76</ele>
        <time>2021-04-24T09:32:28.000Z</time>
      </trkpt>
      <trkpt lat="47.13217" lon="-1.53426">
        <ele>76</ele>
        <time>2021-04-24T09:32:30.000Z</time>
      </trkpt>
      <trkpt lat="47.13211" lon="-1.53409">
        <ele>77</ele>
        <time>2021-04-24T09:32:32.000Z</time>
      </trkpt>
      <trkpt lat="47.13206" lon="-1.53392">
        <ele>77</ele>
        <time>2021-04-24T09:32:34.000Z</time>
      </trkpt>
      <trkpt lat="47.13201" lon="-1.53375">
        <ele>77</ele>
        <time>2021-04-24T09:32:36.000Z</time>
      </trkpt>
      <trkpt lat="47.13196" lon="-1.53359">
        <ele>77</ele>
        <time>2021-04-24T09:32:38.000Z</time>
      </trkpt>
      <trkpt lat="47.13191" lon="-1.53342">
        <ele>77</ele>
        <time>2021-04-24T09:32:40.000Z</time>
      </trkpt>
      <trkpt lat="47.13185" lon="-1.53325">
        <ele>77</ele>
        <time>2021-04-24T09:32:42.000Z</time>
      </trkpt>
      <trkpt lat="47.1318" lon="-1.53309">
        <ele>76</ele>
        <time>2021-04-24T09:32:44.000Z</time>
      </trkpt>
      <trkpt lat="47.13174" lon="-1.53292">
        <ele>76</ele>
        <time>2021-04-24T09:32:46.000Z</time>
      </trkpt>
      <trkpt lat="47.13169" lon="-1.53276">
        <ele>76</ele>
        <time>2021-04-24T09:32:48.000Z</time>
      </trkpt>
      <trkpt lat="47.13164" lon="-1.5326">
        <ele>76</ele>
        <time>2021-04-24T09:32:50.000Z</time>
      </trkpt>
      <trkpt lat="47.1316" lon="-1.53246">
        <ele>76</ele>
        <time>2021-04-24T09:32:52.000Z</time>
      </trkpt>
      <trkpt lat="47.13157" lon="-1.53233">
        <ele>76</ele>
        <time>2021-04-24T09:32:54.000Z</time>
      </trkpt>
      <trkpt lat="47.13158" lon="-1.53216">
        <ele>76</ele>
        <time>2021-04-24T09:32:57.000Z</time>
      </trkpt>
      <trkpt lat="47.13169" lon="-1.5321">
        <ele>76</ele>
        <time>2021-04-24T09:32:59.000Z</time>
      </trkpt>
      <trkpt lat="47.13182" lon="-1.53206">
        <ele>76</ele>
        <time>2021-04-24T09:33:01.000Z</time>
      </trkpt>
      <trkpt lat="47.13195" lon="-1.53201">
        <ele>76</ele>
        <time>2021-04-24T09:33:03.000Z</time>
      </trkpt>
      <trkpt lat="47.13208" lon="-1.53196">
        <ele>77</ele>
        <time>2021-04-24T09:33:05.000Z</time>
      </trkpt>
      <trkpt lat="47.1322" lon="-1.5319">
        <ele>78</ele>
        <time>2021-04-24T09:33:07.000Z</time>
      </trkpt>
      <trkpt lat="47.13233" lon="-1.53185">
        <ele>78</ele>
        <time>2021-04-24T09:33:09.000Z</time>
      </trkpt>
      <trkpt lat="47.13245" lon="-1.53181">
        <ele>78</ele>
        <time>2021-04-24T09:33:11.000Z</time>
      </trkpt>
      <trkpt lat="47.13257" lon="-1.53176">
        <ele>78</ele>
        <time>2021-04-24T09:33:13.000Z</time>
      </trkpt>
      <trkpt lat="47.13269" lon="-1.53171">
        <ele>78</ele>
        <time>2021-04-24T09:33:15.000Z</time>
      </trkpt>
      <trkpt lat="47.13281" lon="-1.53166">
        <ele>78</ele>
        <time>2021-04-24T09:33:17.000Z</time>
      </trkpt>
      <trkpt lat="47.13293" lon="-1.5316">
        <ele>78</ele>
        <time>2021-04-24T09:33:19.000Z</time>
      </trkpt>
      <trkpt lat="47.13305" lon="-1.53156">
        <ele>78</ele>
        <time>2021-04-24T09:33:21.000Z</time>
      </trkpt>
      <trkpt lat="47.13317" lon="-1.53153">
        <ele>78</ele>
        <time>2021-04-24T09:33:23.000Z</time>
      </trkpt>
      <trkpt lat="47.13329" lon="-1.53149">
        <ele>78</ele>
        <time>2021-04-24T09:33:25.000Z</time>
      </trkpt>
      <trkpt lat="47.13341" lon="-1.53145">
        <ele>78</ele>
        <time>2021-04-24T09:33:27.000Z</time>
      </trkpt>
      <trkpt lat="47.13352" lon="-1.53142">
        <ele>79</ele>
        <time>2021-04-24T09:33:29.000Z</time>
      </trkpt>
      <trkpt lat="47.13364" lon="-1.53139">
        <ele>80</ele>
        <time>2021-04-24T09:33:31.000Z</time>
      </trkpt>
      <trkpt lat="47.13375" lon="-1.53137">
        <ele>80</ele>
        <time>2021-04-24T09:33:33.000Z</time>
      </trkpt>
      <trkpt lat="47.13387" lon="-1.53136">
        <ele>81</ele>
        <time>2021-04-24T09:33:35.000Z</time>
      </trkpt>
      <trkpt lat="47.13399" lon="-1.53137">
        <ele>81</ele>
        <time>2021-04-24T09:33:37.000Z</time>
      </trkpt>
      <trkpt lat="47.13411" lon="-1.53137">
        <ele>81</ele>
        <time>2021-04-24T09:33:39.000Z</time>
      </trkpt>
      <trkpt lat="47.13421" lon="-1.53134">
        <ele>82</ele>
        <time>2021-04-24T09:33:41.000Z</time>
      </trkpt>
      <trkpt lat="47.13432" lon="-1.5313">
        <ele>82</ele>
        <time>2021-04-24T09:33:43.000Z</time>
      </trkpt>
      <trkpt lat="47.13439" lon="-1.53115">
        <ele>82</ele>
        <time>2021-04-24T09:33:45.000Z</time>
      </trkpt>
      <trkpt lat="47.13445" lon="-1.53099">
        <ele>82</ele>
        <time>2021-04-24T09:33:47.000Z</time>
      </trkpt>
      <trkpt lat="47.13451" lon="-1.53084">
        <ele>82</ele>
        <time>2021-04-24T09:33:49.000Z</time>
      </trkpt>
      <trkpt lat="47.13457" lon="-1.53068">
        <ele>82</ele>
        <time>2021-04-24T09:33:51.000Z</time>
      </trkpt>
      <trkpt lat="47.13465" lon="-1.53054">
        <ele>82</ele>
        <time>2021-04-24T09:33:53.000Z</time>
      </trkpt>
      <trkpt lat="47.13471" lon="-1.53039">
        <ele>83</ele>
        <time>2021-04-24T09:33:55.000Z</time>
      </trkpt>
      <trkpt lat="47.13478" lon="-1.53024">
        <ele>83</ele>
        <time>2021-04-24T09:33:57.000Z</time>
      </trkpt>
      <trkpt lat="47.13484" lon="-1.5301">
        <ele>83</ele>
        <time>2021-04-24T09:33:59.000Z</time>
      </trkpt>
      <trkpt lat="47.13491" lon="-1.52996">
        <ele>83</ele>
        <time>2021-04-24T09:34:01.000Z</time>
      </trkpt>
      <trkpt lat="47.13497" lon="-1.52981">
        <ele>83</ele>
        <time>2021-04-24T09:34:03.000Z</time>
      </trkpt>
      <trkpt lat="47.13504" lon="-1.52967">
        <ele>83</ele>
        <time>2021-04-24T09:34:05.000Z</time>
      </trkpt>
      <trkpt lat="47.13511" lon="-1.52952">
        <ele>83</ele>
        <time>2021-04-24T09:34:07.000Z</time>
      </trkpt>
      <trkpt lat="47.13517" lon="-1.52937">
        <ele>83</ele>
        <time>2021-04-24T09:34:09.000Z</time>
      </trkpt>
      <trkpt lat="47.13524" lon="-1.52923">
        <ele>83</ele>
        <time>2021-04-24T09:34:11.000Z</time>
      </trkpt>
      <trkpt lat="47.1353" lon="-1.52908">
        <ele>84</ele>
        <time>2021-04-24T09:34:13.000Z</time>
      </trkpt>
      <trkpt lat="47.13536" lon="-1.52893">
        <ele>84</ele>
        <time>2021-04-24T09:34:15.000Z</time>
      </trkpt>
      <trkpt lat="47.13543" lon="-1.52879">
        <ele>84</ele>
        <time>2021-04-24T09:34:17.000Z</time>
      </trkpt>
      <trkpt lat="47.1355" lon="-1.52864">
        <ele>83</ele>
        <time>2021-04-24T09:34:19.000Z</time>
      </trkpt>
      <trkpt lat="47.13557" lon="-1.52849">
        <ele>83</ele>
        <time>2021-04-24T09:34:21.000Z</time>
      </trkpt>
      <trkpt lat="47.13564" lon="-1.52833">
        <ele>84</ele>
        <time>2021-04-24T09:34:23.000Z</time>
      </trkpt>
      <trkpt lat="47.1357" lon="-1.52819">
        <ele>83</ele>
        <time>2021-04-24T09:34:25.000Z</time>
      </trkpt>
      <trkpt lat="47.13577" lon="-1.52805">
        <ele>83</ele>
        <time>2021-04-24T09:34:27.000Z</time>
      </trkpt>
      <trkpt lat="47.13583" lon="-1.52791">
        <ele>83</ele>
        <time>2021-04-24T09:34:29.000Z</time>
      </trkpt>
      <trkpt lat="47.1359" lon="-1.52777">
        <ele>83</ele>
        <time>2021-04-24T09:34:31.000Z</time>
      </trkpt>
      <trkpt lat="47.13597" lon="-1.52763">
        <ele>83</ele>
        <time>2021-04-24T09:34:33.000Z</time>
      </trkpt>
      <trkpt lat="47.13605" lon="-1.52748">
        <ele>84</ele>
        <time>2021-04-24T09:34:35.000Z</time>
      </trkpt>
      <trkpt lat="47.13614" lon="-1.52735">
        <ele>83</ele>
        <time>2021-04-24T09:34:37.000Z</time>
      </trkpt>
      <trkpt lat="47.13622" lon="-1.52721">
        <ele>84</ele>
        <time>2021-04-24T09:34:39.000Z</time>
      </trkpt>
      <trkpt lat="47.1363" lon="-1.52708">
        <ele>83</ele>
        <time>2021-04-24T09:34:41.000Z</time>
      </trkpt>
      <trkpt lat="47.13638" lon="-1.52695">
        <ele>84</ele>
        <time>2021-04-24T09:34:43.000Z</time>
      </trkpt>
      <trkpt lat="47.13646" lon="-1.52682">
        <ele>84</ele>
        <time>2021-04-24T09:34:45.000Z</time>
      </trkpt>
      <trkpt lat="47.13654" lon="-1.52669">
        <ele>84</ele>
        <time>2021-04-24T09:34:47.000Z</time>
      </trkpt>
      <trkpt lat="47.13662" lon="-1.52655">
        <ele>85</ele>
        <time>2021-04-24T09:34:49.000Z</time>
      </trkpt>
      <trkpt lat="47.1367" lon="-1.52642">
        <ele>85</ele>
        <time>2021-04-24T09:34:51.000Z</time>
      </trkpt>
      <trkpt lat="47.13678" lon="-1.52629">
        <ele>85</ele>
        <time>2021-04-24T09:34:53.000Z</time>
      </trkpt>
      <trkpt lat="47.13686" lon="-1.52616">
        <ele>85</ele>
        <time>2021-04-24T09:34:55.000Z</time>
      </trkpt>
      <trkpt lat="47.13694" lon="-1.52604">
        <ele>85</ele>
        <time>2021-04-24T09:34:57.000Z</time>
      </trkpt>
      <trkpt lat="47.13702" lon="-1.52591">
        <ele>86</ele>
        <time>2021-04-24T09:34:59.000Z</time>
      </trkpt>
      <trkpt lat="47.1371" lon="-1.52578">
        <ele>86</ele>
        <time>2021-04-24T09:35:01.000Z</time>
      </trkpt>
      <trkpt lat="47.13719" lon="-1.52565">
        <ele>86</ele>
        <time>2021-04-24T09:35:03.000Z</time>
      </trkpt>
      <trkpt lat="47.13727" lon="-1.52552">
        <ele>86</ele>
        <time>2021-04-24T09:35:05.000Z</time>
      </trkpt>
      <trkpt lat="47.13735" lon="-1.52539">
        <ele>86</ele>
        <time>2021-04-24T09:35:07.000Z</time>
      </trkpt>
      <trkpt lat="47.13743" lon="-1.52525">
        <ele>86</ele>
        <time>2021-04-24T09:35:09.000Z</time>
      </trkpt>
      <trkpt lat="47.13751" lon="-1.52513">
        <ele>86</ele>
        <time>2021-04-24T09:35:11.000Z</time>
      </trkpt>
      <trkpt lat="47.13759" lon="-1.525">
        <ele>86</ele>
        <time>2021-04-24T09:35:13.000Z</time>
      </trkpt>
      <trkpt lat="47.13767" lon="-1.52488">
        <ele>86</ele>
        <time>2021-04-24T09:35:15.000Z</time>
      </trkpt>
      <trkpt lat="47.13775" lon="-1.52475">
        <ele>86</ele>
        <time>2021-04-24T09:35:17.000Z</time>
      </trkpt>
      <trkpt lat="47.13783" lon="-1.52463">
        <ele>86</ele>
        <time>2021-04-24T09:35:19.000Z</time>
      </trkpt>
      <trkpt lat="47.13792" lon="-1.5245">
        <ele>85</ele>
        <time>2021-04-24T09:35:21.000Z</time>
      </trkpt>
      <trkpt lat="47.138" lon="-1.52438">
        <ele>85</ele>
        <time>2021-04-24T09:35:23.000Z</time>
      </trkpt>
      <trkpt lat="47.13808" lon="-1.52426">
        <ele>85</ele>
        <time>2021-04-24T09:35:25.000Z</time>
      </trkpt>
      <trkpt lat="47.13816" lon="-1.52414">
        <ele>85</ele>
        <time>2021-04-24T09:35:27.000Z</time>
      </trkpt>
      <trkpt lat="47.13823" lon="-1.52402">
        <ele>85</ele>
        <time>2021-04-24T09:35:29.000Z</time>
      </trkpt>
      <trkpt lat="47.13831" lon="-1.52391">
        <ele>85</ele>
        <time>2021-04-24T09:35:31.000Z</time>
      </trkpt>
      <trkpt lat="47.13839" lon="-1.52379">
        <ele>84</ele>
        <time>2021-04-24T09:35:33.000Z</time>
      </trkpt>
      <trkpt lat="47.13846" lon="-1.52368">
        <ele>85</ele>
        <time>2021-04-24T09:35:35.000Z</time>
      </trkpt>
      <trkpt lat="47.13854" lon="-1.52356">
        <ele>85</ele>
        <time>2021-04-24T09:35:37.000Z</time>
      </trkpt>
      <trkpt lat="47.1386" lon="-1.52342">
        <ele>85</ele>
        <time>2021-04-24T09:35:39.000Z</time>
      </trkpt>
      <trkpt lat="47.13864" lon="-1.52326">
        <ele>85</ele>
        <time>2021-04-24T09:35:41.000Z</time>
      </trkpt>
      <trkpt lat="47.1387" lon="-1.52314">
        <ele>85</ele>
        <time>2021-04-24T09:35:43.000Z</time>
      </trkpt>
      <trkpt lat="47.1388" lon="-1.52306">
        <ele>85</ele>
        <time>2021-04-24T09:35:45.000Z</time>
      </trkpt>
      <trkpt lat="47.1389" lon="-1.52298">
        <ele>86</ele>
        <time>2021-04-24T09:35:47.000Z</time>
      </trkpt>
      <trkpt lat="47.13899" lon="-1.52288">
        <ele>86</ele>
        <time>2021-04-24T09:35:49.000Z</time>
      </trkpt>
      <trkpt lat="47.13907" lon="-1.52276">
        <ele>86</ele>
        <time>2021-04-24T09:35:51.000Z</time>
      </trkpt>
      <trkpt lat="47.13916" lon="-1.52264">
        <ele>86</ele>
        <time>2021-04-24T09:35:53.000Z</time>
      </trkpt>
      <trkpt lat="47.13924" lon="-1.52252">
        <ele>87</ele>
        <time>2021-04-24T09:35:55.000Z</time>
      </trkpt>
      <trkpt lat="47.13933" lon="-1.5224">
        <ele>86</ele>
        <time>2021-04-24T09:35:57.000Z</time>
      </trkpt>
      <trkpt lat="47.13942" lon="-1.52228">
        <ele>86</ele>
        <time>2021-04-24T09:35:59.000Z</time>
      </trkpt>
      <trkpt lat="47.13951" lon="-1.52215">
        <ele>86</ele>
        <time>2021-04-24T09:36:01.000Z</time>
      </trkpt>
      <trkpt lat="47.13959" lon="-1.52203">
        <ele>86</ele>
        <time>2021-04-24T09:36:03.000Z</time>
      </trkpt>
      <trkpt lat="47.13967" lon="-1.52192">
        <ele>86</ele>
        <time>2021-04-24T09:36:05.000Z</time>
      </trkpt>
      <trkpt lat="47.13975" lon="-1.5218">
        <ele>86</ele>
        <time>2021-04-24T09:36:07.000Z</time>
      </trkpt>
      <trkpt lat="47.13984" lon="-1.52169">
        <ele>86</ele>
        <time>2021-04-24T09:36:09.000Z</time>
      </trkpt>
      <trkpt lat="47.13993" lon="-1.52158">
        <ele>86</ele>
        <time>2021-04-24T09:36:11.000Z</time>
      </trkpt>
      <trkpt lat="47.14003" lon="-1.52149">
        <ele>86</ele>
        <time>2021-04-24T09:36:13.000Z</time>
      </trkpt>
      <trkpt lat="47.14013" lon="-1.5214">
        <ele>86</ele>
        <time>2021-04-24T09:36:15.000Z</time>
      </trkpt>
      <trkpt lat="47.14021" lon="-1.52127">
        <ele>86</ele>
        <time>2021-04-24T09:36:17.000Z</time>
      </trkpt>
      <trkpt lat="47.14026" lon="-1.52117">
        <ele>86</ele>
        <time>2021-04-24T09:36:19.000Z</time>
      </trkpt>
      <trkpt lat="47.14032" lon="-1.52105">
        <ele>86</ele>
        <time>2021-04-24T09:36:37.000Z</time>
      </trkpt>
      <trkpt lat="47.14042" lon="-1.52096">
        <ele>86</ele>
        <time>2021-04-24T09:36:40.000Z</time>
      </trkpt>
      <trkpt lat="47.14051" lon="-1.5209">
        <ele>86</ele>
        <time>2021-04-24T09:36:42.000Z</time>
      </trkpt>
      <trkpt lat="47.14063" lon="-1.52081">
        <ele>86</ele>
        <time>2021-04-24T09:36:44.000Z</time>
      </trkpt>
      <trkpt lat="47.14074" lon="-1.52069">
        <ele>86</ele>
        <time>2021-04-24T09:36:46.000Z</time>
      </trkpt>
      <trkpt lat="47.14084" lon="-1.52057">
        <ele>86</ele>
        <time>2021-04-24T09:36:48.000Z</time>
      </trkpt>
      <trkpt lat="47.14094" lon="-1.52046">
        <ele>87</ele>
        <time>2021-04-24T09:36:50.000Z</time>
      </trkpt>
      <trkpt lat="47.14105" lon="-1.52036">
        <ele>87</ele>
        <time>2021-04-24T09:36:52.000Z</time>
      </trkpt>
      <trkpt lat="47.14115" lon="-1.52026">
        <ele>86</ele>
        <time>2021-04-24T09:36:54.000Z</time>
      </trkpt>
      <trkpt lat="47.14126" lon="-1.52017">
        <ele>87</ele>
        <time>2021-04-24T09:36:56.000Z</time>
      </trkpt>
      <trkpt lat="47.14137" lon="-1.52007">
        <ele>87</ele>
        <time>2021-04-24T09:36:58.000Z</time>
      </trkpt>
      <trkpt lat="47.14147" lon="-1.51998">
        <ele>87</ele>
        <time>2021-04-24T09:37:00.000Z</time>
      </trkpt>
      <trkpt lat="47.14158" lon="-1.51989">
        <ele>87</ele>
        <time>2021-04-24T09:37:02.000Z</time>
      </trkpt>
      <trkpt lat="47.14168" lon="-1.51979">
        <ele>87</ele>
        <time>2021-04-24T09:37:04.000Z</time>
      </trkpt>
      <trkpt lat="47.14178" lon="-1.51969">
        <ele>86</ele>
        <time>2021-04-24T09:37:06.000Z</time>
      </trkpt>
      <trkpt lat="47.14188" lon="-1.51959">
        <ele>87</ele>
        <time>2021-04-24T09:37:08.000Z</time>
      </trkpt>
      <trkpt lat="47.14198" lon="-1.5195">
        <ele>87</ele>
        <time>2021-04-24T09:37:10.000Z</time>
      </trkpt>
      <trkpt lat="47.14207" lon="-1.5194">
        <ele>87</ele>
        <time>2021-04-24T09:37:12.000Z</time>
      </trkpt>
      <trkpt lat="47.14217" lon="-1.5193">
        <ele>87</ele>
        <time>2021-04-24T09:37:14.000Z</time>
      </trkpt>
      <trkpt lat="47.14227" lon="-1.5192">
        <ele>87</ele>
        <time>2021-04-24T09:37:16.000Z</time>
      </trkpt>
      <trkpt lat="47.14237" lon="-1.51911">
        <ele>87</ele>
        <time>2021-04-24T09:37:18.000Z</time>
      </trkpt>
      <trkpt lat="47.14247" lon="-1.51902">
        <ele>87</ele>
        <time>2021-04-24T09:37:20.000Z</time>
      </trkpt>
      <trkpt lat="47.14256" lon="-1.51891">
        <ele>87</ele>
        <time>2021-04-24T09:37:22.000Z</time>
      </trkpt>
      <trkpt lat="47.14266" lon="-1.51881">
        <ele>87</ele>
        <time>2021-04-24T09:37:24.000Z</time>
      </trkpt>
      <trkpt lat="47.14276" lon="-1.51872">
        <ele>86</ele>
        <time>2021-04-24T09:37:26.000Z</time>
      </trkpt>
      <trkpt lat="47.14285" lon="-1.51862">
        <ele>86</ele>
        <time>2021-04-24T09:37:28.000Z</time>
      </trkpt>
      <trkpt lat="47.14295" lon="-1.51852">
        <ele>85</ele>
        <time>2021-04-24T09:37:30.000Z</time>
      </trkpt>
      <trkpt lat="47.14304" lon="-1.51842">
        <ele>86</ele>
        <time>2021-04-24T09:37:32.000Z</time>
      </trkpt>
      <trkpt lat="47.14313" lon="-1.51833">
        <ele>86</ele>
        <time>2021-04-24T09:37:34.000Z</time>
      </trkpt>
      <trkpt lat="47.14323" lon="-1.51823">
        <ele>85</ele>
        <time>2021-04-24T09:37:36.000Z</time>
      </trkpt>
      <trkpt lat="47.14332" lon="-1.51813">
        <ele>85</ele>
        <time>2021-04-24T09:37:38.000Z</time>
      </trkpt>
      <trkpt lat="47.14343" lon="-1.51803">
        <ele>85</ele>
        <time>2021-04-24T09:37:40.000Z</time>
      </trkpt>
      <trkpt lat="47.14353" lon="-1.51793">
        <ele>85</ele>
        <time>2021-04-24T09:37:42.000Z</time>
      </trkpt>
      <trkpt lat="47.14363" lon="-1.51783">
        <ele>86</ele>
        <time>2021-04-24T09:37:44.000Z</time>
      </trkpt>
      <trkpt lat="47.14372" lon="-1.51772">
        <ele>86</ele>
        <time>2021-04-24T09:37:46.000Z</time>
      </trkpt>
      <trkpt lat="47.14382" lon="-1.51762">
        <ele>86</ele>
        <time>2021-04-24T09:37:48.000Z</time>
      </trkpt>
      <trkpt lat="47.14391" lon="-1.51752">
        <ele>86</ele>
        <time>2021-04-24T09:37:50.000Z</time>
      </trkpt>
      <trkpt lat="47.14402" lon="-1.51741">
        <ele>85</ele>
        <time>2021-04-24T09:37:52.000Z</time>
      </trkpt>
      <trkpt lat="47.14413" lon="-1.51731">
        <ele>85</ele>
        <time>2021-04-24T09:37:54.000Z</time>
      </trkpt>
      <trkpt lat="47.14423" lon="-1.51721">
        <ele>85</ele>
        <time>2021-04-24T09:37:56.000Z</time>
      </trkpt>
      <trkpt lat="47.14433" lon="-1.5171">
        <ele>85</ele>
        <time>2021-04-24T09:37:58.000Z</time>
      </trkpt>
      <trkpt lat="47.14443" lon="-1.517">
        <ele>85</ele>
        <time>2021-04-24T09:38:00.000Z</time>
      </trkpt>
      <trkpt lat="47.14453" lon="-1.51689">
        <ele>85</ele>
        <time>2021-04-24T09:38:02.000Z</time>
      </trkpt>
      <trkpt lat="47.14463" lon="-1.51679">
        <ele>84</ele>
        <time>2021-04-24T09:38:04.000Z</time>
      </trkpt>
      <trkpt lat="47.14474" lon="-1.51668">
        <ele>84</ele>
        <time>2021-04-24T09:38:06.000Z</time>
      </trkpt>
      <trkpt lat="47.14485" lon="-1.51657">
        <ele>84</ele>
        <time>2021-04-24T09:38:08.000Z</time>
      </trkpt>
      <trkpt lat="47.14495" lon="-1.51647">
        <ele>83</ele>
        <time>2021-04-24T09:38:10.000Z</time>
      </trkpt>
      <trkpt lat="47.14505" lon="-1.51635">
        <ele>83</ele>
        <time>2021-04-24T09:38:12.000Z</time>
      </trkpt>
      <trkpt lat="47.14515" lon="-1.51625">
        <ele>84</ele>
        <time>2021-04-24T09:38:14.000Z</time>
      </trkpt>
      <trkpt lat="47.14524" lon="-1.51613">
        <ele>83</ele>
        <time>2021-04-24T09:38:16.000Z</time>
      </trkpt>
      <trkpt lat="47.14534" lon="-1.51602">
        <ele>83</ele>
        <time>2021-04-24T09:38:18.000Z</time>
      </trkpt>
      <trkpt lat="47.14543" lon="-1.5159">
        <ele>82</ele>
        <time>2021-04-24T09:38:20.000Z</time>
      </trkpt>
      <trkpt lat="47.14553" lon="-1.51578">
        <ele>82</ele>
        <time>2021-04-24T09:38:22.000Z</time>
      </trkpt>
      <trkpt lat="47.14562" lon="-1.51566">
        <ele>82</ele>
        <time>2021-04-24T09:38:24.000Z</time>
      </trkpt>
      <trkpt lat="47.1457" lon="-1.51552">
        <ele>82</ele>
        <time>2021-04-24T09:38:26.000Z</time>
      </trkpt>
      <trkpt lat="47.14578" lon="-1.51539">
        <ele>83</ele>
        <time>2021-04-24T09:38:28.000Z</time>
      </trkpt>
      <trkpt lat="47.14585" lon="-1.51526">
        <ele>83</ele>
        <time>2021-04-24T09:38:30.000Z</time>
      </trkpt>
      <trkpt lat="47.14592" lon="-1.51513">
        <ele>83</ele>
        <time>2021-04-24T09:38:32.000Z</time>
      </trkpt>
      <trkpt lat="47.14599" lon="-1.51499">
        <ele>83</ele>
        <time>2021-04-24T09:38:34.000Z</time>
      </trkpt>
      <trkpt lat="47.14606" lon="-1.51485">
        <ele>84</ele>
        <time>2021-04-24T09:38:36.000Z</time>
      </trkpt>
      <trkpt lat="47.14612" lon="-1.51471">
        <ele>83</ele>
        <time>2021-04-24T09:38:38.000Z</time>
      </trkpt>
      <trkpt lat="47.14619" lon="-1.51457">
        <ele>84</ele>
        <time>2021-04-24T09:38:40.000Z</time>
      </trkpt>
      <trkpt lat="47.14625" lon="-1.51444">
        <ele>84</ele>
        <time>2021-04-24T09:38:42.000Z</time>
      </trkpt>
      <trkpt lat="47.14632" lon="-1.51431">
        <ele>83</ele>
        <time>2021-04-24T09:38:44.000Z</time>
      </trkpt>
      <trkpt lat="47.14638" lon="-1.51418">
        <ele>83</ele>
        <time>2021-04-24T09:38:46.000Z</time>
      </trkpt>
      <trkpt lat="47.14646" lon="-1.51403">
        <ele>83</ele>
        <time>2021-04-24T09:38:48.000Z</time>
      </trkpt>
      <trkpt lat="47.14653" lon="-1.51387">
        <ele>82</ele>
        <time>2021-04-24T09:38:50.000Z</time>
      </trkpt>
      <trkpt lat="47.14662" lon="-1.51372">
        <ele>82</ele>
        <time>2021-04-24T09:38:52.000Z</time>
      </trkpt>
      <trkpt lat="47.1467" lon="-1.51356">
        <ele>81</ele>
        <time>2021-04-24T09:38:54.000Z</time>
      </trkpt>
      <trkpt lat="47.14679" lon="-1.51339">
        <ele>81</ele>
        <time>2021-04-24T09:38:56.000Z</time>
      </trkpt>
      <trkpt lat="47.14687" lon="-1.51322">
        <ele>81</ele>
        <time>2021-04-24T09:38:58.000Z</time>
      </trkpt>
      <trkpt lat="47.14695" lon="-1.51305">
        <ele>81</ele>
        <time>2021-04-24T09:39:00.000Z</time>
      </trkpt>
      <trkpt lat="47.14704" lon="-1.51289">
        <ele>80</ele>
        <time>2021-04-24T09:39:02.000Z</time>
      </trkpt>
      <trkpt lat="47.14711" lon="-1.51273">
        <ele>80</ele>
        <time>2021-04-24T09:39:04.000Z</time>
      </trkpt>
      <trkpt lat="47.14719" lon="-1.51258">
        <ele>80</ele>
        <time>2021-04-24T09:39:06.000Z</time>
      </trkpt>
      <trkpt lat="47.14727" lon="-1.51242">
        <ele>80</ele>
        <time>2021-04-24T09:39:08.000Z</time>
      </trkpt>
      <trkpt lat="47.14735" lon="-1.51226">
        <ele>80</ele>
        <time>2021-04-24T09:39:10.000Z</time>
      </trkpt>
      <trkpt lat="47.14743" lon="-1.51211">
        <ele>79</ele>
        <time>2021-04-24T09:39:12.000Z</time>
      </trkpt>
      <trkpt lat="47.14751" lon="-1.51196">
        <ele>79</ele>
        <time>2021-04-24T09:39:14.000Z</time>
      </trkpt>
      <trkpt lat="47.14759" lon="-1.5118">
        <ele>79</ele>
        <time>2021-04-24T09:39:16.000Z</time>
      </trkpt>
      <trkpt lat="47.14767" lon="-1.51165">
        <ele>79</ele>
        <time>2021-04-24T09:39:18.000Z</time>
      </trkpt>
      <trkpt lat="47.14774" lon="-1.5115">
        <ele>79</ele>
        <time>2021-04-24T09:39:20.000Z</time>
      </trkpt>
      <trkpt lat="47.14783" lon="-1.51135">
        <ele>79</ele>
        <time>2021-04-24T09:39:22.000Z</time>
      </trkpt>
      <trkpt lat="47.14791" lon="-1.5112">
        <ele>79</ele>
        <time>2021-04-24T09:39:24.000Z</time>
      </trkpt>
      <trkpt lat="47.14799" lon="-1.51106">
        <ele>79</ele>
        <time>2021-04-24T09:39:26.000Z</time>
      </trkpt>
      <trkpt lat="47.14807" lon="-1.51091">
        <ele>79</ele>
        <time>2021-04-24T09:39:28.000Z</time>
      </trkpt>
      <trkpt lat="47.14815" lon="-1.51076">
        <ele>79</ele>
        <time>2021-04-24T09:39:30.000Z</time>
      </trkpt>
      <trkpt lat="47.14823" lon="-1.51062">
        <ele>79</ele>
        <time>2021-04-24T09:39:32.000Z</time>
      </trkpt>
      <trkpt lat="47.14832" lon="-1.51048">
        <ele>78</ele>
        <time>2021-04-24T09:39:34.000Z</time>
      </trkpt>
      <trkpt lat="47.14841" lon="-1.51034">
        <ele>78</ele>
        <time>2021-04-24T09:39:36.000Z</time>
      </trkpt>
      <trkpt lat="47.14849" lon="-1.51019">
        <ele>78</ele>
        <time>2021-04-24T09:39:38.000Z</time>
      </trkpt>
      <trkpt lat="47.14858" lon="-1.51004">
        <ele>78</ele>
        <time>2021-04-24T09:39:40.000Z</time>
      </trkpt>
      <trkpt lat="47.14867" lon="-1.5099">
        <ele>78</ele>
        <time>2021-04-24T09:39:42.000Z</time>
      </trkpt>
      <trkpt lat="47.14876" lon="-1.50976">
        <ele>78</ele>
        <time>2021-04-24T09:39:44.000Z</time>
      </trkpt>
      <trkpt lat="47.14885" lon="-1.50962">
        <ele>78</ele>
        <time>2021-04-24T09:39:46.000Z</time>
      </trkpt>
      <trkpt lat="47.14894" lon="-1.50948">
        <ele>77</ele>
        <time>2021-04-24T09:39:48.000Z</time>
      </trkpt>
      <trkpt lat="47.14903" lon="-1.50934">
        <ele>77</ele>
        <time>2021-04-24T09:39:50.000Z</time>
      </trkpt>
      <trkpt lat="47.14912" lon="-1.5092">
        <ele>77</ele>
        <time>2021-04-24T09:39:52.000Z</time>
      </trkpt>
      <trkpt lat="47.14922" lon="-1.50906">
        <ele>78</ele>
        <time>2021-04-24T09:39:54.000Z</time>
      </trkpt>
      <trkpt lat="47.14932" lon="-1.50893">
        <ele>77</ele>
        <time>2021-04-24T09:39:56.000Z</time>
      </trkpt>
      <trkpt lat="47.14941" lon="-1.50879">
        <ele>77</ele>
        <time>2021-04-24T09:39:58.000Z</time>
      </trkpt>
      <trkpt lat="47.1495" lon="-1.50866">
        <ele>77</ele>
        <time>2021-04-24T09:40:00.000Z</time>
      </trkpt>
      <trkpt lat="47.14959" lon="-1.50854">
        <ele>76</ele>
        <time>2021-04-24T09:40:02.000Z</time>
      </trkpt>
      <trkpt lat="47.14968" lon="-1.50841">
        <ele>76</ele>
        <time>2021-04-24T09:40:04.000Z</time>
      </trkpt>
      <trkpt lat="47.14977" lon="-1.50828">
        <ele>76</ele>
        <time>2021-04-24T09:40:06.000Z</time>
      </trkpt>
      <trkpt lat="47.14986" lon="-1.50816">
        <ele>76</ele>
        <time>2021-04-24T09:40:08.000Z</time>
      </trkpt>
      <trkpt lat="47.14995" lon="-1.50804">
        <ele>76</ele>
        <time>2021-04-24T09:40:10.000Z</time>
      </trkpt>
      <trkpt lat="47.15005" lon="-1.50792">
        <ele>76</ele>
        <time>2021-04-24T09:40:12.000Z</time>
      </trkpt>
      <trkpt lat="47.15014" lon="-1.5078">
        <ele>76</ele>
        <time>2021-04-24T09:40:14.000Z</time>
      </trkpt>
      <trkpt lat="47.15024" lon="-1.50768">
        <ele>76</ele>
        <time>2021-04-24T09:40:16.000Z</time>
      </trkpt>
      <trkpt lat="47.15033" lon="-1.50756">
        <ele>76</ele>
        <time>2021-04-24T09:40:18.000Z</time>
      </trkpt>
      <trkpt lat="47.15043" lon="-1.50743">
        <ele>75</ele>
        <time>2021-04-24T09:40:20.000Z</time>
      </trkpt>
      <trkpt lat="47.15052" lon="-1.50731">
        <ele>75</ele>
        <time>2021-04-24T09:40:22.000Z</time>
      </trkpt>
      <trkpt lat="47.15062" lon="-1.5072">
        <ele>75</ele>
        <time>2021-04-24T09:40:24.000Z</time>
      </trkpt>
      <trkpt lat="47.15072" lon="-1.50708">
        <ele>75</ele>
        <time>2021-04-24T09:40:26.000Z</time>
      </trkpt>
      <trkpt lat="47.15082" lon="-1.50696">
        <ele>74</ele>
        <time>2021-04-24T09:40:28.000Z</time>
      </trkpt>
      <trkpt lat="47.15092" lon="-1.50684">
        <ele>74</ele>
        <time>2021-04-24T09:40:30.000Z</time>
      </trkpt>
      <trkpt lat="47.15103" lon="-1.50672">
        <ele>74</ele>
        <time>2021-04-24T09:40:32.000Z</time>
      </trkpt>
      <trkpt lat="47.15113" lon="-1.50661">
        <ele>74</ele>
        <time>2021-04-24T09:40:34.000Z</time>
      </trkpt>
      <trkpt lat="47.15123" lon="-1.50649">
        <ele>73</ele>
        <time>2021-04-24T09:40:36.000Z</time>
      </trkpt>
      <trkpt lat="47.15133" lon="-1.50638">
        <ele>73</ele>
        <time>2021-04-24T09:40:38.000Z</time>
      </trkpt>
      <trkpt lat="47.15143" lon="-1.50626">
        <ele>74</ele>
        <time>2021-04-24T09:40:40.000Z</time>
      </trkpt>
      <trkpt lat="47.15153" lon="-1.50615">
        <ele>74</ele>
        <time>2021-04-24T09:40:42.000Z</time>
      </trkpt>
      <trkpt lat="47.15163" lon="-1.50603">
        <ele>74</ele>
        <time>2021-04-24T09:40:44.000Z</time>
      </trkpt>
      <trkpt lat="47.15173" lon="-1.50591">
        <ele>74</ele>
        <time>2021-04-24T09:40:46.000Z</time>
      </trkpt>
      <trkpt lat="47.15183" lon="-1.5058">
        <ele>74</ele>
        <time>2021-04-24T09:40:48.000Z</time>
      </trkpt>
      <trkpt lat="47.15193" lon="-1.50569">
        <ele>74</ele>
        <time>2021-04-24T09:40:50.000Z</time>
      </trkpt>
      <trkpt lat="47.15202" lon="-1.50558">
        <ele>74</ele>
        <time>2021-04-24T09:40:52.000Z</time>
      </trkpt>
      <trkpt lat="47.15211" lon="-1.50547">
        <ele>75</ele>
        <time>2021-04-24T09:40:54.000Z</time>
      </trkpt>
      <trkpt lat="47.15221" lon="-1.50536">
        <ele>76</ele>
        <time>2021-04-24T09:40:56.000Z</time>
      </trkpt>
      <trkpt lat="47.1523" lon="-1.50526">
        <ele>76</ele>
        <time>2021-04-24T09:40:58.000Z</time>
      </trkpt>
      <trkpt lat="47.1524" lon="-1.50514">
        <ele>76</ele>
        <time>2021-04-24T09:41:00.000Z</time>
      </trkpt>
      <trkpt lat="47.15249" lon="-1.50503">
        <ele>76</ele>
        <time>2021-04-24T09:41:02.000Z</time>
      </trkpt>
      <trkpt lat="47.15258" lon="-1.50492">
        <ele>77</ele>
        <time>2021-04-24T09:41:04.000Z</time>
      </trkpt>
      <trkpt lat="47.15268" lon="-1.50482">
        <ele>76</ele>
        <time>2021-04-24T09:41:06.000Z</time>
      </trkpt>
      <trkpt lat="47.15277" lon="-1.5047">
        <ele>77</ele>
        <time>2021-04-24T09:41:08.000Z</time>
      </trkpt>
      <trkpt lat="47.15287" lon="-1.50459">
        <ele>76</ele>
        <time>2021-04-24T09:41:10.000Z</time>
      </trkpt>
      <trkpt lat="47.15295" lon="-1.50449">
        <ele>77</ele>
        <time>2021-04-24T09:41:12.000Z</time>
      </trkpt>
      <trkpt lat="47.15304" lon="-1.50438">
        <ele>77</ele>
        <time>2021-04-24T09:41:14.000Z</time>
      </trkpt>
      <trkpt lat="47.15313" lon="-1.50427">
        <ele>77</ele>
        <time>2021-04-24T09:41:16.000Z</time>
      </trkpt>
      <trkpt lat="47.15323" lon="-1.50417">
        <ele>77</ele>
        <time>2021-04-24T09:41:18.000Z</time>
      </trkpt>
      <trkpt lat="47.15333" lon="-1.50406">
        <ele>77</ele>
        <time>2021-04-24T09:41:20.000Z</time>
      </trkpt>
      <trkpt lat="47.15342" lon="-1.50395">
        <ele>77</ele>
        <time>2021-04-24T09:41:22.000Z</time>
      </trkpt>
      <trkpt lat="47.15352" lon="-1.50383">
        <ele>77</ele>
        <time>2021-04-24T09:41:24.000Z</time>
      </trkpt>
      <trkpt lat="47.15362" lon="-1.50371">
        <ele>78</ele>
        <time>2021-04-24T09:41:26.000Z</time>
      </trkpt>
      <trkpt lat="47.15373" lon="-1.5036">
        <ele>78</ele>
        <time>2021-04-24T09:41:28.000Z</time>
      </trkpt>
      <trkpt lat="47.15383" lon="-1.50349">
        <ele>78</ele>
        <time>2021-04-24T09:41:30.000Z</time>
      </trkpt>
      <trkpt lat="47.15394" lon="-1.50338">
        <ele>78</ele>
        <time>2021-04-24T09:41:32.000Z</time>
      </trkpt>
      <trkpt lat="47.15404" lon="-1.50328">
        <ele>78</ele>
        <time>2021-04-24T09:41:34.000Z</time>
      </trkpt>
      <trkpt lat="47.15415" lon="-1.50317">
        <ele>78</ele>
        <time>2021-04-24T09:41:36.000Z</time>
      </trkpt>
      <trkpt lat="47.15426" lon="-1.50309">
        <ele>78</ele>
        <time>2021-04-24T09:41:38.000Z</time>
      </trkpt>
      <trkpt lat="47.15438" lon="-1.50302">
        <ele>78</ele>
        <time>2021-04-24T09:41:40.000Z</time>
      </trkpt>
      <trkpt lat="47.1545" lon="-1.50294">
        <ele>78</ele>
        <time>2021-04-24T09:41:42.000Z</time>
      </trkpt>
      <trkpt lat="47.15462" lon="-1.50288">
        <ele>77</ele>
        <time>2021-04-24T09:41:44.000Z</time>
      </trkpt>
      <trkpt lat="47.15474" lon="-1.50282">
        <ele>77</ele>
        <time>2021-04-24T09:41:46.000Z</time>
      </trkpt>
      <trkpt lat="47.15485" lon="-1.50276">
        <ele>77</ele>
        <time>2021-04-24T09:41:48.000Z</time>
      </trkpt>
      <trkpt lat="47.15497" lon="-1.50271">
        <ele>77</ele>
        <time>2021-04-24T09:41:50.000Z</time>
      </trkpt>
      <trkpt lat="47.15509" lon="-1.50266">
        <ele>77</ele>
        <time>2021-04-24T09:41:52.000Z</time>
      </trkpt>
      <trkpt lat="47.15521" lon="-1.5026">
        <ele>77</ele>
        <time>2021-04-24T09:41:54.000Z</time>
      </trkpt>
      <trkpt lat="47.15533" lon="-1.50254">
        <ele>77</ele>
        <time>2021-04-24T09:41:56.000Z</time>
      </trkpt>
      <trkpt lat="47.15545" lon="-1.50246">
        <ele>76</ele>
        <time>2021-04-24T09:41:58.000Z</time>
      </trkpt>
      <trkpt lat="47.15557" lon="-1.50238">
        <ele>76</ele>
        <time>2021-04-24T09:42:00.000Z</time>
      </trkpt>
      <trkpt lat="47.15568" lon="-1.50227">
        <ele>76</ele>
        <time>2021-04-24T09:42:02.000Z</time>
      </trkpt>
      <trkpt lat="47.15578" lon="-1.50217">
        <ele>76</ele>
        <time>2021-04-24T09:42:04.000Z</time>
      </trkpt>
      <trkpt lat="47.15589" lon="-1.50206">
        <ele>76</ele>
        <time>2021-04-24T09:42:06.000Z</time>
      </trkpt>
      <trkpt lat="47.15599" lon="-1.50196">
        <ele>76</ele>
        <time>2021-04-24T09:42:08.000Z</time>
      </trkpt>
      <trkpt lat="47.1561" lon="-1.50186">
        <ele>76</ele>
        <time>2021-04-24T09:42:10.000Z</time>
      </trkpt>
      <trkpt lat="47.1562" lon="-1.50176">
        <ele>76</ele>
        <time>2021-04-24T09:42:12.000Z</time>
      </trkpt>
      <trkpt lat="47.1563" lon="-1.50166">
        <ele>75</ele>
        <time>2021-04-24T09:42:14.000Z</time>
      </trkpt>
      <trkpt lat="47.15641" lon="-1.50156">
        <ele>75</ele>
        <time>2021-04-24T09:42:16.000Z</time>
      </trkpt>
      <trkpt lat="47.15651" lon="-1.50146">
        <ele>75</ele>
        <time>2021-04-24T09:42:18.000Z</time>
      </trkpt>
      <trkpt lat="47.15662" lon="-1.50137">
        <ele>74</ele>
        <time>2021-04-24T09:42:20.000Z</time>
      </trkpt>
      <trkpt lat="47.15672" lon="-1.50126">
        <ele>74</ele>
        <time>2021-04-24T09:42:22.000Z</time>
      </trkpt>
      <trkpt lat="47.15682" lon="-1.50114">
        <ele>74</ele>
        <time>2021-04-24T09:42:24.000Z</time>
      </trkpt>
      <trkpt lat="47.15691" lon="-1.50102">
        <ele>74</ele>
        <time>2021-04-24T09:42:26.000Z</time>
      </trkpt>
      <trkpt lat="47.15699" lon="-1.50088">
        <ele>75</ele>
        <time>2021-04-24T09:42:28.000Z</time>
      </trkpt>
      <trkpt lat="47.15707" lon="-1.50073">
        <ele>75</ele>
        <time>2021-04-24T09:42:30.000Z</time>
      </trkpt>
      <trkpt lat="47.15714" lon="-1.50059">
        <ele>75</ele>
        <time>2021-04-24T09:42:32.000Z</time>
      </trkpt>
      <trkpt lat="47.15722" lon="-1.50045">
        <ele>75</ele>
        <time>2021-04-24T09:42:34.000Z</time>
      </trkpt>
      <trkpt lat="47.15729" lon="-1.5003">
        <ele>75</ele>
        <time>2021-04-24T09:42:36.000Z</time>
      </trkpt>
      <trkpt lat="47.15736" lon="-1.50016">
        <ele>75</ele>
        <time>2021-04-24T09:42:38.000Z</time>
      </trkpt>
      <trkpt lat="47.15744" lon="-1.50002">
        <ele>75</ele>
        <time>2021-04-24T09:42:40.000Z</time>
      </trkpt>
      <trkpt lat="47.15751" lon="-1.49988">
        <ele>75</ele>
        <time>2021-04-24T09:42:42.000Z</time>
      </trkpt>
      <trkpt lat="47.15758" lon="-1.49974">
        <ele>75</ele>
        <time>2021-04-24T09:42:44.000Z</time>
      </trkpt>
      <trkpt lat="47.15766" lon="-1.49959">
        <ele>75</ele>
        <time>2021-04-24T09:42:46.000Z</time>
      </trkpt>
      <trkpt lat="47.15773" lon="-1.49945">
        <ele>75</ele>
        <time>2021-04-24T09:42:48.000Z</time>
      </trkpt>
      <trkpt lat="47.1578" lon="-1.4993">
        <ele>76</ele>
        <time>2021-04-24T09:42:50.000Z</time>
      </trkpt>
      <trkpt lat="47.15787" lon="-1.49916">
        <ele>76</ele>
        <time>2021-04-24T09:42:52.000Z</time>
      </trkpt>
      <trkpt lat="47.15794" lon="-1.49902">
        <ele>76</ele>
        <time>2021-04-24T09:42:54.000Z</time>
      </trkpt>
      <trkpt lat="47.15802" lon="-1.49887">
        <ele>76</ele>
        <time>2021-04-24T09:42:56.000Z</time>
      </trkpt>
      <trkpt lat="47.15809" lon="-1.49873">
        <ele>76</ele>
        <time>2021-04-24T09:42:58.000Z</time>
      </trkpt>
      <trkpt lat="47.15815" lon="-1.49859">
        <ele>76</ele>
        <time>2021-04-24T09:43:00.000Z</time>
      </trkpt>
      <trkpt lat="47.15824" lon="-1.49845">
        <ele>76</ele>
        <time>2021-04-24T09:43:02.000Z</time>
      </trkpt>
      <trkpt lat="47.15831" lon="-1.4983">
        <ele>76</ele>
        <time>2021-04-24T09:43:04.000Z</time>
      </trkpt>
      <trkpt lat="47.15838" lon="-1.49815">
        <ele>75</ele>
        <time>2021-04-24T09:43:06.000Z</time>
      </trkpt>
      <trkpt lat="47.15846" lon="-1.498">
        <ele>75</ele>
        <time>2021-04-24T09:43:08.000Z</time>
      </trkpt>
      <trkpt lat="47.15854" lon="-1.49784">
        <ele>74</ele>
        <time>2021-04-24T09:43:10.000Z</time>
      </trkpt>
      <trkpt lat="47.15862" lon="-1.49768">
        <ele>75</ele>
        <time>2021-04-24T09:43:12.000Z</time>
      </trkpt>
      <trkpt lat="47.1587" lon="-1.49753">
        <ele>74</ele>
        <time>2021-04-24T09:43:14.000Z</time>
      </trkpt>
      <trkpt lat="47.15878" lon="-1.49737">
        <ele>74</ele>
        <time>2021-04-24T09:43:16.000Z</time>
      </trkpt>
      <trkpt lat="47.15886" lon="-1.49721">
        <ele>74</ele>
        <time>2021-04-24T09:43:18.000Z</time>
      </trkpt>
      <trkpt lat="47.15895" lon="-1.49706">
        <ele>73</ele>
        <time>2021-04-24T09:43:20.000Z</time>
      </trkpt>
      <trkpt lat="47.15903" lon="-1.49689">
        <ele>72</ele>
        <time>2021-04-24T09:43:22.000Z</time>
      </trkpt>
      <trkpt lat="47.15912" lon="-1.49672">
        <ele>72</ele>
        <time>2021-04-24T09:43:24.000Z</time>
      </trkpt>
      <trkpt lat="47.1592" lon="-1.49655">
        <ele>71</ele>
        <time>2021-04-24T09:43:26.000Z</time>
      </trkpt>
      <trkpt lat="47.15929" lon="-1.49638">
        <ele>71</ele>
        <time>2021-04-24T09:43:28.000Z</time>
      </trkpt>
      <trkpt lat="47.15937" lon="-1.49621">
        <ele>71</ele>
        <time>2021-04-24T09:43:30.000Z</time>
      </trkpt>
      <trkpt lat="47.15945" lon="-1.49605">
        <ele>71</ele>
        <time>2021-04-24T09:43:32.000Z</time>
      </trkpt>
      <trkpt lat="47.15953" lon="-1.4959">
        <ele>71</ele>
        <time>2021-04-24T09:43:34.000Z</time>
      </trkpt>
      <trkpt lat="47.15961" lon="-1.49575">
        <ele>71</ele>
        <time>2021-04-24T09:43:36.000Z</time>
      </trkpt>
      <trkpt lat="47.15969" lon="-1.49559">
        <ele>70</ele>
        <time>2021-04-24T09:43:38.000Z</time>
      </trkpt>
      <trkpt lat="47.15977" lon="-1.49544">
        <ele>70</ele>
        <time>2021-04-24T09:43:40.000Z</time>
      </trkpt>
      <trkpt lat="47.15984" lon="-1.49529">
        <ele>70</ele>
        <time>2021-04-24T09:43:42.000Z</time>
      </trkpt>
      <trkpt lat="47.15992" lon="-1.49514">
        <ele>70</ele>
        <time>2021-04-24T09:43:44.000Z</time>
      </trkpt>
      <trkpt lat="47.16" lon="-1.49498">
        <ele>71</ele>
        <time>2021-04-24T09:43:46.000Z</time>
      </trkpt>
      <trkpt lat="47.16008" lon="-1.49483">
        <ele>71</ele>
        <time>2021-04-24T09:43:48.000Z</time>
      </trkpt>
      <trkpt lat="47.16016" lon="-1.49468">
        <ele>71</ele>
        <time>2021-04-24T09:43:50.000Z</time>
      </trkpt>
      <trkpt lat="47.16024" lon="-1.49453">
        <ele>71</ele>
        <time>2021-04-24T09:43:52.000Z</time>
      </trkpt>
      <trkpt lat="47.16032" lon="-1.49437">
        <ele>71</ele>
        <time>2021-04-24T09:43:54.000Z</time>
      </trkpt>
      <trkpt lat="47.16039" lon="-1.49422">
        <ele>71</ele>
        <time>2021-04-24T09:43:56.000Z</time>
      </trkpt>
      <trkpt lat="47.16047" lon="-1.49408">
        <ele>71</ele>
        <time>2021-04-24T09:43:58.000Z</time>
      </trkpt>
      <trkpt lat="47.16055" lon="-1.49392">
        <ele>72</ele>
        <time>2021-04-24T09:44:00.000Z</time>
      </trkpt>
      <trkpt lat="47.16065" lon="-1.49382">
        <ele>72</ele>
        <time>2021-04-24T09:44:02.000Z</time>
      </trkpt>
      <trkpt lat="47.16075" lon="-1.49371">
        <ele>72</ele>
        <time>2021-04-24T09:44:04.000Z</time>
      </trkpt>
      <trkpt lat="47.16084" lon="-1.49359">
        <ele>71</ele>
        <time>2021-04-24T09:44:06.000Z</time>
      </trkpt>
      <trkpt lat="47.16094" lon="-1.49347">
        <ele>72</ele>
        <time>2021-04-24T09:44:08.000Z</time>
      </trkpt>
      <trkpt lat="47.16103" lon="-1.49337">
        <ele>71</ele>
        <time>2021-04-24T09:44:10.000Z</time>
      </trkpt>
      <trkpt lat="47.16114" lon="-1.49325">
        <ele>71</ele>
        <time>2021-04-24T09:44:12.000Z</time>
      </trkpt>
      <trkpt lat="47.16123" lon="-1.49314">
        <ele>71</ele>
        <time>2021-04-24T09:44:14.000Z</time>
      </trkpt>
      <trkpt lat="47.16132" lon="-1.49302">
        <ele>71</ele>
        <time>2021-04-24T09:44:16.000Z</time>
      </trkpt>
      <trkpt lat="47.16141" lon="-1.49288">
        <ele>71</ele>
        <time>2021-04-24T09:44:18.000Z</time>
      </trkpt>
      <trkpt lat="47.16149" lon="-1.49274">
        <ele>71</ele>
        <time>2021-04-24T09:44:20.000Z</time>
      </trkpt>
      <trkpt lat="47.16155" lon="-1.4926">
        <ele>72</ele>
        <time>2021-04-24T09:44:22.000Z</time>
      </trkpt>
      <trkpt lat="47.16162" lon="-1.49245">
        <ele>71</ele>
        <time>2021-04-24T09:44:24.000Z</time>
      </trkpt>
      <trkpt lat="47.16169" lon="-1.4923">
        <ele>72</ele>
        <time>2021-04-24T09:44:26.000Z</time>
      </trkpt>
      <trkpt lat="47.16177" lon="-1.49216">
        <ele>72</ele>
        <time>2021-04-24T09:44:28.000Z</time>
      </trkpt>
      <trkpt lat="47.16186" lon="-1.49203">
        <ele>72</ele>
        <time>2021-04-24T09:44:30.000Z</time>
      </trkpt>
      <trkpt lat="47.16196" lon="-1.49192">
        <ele>72</ele>
        <time>2021-04-24T09:44:32.000Z</time>
      </trkpt>
      <trkpt lat="47.16207" lon="-1.49181">
        <ele>72</ele>
        <time>2021-04-24T09:44:34.000Z</time>
      </trkpt>
      <trkpt lat="47.16217" lon="-1.49171">
        <ele>72</ele>
        <time>2021-04-24T09:44:36.000Z</time>
      </trkpt>
      <trkpt lat="47.16227" lon="-1.49161">
        <ele>72</ele>
        <time>2021-04-24T09:44:38.000Z</time>
      </trkpt>
      <trkpt lat="47.16237" lon="-1.49151">
        <ele>72</ele>
        <time>2021-04-24T09:44:40.000Z</time>
      </trkpt>
      <trkpt lat="47.16248" lon="-1.49141">
        <ele>71</ele>
        <time>2021-04-24T09:44:42.000Z</time>
      </trkpt>
      <trkpt lat="47.16258" lon="-1.49131">
        <ele>71</ele>
        <time>2021-04-24T09:44:44.000Z</time>
      </trkpt>
      <trkpt lat="47.16269" lon="-1.49121">
        <ele>70</ele>
        <time>2021-04-24T09:44:46.000Z</time>
      </trkpt>
      <trkpt lat="47.1628" lon="-1.4911">
        <ele>70</ele>
        <time>2021-04-24T09:44:48.000Z</time>
      </trkpt>
      <trkpt lat="47.16292" lon="-1.49098">
        <ele>70</ele>
        <time>2021-04-24T09:44:50.000Z</time>
      </trkpt>
      <trkpt lat="47.16303" lon="-1.49086">
        <ele>69</ele>
        <time>2021-04-24T09:44:52.000Z</time>
      </trkpt>
      <trkpt lat="47.16315" lon="-1.49074">
        <ele>69</ele>
        <time>2021-04-24T09:44:54.000Z</time>
      </trkpt>
      <trkpt lat="47.16327" lon="-1.49062">
        <ele>69</ele>
        <time>2021-04-24T09:44:56.000Z</time>
      </trkpt>
      <trkpt lat="47.1634" lon="-1.49048">
        <ele>68</ele>
        <time>2021-04-24T09:44:58.000Z</time>
      </trkpt>
      <trkpt lat="47.16353" lon="-1.49036">
        <ele>68</ele>
        <time>2021-04-24T09:45:00.000Z</time>
      </trkpt>
      <trkpt lat="47.16364" lon="-1.49022">
        <ele>68</ele>
        <time>2021-04-24T09:45:02.000Z</time>
      </trkpt>
      <trkpt lat="47.16374" lon="-1.49007">
        <ele>68</ele>
        <time>2021-04-24T09:45:04.000Z</time>
      </trkpt>
      <trkpt lat="47.16384" lon="-1.48991">
        <ele>68</ele>
        <time>2021-04-24T09:45:06.000Z</time>
      </trkpt>
      <trkpt lat="47.16394" lon="-1.48975">
        <ele>68</ele>
        <time>2021-04-24T09:45:08.000Z</time>
      </trkpt>
      <trkpt lat="47.16403" lon="-1.4896">
        <ele>68</ele>
        <time>2021-04-24T09:45:10.000Z</time>
      </trkpt>
      <trkpt lat="47.16413" lon="-1.48946">
        <ele>69</ele>
        <time>2021-04-24T09:45:12.000Z</time>
      </trkpt>
      <trkpt lat="47.16422" lon="-1.48935">
        <ele>69</ele>
        <time>2021-04-24T09:45:14.000Z</time>
      </trkpt>
      <trkpt lat="47.16433" lon="-1.48924">
        <ele>69</ele>
        <time>2021-04-24T09:45:16.000Z</time>
      </trkpt>
      <trkpt lat="47.16442" lon="-1.48911">
        <ele>69</ele>
        <time>2021-04-24T09:45:18.000Z</time>
      </trkpt>
      <trkpt lat="47.16453" lon="-1.48897">
        <ele>68</ele>
        <time>2021-04-24T09:45:20.000Z</time>
      </trkpt>
      <trkpt lat="47.16464" lon="-1.48881">
        <ele>67</ele>
        <time>2021-04-24T09:45:22.000Z</time>
      </trkpt>
      <trkpt lat="47.16472" lon="-1.48864">
        <ele>67</ele>
        <time>2021-04-24T09:45:24.000Z</time>
      </trkpt>
      <trkpt lat="47.16479" lon="-1.48846">
        <ele>66</ele>
        <time>2021-04-24T09:45:26.000Z</time>
      </trkpt>
      <trkpt lat="47.16487" lon="-1.48828">
        <ele>65</ele>
        <time>2021-04-24T09:45:28.000Z</time>
      </trkpt>
      <trkpt lat="47.16495" lon="-1.48809">
        <ele>65</ele>
        <time>2021-04-24T09:45:30.000Z</time>
      </trkpt>
      <trkpt lat="47.16503" lon="-1.48792">
        <ele>64</ele>
        <time>2021-04-24T09:45:32.000Z</time>
      </trkpt>
      <trkpt lat="47.1651" lon="-1.48774">
        <ele>64</ele>
        <time>2021-04-24T09:45:34.000Z</time>
      </trkpt>
      <trkpt lat="47.16515" lon="-1.48754">
        <ele>65</ele>
        <time>2021-04-24T09:45:36.000Z</time>
      </trkpt>
      <trkpt lat="47.1652" lon="-1.48735">
        <ele>65</ele>
        <time>2021-04-24T09:45:38.000Z</time>
      </trkpt>
      <trkpt lat="47.16524" lon="-1.48716">
        <ele>65</ele>
        <time>2021-04-24T09:45:40.000Z</time>
      </trkpt>
      <trkpt lat="47.16527" lon="-1.48697">
        <ele>65</ele>
        <time>2021-04-24T09:45:42.000Z</time>
      </trkpt>
      <trkpt lat="47.1653" lon="-1.48679">
        <ele>64</ele>
        <time>2021-04-24T09:45:44.000Z</time>
      </trkpt>
      <trkpt lat="47.16533" lon="-1.48659">
        <ele>64</ele>
        <time>2021-04-24T09:45:46.000Z</time>
      </trkpt>
      <trkpt lat="47.16535" lon="-1.48638">
        <ele>65</ele>
        <time>2021-04-24T09:45:48.000Z</time>
      </trkpt>
      <trkpt lat="47.16537" lon="-1.48619">
        <ele>65</ele>
        <time>2021-04-24T09:45:50.000Z</time>
      </trkpt>
      <trkpt lat="47.1654" lon="-1.48597">
        <ele>64</ele>
        <time>2021-04-24T09:45:52.000Z</time>
      </trkpt>
      <trkpt lat="47.16542" lon="-1.48576">
        <ele>63</ele>
        <time>2021-04-24T09:45:54.000Z</time>
      </trkpt>
      <trkpt lat="47.16542" lon="-1.48554">
        <ele>62</ele>
        <time>2021-04-24T09:45:56.000Z</time>
      </trkpt>
      <trkpt lat="47.1654" lon="-1.48533">
        <ele>62</ele>
        <time>2021-04-24T09:45:58.000Z</time>
      </trkpt>
      <trkpt lat="47.16537" lon="-1.48513">
        <ele>61</ele>
        <time>2021-04-24T09:46:00.000Z</time>
      </trkpt>
      <trkpt lat="47.16533" lon="-1.48494">
        <ele>61</ele>
        <time>2021-04-24T09:46:02.000Z</time>
      </trkpt>
      <trkpt lat="47.16531" lon="-1.48474">
        <ele>61</ele>
        <time>2021-04-24T09:46:04.000Z</time>
      </trkpt>
      <trkpt lat="47.16529" lon="-1.48455">
        <ele>61</ele>
        <time>2021-04-24T09:46:06.000Z</time>
      </trkpt>
      <trkpt lat="47.16527" lon="-1.48437">
        <ele>61</ele>
        <time>2021-04-24T09:46:08.000Z</time>
      </trkpt>
      <trkpt lat="47.16524" lon="-1.48418">
        <ele>61</ele>
        <time>2021-04-24T09:46:10.000Z</time>
      </trkpt>
      <trkpt lat="47.16521" lon="-1.48401">
        <ele>61</ele>
        <time>2021-04-24T09:46:12.000Z</time>
      </trkpt>
      <trkpt lat="47.16517" lon="-1.48387">
        <ele>60</ele>
        <time>2021-04-24T09:46:14.000Z</time>
      </trkpt>
      <trkpt lat="47.16512" lon="-1.48376">
        <ele>59</ele>
        <time>2021-04-24T09:46:16.000Z</time>
      </trkpt>
      <trkpt lat="47.1651" lon="-1.48359">
        <ele>59</ele>
        <time>2021-04-24T09:46:20.000Z</time>
      </trkpt>
      <trkpt lat="47.16509" lon="-1.48345">
        <ele>58</ele>
        <time>2021-04-24T09:46:22.000Z</time>
      </trkpt>
      <trkpt lat="47.16511" lon="-1.48328">
        <ele>58</ele>
        <time>2021-04-24T09:46:24.000Z</time>
      </trkpt>
      <trkpt lat="47.16515" lon="-1.4831">
        <ele>58</ele>
        <time>2021-04-24T09:46:26.000Z</time>
      </trkpt>
      <trkpt lat="47.16517" lon="-1.48293">
        <ele>58</ele>
        <time>2021-04-24T09:46:28.000Z</time>
      </trkpt>
      <trkpt lat="47.1652" lon="-1.48275">
        <ele>59</ele>
        <time>2021-04-24T09:46:30.000Z</time>
      </trkpt>
      <trkpt lat="47.16521" lon="-1.48258">
        <ele>58</ele>
        <time>2021-04-24T09:46:32.000Z</time>
      </trkpt>
      <trkpt lat="47.1652" lon="-1.48241">
        <ele>58</ele>
        <time>2021-04-24T09:46:34.000Z</time>
      </trkpt>
      <trkpt lat="47.16517" lon="-1.48225">
        <ele>58</ele>
        <time>2021-04-24T09:46:36.000Z</time>
      </trkpt>
      <trkpt lat="47.16512" lon="-1.48208">
        <ele>58</ele>
        <time>2021-04-24T09:46:38.000Z</time>
      </trkpt>
      <trkpt lat="47.16508" lon="-1.4819">
        <ele>58</ele>
        <time>2021-04-24T09:46:40.000Z</time>
      </trkpt>
      <trkpt lat="47.16504" lon="-1.48173">
        <ele>58</ele>
        <time>2021-04-24T09:46:42.000Z</time>
      </trkpt>
      <trkpt lat="47.16499" lon="-1.48155">
        <ele>58</ele>
        <time>2021-04-24T09:46:44.000Z</time>
      </trkpt>
      <trkpt lat="47.16494" lon="-1.48138">
        <ele>58</ele>
        <time>2021-04-24T09:46:46.000Z</time>
      </trkpt>
      <trkpt lat="47.16489" lon="-1.48119">
        <ele>58</ele>
        <time>2021-04-24T09:46:48.000Z</time>
      </trkpt>
      <trkpt lat="47.16484" lon="-1.48098">
        <ele>58</ele>
        <time>2021-04-24T09:46:50.000Z</time>
      </trkpt>
      <trkpt lat="47.16477" lon="-1.48077">
        <ele>57</ele>
        <time>2021-04-24T09:46:52.000Z</time>
      </trkpt>
      <trkpt lat="47.16471" lon="-1.48055">
        <ele>57</ele>
        <time>2021-04-24T09:46:54.000Z</time>
      </trkpt>
      <trkpt lat="47.16466" lon="-1.48034">
        <ele>57</ele>
        <time>2021-04-24T09:46:56.000Z</time>
      </trkpt>
      <trkpt lat="47.16462" lon="-1.48013">
        <ele>56</ele>
        <time>2021-04-24T09:46:58.000Z</time>
      </trkpt>
      <trkpt lat="47.16457" lon="-1.47993">
        <ele>55</ele>
        <time>2021-04-24T09:47:00.000Z</time>
      </trkpt>
      <trkpt lat="47.16452" lon="-1.47971">
        <ele>55</ele>
        <time>2021-04-24T09:47:02.000Z</time>
      </trkpt>
      <trkpt lat="47.16447" lon="-1.4795">
        <ele>55</ele>
        <time>2021-04-24T09:47:04.000Z</time>
      </trkpt>
      <trkpt lat="47.16442" lon="-1.47928">
        <ele>55</ele>
        <time>2021-04-24T09:47:06.000Z</time>
      </trkpt>
      <trkpt lat="47.16438" lon="-1.47906">
        <ele>55</ele>
        <time>2021-04-24T09:47:08.000Z</time>
      </trkpt>
      <trkpt lat="47.16434" lon="-1.47885">
        <ele>56</ele>
        <time>2021-04-24T09:47:10.000Z</time>
      </trkpt>
      <trkpt lat="47.16428" lon="-1.47864">
        <ele>56</ele>
        <time>2021-04-24T09:47:12.000Z</time>
      </trkpt>
      <trkpt lat="47.16424" lon="-1.47843">
        <ele>57</ele>
        <time>2021-04-24T09:47:14.000Z</time>
      </trkpt>
      <trkpt lat="47.1642" lon="-1.47823">
        <ele>57</ele>
        <time>2021-04-24T09:47:16.000Z</time>
      </trkpt>
      <trkpt lat="47.16415" lon="-1.47802">
        <ele>57</ele>
        <time>2021-04-24T09:47:18.000Z</time>
      </trkpt>
      <trkpt lat="47.16411" lon="-1.4778">
        <ele>57</ele>
        <time>2021-04-24T09:47:20.000Z</time>
      </trkpt>
      <trkpt lat="47.16407" lon="-1.4776">
        <ele>57</ele>
        <time>2021-04-24T09:47:22.000Z</time>
      </trkpt>
      <trkpt lat="47.16403" lon="-1.47739">
        <ele>57</ele>
        <time>2021-04-24T09:47:24.000Z</time>
      </trkpt>
      <trkpt lat="47.16398" lon="-1.47719">
        <ele>57</ele>
        <time>2021-04-24T09:47:26.000Z</time>
      </trkpt>
      <trkpt lat="47.16393" lon="-1.47699">
        <ele>57</ele>
        <time>2021-04-24T09:47:28.000Z</time>
      </trkpt>
      <trkpt lat="47.16388" lon="-1.47679">
        <ele>57</ele>
        <time>2021-04-24T09:47:30.000Z</time>
      </trkpt>
      <trkpt lat="47.16384" lon="-1.47659">
        <ele>58</ele>
        <time>2021-04-24T09:47:32.000Z</time>
      </trkpt>
      <trkpt lat="47.16379" lon="-1.47638">
        <ele>58</ele>
        <time>2021-04-24T09:47:34.000Z</time>
      </trkpt>
      <trkpt lat="47.16375" lon="-1.47617">
        <ele>58</ele>
        <time>2021-04-24T09:47:36.000Z</time>
      </trkpt>
      <trkpt lat="47.1637" lon="-1.47597">
        <ele>58</ele>
        <time>2021-04-24T09:47:38.000Z</time>
      </trkpt>
      <trkpt lat="47.16366" lon="-1.47576">
        <ele>58</ele>
        <time>2021-04-24T09:47:40.000Z</time>
      </trkpt>
      <trkpt lat="47.16363" lon="-1.47557">
        <ele>59</ele>
        <time>2021-04-24T09:47:42.000Z</time>
      </trkpt>
      <trkpt lat="47.16359" lon="-1.47538">
        <ele>59</ele>
        <time>2021-04-24T09:47:44.000Z</time>
      </trkpt>
      <trkpt lat="47.16355" lon="-1.47519">
        <ele>59</ele>
        <time>2021-04-24T09:47:46.000Z</time>
      </trkpt>
      <trkpt lat="47.16351" lon="-1.47501">
        <ele>59</ele>
        <time>2021-04-24T09:47:48.000Z</time>
      </trkpt>
      <trkpt lat="47.16346" lon="-1.47481">
        <ele>60</ele>
        <time>2021-04-24T09:47:50.000Z</time>
      </trkpt>
      <trkpt lat="47.16341" lon="-1.47463">
        <ele>60</ele>
        <time>2021-04-24T09:47:52.000Z</time>
      </trkpt>
      <trkpt lat="47.16337" lon="-1.47445">
        <ele>60</ele>
        <time>2021-04-24T09:47:54.000Z</time>
      </trkpt>
      <trkpt lat="47.16333" lon="-1.47427">
        <ele>60</ele>
        <time>2021-04-24T09:47:56.000Z</time>
      </trkpt>
      <trkpt lat="47.16329" lon="-1.47409">
        <ele>60</ele>
        <time>2021-04-24T09:47:58.000Z</time>
      </trkpt>
      <trkpt lat="47.16325" lon="-1.47392">
        <ele>60</ele>
        <time>2021-04-24T09:48:00.000Z</time>
      </trkpt>
      <trkpt lat="47.16323" lon="-1.47374">
        <ele>61</ele>
        <time>2021-04-24T09:48:02.000Z</time>
      </trkpt>
      <trkpt lat="47.1632" lon="-1.47356">
        <ele>61</ele>
        <time>2021-04-24T09:48:04.000Z</time>
      </trkpt>
      <trkpt lat="47.16317" lon="-1.47338">
        <ele>61</ele>
        <time>2021-04-24T09:48:06.000Z</time>
      </trkpt>
      <trkpt lat="47.16319" lon="-1.4732">
        <ele>61</ele>
        <time>2021-04-24T09:48:08.000Z</time>
      </trkpt>
      <trkpt lat="47.16319" lon="-1.47301">
        <ele>61</ele>
        <time>2021-04-24T09:48:10.000Z</time>
      </trkpt>
      <trkpt lat="47.16314" lon="-1.47285">
        <ele>61</ele>
        <time>2021-04-24T09:48:12.000Z</time>
      </trkpt>
      <trkpt lat="47.16308" lon="-1.4727">
        <ele>61</ele>
        <time>2021-04-24T09:48:14.000Z</time>
      </trkpt>
      <trkpt lat="47.16303" lon="-1.47254">
        <ele>61</ele>
        <time>2021-04-24T09:48:16.000Z</time>
      </trkpt>
      <trkpt lat="47.16298" lon="-1.47238">
        <ele>62</ele>
        <time>2021-04-24T09:48:18.000Z</time>
      </trkpt>
      <trkpt lat="47.16293" lon="-1.47222">
        <ele>62</ele>
        <time>2021-04-24T09:48:20.000Z</time>
      </trkpt>
      <trkpt lat="47.16288" lon="-1.47206">
        <ele>63</ele>
        <time>2021-04-24T09:48:22.000Z</time>
      </trkpt>
      <trkpt lat="47.16283" lon="-1.47191">
        <ele>64</ele>
        <time>2021-04-24T09:48:24.000Z</time>
      </trkpt>
      <trkpt lat="47.16279" lon="-1.47175">
        <ele>64</ele>
        <time>2021-04-24T09:48:26.000Z</time>
      </trkpt>
      <trkpt lat="47.16275" lon="-1.47159">
        <ele>65</ele>
        <time>2021-04-24T09:48:28.000Z</time>
      </trkpt>
      <trkpt lat="47.16271" lon="-1.47143">
        <ele>65</ele>
        <time>2021-04-24T09:48:30.000Z</time>
      </trkpt>
      <trkpt lat="47.16268" lon="-1.47126">
        <ele>65</ele>
        <time>2021-04-24T09:48:32.000Z</time>
      </trkpt>
      <trkpt lat="47.16265" lon="-1.47109">
        <ele>66</ele>
        <time>2021-04-24T09:48:34.000Z</time>
      </trkpt>
      <trkpt lat="47.16262" lon="-1.47093">
        <ele>67</ele>
        <time>2021-04-24T09:48:36.000Z</time>
      </trkpt>
      <trkpt lat="47.1626" lon="-1.47076">
        <ele>67</ele>
        <time>2021-04-24T09:48:38.000Z</time>
      </trkpt>
      <trkpt lat="47.16258" lon="-1.47059">
        <ele>67</ele>
        <time>2021-04-24T09:48:40.000Z</time>
      </trkpt>
      <trkpt lat="47.16257" lon="-1.47042">
        <ele>68</ele>
        <time>2021-04-24T09:48:42.000Z</time>
      </trkpt>
      <trkpt lat="47.16256" lon="-1.47025">
        <ele>68</ele>
        <time>2021-04-24T09:48:44.000Z</time>
      </trkpt>
      <trkpt lat="47.16255" lon="-1.47008">
        <ele>68</ele>
        <time>2021-04-24T09:48:46.000Z</time>
      </trkpt>
      <trkpt lat="47.16255" lon="-1.46991">
        <ele>69</ele>
        <time>2021-04-24T09:48:48.000Z</time>
      </trkpt>
      <trkpt lat="47.16254" lon="-1.46974">
        <ele>70</ele>
        <time>2021-04-24T09:48:50.000Z</time>
      </trkpt>
      <trkpt lat="47.16255" lon="-1.46957">
        <ele>69</ele>
        <time>2021-04-24T09:48:52.000Z</time>
      </trkpt>
      <trkpt lat="47.16255" lon="-1.46941">
        <ele>69</ele>
        <time>2021-04-24T09:48:54.000Z</time>
      </trkpt>
      <trkpt lat="47.16257" lon="-1.46925">
        <ele>69</ele>
        <time>2021-04-24T09:48:56.000Z</time>
      </trkpt>
      <trkpt lat="47.16257" lon="-1.4691">
        <ele>69</ele>
        <time>2021-04-24T09:48:58.000Z</time>
      </trkpt>
      <trkpt lat="47.16258" lon="-1.46893">
        <ele>70</ele>
        <time>2021-04-24T09:49:00.000Z</time>
      </trkpt>
      <trkpt lat="47.16258" lon="-1.46876">
        <ele>71</ele>
        <time>2021-04-24T09:49:02.000Z</time>
      </trkpt>
      <trkpt lat="47.16258" lon="-1.4686">
        <ele>72</ele>
        <time>2021-04-24T09:49:04.000Z</time>
      </trkpt>
      <trkpt lat="47.16259" lon="-1.46846">
        <ele>73</ele>
        <time>2021-04-24T09:49:06.000Z</time>
      </trkpt>
      <trkpt lat="47.16255" lon="-1.46834">
        <ele>73</ele>
        <time>2021-04-24T09:49:10.000Z</time>
      </trkpt>
      <trkpt lat="47.16254" lon="-1.46816">
        <ele>73</ele>
        <time>2021-04-24T09:49:13.000Z</time>
      </trkpt>
      <trkpt lat="47.16257" lon="-1.468">
        <ele>73</ele>
        <time>2021-04-24T09:49:15.000Z</time>
      </trkpt>
      <trkpt lat="47.16262" lon="-1.46785">
        <ele>74</ele>
        <time>2021-04-24T09:49:17.000Z</time>
      </trkpt>
      <trkpt lat="47.16266" lon="-1.46769">
        <ele>74</ele>
        <time>2021-04-24T09:49:19.000Z</time>
      </trkpt>
      <trkpt lat="47.16268" lon="-1.46753">
        <ele>75</ele>
        <time>2021-04-24T09:49:21.000Z</time>
      </trkpt>
      <trkpt lat="47.16269" lon="-1.46737">
        <ele>76</ele>
        <time>2021-04-24T09:49:23.000Z</time>
      </trkpt>
      <trkpt lat="47.16271" lon="-1.46722">
        <ele>76</ele>
        <time>2021-04-24T09:49:25.000Z</time>
      </trkpt>
      <trkpt lat="47.16273" lon="-1.46707">
        <ele>76</ele>
        <time>2021-04-24T09:49:27.000Z</time>
      </trkpt>
      <trkpt lat="47.16275" lon="-1.46692">
        <ele>76</ele>
        <time>2021-04-24T09:49:29.000Z</time>
      </trkpt>
      <trkpt lat="47.16276" lon="-1.46677">
        <ele>76</ele>
        <time>2021-04-24T09:49:31.000Z</time>
      </trkpt>
      <trkpt lat="47.16278" lon="-1.46662">
        <ele>76</ele>
        <time>2021-04-24T09:49:33.000Z</time>
      </trkpt>
      <trkpt lat="47.1628" lon="-1.46647">
        <ele>76</ele>
        <time>2021-04-24T09:49:35.000Z</time>
      </trkpt>
      <trkpt lat="47.1628" lon="-1.46633">
        <ele>77</ele>
        <time>2021-04-24T09:49:37.000Z</time>
      </trkpt>
      <trkpt lat="47.16281" lon="-1.46618">
        <ele>78</ele>
        <time>2021-04-24T09:49:39.000Z</time>
      </trkpt>
      <trkpt lat="47.16283" lon="-1.46602">
        <ele>78</ele>
        <time>2021-04-24T09:49:41.000Z</time>
      </trkpt>
      <trkpt lat="47.16284" lon="-1.46588">
        <ele>79</ele>
        <time>2021-04-24T09:49:43.000Z</time>
      </trkpt>
      <trkpt lat="47.16286" lon="-1.46572">
        <ele>80</ele>
        <time>2021-04-24T09:49:45.000Z</time>
      </trkpt>
      <trkpt lat="47.16288" lon="-1.46557">
        <ele>80</ele>
        <time>2021-04-24T09:49:47.000Z</time>
      </trkpt>
      <trkpt lat="47.16289" lon="-1.46542">
        <ele>81</ele>
        <time>2021-04-24T09:49:49.000Z</time>
      </trkpt>
      <trkpt lat="47.1629" lon="-1.46527">
        <ele>81</ele>
        <time>2021-04-24T09:49:51.000Z</time>
      </trkpt>
      <trkpt lat="47.16292" lon="-1.46512">
        <ele>82</ele>
        <time>2021-04-24T09:49:53.000Z</time>
      </trkpt>
      <trkpt lat="47.16294" lon="-1.46496">
        <ele>82</ele>
        <time>2021-04-24T09:49:55.000Z</time>
      </trkpt>
      <trkpt lat="47.16296" lon="-1.4648">
        <ele>82</ele>
        <time>2021-04-24T09:49:57.000Z</time>
      </trkpt>
      <trkpt lat="47.16299" lon="-1.46465">
        <ele>83</ele>
        <time>2021-04-24T09:49:59.000Z</time>
      </trkpt>
      <trkpt lat="47.16301" lon="-1.46449">
        <ele>83</ele>
        <time>2021-04-24T09:50:01.000Z</time>
      </trkpt>
      <trkpt lat="47.16304" lon="-1.46435">
        <ele>83</ele>
        <time>2021-04-24T09:50:03.000Z</time>
      </trkpt>
      <trkpt lat="47.16307" lon="-1.4642">
        <ele>83</ele>
        <time>2021-04-24T09:50:05.000Z</time>
      </trkpt>
      <trkpt lat="47.16311" lon="-1.46405">
        <ele>83</ele>
        <time>2021-04-24T09:50:07.000Z</time>
      </trkpt>
      <trkpt lat="47.16314" lon="-1.46391">
        <ele>83</ele>
        <time>2021-04-24T09:50:09.000Z</time>
      </trkpt>
      <trkpt lat="47.16317" lon="-1.46377">
        <ele>83</ele>
        <time>2021-04-24T09:50:11.000Z</time>
      </trkpt>
      <trkpt lat="47.16322" lon="-1.46362">
        <ele>84</ele>
        <time>2021-04-24T09:50:13.000Z</time>
      </trkpt>
      <trkpt lat="47.16327" lon="-1.46348">
        <ele>83</ele>
        <time>2021-04-24T09:50:15.000Z</time>
      </trkpt>
      <trkpt lat="47.16332" lon="-1.46334">
        <ele>83</ele>
        <time>2021-04-24T09:50:17.000Z</time>
      </trkpt>
      <trkpt lat="47.16337" lon="-1.4632">
        <ele>83</ele>
        <time>2021-04-24T09:50:19.000Z</time>
      </trkpt>
      <trkpt lat="47.16344" lon="-1.46306">
        <ele>83</ele>
        <time>2021-04-24T09:50:21.000Z</time>
      </trkpt>
      <trkpt lat="47.16349" lon="-1.46292">
        <ele>84</ele>
        <time>2021-04-24T09:50:23.000Z</time>
      </trkpt>
      <trkpt lat="47.16356" lon="-1.4628">
        <ele>84</ele>
        <time>2021-04-24T09:50:25.000Z</time>
      </trkpt>
      <trkpt lat="47.16362" lon="-1.46267">
        <ele>85</ele>
        <time>2021-04-24T09:50:27.000Z</time>
      </trkpt>
      <trkpt lat="47.16369" lon="-1.46255">
        <ele>84</ele>
        <time>2021-04-24T09:50:29.000Z</time>
      </trkpt>
      <trkpt lat="47.16376" lon="-1.46244">
        <ele>84</ele>
        <time>2021-04-24T09:50:31.000Z</time>
      </trkpt>
      <trkpt lat="47.16384" lon="-1.46232">
        <ele>84</ele>
        <time>2021-04-24T09:50:33.000Z</time>
      </trkpt>
      <trkpt lat="47.16392" lon="-1.46221">
        <ele>84</ele>
        <time>2021-04-24T09:50:35.000Z</time>
      </trkpt>
      <trkpt lat="47.164" lon="-1.4621">
        <ele>84</ele>
        <time>2021-04-24T09:50:37.000Z</time>
      </trkpt>
      <trkpt lat="47.16408" lon="-1.462">
        <ele>84</ele>
        <time>2021-04-24T09:50:39.000Z</time>
      </trkpt>
      <trkpt lat="47.16417" lon="-1.4619">
        <ele>84</ele>
        <time>2021-04-24T09:50:41.000Z</time>
      </trkpt>
      <trkpt lat="47.16425" lon="-1.4618">
        <ele>84</ele>
        <time>2021-04-24T09:50:43.000Z</time>
      </trkpt>
      <trkpt lat="47.16434" lon="-1.46169">
        <ele>84</ele>
        <time>2021-04-24T09:50:45.000Z</time>
      </trkpt>
      <trkpt lat="47.16442" lon="-1.46159">
        <ele>84</ele>
        <time>2021-04-24T09:50:47.000Z</time>
      </trkpt>
      <trkpt lat="47.1645" lon="-1.46149">
        <ele>84</ele>
        <time>2021-04-24T09:50:49.000Z</time>
      </trkpt>
      <trkpt lat="47.16459" lon="-1.4614">
        <ele>84</ele>
        <time>2021-04-24T09:50:51.000Z</time>
      </trkpt>
      <trkpt lat="47.16467" lon="-1.46129">
        <ele>84</ele>
        <time>2021-04-24T09:50:53.000Z</time>
      </trkpt>
      <trkpt lat="47.16476" lon="-1.46118">
        <ele>84</ele>
        <time>2021-04-24T09:50:55.000Z</time>
      </trkpt>
      <trkpt lat="47.16485" lon="-1.46107">
        <ele>85</ele>
        <time>2021-04-24T09:50:57.000Z</time>
      </trkpt>
      <trkpt lat="47.16494" lon="-1.46095">
        <ele>85</ele>
        <time>2021-04-24T09:50:59.000Z</time>
      </trkpt>
      <trkpt lat="47.16501" lon="-1.46084">
        <ele>85</ele>
        <time>2021-04-24T09:51:01.000Z</time>
      </trkpt>
      <trkpt lat="47.16506" lon="-1.46069">
        <ele>85</ele>
        <time>2021-04-24T09:51:03.000Z</time>
      </trkpt>
      <trkpt lat="47.16508" lon="-1.46052">
        <ele>85</ele>
        <time>2021-04-24T09:51:05.000Z</time>
      </trkpt>
      <trkpt lat="47.1651" lon="-1.46036">
        <ele>84</ele>
        <time>2021-04-24T09:51:07.000Z</time>
      </trkpt>
      <trkpt lat="47.16507" lon="-1.46018">
        <ele>84</ele>
        <time>2021-04-24T09:51:09.000Z</time>
      </trkpt>
      <trkpt lat="47.16502" lon="-1.46001">
        <ele>84</ele>
        <time>2021-04-24T09:51:11.000Z</time>
      </trkpt>
      <trkpt lat="47.16498" lon="-1.45985">
        <ele>83</ele>
        <time>2021-04-24T09:51:13.000Z</time>
      </trkpt>
      <trkpt lat="47.16493" lon="-1.45967">
        <ele>83</ele>
        <time>2021-04-24T09:51:15.000Z</time>
      </trkpt>
      <trkpt lat="47.16488" lon="-1.45949">
        <ele>83</ele>
        <time>2021-04-24T09:51:17.000Z</time>
      </trkpt>
      <trkpt lat="47.16483" lon="-1.4593">
        <ele>82</ele>
        <time>2021-04-24T09:51:19.000Z</time>
      </trkpt>
      <trkpt lat="47.16477" lon="-1.45912">
        <ele>82</ele>
        <time>2021-04-24T09:51:21.000Z</time>
      </trkpt>
      <trkpt lat="47.16471" lon="-1.45894">
        <ele>82</ele>
        <time>2021-04-24T09:51:23.000Z</time>
      </trkpt>
      <trkpt lat="47.16466" lon="-1.45875">
        <ele>81</ele>
        <time>2021-04-24T09:51:25.000Z</time>
      </trkpt>
      <trkpt lat="47.16461" lon="-1.45856">
        <ele>81</ele>
        <time>2021-04-24T09:51:27.000Z</time>
      </trkpt>
      <trkpt lat="47.16456" lon="-1.45837">
        <ele>80</ele>
        <time>2021-04-24T09:51:29.000Z</time>
      </trkpt>
      <trkpt lat="47.16451" lon="-1.45818">
        <ele>79</ele>
        <time>2021-04-24T09:51:31.000Z</time>
      </trkpt>
      <trkpt lat="47.16446" lon="-1.45799">
        <ele>79</ele>
        <time>2021-04-24T09:51:33.000Z</time>
      </trkpt>
      <trkpt lat="47.16441" lon="-1.4578">
        <ele>79</ele>
        <time>2021-04-24T09:51:35.000Z</time>
      </trkpt>
      <trkpt lat="47.16437" lon="-1.45761">
        <ele>79</ele>
        <time>2021-04-24T09:51:37.000Z</time>
      </trkpt>
      <trkpt lat="47.16432" lon="-1.45743">
        <ele>78</ele>
        <time>2021-04-24T09:51:39.000Z</time>
      </trkpt>
      <trkpt lat="47.16428" lon="-1.45724">
        <ele>78</ele>
        <time>2021-04-24T09:51:41.000Z</time>
      </trkpt>
      <trkpt lat="47.16424" lon="-1.45706">
        <ele>79</ele>
        <time>2021-04-24T09:51:43.000Z</time>
      </trkpt>
      <trkpt lat="47.16419" lon="-1.45687">
        <ele>79</ele>
        <time>2021-04-24T09:51:45.000Z</time>
      </trkpt>
      <trkpt lat="47.16414" lon="-1.45667">
        <ele>78</ele>
        <time>2021-04-24T09:51:47.000Z</time>
      </trkpt>
      <trkpt lat="47.16409" lon="-1.45648">
        <ele>78</ele>
        <time>2021-04-24T09:51:49.000Z</time>
      </trkpt>
      <trkpt lat="47.16403" lon="-1.4563">
        <ele>78</ele>
        <time>2021-04-24T09:51:51.000Z</time>
      </trkpt>
      <trkpt lat="47.16397" lon="-1.45612">
        <ele>78</ele>
        <time>2021-04-24T09:51:53.000Z</time>
      </trkpt>
      <trkpt lat="47.1639" lon="-1.45596">
        <ele>78</ele>
        <time>2021-04-24T09:51:55.000Z</time>
      </trkpt>
      <trkpt lat="47.16382" lon="-1.4558">
        <ele>78</ele>
        <time>2021-04-24T09:51:57.000Z</time>
      </trkpt>
      <trkpt lat="47.16374" lon="-1.45565">
        <ele>78</ele>
        <time>2021-04-24T09:51:59.000Z</time>
      </trkpt>
      <trkpt lat="47.16366" lon="-1.4555">
        <ele>78</ele>
        <time>2021-04-24T09:52:01.000Z</time>
      </trkpt>
      <trkpt lat="47.16358" lon="-1.45536">
        <ele>78</ele>
        <time>2021-04-24T09:52:03.000Z</time>
      </trkpt>
      <trkpt lat="47.16349" lon="-1.45521">
        <ele>78</ele>
        <time>2021-04-24T09:52:05.000Z</time>
      </trkpt>
      <trkpt lat="47.16342" lon="-1.45507">
        <ele>78</ele>
        <time>2021-04-24T09:52:07.000Z</time>
      </trkpt>
      <trkpt lat="47.16335" lon="-1.45493">
        <ele>78</ele>
        <time>2021-04-24T09:52:09.000Z</time>
      </trkpt>
      <trkpt lat="47.16327" lon="-1.4548">
        <ele>78</ele>
        <time>2021-04-24T09:52:11.000Z</time>
      </trkpt>
      <trkpt lat="47.1632" lon="-1.45466">
        <ele>78</ele>
        <time>2021-04-24T09:52:13.000Z</time>
      </trkpt>
      <trkpt lat="47.16312" lon="-1.45451">
        <ele>78</ele>
        <time>2021-04-24T09:52:15.000Z</time>
      </trkpt>
      <trkpt lat="47.16305" lon="-1.45437">
        <ele>79</ele>
        <time>2021-04-24T09:52:17.000Z</time>
      </trkpt>
      <trkpt lat="47.16299" lon="-1.45422">
        <ele>79</ele>
        <time>2021-04-24T09:52:19.000Z</time>
      </trkpt>
      <trkpt lat="47.16295" lon="-1.45407">
        <ele>79</ele>
        <time>2021-04-24T09:52:21.000Z</time>
      </trkpt>
      <trkpt lat="47.16292" lon="-1.4539">
        <ele>81</ele>
        <time>2021-04-24T09:52:23.000Z</time>
      </trkpt>
      <trkpt lat="47.1629" lon="-1.45374">
        <ele>81</ele>
        <time>2021-04-24T09:52:25.000Z</time>
      </trkpt>
      <trkpt lat="47.16288" lon="-1.45357">
        <ele>81</ele>
        <time>2021-04-24T09:52:27.000Z</time>
      </trkpt>
      <trkpt lat="47.16285" lon="-1.45342">
        <ele>82</ele>
        <time>2021-04-24T09:52:29.000Z</time>
      </trkpt>
      <trkpt lat="47.16282" lon="-1.45327">
        <ele>82</ele>
        <time>2021-04-24T09:52:31.000Z</time>
      </trkpt>
      <trkpt lat="47.16277" lon="-1.45312">
        <ele>83</ele>
        <time>2021-04-24T09:52:33.000Z</time>
      </trkpt>
      <trkpt lat="47.16273" lon="-1.45299">
        <ele>82</ele>
        <time>2021-04-24T09:52:35.000Z</time>
      </trkpt>
      <trkpt lat="47.16268" lon="-1.45285">
        <ele>82</ele>
        <time>2021-04-24T09:52:37.000Z</time>
      </trkpt>
      <trkpt lat="47.16263" lon="-1.45271">
        <ele>83</ele>
        <time>2021-04-24T09:52:39.000Z</time>
      </trkpt>
      <trkpt lat="47.1626" lon="-1.45256">
        <ele>83</ele>
        <time>2021-04-24T09:52:41.000Z</time>
      </trkpt>
      <trkpt lat="47.16255" lon="-1.45242">
        <ele>84</ele>
        <time>2021-04-24T09:52:43.000Z</time>
      </trkpt>
      <trkpt lat="47.1625" lon="-1.45228">
        <ele>85</ele>
        <time>2021-04-24T09:52:45.000Z</time>
      </trkpt>
      <trkpt lat="47.16247" lon="-1.45212">
        <ele>85</ele>
        <time>2021-04-24T09:52:47.000Z</time>
      </trkpt>
      <trkpt lat="47.16251" lon="-1.45195">
        <ele>85</ele>
        <time>2021-04-24T09:52:49.000Z</time>
      </trkpt>
      <trkpt lat="47.16251" lon="-1.45179">
        <ele>86</ele>
        <time>2021-04-24T09:52:51.000Z</time>
      </trkpt>
      <trkpt lat="47.1625" lon="-1.45162">
        <ele>87</ele>
        <time>2021-04-24T09:52:53.000Z</time>
      </trkpt>
      <trkpt lat="47.1625" lon="-1.45144">
        <ele>87</ele>
        <time>2021-04-24T09:52:55.000Z</time>
      </trkpt>
      <trkpt lat="47.1625" lon="-1.45127">
        <ele>87</ele>
        <time>2021-04-24T09:52:57.000Z</time>
      </trkpt>
      <trkpt lat="47.16249" lon="-1.4511">
        <ele>87</ele>
        <time>2021-04-24T09:52:59.000Z</time>
      </trkpt>
      <trkpt lat="47.16249" lon="-1.45093">
        <ele>87</ele>
        <time>2021-04-24T09:53:01.000Z</time>
      </trkpt>
      <trkpt lat="47.16248" lon="-1.45075">
        <ele>86</ele>
        <time>2021-04-24T09:53:03.000Z</time>
      </trkpt>
      <trkpt lat="47.16248" lon="-1.45057">
        <ele>86</ele>
        <time>2021-04-24T09:53:05.000Z</time>
      </trkpt>
      <trkpt lat="47.16247" lon="-1.4504">
        <ele>86</ele>
        <time>2021-04-24T09:53:07.000Z</time>
      </trkpt>
      <trkpt lat="47.16247" lon="-1.45022">
        <ele>86</ele>
        <time>2021-04-24T09:53:09.000Z</time>
      </trkpt>
      <trkpt lat="47.16246" lon="-1.45004">
        <ele>85</ele>
        <time>2021-04-24T09:53:11.000Z</time>
      </trkpt>
      <trkpt lat="47.16245" lon="-1.44986">
        <ele>85</ele>
        <time>2021-04-24T09:53:13.000Z</time>
      </trkpt>
      <trkpt lat="47.16245" lon="-1.44968">
        <ele>85</ele>
        <time>2021-04-24T09:53:15.000Z</time>
      </trkpt>
      <trkpt lat="47.16244" lon="-1.4495">
        <ele>84</ele>
        <time>2021-04-24T09:53:17.000Z</time>
      </trkpt>
      <trkpt lat="47.16244" lon="-1.44931">
        <ele>84</ele>
        <time>2021-04-24T09:53:19.000Z</time>
      </trkpt>
      <trkpt lat="47.16244" lon="-1.44913">
        <ele>84</ele>
        <time>2021-04-24T09:53:21.000Z</time>
      </trkpt>
      <trkpt lat="47.16244" lon="-1.44895">
        <ele>85</ele>
        <time>2021-04-24T09:53:23.000Z</time>
      </trkpt>
      <trkpt lat="47.16243" lon="-1.44874">
        <ele>85</ele>
        <time>2021-04-24T09:53:25.000Z</time>
      </trkpt>
      <trkpt lat="47.16242" lon="-1.44854">
        <ele>85</ele>
        <time>2021-04-24T09:53:27.000Z</time>
      </trkpt>
      <trkpt lat="47.16242" lon="-1.44835">
        <ele>85</ele>
        <time>2021-04-24T09:53:29.000Z</time>
      </trkpt>
      <trkpt lat="47.16241" lon="-1.44815">
        <ele>86</ele>
        <time>2021-04-24T09:53:31.000Z</time>
      </trkpt>
      <trkpt lat="47.1624" lon="-1.44797">
        <ele>85</ele>
        <time>2021-04-24T09:53:33.000Z</time>
      </trkpt>
      <trkpt lat="47.16239" lon="-1.44777">
        <ele>85</ele>
        <time>2021-04-24T09:53:35.000Z</time>
      </trkpt>
      <trkpt lat="47.16239" lon="-1.44759">
        <ele>85</ele>
        <time>2021-04-24T09:53:37.000Z</time>
      </trkpt>
      <trkpt lat="47.16239" lon="-1.44741">
        <ele>85</ele>
        <time>2021-04-24T09:53:39.000Z</time>
      </trkpt>
      <trkpt lat="47.16238" lon="-1.44723">
        <ele>85</ele>
        <time>2021-04-24T09:53:41.000Z</time>
      </trkpt>
      <trkpt lat="47.16238" lon="-1.44705">
        <ele>85</ele>
        <time>2021-04-24T09:53:43.000Z</time>
      </trkpt>
      <trkpt lat="47.16237" lon="-1.44688">
        <ele>85</ele>
        <time>2021-04-24T09:53:45.000Z</time>
      </trkpt>
      <trkpt lat="47.16237" lon="-1.44669">
        <ele>85</ele>
        <time>2021-04-24T09:53:47.000Z</time>
      </trkpt>
      <trkpt lat="47.16236" lon="-1.44651">
        <ele>85</ele>
        <time>2021-04-24T09:53:49.000Z</time>
      </trkpt>
      <trkpt lat="47.16236" lon="-1.44633">
        <ele>85</ele>
        <time>2021-04-24T09:53:51.000Z</time>
      </trkpt>
      <trkpt lat="47.16235" lon="-1.44617">
        <ele>85</ele>
        <time>2021-04-24T09:53:53.000Z</time>
      </trkpt>
      <trkpt lat="47.16235" lon="-1.44602">
        <ele>85</ele>
        <time>2021-04-24T09:53:56.000Z</time>
      </trkpt>
      <trkpt lat="47.16235" lon="-1.44588">
        <ele>84</ele>
        <time>2021-04-24T09:53:58.000Z</time>
      </trkpt>
      <trkpt lat="47.16235" lon="-1.44572">
        <ele>84</ele>
        <time>2021-04-24T09:54:00.000Z</time>
      </trkpt>
      <trkpt lat="47.16234" lon="-1.44555">
        <ele>84</ele>
        <time>2021-04-24T09:54:02.000Z</time>
      </trkpt>
      <trkpt lat="47.16233" lon="-1.44538">
        <ele>83</ele>
        <time>2021-04-24T09:54:04.000Z</time>
      </trkpt>
      <trkpt lat="47.16232" lon="-1.44521">
        <ele>84</ele>
        <time>2021-04-24T09:54:06.000Z</time>
      </trkpt>
      <trkpt lat="47.16232" lon="-1.44504">
        <ele>84</ele>
        <time>2021-04-24T09:54:08.000Z</time>
      </trkpt>
      <trkpt lat="47.16231" lon="-1.44488">
        <ele>84</ele>
        <time>2021-04-24T09:54:10.000Z</time>
      </trkpt>
      <trkpt lat="47.1623" lon="-1.4447">
        <ele>85</ele>
        <time>2021-04-24T09:54:12.000Z</time>
      </trkpt>
      <trkpt lat="47.1623" lon="-1.44454">
        <ele>85</ele>
        <time>2021-04-24T09:54:14.000Z</time>
      </trkpt>
      <trkpt lat="47.16229" lon="-1.44437">
        <ele>84</ele>
        <time>2021-04-24T09:54:16.000Z</time>
      </trkpt>
      <trkpt lat="47.16229" lon="-1.44419">
        <ele>84</ele>
        <time>2021-04-24T09:54:18.000Z</time>
      </trkpt>
      <trkpt lat="47.16228" lon="-1.44401">
        <ele>84</ele>
        <time>2021-04-24T09:54:20.000Z</time>
      </trkpt>
      <trkpt lat="47.16228" lon="-1.44383">
        <ele>84</ele>
        <time>2021-04-24T09:54:22.000Z</time>
      </trkpt>
      <trkpt lat="47.16227" lon="-1.44363">
        <ele>84</ele>
        <time>2021-04-24T09:54:24.000Z</time>
      </trkpt>
      <trkpt lat="47.16226" lon="-1.44345">
        <ele>84</ele>
        <time>2021-04-24T09:54:26.000Z</time>
      </trkpt>
      <trkpt lat="47.16226" lon="-1.44327">
        <ele>84</ele>
        <time>2021-04-24T09:54:28.000Z</time>
      </trkpt>
      <trkpt lat="47.16225" lon="-1.44308">
        <ele>83</ele>
        <time>2021-04-24T09:54:30.000Z</time>
      </trkpt>
      <trkpt lat="47.16225" lon="-1.4429">
        <ele>83</ele>
        <time>2021-04-24T09:54:32.000Z</time>
      </trkpt>
      <trkpt lat="47.16224" lon="-1.44272">
        <ele>83</ele>
        <time>2021-04-24T09:54:34.000Z</time>
      </trkpt>
      <trkpt lat="47.16224" lon="-1.44254">
        <ele>83</ele>
        <time>2021-04-24T09:54:36.000Z</time>
      </trkpt>
      <trkpt lat="47.16223" lon="-1.44236">
        <ele>83</ele>
        <time>2021-04-24T09:54:38.000Z</time>
      </trkpt>
      <trkpt lat="47.16223" lon="-1.44218">
        <ele>82</ele>
        <time>2021-04-24T09:54:40.000Z</time>
      </trkpt>
      <trkpt lat="47.16223" lon="-1.44201">
        <ele>82</ele>
        <time>2021-04-24T09:54:42.000Z</time>
      </trkpt>
      <trkpt lat="47.16221" lon="-1.44183">
        <ele>82</ele>
        <time>2021-04-24T09:54:44.000Z</time>
      </trkpt>
      <trkpt lat="47.1622" lon="-1.44166">
        <ele>83</ele>
        <time>2021-04-24T09:54:46.000Z</time>
      </trkpt>
      <trkpt lat="47.16219" lon="-1.44148">
        <ele>84</ele>
        <time>2021-04-24T09:54:48.000Z</time>
      </trkpt>
      <trkpt lat="47.16219" lon="-1.44132">
        <ele>83</ele>
        <time>2021-04-24T09:54:50.000Z</time>
      </trkpt>
      <trkpt lat="47.16219" lon="-1.44114">
        <ele>84</ele>
        <time>2021-04-24T09:54:52.000Z</time>
      </trkpt>
      <trkpt lat="47.16218" lon="-1.44097">
        <ele>84</ele>
        <time>2021-04-24T09:54:54.000Z</time>
      </trkpt>
      <trkpt lat="47.16217" lon="-1.44079">
        <ele>83</ele>
        <time>2021-04-24T09:54:56.000Z</time>
      </trkpt>
      <trkpt lat="47.16217" lon="-1.44061">
        <ele>83</ele>
        <time>2021-04-24T09:54:58.000Z</time>
      </trkpt>
      <trkpt lat="47.16216" lon="-1.44043">
        <ele>83</ele>
        <time>2021-04-24T09:55:00.000Z</time>
      </trkpt>
      <trkpt lat="47.16216" lon="-1.44026">
        <ele>83</ele>
        <time>2021-04-24T09:55:02.000Z</time>
      </trkpt>
      <trkpt lat="47.16216" lon="-1.44008">
        <ele>84</ele>
        <time>2021-04-24T09:55:04.000Z</time>
      </trkpt>
      <trkpt lat="47.16216" lon="-1.43991">
        <ele>84</ele>
        <time>2021-04-24T09:55:06.000Z</time>
      </trkpt>
      <trkpt lat="47.16215" lon="-1.43975">
        <ele>84</ele>
        <time>2021-04-24T09:55:08.000Z</time>
      </trkpt>
      <trkpt lat="47.16214" lon="-1.43958">
        <ele>84</ele>
        <time>2021-04-24T09:55:10.000Z</time>
      </trkpt>
      <trkpt lat="47.16213" lon="-1.4394">
        <ele>84</ele>
        <time>2021-04-24T09:55:12.000Z</time>
      </trkpt>
      <trkpt lat="47.16213" lon="-1.43923">
        <ele>84</ele>
        <time>2021-04-24T09:55:14.000Z</time>
      </trkpt>
      <trkpt lat="47.16213" lon="-1.43906">
        <ele>84</ele>
        <time>2021-04-24T09:55:16.000Z</time>
      </trkpt>
      <trkpt lat="47.16212" lon="-1.43888">
        <ele>84</ele>
        <time>2021-04-24T09:55:18.000Z</time>
      </trkpt>
      <trkpt lat="47.16211" lon="-1.43871">
        <ele>84</ele>
        <time>2021-04-24T09:55:20.000Z</time>
      </trkpt>
      <trkpt lat="47.16211" lon="-1.43854">
        <ele>83</ele>
        <time>2021-04-24T09:55:22.000Z</time>
      </trkpt>
      <trkpt lat="47.16211" lon="-1.43837">
        <ele>84</ele>
        <time>2021-04-24T09:55:24.000Z</time>
      </trkpt>
      <trkpt lat="47.1621" lon="-1.4382">
        <ele>83</ele>
        <time>2021-04-24T09:55:26.000Z</time>
      </trkpt>
      <trkpt lat="47.16209" lon="-1.43805">
        <ele>84</ele>
        <time>2021-04-24T09:55:28.000Z</time>
      </trkpt>
      <trkpt lat="47.16209" lon="-1.43788">
        <ele>84</ele>
        <time>2021-04-24T09:55:30.000Z</time>
      </trkpt>
      <trkpt lat="47.16208" lon="-1.43772">
        <ele>84</ele>
        <time>2021-04-24T09:55:32.000Z</time>
      </trkpt>
      <trkpt lat="47.16209" lon="-1.43755">
        <ele>84</ele>
        <time>2021-04-24T09:55:34.000Z</time>
      </trkpt>
      <trkpt lat="47.16208" lon="-1.43738">
        <ele>84</ele>
        <time>2021-04-24T09:55:36.000Z</time>
      </trkpt>
      <trkpt lat="47.16208" lon="-1.43722">
        <ele>84</ele>
        <time>2021-04-24T09:55:38.000Z</time>
      </trkpt>
      <trkpt lat="47.16207" lon="-1.43706">
        <ele>84</ele>
        <time>2021-04-24T09:55:40.000Z</time>
      </trkpt>
      <trkpt lat="47.16206" lon="-1.4369">
        <ele>84</ele>
        <time>2021-04-24T09:55:42.000Z</time>
      </trkpt>
      <trkpt lat="47.16206" lon="-1.43674">
        <ele>84</ele>
        <time>2021-04-24T09:55:44.000Z</time>
      </trkpt>
      <trkpt lat="47.16205" lon="-1.43658">
        <ele>84</ele>
        <time>2021-04-24T09:55:46.000Z</time>
      </trkpt>
      <trkpt lat="47.16204" lon="-1.43641">
        <ele>84</ele>
        <time>2021-04-24T09:55:48.000Z</time>
      </trkpt>
      <trkpt lat="47.16204" lon="-1.43623">
        <ele>84</ele>
        <time>2021-04-24T09:55:50.000Z</time>
      </trkpt>
      <trkpt lat="47.16204" lon="-1.43604">
        <ele>83</ele>
        <time>2021-04-24T09:55:52.000Z</time>
      </trkpt>
      <trkpt lat="47.16203" lon="-1.43585">
        <ele>82</ele>
        <time>2021-04-24T09:55:54.000Z</time>
      </trkpt>
      <trkpt lat="47.16202" lon="-1.43564">
        <ele>82</ele>
        <time>2021-04-24T09:55:56.000Z</time>
      </trkpt>
      <trkpt lat="47.16201" lon="-1.43543">
        <ele>81</ele>
        <time>2021-04-24T09:55:58.000Z</time>
      </trkpt>
      <trkpt lat="47.16199" lon="-1.43521">
        <ele>80</ele>
        <time>2021-04-24T09:56:00.000Z</time>
      </trkpt>
      <trkpt lat="47.16197" lon="-1.43499">
        <ele>79</ele>
        <time>2021-04-24T09:56:02.000Z</time>
      </trkpt>
      <trkpt lat="47.16193" lon="-1.43477">
        <ele>79</ele>
        <time>2021-04-24T09:56:04.000Z</time>
      </trkpt>
      <trkpt lat="47.16189" lon="-1.43454">
        <ele>78</ele>
        <time>2021-04-24T09:56:06.000Z</time>
      </trkpt>
      <trkpt lat="47.16184" lon="-1.43432">
        <ele>77</ele>
        <time>2021-04-24T09:56:08.000Z</time>
      </trkpt>
      <trkpt lat="47.16179" lon="-1.43409">
        <ele>76</ele>
        <time>2021-04-24T09:56:10.000Z</time>
      </trkpt>
      <trkpt lat="47.16172" lon="-1.43387">
        <ele>76</ele>
        <time>2021-04-24T09:56:12.000Z</time>
      </trkpt>
      <trkpt lat="47.16165" lon="-1.43366">
        <ele>75</ele>
        <time>2021-04-24T09:56:14.000Z</time>
      </trkpt>
      <trkpt lat="47.16156" lon="-1.43345">
        <ele>75</ele>
        <time>2021-04-24T09:56:16.000Z</time>
      </trkpt>
      <trkpt lat="47.16147" lon="-1.43324">
        <ele>74</ele>
        <time>2021-04-24T09:56:18.000Z</time>
      </trkpt>
      <trkpt lat="47.16137" lon="-1.43302">
        <ele>73</ele>
        <time>2021-04-24T09:56:20.000Z</time>
      </trkpt>
      <trkpt lat="47.16127" lon="-1.4328">
        <ele>72</ele>
        <time>2021-04-24T09:56:22.000Z</time>
      </trkpt>
      <trkpt lat="47.16122" lon="-1.43268">
        <ele>72</ele>
        <time>2021-04-24T09:56:23.000Z</time>
      </trkpt>
      <trkpt lat="47.16117" lon="-1.43257">
        <ele>71</ele>
        <time>2021-04-24T09:56:24.000Z</time>
      </trkpt>
      <trkpt lat="47.16112" lon="-1.43246">
        <ele>71</ele>
        <time>2021-04-24T09:56:25.000Z</time>
      </trkpt>
      <trkpt lat="47.16106" lon="-1.43234">
        <ele>70</ele>
        <time>2021-04-24T09:56:26.000Z</time>
      </trkpt>
      <trkpt lat="47.16101" lon="-1.43222">
        <ele>69</ele>
        <time>2021-04-24T09:56:27.000Z</time>
      </trkpt>
      <trkpt lat="47.16095" lon="-1.4321">
        <ele>69</ele>
        <time>2021-04-24T09:56:28.000Z</time>
      </trkpt>
      <trkpt lat="47.1609" lon="-1.43199">
        <ele>68</ele>
        <time>2021-04-24T09:56:29.000Z</time>
      </trkpt>
      <trkpt lat="47.16085" lon="-1.43186">
        <ele>68</ele>
        <time>2021-04-24T09:56:30.000Z</time>
      </trkpt>
      <trkpt lat="47.16079" lon="-1.43175">
        <ele>67</ele>
        <time>2021-04-24T09:56:31.000Z</time>
      </trkpt>
      <trkpt lat="47.16074" lon="-1.43164">
        <ele>67</ele>
        <time>2021-04-24T09:56:32.000Z</time>
      </trkpt>
      <trkpt lat="47.16069" lon="-1.43152">
        <ele>66</ele>
        <time>2021-04-24T09:56:33.000Z</time>
      </trkpt>
      <trkpt lat="47.16064" lon="-1.4314">
        <ele>66</ele>
        <time>2021-04-24T09:56:34.000Z</time>
      </trkpt>
      <trkpt lat="47.16058" lon="-1.43129">
        <ele>65</ele>
        <time>2021-04-24T09:56:35.000Z</time>
      </trkpt>
      <trkpt lat="47.16053" lon="-1.43117">
        <ele>65</ele>
        <time>2021-04-24T09:56:36.000Z</time>
      </trkpt>
      <trkpt lat="47.16048" lon="-1.43106">
        <ele>64</ele>
        <time>2021-04-24T09:56:37.000Z</time>
      </trkpt>
      <trkpt lat="47.16043" lon="-1.43094">
        <ele>64</ele>
        <time>2021-04-24T09:56:38.000Z</time>
      </trkpt>
      <trkpt lat="47.16037" lon="-1.43082">
        <ele>64</ele>
        <time>2021-04-24T09:56:39.000Z</time>
      </trkpt>
      <trkpt lat="47.16032" lon="-1.43071">
        <ele>63</ele>
        <time>2021-04-24T09:56:40.000Z</time>
      </trkpt>
      <trkpt lat="47.16027" lon="-1.43059">
        <ele>63</ele>
        <time>2021-04-24T09:56:41.000Z</time>
      </trkpt>
      <trkpt lat="47.16022" lon="-1.43047">
        <ele>62</ele>
        <time>2021-04-24T09:56:42.000Z</time>
      </trkpt>
      <trkpt lat="47.16016" lon="-1.43036">
        <ele>62</ele>
        <time>2021-04-24T09:56:43.000Z</time>
      </trkpt>
      <trkpt lat="47.16011" lon="-1.43024">
        <ele>61</ele>
        <time>2021-04-24T09:56:44.000Z</time>
      </trkpt>
      <trkpt lat="47.16005" lon="-1.43013">
        <ele>61</ele>
        <time>2021-04-24T09:56:45.000Z</time>
      </trkpt>
      <trkpt lat="47.16" lon="-1.43002">
        <ele>61</ele>
        <time>2021-04-24T09:56:46.000Z</time>
      </trkpt>
      <trkpt lat="47.15994" lon="-1.4299">
        <ele>60</ele>
        <time>2021-04-24T09:56:47.000Z</time>
      </trkpt>
      <trkpt lat="47.15989" lon="-1.42979">
        <ele>60</ele>
        <time>2021-04-24T09:56:48.000Z</time>
      </trkpt>
      <trkpt lat="47.15984" lon="-1.42967">
        <ele>59</ele>
        <time>2021-04-24T09:56:49.000Z</time>
      </trkpt>
      <trkpt lat="47.15978" lon="-1.42957">
        <ele>59</ele>
        <time>2021-04-24T09:56:50.000Z</time>
      </trkpt>
      <trkpt lat="47.15973" lon="-1.42946">
        <ele>59</ele>
        <time>2021-04-24T09:56:51.000Z</time>
      </trkpt>
      <trkpt lat="47.15964" lon="-1.42925">
        <ele>59</ele>
        <time>2021-04-24T09:56:53.000Z</time>
      </trkpt>
      <trkpt lat="47.15955" lon="-1.42904">
        <ele>58</ele>
        <time>2021-04-24T09:56:55.000Z</time>
      </trkpt>
      <trkpt lat="47.15947" lon="-1.42885">
        <ele>58</ele>
        <time>2021-04-24T09:56:57.000Z</time>
      </trkpt>
      <trkpt lat="47.15939" lon="-1.42867">
        <ele>58</ele>
        <time>2021-04-24T09:56:59.000Z</time>
      </trkpt>
      <trkpt lat="47.15931" lon="-1.4285">
        <ele>59</ele>
        <time>2021-04-24T09:57:01.000Z</time>
      </trkpt>
      <trkpt lat="47.15924" lon="-1.42833">
        <ele>59</ele>
        <time>2021-04-24T09:57:03.000Z</time>
      </trkpt>
      <trkpt lat="47.15917" lon="-1.42818">
        <ele>60</ele>
        <time>2021-04-24T09:57:05.000Z</time>
      </trkpt>
      <trkpt lat="47.1591" lon="-1.42802">
        <ele>61</ele>
        <time>2021-04-24T09:57:07.000Z</time>
      </trkpt>
      <trkpt lat="47.15903" lon="-1.42787">
        <ele>62</ele>
        <time>2021-04-24T09:57:09.000Z</time>
      </trkpt>
      <trkpt lat="47.15896" lon="-1.42772">
        <ele>62</ele>
        <time>2021-04-24T09:57:11.000Z</time>
      </trkpt>
      <trkpt lat="47.1589" lon="-1.42758">
        <ele>63</ele>
        <time>2021-04-24T09:57:13.000Z</time>
      </trkpt>
      <trkpt lat="47.15883" lon="-1.42743">
        <ele>64</ele>
        <time>2021-04-24T09:57:15.000Z</time>
      </trkpt>
      <trkpt lat="47.15876" lon="-1.42729">
        <ele>65</ele>
        <time>2021-04-24T09:57:17.000Z</time>
      </trkpt>
      <trkpt lat="47.1587" lon="-1.42715">
        <ele>65</ele>
        <time>2021-04-24T09:57:19.000Z</time>
      </trkpt>
      <trkpt lat="47.15865" lon="-1.427">
        <ele>66</ele>
        <time>2021-04-24T09:57:21.000Z</time>
      </trkpt>
      <trkpt lat="47.15859" lon="-1.42686">
        <ele>67</ele>
        <time>2021-04-24T09:57:23.000Z</time>
      </trkpt>
      <trkpt lat="47.15854" lon="-1.42672">
        <ele>67</ele>
        <time>2021-04-24T09:57:25.000Z</time>
      </trkpt>
      <trkpt lat="47.1585" lon="-1.42657">
        <ele>68</ele>
        <time>2021-04-24T09:57:27.000Z</time>
      </trkpt>
      <trkpt lat="47.15847" lon="-1.42642">
        <ele>68</ele>
        <time>2021-04-24T09:57:29.000Z</time>
      </trkpt>
      <trkpt lat="47.15844" lon="-1.42627">
        <ele>69</ele>
        <time>2021-04-24T09:57:31.000Z</time>
      </trkpt>
      <trkpt lat="47.15841" lon="-1.42613">
        <ele>69</ele>
        <time>2021-04-24T09:57:33.000Z</time>
      </trkpt>
      <trkpt lat="47.15838" lon="-1.42599">
        <ele>70</ele>
        <time>2021-04-24T09:57:35.000Z</time>
      </trkpt>
      <trkpt lat="47.15835" lon="-1.42585">
        <ele>70</ele>
        <time>2021-04-24T09:57:37.000Z</time>
      </trkpt>
      <trkpt lat="47.15833" lon="-1.42571">
        <ele>70</ele>
        <time>2021-04-24T09:57:39.000Z</time>
      </trkpt>
      <trkpt lat="47.15831" lon="-1.42557">
        <ele>71</ele>
        <time>2021-04-24T09:57:41.000Z</time>
      </trkpt>
      <trkpt lat="47.1583" lon="-1.42542">
        <ele>71</ele>
        <time>2021-04-24T09:57:43.000Z</time>
      </trkpt>
      <trkpt lat="47.15828" lon="-1.42527">
        <ele>71</ele>
        <time>2021-04-24T09:57:45.000Z</time>
      </trkpt>
      <trkpt lat="47.15827" lon="-1.42513">
        <ele>72</ele>
        <time>2021-04-24T09:57:47.000Z</time>
      </trkpt>
      <trkpt lat="47.15827" lon="-1.42497">
        <ele>72</ele>
        <time>2021-04-24T09:57:49.000Z</time>
      </trkpt>
      <trkpt lat="47.15826" lon="-1.42483">
        <ele>73</ele>
        <time>2021-04-24T09:57:51.000Z</time>
      </trkpt>
      <trkpt lat="47.15827" lon="-1.42468">
        <ele>74</ele>
        <time>2021-04-24T09:57:53.000Z</time>
      </trkpt>
      <trkpt lat="47.15827" lon="-1.42453">
        <ele>75</ele>
        <time>2021-04-24T09:57:55.000Z</time>
      </trkpt>
      <trkpt lat="47.15827" lon="-1.42439">
        <ele>75</ele>
        <time>2021-04-24T09:57:57.000Z</time>
      </trkpt>
      <trkpt lat="47.15827" lon="-1.42426">
        <ele>76</ele>
        <time>2021-04-24T09:57:59.000Z</time>
      </trkpt>
      <trkpt lat="47.15828" lon="-1.42413">
        <ele>76</ele>
        <time>2021-04-24T09:58:01.000Z</time>
      </trkpt>
      <trkpt lat="47.15828" lon="-1.42399">
        <ele>77</ele>
        <time>2021-04-24T09:58:03.000Z</time>
      </trkpt>
      <trkpt lat="47.15829" lon="-1.42386">
        <ele>78</ele>
        <time>2021-04-24T09:58:05.000Z</time>
      </trkpt>
      <trkpt lat="47.15829" lon="-1.42366">
        <ele>78</ele>
        <time>2021-04-24T09:58:08.000Z</time>
      </trkpt>
      <trkpt lat="47.1583" lon="-1.42348">
        <ele>79</ele>
        <time>2021-04-24T09:58:11.000Z</time>
      </trkpt>
      <trkpt lat="47.15831" lon="-1.42328">
        <ele>79</ele>
        <time>2021-04-24T09:58:14.000Z</time>
      </trkpt>
      <trkpt lat="47.15831" lon="-1.42309">
        <ele>80</ele>
        <time>2021-04-24T09:58:17.000Z</time>
      </trkpt>
      <trkpt lat="47.1583" lon="-1.42289">
        <ele>81</ele>
        <time>2021-04-24T09:58:20.000Z</time>
      </trkpt>
      <trkpt lat="47.15831" lon="-1.42271">
        <ele>82</ele>
        <time>2021-04-24T09:58:23.000Z</time>
      </trkpt>
      <trkpt lat="47.15831" lon="-1.42252">
        <ele>82</ele>
        <time>2021-04-24T09:58:26.000Z</time>
      </trkpt>
      <trkpt lat="47.15832" lon="-1.42234">
        <ele>83</ele>
        <time>2021-04-24T09:58:29.000Z</time>
      </trkpt>
      <trkpt lat="47.15833" lon="-1.42221">
        <ele>84</ele>
        <time>2021-04-24T09:58:31.000Z</time>
      </trkpt>
      <trkpt lat="47.15833" lon="-1.42202">
        <ele>85</ele>
        <time>2021-04-24T09:58:34.000Z</time>
      </trkpt>
      <trkpt lat="47.15834" lon="-1.42183">
        <ele>86</ele>
        <time>2021-04-24T09:58:37.000Z</time>
      </trkpt>
      <trkpt lat="47.15834" lon="-1.42165">
        <ele>86</ele>
        <time>2021-04-24T09:58:40.000Z</time>
      </trkpt>
      <trkpt lat="47.15834" lon="-1.42146">
        <ele>87</ele>
        <time>2021-04-24T09:58:43.000Z</time>
      </trkpt>
      <trkpt lat="47.15835" lon="-1.42127">
        <ele>88</ele>
        <time>2021-04-24T09:58:46.000Z</time>
      </trkpt>
      <trkpt lat="47.15835" lon="-1.42108">
        <ele>88</ele>
        <time>2021-04-24T09:58:49.000Z</time>
      </trkpt>
      <trkpt lat="47.15835" lon="-1.42089">
        <ele>89</ele>
        <time>2021-04-24T09:58:52.000Z</time>
      </trkpt>
      <trkpt lat="47.15836" lon="-1.42071">
        <ele>89</ele>
        <time>2021-04-24T09:58:55.000Z</time>
      </trkpt>
      <trkpt lat="47.15836" lon="-1.42052">
        <ele>90</ele>
        <time>2021-04-24T09:58:58.000Z</time>
      </trkpt>
      <trkpt lat="47.15837" lon="-1.42033">
        <ele>90</ele>
        <time>2021-04-24T09:59:01.000Z</time>
      </trkpt>
      <trkpt lat="47.15837" lon="-1.42013">
        <ele>91</ele>
        <time>2021-04-24T09:59:04.000Z</time>
      </trkpt>
      <trkpt lat="47.15838" lon="-1.41994">
        <ele>92</ele>
        <time>2021-04-24T09:59:07.000Z</time>
      </trkpt>
      <trkpt lat="47.15838" lon="-1.41976">
        <ele>92</ele>
        <time>2021-04-24T09:59:10.000Z</time>
      </trkpt>
      <trkpt lat="47.15839" lon="-1.41956">
        <ele>92</ele>
        <time>2021-04-24T09:59:13.000Z</time>
      </trkpt>
      <trkpt lat="47.15839" lon="-1.41937">
        <ele>93</ele>
        <time>2021-04-24T09:59:16.000Z</time>
      </trkpt>
      <trkpt lat="47.15839" lon="-1.41918">
        <ele>94</ele>
        <time>2021-04-24T09:59:19.000Z</time>
      </trkpt>
      <trkpt lat="47.15838" lon="-1.41898">
        <ele>94</ele>
        <time>2021-04-24T09:59:22.000Z</time>
      </trkpt>
      <trkpt lat="47.15838" lon="-1.41885">
        <ele>94</ele>
        <time>2021-04-24T09:59:24.000Z</time>
      </trkpt>
      <trkpt lat="47.15837" lon="-1.41866">
        <ele>95</ele>
        <time>2021-04-24T09:59:27.000Z</time>
      </trkpt>
      <trkpt lat="47.15837" lon="-1.41853">
        <ele>95</ele>
        <time>2021-04-24T09:59:29.000Z</time>
      </trkpt>
      <trkpt lat="47.15835" lon="-1.41832">
        <ele>95</ele>
        <time>2021-04-24T09:59:32.000Z</time>
      </trkpt>
      <trkpt lat="47.15835" lon="-1.41819">
        <ele>96</ele>
        <time>2021-04-24T09:59:34.000Z</time>
      </trkpt>
      <trkpt lat="47.15833" lon="-1.41805">
        <ele>96</ele>
        <time>2021-04-24T09:59:36.000Z</time>
      </trkpt>
      <trkpt lat="47.15832" lon="-1.41785">
        <ele>96</ele>
        <time>2021-04-24T09:59:39.000Z</time>
      </trkpt>
      <trkpt lat="47.1583" lon="-1.41771">
        <ele>96</ele>
        <time>2021-04-24T09:59:41.000Z</time>
      </trkpt>
      <trkpt lat="47.15829" lon="-1.41758">
        <ele>97</ele>
        <time>2021-04-24T09:59:43.000Z</time>
      </trkpt>
      <trkpt lat="47.15827" lon="-1.41744">
        <ele>97</ele>
        <time>2021-04-24T09:59:45.000Z</time>
      </trkpt>
      <trkpt lat="47.15825" lon="-1.41731">
        <ele>97</ele>
        <time>2021-04-24T09:59:47.000Z</time>
      </trkpt>
      <trkpt lat="47.15824" lon="-1.41717">
        <ele>97</ele>
        <time>2021-04-24T09:59:49.000Z</time>
      </trkpt>
      <trkpt lat="47.1582" lon="-1.41694">
        <ele>97</ele>
        <time>2021-04-24T09:59:52.000Z</time>
      </trkpt>
      <trkpt lat="47.15819" lon="-1.41679">
        <ele>97</ele>
        <time>2021-04-24T09:59:54.000Z</time>
      </trkpt>
      <trkpt lat="47.15816" lon="-1.41664">
        <ele>97</ele>
        <time>2021-04-24T09:59:56.000Z</time>
      </trkpt>
      <trkpt lat="47.15813" lon="-1.41648">
        <ele>97</ele>
        <time>2021-04-24T09:59:58.000Z</time>
      </trkpt>
      <trkpt lat="47.15811" lon="-1.41631">
        <ele>97</ele>
        <time>2021-04-24T10:00:00.000Z</time>
      </trkpt>
      <trkpt lat="47.15807" lon="-1.41612">
        <ele>97</ele>
        <time>2021-04-24T10:00:02.000Z</time>
      </trkpt>
      <trkpt lat="47.15801" lon="-1.41585">
        <ele>97</ele>
        <time>2021-04-24T10:00:05.000Z</time>
      </trkpt>
      <trkpt lat="47.15797" lon="-1.41567">
        <ele>97</ele>
        <time>2021-04-24T10:00:07.000Z</time>
      </trkpt>
      <trkpt lat="47.15793" lon="-1.4155">
        <ele>97</ele>
        <time>2021-04-24T10:00:09.000Z</time>
      </trkpt>
      <trkpt lat="47.15788" lon="-1.41532">
        <ele>97</ele>
        <time>2021-04-24T10:00:11.000Z</time>
      </trkpt>
      <trkpt lat="47.15782" lon="-1.41505">
        <ele>96</ele>
        <time>2021-04-24T10:00:14.000Z</time>
      </trkpt>
      <trkpt lat="47.15777" lon="-1.41487">
        <ele>96</ele>
        <time>2021-04-24T10:00:16.000Z</time>
      </trkpt>
      <trkpt lat="47.15772" lon="-1.41469">
        <ele>96</ele>
        <time>2021-04-24T10:00:18.000Z</time>
      </trkpt>
      <trkpt lat="47.15766" lon="-1.41453">
        <ele>96</ele>
        <time>2021-04-24T10:00:20.000Z</time>
      </trkpt>
      <trkpt lat="47.15758" lon="-1.41428">
        <ele>96</ele>
        <time>2021-04-24T10:00:23.000Z</time>
      </trkpt>
      <trkpt lat="47.15752" lon="-1.4141">
        <ele>96</ele>
        <time>2021-04-24T10:00:25.000Z</time>
      </trkpt>
      <trkpt lat="47.15747" lon="-1.41394">
        <ele>95</ele>
        <time>2021-04-24T10:00:27.000Z</time>
      </trkpt>
      <trkpt lat="47.15742" lon="-1.41377">
        <ele>95</ele>
        <time>2021-04-24T10:00:29.000Z</time>
      </trkpt>
      <trkpt lat="47.15733" lon="-1.41351">
        <ele>95</ele>
        <time>2021-04-24T10:00:32.000Z</time>
      </trkpt>
      <trkpt lat="47.15727" lon="-1.41334">
        <ele>94</ele>
        <time>2021-04-24T10:00:34.000Z</time>
      </trkpt>
      <trkpt lat="47.15721" lon="-1.41316">
        <ele>94</ele>
        <time>2021-04-24T10:00:36.000Z</time>
      </trkpt>
      <trkpt lat="47.15713" lon="-1.41289">
        <ele>94</ele>
        <time>2021-04-24T10:00:39.000Z</time>
      </trkpt>
      <trkpt lat="47.15707" lon="-1.41271">
        <ele>94</ele>
        <time>2021-04-24T10:00:41.000Z</time>
      </trkpt>
      <trkpt lat="47.15701" lon="-1.41254">
        <ele>94</ele>
        <time>2021-04-24T10:00:43.000Z</time>
      </trkpt>
      <trkpt lat="47.15695" lon="-1.41236">
        <ele>93</ele>
        <time>2021-04-24T10:00:45.000Z</time>
      </trkpt>
      <trkpt lat="47.1569" lon="-1.41219">
        <ele>93</ele>
        <time>2021-04-24T10:00:47.000Z</time>
      </trkpt>
      <trkpt lat="47.15685" lon="-1.41203">
        <ele>94</ele>
        <time>2021-04-24T10:00:49.000Z</time>
      </trkpt>
      <trkpt lat="47.1568" lon="-1.41186">
        <ele>94</ele>
        <time>2021-04-24T10:00:51.000Z</time>
      </trkpt>
      <trkpt lat="47.15675" lon="-1.4117">
        <ele>94</ele>
        <time>2021-04-24T10:00:53.000Z</time>
      </trkpt>
      <trkpt lat="47.1567" lon="-1.41153">
        <ele>94</ele>
        <time>2021-04-24T10:00:55.000Z</time>
      </trkpt>
      <trkpt lat="47.15666" lon="-1.41137">
        <ele>94</ele>
        <time>2021-04-24T10:00:57.000Z</time>
      </trkpt>
      <trkpt lat="47.15662" lon="-1.4112">
        <ele>93</ele>
        <time>2021-04-24T10:00:59.000Z</time>
      </trkpt>
      <trkpt lat="47.15657" lon="-1.41102">
        <ele>93</ele>
        <time>2021-04-24T10:01:01.000Z</time>
      </trkpt>
      <trkpt lat="47.15653" lon="-1.41085">
        <ele>92</ele>
        <time>2021-04-24T10:01:03.000Z</time>
      </trkpt>
      <trkpt lat="47.15648" lon="-1.41068">
        <ele>92</ele>
        <time>2021-04-24T10:01:05.000Z</time>
      </trkpt>
      <trkpt lat="47.15644" lon="-1.41052">
        <ele>92</ele>
        <time>2021-04-24T10:01:07.000Z</time>
      </trkpt>
      <trkpt lat="47.1564" lon="-1.41034">
        <ele>91</ele>
        <time>2021-04-24T10:01:09.000Z</time>
      </trkpt>
      <trkpt lat="47.15636" lon="-1.41017">
        <ele>90</ele>
        <time>2021-04-24T10:01:11.000Z</time>
      </trkpt>
      <trkpt lat="47.15631" lon="-1.40999">
        <ele>90</ele>
        <time>2021-04-24T10:01:13.000Z</time>
      </trkpt>
      <trkpt lat="47.15627" lon="-1.40981">
        <ele>89</ele>
        <time>2021-04-24T10:01:15.000Z</time>
      </trkpt>
      <trkpt lat="47.15623" lon="-1.40963">
        <ele>89</ele>
        <time>2021-04-24T10:01:17.000Z</time>
      </trkpt>
      <trkpt lat="47.1562" lon="-1.40945">
        <ele>89</ele>
        <time>2021-04-24T10:01:19.000Z</time>
      </trkpt>
      <trkpt lat="47.15616" lon="-1.40928">
        <ele>89</ele>
        <time>2021-04-24T10:01:21.000Z</time>
      </trkpt>
      <trkpt lat="47.15611" lon="-1.4091">
        <ele>89</ele>
        <time>2021-04-24T10:01:23.000Z</time>
      </trkpt>
      <trkpt lat="47.15606" lon="-1.40892">
        <ele>89</ele>
        <time>2021-04-24T10:01:25.000Z</time>
      </trkpt>
      <trkpt lat="47.15602" lon="-1.40873">
        <ele>90</ele>
        <time>2021-04-24T10:01:27.000Z</time>
      </trkpt>
      <trkpt lat="47.15598" lon="-1.40856">
        <ele>90</ele>
        <time>2021-04-24T10:01:29.000Z</time>
      </trkpt>
      <trkpt lat="47.15591" lon="-1.4083">
        <ele>90</ele>
        <time>2021-04-24T10:01:32.000Z</time>
      </trkpt>
      <trkpt lat="47.15587" lon="-1.40812">
        <ele>90</ele>
        <time>2021-04-24T10:01:34.000Z</time>
      </trkpt>
      <trkpt lat="47.15583" lon="-1.40794">
        <ele>90</ele>
        <time>2021-04-24T10:01:36.000Z</time>
      </trkpt>
      <trkpt lat="47.15579" lon="-1.40776">
        <ele>90</ele>
        <time>2021-04-24T10:01:38.000Z</time>
      </trkpt>
      <trkpt lat="47.15575" lon="-1.40758">
        <ele>90</ele>
        <time>2021-04-24T10:01:40.000Z</time>
      </trkpt>
      <trkpt lat="47.15571" lon="-1.4074">
        <ele>90</ele>
        <time>2021-04-24T10:01:42.000Z</time>
      </trkpt>
      <trkpt lat="47.15568" lon="-1.40721">
        <ele>90</ele>
        <time>2021-04-24T10:01:44.000Z</time>
      </trkpt>
      <trkpt lat="47.15565" lon="-1.40704">
        <ele>90</ele>
        <time>2021-04-24T10:01:46.000Z</time>
      </trkpt>
      <trkpt lat="47.15564" lon="-1.40677">
        <ele>90</ele>
        <time>2021-04-24T10:01:49.000Z</time>
      </trkpt>
      <trkpt lat="47.15563" lon="-1.40659">
        <ele>90</ele>
        <time>2021-04-24T10:01:51.000Z</time>
      </trkpt>
      <trkpt lat="47.15564" lon="-1.4064">
        <ele>90</ele>
        <time>2021-04-24T10:01:53.000Z</time>
      </trkpt>
      <trkpt lat="47.15564" lon="-1.40622">
        <ele>90</ele>
        <time>2021-04-24T10:01:55.000Z</time>
      </trkpt>
      <trkpt lat="47.15564" lon="-1.40603">
        <ele>89</ele>
        <time>2021-04-24T10:01:57.000Z</time>
      </trkpt>
      <trkpt lat="47.15565" lon="-1.40584">
        <ele>89</ele>
        <time>2021-04-24T10:01:59.000Z</time>
      </trkpt>
      <trkpt lat="47.15565" lon="-1.40566">
        <ele>89</ele>
        <time>2021-04-24T10:02:01.000Z</time>
      </trkpt>
      <trkpt lat="47.15566" lon="-1.40547">
        <ele>89</ele>
        <time>2021-04-24T10:02:03.000Z</time>
      </trkpt>
      <trkpt lat="47.15566" lon="-1.40528">
        <ele>88</ele>
        <time>2021-04-24T10:02:05.000Z</time>
      </trkpt>
      <trkpt lat="47.15566" lon="-1.40507">
        <ele>87</ele>
        <time>2021-04-24T10:02:07.000Z</time>
      </trkpt>
      <trkpt lat="47.15567" lon="-1.40487">
        <ele>87</ele>
        <time>2021-04-24T10:02:09.000Z</time>
      </trkpt>
      <trkpt lat="47.15569" lon="-1.40466">
        <ele>87</ele>
        <time>2021-04-24T10:02:11.000Z</time>
      </trkpt>
      <trkpt lat="47.15569" lon="-1.40445">
        <ele>87</ele>
        <time>2021-04-24T10:02:13.000Z</time>
      </trkpt>
      <trkpt lat="47.15568" lon="-1.40425">
        <ele>86</ele>
        <time>2021-04-24T10:02:15.000Z</time>
      </trkpt>
      <trkpt lat="47.15569" lon="-1.40393">
        <ele>86</ele>
        <time>2021-04-24T10:02:18.000Z</time>
      </trkpt>
      <trkpt lat="47.1557" lon="-1.40371">
        <ele>85</ele>
        <time>2021-04-24T10:02:20.000Z</time>
      </trkpt>
      <trkpt lat="47.15572" lon="-1.40349">
        <ele>85</ele>
        <time>2021-04-24T10:02:22.000Z</time>
      </trkpt>
      <trkpt lat="47.15572" lon="-1.40326">
        <ele>84</ele>
        <time>2021-04-24T10:02:24.000Z</time>
      </trkpt>
      <trkpt lat="47.15573" lon="-1.40303">
        <ele>84</ele>
        <time>2021-04-24T10:02:26.000Z</time>
      </trkpt>
      <trkpt lat="47.15574" lon="-1.4028">
        <ele>83</ele>
        <time>2021-04-24T10:02:28.000Z</time>
      </trkpt>
      <trkpt lat="47.15574" lon="-1.40256">
        <ele>83</ele>
        <time>2021-04-24T10:02:30.000Z</time>
      </trkpt>
      <trkpt lat="47.15575" lon="-1.40232">
        <ele>82</ele>
        <time>2021-04-24T10:02:32.000Z</time>
      </trkpt>
      <trkpt lat="47.15575" lon="-1.40208">
        <ele>80</ele>
        <time>2021-04-24T10:02:34.000Z</time>
      </trkpt>
      <trkpt lat="47.15572" lon="-1.40184">
        <ele>79</ele>
        <time>2021-04-24T10:02:36.000Z</time>
      </trkpt>
      <trkpt lat="47.15568" lon="-1.40163">
        <ele>79</ele>
        <time>2021-04-24T10:02:38.000Z</time>
      </trkpt>
      <trkpt lat="47.15561" lon="-1.40145">
        <ele>78</ele>
        <time>2021-04-24T10:02:40.000Z</time>
      </trkpt>
      <trkpt lat="47.15554" lon="-1.40128">
        <ele>78</ele>
        <time>2021-04-24T10:02:42.000Z</time>
      </trkpt>
      <trkpt lat="47.15544" lon="-1.40111">
        <ele>77</ele>
        <time>2021-04-24T10:02:44.000Z</time>
      </trkpt>
      <trkpt lat="47.15531" lon="-1.40086">
        <ele>77</ele>
        <time>2021-04-24T10:02:47.000Z</time>
      </trkpt>
      <trkpt lat="47.15522" lon="-1.40069">
        <ele>77</ele>
        <time>2021-04-24T10:02:49.000Z</time>
      </trkpt>
      <trkpt lat="47.15512" lon="-1.40059">
        <ele>77</ele>
        <time>2021-04-24T10:02:51.000Z</time>
      </trkpt>
      <trkpt lat="47.15499" lon="-1.40062">
        <ele>78</ele>
        <time>2021-04-24T10:02:53.000Z</time>
      </trkpt>
      <trkpt lat="47.15489" lon="-1.40075">
        <ele>78</ele>
        <time>2021-04-24T10:02:55.000Z</time>
      </trkpt>
      <trkpt lat="47.15477" lon="-1.40079">
        <ele>77</ele>
        <time>2021-04-24T10:02:57.000Z</time>
      </trkpt>
      <trkpt lat="47.15467" lon="-1.40065">
        <ele>77</ele>
        <time>2021-04-24T10:02:59.000Z</time>
      </trkpt>
      <trkpt lat="47.1546" lon="-1.4005">
        <ele>78</ele>
        <time>2021-04-24T10:03:01.000Z</time>
      </trkpt>
      <trkpt lat="47.15456" lon="-1.40035">
        <ele>78</ele>
        <time>2021-04-24T10:03:03.000Z</time>
      </trkpt>
      <trkpt lat="47.15454" lon="-1.40021">
        <ele>78</ele>
        <time>2021-04-24T10:03:05.000Z</time>
      </trkpt>
      <trkpt lat="47.15452" lon="-1.40006">
        <ele>79</ele>
        <time>2021-04-24T10:03:07.000Z</time>
      </trkpt>
      <trkpt lat="47.15449" lon="-1.3999">
        <ele>80</ele>
        <time>2021-04-24T10:03:10.000Z</time>
      </trkpt>
      <trkpt lat="47.15448" lon="-1.3997">
        <ele>80</ele>
        <time>2021-04-24T10:03:13.000Z</time>
      </trkpt>
      <trkpt lat="47.1545" lon="-1.39954">
        <ele>80</ele>
        <time>2021-04-24T10:03:15.000Z</time>
      </trkpt>
      <trkpt lat="47.1545" lon="-1.39937">
        <ele>81</ele>
        <time>2021-04-24T10:03:17.000Z</time>
      </trkpt>
      <trkpt lat="47.15447" lon="-1.39922">
        <ele>81</ele>
        <time>2021-04-24T10:03:19.000Z</time>
      </trkpt>
      <trkpt lat="47.15443" lon="-1.39907">
        <ele>82</ele>
        <time>2021-04-24T10:03:21.000Z</time>
      </trkpt>
      <trkpt lat="47.15439" lon="-1.39894">
        <ele>82</ele>
        <time>2021-04-24T10:03:23.000Z</time>
      </trkpt>
      <trkpt lat="47.15436" lon="-1.39881">
        <ele>82</ele>
        <time>2021-04-24T10:03:25.000Z</time>
      </trkpt>
      <trkpt lat="47.15431" lon="-1.39869">
        <ele>83</ele>
        <time>2021-04-24T10:03:27.000Z</time>
      </trkpt>
      <trkpt lat="47.15425" lon="-1.39856">
        <ele>84</ele>
        <time>2021-04-24T10:03:29.000Z</time>
      </trkpt>
      <trkpt lat="47.1542" lon="-1.39844">
        <ele>84</ele>
        <time>2021-04-24T10:03:31.000Z</time>
      </trkpt>
      <trkpt lat="47.15415" lon="-1.39826">
        <ele>85</ele>
        <time>2021-04-24T10:03:34.000Z</time>
      </trkpt>
      <trkpt lat="47.15411" lon="-1.39813">
        <ele>85</ele>
        <time>2021-04-24T10:03:36.000Z</time>
      </trkpt>
      <trkpt lat="47.15408" lon="-1.398">
        <ele>85</ele>
        <time>2021-04-24T10:03:38.000Z</time>
      </trkpt>
      <trkpt lat="47.15404" lon="-1.39787">
        <ele>86</ele>
        <time>2021-04-24T10:03:40.000Z</time>
      </trkpt>
      <trkpt lat="47.15402" lon="-1.39774">
        <ele>86</ele>
        <time>2021-04-24T10:03:42.000Z</time>
      </trkpt>
      <trkpt lat="47.15406" lon="-1.39761">
        <ele>87</ele>
        <time>2021-04-24T10:03:44.000Z</time>
      </trkpt>
      <trkpt lat="47.15411" lon="-1.39749">
        <ele>87</ele>
        <time>2021-04-24T10:03:46.000Z</time>
      </trkpt>
      <trkpt lat="47.15412" lon="-1.39734">
        <ele>87</ele>
        <time>2021-04-24T10:03:48.000Z</time>
      </trkpt>
      <trkpt lat="47.15413" lon="-1.3972">
        <ele>88</ele>
        <time>2021-04-24T10:03:50.000Z</time>
      </trkpt>
      <trkpt lat="47.15415" lon="-1.39706">
        <ele>88</ele>
        <time>2021-04-24T10:03:52.000Z</time>
      </trkpt>
      <trkpt lat="47.15417" lon="-1.39692">
        <ele>88</ele>
        <time>2021-04-24T10:03:54.000Z</time>
      </trkpt>
      <trkpt lat="47.15418" lon="-1.39679">
        <ele>88</ele>
        <time>2021-04-24T10:03:56.000Z</time>
      </trkpt>
      <trkpt lat="47.15419" lon="-1.39664">
        <ele>89</ele>
        <time>2021-04-24T10:03:58.000Z</time>
      </trkpt>
      <trkpt lat="47.1542" lon="-1.39651">
        <ele>90</ele>
        <time>2021-04-24T10:04:00.000Z</time>
      </trkpt>
      <trkpt lat="47.15422" lon="-1.39637">
        <ele>90</ele>
        <time>2021-04-24T10:04:02.000Z</time>
      </trkpt>
      <trkpt lat="47.15424" lon="-1.39618">
        <ele>90</ele>
        <time>2021-04-24T10:04:05.000Z</time>
      </trkpt>
      <trkpt lat="47.15425" lon="-1.39604">
        <ele>90</ele>
        <time>2021-04-24T10:04:07.000Z</time>
      </trkpt>
      <trkpt lat="47.15424" lon="-1.39591">
        <ele>90</ele>
        <time>2021-04-24T10:04:09.000Z</time>
      </trkpt>
      <trkpt lat="47.15421" lon="-1.39579">
        <ele>90</ele>
        <time>2021-04-24T10:04:11.000Z</time>
      </trkpt>
      <trkpt lat="47.15421" lon="-1.39565">
        <ele>90</ele>
        <time>2021-04-24T10:04:13.000Z</time>
      </trkpt>
      <trkpt lat="47.15426" lon="-1.39553">
        <ele>91</ele>
        <time>2021-04-24T10:04:15.000Z</time>
      </trkpt>
      <trkpt lat="47.15431" lon="-1.39541">
        <ele>91</ele>
        <time>2021-04-24T10:04:17.000Z</time>
      </trkpt>
      <trkpt lat="47.15431" lon="-1.39527">
        <ele>91</ele>
        <time>2021-04-24T10:04:19.000Z</time>
      </trkpt>
      <trkpt lat="47.15432" lon="-1.39513">
        <ele>92</ele>
        <time>2021-04-24T10:04:21.000Z</time>
      </trkpt>
      <trkpt lat="47.15435" lon="-1.39494">
        <ele>92</ele>
        <time>2021-04-24T10:04:24.000Z</time>
      </trkpt>
      <trkpt lat="47.15437" lon="-1.3948">
        <ele>93</ele>
        <time>2021-04-24T10:04:26.000Z</time>
      </trkpt>
      <trkpt lat="47.15438" lon="-1.39466">
        <ele>93</ele>
        <time>2021-04-24T10:04:28.000Z</time>
      </trkpt>
      <trkpt lat="47.1544" lon="-1.39452">
        <ele>93</ele>
        <time>2021-04-24T10:04:30.000Z</time>
      </trkpt>
      <trkpt lat="47.15441" lon="-1.39438">
        <ele>94</ele>
        <time>2021-04-24T10:04:32.000Z</time>
      </trkpt>
      <trkpt lat="47.15443" lon="-1.39425">
        <ele>94</ele>
        <time>2021-04-24T10:04:34.000Z</time>
      </trkpt>
      <trkpt lat="47.15444" lon="-1.39411">
        <ele>95</ele>
        <time>2021-04-24T10:04:36.000Z</time>
      </trkpt>
      <trkpt lat="47.15446" lon="-1.39397">
        <ele>95</ele>
        <time>2021-04-24T10:04:38.000Z</time>
      </trkpt>
      <trkpt lat="47.15447" lon="-1.39383">
        <ele>95</ele>
        <time>2021-04-24T10:04:40.000Z</time>
      </trkpt>
      <trkpt lat="47.15448" lon="-1.39369">
        <ele>95</ele>
        <time>2021-04-24T10:04:42.000Z</time>
      </trkpt>
      <trkpt lat="47.15449" lon="-1.39355">
        <ele>96</ele>
        <time>2021-04-24T10:04:44.000Z</time>
      </trkpt>
      <trkpt lat="47.15451" lon="-1.39342">
        <ele>96</ele>
        <time>2021-04-24T10:04:46.000Z</time>
      </trkpt>
      <trkpt lat="47.15453" lon="-1.39328">
        <ele>97</ele>
        <time>2021-04-24T10:04:48.000Z</time>
      </trkpt>
      <trkpt lat="47.15455" lon="-1.39309">
        <ele>97</ele>
        <time>2021-04-24T10:04:51.000Z</time>
      </trkpt>
      <trkpt lat="47.15457" lon="-1.39295">
        <ele>98</ele>
        <time>2021-04-24T10:04:53.000Z</time>
      </trkpt>
      <trkpt lat="47.15459" lon="-1.39281">
        <ele>98</ele>
        <time>2021-04-24T10:04:55.000Z</time>
      </trkpt>
      <trkpt lat="47.15461" lon="-1.39268">
        <ele>99</ele>
        <time>2021-04-24T10:04:57.000Z</time>
      </trkpt>
      <trkpt lat="47.15463" lon="-1.39254">
        <ele>99</ele>
        <time>2021-04-24T10:04:59.000Z</time>
      </trkpt>
      <trkpt lat="47.15465" lon="-1.39241">
        <ele>100</ele>
        <time>2021-04-24T10:05:01.000Z</time>
      </trkpt>
      <trkpt lat="47.15467" lon="-1.39227">
        <ele>100</ele>
        <time>2021-04-24T10:05:03.000Z</time>
      </trkpt>
      <trkpt lat="47.15469" lon="-1.39214">
        <ele>101</ele>
        <time>2021-04-24T10:05:05.000Z</time>
      </trkpt>
      <trkpt lat="47.15471" lon="-1.392">
        <ele>101</ele>
        <time>2021-04-24T10:05:07.000Z</time>
      </trkpt>
      <trkpt lat="47.15473" lon="-1.39186">
        <ele>101</ele>
        <time>2021-04-24T10:05:09.000Z</time>
      </trkpt>
      <trkpt lat="47.15475" lon="-1.39173">
        <ele>101</ele>
        <time>2021-04-24T10:05:11.000Z</time>
      </trkpt>
      <trkpt lat="47.15478" lon="-1.39154">
        <ele>101</ele>
        <time>2021-04-24T10:05:14.000Z</time>
      </trkpt>
      <trkpt lat="47.15481" lon="-1.39134">
        <ele>102</ele>
        <time>2021-04-24T10:05:17.000Z</time>
      </trkpt>
      <trkpt lat="47.15483" lon="-1.39116">
        <ele>102</ele>
        <time>2021-04-24T10:05:20.000Z</time>
      </trkpt>
      <trkpt lat="47.15485" lon="-1.39102">
        <ele>102</ele>
        <time>2021-04-24T10:05:22.000Z</time>
      </trkpt>
      <trkpt lat="47.15487" lon="-1.39083">
        <ele>103</ele>
        <time>2021-04-24T10:05:25.000Z</time>
      </trkpt>
      <trkpt lat="47.15489" lon="-1.3907">
        <ele>103</ele>
        <time>2021-04-24T10:05:27.000Z</time>
      </trkpt>
      <trkpt lat="47.15491" lon="-1.3905">
        <ele>103</ele>
        <time>2021-04-24T10:05:30.000Z</time>
      </trkpt>
      <trkpt lat="47.15493" lon="-1.39037">
        <ele>103</ele>
        <time>2021-04-24T10:05:32.000Z</time>
      </trkpt>
      <trkpt lat="47.15495" lon="-1.39024">
        <ele>104</ele>
        <time>2021-04-24T10:05:34.000Z</time>
      </trkpt>
      <trkpt lat="47.15497" lon="-1.39011">
        <ele>104</ele>
        <time>2021-04-24T10:05:36.000Z</time>
      </trkpt>
      <trkpt lat="47.155" lon="-1.38997">
        <ele>104</ele>
        <time>2021-04-24T10:05:38.000Z</time>
      </trkpt>
      <trkpt lat="47.15502" lon="-1.38984">
        <ele>104</ele>
        <time>2021-04-24T10:05:40.000Z</time>
      </trkpt>
      <trkpt lat="47.15505" lon="-1.3897">
        <ele>104</ele>
        <time>2021-04-24T10:05:42.000Z</time>
      </trkpt>
      <trkpt lat="47.15508" lon="-1.38957">
        <ele>103</ele>
        <time>2021-04-24T10:05:44.000Z</time>
      </trkpt>
      <trkpt lat="47.15513" lon="-1.38944">
        <ele>103</ele>
        <time>2021-04-24T10:05:46.000Z</time>
      </trkpt>
      <trkpt lat="47.15518" lon="-1.38931">
        <ele>103</ele>
        <time>2021-04-24T10:05:48.000Z</time>
      </trkpt>
      <trkpt lat="47.15524" lon="-1.38917">
        <ele>102</ele>
        <time>2021-04-24T10:05:50.000Z</time>
      </trkpt>
      <trkpt lat="47.15529" lon="-1.38904">
        <ele>102</ele>
        <time>2021-04-24T10:05:52.000Z</time>
      </trkpt>
      <trkpt lat="47.15535" lon="-1.3889">
        <ele>101</ele>
        <time>2021-04-24T10:05:54.000Z</time>
      </trkpt>
      <trkpt lat="47.1554" lon="-1.38877">
        <ele>101</ele>
        <time>2021-04-24T10:05:56.000Z</time>
      </trkpt>
      <trkpt lat="47.15546" lon="-1.38863">
        <ele>101</ele>
        <time>2021-04-24T10:05:58.000Z</time>
      </trkpt>
      <trkpt lat="47.15552" lon="-1.38849">
        <ele>100</ele>
        <time>2021-04-24T10:06:00.000Z</time>
      </trkpt>
      <trkpt lat="47.15558" lon="-1.38835">
        <ele>100</ele>
        <time>2021-04-24T10:06:02.000Z</time>
      </trkpt>
      <trkpt lat="47.15564" lon="-1.3882">
        <ele>100</ele>
        <time>2021-04-24T10:06:04.000Z</time>
      </trkpt>
      <trkpt lat="47.1557" lon="-1.38806">
        <ele>100</ele>
        <time>2021-04-24T10:06:06.000Z</time>
      </trkpt>
      <trkpt lat="47.15576" lon="-1.38792">
        <ele>100</ele>
        <time>2021-04-24T10:06:08.000Z</time>
      </trkpt>
      <trkpt lat="47.15581" lon="-1.38778">
        <ele>100</ele>
        <time>2021-04-24T10:06:10.000Z</time>
      </trkpt>
      <trkpt lat="47.15588" lon="-1.38763">
        <ele>99</ele>
        <time>2021-04-24T10:06:12.000Z</time>
      </trkpt>
      <trkpt lat="47.15594" lon="-1.38748">
        <ele>99</ele>
        <time>2021-04-24T10:06:14.000Z</time>
      </trkpt>
      <trkpt lat="47.156" lon="-1.38733">
        <ele>98</ele>
        <time>2021-04-24T10:06:16.000Z</time>
      </trkpt>
      <trkpt lat="47.15606" lon="-1.38719">
        <ele>98</ele>
        <time>2021-04-24T10:06:18.000Z</time>
      </trkpt>
      <trkpt lat="47.15613" lon="-1.38704">
        <ele>97</ele>
        <time>2021-04-24T10:06:20.000Z</time>
      </trkpt>
      <trkpt lat="47.15619" lon="-1.38688">
        <ele>97</ele>
        <time>2021-04-24T10:06:22.000Z</time>
      </trkpt>
      <trkpt lat="47.15626" lon="-1.38673">
        <ele>96</ele>
        <time>2021-04-24T10:06:24.000Z</time>
      </trkpt>
      <trkpt lat="47.15633" lon="-1.38657">
        <ele>96</ele>
        <time>2021-04-24T10:06:26.000Z</time>
      </trkpt>
      <trkpt lat="47.1564" lon="-1.3864">
        <ele>95</ele>
        <time>2021-04-24T10:06:28.000Z</time>
      </trkpt>
      <trkpt lat="47.15647" lon="-1.38623">
        <ele>95</ele>
        <time>2021-04-24T10:06:30.000Z</time>
      </trkpt>
      <trkpt lat="47.15654" lon="-1.38606">
        <ele>94</ele>
        <time>2021-04-24T10:06:32.000Z</time>
      </trkpt>
      <trkpt lat="47.15661" lon="-1.38589">
        <ele>94</ele>
        <time>2021-04-24T10:06:34.000Z</time>
      </trkpt>
      <trkpt lat="47.15668" lon="-1.38572">
        <ele>93</ele>
        <time>2021-04-24T10:06:36.000Z</time>
      </trkpt>
      <trkpt lat="47.15675" lon="-1.38555">
        <ele>93</ele>
        <time>2021-04-24T10:06:38.000Z</time>
      </trkpt>
      <trkpt lat="47.15682" lon="-1.38538">
        <ele>93</ele>
        <time>2021-04-24T10:06:40.000Z</time>
      </trkpt>
      <trkpt lat="47.15688" lon="-1.38521">
        <ele>92</ele>
        <time>2021-04-24T10:06:42.000Z</time>
      </trkpt>
      <trkpt lat="47.15693" lon="-1.38503">
        <ele>92</ele>
        <time>2021-04-24T10:06:44.000Z</time>
      </trkpt>
      <trkpt lat="47.15696" lon="-1.38484">
        <ele>91</ele>
        <time>2021-04-24T10:06:46.000Z</time>
      </trkpt>
      <trkpt lat="47.15698" lon="-1.38465">
        <ele>91</ele>
        <time>2021-04-24T10:06:48.000Z</time>
      </trkpt>
      <trkpt lat="47.15697" lon="-1.38444">
        <ele>90</ele>
        <time>2021-04-24T10:06:50.000Z</time>
      </trkpt>
      <trkpt lat="47.15695" lon="-1.38423">
        <ele>90</ele>
        <time>2021-04-24T10:06:52.000Z</time>
      </trkpt>
      <trkpt lat="47.15692" lon="-1.38402">
        <ele>90</ele>
        <time>2021-04-24T10:06:54.000Z</time>
      </trkpt>
      <trkpt lat="47.15688" lon="-1.38382">
        <ele>89</ele>
        <time>2021-04-24T10:06:56.000Z</time>
      </trkpt>
      <trkpt lat="47.15683" lon="-1.38362">
        <ele>89</ele>
        <time>2021-04-24T10:06:58.000Z</time>
      </trkpt>
      <trkpt lat="47.15679" lon="-1.38342">
        <ele>89</ele>
        <time>2021-04-24T10:07:00.000Z</time>
      </trkpt>
      <trkpt lat="47.15675" lon="-1.38322">
        <ele>88</ele>
        <time>2021-04-24T10:07:02.000Z</time>
      </trkpt>
      <trkpt lat="47.1567" lon="-1.38303">
        <ele>88</ele>
        <time>2021-04-24T10:07:04.000Z</time>
      </trkpt>
      <trkpt lat="47.15667" lon="-1.38285">
        <ele>88</ele>
        <time>2021-04-24T10:07:06.000Z</time>
      </trkpt>
      <trkpt lat="47.15668" lon="-1.38268">
        <ele>88</ele>
        <time>2021-04-24T10:07:08.000Z</time>
      </trkpt>
      <trkpt lat="47.15674" lon="-1.38252">
        <ele>87</ele>
        <time>2021-04-24T10:07:10.000Z</time>
      </trkpt>
      <trkpt lat="47.15683" lon="-1.38236">
        <ele>87</ele>
        <time>2021-04-24T10:07:12.000Z</time>
      </trkpt>
      <trkpt lat="47.15691" lon="-1.38221">
        <ele>86</ele>
        <time>2021-04-24T10:07:14.000Z</time>
      </trkpt>
      <trkpt lat="47.15697" lon="-1.38208">
        <ele>86</ele>
        <time>2021-04-24T10:07:16.000Z</time>
      </trkpt>
      <trkpt lat="47.15699" lon="-1.38194">
        <ele>86</ele>
        <time>2021-04-24T10:07:19.000Z</time>
      </trkpt>
      <trkpt lat="47.15709" lon="-1.38188">
        <ele>86</ele>
        <time>2021-04-24T10:07:22.000Z</time>
      </trkpt>
      <trkpt lat="47.15721" lon="-1.38195">
        <ele>86</ele>
        <time>2021-04-24T10:07:24.000Z</time>
      </trkpt>
      <trkpt lat="47.15731" lon="-1.38204">
        <ele>86</ele>
        <time>2021-04-24T10:07:26.000Z</time>
      </trkpt>
      <trkpt lat="47.15743" lon="-1.38207">
        <ele>85</ele>
        <time>2021-04-24T10:07:28.000Z</time>
      </trkpt>
      <trkpt lat="47.15752" lon="-1.38191">
        <ele>85</ele>
        <time>2021-04-24T10:07:30.000Z</time>
      </trkpt>
      <trkpt lat="47.15759" lon="-1.38173">
        <ele>84</ele>
        <time>2021-04-24T10:07:32.000Z</time>
      </trkpt>
      <trkpt lat="47.15763" lon="-1.38154">
        <ele>83</ele>
        <time>2021-04-24T10:07:34.000Z</time>
      </trkpt>
      <trkpt lat="47.1577" lon="-1.38135">
        <ele>82</ele>
        <time>2021-04-24T10:07:36.000Z</time>
      </trkpt>
      <trkpt lat="47.15775" lon="-1.38118">
        <ele>82</ele>
        <time>2021-04-24T10:07:38.000Z</time>
      </trkpt>
      <trkpt lat="47.15779" lon="-1.38098">
        <ele>81</ele>
        <time>2021-04-24T10:07:40.000Z</time>
      </trkpt>
      <trkpt lat="47.15781" lon="-1.38076">
        <ele>80</ele>
        <time>2021-04-24T10:07:42.000Z</time>
      </trkpt>
      <trkpt lat="47.15784" lon="-1.38056">
        <ele>79</ele>
        <time>2021-04-24T10:07:44.000Z</time>
      </trkpt>
      <trkpt lat="47.15787" lon="-1.38035">
        <ele>79</ele>
        <time>2021-04-24T10:07:46.000Z</time>
      </trkpt>
      <trkpt lat="47.15789" lon="-1.38014">
        <ele>79</ele>
        <time>2021-04-24T10:07:48.000Z</time>
      </trkpt>
      <trkpt lat="47.15791" lon="-1.37993">
        <ele>78</ele>
        <time>2021-04-24T10:07:50.000Z</time>
      </trkpt>
      <trkpt lat="47.15792" lon="-1.37972">
        <ele>78</ele>
        <time>2021-04-24T10:07:52.000Z</time>
      </trkpt>
      <trkpt lat="47.15792" lon="-1.37951">
        <ele>77</ele>
        <time>2021-04-24T10:07:54.000Z</time>
      </trkpt>
      <trkpt lat="47.15791" lon="-1.37929">
        <ele>78</ele>
        <time>2021-04-24T10:07:56.000Z</time>
      </trkpt>
      <trkpt lat="47.1579" lon="-1.37908">
        <ele>77</ele>
        <time>2021-04-24T10:07:58.000Z</time>
      </trkpt>
      <trkpt lat="47.15789" lon="-1.37886">
        <ele>77</ele>
        <time>2021-04-24T10:08:00.000Z</time>
      </trkpt>
      <trkpt lat="47.15786" lon="-1.37865">
        <ele>77</ele>
        <time>2021-04-24T10:08:02.000Z</time>
      </trkpt>
      <trkpt lat="47.15785" lon="-1.37844">
        <ele>77</ele>
        <time>2021-04-24T10:08:04.000Z</time>
      </trkpt>
      <trkpt lat="47.15783" lon="-1.37822">
        <ele>76</ele>
        <time>2021-04-24T10:08:06.000Z</time>
      </trkpt>
      <trkpt lat="47.15781" lon="-1.37801">
        <ele>76</ele>
        <time>2021-04-24T10:08:08.000Z</time>
      </trkpt>
      <trkpt lat="47.15779" lon="-1.3778">
        <ele>75</ele>
        <time>2021-04-24T10:08:10.000Z</time>
      </trkpt>
      <trkpt lat="47.15778" lon="-1.37759">
        <ele>75</ele>
        <time>2021-04-24T10:08:12.000Z</time>
      </trkpt>
      <trkpt lat="47.15778" lon="-1.37738">
        <ele>75</ele>
        <time>2021-04-24T10:08:14.000Z</time>
      </trkpt>
      <trkpt lat="47.15783" lon="-1.37718">
        <ele>75</ele>
        <time>2021-04-24T10:08:16.000Z</time>
      </trkpt>
      <trkpt lat="47.15791" lon="-1.37702">
        <ele>75</ele>
        <time>2021-04-24T10:08:18.000Z</time>
      </trkpt>
      <trkpt lat="47.15801" lon="-1.37687">
        <ele>75</ele>
        <time>2021-04-24T10:08:20.000Z</time>
      </trkpt>
      <trkpt lat="47.1581" lon="-1.37672">
        <ele>74</ele>
        <time>2021-04-24T10:08:22.000Z</time>
      </trkpt>
      <trkpt lat="47.15819" lon="-1.37656">
        <ele>74</ele>
        <time>2021-04-24T10:08:24.000Z</time>
      </trkpt>
      <trkpt lat="47.15829" lon="-1.37642">
        <ele>74</ele>
        <time>2021-04-24T10:08:26.000Z</time>
      </trkpt>
      <trkpt lat="47.15843" lon="-1.37637">
        <ele>73</ele>
        <time>2021-04-24T10:08:28.000Z</time>
      </trkpt>
      <trkpt lat="47.15854" lon="-1.3762">
        <ele>73</ele>
        <time>2021-04-24T10:08:30.000Z</time>
      </trkpt>
      <trkpt lat="47.15859" lon="-1.376">
        <ele>73</ele>
        <time>2021-04-24T10:08:32.000Z</time>
      </trkpt>
      <trkpt lat="47.15864" lon="-1.3758">
        <ele>74</ele>
        <time>2021-04-24T10:08:34.000Z</time>
      </trkpt>
      <trkpt lat="47.15869" lon="-1.3756">
        <ele>74</ele>
        <time>2021-04-24T10:08:36.000Z</time>
      </trkpt>
      <trkpt lat="47.15874" lon="-1.3754">
        <ele>73</ele>
        <time>2021-04-24T10:08:38.000Z</time>
      </trkpt>
      <trkpt lat="47.15879" lon="-1.3752">
        <ele>72</ele>
        <time>2021-04-24T10:08:40.000Z</time>
      </trkpt>
      <trkpt lat="47.15885" lon="-1.37501">
        <ele>72</ele>
        <time>2021-04-24T10:08:42.000Z</time>
      </trkpt>
      <trkpt lat="47.15894" lon="-1.37485">
        <ele>71</ele>
        <time>2021-04-24T10:08:44.000Z</time>
      </trkpt>
      <trkpt lat="47.15904" lon="-1.37472">
        <ele>71</ele>
        <time>2021-04-24T10:08:46.000Z</time>
      </trkpt>
      <trkpt lat="47.15906" lon="-1.37453">
        <ele>71</ele>
        <time>2021-04-24T10:08:48.000Z</time>
      </trkpt>
      <trkpt lat="47.15903" lon="-1.37434">
        <ele>71</ele>
        <time>2021-04-24T10:08:50.000Z</time>
      </trkpt>
      <trkpt lat="47.15898" lon="-1.37416">
        <ele>71</ele>
        <time>2021-04-24T10:08:52.000Z</time>
      </trkpt>
      <trkpt lat="47.15894" lon="-1.37399">
        <ele>71</ele>
        <time>2021-04-24T10:08:54.000Z</time>
      </trkpt>
      <trkpt lat="47.1589" lon="-1.37381">
        <ele>71</ele>
        <time>2021-04-24T10:08:56.000Z</time>
      </trkpt>
      <trkpt lat="47.15886" lon="-1.37363">
        <ele>71</ele>
        <time>2021-04-24T10:08:58.000Z</time>
      </trkpt>
      <trkpt lat="47.15882" lon="-1.37346">
        <ele>72</ele>
        <time>2021-04-24T10:09:00.000Z</time>
      </trkpt>
      <trkpt lat="47.15877" lon="-1.37329">
        <ele>72</ele>
        <time>2021-04-24T10:09:02.000Z</time>
      </trkpt>
      <trkpt lat="47.15873" lon="-1.3731">
        <ele>72</ele>
        <time>2021-04-24T10:09:04.000Z</time>
      </trkpt>
      <trkpt lat="47.15869" lon="-1.37292">
        <ele>72</ele>
        <time>2021-04-24T10:09:06.000Z</time>
      </trkpt>
      <trkpt lat="47.15865" lon="-1.37274">
        <ele>72</ele>
        <time>2021-04-24T10:09:08.000Z</time>
      </trkpt>
      <trkpt lat="47.15861" lon="-1.37256">
        <ele>72</ele>
        <time>2021-04-24T10:09:10.000Z</time>
      </trkpt>
      <trkpt lat="47.15857" lon="-1.37237">
        <ele>72</ele>
        <time>2021-04-24T10:09:12.000Z</time>
      </trkpt>
      <trkpt lat="47.15853" lon="-1.37219">
        <ele>71</ele>
        <time>2021-04-24T10:09:14.000Z</time>
      </trkpt>
      <trkpt lat="47.15849" lon="-1.37201">
        <ele>71</ele>
        <time>2021-04-24T10:09:16.000Z</time>
      </trkpt>
      <trkpt lat="47.15845" lon="-1.37183">
        <ele>71</ele>
        <time>2021-04-24T10:09:18.000Z</time>
      </trkpt>
      <trkpt lat="47.15838" lon="-1.37166">
        <ele>71</ele>
        <time>2021-04-24T10:09:20.000Z</time>
      </trkpt>
      <trkpt lat="47.15829" lon="-1.3715">
        <ele>71</ele>
        <time>2021-04-24T10:09:22.000Z</time>
      </trkpt>
      <trkpt lat="47.1582" lon="-1.37136">
        <ele>71</ele>
        <time>2021-04-24T10:09:24.000Z</time>
      </trkpt>
      <trkpt lat="47.15811" lon="-1.3712">
        <ele>72</ele>
        <time>2021-04-24T10:09:26.000Z</time>
      </trkpt>
      <trkpt lat="47.15802" lon="-1.37106">
        <ele>72</ele>
        <time>2021-04-24T10:09:28.000Z</time>
      </trkpt>
      <trkpt lat="47.15795" lon="-1.3709">
        <ele>72</ele>
        <time>2021-04-24T10:09:30.000Z</time>
      </trkpt>
      <trkpt lat="47.15788" lon="-1.37074">
        <ele>72</ele>
        <time>2021-04-24T10:09:32.000Z</time>
      </trkpt>
      <trkpt lat="47.15782" lon="-1.37059">
        <ele>72</ele>
        <time>2021-04-24T10:09:34.000Z</time>
      </trkpt>
      <trkpt lat="47.15776" lon="-1.37044">
        <ele>72</ele>
        <time>2021-04-24T10:09:36.000Z</time>
      </trkpt>
      <trkpt lat="47.15769" lon="-1.3703">
        <ele>72</ele>
        <time>2021-04-24T10:09:38.000Z</time>
      </trkpt>
      <trkpt lat="47.15762" lon="-1.37016">
        <ele>72</ele>
        <time>2021-04-24T10:09:40.000Z</time>
      </trkpt>
      <trkpt lat="47.15754" lon="-1.37005">
        <ele>72</ele>
        <time>2021-04-24T10:09:42.000Z</time>
      </trkpt>
      <trkpt lat="47.15745" lon="-1.36994">
        <ele>72</ele>
        <time>2021-04-24T10:09:44.000Z</time>
      </trkpt>
      <trkpt lat="47.15736" lon="-1.36984">
        <ele>72</ele>
        <time>2021-04-24T10:09:46.000Z</time>
      </trkpt>
      <trkpt lat="47.15726" lon="-1.36975">
        <ele>73</ele>
        <time>2021-04-24T10:09:48.000Z</time>
      </trkpt>
      <trkpt lat="47.15717" lon="-1.36966">
        <ele>73</ele>
        <time>2021-04-24T10:09:50.000Z</time>
      </trkpt>
      <trkpt lat="47.15707" lon="-1.36957">
        <ele>74</ele>
        <time>2021-04-24T10:09:52.000Z</time>
      </trkpt>
      <trkpt lat="47.15697" lon="-1.36949">
        <ele>74</ele>
        <time>2021-04-24T10:09:54.000Z</time>
      </trkpt>
      <trkpt lat="47.15688" lon="-1.3694">
        <ele>75</ele>
        <time>2021-04-24T10:09:56.000Z</time>
      </trkpt>
      <trkpt lat="47.15679" lon="-1.3693">
        <ele>75</ele>
        <time>2021-04-24T10:09:58.000Z</time>
      </trkpt>
      <trkpt lat="47.15672" lon="-1.36919">
        <ele>76</ele>
        <time>2021-04-24T10:10:00.000Z</time>
      </trkpt>
      <trkpt lat="47.15665" lon="-1.36906">
        <ele>77</ele>
        <time>2021-04-24T10:10:02.000Z</time>
      </trkpt>
      <trkpt lat="47.15658" lon="-1.36894">
        <ele>77</ele>
        <time>2021-04-24T10:10:04.000Z</time>
      </trkpt>
      <trkpt lat="47.15651" lon="-1.36881">
        <ele>77</ele>
        <time>2021-04-24T10:10:06.000Z</time>
      </trkpt>
      <trkpt lat="47.15644" lon="-1.36868">
        <ele>77</ele>
        <time>2021-04-24T10:10:08.000Z</time>
      </trkpt>
      <trkpt lat="47.15637" lon="-1.36856">
        <ele>78</ele>
        <time>2021-04-24T10:10:10.000Z</time>
      </trkpt>
      <trkpt lat="47.1563" lon="-1.36845">
        <ele>79</ele>
        <time>2021-04-24T10:10:12.000Z</time>
      </trkpt>
      <trkpt lat="47.15622" lon="-1.36832">
        <ele>79</ele>
        <time>2021-04-24T10:10:14.000Z</time>
      </trkpt>
      <trkpt lat="47.15615" lon="-1.36819">
        <ele>79</ele>
        <time>2021-04-24T10:10:16.000Z</time>
      </trkpt>
      <trkpt lat="47.15607" lon="-1.36807">
        <ele>79</ele>
        <time>2021-04-24T10:10:18.000Z</time>
      </trkpt>
      <trkpt lat="47.156" lon="-1.36794">
        <ele>80</ele>
        <time>2021-04-24T10:10:20.000Z</time>
      </trkpt>
      <trkpt lat="47.15594" lon="-1.36781">
        <ele>80</ele>
        <time>2021-04-24T10:10:22.000Z</time>
      </trkpt>
      <trkpt lat="47.15589" lon="-1.36768">
        <ele>80</ele>
        <time>2021-04-24T10:10:24.000Z</time>
      </trkpt>
      <trkpt lat="47.15585" lon="-1.36753">
        <ele>80</ele>
        <time>2021-04-24T10:10:26.000Z</time>
      </trkpt>
      <trkpt lat="47.15582" lon="-1.36737">
        <ele>80</ele>
        <time>2021-04-24T10:10:28.000Z</time>
      </trkpt>
      <trkpt lat="47.15578" lon="-1.36721">
        <ele>80</ele>
        <time>2021-04-24T10:10:30.000Z</time>
      </trkpt>
      <trkpt lat="47.15575" lon="-1.36705">
        <ele>80</ele>
        <time>2021-04-24T10:10:32.000Z</time>
      </trkpt>
      <trkpt lat="47.15571" lon="-1.36688">
        <ele>79</ele>
        <time>2021-04-24T10:10:34.000Z</time>
      </trkpt>
      <trkpt lat="47.15567" lon="-1.36671">
        <ele>79</ele>
        <time>2021-04-24T10:10:36.000Z</time>
      </trkpt>
      <trkpt lat="47.15565" lon="-1.36654">
        <ele>79</ele>
        <time>2021-04-24T10:10:38.000Z</time>
      </trkpt>
      <trkpt lat="47.15563" lon="-1.36637">
        <ele>79</ele>
        <time>2021-04-24T10:10:40.000Z</time>
      </trkpt>
      <trkpt lat="47.15561" lon="-1.36619">
        <ele>79</ele>
        <time>2021-04-24T10:10:42.000Z</time>
      </trkpt>
      <trkpt lat="47.15558" lon="-1.36601">
        <ele>79</ele>
        <time>2021-04-24T10:10:44.000Z</time>
      </trkpt>
      <trkpt lat="47.15556" lon="-1.36584">
        <ele>79</ele>
        <time>2021-04-24T10:10:46.000Z</time>
      </trkpt>
      <trkpt lat="47.15553" lon="-1.36569">
        <ele>79</ele>
        <time>2021-04-24T10:10:48.000Z</time>
      </trkpt>
      <trkpt lat="47.1555" lon="-1.36554">
        <ele>80</ele>
        <time>2021-04-24T10:10:50.000Z</time>
      </trkpt>
      <trkpt lat="47.15544" lon="-1.36539">
        <ele>80</ele>
        <time>2021-04-24T10:10:52.000Z</time>
      </trkpt>
      <trkpt lat="47.15538" lon="-1.36526">
        <ele>80</ele>
        <time>2021-04-24T10:10:54.000Z</time>
      </trkpt>
      <trkpt lat="47.1553" lon="-1.36514">
        <ele>80</ele>
        <time>2021-04-24T10:10:56.000Z</time>
      </trkpt>
      <trkpt lat="47.15521" lon="-1.36504">
        <ele>79</ele>
        <time>2021-04-24T10:10:58.000Z</time>
      </trkpt>
      <trkpt lat="47.15511" lon="-1.36494">
        <ele>80</ele>
        <time>2021-04-24T10:11:00.000Z</time>
      </trkpt>
      <trkpt lat="47.15504" lon="-1.36481">
        <ele>80</ele>
        <time>2021-04-24T10:11:02.000Z</time>
      </trkpt>
      <trkpt lat="47.155" lon="-1.36466">
        <ele>80</ele>
        <time>2021-04-24T10:11:04.000Z</time>
      </trkpt>
      <trkpt lat="47.15497" lon="-1.3645">
        <ele>80</ele>
        <time>2021-04-24T10:11:06.000Z</time>
      </trkpt>
      <trkpt lat="47.15495" lon="-1.36432">
        <ele>81</ele>
        <time>2021-04-24T10:11:08.000Z</time>
      </trkpt>
      <trkpt lat="47.15493" lon="-1.36415">
        <ele>80</ele>
        <time>2021-04-24T10:11:10.000Z</time>
      </trkpt>
      <trkpt lat="47.15492" lon="-1.36398">
        <ele>80</ele>
        <time>2021-04-24T10:11:12.000Z</time>
      </trkpt>
      <trkpt lat="47.15491" lon="-1.3638">
        <ele>80</ele>
        <time>2021-04-24T10:11:14.000Z</time>
      </trkpt>
      <trkpt lat="47.1549" lon="-1.36362">
        <ele>80</ele>
        <time>2021-04-24T10:11:16.000Z</time>
      </trkpt>
      <trkpt lat="47.1549" lon="-1.36345">
        <ele>81</ele>
        <time>2021-04-24T10:11:18.000Z</time>
      </trkpt>
      <trkpt lat="47.1549" lon="-1.36327">
        <ele>81</ele>
        <time>2021-04-24T10:11:20.000Z</time>
      </trkpt>
      <trkpt lat="47.15489" lon="-1.36311">
        <ele>81</ele>
        <time>2021-04-24T10:11:22.000Z</time>
      </trkpt>
      <trkpt lat="47.15487" lon="-1.36295">
        <ele>81</ele>
        <time>2021-04-24T10:11:24.000Z</time>
      </trkpt>
      <trkpt lat="47.15485" lon="-1.36279">
        <ele>81</ele>
        <time>2021-04-24T10:11:26.000Z</time>
      </trkpt>
      <trkpt lat="47.15482" lon="-1.36261">
        <ele>81</ele>
        <time>2021-04-24T10:11:28.000Z</time>
      </trkpt>
      <trkpt lat="47.15479" lon="-1.36244">
        <ele>81</ele>
        <time>2021-04-24T10:11:30.000Z</time>
      </trkpt>
      <trkpt lat="47.15477" lon="-1.36228">
        <ele>81</ele>
        <time>2021-04-24T10:11:32.000Z</time>
      </trkpt>
      <trkpt lat="47.15474" lon="-1.36211">
        <ele>81</ele>
        <time>2021-04-24T10:11:34.000Z</time>
      </trkpt>
      <trkpt lat="47.15471" lon="-1.36194">
        <ele>80</ele>
        <time>2021-04-24T10:11:36.000Z</time>
      </trkpt>
      <trkpt lat="47.15468" lon="-1.36177">
        <ele>80</ele>
        <time>2021-04-24T10:11:38.000Z</time>
      </trkpt>
      <trkpt lat="47.15466" lon="-1.3616">
        <ele>80</ele>
        <time>2021-04-24T10:11:40.000Z</time>
      </trkpt>
      <trkpt lat="47.15463" lon="-1.36142">
        <ele>80</ele>
        <time>2021-04-24T10:11:42.000Z</time>
      </trkpt>
      <trkpt lat="47.15459" lon="-1.36126">
        <ele>81</ele>
        <time>2021-04-24T10:11:44.000Z</time>
      </trkpt>
      <trkpt lat="47.15455" lon="-1.36108">
        <ele>81</ele>
        <time>2021-04-24T10:11:46.000Z</time>
      </trkpt>
      <trkpt lat="47.15451" lon="-1.36091">
        <ele>80</ele>
        <time>2021-04-24T10:11:48.000Z</time>
      </trkpt>
      <trkpt lat="47.15447" lon="-1.36074">
        <ele>80</ele>
        <time>2021-04-24T10:11:50.000Z</time>
      </trkpt>
      <trkpt lat="47.15443" lon="-1.36056">
        <ele>80</ele>
        <time>2021-04-24T10:11:52.000Z</time>
      </trkpt>
      <trkpt lat="47.1544" lon="-1.36038">
        <ele>80</ele>
        <time>2021-04-24T10:11:54.000Z</time>
      </trkpt>
      <trkpt lat="47.15436" lon="-1.36021">
        <ele>80</ele>
        <time>2021-04-24T10:11:56.000Z</time>
      </trkpt>
      <trkpt lat="47.15432" lon="-1.36004">
        <ele>80</ele>
        <time>2021-04-24T10:11:58.000Z</time>
      </trkpt>
      <trkpt lat="47.15429" lon="-1.35987">
        <ele>80</ele>
        <time>2021-04-24T10:12:00.000Z</time>
      </trkpt>
      <trkpt lat="47.15425" lon="-1.3597">
        <ele>80</ele>
        <time>2021-04-24T10:12:02.000Z</time>
      </trkpt>
      <trkpt lat="47.15422" lon="-1.35953">
        <ele>80</ele>
        <time>2021-04-24T10:12:04.000Z</time>
      </trkpt>
      <trkpt lat="47.15418" lon="-1.35937">
        <ele>81</ele>
        <time>2021-04-24T10:12:06.000Z</time>
      </trkpt>
      <trkpt lat="47.15415" lon="-1.3592">
        <ele>81</ele>
        <time>2021-04-24T10:12:08.000Z</time>
      </trkpt>
      <trkpt lat="47.15411" lon="-1.35903">
        <ele>81</ele>
        <time>2021-04-24T10:12:10.000Z</time>
      </trkpt>
      <trkpt lat="47.15406" lon="-1.35887">
        <ele>81</ele>
        <time>2021-04-24T10:12:12.000Z</time>
      </trkpt>
      <trkpt lat="47.154" lon="-1.35872">
        <ele>82</ele>
        <time>2021-04-24T10:12:14.000Z</time>
      </trkpt>
      <trkpt lat="47.15394" lon="-1.35856">
        <ele>82</ele>
        <time>2021-04-24T10:12:16.000Z</time>
      </trkpt>
      <trkpt lat="47.15388" lon="-1.35842">
        <ele>82</ele>
        <time>2021-04-24T10:12:18.000Z</time>
      </trkpt>
      <trkpt lat="47.15381" lon="-1.35828">
        <ele>82</ele>
        <time>2021-04-24T10:12:20.000Z</time>
      </trkpt>
      <trkpt lat="47.15372" lon="-1.35816">
        <ele>83</ele>
        <time>2021-04-24T10:12:22.000Z</time>
      </trkpt>
      <trkpt lat="47.15364" lon="-1.35804">
        <ele>83</ele>
        <time>2021-04-24T10:12:24.000Z</time>
      </trkpt>
      <trkpt lat="47.15356" lon="-1.35793">
        <ele>83</ele>
        <time>2021-04-24T10:12:26.000Z</time>
      </trkpt>
      <trkpt lat="47.15347" lon="-1.35782">
        <ele>83</ele>
        <time>2021-04-24T10:12:28.000Z</time>
      </trkpt>
      <trkpt lat="47.15339" lon="-1.35771">
        <ele>83</ele>
        <time>2021-04-24T10:12:30.000Z</time>
      </trkpt>
      <trkpt lat="47.15332" lon="-1.35758">
        <ele>83</ele>
        <time>2021-04-24T10:12:32.000Z</time>
      </trkpt>
      <trkpt lat="47.15327" lon="-1.35743">
        <ele>83</ele>
        <time>2021-04-24T10:12:34.000Z</time>
      </trkpt>
      <trkpt lat="47.15325" lon="-1.35727">
        <ele>84</ele>
        <time>2021-04-24T10:12:36.000Z</time>
      </trkpt>
      <trkpt lat="47.15325" lon="-1.3571">
        <ele>83</ele>
        <time>2021-04-24T10:12:38.000Z</time>
      </trkpt>
      <trkpt lat="47.15328" lon="-1.35693">
        <ele>83</ele>
        <time>2021-04-24T10:12:40.000Z</time>
      </trkpt>
      <trkpt lat="47.15333" lon="-1.35677">
        <ele>83</ele>
        <time>2021-04-24T10:12:42.000Z</time>
      </trkpt>
      <trkpt lat="47.1534" lon="-1.35664">
        <ele>82</ele>
        <time>2021-04-24T10:12:44.000Z</time>
      </trkpt>
      <trkpt lat="47.15346" lon="-1.3565">
        <ele>83</ele>
        <time>2021-04-24T10:12:46.000Z</time>
      </trkpt>
      <trkpt lat="47.15352" lon="-1.35637">
        <ele>82</ele>
        <time>2021-04-24T10:12:48.000Z</time>
      </trkpt>
      <trkpt lat="47.15359" lon="-1.35624">
        <ele>82</ele>
        <time>2021-04-24T10:12:50.000Z</time>
      </trkpt>
      <trkpt lat="47.15366" lon="-1.35611">
        <ele>82</ele>
        <time>2021-04-24T10:12:52.000Z</time>
      </trkpt>
      <trkpt lat="47.15373" lon="-1.35598">
        <ele>82</ele>
        <time>2021-04-24T10:12:54.000Z</time>
      </trkpt>
      <trkpt lat="47.1538" lon="-1.35584">
        <ele>82</ele>
        <time>2021-04-24T10:12:56.000Z</time>
      </trkpt>
      <trkpt lat="47.15386" lon="-1.35571">
        <ele>82</ele>
        <time>2021-04-24T10:12:58.000Z</time>
      </trkpt>
      <trkpt lat="47.15393" lon="-1.35557">
        <ele>82</ele>
        <time>2021-04-24T10:13:00.000Z</time>
      </trkpt>
      <trkpt lat="47.15399" lon="-1.35543">
        <ele>82</ele>
        <time>2021-04-24T10:13:02.000Z</time>
      </trkpt>
      <trkpt lat="47.15405" lon="-1.35528">
        <ele>82</ele>
        <time>2021-04-24T10:13:04.000Z</time>
      </trkpt>
      <trkpt lat="47.15409" lon="-1.35512">
        <ele>82</ele>
        <time>2021-04-24T10:13:06.000Z</time>
      </trkpt>
      <trkpt lat="47.15412" lon="-1.35498">
        <ele>82</ele>
        <time>2021-04-24T10:13:08.000Z</time>
      </trkpt>
      <trkpt lat="47.15415" lon="-1.35482">
        <ele>82</ele>
        <time>2021-04-24T10:13:10.000Z</time>
      </trkpt>
      <trkpt lat="47.15419" lon="-1.35467">
        <ele>82</ele>
        <time>2021-04-24T10:13:12.000Z</time>
      </trkpt>
      <trkpt lat="47.15424" lon="-1.35451">
        <ele>82</ele>
        <time>2021-04-24T10:13:14.000Z</time>
      </trkpt>
      <trkpt lat="47.15429" lon="-1.35437">
        <ele>82</ele>
        <time>2021-04-24T10:13:16.000Z</time>
      </trkpt>
      <trkpt lat="47.15435" lon="-1.35422">
        <ele>81</ele>
        <time>2021-04-24T10:13:18.000Z</time>
      </trkpt>
      <trkpt lat="47.15441" lon="-1.35408">
        <ele>81</ele>
        <time>2021-04-24T10:13:20.000Z</time>
      </trkpt>
      <trkpt lat="47.15446" lon="-1.35395">
        <ele>81</ele>
        <time>2021-04-24T10:13:22.000Z</time>
      </trkpt>
      <trkpt lat="47.1545" lon="-1.35381">
        <ele>81</ele>
        <time>2021-04-24T10:13:24.000Z</time>
      </trkpt>
      <trkpt lat="47.15455" lon="-1.35366">
        <ele>82</ele>
        <time>2021-04-24T10:13:26.000Z</time>
      </trkpt>
      <trkpt lat="47.15461" lon="-1.35351">
        <ele>82</ele>
        <time>2021-04-24T10:13:28.000Z</time>
      </trkpt>
      <trkpt lat="47.15466" lon="-1.35336">
        <ele>82</ele>
        <time>2021-04-24T10:13:30.000Z</time>
      </trkpt>
      <trkpt lat="47.15471" lon="-1.35321">
        <ele>82</ele>
        <time>2021-04-24T10:13:32.000Z</time>
      </trkpt>
      <trkpt lat="47.15476" lon="-1.35307">
        <ele>82</ele>
        <time>2021-04-24T10:13:34.000Z</time>
      </trkpt>
      <trkpt lat="47.15482" lon="-1.35293">
        <ele>81</ele>
        <time>2021-04-24T10:13:36.000Z</time>
      </trkpt>
      <trkpt lat="47.15488" lon="-1.3528">
        <ele>81</ele>
        <time>2021-04-24T10:13:38.000Z</time>
      </trkpt>
      <trkpt lat="47.15495" lon="-1.35268">
        <ele>81</ele>
        <time>2021-04-24T10:13:40.000Z</time>
      </trkpt>
      <trkpt lat="47.15501" lon="-1.35254">
        <ele>81</ele>
        <time>2021-04-24T10:13:42.000Z</time>
      </trkpt>
      <trkpt lat="47.15507" lon="-1.3524">
        <ele>81</ele>
        <time>2021-04-24T10:13:44.000Z</time>
      </trkpt>
      <trkpt lat="47.15514" lon="-1.35226">
        <ele>81</ele>
        <time>2021-04-24T10:13:46.000Z</time>
      </trkpt>
      <trkpt lat="47.1552" lon="-1.35213">
        <ele>81</ele>
        <time>2021-04-24T10:13:48.000Z</time>
      </trkpt>
      <trkpt lat="47.15526" lon="-1.35199">
        <ele>81</ele>
        <time>2021-04-24T10:13:50.000Z</time>
      </trkpt>
      <trkpt lat="47.15532" lon="-1.35185">
        <ele>80</ele>
        <time>2021-04-24T10:13:52.000Z</time>
      </trkpt>
      <trkpt lat="47.15538" lon="-1.35171">
        <ele>81</ele>
        <time>2021-04-24T10:13:54.000Z</time>
      </trkpt>
      <trkpt lat="47.15545" lon="-1.35158">
        <ele>81</ele>
        <time>2021-04-24T10:13:56.000Z</time>
      </trkpt>
      <trkpt lat="47.15553" lon="-1.35146">
        <ele>81</ele>
        <time>2021-04-24T10:13:58.000Z</time>
      </trkpt>
      <trkpt lat="47.15562" lon="-1.35138">
        <ele>81</ele>
        <time>2021-04-24T10:14:00.000Z</time>
      </trkpt>
      <trkpt lat="47.15573" lon="-1.35133">
        <ele>82</ele>
        <time>2021-04-24T10:14:02.000Z</time>
      </trkpt>
      <trkpt lat="47.15583" lon="-1.35128">
        <ele>81</ele>
        <time>2021-04-24T10:14:04.000Z</time>
      </trkpt>
      <trkpt lat="47.15589" lon="-1.35112">
        <ele>82</ele>
        <time>2021-04-24T10:14:06.000Z</time>
      </trkpt>
      <trkpt lat="47.15592" lon="-1.35096">
        <ele>81</ele>
        <time>2021-04-24T10:14:08.000Z</time>
      </trkpt>
      <trkpt lat="47.15596" lon="-1.3508">
        <ele>81</ele>
        <time>2021-04-24T10:14:10.000Z</time>
      </trkpt>
      <trkpt lat="47.15599" lon="-1.35063">
        <ele>81</ele>
        <time>2021-04-24T10:14:12.000Z</time>
      </trkpt>
      <trkpt lat="47.15602" lon="-1.35046">
        <ele>81</ele>
        <time>2021-04-24T10:14:14.000Z</time>
      </trkpt>
      <trkpt lat="47.15606" lon="-1.35029">
        <ele>82</ele>
        <time>2021-04-24T10:14:16.000Z</time>
      </trkpt>
      <trkpt lat="47.15611" lon="-1.35013">
        <ele>82</ele>
        <time>2021-04-24T10:14:18.000Z</time>
      </trkpt>
      <trkpt lat="47.15615" lon="-1.34997">
        <ele>81</ele>
        <time>2021-04-24T10:14:20.000Z</time>
      </trkpt>
      <trkpt lat="47.15621" lon="-1.34981">
        <ele>82</ele>
        <time>2021-04-24T10:14:22.000Z</time>
      </trkpt>
      <trkpt lat="47.15627" lon="-1.34966">
        <ele>81</ele>
        <time>2021-04-24T10:14:24.000Z</time>
      </trkpt>
      <trkpt lat="47.15633" lon="-1.34952">
        <ele>81</ele>
        <time>2021-04-24T10:14:26.000Z</time>
      </trkpt>
      <trkpt lat="47.15639" lon="-1.34937">
        <ele>81</ele>
        <time>2021-04-24T10:14:28.000Z</time>
      </trkpt>
      <trkpt lat="47.15643" lon="-1.34921">
        <ele>81</ele>
        <time>2021-04-24T10:14:30.000Z</time>
      </trkpt>
      <trkpt lat="47.15643" lon="-1.34904">
        <ele>81</ele>
        <time>2021-04-24T10:14:32.000Z</time>
      </trkpt>
      <trkpt lat="47.15642" lon="-1.34886">
        <ele>81</ele>
        <time>2021-04-24T10:14:34.000Z</time>
      </trkpt>
      <trkpt lat="47.15641" lon="-1.34869">
        <ele>81</ele>
        <time>2021-04-24T10:14:36.000Z</time>
      </trkpt>
      <trkpt lat="47.15641" lon="-1.34852">
        <ele>81</ele>
        <time>2021-04-24T10:14:38.000Z</time>
      </trkpt>
      <trkpt lat="47.1564" lon="-1.34834">
        <ele>81</ele>
        <time>2021-04-24T10:14:40.000Z</time>
      </trkpt>
      <trkpt lat="47.15639" lon="-1.34818">
        <ele>81</ele>
        <time>2021-04-24T10:14:42.000Z</time>
      </trkpt>
      <trkpt lat="47.15637" lon="-1.34802">
        <ele>81</ele>
        <time>2021-04-24T10:14:44.000Z</time>
      </trkpt>
      <trkpt lat="47.15633" lon="-1.34785">
        <ele>81</ele>
        <time>2021-04-24T10:14:46.000Z</time>
      </trkpt>
      <trkpt lat="47.1563" lon="-1.34769">
        <ele>81</ele>
        <time>2021-04-24T10:14:48.000Z</time>
      </trkpt>
      <trkpt lat="47.15626" lon="-1.34752">
        <ele>82</ele>
        <time>2021-04-24T10:14:50.000Z</time>
      </trkpt>
      <trkpt lat="47.15623" lon="-1.34735">
        <ele>82</ele>
        <time>2021-04-24T10:14:52.000Z</time>
      </trkpt>
      <trkpt lat="47.15622" lon="-1.34719">
        <ele>82</ele>
        <time>2021-04-24T10:14:54.000Z</time>
      </trkpt>
      <trkpt lat="47.15622" lon="-1.34701">
        <ele>82</ele>
        <time>2021-04-24T10:14:56.000Z</time>
      </trkpt>
      <trkpt lat="47.15624" lon="-1.34683">
        <ele>81</ele>
        <time>2021-04-24T10:14:58.000Z</time>
      </trkpt>
      <trkpt lat="47.15625" lon="-1.34666">
        <ele>81</ele>
        <time>2021-04-24T10:15:00.000Z</time>
      </trkpt>
      <trkpt lat="47.15626" lon="-1.34649">
        <ele>81</ele>
        <time>2021-04-24T10:15:02.000Z</time>
      </trkpt>
      <trkpt lat="47.15628" lon="-1.34632">
        <ele>81</ele>
        <time>2021-04-24T10:15:04.000Z</time>
      </trkpt>
      <trkpt lat="47.15629" lon="-1.34614">
        <ele>82</ele>
        <time>2021-04-24T10:15:06.000Z</time>
      </trkpt>
      <trkpt lat="47.1563" lon="-1.34597">
        <ele>81</ele>
        <time>2021-04-24T10:15:08.000Z</time>
      </trkpt>
      <trkpt lat="47.15631" lon="-1.3458">
        <ele>81</ele>
        <time>2021-04-24T10:15:10.000Z</time>
      </trkpt>
      <trkpt lat="47.15633" lon="-1.34563">
        <ele>82</ele>
        <time>2021-04-24T10:15:12.000Z</time>
      </trkpt>
      <trkpt lat="47.15634" lon="-1.34547">
        <ele>82</ele>
        <time>2021-04-24T10:15:14.000Z</time>
      </trkpt>
      <trkpt lat="47.15635" lon="-1.34531">
        <ele>82</ele>
        <time>2021-04-24T10:15:16.000Z</time>
      </trkpt>
      <trkpt lat="47.15637" lon="-1.34515">
        <ele>83</ele>
        <time>2021-04-24T10:15:18.000Z</time>
      </trkpt>
      <trkpt lat="47.15638" lon="-1.345">
        <ele>83</ele>
        <time>2021-04-24T10:15:20.000Z</time>
      </trkpt>
      <trkpt lat="47.15639" lon="-1.34486">
        <ele>83</ele>
        <time>2021-04-24T10:15:22.000Z</time>
      </trkpt>
      <trkpt lat="47.15639" lon="-1.34468">
        <ele>83</ele>
        <time>2021-04-24T10:15:25.000Z</time>
      </trkpt>
      <trkpt lat="47.15648" lon="-1.34453">
        <ele>84</ele>
        <time>2021-04-24T10:15:28.000Z</time>
      </trkpt>
      <trkpt lat="47.15658" lon="-1.34445">
        <ele>84</ele>
        <time>2021-04-24T10:15:30.000Z</time>
      </trkpt>
      <trkpt lat="47.15668" lon="-1.34436">
        <ele>83</ele>
        <time>2021-04-24T10:15:32.000Z</time>
      </trkpt>
      <trkpt lat="47.15678" lon="-1.34425">
        <ele>83</ele>
        <time>2021-04-24T10:15:34.000Z</time>
      </trkpt>
      <trkpt lat="47.15687" lon="-1.34413">
        <ele>83</ele>
        <time>2021-04-24T10:15:36.000Z</time>
      </trkpt>
      <trkpt lat="47.15695" lon="-1.34401">
        <ele>83</ele>
        <time>2021-04-24T10:15:38.000Z</time>
      </trkpt>
      <trkpt lat="47.15704" lon="-1.34391">
        <ele>83</ele>
        <time>2021-04-24T10:15:40.000Z</time>
      </trkpt>
      <trkpt lat="47.15712" lon="-1.3438">
        <ele>83</ele>
        <time>2021-04-24T10:15:42.000Z</time>
      </trkpt>
      <trkpt lat="47.1572" lon="-1.34369">
        <ele>83</ele>
        <time>2021-04-24T10:15:44.000Z</time>
      </trkpt>
      <trkpt lat="47.15728" lon="-1.34359">
        <ele>84</ele>
        <time>2021-04-24T10:15:46.000Z</time>
      </trkpt>
      <trkpt lat="47.15738" lon="-1.34349">
        <ele>83</ele>
        <time>2021-04-24T10:15:48.000Z</time>
      </trkpt>
      <trkpt lat="47.15746" lon="-1.3434">
        <ele>84</ele>
        <time>2021-04-24T10:15:50.000Z</time>
      </trkpt>
      <trkpt lat="47.15755" lon="-1.34331">
        <ele>84</ele>
        <time>2021-04-24T10:15:52.000Z</time>
      </trkpt>
      <trkpt lat="47.15764" lon="-1.34323">
        <ele>84</ele>
        <time>2021-04-24T10:15:54.000Z</time>
      </trkpt>
      <trkpt lat="47.15772" lon="-1.34315">
        <ele>85</ele>
        <time>2021-04-24T10:15:56.000Z</time>
      </trkpt>
      <trkpt lat="47.15781" lon="-1.34307">
        <ele>85</ele>
        <time>2021-04-24T10:15:58.000Z</time>
      </trkpt>
      <trkpt lat="47.15789" lon="-1.343">
        <ele>86</ele>
        <time>2021-04-24T10:16:00.000Z</time>
      </trkpt>
      <trkpt lat="47.15797" lon="-1.34293">
        <ele>86</ele>
        <time>2021-04-24T10:16:02.000Z</time>
      </trkpt>
      <trkpt lat="47.15806" lon="-1.34287">
        <ele>86</ele>
        <time>2021-04-24T10:16:04.000Z</time>
      </trkpt>
      <trkpt lat="47.15814" lon="-1.3428">
        <ele>87</ele>
        <time>2021-04-24T10:16:06.000Z</time>
      </trkpt>
      <trkpt lat="47.15823" lon="-1.34274">
        <ele>87</ele>
        <time>2021-04-24T10:16:08.000Z</time>
      </trkpt>
      <trkpt lat="47.15832" lon="-1.34268">
        <ele>87</ele>
        <time>2021-04-24T10:16:10.000Z</time>
      </trkpt>
      <trkpt lat="47.1584" lon="-1.34262">
        <ele>88</ele>
        <time>2021-04-24T10:16:12.000Z</time>
      </trkpt>
      <trkpt lat="47.15852" lon="-1.34254">
        <ele>88</ele>
        <time>2021-04-24T10:16:15.000Z</time>
      </trkpt>
      <trkpt lat="47.15861" lon="-1.34248">
        <ele>89</ele>
        <time>2021-04-24T10:16:17.000Z</time>
      </trkpt>
      <trkpt lat="47.15871" lon="-1.34243">
        <ele>89</ele>
        <time>2021-04-24T10:16:19.000Z</time>
      </trkpt>
      <trkpt lat="47.15879" lon="-1.34238">
        <ele>89</ele>
        <time>2021-04-24T10:16:21.000Z</time>
      </trkpt>
      <trkpt lat="47.15888" lon="-1.34233">
        <ele>89</ele>
        <time>2021-04-24T10:16:23.000Z</time>
      </trkpt>
      <trkpt lat="47.15897" lon="-1.34228">
        <ele>89</ele>
        <time>2021-04-24T10:16:25.000Z</time>
      </trkpt>
      <trkpt lat="47.15907" lon="-1.34223">
        <ele>89</ele>
        <time>2021-04-24T10:16:27.000Z</time>
      </trkpt>
      <trkpt lat="47.15916" lon="-1.34217">
        <ele>89</ele>
        <time>2021-04-24T10:16:29.000Z</time>
      </trkpt>
      <trkpt lat="47.15925" lon="-1.34212">
        <ele>88</ele>
        <time>2021-04-24T10:16:31.000Z</time>
      </trkpt>
      <trkpt lat="47.15935" lon="-1.34206">
        <ele>88</ele>
        <time>2021-04-24T10:16:33.000Z</time>
      </trkpt>
      <trkpt lat="47.15945" lon="-1.34202">
        <ele>88</ele>
        <time>2021-04-24T10:16:35.000Z</time>
      </trkpt>
      <trkpt lat="47.15955" lon="-1.34196">
        <ele>88</ele>
        <time>2021-04-24T10:16:37.000Z</time>
      </trkpt>
      <trkpt lat="47.15965" lon="-1.3419">
        <ele>87</ele>
        <time>2021-04-24T10:16:39.000Z</time>
      </trkpt>
      <trkpt lat="47.15976" lon="-1.34184">
        <ele>87</ele>
        <time>2021-04-24T10:16:41.000Z</time>
      </trkpt>
      <trkpt lat="47.15986" lon="-1.34179">
        <ele>87</ele>
        <time>2021-04-24T10:16:43.000Z</time>
      </trkpt>
      <trkpt lat="47.15996" lon="-1.34173">
        <ele>87</ele>
        <time>2021-04-24T10:16:45.000Z</time>
      </trkpt>
      <trkpt lat="47.16007" lon="-1.34168">
        <ele>86</ele>
        <time>2021-04-24T10:16:47.000Z</time>
      </trkpt>
      <trkpt lat="47.16017" lon="-1.34163">
        <ele>86</ele>
        <time>2021-04-24T10:16:49.000Z</time>
      </trkpt>
      <trkpt lat="47.16028" lon="-1.34159">
        <ele>86</ele>
        <time>2021-04-24T10:16:51.000Z</time>
      </trkpt>
      <trkpt lat="47.16038" lon="-1.34155">
        <ele>85</ele>
        <time>2021-04-24T10:16:53.000Z</time>
      </trkpt>
      <trkpt lat="47.16049" lon="-1.34151">
        <ele>85</ele>
        <time>2021-04-24T10:16:55.000Z</time>
      </trkpt>
      <trkpt lat="47.16061" lon="-1.34148">
        <ele>85</ele>
        <time>2021-04-24T10:16:57.000Z</time>
      </trkpt>
      <trkpt lat="47.16072" lon="-1.34145">
        <ele>84</ele>
        <time>2021-04-24T10:16:59.000Z</time>
      </trkpt>
      <trkpt lat="47.16083" lon="-1.34142">
        <ele>84</ele>
        <time>2021-04-24T10:17:01.000Z</time>
      </trkpt>
      <trkpt lat="47.16094" lon="-1.34139">
        <ele>84</ele>
        <time>2021-04-24T10:17:03.000Z</time>
      </trkpt>
      <trkpt lat="47.16105" lon="-1.34137">
        <ele>84</ele>
        <time>2021-04-24T10:17:05.000Z</time>
      </trkpt>
      <trkpt lat="47.16115" lon="-1.34135">
        <ele>84</ele>
        <time>2021-04-24T10:17:07.000Z</time>
      </trkpt>
      <trkpt lat="47.16125" lon="-1.34134">
        <ele>84</ele>
        <time>2021-04-24T10:17:09.000Z</time>
      </trkpt>
      <trkpt lat="47.16136" lon="-1.34133">
        <ele>84</ele>
        <time>2021-04-24T10:17:11.000Z</time>
      </trkpt>
      <trkpt lat="47.16147" lon="-1.34132">
        <ele>84</ele>
        <time>2021-04-24T10:17:13.000Z</time>
      </trkpt>
      <trkpt lat="47.16158" lon="-1.34132">
        <ele>84</ele>
        <time>2021-04-24T10:17:15.000Z</time>
      </trkpt>
      <trkpt lat="47.1617" lon="-1.34132">
        <ele>84</ele>
        <time>2021-04-24T10:17:17.000Z</time>
      </trkpt>
      <trkpt lat="47.16181" lon="-1.34131">
        <ele>84</ele>
        <time>2021-04-24T10:17:19.000Z</time>
      </trkpt>
      <trkpt lat="47.16193" lon="-1.34132">
        <ele>83</ele>
        <time>2021-04-24T10:17:21.000Z</time>
      </trkpt>
      <trkpt lat="47.16205" lon="-1.34132">
        <ele>83</ele>
        <time>2021-04-24T10:17:23.000Z</time>
      </trkpt>
      <trkpt lat="47.16217" lon="-1.34133">
        <ele>82</ele>
        <time>2021-04-24T10:17:25.000Z</time>
      </trkpt>
      <trkpt lat="47.16229" lon="-1.34134">
        <ele>82</ele>
        <time>2021-04-24T10:17:27.000Z</time>
      </trkpt>
      <trkpt lat="47.16242" lon="-1.34134">
        <ele>81</ele>
        <time>2021-04-24T10:17:29.000Z</time>
      </trkpt>
      <trkpt lat="47.16254" lon="-1.34135">
        <ele>81</ele>
        <time>2021-04-24T10:17:31.000Z</time>
      </trkpt>
      <trkpt lat="47.16267" lon="-1.34136">
        <ele>81</ele>
        <time>2021-04-24T10:17:33.000Z</time>
      </trkpt>
      <trkpt lat="47.1628" lon="-1.34137">
        <ele>80</ele>
        <time>2021-04-24T10:17:35.000Z</time>
      </trkpt>
      <trkpt lat="47.16293" lon="-1.34138">
        <ele>80</ele>
        <time>2021-04-24T10:17:37.000Z</time>
      </trkpt>
      <trkpt lat="47.16305" lon="-1.34139">
        <ele>80</ele>
        <time>2021-04-24T10:17:39.000Z</time>
      </trkpt>
      <trkpt lat="47.16319" lon="-1.34141">
        <ele>80</ele>
        <time>2021-04-24T10:17:41.000Z</time>
      </trkpt>
      <trkpt lat="47.16331" lon="-1.34141">
        <ele>79</ele>
        <time>2021-04-24T10:17:43.000Z</time>
      </trkpt>
      <trkpt lat="47.16345" lon="-1.34141">
        <ele>79</ele>
        <time>2021-04-24T10:17:45.000Z</time>
      </trkpt>
      <trkpt lat="47.16358" lon="-1.3414">
        <ele>79</ele>
        <time>2021-04-24T10:17:47.000Z</time>
      </trkpt>
      <trkpt lat="47.16371" lon="-1.34138">
        <ele>78</ele>
        <time>2021-04-24T10:17:49.000Z</time>
      </trkpt>
      <trkpt lat="47.16384" lon="-1.34135">
        <ele>78</ele>
        <time>2021-04-24T10:17:51.000Z</time>
      </trkpt>
      <trkpt lat="47.16396" lon="-1.34133">
        <ele>78</ele>
        <time>2021-04-24T10:17:53.000Z</time>
      </trkpt>
      <trkpt lat="47.16409" lon="-1.34131">
        <ele>78</ele>
        <time>2021-04-24T10:17:55.000Z</time>
      </trkpt>
      <trkpt lat="47.16422" lon="-1.3413">
        <ele>78</ele>
        <time>2021-04-24T10:17:57.000Z</time>
      </trkpt>
      <trkpt lat="47.16434" lon="-1.3413">
        <ele>77</ele>
        <time>2021-04-24T10:17:59.000Z</time>
      </trkpt>
      <trkpt lat="47.16447" lon="-1.3413">
        <ele>77</ele>
        <time>2021-04-24T10:18:01.000Z</time>
      </trkpt>
      <trkpt lat="47.1646" lon="-1.34131">
        <ele>77</ele>
        <time>2021-04-24T10:18:03.000Z</time>
      </trkpt>
      <trkpt lat="47.16473" lon="-1.34132">
        <ele>77</ele>
        <time>2021-04-24T10:18:05.000Z</time>
      </trkpt>
      <trkpt lat="47.16486" lon="-1.34133">
        <ele>77</ele>
        <time>2021-04-24T10:18:07.000Z</time>
      </trkpt>
      <trkpt lat="47.16499" lon="-1.34134">
        <ele>77</ele>
        <time>2021-04-24T10:18:09.000Z</time>
      </trkpt>
      <trkpt lat="47.16511" lon="-1.34136">
        <ele>76</ele>
        <time>2021-04-24T10:18:11.000Z</time>
      </trkpt>
      <trkpt lat="47.16524" lon="-1.34137">
        <ele>76</ele>
        <time>2021-04-24T10:18:13.000Z</time>
      </trkpt>
      <trkpt lat="47.16538" lon="-1.34138">
        <ele>76</ele>
        <time>2021-04-24T10:18:15.000Z</time>
      </trkpt>
      <trkpt lat="47.16551" lon="-1.3414">
        <ele>75</ele>
        <time>2021-04-24T10:18:17.000Z</time>
      </trkpt>
      <trkpt lat="47.16565" lon="-1.34141">
        <ele>75</ele>
        <time>2021-04-24T10:18:19.000Z</time>
      </trkpt>
      <trkpt lat="47.16577" lon="-1.34142">
        <ele>74</ele>
        <time>2021-04-24T10:18:21.000Z</time>
      </trkpt>
      <trkpt lat="47.16591" lon="-1.34145">
        <ele>74</ele>
        <time>2021-04-24T10:18:23.000Z</time>
      </trkpt>
      <trkpt lat="47.16603" lon="-1.34143">
        <ele>74</ele>
        <time>2021-04-24T10:18:25.000Z</time>
      </trkpt>
      <trkpt lat="47.16609" lon="-1.34128">
        <ele>74</ele>
        <time>2021-04-24T10:18:27.000Z</time>
      </trkpt>
      <trkpt lat="47.16607" lon="-1.3411">
        <ele>74</ele>
        <time>2021-04-24T10:18:29.000Z</time>
      </trkpt>
      <trkpt lat="47.16602" lon="-1.34095">
        <ele>74</ele>
        <time>2021-04-24T10:18:31.000Z</time>
      </trkpt>
      <trkpt lat="47.16597" lon="-1.34079">
        <ele>74</ele>
        <time>2021-04-24T10:18:33.000Z</time>
      </trkpt>
      <trkpt lat="47.16592" lon="-1.34063">
        <ele>74</ele>
        <time>2021-04-24T10:18:35.000Z</time>
      </trkpt>
      <trkpt lat="47.16587" lon="-1.34047">
        <ele>74</ele>
        <time>2021-04-24T10:18:37.000Z</time>
      </trkpt>
      <trkpt lat="47.16582" lon="-1.34032">
        <ele>74</ele>
        <time>2021-04-24T10:18:39.000Z</time>
      </trkpt>
      <trkpt lat="47.16577" lon="-1.34017">
        <ele>74</ele>
        <time>2021-04-24T10:18:41.000Z</time>
      </trkpt>
      <trkpt lat="47.16572" lon="-1.34002">
        <ele>74</ele>
        <time>2021-04-24T10:18:43.000Z</time>
      </trkpt>
      <trkpt lat="47.16568" lon="-1.33986">
        <ele>74</ele>
        <time>2021-04-24T10:18:45.000Z</time>
      </trkpt>
      <trkpt lat="47.16563" lon="-1.3397">
        <ele>75</ele>
        <time>2021-04-24T10:18:47.000Z</time>
      </trkpt>
      <trkpt lat="47.16558" lon="-1.33955">
        <ele>75</ele>
        <time>2021-04-24T10:18:49.000Z</time>
      </trkpt>
      <trkpt lat="47.16553" lon="-1.33939">
        <ele>74</ele>
        <time>2021-04-24T10:18:51.000Z</time>
      </trkpt>
      <trkpt lat="47.16548" lon="-1.33924">
        <ele>74</ele>
        <time>2021-04-24T10:18:53.000Z</time>
      </trkpt>
      <trkpt lat="47.16544" lon="-1.33908">
        <ele>74</ele>
        <time>2021-04-24T10:18:55.000Z</time>
      </trkpt>
      <trkpt lat="47.16538" lon="-1.33893">
        <ele>74</ele>
        <time>2021-04-24T10:18:57.000Z</time>
      </trkpt>
      <trkpt lat="47.16533" lon="-1.33877">
        <ele>75</ele>
        <time>2021-04-24T10:18:59.000Z</time>
      </trkpt>
      <trkpt lat="47.16528" lon="-1.33861">
        <ele>75</ele>
        <time>2021-04-24T10:19:01.000Z</time>
      </trkpt>
      <trkpt lat="47.16524" lon="-1.33845">
        <ele>74</ele>
        <time>2021-04-24T10:19:03.000Z</time>
      </trkpt>
      <trkpt lat="47.16519" lon="-1.33829">
        <ele>75</ele>
        <time>2021-04-24T10:19:05.000Z</time>
      </trkpt>
      <trkpt lat="47.16513" lon="-1.33814">
        <ele>75</ele>
        <time>2021-04-24T10:19:07.000Z</time>
      </trkpt>
      <trkpt lat="47.16507" lon="-1.33799">
        <ele>75</ele>
        <time>2021-04-24T10:19:09.000Z</time>
      </trkpt>
      <trkpt lat="47.16501" lon="-1.33784">
        <ele>75</ele>
        <time>2021-04-24T10:19:11.000Z</time>
      </trkpt>
      <trkpt lat="47.16493" lon="-1.33771">
        <ele>75</ele>
        <time>2021-04-24T10:19:13.000Z</time>
      </trkpt>
      <trkpt lat="47.16485" lon="-1.3376">
        <ele>75</ele>
        <time>2021-04-24T10:19:15.000Z</time>
      </trkpt>
      <trkpt lat="47.16475" lon="-1.33751">
        <ele>75</ele>
        <time>2021-04-24T10:19:17.000Z</time>
      </trkpt>
      <trkpt lat="47.16464" lon="-1.33743">
        <ele>76</ele>
        <time>2021-04-24T10:19:19.000Z</time>
      </trkpt>
      <trkpt lat="47.16454" lon="-1.33736">
        <ele>76</ele>
        <time>2021-04-24T10:19:21.000Z</time>
      </trkpt>
      <trkpt lat="47.16444" lon="-1.33729">
        <ele>76</ele>
        <time>2021-04-24T10:19:23.000Z</time>
      </trkpt>
      <trkpt lat="47.16434" lon="-1.3372">
        <ele>76</ele>
        <time>2021-04-24T10:19:25.000Z</time>
      </trkpt>
      <trkpt lat="47.16424" lon="-1.33709">
        <ele>75</ele>
        <time>2021-04-24T10:19:27.000Z</time>
      </trkpt>
      <trkpt lat="47.16417" lon="-1.33696">
        <ele>75</ele>
        <time>2021-04-24T10:19:29.000Z</time>
      </trkpt>
      <trkpt lat="47.1641" lon="-1.33682">
        <ele>75</ele>
        <time>2021-04-24T10:19:31.000Z</time>
      </trkpt>
      <trkpt lat="47.16404" lon="-1.33668">
        <ele>74</ele>
        <time>2021-04-24T10:19:33.000Z</time>
      </trkpt>
      <trkpt lat="47.16399" lon="-1.33654">
        <ele>75</ele>
        <time>2021-04-24T10:19:35.000Z</time>
      </trkpt>
      <trkpt lat="47.16394" lon="-1.3364">
        <ele>75</ele>
        <time>2021-04-24T10:19:37.000Z</time>
      </trkpt>
      <trkpt lat="47.16389" lon="-1.33626">
        <ele>75</ele>
        <time>2021-04-24T10:19:39.000Z</time>
      </trkpt>
      <trkpt lat="47.16384" lon="-1.33612">
        <ele>75</ele>
        <time>2021-04-24T10:19:41.000Z</time>
      </trkpt>
      <trkpt lat="47.16379" lon="-1.33598">
        <ele>75</ele>
        <time>2021-04-24T10:19:43.000Z</time>
      </trkpt>
      <trkpt lat="47.16374" lon="-1.33583">
        <ele>75</ele>
        <time>2021-04-24T10:19:45.000Z</time>
      </trkpt>
      <trkpt lat="47.16368" lon="-1.33569">
        <ele>75</ele>
        <time>2021-04-24T10:19:47.000Z</time>
      </trkpt>
      <trkpt lat="47.16361" lon="-1.33555">
        <ele>75</ele>
        <time>2021-04-24T10:19:49.000Z</time>
      </trkpt>
      <trkpt lat="47.16354" lon="-1.33542">
        <ele>75</ele>
        <time>2021-04-24T10:19:51.000Z</time>
      </trkpt>
      <trkpt lat="47.16346" lon="-1.33531">
        <ele>75</ele>
        <time>2021-04-24T10:19:53.000Z</time>
      </trkpt>
      <trkpt lat="47.16336" lon="-1.33523">
        <ele>76</ele>
        <time>2021-04-24T10:19:55.000Z</time>
      </trkpt>
      <trkpt lat="47.16326" lon="-1.33514">
        <ele>76</ele>
        <time>2021-04-24T10:19:57.000Z</time>
      </trkpt>
      <trkpt lat="47.16318" lon="-1.33503">
        <ele>77</ele>
        <time>2021-04-24T10:19:59.000Z</time>
      </trkpt>
      <trkpt lat="47.16311" lon="-1.33493">
        <ele>77</ele>
        <time>2021-04-24T10:20:01.000Z</time>
      </trkpt>
      <trkpt lat="47.16305" lon="-1.33482">
        <ele>77</ele>
        <time>2021-04-24T10:20:03.000Z</time>
      </trkpt>
      <trkpt lat="47.163" lon="-1.3347">
        <ele>76</ele>
        <time>2021-04-24T10:20:05.000Z</time>
      </trkpt>
      <trkpt lat="47.16295" lon="-1.33457">
        <ele>77</ele>
        <time>2021-04-24T10:20:07.000Z</time>
      </trkpt>
      <trkpt lat="47.1629" lon="-1.33445">
        <ele>77</ele>
        <time>2021-04-24T10:20:09.000Z</time>
      </trkpt>
      <trkpt lat="47.16284" lon="-1.33432">
        <ele>77</ele>
        <time>2021-04-24T10:20:11.000Z</time>
      </trkpt>
      <trkpt lat="47.1628" lon="-1.3342">
        <ele>77</ele>
        <time>2021-04-24T10:20:13.000Z</time>
      </trkpt>
      <trkpt lat="47.16274" lon="-1.33407">
        <ele>77</ele>
        <time>2021-04-24T10:20:15.000Z</time>
      </trkpt>
      <trkpt lat="47.16268" lon="-1.33394">
        <ele>78</ele>
        <time>2021-04-24T10:20:17.000Z</time>
      </trkpt>
      <trkpt lat="47.16261" lon="-1.33383">
        <ele>79</ele>
        <time>2021-04-24T10:20:19.000Z</time>
      </trkpt>
      <trkpt lat="47.16253" lon="-1.33374">
        <ele>79</ele>
        <time>2021-04-24T10:20:21.000Z</time>
      </trkpt>
      <trkpt lat="47.16244" lon="-1.33366">
        <ele>79</ele>
        <time>2021-04-24T10:20:23.000Z</time>
      </trkpt>
      <trkpt lat="47.16235" lon="-1.33359">
        <ele>79</ele>
        <time>2021-04-24T10:20:25.000Z</time>
      </trkpt>
      <trkpt lat="47.16227" lon="-1.33352">
        <ele>79</ele>
        <time>2021-04-24T10:20:27.000Z</time>
      </trkpt>
      <trkpt lat="47.16218" lon="-1.33346">
        <ele>79</ele>
        <time>2021-04-24T10:20:29.000Z</time>
      </trkpt>
      <trkpt lat="47.1621" lon="-1.3334">
        <ele>80</ele>
        <time>2021-04-24T10:20:31.000Z</time>
      </trkpt>
      <trkpt lat="47.16201" lon="-1.33334">
        <ele>79</ele>
        <time>2021-04-24T10:20:33.000Z</time>
      </trkpt>
      <trkpt lat="47.16192" lon="-1.33324">
        <ele>80</ele>
        <time>2021-04-24T10:20:35.000Z</time>
      </trkpt>
      <trkpt lat="47.16183" lon="-1.33313">
        <ele>80</ele>
        <time>2021-04-24T10:20:37.000Z</time>
      </trkpt>
      <trkpt lat="47.16175" lon="-1.33302">
        <ele>80</ele>
        <time>2021-04-24T10:20:39.000Z</time>
      </trkpt>
      <trkpt lat="47.16167" lon="-1.33291">
        <ele>81</ele>
        <time>2021-04-24T10:20:41.000Z</time>
      </trkpt>
      <trkpt lat="47.16161" lon="-1.3328">
        <ele>81</ele>
        <time>2021-04-24T10:20:43.000Z</time>
      </trkpt>
      <trkpt lat="47.16153" lon="-1.33269">
        <ele>81</ele>
        <time>2021-04-24T10:20:45.000Z</time>
      </trkpt>
      <trkpt lat="47.16146" lon="-1.33258">
        <ele>82</ele>
        <time>2021-04-24T10:20:47.000Z</time>
      </trkpt>
      <trkpt lat="47.16139" lon="-1.33247">
        <ele>82</ele>
        <time>2021-04-24T10:20:49.000Z</time>
      </trkpt>
      <trkpt lat="47.16132" lon="-1.33236">
        <ele>82</ele>
        <time>2021-04-24T10:20:51.000Z</time>
      </trkpt>
      <trkpt lat="47.16124" lon="-1.33224">
        <ele>82</ele>
        <time>2021-04-24T10:20:53.000Z</time>
      </trkpt>
      <trkpt lat="47.16117" lon="-1.33213">
        <ele>83</ele>
        <time>2021-04-24T10:20:55.000Z</time>
      </trkpt>
      <trkpt lat="47.1611" lon="-1.33202">
        <ele>82</ele>
        <time>2021-04-24T10:20:57.000Z</time>
      </trkpt>
      <trkpt lat="47.16102" lon="-1.33191">
        <ele>82</ele>
        <time>2021-04-24T10:20:59.000Z</time>
      </trkpt>
      <trkpt lat="47.16094" lon="-1.3318">
        <ele>82</ele>
        <time>2021-04-24T10:21:01.000Z</time>
      </trkpt>
      <trkpt lat="47.16087" lon="-1.33168">
        <ele>82</ele>
        <time>2021-04-24T10:21:03.000Z</time>
      </trkpt>
      <trkpt lat="47.16079" lon="-1.33156">
        <ele>82</ele>
        <time>2021-04-24T10:21:05.000Z</time>
      </trkpt>
      <trkpt lat="47.16072" lon="-1.33145">
        <ele>82</ele>
        <time>2021-04-24T10:21:07.000Z</time>
      </trkpt>
      <trkpt lat="47.16064" lon="-1.33133">
        <ele>83</ele>
        <time>2021-04-24T10:21:09.000Z</time>
      </trkpt>
      <trkpt lat="47.16057" lon="-1.33121">
        <ele>82</ele>
        <time>2021-04-24T10:21:11.000Z</time>
      </trkpt>
      <trkpt lat="47.1605" lon="-1.33108">
        <ele>82</ele>
        <time>2021-04-24T10:21:13.000Z</time>
      </trkpt>
      <trkpt lat="47.16045" lon="-1.33095">
        <ele>82</ele>
        <time>2021-04-24T10:21:15.000Z</time>
      </trkpt>
      <trkpt lat="47.16038" lon="-1.33082">
        <ele>82</ele>
        <time>2021-04-24T10:21:17.000Z</time>
      </trkpt>
      <trkpt lat="47.16033" lon="-1.33069">
        <ele>81</ele>
        <time>2021-04-24T10:21:19.000Z</time>
      </trkpt>
      <trkpt lat="47.16027" lon="-1.33055">
        <ele>81</ele>
        <time>2021-04-24T10:21:21.000Z</time>
      </trkpt>
      <trkpt lat="47.16021" lon="-1.33042">
        <ele>81</ele>
        <time>2021-04-24T10:21:23.000Z</time>
      </trkpt>
      <trkpt lat="47.16016" lon="-1.33028">
        <ele>82</ele>
        <time>2021-04-24T10:21:25.000Z</time>
      </trkpt>
      <trkpt lat="47.16009" lon="-1.33015">
        <ele>81</ele>
        <time>2021-04-24T10:21:27.000Z</time>
      </trkpt>
      <trkpt lat="47.16003" lon="-1.33002">
        <ele>81</ele>
        <time>2021-04-24T10:21:29.000Z</time>
      </trkpt>
      <trkpt lat="47.15997" lon="-1.32989">
        <ele>82</ele>
        <time>2021-04-24T10:21:31.000Z</time>
      </trkpt>
      <trkpt lat="47.15991" lon="-1.32976">
        <ele>82</ele>
        <time>2021-04-24T10:21:33.000Z</time>
      </trkpt>
      <trkpt lat="47.15984" lon="-1.32964">
        <ele>81</ele>
        <time>2021-04-24T10:21:35.000Z</time>
      </trkpt>
      <trkpt lat="47.15978" lon="-1.32951">
        <ele>82</ele>
        <time>2021-04-24T10:21:37.000Z</time>
      </trkpt>
      <trkpt lat="47.1597" lon="-1.32939">
        <ele>82</ele>
        <time>2021-04-24T10:21:39.000Z</time>
      </trkpt>
      <trkpt lat="47.15963" lon="-1.32926">
        <ele>82</ele>
        <time>2021-04-24T10:21:41.000Z</time>
      </trkpt>
      <trkpt lat="47.15956" lon="-1.32912">
        <ele>82</ele>
        <time>2021-04-24T10:21:43.000Z</time>
      </trkpt>
      <trkpt lat="47.15948" lon="-1.32899">
        <ele>82</ele>
        <time>2021-04-24T10:21:45.000Z</time>
      </trkpt>
      <trkpt lat="47.1594" lon="-1.32885">
        <ele>82</ele>
        <time>2021-04-24T10:21:47.000Z</time>
      </trkpt>
      <trkpt lat="47.15932" lon="-1.32871">
        <ele>82</ele>
        <time>2021-04-24T10:21:49.000Z</time>
      </trkpt>
      <trkpt lat="47.15925" lon="-1.32857">
        <ele>82</ele>
        <time>2021-04-24T10:21:51.000Z</time>
      </trkpt>
      <trkpt lat="47.15918" lon="-1.32843">
        <ele>82</ele>
        <time>2021-04-24T10:21:53.000Z</time>
      </trkpt>
      <trkpt lat="47.15912" lon="-1.32828">
        <ele>82</ele>
        <time>2021-04-24T10:21:55.000Z</time>
      </trkpt>
      <trkpt lat="47.15909" lon="-1.32812">
        <ele>82</ele>
        <time>2021-04-24T10:21:57.000Z</time>
      </trkpt>
      <trkpt lat="47.15909" lon="-1.32795">
        <ele>82</ele>
        <time>2021-04-24T10:21:59.000Z</time>
      </trkpt>
      <trkpt lat="47.15909" lon="-1.32778">
        <ele>82</ele>
        <time>2021-04-24T10:22:01.000Z</time>
      </trkpt>
      <trkpt lat="47.1591" lon="-1.3276">
        <ele>81</ele>
        <time>2021-04-24T10:22:03.000Z</time>
      </trkpt>
      <trkpt lat="47.15912" lon="-1.32742">
        <ele>81</ele>
        <time>2021-04-24T10:22:05.000Z</time>
      </trkpt>
      <trkpt lat="47.15914" lon="-1.32725">
        <ele>81</ele>
        <time>2021-04-24T10:22:07.000Z</time>
      </trkpt>
      <trkpt lat="47.15916" lon="-1.32709">
        <ele>81</ele>
        <time>2021-04-24T10:22:09.000Z</time>
      </trkpt>
      <trkpt lat="47.15918" lon="-1.32692">
        <ele>81</ele>
        <time>2021-04-24T10:22:11.000Z</time>
      </trkpt>
      <trkpt lat="47.1592" lon="-1.32675">
        <ele>81</ele>
        <time>2021-04-24T10:22:13.000Z</time>
      </trkpt>
      <trkpt lat="47.15921" lon="-1.32659">
        <ele>81</ele>
        <time>2021-04-24T10:22:15.000Z</time>
      </trkpt>
      <trkpt lat="47.15921" lon="-1.32642">
        <ele>81</ele>
        <time>2021-04-24T10:22:17.000Z</time>
      </trkpt>
      <trkpt lat="47.15921" lon="-1.32626">
        <ele>80</ele>
        <time>2021-04-24T10:22:19.000Z</time>
      </trkpt>
      <trkpt lat="47.15918" lon="-1.3261">
        <ele>80</ele>
        <time>2021-04-24T10:22:21.000Z</time>
      </trkpt>
      <trkpt lat="47.15914" lon="-1.32595">
        <ele>80</ele>
        <time>2021-04-24T10:22:23.000Z</time>
      </trkpt>
      <trkpt lat="47.15911" lon="-1.3258">
        <ele>81</ele>
        <time>2021-04-24T10:22:25.000Z</time>
      </trkpt>
      <trkpt lat="47.15907" lon="-1.32565">
        <ele>80</ele>
        <time>2021-04-24T10:22:27.000Z</time>
      </trkpt>
      <trkpt lat="47.15903" lon="-1.32549">
        <ele>80</ele>
        <time>2021-04-24T10:22:29.000Z</time>
      </trkpt>
      <trkpt lat="47.159" lon="-1.32535">
        <ele>80</ele>
        <time>2021-04-24T10:22:31.000Z</time>
      </trkpt>
      <trkpt lat="47.15896" lon="-1.3252">
        <ele>80</ele>
        <time>2021-04-24T10:22:33.000Z</time>
      </trkpt>
      <trkpt lat="47.15893" lon="-1.32505">
        <ele>80</ele>
        <time>2021-04-24T10:22:35.000Z</time>
      </trkpt>
      <trkpt lat="47.15889" lon="-1.32489">
        <ele>81</ele>
        <time>2021-04-24T10:22:37.000Z</time>
      </trkpt>
      <trkpt lat="47.15886" lon="-1.32474">
        <ele>80</ele>
        <time>2021-04-24T10:22:39.000Z</time>
      </trkpt>
      <trkpt lat="47.15882" lon="-1.32457">
        <ele>80</ele>
        <time>2021-04-24T10:22:41.000Z</time>
      </trkpt>
      <trkpt lat="47.15877" lon="-1.32442">
        <ele>81</ele>
        <time>2021-04-24T10:22:43.000Z</time>
      </trkpt>
      <trkpt lat="47.15873" lon="-1.32426">
        <ele>81</ele>
        <time>2021-04-24T10:22:45.000Z</time>
      </trkpt>
      <trkpt lat="47.15869" lon="-1.32411">
        <ele>81</ele>
        <time>2021-04-24T10:22:47.000Z</time>
      </trkpt>
      <trkpt lat="47.15865" lon="-1.32396">
        <ele>81</ele>
        <time>2021-04-24T10:22:49.000Z</time>
      </trkpt>
      <trkpt lat="47.15861" lon="-1.32381">
        <ele>81</ele>
        <time>2021-04-24T10:22:51.000Z</time>
      </trkpt>
      <trkpt lat="47.15857" lon="-1.32367">
        <ele>81</ele>
        <time>2021-04-24T10:22:53.000Z</time>
      </trkpt>
      <trkpt lat="47.15853" lon="-1.32352">
        <ele>81</ele>
        <time>2021-04-24T10:22:55.000Z</time>
      </trkpt>
      <trkpt lat="47.15849" lon="-1.32337">
        <ele>81</ele>
        <time>2021-04-24T10:22:57.000Z</time>
      </trkpt>
      <trkpt lat="47.15845" lon="-1.32322">
        <ele>81</ele>
        <time>2021-04-24T10:22:59.000Z</time>
      </trkpt>
      <trkpt lat="47.1584" lon="-1.32306">
        <ele>81</ele>
        <time>2021-04-24T10:23:01.000Z</time>
      </trkpt>
      <trkpt lat="47.15836" lon="-1.32292">
        <ele>81</ele>
        <time>2021-04-24T10:23:03.000Z</time>
      </trkpt>
      <trkpt lat="47.15833" lon="-1.32276">
        <ele>81</ele>
        <time>2021-04-24T10:23:05.000Z</time>
      </trkpt>
      <trkpt lat="47.15829" lon="-1.32261">
        <ele>81</ele>
        <time>2021-04-24T10:23:07.000Z</time>
      </trkpt>
      <trkpt lat="47.15825" lon="-1.32247">
        <ele>81</ele>
        <time>2021-04-24T10:23:09.000Z</time>
      </trkpt>
      <trkpt lat="47.15821" lon="-1.32232">
        <ele>82</ele>
        <time>2021-04-24T10:23:11.000Z</time>
      </trkpt>
      <trkpt lat="47.15818" lon="-1.32217">
        <ele>82</ele>
        <time>2021-04-24T10:23:13.000Z</time>
      </trkpt>
      <trkpt lat="47.15814" lon="-1.32202">
        <ele>82</ele>
        <time>2021-04-24T10:23:15.000Z</time>
      </trkpt>
      <trkpt lat="47.15811" lon="-1.32188">
        <ele>81</ele>
        <time>2021-04-24T10:23:17.000Z</time>
      </trkpt>
      <trkpt lat="47.15807" lon="-1.32173">
        <ele>82</ele>
        <time>2021-04-24T10:23:19.000Z</time>
      </trkpt>
      <trkpt lat="47.15803" lon="-1.32157">
        <ele>81</ele>
        <time>2021-04-24T10:23:21.000Z</time>
      </trkpt>
      <trkpt lat="47.158" lon="-1.32142">
        <ele>81</ele>
        <time>2021-04-24T10:23:23.000Z</time>
      </trkpt>
      <trkpt lat="47.15797" lon="-1.32128">
        <ele>81</ele>
        <time>2021-04-24T10:23:25.000Z</time>
      </trkpt>
      <trkpt lat="47.15794" lon="-1.32114">
        <ele>82</ele>
        <time>2021-04-24T10:23:27.000Z</time>
      </trkpt>
      <trkpt lat="47.15792" lon="-1.321">
        <ele>82</ele>
        <time>2021-04-24T10:23:29.000Z</time>
      </trkpt>
      <trkpt lat="47.15789" lon="-1.32085">
        <ele>82</ele>
        <time>2021-04-24T10:23:31.000Z</time>
      </trkpt>
      <trkpt lat="47.15787" lon="-1.3207">
        <ele>82</ele>
        <time>2021-04-24T10:23:33.000Z</time>
      </trkpt>
      <trkpt lat="47.15786" lon="-1.32055">
        <ele>82</ele>
        <time>2021-04-24T10:23:35.000Z</time>
      </trkpt>
      <trkpt lat="47.15784" lon="-1.3204">
        <ele>82</ele>
        <time>2021-04-24T10:23:37.000Z</time>
      </trkpt>
      <trkpt lat="47.15782" lon="-1.32024">
        <ele>82</ele>
        <time>2021-04-24T10:23:39.000Z</time>
      </trkpt>
      <trkpt lat="47.1578" lon="-1.32008">
        <ele>82</ele>
        <time>2021-04-24T10:23:41.000Z</time>
      </trkpt>
      <trkpt lat="47.15778" lon="-1.31993">
        <ele>82</ele>
        <time>2021-04-24T10:23:43.000Z</time>
      </trkpt>
      <trkpt lat="47.15776" lon="-1.31978">
        <ele>82</ele>
        <time>2021-04-24T10:23:45.000Z</time>
      </trkpt>
      <trkpt lat="47.15775" lon="-1.31963">
        <ele>82</ele>
        <time>2021-04-24T10:23:47.000Z</time>
      </trkpt>
      <trkpt lat="47.15774" lon="-1.31947">
        <ele>82</ele>
        <time>2021-04-24T10:23:49.000Z</time>
      </trkpt>
      <trkpt lat="47.15774" lon="-1.31932">
        <ele>82</ele>
        <time>2021-04-24T10:23:51.000Z</time>
      </trkpt>
      <trkpt lat="47.15774" lon="-1.31916">
        <ele>82</ele>
        <time>2021-04-24T10:23:53.000Z</time>
      </trkpt>
      <trkpt lat="47.15773" lon="-1.31901">
        <ele>82</ele>
        <time>2021-04-24T10:23:55.000Z</time>
      </trkpt>
      <trkpt lat="47.15773" lon="-1.31885">
        <ele>82</ele>
        <time>2021-04-24T10:23:57.000Z</time>
      </trkpt>
      <trkpt lat="47.15773" lon="-1.3187">
        <ele>82</ele>
        <time>2021-04-24T10:23:59.000Z</time>
      </trkpt>
      <trkpt lat="47.15772" lon="-1.31855">
        <ele>81</ele>
        <time>2021-04-24T10:24:01.000Z</time>
      </trkpt>
      <trkpt lat="47.15772" lon="-1.31839">
        <ele>81</ele>
        <time>2021-04-24T10:24:03.000Z</time>
      </trkpt>
      <trkpt lat="47.15772" lon="-1.31824">
        <ele>81</ele>
        <time>2021-04-24T10:24:05.000Z</time>
      </trkpt>
      <trkpt lat="47.15771" lon="-1.31809">
        <ele>81</ele>
        <time>2021-04-24T10:24:07.000Z</time>
      </trkpt>
      <trkpt lat="47.1577" lon="-1.31794">
        <ele>81</ele>
        <time>2021-04-24T10:24:09.000Z</time>
      </trkpt>
      <trkpt lat="47.1577" lon="-1.31779">
        <ele>81</ele>
        <time>2021-04-24T10:24:11.000Z</time>
      </trkpt>
      <trkpt lat="47.15769" lon="-1.31764">
        <ele>81</ele>
        <time>2021-04-24T10:24:13.000Z</time>
      </trkpt>
      <trkpt lat="47.15769" lon="-1.31748">
        <ele>81</ele>
        <time>2021-04-24T10:24:15.000Z</time>
      </trkpt>
      <trkpt lat="47.15768" lon="-1.31733">
        <ele>81</ele>
        <time>2021-04-24T10:24:17.000Z</time>
      </trkpt>
      <trkpt lat="47.15768" lon="-1.31717">
        <ele>81</ele>
        <time>2021-04-24T10:24:19.000Z</time>
      </trkpt>
      <trkpt lat="47.15767" lon="-1.31701">
        <ele>81</ele>
        <time>2021-04-24T10:24:21.000Z</time>
      </trkpt>
      <trkpt lat="47.15766" lon="-1.31685">
        <ele>81</ele>
        <time>2021-04-24T10:24:23.000Z</time>
      </trkpt>
      <trkpt lat="47.15765" lon="-1.3167">
        <ele>81</ele>
        <time>2021-04-24T10:24:25.000Z</time>
      </trkpt>
      <trkpt lat="47.15766" lon="-1.31655">
        <ele>81</ele>
        <time>2021-04-24T10:24:27.000Z</time>
      </trkpt>
      <trkpt lat="47.15765" lon="-1.3164">
        <ele>81</ele>
        <time>2021-04-24T10:24:29.000Z</time>
      </trkpt>
      <trkpt lat="47.15765" lon="-1.31624">
        <ele>81</ele>
        <time>2021-04-24T10:24:31.000Z</time>
      </trkpt>
      <trkpt lat="47.15764" lon="-1.31609">
        <ele>80</ele>
        <time>2021-04-24T10:24:33.000Z</time>
      </trkpt>
      <trkpt lat="47.15764" lon="-1.31593">
        <ele>80</ele>
        <time>2021-04-24T10:24:35.000Z</time>
      </trkpt>
      <trkpt lat="47.15763" lon="-1.31578">
        <ele>80</ele>
        <time>2021-04-24T10:24:37.000Z</time>
      </trkpt>
      <trkpt lat="47.15763" lon="-1.31562">
        <ele>80</ele>
        <time>2021-04-24T10:24:39.000Z</time>
      </trkpt>
      <trkpt lat="47.15762" lon="-1.31546">
        <ele>80</ele>
        <time>2021-04-24T10:24:41.000Z</time>
      </trkpt>
      <trkpt lat="47.15761" lon="-1.3153">
        <ele>80</ele>
        <time>2021-04-24T10:24:43.000Z</time>
      </trkpt>
      <trkpt lat="47.15761" lon="-1.31516">
        <ele>80</ele>
        <time>2021-04-24T10:24:45.000Z</time>
      </trkpt>
      <trkpt lat="47.1576" lon="-1.31501">
        <ele>80</ele>
        <time>2021-04-24T10:24:47.000Z</time>
      </trkpt>
      <trkpt lat="47.1576" lon="-1.31486">
        <ele>80</ele>
        <time>2021-04-24T10:24:49.000Z</time>
      </trkpt>
      <trkpt lat="47.15759" lon="-1.3147">
        <ele>80</ele>
        <time>2021-04-24T10:24:51.000Z</time>
      </trkpt>
      <trkpt lat="47.1576" lon="-1.31455">
        <ele>80</ele>
        <time>2021-04-24T10:24:53.000Z</time>
      </trkpt>
      <trkpt lat="47.1576" lon="-1.3144">
        <ele>80</ele>
        <time>2021-04-24T10:24:55.000Z</time>
      </trkpt>
      <trkpt lat="47.15761" lon="-1.31424">
        <ele>80</ele>
        <time>2021-04-24T10:24:57.000Z</time>
      </trkpt>
      <trkpt lat="47.15763" lon="-1.31409">
        <ele>80</ele>
        <time>2021-04-24T10:24:59.000Z</time>
      </trkpt>
      <trkpt lat="47.15765" lon="-1.31394">
        <ele>79</ele>
        <time>2021-04-24T10:25:01.000Z</time>
      </trkpt>
      <trkpt lat="47.15767" lon="-1.31379">
        <ele>79</ele>
        <time>2021-04-24T10:25:03.000Z</time>
      </trkpt>
      <trkpt lat="47.15771" lon="-1.31365">
        <ele>80</ele>
        <time>2021-04-24T10:25:05.000Z</time>
      </trkpt>
      <trkpt lat="47.15774" lon="-1.3135">
        <ele>79</ele>
        <time>2021-04-24T10:25:07.000Z</time>
      </trkpt>
      <trkpt lat="47.15779" lon="-1.31336">
        <ele>79</ele>
        <time>2021-04-24T10:25:09.000Z</time>
      </trkpt>
      <trkpt lat="47.15783" lon="-1.31321">
        <ele>79</ele>
        <time>2021-04-24T10:25:11.000Z</time>
      </trkpt>
      <trkpt lat="47.15788" lon="-1.31307">
        <ele>79</ele>
        <time>2021-04-24T10:25:13.000Z</time>
      </trkpt>
      <trkpt lat="47.15792" lon="-1.31293">
        <ele>79</ele>
        <time>2021-04-24T10:25:15.000Z</time>
      </trkpt>
      <trkpt lat="47.15796" lon="-1.31279">
        <ele>79</ele>
        <time>2021-04-24T10:25:17.000Z</time>
      </trkpt>
      <trkpt lat="47.158" lon="-1.31266">
        <ele>79</ele>
        <time>2021-04-24T10:25:19.000Z</time>
      </trkpt>
      <trkpt lat="47.15804" lon="-1.31252">
        <ele>79</ele>
        <time>2021-04-24T10:25:21.000Z</time>
      </trkpt>
      <trkpt lat="47.15809" lon="-1.31237">
        <ele>78</ele>
        <time>2021-04-24T10:25:23.000Z</time>
      </trkpt>
      <trkpt lat="47.15814" lon="-1.31223">
        <ele>78</ele>
        <time>2021-04-24T10:25:25.000Z</time>
      </trkpt>
      <trkpt lat="47.15818" lon="-1.31209">
        <ele>78</ele>
        <time>2021-04-24T10:25:27.000Z</time>
      </trkpt>
      <trkpt lat="47.15822" lon="-1.31196">
        <ele>78</ele>
        <time>2021-04-24T10:25:29.000Z</time>
      </trkpt>
      <trkpt lat="47.15827" lon="-1.31183">
        <ele>78</ele>
        <time>2021-04-24T10:25:31.000Z</time>
      </trkpt>
      <trkpt lat="47.15831" lon="-1.31169">
        <ele>77</ele>
        <time>2021-04-24T10:25:33.000Z</time>
      </trkpt>
      <trkpt lat="47.15835" lon="-1.31154">
        <ele>78</ele>
        <time>2021-04-24T10:25:35.000Z</time>
      </trkpt>
      <trkpt lat="47.1584" lon="-1.3114">
        <ele>78</ele>
        <time>2021-04-24T10:25:37.000Z</time>
      </trkpt>
      <trkpt lat="47.15844" lon="-1.31126">
        <ele>78</ele>
        <time>2021-04-24T10:25:39.000Z</time>
      </trkpt>
      <trkpt lat="47.15848" lon="-1.31112">
        <ele>78</ele>
        <time>2021-04-24T10:25:41.000Z</time>
      </trkpt>
      <trkpt lat="47.15852" lon="-1.31099">
        <ele>78</ele>
        <time>2021-04-24T10:25:43.000Z</time>
      </trkpt>
      <trkpt lat="47.15857" lon="-1.31085">
        <ele>78</ele>
        <time>2021-04-24T10:25:45.000Z</time>
      </trkpt>
      <trkpt lat="47.15861" lon="-1.31071">
        <ele>78</ele>
        <time>2021-04-24T10:25:47.000Z</time>
      </trkpt>
      <trkpt lat="47.15866" lon="-1.31057">
        <ele>78</ele>
        <time>2021-04-24T10:25:49.000Z</time>
      </trkpt>
      <trkpt lat="47.1587" lon="-1.31043">
        <ele>78</ele>
        <time>2021-04-24T10:25:51.000Z</time>
      </trkpt>
      <trkpt lat="47.15874" lon="-1.31028">
        <ele>78</ele>
        <time>2021-04-24T10:25:53.000Z</time>
      </trkpt>
      <trkpt lat="47.15878" lon="-1.31015">
        <ele>79</ele>
        <time>2021-04-24T10:25:55.000Z</time>
      </trkpt>
      <trkpt lat="47.15883" lon="-1.31001">
        <ele>79</ele>
        <time>2021-04-24T10:25:57.000Z</time>
      </trkpt>
      <trkpt lat="47.15888" lon="-1.30987">
        <ele>79</ele>
        <time>2021-04-24T10:25:59.000Z</time>
      </trkpt>
      <trkpt lat="47.15892" lon="-1.30972">
        <ele>79</ele>
        <time>2021-04-24T10:26:01.000Z</time>
      </trkpt>
      <trkpt lat="47.15896" lon="-1.30959">
        <ele>79</ele>
        <time>2021-04-24T10:26:03.000Z</time>
      </trkpt>
      <trkpt lat="47.159" lon="-1.30944">
        <ele>79</ele>
        <time>2021-04-24T10:26:05.000Z</time>
      </trkpt>
      <trkpt lat="47.15905" lon="-1.30931">
        <ele>79</ele>
        <time>2021-04-24T10:26:07.000Z</time>
      </trkpt>
      <trkpt lat="47.15909" lon="-1.30918">
        <ele>79</ele>
        <time>2021-04-24T10:26:09.000Z</time>
      </trkpt>
      <trkpt lat="47.15913" lon="-1.30904">
        <ele>79</ele>
        <time>2021-04-24T10:26:11.000Z</time>
      </trkpt>
      <trkpt lat="47.15918" lon="-1.3089">
        <ele>79</ele>
        <time>2021-04-24T10:26:13.000Z</time>
      </trkpt>
      <trkpt lat="47.15922" lon="-1.30876">
        <ele>79</ele>
        <time>2021-04-24T10:26:15.000Z</time>
      </trkpt>
      <trkpt lat="47.15926" lon="-1.30862">
        <ele>79</ele>
        <time>2021-04-24T10:26:17.000Z</time>
      </trkpt>
      <trkpt lat="47.1593" lon="-1.30848">
        <ele>79</ele>
        <time>2021-04-24T10:26:19.000Z</time>
      </trkpt>
      <trkpt lat="47.15935" lon="-1.30835">
        <ele>79</ele>
        <time>2021-04-24T10:26:21.000Z</time>
      </trkpt>
      <trkpt lat="47.15939" lon="-1.30821">
        <ele>79</ele>
        <time>2021-04-24T10:26:23.000Z</time>
      </trkpt>
      <trkpt lat="47.15944" lon="-1.30807">
        <ele>79</ele>
        <time>2021-04-24T10:26:25.000Z</time>
      </trkpt>
      <trkpt lat="47.15948" lon="-1.30793">
        <ele>79</ele>
        <time>2021-04-24T10:26:27.000Z</time>
      </trkpt>
      <trkpt lat="47.15952" lon="-1.30779">
        <ele>79</ele>
        <time>2021-04-24T10:26:29.000Z</time>
      </trkpt>
      <trkpt lat="47.15956" lon="-1.30766">
        <ele>79</ele>
        <time>2021-04-24T10:26:31.000Z</time>
      </trkpt>
      <trkpt lat="47.1596" lon="-1.30752">
        <ele>79</ele>
        <time>2021-04-24T10:26:33.000Z</time>
      </trkpt>
      <trkpt lat="47.15965" lon="-1.30738">
        <ele>78</ele>
        <time>2021-04-24T10:26:35.000Z</time>
      </trkpt>
      <trkpt lat="47.15969" lon="-1.30725">
        <ele>78</ele>
        <time>2021-04-24T10:26:37.000Z</time>
      </trkpt>
      <trkpt lat="47.15973" lon="-1.30711">
        <ele>78</ele>
        <time>2021-04-24T10:26:39.000Z</time>
      </trkpt>
      <trkpt lat="47.15978" lon="-1.30697">
        <ele>77</ele>
        <time>2021-04-24T10:26:41.000Z</time>
      </trkpt>
      <trkpt lat="47.15982" lon="-1.30682">
        <ele>77</ele>
        <time>2021-04-24T10:26:43.000Z</time>
      </trkpt>
      <trkpt lat="47.15987" lon="-1.30668">
        <ele>77</ele>
        <time>2021-04-24T10:26:45.000Z</time>
      </trkpt>
      <trkpt lat="47.15991" lon="-1.30654">
        <ele>77</ele>
        <time>2021-04-24T10:26:47.000Z</time>
      </trkpt>
      <trkpt lat="47.15995" lon="-1.3064">
        <ele>77</ele>
        <time>2021-04-24T10:26:49.000Z</time>
      </trkpt>
      <trkpt lat="47.15999" lon="-1.30625">
        <ele>76</ele>
        <time>2021-04-24T10:26:51.000Z</time>
      </trkpt>
      <trkpt lat="47.16004" lon="-1.30609">
        <ele>77</ele>
        <time>2021-04-24T10:26:53.000Z</time>
      </trkpt>
      <trkpt lat="47.16008" lon="-1.30593">
        <ele>76</ele>
        <time>2021-04-24T10:26:55.000Z</time>
      </trkpt>
      <trkpt lat="47.16012" lon="-1.30574">
        <ele>76</ele>
        <time>2021-04-24T10:26:57.000Z</time>
      </trkpt>
      <trkpt lat="47.16016" lon="-1.30555">
        <ele>75</ele>
        <time>2021-04-24T10:26:59.000Z</time>
      </trkpt>
      <trkpt lat="47.16019" lon="-1.30537">
        <ele>75</ele>
        <time>2021-04-24T10:27:01.000Z</time>
      </trkpt>
      <trkpt lat="47.16023" lon="-1.30518">
        <ele>75</ele>
        <time>2021-04-24T10:27:03.000Z</time>
      </trkpt>
      <trkpt lat="47.16027" lon="-1.305">
        <ele>75</ele>
        <time>2021-04-24T10:27:05.000Z</time>
      </trkpt>
      <trkpt lat="47.1603" lon="-1.30483">
        <ele>75</ele>
        <time>2021-04-24T10:27:07.000Z</time>
      </trkpt>
      <trkpt lat="47.16033" lon="-1.30466">
        <ele>74</ele>
        <time>2021-04-24T10:27:09.000Z</time>
      </trkpt>
      <trkpt lat="47.16036" lon="-1.30449">
        <ele>74</ele>
        <time>2021-04-24T10:27:11.000Z</time>
      </trkpt>
      <trkpt lat="47.16034" lon="-1.30432">
        <ele>74</ele>
        <time>2021-04-24T10:27:13.000Z</time>
      </trkpt>
      <trkpt lat="47.16034" lon="-1.30415">
        <ele>74</ele>
        <time>2021-04-24T10:27:15.000Z</time>
      </trkpt>
      <trkpt lat="47.16033" lon="-1.30398">
        <ele>74</ele>
        <time>2021-04-24T10:27:17.000Z</time>
      </trkpt>
      <trkpt lat="47.16032" lon="-1.30382">
        <ele>74</ele>
        <time>2021-04-24T10:27:19.000Z</time>
      </trkpt>
      <trkpt lat="47.16032" lon="-1.30367">
        <ele>75</ele>
        <time>2021-04-24T10:27:21.000Z</time>
      </trkpt>
      <trkpt lat="47.16031" lon="-1.30351">
        <ele>75</ele>
        <time>2021-04-24T10:27:23.000Z</time>
      </trkpt>
      <trkpt lat="47.1603" lon="-1.30336">
        <ele>76</ele>
        <time>2021-04-24T10:27:25.000Z</time>
      </trkpt>
      <trkpt lat="47.1603" lon="-1.3032">
        <ele>76</ele>
        <time>2021-04-24T10:27:27.000Z</time>
      </trkpt>
      <trkpt lat="47.16028" lon="-1.30305">
        <ele>77</ele>
        <time>2021-04-24T10:27:29.000Z</time>
      </trkpt>
      <trkpt lat="47.16028" lon="-1.3029">
        <ele>77</ele>
        <time>2021-04-24T10:27:31.000Z</time>
      </trkpt>
      <trkpt lat="47.16027" lon="-1.30274">
        <ele>77</ele>
        <time>2021-04-24T10:27:33.000Z</time>
      </trkpt>
      <trkpt lat="47.16027" lon="-1.30258">
        <ele>77</ele>
        <time>2021-04-24T10:27:35.000Z</time>
      </trkpt>
      <trkpt lat="47.16027" lon="-1.30244">
        <ele>77</ele>
        <time>2021-04-24T10:27:37.000Z</time>
      </trkpt>
      <trkpt lat="47.16027" lon="-1.30229">
        <ele>78</ele>
        <time>2021-04-24T10:27:39.000Z</time>
      </trkpt>
      <trkpt lat="47.16026" lon="-1.30213">
        <ele>78</ele>
        <time>2021-04-24T10:27:41.000Z</time>
      </trkpt>
      <trkpt lat="47.16026" lon="-1.30197">
        <ele>78</ele>
        <time>2021-04-24T10:27:43.000Z</time>
      </trkpt>
      <trkpt lat="47.16026" lon="-1.30181">
        <ele>78</ele>
        <time>2021-04-24T10:27:45.000Z</time>
      </trkpt>
      <trkpt lat="47.16026" lon="-1.30166">
        <ele>78</ele>
        <time>2021-04-24T10:27:47.000Z</time>
      </trkpt>
      <trkpt lat="47.16027" lon="-1.3015">
        <ele>78</ele>
        <time>2021-04-24T10:27:49.000Z</time>
      </trkpt>
      <trkpt lat="47.16026" lon="-1.30136">
        <ele>79</ele>
        <time>2021-04-24T10:27:51.000Z</time>
      </trkpt>
      <trkpt lat="47.16026" lon="-1.30121">
        <ele>79</ele>
        <time>2021-04-24T10:27:53.000Z</time>
      </trkpt>
      <trkpt lat="47.16026" lon="-1.30106">
        <ele>79</ele>
        <time>2021-04-24T10:27:55.000Z</time>
      </trkpt>
      <trkpt lat="47.16026" lon="-1.3009">
        <ele>79</ele>
        <time>2021-04-24T10:27:57.000Z</time>
      </trkpt>
      <trkpt lat="47.16026" lon="-1.30075">
        <ele>79</ele>
        <time>2021-04-24T10:27:59.000Z</time>
      </trkpt>
      <trkpt lat="47.16027" lon="-1.30061">
        <ele>79</ele>
        <time>2021-04-24T10:28:01.000Z</time>
      </trkpt>
      <trkpt lat="47.16029" lon="-1.30046">
        <ele>79</ele>
        <time>2021-04-24T10:28:03.000Z</time>
      </trkpt>
      <trkpt lat="47.16032" lon="-1.30032">
        <ele>79</ele>
        <time>2021-04-24T10:28:05.000Z</time>
      </trkpt>
      <trkpt lat="47.16035" lon="-1.30018">
        <ele>80</ele>
        <time>2021-04-24T10:28:07.000Z</time>
      </trkpt>
      <trkpt lat="47.16038" lon="-1.30003">
        <ele>80</ele>
        <time>2021-04-24T10:28:09.000Z</time>
      </trkpt>
      <trkpt lat="47.16042" lon="-1.29989">
        <ele>79</ele>
        <time>2021-04-24T10:28:11.000Z</time>
      </trkpt>
      <trkpt lat="47.16045" lon="-1.29974">
        <ele>80</ele>
        <time>2021-04-24T10:28:13.000Z</time>
      </trkpt>
      <trkpt lat="47.16048" lon="-1.2996">
        <ele>80</ele>
        <time>2021-04-24T10:28:15.000Z</time>
      </trkpt>
      <trkpt lat="47.16052" lon="-1.29946">
        <ele>80</ele>
        <time>2021-04-24T10:28:17.000Z</time>
      </trkpt>
      <trkpt lat="47.16055" lon="-1.29931">
        <ele>80</ele>
        <time>2021-04-24T10:28:19.000Z</time>
      </trkpt>
      <trkpt lat="47.16059" lon="-1.29917">
        <ele>80</ele>
        <time>2021-04-24T10:28:21.000Z</time>
      </trkpt>
      <trkpt lat="47.16063" lon="-1.29903">
        <ele>80</ele>
        <time>2021-04-24T10:28:23.000Z</time>
      </trkpt>
      <trkpt lat="47.16066" lon="-1.29889">
        <ele>80</ele>
        <time>2021-04-24T10:28:25.000Z</time>
      </trkpt>
      <trkpt lat="47.16069" lon="-1.29877">
        <ele>81</ele>
        <time>2021-04-24T10:28:27.000Z</time>
      </trkpt>
      <trkpt lat="47.16071" lon="-1.29864">
        <ele>80</ele>
        <time>2021-04-24T10:28:29.000Z</time>
      </trkpt>
      <trkpt lat="47.16075" lon="-1.2985">
        <ele>80</ele>
        <time>2021-04-24T10:28:31.000Z</time>
      </trkpt>
      <trkpt lat="47.16078" lon="-1.29835">
        <ele>80</ele>
        <time>2021-04-24T10:28:33.000Z</time>
      </trkpt>
      <trkpt lat="47.16082" lon="-1.29821">
        <ele>80</ele>
        <time>2021-04-24T10:28:35.000Z</time>
      </trkpt>
      <trkpt lat="47.16085" lon="-1.29806">
        <ele>81</ele>
        <time>2021-04-24T10:28:37.000Z</time>
      </trkpt>
      <trkpt lat="47.16089" lon="-1.29792">
        <ele>81</ele>
        <time>2021-04-24T10:28:39.000Z</time>
      </trkpt>
      <trkpt lat="47.16092" lon="-1.29778">
        <ele>81</ele>
        <time>2021-04-24T10:28:41.000Z</time>
      </trkpt>
      <trkpt lat="47.16096" lon="-1.29764">
        <ele>81</ele>
        <time>2021-04-24T10:28:43.000Z</time>
      </trkpt>
      <trkpt lat="47.16099" lon="-1.2975">
        <ele>81</ele>
        <time>2021-04-24T10:28:45.000Z</time>
      </trkpt>
      <trkpt lat="47.16102" lon="-1.29736">
        <ele>81</ele>
        <time>2021-04-24T10:28:47.000Z</time>
      </trkpt>
      <trkpt lat="47.16105" lon="-1.29722">
        <ele>81</ele>
        <time>2021-04-24T10:28:49.000Z</time>
      </trkpt>
      <trkpt lat="47.16107" lon="-1.29707">
        <ele>81</ele>
        <time>2021-04-24T10:28:51.000Z</time>
      </trkpt>
      <trkpt lat="47.16108" lon="-1.29693">
        <ele>81</ele>
        <time>2021-04-24T10:28:53.000Z</time>
      </trkpt>
      <trkpt lat="47.16109" lon="-1.29679">
        <ele>82</ele>
        <time>2021-04-24T10:28:55.000Z</time>
      </trkpt>
      <trkpt lat="47.16109" lon="-1.29665">
        <ele>82</ele>
        <time>2021-04-24T10:28:57.000Z</time>
      </trkpt>
      <trkpt lat="47.16108" lon="-1.29645">
        <ele>82</ele>
        <time>2021-04-24T10:29:00.000Z</time>
      </trkpt>
      <trkpt lat="47.16107" lon="-1.29631">
        <ele>82</ele>
        <time>2021-04-24T10:29:02.000Z</time>
      </trkpt>
      <trkpt lat="47.16106" lon="-1.29617">
        <ele>82</ele>
        <time>2021-04-24T10:29:04.000Z</time>
      </trkpt>
      <trkpt lat="47.16105" lon="-1.29602">
        <ele>82</ele>
        <time>2021-04-24T10:29:06.000Z</time>
      </trkpt>
      <trkpt lat="47.16104" lon="-1.29589">
        <ele>82</ele>
        <time>2021-04-24T10:29:08.000Z</time>
      </trkpt>
      <trkpt lat="47.16103" lon="-1.29575">
        <ele>83</ele>
        <time>2021-04-24T10:29:10.000Z</time>
      </trkpt>
      <trkpt lat="47.16102" lon="-1.29561">
        <ele>83</ele>
        <time>2021-04-24T10:29:12.000Z</time>
      </trkpt>
      <trkpt lat="47.161" lon="-1.29547">
        <ele>83</ele>
        <time>2021-04-24T10:29:14.000Z</time>
      </trkpt>
      <trkpt lat="47.16099" lon="-1.29533">
        <ele>83</ele>
        <time>2021-04-24T10:29:16.000Z</time>
      </trkpt>
      <trkpt lat="47.16098" lon="-1.2952">
        <ele>83</ele>
        <time>2021-04-24T10:29:18.000Z</time>
      </trkpt>
      <trkpt lat="47.16096" lon="-1.29507">
        <ele>83</ele>
        <time>2021-04-24T10:29:20.000Z</time>
      </trkpt>
      <trkpt lat="47.16095" lon="-1.29494">
        <ele>83</ele>
        <time>2021-04-24T10:29:22.000Z</time>
      </trkpt>
      <trkpt lat="47.16094" lon="-1.2948">
        <ele>84</ele>
        <time>2021-04-24T10:29:24.000Z</time>
      </trkpt>
      <trkpt lat="47.16094" lon="-1.29467">
        <ele>84</ele>
        <time>2021-04-24T10:29:26.000Z</time>
      </trkpt>
      <trkpt lat="47.16093" lon="-1.29453">
        <ele>84</ele>
        <time>2021-04-24T10:29:28.000Z</time>
      </trkpt>
      <trkpt lat="47.16093" lon="-1.29439">
        <ele>84</ele>
        <time>2021-04-24T10:29:30.000Z</time>
      </trkpt>
      <trkpt lat="47.16093" lon="-1.29419">
        <ele>84</ele>
        <time>2021-04-24T10:29:33.000Z</time>
      </trkpt>
      <trkpt lat="47.16094" lon="-1.294">
        <ele>84</ele>
        <time>2021-04-24T10:29:36.000Z</time>
      </trkpt>
      <trkpt lat="47.16096" lon="-1.29387">
        <ele>84</ele>
        <time>2021-04-24T10:29:38.000Z</time>
      </trkpt>
      <trkpt lat="47.16099" lon="-1.29368">
        <ele>84</ele>
        <time>2021-04-24T10:29:41.000Z</time>
      </trkpt>
      <trkpt lat="47.16102" lon="-1.29355">
        <ele>84</ele>
        <time>2021-04-24T10:29:43.000Z</time>
      </trkpt>
      <trkpt lat="47.16105" lon="-1.29342">
        <ele>84</ele>
        <time>2021-04-24T10:29:45.000Z</time>
      </trkpt>
      <trkpt lat="47.16107" lon="-1.29329">
        <ele>85</ele>
        <time>2021-04-24T10:29:47.000Z</time>
      </trkpt>
      <trkpt lat="47.16111" lon="-1.2931">
        <ele>85</ele>
        <time>2021-04-24T10:29:50.000Z</time>
      </trkpt>
      <trkpt lat="47.16113" lon="-1.29297">
        <ele>85</ele>
        <time>2021-04-24T10:29:52.000Z</time>
      </trkpt>
      <trkpt lat="47.16114" lon="-1.29283">
        <ele>85</ele>
        <time>2021-04-24T10:29:54.000Z</time>
      </trkpt>
      <trkpt lat="47.16116" lon="-1.2927">
        <ele>85</ele>
        <time>2021-04-24T10:29:56.000Z</time>
      </trkpt>
      <trkpt lat="47.16116" lon="-1.2925">
        <ele>86</ele>
        <time>2021-04-24T10:29:59.000Z</time>
      </trkpt>
      <trkpt lat="47.16116" lon="-1.29236">
        <ele>86</ele>
        <time>2021-04-24T10:30:01.000Z</time>
      </trkpt>
      <trkpt lat="47.16116" lon="-1.29222">
        <ele>86</ele>
        <time>2021-04-24T10:30:03.000Z</time>
      </trkpt>
      <trkpt lat="47.16116" lon="-1.29209">
        <ele>86</ele>
        <time>2021-04-24T10:30:05.000Z</time>
      </trkpt>
      <trkpt lat="47.16117" lon="-1.29195">
        <ele>86</ele>
        <time>2021-04-24T10:30:07.000Z</time>
      </trkpt>
      <trkpt lat="47.16117" lon="-1.2918">
        <ele>86</ele>
        <time>2021-04-24T10:30:09.000Z</time>
      </trkpt>
      <trkpt lat="47.16117" lon="-1.29166">
        <ele>86</ele>
        <time>2021-04-24T10:30:11.000Z</time>
      </trkpt>
      <trkpt lat="47.16117" lon="-1.29152">
        <ele>86</ele>
        <time>2021-04-24T10:30:13.000Z</time>
      </trkpt>
      <trkpt lat="47.16117" lon="-1.29138">
        <ele>86</ele>
        <time>2021-04-24T10:30:15.000Z</time>
      </trkpt>
      <trkpt lat="47.16117" lon="-1.29124">
        <ele>86</ele>
        <time>2021-04-24T10:30:17.000Z</time>
      </trkpt>
      <trkpt lat="47.16117" lon="-1.2911">
        <ele>87</ele>
        <time>2021-04-24T10:30:19.000Z</time>
      </trkpt>
      <trkpt lat="47.16117" lon="-1.29096">
        <ele>87</ele>
        <time>2021-04-24T10:30:21.000Z</time>
      </trkpt>
      <trkpt lat="47.16117" lon="-1.29076">
        <ele>88</ele>
        <time>2021-04-24T10:30:24.000Z</time>
      </trkpt>
      <trkpt lat="47.16117" lon="-1.29061">
        <ele>88</ele>
        <time>2021-04-24T10:30:26.000Z</time>
      </trkpt>
      <trkpt lat="47.16117" lon="-1.29047">
        <ele>88</ele>
        <time>2021-04-24T10:30:28.000Z</time>
      </trkpt>
      <trkpt lat="47.16117" lon="-1.29033">
        <ele>88</ele>
        <time>2021-04-24T10:30:30.000Z</time>
      </trkpt>
      <trkpt lat="47.16117" lon="-1.29019">
        <ele>88</ele>
        <time>2021-04-24T10:30:32.000Z</time>
      </trkpt>
      <trkpt lat="47.16117" lon="-1.29005">
        <ele>88</ele>
        <time>2021-04-24T10:30:34.000Z</time>
      </trkpt>
      <trkpt lat="47.16117" lon="-1.28991">
        <ele>88</ele>
        <time>2021-04-24T10:30:36.000Z</time>
      </trkpt>
      <trkpt lat="47.16117" lon="-1.28976">
        <ele>88</ele>
        <time>2021-04-24T10:30:38.000Z</time>
      </trkpt>
      <trkpt lat="47.16118" lon="-1.28962">
        <ele>89</ele>
        <time>2021-04-24T10:30:40.000Z</time>
      </trkpt>
      <trkpt lat="47.16119" lon="-1.28948">
        <ele>89</ele>
        <time>2021-04-24T10:30:42.000Z</time>
      </trkpt>
      <trkpt lat="47.16119" lon="-1.28934">
        <ele>89</ele>
        <time>2021-04-24T10:30:44.000Z</time>
      </trkpt>
      <trkpt lat="47.1612" lon="-1.28921">
        <ele>89</ele>
        <time>2021-04-24T10:30:46.000Z</time>
      </trkpt>
      <trkpt lat="47.16122" lon="-1.28902">
        <ele>89</ele>
        <time>2021-04-24T10:30:49.000Z</time>
      </trkpt>
      <trkpt lat="47.16124" lon="-1.28883">
        <ele>90</ele>
        <time>2021-04-24T10:30:52.000Z</time>
      </trkpt>
      <trkpt lat="47.16126" lon="-1.28869">
        <ele>90</ele>
        <time>2021-04-24T10:30:54.000Z</time>
      </trkpt>
      <trkpt lat="47.16128" lon="-1.28855">
        <ele>90</ele>
        <time>2021-04-24T10:30:56.000Z</time>
      </trkpt>
      <trkpt lat="47.16132" lon="-1.28836">
        <ele>90</ele>
        <time>2021-04-24T10:30:59.000Z</time>
      </trkpt>
      <trkpt lat="47.16135" lon="-1.28823">
        <ele>90</ele>
        <time>2021-04-24T10:31:01.000Z</time>
      </trkpt>
      <trkpt lat="47.16138" lon="-1.28811">
        <ele>90</ele>
        <time>2021-04-24T10:31:03.000Z</time>
      </trkpt>
      <trkpt lat="47.1614" lon="-1.28798">
        <ele>90</ele>
        <time>2021-04-24T10:31:05.000Z</time>
      </trkpt>
      <trkpt lat="47.16143" lon="-1.28785">
        <ele>90</ele>
        <time>2021-04-24T10:31:07.000Z</time>
      </trkpt>
      <trkpt lat="47.16148" lon="-1.28767">
        <ele>90</ele>
        <time>2021-04-24T10:31:10.000Z</time>
      </trkpt>
      <trkpt lat="47.16153" lon="-1.28749">
        <ele>91</ele>
        <time>2021-04-24T10:31:13.000Z</time>
      </trkpt>
      <trkpt lat="47.16157" lon="-1.28737">
        <ele>91</ele>
        <time>2021-04-24T10:31:15.000Z</time>
      </trkpt>
      <trkpt lat="47.16163" lon="-1.2872">
        <ele>91</ele>
        <time>2021-04-24T10:31:18.000Z</time>
      </trkpt>
      <trkpt lat="47.16168" lon="-1.28708">
        <ele>91</ele>
        <time>2021-04-24T10:31:20.000Z</time>
      </trkpt>
      <trkpt lat="47.16173" lon="-1.28697">
        <ele>91</ele>
        <time>2021-04-24T10:31:22.000Z</time>
      </trkpt>
      <trkpt lat="47.16177" lon="-1.28685">
        <ele>92</ele>
        <time>2021-04-24T10:31:24.000Z</time>
      </trkpt>
      <trkpt lat="47.16182" lon="-1.28673">
        <ele>92</ele>
        <time>2021-04-24T10:31:26.000Z</time>
      </trkpt>
      <trkpt lat="47.16189" lon="-1.28657">
        <ele>92</ele>
        <time>2021-04-24T10:31:29.000Z</time>
      </trkpt>
      <trkpt lat="47.16195" lon="-1.28641">
        <ele>92</ele>
        <time>2021-04-24T10:31:32.000Z</time>
      </trkpt>
      <trkpt lat="47.16202" lon="-1.28624">
        <ele>92</ele>
        <time>2021-04-24T10:31:35.000Z</time>
      </trkpt>
      <trkpt lat="47.16206" lon="-1.28611">
        <ele>92</ele>
        <time>2021-04-24T10:31:37.000Z</time>
      </trkpt>
      <trkpt lat="47.16209" lon="-1.28598">
        <ele>92</ele>
        <time>2021-04-24T10:31:39.000Z</time>
      </trkpt>
      <trkpt lat="47.16212" lon="-1.28585">
        <ele>92</ele>
        <time>2021-04-24T10:31:41.000Z</time>
      </trkpt>
      <trkpt lat="47.16214" lon="-1.28571">
        <ele>92</ele>
        <time>2021-04-24T10:31:43.000Z</time>
      </trkpt>
      <trkpt lat="47.16216" lon="-1.28558">
        <ele>93</ele>
        <time>2021-04-24T10:31:45.000Z</time>
      </trkpt>
      <trkpt lat="47.16218" lon="-1.28545">
        <ele>93</ele>
        <time>2021-04-24T10:31:47.000Z</time>
      </trkpt>
      <trkpt lat="47.1622" lon="-1.2853">
        <ele>93</ele>
        <time>2021-04-24T10:31:49.000Z</time>
      </trkpt>
      <trkpt lat="47.16222" lon="-1.28516">
        <ele>93</ele>
        <time>2021-04-24T10:31:51.000Z</time>
      </trkpt>
      <trkpt lat="47.16223" lon="-1.28502">
        <ele>93</ele>
        <time>2021-04-24T10:31:53.000Z</time>
      </trkpt>
      <trkpt lat="47.16225" lon="-1.28488">
        <ele>93</ele>
        <time>2021-04-24T10:31:55.000Z</time>
      </trkpt>
      <trkpt lat="47.16227" lon="-1.28475">
        <ele>93</ele>
        <time>2021-04-24T10:31:57.000Z</time>
      </trkpt>
      <trkpt lat="47.16228" lon="-1.28461">
        <ele>93</ele>
        <time>2021-04-24T10:31:59.000Z</time>
      </trkpt>
      <trkpt lat="47.1623" lon="-1.28447">
        <ele>93</ele>
        <time>2021-04-24T10:32:01.000Z</time>
      </trkpt>
      <trkpt lat="47.16231" lon="-1.28434">
        <ele>93</ele>
        <time>2021-04-24T10:32:03.000Z</time>
      </trkpt>
      <trkpt lat="47.16232" lon="-1.2842">
        <ele>94</ele>
        <time>2021-04-24T10:32:05.000Z</time>
      </trkpt>
      <trkpt lat="47.16232" lon="-1.28406">
        <ele>94</ele>
        <time>2021-04-24T10:32:07.000Z</time>
      </trkpt>
      <trkpt lat="47.16233" lon="-1.28393">
        <ele>94</ele>
        <time>2021-04-24T10:32:09.000Z</time>
      </trkpt>
      <trkpt lat="47.16233" lon="-1.28379">
        <ele>94</ele>
        <time>2021-04-24T10:32:11.000Z</time>
      </trkpt>
      <trkpt lat="47.16233" lon="-1.28364">
        <ele>94</ele>
        <time>2021-04-24T10:32:13.000Z</time>
      </trkpt>
      <trkpt lat="47.16232" lon="-1.28351">
        <ele>94</ele>
        <time>2021-04-24T10:32:15.000Z</time>
      </trkpt>
      <trkpt lat="47.1623" lon="-1.28337">
        <ele>94</ele>
        <time>2021-04-24T10:32:17.000Z</time>
      </trkpt>
      <trkpt lat="47.16229" lon="-1.28324">
        <ele>94</ele>
        <time>2021-04-24T10:32:19.000Z</time>
      </trkpt>
      <trkpt lat="47.16227" lon="-1.2831">
        <ele>94</ele>
        <time>2021-04-24T10:32:21.000Z</time>
      </trkpt>
      <trkpt lat="47.16225" lon="-1.28296">
        <ele>94</ele>
        <time>2021-04-24T10:32:23.000Z</time>
      </trkpt>
      <trkpt lat="47.16222" lon="-1.28282">
        <ele>95</ele>
        <time>2021-04-24T10:32:25.000Z</time>
      </trkpt>
      <trkpt lat="47.16219" lon="-1.28267">
        <ele>95</ele>
        <time>2021-04-24T10:32:27.000Z</time>
      </trkpt>
      <trkpt lat="47.16217" lon="-1.28252">
        <ele>95</ele>
        <time>2021-04-24T10:32:29.000Z</time>
      </trkpt>
      <trkpt lat="47.16214" lon="-1.28239">
        <ele>95</ele>
        <time>2021-04-24T10:32:31.000Z</time>
      </trkpt>
      <trkpt lat="47.16212" lon="-1.28225">
        <ele>96</ele>
        <time>2021-04-24T10:32:33.000Z</time>
      </trkpt>
      <trkpt lat="47.1621" lon="-1.28211">
        <ele>96</ele>
        <time>2021-04-24T10:32:35.000Z</time>
      </trkpt>
      <trkpt lat="47.16207" lon="-1.28197">
        <ele>96</ele>
        <time>2021-04-24T10:32:37.000Z</time>
      </trkpt>
      <trkpt lat="47.16204" lon="-1.28184">
        <ele>96</ele>
        <time>2021-04-24T10:32:39.000Z</time>
      </trkpt>
      <trkpt lat="47.16202" lon="-1.28169">
        <ele>96</ele>
        <time>2021-04-24T10:32:41.000Z</time>
      </trkpt>
      <trkpt lat="47.16199" lon="-1.28155">
        <ele>95</ele>
        <time>2021-04-24T10:32:43.000Z</time>
      </trkpt>
      <trkpt lat="47.16196" lon="-1.28141">
        <ele>95</ele>
        <time>2021-04-24T10:32:45.000Z</time>
      </trkpt>
      <trkpt lat="47.16194" lon="-1.28128">
        <ele>96</ele>
        <time>2021-04-24T10:32:47.000Z</time>
      </trkpt>
      <trkpt lat="47.16192" lon="-1.28114">
        <ele>96</ele>
        <time>2021-04-24T10:32:49.000Z</time>
      </trkpt>
      <trkpt lat="47.1619" lon="-1.281">
        <ele>96</ele>
        <time>2021-04-24T10:32:51.000Z</time>
      </trkpt>
      <trkpt lat="47.16188" lon="-1.28086">
        <ele>96</ele>
        <time>2021-04-24T10:32:53.000Z</time>
      </trkpt>
      <trkpt lat="47.16187" lon="-1.28072">
        <ele>96</ele>
        <time>2021-04-24T10:32:55.000Z</time>
      </trkpt>
      <trkpt lat="47.16186" lon="-1.28059">
        <ele>96</ele>
        <time>2021-04-24T10:32:57.000Z</time>
      </trkpt>
      <trkpt lat="47.16185" lon="-1.28045">
        <ele>96</ele>
        <time>2021-04-24T10:32:59.000Z</time>
      </trkpt>
      <trkpt lat="47.16184" lon="-1.28031">
        <ele>96</ele>
        <time>2021-04-24T10:33:01.000Z</time>
      </trkpt>
      <trkpt lat="47.16182" lon="-1.28011">
        <ele>96</ele>
        <time>2021-04-24T10:33:04.000Z</time>
      </trkpt>
      <trkpt lat="47.16182" lon="-1.27997">
        <ele>96</ele>
        <time>2021-04-24T10:33:06.000Z</time>
      </trkpt>
      <trkpt lat="47.16182" lon="-1.27984">
        <ele>97</ele>
        <time>2021-04-24T10:33:08.000Z</time>
      </trkpt>
      <trkpt lat="47.16182" lon="-1.27969">
        <ele>97</ele>
        <time>2021-04-24T10:33:10.000Z</time>
      </trkpt>
      <trkpt lat="47.16181" lon="-1.27956">
        <ele>97</ele>
        <time>2021-04-24T10:33:12.000Z</time>
      </trkpt>
      <trkpt lat="47.16182" lon="-1.27941">
        <ele>97</ele>
        <time>2021-04-24T10:33:14.000Z</time>
      </trkpt>
      <trkpt lat="47.16182" lon="-1.27927">
        <ele>98</ele>
        <time>2021-04-24T10:33:16.000Z</time>
      </trkpt>
      <trkpt lat="47.16182" lon="-1.27913">
        <ele>98</ele>
        <time>2021-04-24T10:33:18.000Z</time>
      </trkpt>
      <trkpt lat="47.16182" lon="-1.27899">
        <ele>98</ele>
        <time>2021-04-24T10:33:20.000Z</time>
      </trkpt>
      <trkpt lat="47.16182" lon="-1.27885">
        <ele>98</ele>
        <time>2021-04-24T10:33:22.000Z</time>
      </trkpt>
      <trkpt lat="47.16183" lon="-1.27872">
        <ele>98</ele>
        <time>2021-04-24T10:33:24.000Z</time>
      </trkpt>
      <trkpt lat="47.16183" lon="-1.27858">
        <ele>99</ele>
        <time>2021-04-24T10:33:26.000Z</time>
      </trkpt>
      <trkpt lat="47.16182" lon="-1.27838">
        <ele>99</ele>
        <time>2021-04-24T10:33:29.000Z</time>
      </trkpt>
      <trkpt lat="47.16183" lon="-1.27824">
        <ele>99</ele>
        <time>2021-04-24T10:33:31.000Z</time>
      </trkpt>
      <trkpt lat="47.16183" lon="-1.27804">
        <ele>99</ele>
        <time>2021-04-24T10:33:34.000Z</time>
      </trkpt>
      <trkpt lat="47.16183" lon="-1.27791">
        <ele>99</ele>
        <time>2021-04-24T10:33:36.000Z</time>
      </trkpt>
      <trkpt lat="47.16184" lon="-1.27777">
        <ele>100</ele>
        <time>2021-04-24T10:33:38.000Z</time>
      </trkpt>
      <trkpt lat="47.16185" lon="-1.27758">
        <ele>100</ele>
        <time>2021-04-24T10:33:41.000Z</time>
      </trkpt>
      <trkpt lat="47.16186" lon="-1.27745">
        <ele>101</ele>
        <time>2021-04-24T10:33:43.000Z</time>
      </trkpt>
      <trkpt lat="47.16188" lon="-1.27726">
        <ele>101</ele>
        <time>2021-04-24T10:33:46.000Z</time>
      </trkpt>
      <trkpt lat="47.1619" lon="-1.27707">
        <ele>102</ele>
        <time>2021-04-24T10:33:49.000Z</time>
      </trkpt>
      <trkpt lat="47.16192" lon="-1.27689">
        <ele>103</ele>
        <time>2021-04-24T10:33:52.000Z</time>
      </trkpt>
      <trkpt lat="47.1619" lon="-1.27671">
        <ele>104</ele>
        <time>2021-04-24T10:33:55.000Z</time>
      </trkpt>
      <trkpt lat="47.16185" lon="-1.27654">
        <ele>104</ele>
        <time>2021-04-24T10:33:58.000Z</time>
      </trkpt>
      <trkpt lat="47.1618" lon="-1.27639">
        <ele>104</ele>
        <time>2021-04-24T10:34:01.000Z</time>
      </trkpt>
      <trkpt lat="47.16177" lon="-1.27626">
        <ele>104</ele>
        <time>2021-04-24T10:34:04.000Z</time>
      </trkpt>
      <trkpt lat="47.16168" lon="-1.27617">
        <ele>105</ele>
        <time>2021-04-24T10:34:14.000Z</time>
      </trkpt>
      <trkpt lat="47.16169" lon="-1.27603">
        <ele>105</ele>
        <time>2021-04-24T10:34:16.000Z</time>
      </trkpt>
      <trkpt lat="47.16166" lon="-1.2759">
        <ele>105</ele>
        <time>2021-04-24T10:34:18.000Z</time>
      </trkpt>
      <trkpt lat="47.16162" lon="-1.27576">
        <ele>105</ele>
        <time>2021-04-24T10:34:20.000Z</time>
      </trkpt>
      <trkpt lat="47.1616" lon="-1.27563">
        <ele>105</ele>
        <time>2021-04-24T10:34:22.000Z</time>
      </trkpt>
      <trkpt lat="47.16159" lon="-1.27544">
        <ele>106</ele>
        <time>2021-04-24T10:34:25.000Z</time>
      </trkpt>
      <trkpt lat="47.16161" lon="-1.2753">
        <ele>106</ele>
        <time>2021-04-24T10:34:27.000Z</time>
      </trkpt>
      <trkpt lat="47.16165" lon="-1.27517">
        <ele>106</ele>
        <time>2021-04-24T10:34:29.000Z</time>
      </trkpt>
      <trkpt lat="47.16169" lon="-1.27505">
        <ele>106</ele>
        <time>2021-04-24T10:34:31.000Z</time>
      </trkpt>
      <trkpt lat="47.16173" lon="-1.27492">
        <ele>107</ele>
        <time>2021-04-24T10:34:33.000Z</time>
      </trkpt>
      <trkpt lat="47.16179" lon="-1.27476">
        <ele>107</ele>
        <time>2021-04-24T10:34:36.000Z</time>
      </trkpt>
      <trkpt lat="47.16183" lon="-1.27457">
        <ele>107</ele>
        <time>2021-04-24T10:34:39.000Z</time>
      </trkpt>
      <trkpt lat="47.16182" lon="-1.27443">
        <ele>106</ele>
        <time>2021-04-24T10:34:41.000Z</time>
      </trkpt>
      <trkpt lat="47.16179" lon="-1.27429">
        <ele>106</ele>
        <time>2021-04-24T10:34:43.000Z</time>
      </trkpt>
      <trkpt lat="47.16175" lon="-1.27415">
        <ele>107</ele>
        <time>2021-04-24T10:34:45.000Z</time>
      </trkpt>
      <trkpt lat="47.16171" lon="-1.27403">
        <ele>107</ele>
        <time>2021-04-24T10:34:47.000Z</time>
      </trkpt>
      <trkpt lat="47.16167" lon="-1.2739">
        <ele>107</ele>
        <time>2021-04-24T10:34:49.000Z</time>
      </trkpt>
      <trkpt lat="47.16164" lon="-1.27376">
        <ele>107</ele>
        <time>2021-04-24T10:34:51.000Z</time>
      </trkpt>
      <trkpt lat="47.1616" lon="-1.27362">
        <ele>107</ele>
        <time>2021-04-24T10:34:53.000Z</time>
      </trkpt>
      <trkpt lat="47.16156" lon="-1.27349">
        <ele>107</ele>
        <time>2021-04-24T10:34:55.000Z</time>
      </trkpt>
      <trkpt lat="47.16152" lon="-1.27336">
        <ele>108</ele>
        <time>2021-04-24T10:34:57.000Z</time>
      </trkpt>
      <trkpt lat="47.1615" lon="-1.27323">
        <ele>108</ele>
        <time>2021-04-24T10:34:59.000Z</time>
      </trkpt>
      <trkpt lat="47.16147" lon="-1.27309">
        <ele>108</ele>
        <time>2021-04-24T10:35:01.000Z</time>
      </trkpt>
      <trkpt lat="47.16145" lon="-1.27296">
        <ele>108</ele>
        <time>2021-04-24T10:35:03.000Z</time>
      </trkpt>
      <trkpt lat="47.16143" lon="-1.27282">
        <ele>108</ele>
        <time>2021-04-24T10:35:05.000Z</time>
      </trkpt>
      <trkpt lat="47.16141" lon="-1.27268">
        <ele>108</ele>
        <time>2021-04-24T10:35:07.000Z</time>
      </trkpt>
      <trkpt lat="47.16139" lon="-1.27254">
        <ele>108</ele>
        <time>2021-04-24T10:35:09.000Z</time>
      </trkpt>
      <trkpt lat="47.16138" lon="-1.2724">
        <ele>108</ele>
        <time>2021-04-24T10:35:11.000Z</time>
      </trkpt>
      <trkpt lat="47.16136" lon="-1.27226">
        <ele>109</ele>
        <time>2021-04-24T10:35:13.000Z</time>
      </trkpt>
      <trkpt lat="47.16134" lon="-1.27213">
        <ele>109</ele>
        <time>2021-04-24T10:35:15.000Z</time>
      </trkpt>
      <trkpt lat="47.16132" lon="-1.27198">
        <ele>109</ele>
        <time>2021-04-24T10:35:17.000Z</time>
      </trkpt>
      <trkpt lat="47.16129" lon="-1.27184">
        <ele>108</ele>
        <time>2021-04-24T10:35:19.000Z</time>
      </trkpt>
      <trkpt lat="47.16127" lon="-1.2717">
        <ele>108</ele>
        <time>2021-04-24T10:35:21.000Z</time>
      </trkpt>
      <trkpt lat="47.16125" lon="-1.27156">
        <ele>108</ele>
        <time>2021-04-24T10:35:23.000Z</time>
      </trkpt>
      <trkpt lat="47.16123" lon="-1.27141">
        <ele>107</ele>
        <time>2021-04-24T10:35:25.000Z</time>
      </trkpt>
      <trkpt lat="47.16122" lon="-1.27125">
        <ele>107</ele>
        <time>2021-04-24T10:35:27.000Z</time>
      </trkpt>
      <trkpt lat="47.16118" lon="-1.27109">
        <ele>107</ele>
        <time>2021-04-24T10:35:29.000Z</time>
      </trkpt>
      <trkpt lat="47.16116" lon="-1.27093">
        <ele>107</ele>
        <time>2021-04-24T10:35:31.000Z</time>
      </trkpt>
      <trkpt lat="47.16113" lon="-1.27076">
        <ele>107</ele>
        <time>2021-04-24T10:35:33.000Z</time>
      </trkpt>
      <trkpt lat="47.16111" lon="-1.27059">
        <ele>106</ele>
        <time>2021-04-24T10:35:35.000Z</time>
      </trkpt>
      <trkpt lat="47.16107" lon="-1.27043">
        <ele>106</ele>
        <time>2021-04-24T10:35:37.000Z</time>
      </trkpt>
      <trkpt lat="47.16105" lon="-1.27026">
        <ele>106</ele>
        <time>2021-04-24T10:35:39.000Z</time>
      </trkpt>
      <trkpt lat="47.16102" lon="-1.27009">
        <ele>106</ele>
        <time>2021-04-24T10:35:41.000Z</time>
      </trkpt>
      <trkpt lat="47.161" lon="-1.26992">
        <ele>105</ele>
        <time>2021-04-24T10:35:43.000Z</time>
      </trkpt>
      <trkpt lat="47.16096" lon="-1.26968">
        <ele>105</ele>
        <time>2021-04-24T10:35:46.000Z</time>
      </trkpt>
      <trkpt lat="47.16094" lon="-1.26952">
        <ele>105</ele>
        <time>2021-04-24T10:35:48.000Z</time>
      </trkpt>
      <trkpt lat="47.16091" lon="-1.2693">
        <ele>105</ele>
        <time>2021-04-24T10:35:51.000Z</time>
      </trkpt>
      <trkpt lat="47.16091" lon="-1.26911">
        <ele>105</ele>
        <time>2021-04-24T10:35:54.000Z</time>
      </trkpt>
      <trkpt lat="47.16091" lon="-1.26896">
        <ele>105</ele>
        <time>2021-04-24T10:36:00.000Z</time>
      </trkpt>
      <trkpt lat="47.16087" lon="-1.26881">
        <ele>105</ele>
        <time>2021-04-24T10:36:03.000Z</time>
      </trkpt>
      <trkpt lat="47.16085" lon="-1.26867">
        <ele>105</ele>
        <time>2021-04-24T10:36:05.000Z</time>
      </trkpt>
      <trkpt lat="47.16084" lon="-1.26849">
        <ele>105</ele>
        <time>2021-04-24T10:36:07.000Z</time>
      </trkpt>
      <trkpt lat="47.16082" lon="-1.26822">
        <ele>104</ele>
        <time>2021-04-24T10:36:10.000Z</time>
      </trkpt>
      <trkpt lat="47.16082" lon="-1.26803">
        <ele>104</ele>
        <time>2021-04-24T10:36:12.000Z</time>
      </trkpt>
      <trkpt lat="47.16081" lon="-1.26776">
        <ele>103</ele>
        <time>2021-04-24T10:36:15.000Z</time>
      </trkpt>
      <trkpt lat="47.16079" lon="-1.26749">
        <ele>103</ele>
        <time>2021-04-24T10:36:18.000Z</time>
      </trkpt>
      <trkpt lat="47.16078" lon="-1.26731">
        <ele>103</ele>
        <time>2021-04-24T10:36:20.000Z</time>
      </trkpt>
      <trkpt lat="47.16077" lon="-1.26712">
        <ele>103</ele>
        <time>2021-04-24T10:36:22.000Z</time>
      </trkpt>
      <trkpt lat="47.16077" lon="-1.26686">
        <ele>102</ele>
        <time>2021-04-24T10:36:25.000Z</time>
      </trkpt>
      <trkpt lat="47.16078" lon="-1.26668">
        <ele>102</ele>
        <time>2021-04-24T10:36:27.000Z</time>
      </trkpt>
      <trkpt lat="47.1608" lon="-1.26651">
        <ele>101</ele>
        <time>2021-04-24T10:36:29.000Z</time>
      </trkpt>
      <trkpt lat="47.16084" lon="-1.26635">
        <ele>100</ele>
        <time>2021-04-24T10:36:31.000Z</time>
      </trkpt>
      <trkpt lat="47.16084" lon="-1.26619">
        <ele>101</ele>
        <time>2021-04-24T10:36:33.000Z</time>
      </trkpt>
      <trkpt lat="47.16082" lon="-1.26594">
        <ele>102</ele>
        <time>2021-04-24T10:36:36.000Z</time>
      </trkpt>
      <trkpt lat="47.16081" lon="-1.26578">
        <ele>102</ele>
        <time>2021-04-24T10:36:38.000Z</time>
      </trkpt>
      <trkpt lat="47.16084" lon="-1.26561">
        <ele>102</ele>
        <time>2021-04-24T10:36:40.000Z</time>
      </trkpt>
      <trkpt lat="47.16091" lon="-1.26548">
        <ele>102</ele>
        <time>2021-04-24T10:36:42.000Z</time>
      </trkpt>
      <trkpt lat="47.16099" lon="-1.26535">
        <ele>102</ele>
        <time>2021-04-24T10:36:44.000Z</time>
      </trkpt>
      <trkpt lat="47.16105" lon="-1.26524">
        <ele>102</ele>
        <time>2021-04-24T10:36:46.000Z</time>
      </trkpt>
      <trkpt lat="47.16112" lon="-1.26512">
        <ele>102</ele>
        <time>2021-04-24T10:36:48.000Z</time>
      </trkpt>
      <trkpt lat="47.16119" lon="-1.26501">
        <ele>102</ele>
        <time>2021-04-24T10:36:50.000Z</time>
      </trkpt>
      <trkpt lat="47.16125" lon="-1.26489">
        <ele>102</ele>
        <time>2021-04-24T10:36:52.000Z</time>
      </trkpt>
      <trkpt lat="47.16132" lon="-1.26477">
        <ele>101</ele>
        <time>2021-04-24T10:36:54.000Z</time>
      </trkpt>
      <trkpt lat="47.16138" lon="-1.26465">
        <ele>101</ele>
        <time>2021-04-24T10:36:56.000Z</time>
      </trkpt>
      <trkpt lat="47.16144" lon="-1.26452">
        <ele>101</ele>
        <time>2021-04-24T10:36:58.000Z</time>
      </trkpt>
      <trkpt lat="47.16149" lon="-1.26438">
        <ele>101</ele>
        <time>2021-04-24T10:37:00.000Z</time>
      </trkpt>
      <trkpt lat="47.16153" lon="-1.26424">
        <ele>101</ele>
        <time>2021-04-24T10:37:02.000Z</time>
      </trkpt>
      <trkpt lat="47.16157" lon="-1.2641">
        <ele>101</ele>
        <time>2021-04-24T10:37:04.000Z</time>
      </trkpt>
      <trkpt lat="47.16162" lon="-1.26396">
        <ele>101</ele>
        <time>2021-04-24T10:37:06.000Z</time>
      </trkpt>
      <trkpt lat="47.16166" lon="-1.26377">
        <ele>101</ele>
        <time>2021-04-24T10:37:09.000Z</time>
      </trkpt>
      <trkpt lat="47.16171" lon="-1.26363">
        <ele>100</ele>
        <time>2021-04-24T10:37:11.000Z</time>
      </trkpt>
      <trkpt lat="47.16176" lon="-1.26348">
        <ele>99</ele>
        <time>2021-04-24T10:37:13.000Z</time>
      </trkpt>
      <trkpt lat="47.16181" lon="-1.26333">
        <ele>99</ele>
        <time>2021-04-24T10:37:15.000Z</time>
      </trkpt>
      <trkpt lat="47.16185" lon="-1.26316">
        <ele>99</ele>
        <time>2021-04-24T10:37:17.000Z</time>
      </trkpt>
      <trkpt lat="47.16189" lon="-1.26299">
        <ele>99</ele>
        <time>2021-04-24T10:37:19.000Z</time>
      </trkpt>
      <trkpt lat="47.16193" lon="-1.26282">
        <ele>98</ele>
        <time>2021-04-24T10:37:21.000Z</time>
      </trkpt>
      <trkpt lat="47.16197" lon="-1.26266">
        <ele>98</ele>
        <time>2021-04-24T10:37:23.000Z</time>
      </trkpt>
      <trkpt lat="47.16203" lon="-1.2625">
        <ele>98</ele>
        <time>2021-04-24T10:37:25.000Z</time>
      </trkpt>
      <trkpt lat="47.16208" lon="-1.26234">
        <ele>98</ele>
        <time>2021-04-24T10:37:27.000Z</time>
      </trkpt>
      <trkpt lat="47.16213" lon="-1.26219">
        <ele>98</ele>
        <time>2021-04-24T10:37:29.000Z</time>
      </trkpt>
      <trkpt lat="47.16218" lon="-1.26205">
        <ele>98</ele>
        <time>2021-04-24T10:37:31.000Z</time>
      </trkpt>
      <trkpt lat="47.16224" lon="-1.26192">
        <ele>98</ele>
        <time>2021-04-24T10:37:33.000Z</time>
      </trkpt>
      <trkpt lat="47.1623" lon="-1.26178">
        <ele>97</ele>
        <time>2021-04-24T10:37:35.000Z</time>
      </trkpt>
      <trkpt lat="47.16235" lon="-1.26164">
        <ele>98</ele>
        <time>2021-04-24T10:37:37.000Z</time>
      </trkpt>
      <trkpt lat="47.16241" lon="-1.26151">
        <ele>98</ele>
        <time>2021-04-24T10:37:39.000Z</time>
      </trkpt>
      <trkpt lat="47.16245" lon="-1.26137">
        <ele>98</ele>
        <time>2021-04-24T10:37:41.000Z</time>
      </trkpt>
      <trkpt lat="47.16249" lon="-1.26123">
        <ele>99</ele>
        <time>2021-04-24T10:37:43.000Z</time>
      </trkpt>
      <trkpt lat="47.16254" lon="-1.26109">
        <ele>99</ele>
        <time>2021-04-24T10:37:45.000Z</time>
      </trkpt>
      <trkpt lat="47.16256" lon="-1.26094">
        <ele>98</ele>
        <time>2021-04-24T10:37:47.000Z</time>
      </trkpt>
      <trkpt lat="47.16254" lon="-1.26079">
        <ele>97</ele>
        <time>2021-04-24T10:37:49.000Z</time>
      </trkpt>
      <trkpt lat="47.16258" lon="-1.26064">
        <ele>98</ele>
        <time>2021-04-24T10:37:51.000Z</time>
      </trkpt>
      <trkpt lat="47.16265" lon="-1.26055">
        <ele>98</ele>
        <time>2021-04-24T10:37:53.000Z</time>
      </trkpt>
      <trkpt lat="47.1627" lon="-1.26042">
        <ele>98</ele>
        <time>2021-04-24T10:37:55.000Z</time>
      </trkpt>
      <trkpt lat="47.16275" lon="-1.26021">
        <ele>99</ele>
        <time>2021-04-24T10:37:58.000Z</time>
      </trkpt>
      <trkpt lat="47.1628" lon="-1.26007">
        <ele>99</ele>
        <time>2021-04-24T10:38:00.000Z</time>
      </trkpt>
      <trkpt lat="47.16283" lon="-1.25993">
        <ele>99</ele>
        <time>2021-04-24T10:38:02.000Z</time>
      </trkpt>
      <trkpt lat="47.16286" lon="-1.2598">
        <ele>99</ele>
        <time>2021-04-24T10:38:04.000Z</time>
      </trkpt>
      <trkpt lat="47.16289" lon="-1.25967">
        <ele>100</ele>
        <time>2021-04-24T10:38:06.000Z</time>
      </trkpt>
      <trkpt lat="47.16291" lon="-1.25954">
        <ele>100</ele>
        <time>2021-04-24T10:38:08.000Z</time>
      </trkpt>
      <trkpt lat="47.16295" lon="-1.25935">
        <ele>101</ele>
        <time>2021-04-24T10:38:11.000Z</time>
      </trkpt>
      <trkpt lat="47.16298" lon="-1.25918">
        <ele>101</ele>
        <time>2021-04-24T10:38:14.000Z</time>
      </trkpt>
      <trkpt lat="47.16301" lon="-1.25904">
        <ele>102</ele>
        <time>2021-04-24T10:38:16.000Z</time>
      </trkpt>
      <trkpt lat="47.16304" lon="-1.25886">
        <ele>103</ele>
        <time>2021-04-24T10:38:19.000Z</time>
      </trkpt>
      <trkpt lat="47.16307" lon="-1.25873">
        <ele>104</ele>
        <time>2021-04-24T10:38:21.000Z</time>
      </trkpt>
      <trkpt lat="47.16309" lon="-1.2586">
        <ele>104</ele>
        <time>2021-04-24T10:38:23.000Z</time>
      </trkpt>
      <trkpt lat="47.16312" lon="-1.25846">
        <ele>105</ele>
        <time>2021-04-24T10:38:25.000Z</time>
      </trkpt>
      <trkpt lat="47.16315" lon="-1.25827">
        <ele>105</ele>
        <time>2021-04-24T10:38:28.000Z</time>
      </trkpt>
      <trkpt lat="47.16317" lon="-1.25808">
        <ele>106</ele>
        <time>2021-04-24T10:38:31.000Z</time>
      </trkpt>
      <trkpt lat="47.1632" lon="-1.25789">
        <ele>107</ele>
        <time>2021-04-24T10:38:34.000Z</time>
      </trkpt>
      <trkpt lat="47.16322" lon="-1.2577">
        <ele>108</ele>
        <time>2021-04-24T10:38:37.000Z</time>
      </trkpt>
      <trkpt lat="47.16325" lon="-1.25752">
        <ele>108</ele>
        <time>2021-04-24T10:38:40.000Z</time>
      </trkpt>
      <trkpt lat="47.16328" lon="-1.25733">
        <ele>108</ele>
        <time>2021-04-24T10:38:43.000Z</time>
      </trkpt>
      <trkpt lat="47.16331" lon="-1.25714">
        <ele>108</ele>
        <time>2021-04-24T10:38:46.000Z</time>
      </trkpt>
      <trkpt lat="47.16334" lon="-1.25696">
        <ele>108</ele>
        <time>2021-04-24T10:38:49.000Z</time>
      </trkpt>
      <trkpt lat="47.16336" lon="-1.25682">
        <ele>108</ele>
        <time>2021-04-24T10:38:51.000Z</time>
      </trkpt>
      <trkpt lat="47.16338" lon="-1.25668">
        <ele>107</ele>
        <time>2021-04-24T10:38:53.000Z</time>
      </trkpt>
      <trkpt lat="47.16342" lon="-1.25655">
        <ele>107</ele>
        <time>2021-04-24T10:38:55.000Z</time>
      </trkpt>
      <trkpt lat="47.16346" lon="-1.25641">
        <ele>107</ele>
        <time>2021-04-24T10:38:57.000Z</time>
      </trkpt>
      <trkpt lat="47.16352" lon="-1.25629">
        <ele>107</ele>
        <time>2021-04-24T10:38:59.000Z</time>
      </trkpt>
      <trkpt lat="47.16357" lon="-1.25614">
        <ele>106</ele>
        <time>2021-04-24T10:39:01.000Z</time>
      </trkpt>
      <trkpt lat="47.16367" lon="-1.25589">
        <ele>105</ele>
        <time>2021-04-24T10:39:04.000Z</time>
      </trkpt>
      <trkpt lat="47.16374" lon="-1.25571">
        <ele>104</ele>
        <time>2021-04-24T10:39:06.000Z</time>
      </trkpt>
      <trkpt lat="47.1638" lon="-1.25553">
        <ele>104</ele>
        <time>2021-04-24T10:39:08.000Z</time>
      </trkpt>
      <trkpt lat="47.16387" lon="-1.25535">
        <ele>102</ele>
        <time>2021-04-24T10:39:10.000Z</time>
      </trkpt>
      <trkpt lat="47.16394" lon="-1.25519">
        <ele>102</ele>
        <time>2021-04-24T10:39:12.000Z</time>
      </trkpt>
      <trkpt lat="47.164" lon="-1.25501">
        <ele>102</ele>
        <time>2021-04-24T10:39:14.000Z</time>
      </trkpt>
      <trkpt lat="47.16405" lon="-1.25483">
        <ele>101</ele>
        <time>2021-04-24T10:39:16.000Z</time>
      </trkpt>
      <trkpt lat="47.16409" lon="-1.25464">
        <ele>101</ele>
        <time>2021-04-24T10:39:18.000Z</time>
      </trkpt>
      <trkpt lat="47.16411" lon="-1.2544">
        <ele>101</ele>
        <time>2021-04-24T10:39:21.000Z</time>
      </trkpt>
      <trkpt lat="47.16413" lon="-1.25425">
        <ele>101</ele>
        <time>2021-04-24T10:39:24.000Z</time>
      </trkpt>
      <trkpt lat="47.16425" lon="-1.25419">
        <ele>101</ele>
        <time>2021-04-24T10:39:27.000Z</time>
      </trkpt>
      <trkpt lat="47.16435" lon="-1.25412">
        <ele>101</ele>
        <time>2021-04-24T10:39:29.000Z</time>
      </trkpt>
      <trkpt lat="47.16443" lon="-1.25402">
        <ele>101</ele>
        <time>2021-04-24T10:39:31.000Z</time>
      </trkpt>
      <trkpt lat="47.16453" lon="-1.25391">
        <ele>101</ele>
        <time>2021-04-24T10:39:33.000Z</time>
      </trkpt>
      <trkpt lat="47.16463" lon="-1.25381">
        <ele>100</ele>
        <time>2021-04-24T10:39:35.000Z</time>
      </trkpt>
      <trkpt lat="47.16474" lon="-1.25372">
        <ele>101</ele>
        <time>2021-04-24T10:39:37.000Z</time>
      </trkpt>
      <trkpt lat="47.16484" lon="-1.25362">
        <ele>101</ele>
        <time>2021-04-24T10:39:39.000Z</time>
      </trkpt>
      <trkpt lat="47.16493" lon="-1.25352">
        <ele>101</ele>
        <time>2021-04-24T10:39:41.000Z</time>
      </trkpt>
      <trkpt lat="47.16501" lon="-1.25344">
        <ele>102</ele>
        <time>2021-04-24T10:39:43.000Z</time>
      </trkpt>
      <trkpt lat="47.16509" lon="-1.25336">
        <ele>103</ele>
        <time>2021-04-24T10:39:45.000Z</time>
      </trkpt>
      <trkpt lat="47.16517" lon="-1.25328">
        <ele>103</ele>
        <time>2021-04-24T10:39:47.000Z</time>
      </trkpt>
      <trkpt lat="47.16527" lon="-1.25316">
        <ele>104</ele>
        <time>2021-04-24T10:39:50.000Z</time>
      </trkpt>
      <trkpt lat="47.16535" lon="-1.25308">
        <ele>104</ele>
        <time>2021-04-24T10:39:52.000Z</time>
      </trkpt>
      <trkpt lat="47.16546" lon="-1.25296">
        <ele>104</ele>
        <time>2021-04-24T10:39:55.000Z</time>
      </trkpt>
      <trkpt lat="47.16553" lon="-1.25288">
        <ele>104</ele>
        <time>2021-04-24T10:39:57.000Z</time>
      </trkpt>
      <trkpt lat="47.16564" lon="-1.25277">
        <ele>105</ele>
        <time>2021-04-24T10:40:00.000Z</time>
      </trkpt>
      <trkpt lat="47.16574" lon="-1.25265">
        <ele>105</ele>
        <time>2021-04-24T10:40:03.000Z</time>
      </trkpt>
      <trkpt lat="47.16583" lon="-1.25252">
        <ele>106</ele>
        <time>2021-04-24T10:40:06.000Z</time>
      </trkpt>
      <trkpt lat="47.16592" lon="-1.25237">
        <ele>107</ele>
        <time>2021-04-24T10:40:09.000Z</time>
      </trkpt>
      <trkpt lat="47.166" lon="-1.25225">
        <ele>107</ele>
        <time>2021-04-24T10:40:12.000Z</time>
      </trkpt>
      <trkpt lat="47.16608" lon="-1.25211">
        <ele>107</ele>
        <time>2021-04-24T10:40:15.000Z</time>
      </trkpt>
      <trkpt lat="47.16615" lon="-1.25197">
        <ele>108</ele>
        <time>2021-04-24T10:40:18.000Z</time>
      </trkpt>
      <trkpt lat="47.16623" lon="-1.25183">
        <ele>109</ele>
        <time>2021-04-24T10:40:21.000Z</time>
      </trkpt>
      <trkpt lat="47.1663" lon="-1.25171">
        <ele>109</ele>
        <time>2021-04-24T10:40:24.000Z</time>
      </trkpt>
      <trkpt lat="47.16638" lon="-1.25157">
        <ele>110</ele>
        <time>2021-04-24T10:40:27.000Z</time>
      </trkpt>
      <trkpt lat="47.16645" lon="-1.25143">
        <ele>110</ele>
        <time>2021-04-24T10:40:30.000Z</time>
      </trkpt>
      <trkpt lat="47.16653" lon="-1.25129">
        <ele>110</ele>
        <time>2021-04-24T10:40:33.000Z</time>
      </trkpt>
      <trkpt lat="47.16661" lon="-1.25116">
        <ele>111</ele>
        <time>2021-04-24T10:40:36.000Z</time>
      </trkpt>
      <trkpt lat="47.1667" lon="-1.25102">
        <ele>111</ele>
        <time>2021-04-24T10:40:39.000Z</time>
      </trkpt>
      <trkpt lat="47.16677" lon="-1.25089">
        <ele>111</ele>
        <time>2021-04-24T10:40:42.000Z</time>
      </trkpt>
      <trkpt lat="47.16684" lon="-1.25075">
        <ele>112</ele>
        <time>2021-04-24T10:40:45.000Z</time>
      </trkpt>
      <trkpt lat="47.16692" lon="-1.25062">
        <ele>113</ele>
        <time>2021-04-24T10:40:48.000Z</time>
      </trkpt>
      <trkpt lat="47.16699" lon="-1.25048">
        <ele>114</ele>
        <time>2021-04-24T10:40:51.000Z</time>
      </trkpt>
      <trkpt lat="47.16707" lon="-1.25035">
        <ele>114</ele>
        <time>2021-04-24T10:40:54.000Z</time>
      </trkpt>
      <trkpt lat="47.16716" lon="-1.25021">
        <ele>115</ele>
        <time>2021-04-24T10:40:57.000Z</time>
      </trkpt>
      <trkpt lat="47.16723" lon="-1.25007">
        <ele>115</ele>
        <time>2021-04-24T10:41:00.000Z</time>
      </trkpt>
      <trkpt lat="47.16731" lon="-1.24994">
        <ele>116</ele>
        <time>2021-04-24T10:41:03.000Z</time>
      </trkpt>
      <trkpt lat="47.16738" lon="-1.2498">
        <ele>116</ele>
        <time>2021-04-24T10:41:06.000Z</time>
      </trkpt>
      <trkpt lat="47.16745" lon="-1.24968">
        <ele>116</ele>
        <time>2021-04-24T10:41:09.000Z</time>
      </trkpt>
      <trkpt lat="47.16753" lon="-1.24955">
        <ele>117</ele>
        <time>2021-04-24T10:41:12.000Z</time>
      </trkpt>
      <trkpt lat="47.16761" lon="-1.24943">
        <ele>117</ele>
        <time>2021-04-24T10:41:15.000Z</time>
      </trkpt>
      <trkpt lat="47.1677" lon="-1.24931">
        <ele>118</ele>
        <time>2021-04-24T10:41:18.000Z</time>
      </trkpt>
      <trkpt lat="47.1678" lon="-1.24921">
        <ele>118</ele>
        <time>2021-04-24T10:41:21.000Z</time>
      </trkpt>
      <trkpt lat="47.1679" lon="-1.24911">
        <ele>119</ele>
        <time>2021-04-24T10:41:24.000Z</time>
      </trkpt>
      <trkpt lat="47.16801" lon="-1.24901">
        <ele>120</ele>
        <time>2021-04-24T10:41:27.000Z</time>
      </trkpt>
      <trkpt lat="47.16811" lon="-1.24892">
        <ele>120</ele>
        <time>2021-04-24T10:41:30.000Z</time>
      </trkpt>
      <trkpt lat="47.16821" lon="-1.24884">
        <ele>121</ele>
        <time>2021-04-24T10:41:33.000Z</time>
      </trkpt>
      <trkpt lat="47.16831" lon="-1.24876">
        <ele>121</ele>
        <time>2021-04-24T10:41:36.000Z</time>
      </trkpt>
      <trkpt lat="47.16842" lon="-1.24867">
        <ele>121</ele>
        <time>2021-04-24T10:41:39.000Z</time>
      </trkpt>
      <trkpt lat="47.16852" lon="-1.24858">
        <ele>122</ele>
        <time>2021-04-24T10:41:42.000Z</time>
      </trkpt>
      <trkpt lat="47.16863" lon="-1.24848">
        <ele>122</ele>
        <time>2021-04-24T10:41:45.000Z</time>
      </trkpt>
      <trkpt lat="47.16875" lon="-1.24838">
        <ele>122</ele>
        <time>2021-04-24T10:41:48.000Z</time>
      </trkpt>
      <trkpt lat="47.16886" lon="-1.24829">
        <ele>123</ele>
        <time>2021-04-24T10:41:51.000Z</time>
      </trkpt>
      <trkpt lat="47.16898" lon="-1.2482">
        <ele>123</ele>
        <time>2021-04-24T10:41:54.000Z</time>
      </trkpt>
      <trkpt lat="47.16909" lon="-1.24811">
        <ele>124</ele>
        <time>2021-04-24T10:41:57.000Z</time>
      </trkpt>
      <trkpt lat="47.1692" lon="-1.24801">
        <ele>124</ele>
        <time>2021-04-24T10:42:00.000Z</time>
      </trkpt>
      <trkpt lat="47.16931" lon="-1.24793">
        <ele>125</ele>
        <time>2021-04-24T10:42:03.000Z</time>
      </trkpt>
      <trkpt lat="47.16942" lon="-1.24783">
        <ele>125</ele>
        <time>2021-04-24T10:42:06.000Z</time>
      </trkpt>
      <trkpt lat="47.16953" lon="-1.24774">
        <ele>125</ele>
        <time>2021-04-24T10:42:09.000Z</time>
      </trkpt>
      <trkpt lat="47.16964" lon="-1.24765">
        <ele>125</ele>
        <time>2021-04-24T10:42:12.000Z</time>
      </trkpt>
      <trkpt lat="47.16975" lon="-1.24756">
        <ele>126</ele>
        <time>2021-04-24T10:42:15.000Z</time>
      </trkpt>
      <trkpt lat="47.16986" lon="-1.24747">
        <ele>126</ele>
        <time>2021-04-24T10:42:18.000Z</time>
      </trkpt>
      <trkpt lat="47.16997" lon="-1.24737">
        <ele>126</ele>
        <time>2021-04-24T10:42:21.000Z</time>
      </trkpt>
      <trkpt lat="47.17009" lon="-1.24728">
        <ele>126</ele>
        <time>2021-04-24T10:42:24.000Z</time>
      </trkpt>
      <trkpt lat="47.17021" lon="-1.24718">
        <ele>126</ele>
        <time>2021-04-24T10:42:27.000Z</time>
      </trkpt>
      <trkpt lat="47.17032" lon="-1.24708">
        <ele>126</ele>
        <time>2021-04-24T10:42:30.000Z</time>
      </trkpt>
      <trkpt lat="47.17043" lon="-1.24699">
        <ele>126</ele>
        <time>2021-04-24T10:42:33.000Z</time>
      </trkpt>
      <trkpt lat="47.17055" lon="-1.24689">
        <ele>127</ele>
        <time>2021-04-24T10:42:36.000Z</time>
      </trkpt>
      <trkpt lat="47.17066" lon="-1.2468">
        <ele>127</ele>
        <time>2021-04-24T10:42:39.000Z</time>
      </trkpt>
      <trkpt lat="47.17077" lon="-1.2467">
        <ele>126</ele>
        <time>2021-04-24T10:42:42.000Z</time>
      </trkpt>
      <trkpt lat="47.17085" lon="-1.24664">
        <ele>126</ele>
        <time>2021-04-24T10:42:44.000Z</time>
      </trkpt>
      <trkpt lat="47.17093" lon="-1.24657">
        <ele>126</ele>
        <time>2021-04-24T10:42:46.000Z</time>
      </trkpt>
      <trkpt lat="47.17101" lon="-1.24651">
        <ele>126</ele>
        <time>2021-04-24T10:42:48.000Z</time>
      </trkpt>
      <trkpt lat="47.1711" lon="-1.24644">
        <ele>127</ele>
        <time>2021-04-24T10:42:50.000Z</time>
      </trkpt>
      <trkpt lat="47.17118" lon="-1.24637">
        <ele>126</ele>
        <time>2021-04-24T10:42:52.000Z</time>
      </trkpt>
      <trkpt lat="47.17126" lon="-1.24629">
        <ele>126</ele>
        <time>2021-04-24T10:42:54.000Z</time>
      </trkpt>
      <trkpt lat="47.17135" lon="-1.24622">
        <ele>127</ele>
        <time>2021-04-24T10:42:56.000Z</time>
      </trkpt>
      <trkpt lat="47.17143" lon="-1.24616">
        <ele>126</ele>
        <time>2021-04-24T10:42:58.000Z</time>
      </trkpt>
      <trkpt lat="47.17152" lon="-1.24609">
        <ele>126</ele>
        <time>2021-04-24T10:43:00.000Z</time>
      </trkpt>
      <trkpt lat="47.1716" lon="-1.24602">
        <ele>127</ele>
        <time>2021-04-24T10:43:02.000Z</time>
      </trkpt>
      <trkpt lat="47.17169" lon="-1.24595">
        <ele>127</ele>
        <time>2021-04-24T10:43:04.000Z</time>
      </trkpt>
      <trkpt lat="47.17177" lon="-1.24588">
        <ele>127</ele>
        <time>2021-04-24T10:43:06.000Z</time>
      </trkpt>
      <trkpt lat="47.17186" lon="-1.24582">
        <ele>127</ele>
        <time>2021-04-24T10:43:08.000Z</time>
      </trkpt>
      <trkpt lat="47.17194" lon="-1.24574">
        <ele>127</ele>
        <time>2021-04-24T10:43:10.000Z</time>
      </trkpt>
      <trkpt lat="47.17203" lon="-1.24567">
        <ele>126</ele>
        <time>2021-04-24T10:43:12.000Z</time>
      </trkpt>
      <trkpt lat="47.17211" lon="-1.2456">
        <ele>126</ele>
        <time>2021-04-24T10:43:14.000Z</time>
      </trkpt>
      <trkpt lat="47.17219" lon="-1.24553">
        <ele>126</ele>
        <time>2021-04-24T10:43:16.000Z</time>
      </trkpt>
      <trkpt lat="47.17227" lon="-1.24545">
        <ele>126</ele>
        <time>2021-04-24T10:43:18.000Z</time>
      </trkpt>
      <trkpt lat="47.17236" lon="-1.24539">
        <ele>126</ele>
        <time>2021-04-24T10:43:20.000Z</time>
      </trkpt>
      <trkpt lat="47.17244" lon="-1.24532">
        <ele>126</ele>
        <time>2021-04-24T10:43:22.000Z</time>
      </trkpt>
      <trkpt lat="47.17253" lon="-1.24525">
        <ele>126</ele>
        <time>2021-04-24T10:43:24.000Z</time>
      </trkpt>
      <trkpt lat="47.17262" lon="-1.24517">
        <ele>126</ele>
        <time>2021-04-24T10:43:26.000Z</time>
      </trkpt>
      <trkpt lat="47.17271" lon="-1.2451">
        <ele>126</ele>
        <time>2021-04-24T10:43:28.000Z</time>
      </trkpt>
      <trkpt lat="47.1728" lon="-1.24503">
        <ele>126</ele>
        <time>2021-04-24T10:43:30.000Z</time>
      </trkpt>
      <trkpt lat="47.17288" lon="-1.24496">
        <ele>126</ele>
        <time>2021-04-24T10:43:32.000Z</time>
      </trkpt>
      <trkpt lat="47.17297" lon="-1.24489">
        <ele>125</ele>
        <time>2021-04-24T10:43:34.000Z</time>
      </trkpt>
      <trkpt lat="47.17306" lon="-1.24481">
        <ele>125</ele>
        <time>2021-04-24T10:43:36.000Z</time>
      </trkpt>
      <trkpt lat="47.17315" lon="-1.24473">
        <ele>125</ele>
        <time>2021-04-24T10:43:38.000Z</time>
      </trkpt>
      <trkpt lat="47.17324" lon="-1.24465">
        <ele>125</ele>
        <time>2021-04-24T10:43:40.000Z</time>
      </trkpt>
      <trkpt lat="47.17333" lon="-1.24455">
        <ele>125</ele>
        <time>2021-04-24T10:43:42.000Z</time>
      </trkpt>
      <trkpt lat="47.17342" lon="-1.24445">
        <ele>125</ele>
        <time>2021-04-24T10:43:44.000Z</time>
      </trkpt>
      <trkpt lat="47.1735" lon="-1.24433">
        <ele>124</ele>
        <time>2021-04-24T10:43:46.000Z</time>
      </trkpt>
      <trkpt lat="47.17357" lon="-1.24419">
        <ele>124</ele>
        <time>2021-04-24T10:43:48.000Z</time>
      </trkpt>
      <trkpt lat="47.17362" lon="-1.24403">
        <ele>124</ele>
        <time>2021-04-24T10:43:50.000Z</time>
      </trkpt>
      <trkpt lat="47.17367" lon="-1.24387">
        <ele>123</ele>
        <time>2021-04-24T10:43:52.000Z</time>
      </trkpt>
      <trkpt lat="47.17371" lon="-1.24371">
        <ele>123</ele>
        <time>2021-04-24T10:43:54.000Z</time>
      </trkpt>
      <trkpt lat="47.17376" lon="-1.24355">
        <ele>122</ele>
        <time>2021-04-24T10:43:56.000Z</time>
      </trkpt>
      <trkpt lat="47.1738" lon="-1.24337">
        <ele>122</ele>
        <time>2021-04-24T10:43:58.000Z</time>
      </trkpt>
      <trkpt lat="47.17385" lon="-1.24319">
        <ele>121</ele>
        <time>2021-04-24T10:44:00.000Z</time>
      </trkpt>
      <trkpt lat="47.1739" lon="-1.243">
        <ele>120</ele>
        <time>2021-04-24T10:44:02.000Z</time>
      </trkpt>
      <trkpt lat="47.17395" lon="-1.2428">
        <ele>119</ele>
        <time>2021-04-24T10:44:04.000Z</time>
      </trkpt>
      <trkpt lat="47.17401" lon="-1.24259">
        <ele>118</ele>
        <time>2021-04-24T10:44:06.000Z</time>
      </trkpt>
      <trkpt lat="47.17409" lon="-1.24237">
        <ele>117</ele>
        <time>2021-04-24T10:44:08.000Z</time>
      </trkpt>
      <trkpt lat="47.17416" lon="-1.24217">
        <ele>116</ele>
        <time>2021-04-24T10:44:10.000Z</time>
      </trkpt>
      <trkpt lat="47.17426" lon="-1.24197">
        <ele>115</ele>
        <time>2021-04-24T10:44:12.000Z</time>
      </trkpt>
      <trkpt lat="47.17436" lon="-1.24178">
        <ele>114</ele>
        <time>2021-04-24T10:44:14.000Z</time>
      </trkpt>
      <trkpt lat="47.17448" lon="-1.24159">
        <ele>113</ele>
        <time>2021-04-24T10:44:16.000Z</time>
      </trkpt>
      <trkpt lat="47.17459" lon="-1.24139">
        <ele>112</ele>
        <time>2021-04-24T10:44:18.000Z</time>
      </trkpt>
      <trkpt lat="47.17465" lon="-1.24128">
        <ele>111</ele>
        <time>2021-04-24T10:44:19.000Z</time>
      </trkpt>
      <trkpt lat="47.17471" lon="-1.24118">
        <ele>111</ele>
        <time>2021-04-24T10:44:20.000Z</time>
      </trkpt>
      <trkpt lat="47.17477" lon="-1.24107">
        <ele>110</ele>
        <time>2021-04-24T10:44:21.000Z</time>
      </trkpt>
      <trkpt lat="47.17483" lon="-1.24097">
        <ele>109</ele>
        <time>2021-04-24T10:44:22.000Z</time>
      </trkpt>
      <trkpt lat="47.17489" lon="-1.24086">
        <ele>109</ele>
        <time>2021-04-24T10:44:23.000Z</time>
      </trkpt>
      <trkpt lat="47.17495" lon="-1.24075">
        <ele>108</ele>
        <time>2021-04-24T10:44:24.000Z</time>
      </trkpt>
      <trkpt lat="47.17501" lon="-1.24064">
        <ele>108</ele>
        <time>2021-04-24T10:44:25.000Z</time>
      </trkpt>
      <trkpt lat="47.17507" lon="-1.24054">
        <ele>108</ele>
        <time>2021-04-24T10:44:26.000Z</time>
      </trkpt>
      <trkpt lat="47.17513" lon="-1.24044">
        <ele>107</ele>
        <time>2021-04-24T10:44:27.000Z</time>
      </trkpt>
      <trkpt lat="47.17524" lon="-1.24024">
        <ele>106</ele>
        <time>2021-04-24T10:44:29.000Z</time>
      </trkpt>
      <trkpt lat="47.17534" lon="-1.24005">
        <ele>106</ele>
        <time>2021-04-24T10:44:31.000Z</time>
      </trkpt>
      <trkpt lat="47.17542" lon="-1.23989">
        <ele>107</ele>
        <time>2021-04-24T10:44:33.000Z</time>
      </trkpt>
      <trkpt lat="47.17548" lon="-1.23973">
        <ele>107</ele>
        <time>2021-04-24T10:44:35.000Z</time>
      </trkpt>
      <trkpt lat="47.17553" lon="-1.23956">
        <ele>108</ele>
        <time>2021-04-24T10:44:37.000Z</time>
      </trkpt>
      <trkpt lat="47.17557" lon="-1.23939">
        <ele>108</ele>
        <time>2021-04-24T10:44:39.000Z</time>
      </trkpt>
      <trkpt lat="47.1756" lon="-1.23921">
        <ele>108</ele>
        <time>2021-04-24T10:44:41.000Z</time>
      </trkpt>
      <trkpt lat="47.17563" lon="-1.23903">
        <ele>109</ele>
        <time>2021-04-24T10:44:43.000Z</time>
      </trkpt>
      <trkpt lat="47.17565" lon="-1.23884">
        <ele>109</ele>
        <time>2021-04-24T10:44:45.000Z</time>
      </trkpt>
      <trkpt lat="47.17568" lon="-1.23867">
        <ele>109</ele>
        <time>2021-04-24T10:44:47.000Z</time>
      </trkpt>
      <trkpt lat="47.1757" lon="-1.23849">
        <ele>110</ele>
        <time>2021-04-24T10:44:49.000Z</time>
      </trkpt>
      <trkpt lat="47.17574" lon="-1.23831">
        <ele>111</ele>
        <time>2021-04-24T10:44:51.000Z</time>
      </trkpt>
      <trkpt lat="47.17577" lon="-1.23813">
        <ele>111</ele>
        <time>2021-04-24T10:44:53.000Z</time>
      </trkpt>
      <trkpt lat="47.17581" lon="-1.23797">
        <ele>112</ele>
        <time>2021-04-24T10:44:55.000Z</time>
      </trkpt>
      <trkpt lat="47.17585" lon="-1.23782">
        <ele>113</ele>
        <time>2021-04-24T10:44:57.000Z</time>
      </trkpt>
      <trkpt lat="47.1759" lon="-1.23767">
        <ele>113</ele>
        <time>2021-04-24T10:44:59.000Z</time>
      </trkpt>
      <trkpt lat="47.17595" lon="-1.23754">
        <ele>113</ele>
        <time>2021-04-24T10:45:01.000Z</time>
      </trkpt>
      <trkpt lat="47.176" lon="-1.23741">
        <ele>114</ele>
        <time>2021-04-24T10:45:03.000Z</time>
      </trkpt>
      <trkpt lat="47.17606" lon="-1.23728">
        <ele>114</ele>
        <time>2021-04-24T10:45:05.000Z</time>
      </trkpt>
      <trkpt lat="47.17612" lon="-1.23715">
        <ele>115</ele>
        <time>2021-04-24T10:45:07.000Z</time>
      </trkpt>
      <trkpt lat="47.17618" lon="-1.23703">
        <ele>115</ele>
        <time>2021-04-24T10:45:09.000Z</time>
      </trkpt>
      <trkpt lat="47.17625" lon="-1.23691">
        <ele>115</ele>
        <time>2021-04-24T10:45:11.000Z</time>
      </trkpt>
      <trkpt lat="47.17632" lon="-1.23679">
        <ele>116</ele>
        <time>2021-04-24T10:45:13.000Z</time>
      </trkpt>
      <trkpt lat="47.17639" lon="-1.23667">
        <ele>116</ele>
        <time>2021-04-24T10:45:15.000Z</time>
      </trkpt>
      <trkpt lat="47.17645" lon="-1.23655">
        <ele>116</ele>
        <time>2021-04-24T10:45:17.000Z</time>
      </trkpt>
      <trkpt lat="47.17652" lon="-1.23642">
        <ele>117</ele>
        <time>2021-04-24T10:45:19.000Z</time>
      </trkpt>
      <trkpt lat="47.17659" lon="-1.23631">
        <ele>117</ele>
        <time>2021-04-24T10:45:21.000Z</time>
      </trkpt>
      <trkpt lat="47.17666" lon="-1.2362">
        <ele>117</ele>
        <time>2021-04-24T10:45:23.000Z</time>
      </trkpt>
      <trkpt lat="47.17672" lon="-1.23608">
        <ele>117</ele>
        <time>2021-04-24T10:45:25.000Z</time>
      </trkpt>
      <trkpt lat="47.17679" lon="-1.23597">
        <ele>117</ele>
        <time>2021-04-24T10:45:27.000Z</time>
      </trkpt>
      <trkpt lat="47.17685" lon="-1.23587">
        <ele>117</ele>
        <time>2021-04-24T10:45:29.000Z</time>
      </trkpt>
      <trkpt lat="47.17692" lon="-1.23577">
        <ele>118</ele>
        <time>2021-04-24T10:45:31.000Z</time>
      </trkpt>
      <trkpt lat="47.17699" lon="-1.23565">
        <ele>118</ele>
        <time>2021-04-24T10:45:33.000Z</time>
      </trkpt>
      <trkpt lat="47.17706" lon="-1.23554">
        <ele>119</ele>
        <time>2021-04-24T10:45:35.000Z</time>
      </trkpt>
      <trkpt lat="47.17713" lon="-1.23543">
        <ele>119</ele>
        <time>2021-04-24T10:45:37.000Z</time>
      </trkpt>
      <trkpt lat="47.17721" lon="-1.23533">
        <ele>119</ele>
        <time>2021-04-24T10:45:39.000Z</time>
      </trkpt>
      <trkpt lat="47.17728" lon="-1.23523">
        <ele>119</ele>
        <time>2021-04-24T10:45:41.000Z</time>
      </trkpt>
      <trkpt lat="47.17736" lon="-1.23513">
        <ele>120</ele>
        <time>2021-04-24T10:45:43.000Z</time>
      </trkpt>
      <trkpt lat="47.17744" lon="-1.23503">
        <ele>120</ele>
        <time>2021-04-24T10:45:45.000Z</time>
      </trkpt>
      <trkpt lat="47.17752" lon="-1.23494">
        <ele>120</ele>
        <time>2021-04-24T10:45:47.000Z</time>
      </trkpt>
      <trkpt lat="47.17761" lon="-1.23485">
        <ele>120</ele>
        <time>2021-04-24T10:45:49.000Z</time>
      </trkpt>
      <trkpt lat="47.1777" lon="-1.23477">
        <ele>120</ele>
        <time>2021-04-24T10:45:51.000Z</time>
      </trkpt>
      <trkpt lat="47.17778" lon="-1.23468">
        <ele>120</ele>
        <time>2021-04-24T10:45:53.000Z</time>
      </trkpt>
      <trkpt lat="47.17787" lon="-1.2346">
        <ele>120</ele>
        <time>2021-04-24T10:45:55.000Z</time>
      </trkpt>
      <trkpt lat="47.17796" lon="-1.23452">
        <ele>120</ele>
        <time>2021-04-24T10:45:57.000Z</time>
      </trkpt>
      <trkpt lat="47.17805" lon="-1.23443">
        <ele>120</ele>
        <time>2021-04-24T10:45:59.000Z</time>
      </trkpt>
      <trkpt lat="47.17814" lon="-1.23434">
        <ele>120</ele>
        <time>2021-04-24T10:46:01.000Z</time>
      </trkpt>
      <trkpt lat="47.17822" lon="-1.23425">
        <ele>120</ele>
        <time>2021-04-24T10:46:03.000Z</time>
      </trkpt>
      <trkpt lat="47.1783" lon="-1.23414">
        <ele>120</ele>
        <time>2021-04-24T10:46:05.000Z</time>
      </trkpt>
      <trkpt lat="47.17838" lon="-1.23404">
        <ele>120</ele>
        <time>2021-04-24T10:46:07.000Z</time>
      </trkpt>
      <trkpt lat="47.17845" lon="-1.23392">
        <ele>120</ele>
        <time>2021-04-24T10:46:09.000Z</time>
      </trkpt>
      <trkpt lat="47.17852" lon="-1.23381">
        <ele>120</ele>
        <time>2021-04-24T10:46:11.000Z</time>
      </trkpt>
      <trkpt lat="47.17858" lon="-1.23369">
        <ele>120</ele>
        <time>2021-04-24T10:46:13.000Z</time>
      </trkpt>
      <trkpt lat="47.17865" lon="-1.23358">
        <ele>121</ele>
        <time>2021-04-24T10:46:15.000Z</time>
      </trkpt>
      <trkpt lat="47.17872" lon="-1.23346">
        <ele>121</ele>
        <time>2021-04-24T10:46:17.000Z</time>
      </trkpt>
      <trkpt lat="47.17879" lon="-1.23334">
        <ele>121</ele>
        <time>2021-04-24T10:46:19.000Z</time>
      </trkpt>
      <trkpt lat="47.17886" lon="-1.23323">
        <ele>122</ele>
        <time>2021-04-24T10:46:21.000Z</time>
      </trkpt>
      <trkpt lat="47.17893" lon="-1.23311">
        <ele>122</ele>
        <time>2021-04-24T10:46:23.000Z</time>
      </trkpt>
      <trkpt lat="47.179" lon="-1.23298">
        <ele>123</ele>
        <time>2021-04-24T10:46:25.000Z</time>
      </trkpt>
      <trkpt lat="47.17907" lon="-1.23287">
        <ele>123</ele>
        <time>2021-04-24T10:46:27.000Z</time>
      </trkpt>
      <trkpt lat="47.17914" lon="-1.23275">
        <ele>123</ele>
        <time>2021-04-24T10:46:29.000Z</time>
      </trkpt>
      <trkpt lat="47.17921" lon="-1.23264">
        <ele>123</ele>
        <time>2021-04-24T10:46:31.000Z</time>
      </trkpt>
      <trkpt lat="47.17928" lon="-1.23252">
        <ele>124</ele>
        <time>2021-04-24T10:46:33.000Z</time>
      </trkpt>
      <trkpt lat="47.17935" lon="-1.23241">
        <ele>124</ele>
        <time>2021-04-24T10:46:35.000Z</time>
      </trkpt>
      <trkpt lat="47.17942" lon="-1.23229">
        <ele>125</ele>
        <time>2021-04-24T10:46:37.000Z</time>
      </trkpt>
      <trkpt lat="47.1795" lon="-1.23218">
        <ele>125</ele>
        <time>2021-04-24T10:46:39.000Z</time>
      </trkpt>
      <trkpt lat="47.17957" lon="-1.23206">
        <ele>125</ele>
        <time>2021-04-24T10:46:41.000Z</time>
      </trkpt>
      <trkpt lat="47.17963" lon="-1.23194">
        <ele>126</ele>
        <time>2021-04-24T10:46:43.000Z</time>
      </trkpt>
      <trkpt lat="47.1797" lon="-1.23183">
        <ele>126</ele>
        <time>2021-04-24T10:46:45.000Z</time>
      </trkpt>
      <trkpt lat="47.17976" lon="-1.23173">
        <ele>126</ele>
        <time>2021-04-24T10:46:47.000Z</time>
      </trkpt>
      <trkpt lat="47.17983" lon="-1.23161">
        <ele>126</ele>
        <time>2021-04-24T10:46:49.000Z</time>
      </trkpt>
      <trkpt lat="47.17989" lon="-1.23151">
        <ele>126</ele>
        <time>2021-04-24T10:46:51.000Z</time>
      </trkpt>
      <trkpt lat="47.17997" lon="-1.23141">
        <ele>127</ele>
        <time>2021-04-24T10:46:53.000Z</time>
      </trkpt>
      <trkpt lat="47.18003" lon="-1.2313">
        <ele>127</ele>
        <time>2021-04-24T10:46:55.000Z</time>
      </trkpt>
      <trkpt lat="47.18009" lon="-1.23119">
        <ele>128</ele>
        <time>2021-04-24T10:46:57.000Z</time>
      </trkpt>
      <trkpt lat="47.18016" lon="-1.23108">
        <ele>128</ele>
        <time>2021-04-24T10:46:59.000Z</time>
      </trkpt>
      <trkpt lat="47.18022" lon="-1.23098">
        <ele>128</ele>
        <time>2021-04-24T10:47:01.000Z</time>
      </trkpt>
      <trkpt lat="47.18029" lon="-1.23087">
        <ele>128</ele>
        <time>2021-04-24T10:47:03.000Z</time>
      </trkpt>
      <trkpt lat="47.18035" lon="-1.23076">
        <ele>128</ele>
        <time>2021-04-24T10:47:05.000Z</time>
      </trkpt>
      <trkpt lat="47.18041" lon="-1.23066">
        <ele>128</ele>
        <time>2021-04-24T10:47:07.000Z</time>
      </trkpt>
      <trkpt lat="47.18047" lon="-1.23055">
        <ele>129</ele>
        <time>2021-04-24T10:47:09.000Z</time>
      </trkpt>
      <trkpt lat="47.18056" lon="-1.23041">
        <ele>129</ele>
        <time>2021-04-24T10:47:12.000Z</time>
      </trkpt>
      <trkpt lat="47.18064" lon="-1.23026">
        <ele>129</ele>
        <time>2021-04-24T10:47:15.000Z</time>
      </trkpt>
      <trkpt lat="47.18071" lon="-1.23016">
        <ele>129</ele>
        <time>2021-04-24T10:47:17.000Z</time>
      </trkpt>
      <trkpt lat="47.18077" lon="-1.23005">
        <ele>130</ele>
        <time>2021-04-24T10:47:19.000Z</time>
      </trkpt>
      <trkpt lat="47.18083" lon="-1.22995">
        <ele>130</ele>
        <time>2021-04-24T10:47:21.000Z</time>
      </trkpt>
      <trkpt lat="47.18089" lon="-1.22986">
        <ele>130</ele>
        <time>2021-04-24T10:47:23.000Z</time>
      </trkpt>
      <trkpt lat="47.18095" lon="-1.22976">
        <ele>130</ele>
        <time>2021-04-24T10:47:25.000Z</time>
      </trkpt>
      <trkpt lat="47.18104" lon="-1.22961">
        <ele>131</ele>
        <time>2021-04-24T10:47:28.000Z</time>
      </trkpt>
      <trkpt lat="47.18112" lon="-1.22946">
        <ele>131</ele>
        <time>2021-04-24T10:47:31.000Z</time>
      </trkpt>
      <trkpt lat="47.18121" lon="-1.22931">
        <ele>131</ele>
        <time>2021-04-24T10:47:34.000Z</time>
      </trkpt>
      <trkpt lat="47.1813" lon="-1.22918">
        <ele>131</ele>
        <time>2021-04-24T10:47:37.000Z</time>
      </trkpt>
      <trkpt lat="47.18136" lon="-1.22908">
        <ele>131</ele>
        <time>2021-04-24T10:47:39.000Z</time>
      </trkpt>
      <trkpt lat="47.18145" lon="-1.22894">
        <ele>131</ele>
        <time>2021-04-24T10:47:42.000Z</time>
      </trkpt>
      <trkpt lat="47.18151" lon="-1.22883">
        <ele>131</ele>
        <time>2021-04-24T10:47:44.000Z</time>
      </trkpt>
      <trkpt lat="47.18158" lon="-1.22873">
        <ele>131</ele>
        <time>2021-04-24T10:47:46.000Z</time>
      </trkpt>
      <trkpt lat="47.18164" lon="-1.22863">
        <ele>132</ele>
        <time>2021-04-24T10:47:48.000Z</time>
      </trkpt>
      <trkpt lat="47.1817" lon="-1.22853">
        <ele>132</ele>
        <time>2021-04-24T10:47:50.000Z</time>
      </trkpt>
      <trkpt lat="47.18176" lon="-1.22843">
        <ele>132</ele>
        <time>2021-04-24T10:47:52.000Z</time>
      </trkpt>
      <trkpt lat="47.18183" lon="-1.22832">
        <ele>131</ele>
        <time>2021-04-24T10:47:54.000Z</time>
      </trkpt>
      <trkpt lat="47.18189" lon="-1.22822">
        <ele>132</ele>
        <time>2021-04-24T10:47:56.000Z</time>
      </trkpt>
      <trkpt lat="47.18198" lon="-1.22807">
        <ele>132</ele>
        <time>2021-04-24T10:47:59.000Z</time>
      </trkpt>
      <trkpt lat="47.18204" lon="-1.22797">
        <ele>132</ele>
        <time>2021-04-24T10:48:01.000Z</time>
      </trkpt>
      <trkpt lat="47.1821" lon="-1.22787">
        <ele>132</ele>
        <time>2021-04-24T10:48:03.000Z</time>
      </trkpt>
      <trkpt lat="47.18216" lon="-1.22776">
        <ele>132</ele>
        <time>2021-04-24T10:48:05.000Z</time>
      </trkpt>
      <trkpt lat="47.18222" lon="-1.22766">
        <ele>132</ele>
        <time>2021-04-24T10:48:07.000Z</time>
      </trkpt>
      <trkpt lat="47.18228" lon="-1.22757">
        <ele>132</ele>
        <time>2021-04-24T10:48:09.000Z</time>
      </trkpt>
      <trkpt lat="47.18237" lon="-1.22742">
        <ele>132</ele>
        <time>2021-04-24T10:48:12.000Z</time>
      </trkpt>
      <trkpt lat="47.18246" lon="-1.22727">
        <ele>133</ele>
        <time>2021-04-24T10:48:15.000Z</time>
      </trkpt>
      <trkpt lat="47.18255" lon="-1.22713">
        <ele>133</ele>
        <time>2021-04-24T10:48:18.000Z</time>
      </trkpt>
      <trkpt lat="47.18261" lon="-1.22703">
        <ele>133</ele>
        <time>2021-04-24T10:48:20.000Z</time>
      </trkpt>
      <trkpt lat="47.18267" lon="-1.22693">
        <ele>133</ele>
        <time>2021-04-24T10:48:22.000Z</time>
      </trkpt>
      <trkpt lat="47.18273" lon="-1.22683">
        <ele>133</ele>
        <time>2021-04-24T10:48:24.000Z</time>
      </trkpt>
      <trkpt lat="47.18279" lon="-1.22672">
        <ele>133</ele>
        <time>2021-04-24T10:48:26.000Z</time>
      </trkpt>
      <trkpt lat="47.18285" lon="-1.22662">
        <ele>133</ele>
        <time>2021-04-24T10:48:28.000Z</time>
      </trkpt>
      <trkpt lat="47.18291" lon="-1.22651">
        <ele>133</ele>
        <time>2021-04-24T10:48:30.000Z</time>
      </trkpt>
      <trkpt lat="47.18297" lon="-1.22641">
        <ele>133</ele>
        <time>2021-04-24T10:48:32.000Z</time>
      </trkpt>
      <trkpt lat="47.18303" lon="-1.22631">
        <ele>134</ele>
        <time>2021-04-24T10:48:34.000Z</time>
      </trkpt>
      <trkpt lat="47.18309" lon="-1.22621">
        <ele>134</ele>
        <time>2021-04-24T10:48:36.000Z</time>
      </trkpt>
      <trkpt lat="47.18315" lon="-1.2261">
        <ele>134</ele>
        <time>2021-04-24T10:48:38.000Z</time>
      </trkpt>
      <trkpt lat="47.18322" lon="-1.226">
        <ele>134</ele>
        <time>2021-04-24T10:48:40.000Z</time>
      </trkpt>
      <trkpt lat="47.18328" lon="-1.2259">
        <ele>134</ele>
        <time>2021-04-24T10:48:42.000Z</time>
      </trkpt>
      <trkpt lat="47.18334" lon="-1.2258">
        <ele>134</ele>
        <time>2021-04-24T10:48:44.000Z</time>
      </trkpt>
      <trkpt lat="47.18341" lon="-1.2257">
        <ele>134</ele>
        <time>2021-04-24T10:48:46.000Z</time>
      </trkpt>
      <trkpt lat="47.18347" lon="-1.22559">
        <ele>135</ele>
        <time>2021-04-24T10:48:48.000Z</time>
      </trkpt>
      <trkpt lat="47.18353" lon="-1.2255">
        <ele>134</ele>
        <time>2021-04-24T10:48:50.000Z</time>
      </trkpt>
      <trkpt lat="47.18362" lon="-1.22535">
        <ele>135</ele>
        <time>2021-04-24T10:48:53.000Z</time>
      </trkpt>
      <trkpt lat="47.18368" lon="-1.22525">
        <ele>135</ele>
        <time>2021-04-24T10:48:55.000Z</time>
      </trkpt>
      <trkpt lat="47.18376" lon="-1.2251">
        <ele>135</ele>
        <time>2021-04-24T10:48:58.000Z</time>
      </trkpt>
      <trkpt lat="47.18382" lon="-1.225">
        <ele>135</ele>
        <time>2021-04-24T10:49:00.000Z</time>
      </trkpt>
      <trkpt lat="47.18388" lon="-1.22489">
        <ele>135</ele>
        <time>2021-04-24T10:49:02.000Z</time>
      </trkpt>
      <trkpt lat="47.18395" lon="-1.22479">
        <ele>135</ele>
        <time>2021-04-24T10:49:04.000Z</time>
      </trkpt>
      <trkpt lat="47.18401" lon="-1.22468">
        <ele>135</ele>
        <time>2021-04-24T10:49:06.000Z</time>
      </trkpt>
      <trkpt lat="47.18407" lon="-1.22458">
        <ele>135</ele>
        <time>2021-04-24T10:49:08.000Z</time>
      </trkpt>
      <trkpt lat="47.18413" lon="-1.22447">
        <ele>135</ele>
        <time>2021-04-24T10:49:10.000Z</time>
      </trkpt>
      <trkpt lat="47.1842" lon="-1.22437">
        <ele>135</ele>
        <time>2021-04-24T10:49:12.000Z</time>
      </trkpt>
      <trkpt lat="47.18426" lon="-1.22426">
        <ele>135</ele>
        <time>2021-04-24T10:49:14.000Z</time>
      </trkpt>
      <trkpt lat="47.18433" lon="-1.22415">
        <ele>135</ele>
        <time>2021-04-24T10:49:16.000Z</time>
      </trkpt>
      <trkpt lat="47.18439" lon="-1.22404">
        <ele>135</ele>
        <time>2021-04-24T10:49:18.000Z</time>
      </trkpt>
      <trkpt lat="47.18446" lon="-1.22394">
        <ele>135</ele>
        <time>2021-04-24T10:49:20.000Z</time>
      </trkpt>
      <trkpt lat="47.18451" lon="-1.22384">
        <ele>135</ele>
        <time>2021-04-24T10:49:22.000Z</time>
      </trkpt>
      <trkpt lat="47.18458" lon="-1.22373">
        <ele>135</ele>
        <time>2021-04-24T10:49:24.000Z</time>
      </trkpt>
      <trkpt lat="47.18464" lon="-1.22363">
        <ele>135</ele>
        <time>2021-04-24T10:49:26.000Z</time>
      </trkpt>
      <trkpt lat="47.18471" lon="-1.22352">
        <ele>136</ele>
        <time>2021-04-24T10:49:28.000Z</time>
      </trkpt>
      <trkpt lat="47.18477" lon="-1.22341">
        <ele>136</ele>
        <time>2021-04-24T10:49:30.000Z</time>
      </trkpt>
      <trkpt lat="47.18484" lon="-1.22329">
        <ele>136</ele>
        <time>2021-04-24T10:49:32.000Z</time>
      </trkpt>
      <trkpt lat="47.1849" lon="-1.22318">
        <ele>136</ele>
        <time>2021-04-24T10:49:34.000Z</time>
      </trkpt>
      <trkpt lat="47.18497" lon="-1.22308">
        <ele>136</ele>
        <time>2021-04-24T10:49:36.000Z</time>
      </trkpt>
      <trkpt lat="47.18503" lon="-1.22298">
        <ele>136</ele>
        <time>2021-04-24T10:49:38.000Z</time>
      </trkpt>
      <trkpt lat="47.18509" lon="-1.22287">
        <ele>136</ele>
        <time>2021-04-24T10:49:40.000Z</time>
      </trkpt>
      <trkpt lat="47.18515" lon="-1.22276">
        <ele>136</ele>
        <time>2021-04-24T10:49:42.000Z</time>
      </trkpt>
      <trkpt lat="47.18522" lon="-1.22265">
        <ele>136</ele>
        <time>2021-04-24T10:49:44.000Z</time>
      </trkpt>
      <trkpt lat="47.18528" lon="-1.22255">
        <ele>137</ele>
        <time>2021-04-24T10:49:46.000Z</time>
      </trkpt>
      <trkpt lat="47.18535" lon="-1.22244">
        <ele>137</ele>
        <time>2021-04-24T10:49:48.000Z</time>
      </trkpt>
      <trkpt lat="47.18541" lon="-1.22233">
        <ele>137</ele>
        <time>2021-04-24T10:49:50.000Z</time>
      </trkpt>
      <trkpt lat="47.18548" lon="-1.22223">
        <ele>137</ele>
        <time>2021-04-24T10:49:52.000Z</time>
      </trkpt>
      <trkpt lat="47.18554" lon="-1.22211">
        <ele>138</ele>
        <time>2021-04-24T10:49:54.000Z</time>
      </trkpt>
      <trkpt lat="47.18561" lon="-1.222">
        <ele>138</ele>
        <time>2021-04-24T10:49:56.000Z</time>
      </trkpt>
      <trkpt lat="47.18568" lon="-1.2219">
        <ele>138</ele>
        <time>2021-04-24T10:49:58.000Z</time>
      </trkpt>
      <trkpt lat="47.18574" lon="-1.22179">
        <ele>138</ele>
        <time>2021-04-24T10:50:00.000Z</time>
      </trkpt>
      <trkpt lat="47.1858" lon="-1.22168">
        <ele>138</ele>
        <time>2021-04-24T10:50:02.000Z</time>
      </trkpt>
      <trkpt lat="47.18587" lon="-1.22156">
        <ele>138</ele>
        <time>2021-04-24T10:50:04.000Z</time>
      </trkpt>
      <trkpt lat="47.18594" lon="-1.22145">
        <ele>138</ele>
        <time>2021-04-24T10:50:06.000Z</time>
      </trkpt>
      <trkpt lat="47.18601" lon="-1.22135">
        <ele>138</ele>
        <time>2021-04-24T10:50:08.000Z</time>
      </trkpt>
      <trkpt lat="47.18607" lon="-1.22125">
        <ele>138</ele>
        <time>2021-04-24T10:50:10.000Z</time>
      </trkpt>
      <trkpt lat="47.18615" lon="-1.22115">
        <ele>138</ele>
        <time>2021-04-24T10:50:12.000Z</time>
      </trkpt>
      <trkpt lat="47.18622" lon="-1.22105">
        <ele>138</ele>
        <time>2021-04-24T10:50:14.000Z</time>
      </trkpt>
      <trkpt lat="47.1863" lon="-1.22096">
        <ele>138</ele>
        <time>2021-04-24T10:50:16.000Z</time>
      </trkpt>
      <trkpt lat="47.18638" lon="-1.22088">
        <ele>138</ele>
        <time>2021-04-24T10:50:18.000Z</time>
      </trkpt>
      <trkpt lat="47.18646" lon="-1.22079">
        <ele>138</ele>
        <time>2021-04-24T10:50:20.000Z</time>
      </trkpt>
      <trkpt lat="47.18654" lon="-1.22071">
        <ele>138</ele>
        <time>2021-04-24T10:50:22.000Z</time>
      </trkpt>
      <trkpt lat="47.18662" lon="-1.22063">
        <ele>138</ele>
        <time>2021-04-24T10:50:24.000Z</time>
      </trkpt>
      <trkpt lat="47.1867" lon="-1.22056">
        <ele>138</ele>
        <time>2021-04-24T10:50:26.000Z</time>
      </trkpt>
      <trkpt lat="47.18679" lon="-1.22048">
        <ele>138</ele>
        <time>2021-04-24T10:50:28.000Z</time>
      </trkpt>
      <trkpt lat="47.18687" lon="-1.2204">
        <ele>138</ele>
        <time>2021-04-24T10:50:30.000Z</time>
      </trkpt>
      <trkpt lat="47.18695" lon="-1.22032">
        <ele>138</ele>
        <time>2021-04-24T10:50:32.000Z</time>
      </trkpt>
      <trkpt lat="47.18703" lon="-1.22024">
        <ele>138</ele>
        <time>2021-04-24T10:50:34.000Z</time>
      </trkpt>
      <trkpt lat="47.18711" lon="-1.22015">
        <ele>138</ele>
        <time>2021-04-24T10:50:36.000Z</time>
      </trkpt>
      <trkpt lat="47.1872" lon="-1.22008">
        <ele>138</ele>
        <time>2021-04-24T10:50:38.000Z</time>
      </trkpt>
      <trkpt lat="47.18727" lon="-1.22">
        <ele>137</ele>
        <time>2021-04-24T10:50:40.000Z</time>
      </trkpt>
      <trkpt lat="47.18735" lon="-1.21991">
        <ele>137</ele>
        <time>2021-04-24T10:50:42.000Z</time>
      </trkpt>
      <trkpt lat="47.18743" lon="-1.21982">
        <ele>137</ele>
        <time>2021-04-24T10:50:44.000Z</time>
      </trkpt>
      <trkpt lat="47.18751" lon="-1.21973">
        <ele>138</ele>
        <time>2021-04-24T10:50:46.000Z</time>
      </trkpt>
      <trkpt lat="47.18759" lon="-1.21964">
        <ele>138</ele>
        <time>2021-04-24T10:50:48.000Z</time>
      </trkpt>
      <trkpt lat="47.18767" lon="-1.21955">
        <ele>138</ele>
        <time>2021-04-24T10:50:50.000Z</time>
      </trkpt>
      <trkpt lat="47.18775" lon="-1.21947">
        <ele>139</ele>
        <time>2021-04-24T10:50:52.000Z</time>
      </trkpt>
      <trkpt lat="47.18783" lon="-1.21938">
        <ele>138</ele>
        <time>2021-04-24T10:50:54.000Z</time>
      </trkpt>
      <trkpt lat="47.18791" lon="-1.21929">
        <ele>139</ele>
        <time>2021-04-24T10:50:56.000Z</time>
      </trkpt>
      <trkpt lat="47.18799" lon="-1.2192">
        <ele>139</ele>
        <time>2021-04-24T10:50:58.000Z</time>
      </trkpt>
      <trkpt lat="47.18807" lon="-1.21912">
        <ele>139</ele>
        <time>2021-04-24T10:51:00.000Z</time>
      </trkpt>
      <trkpt lat="47.18815" lon="-1.21902">
        <ele>139</ele>
        <time>2021-04-24T10:51:02.000Z</time>
      </trkpt>
      <trkpt lat="47.18823" lon="-1.21893">
        <ele>139</ele>
        <time>2021-04-24T10:51:04.000Z</time>
      </trkpt>
      <trkpt lat="47.18832" lon="-1.21884">
        <ele>139</ele>
        <time>2021-04-24T10:51:06.000Z</time>
      </trkpt>
      <trkpt lat="47.18841" lon="-1.21875">
        <ele>139</ele>
        <time>2021-04-24T10:51:08.000Z</time>
      </trkpt>
      <trkpt lat="47.18849" lon="-1.21867">
        <ele>139</ele>
        <time>2021-04-24T10:51:10.000Z</time>
      </trkpt>
      <trkpt lat="47.18857" lon="-1.21858">
        <ele>139</ele>
        <time>2021-04-24T10:51:12.000Z</time>
      </trkpt>
      <trkpt lat="47.18866" lon="-1.21849">
        <ele>139</ele>
        <time>2021-04-24T10:51:14.000Z</time>
      </trkpt>
      <trkpt lat="47.18873" lon="-1.2184">
        <ele>139</ele>
        <time>2021-04-24T10:51:16.000Z</time>
      </trkpt>
      <trkpt lat="47.18881" lon="-1.21831">
        <ele>138</ele>
        <time>2021-04-24T10:51:18.000Z</time>
      </trkpt>
      <trkpt lat="47.18889" lon="-1.21821">
        <ele>138</ele>
        <time>2021-04-24T10:51:20.000Z</time>
      </trkpt>
      <trkpt lat="47.18896" lon="-1.21812">
        <ele>138</ele>
        <time>2021-04-24T10:51:22.000Z</time>
      </trkpt>
      <trkpt lat="47.18905" lon="-1.21803">
        <ele>138</ele>
        <time>2021-04-24T10:51:24.000Z</time>
      </trkpt>
      <trkpt lat="47.18912" lon="-1.21793">
        <ele>137</ele>
        <time>2021-04-24T10:51:26.000Z</time>
      </trkpt>
      <trkpt lat="47.1892" lon="-1.21784">
        <ele>137</ele>
        <time>2021-04-24T10:51:28.000Z</time>
      </trkpt>
      <trkpt lat="47.18928" lon="-1.21775">
        <ele>137</ele>
        <time>2021-04-24T10:51:30.000Z</time>
      </trkpt>
      <trkpt lat="47.18936" lon="-1.21765">
        <ele>138</ele>
        <time>2021-04-24T10:51:32.000Z</time>
      </trkpt>
      <trkpt lat="47.18943" lon="-1.21755">
        <ele>138</ele>
        <time>2021-04-24T10:51:34.000Z</time>
      </trkpt>
      <trkpt lat="47.18951" lon="-1.21745">
        <ele>138</ele>
        <time>2021-04-24T10:51:36.000Z</time>
      </trkpt>
      <trkpt lat="47.18959" lon="-1.21735">
        <ele>138</ele>
        <time>2021-04-24T10:51:38.000Z</time>
      </trkpt>
      <trkpt lat="47.18967" lon="-1.21725">
        <ele>138</ele>
        <time>2021-04-24T10:51:40.000Z</time>
      </trkpt>
      <trkpt lat="47.18974" lon="-1.21715">
        <ele>138</ele>
        <time>2021-04-24T10:51:42.000Z</time>
      </trkpt>
      <trkpt lat="47.18982" lon="-1.21705">
        <ele>138</ele>
        <time>2021-04-24T10:51:44.000Z</time>
      </trkpt>
      <trkpt lat="47.18989" lon="-1.21696">
        <ele>138</ele>
        <time>2021-04-24T10:51:46.000Z</time>
      </trkpt>
      <trkpt lat="47.18997" lon="-1.21686">
        <ele>139</ele>
        <time>2021-04-24T10:51:48.000Z</time>
      </trkpt>
      <trkpt lat="47.19005" lon="-1.21676">
        <ele>138</ele>
        <time>2021-04-24T10:51:50.000Z</time>
      </trkpt>
      <trkpt lat="47.19013" lon="-1.21666">
        <ele>138</ele>
        <time>2021-04-24T10:51:52.000Z</time>
      </trkpt>
      <trkpt lat="47.19021" lon="-1.21656">
        <ele>138</ele>
        <time>2021-04-24T10:51:54.000Z</time>
      </trkpt>
      <trkpt lat="47.19028" lon="-1.21646">
        <ele>138</ele>
        <time>2021-04-24T10:51:56.000Z</time>
      </trkpt>
      <trkpt lat="47.19036" lon="-1.21636">
        <ele>139</ele>
        <time>2021-04-24T10:51:58.000Z</time>
      </trkpt>
      <trkpt lat="47.19045" lon="-1.21626">
        <ele>138</ele>
        <time>2021-04-24T10:52:00.000Z</time>
      </trkpt>
      <trkpt lat="47.19053" lon="-1.21616">
        <ele>138</ele>
        <time>2021-04-24T10:52:02.000Z</time>
      </trkpt>
      <trkpt lat="47.19061" lon="-1.21607">
        <ele>138</ele>
        <time>2021-04-24T10:52:04.000Z</time>
      </trkpt>
      <trkpt lat="47.19069" lon="-1.21598">
        <ele>138</ele>
        <time>2021-04-24T10:52:06.000Z</time>
      </trkpt>
      <trkpt lat="47.19078" lon="-1.21586">
        <ele>138</ele>
        <time>2021-04-24T10:52:08.000Z</time>
      </trkpt>
      <trkpt lat="47.19086" lon="-1.21575">
        <ele>138</ele>
        <time>2021-04-24T10:52:10.000Z</time>
      </trkpt>
      <trkpt lat="47.19094" lon="-1.21564">
        <ele>138</ele>
        <time>2021-04-24T10:52:12.000Z</time>
      </trkpt>
      <trkpt lat="47.19102" lon="-1.21553">
        <ele>139</ele>
        <time>2021-04-24T10:52:14.000Z</time>
      </trkpt>
      <trkpt lat="47.19112" lon="-1.21535">
        <ele>139</ele>
        <time>2021-04-24T10:52:17.000Z</time>
      </trkpt>
      <trkpt lat="47.19119" lon="-1.21523">
        <ele>139</ele>
        <time>2021-04-24T10:52:19.000Z</time>
      </trkpt>
      <trkpt lat="47.19127" lon="-1.21511">
        <ele>139</ele>
        <time>2021-04-24T10:52:21.000Z</time>
      </trkpt>
      <trkpt lat="47.19134" lon="-1.21499">
        <ele>139</ele>
        <time>2021-04-24T10:52:23.000Z</time>
      </trkpt>
      <trkpt lat="47.19141" lon="-1.21487">
        <ele>139</ele>
        <time>2021-04-24T10:52:25.000Z</time>
      </trkpt>
      <trkpt lat="47.19148" lon="-1.21476">
        <ele>139</ele>
        <time>2021-04-24T10:52:27.000Z</time>
      </trkpt>
      <trkpt lat="47.19155" lon="-1.21465">
        <ele>139</ele>
        <time>2021-04-24T10:52:29.000Z</time>
      </trkpt>
      <trkpt lat="47.19162" lon="-1.21453">
        <ele>139</ele>
        <time>2021-04-24T10:52:31.000Z</time>
      </trkpt>
      <trkpt lat="47.19169" lon="-1.21442">
        <ele>139</ele>
        <time>2021-04-24T10:52:33.000Z</time>
      </trkpt>
      <trkpt lat="47.19176" lon="-1.21431">
        <ele>139</ele>
        <time>2021-04-24T10:52:35.000Z</time>
      </trkpt>
      <trkpt lat="47.19183" lon="-1.21419">
        <ele>139</ele>
        <time>2021-04-24T10:52:37.000Z</time>
      </trkpt>
      <trkpt lat="47.1919" lon="-1.21408">
        <ele>139</ele>
        <time>2021-04-24T10:52:39.000Z</time>
      </trkpt>
      <trkpt lat="47.19197" lon="-1.21396">
        <ele>139</ele>
        <time>2021-04-24T10:52:41.000Z</time>
      </trkpt>
      <trkpt lat="47.19204" lon="-1.21385">
        <ele>139</ele>
        <time>2021-04-24T10:52:43.000Z</time>
      </trkpt>
      <trkpt lat="47.19212" lon="-1.21373">
        <ele>139</ele>
        <time>2021-04-24T10:52:45.000Z</time>
      </trkpt>
      <trkpt lat="47.1922" lon="-1.21361">
        <ele>139</ele>
        <time>2021-04-24T10:52:47.000Z</time>
      </trkpt>
      <trkpt lat="47.19227" lon="-1.21349">
        <ele>140</ele>
        <time>2021-04-24T10:52:49.000Z</time>
      </trkpt>
      <trkpt lat="47.19235" lon="-1.21337">
        <ele>140</ele>
        <time>2021-04-24T10:52:51.000Z</time>
      </trkpt>
      <trkpt lat="47.19242" lon="-1.21326">
        <ele>139</ele>
        <time>2021-04-24T10:52:53.000Z</time>
      </trkpt>
      <trkpt lat="47.1925" lon="-1.21314">
        <ele>140</ele>
        <time>2021-04-24T10:52:55.000Z</time>
      </trkpt>
      <trkpt lat="47.19258" lon="-1.21302">
        <ele>139</ele>
        <time>2021-04-24T10:52:57.000Z</time>
      </trkpt>
      <trkpt lat="47.19266" lon="-1.21291">
        <ele>140</ele>
        <time>2021-04-24T10:52:59.000Z</time>
      </trkpt>
      <trkpt lat="47.19273" lon="-1.21281">
        <ele>140</ele>
        <time>2021-04-24T10:53:01.000Z</time>
      </trkpt>
      <trkpt lat="47.19281" lon="-1.21271">
        <ele>140</ele>
        <time>2021-04-24T10:53:03.000Z</time>
      </trkpt>
      <trkpt lat="47.19288" lon="-1.2126">
        <ele>139</ele>
        <time>2021-04-24T10:53:05.000Z</time>
      </trkpt>
      <trkpt lat="47.19296" lon="-1.21249">
        <ele>140</ele>
        <time>2021-04-24T10:53:07.000Z</time>
      </trkpt>
      <trkpt lat="47.19304" lon="-1.21238">
        <ele>140</ele>
        <time>2021-04-24T10:53:09.000Z</time>
      </trkpt>
      <trkpt lat="47.19312" lon="-1.21227">
        <ele>139</ele>
        <time>2021-04-24T10:53:11.000Z</time>
      </trkpt>
      <trkpt lat="47.19321" lon="-1.21216">
        <ele>140</ele>
        <time>2021-04-24T10:53:13.000Z</time>
      </trkpt>
      <trkpt lat="47.19328" lon="-1.21204">
        <ele>140</ele>
        <time>2021-04-24T10:53:15.000Z</time>
      </trkpt>
      <trkpt lat="47.19336" lon="-1.21193">
        <ele>140</ele>
        <time>2021-04-24T10:53:17.000Z</time>
      </trkpt>
      <trkpt lat="47.19343" lon="-1.21182">
        <ele>140</ele>
        <time>2021-04-24T10:53:19.000Z</time>
      </trkpt>
      <trkpt lat="47.19351" lon="-1.21171">
        <ele>140</ele>
        <time>2021-04-24T10:53:21.000Z</time>
      </trkpt>
      <trkpt lat="47.19359" lon="-1.21158">
        <ele>140</ele>
        <time>2021-04-24T10:53:23.000Z</time>
      </trkpt>
      <trkpt lat="47.19367" lon="-1.21146">
        <ele>139</ele>
        <time>2021-04-24T10:53:25.000Z</time>
      </trkpt>
      <trkpt lat="47.19375" lon="-1.21133">
        <ele>139</ele>
        <time>2021-04-24T10:53:27.000Z</time>
      </trkpt>
      <trkpt lat="47.19382" lon="-1.21121">
        <ele>139</ele>
        <time>2021-04-24T10:53:29.000Z</time>
      </trkpt>
      <trkpt lat="47.1939" lon="-1.21109">
        <ele>139</ele>
        <time>2021-04-24T10:53:31.000Z</time>
      </trkpt>
      <trkpt lat="47.19398" lon="-1.21097">
        <ele>139</ele>
        <time>2021-04-24T10:53:33.000Z</time>
      </trkpt>
      <trkpt lat="47.19405" lon="-1.21084">
        <ele>138</ele>
        <time>2021-04-24T10:53:35.000Z</time>
      </trkpt>
      <trkpt lat="47.19413" lon="-1.21072">
        <ele>138</ele>
        <time>2021-04-24T10:53:37.000Z</time>
      </trkpt>
      <trkpt lat="47.1942" lon="-1.2106">
        <ele>138</ele>
        <time>2021-04-24T10:53:39.000Z</time>
      </trkpt>
      <trkpt lat="47.19428" lon="-1.21049">
        <ele>138</ele>
        <time>2021-04-24T10:53:41.000Z</time>
      </trkpt>
      <trkpt lat="47.19436" lon="-1.21037">
        <ele>138</ele>
        <time>2021-04-24T10:53:43.000Z</time>
      </trkpt>
      <trkpt lat="47.19443" lon="-1.21025">
        <ele>138</ele>
        <time>2021-04-24T10:53:45.000Z</time>
      </trkpt>
      <trkpt lat="47.19451" lon="-1.21014">
        <ele>139</ele>
        <time>2021-04-24T10:53:47.000Z</time>
      </trkpt>
      <trkpt lat="47.19458" lon="-1.21002">
        <ele>139</ele>
        <time>2021-04-24T10:53:49.000Z</time>
      </trkpt>
      <trkpt lat="47.19466" lon="-1.20991">
        <ele>139</ele>
        <time>2021-04-24T10:53:51.000Z</time>
      </trkpt>
      <trkpt lat="47.19474" lon="-1.2098">
        <ele>138</ele>
        <time>2021-04-24T10:53:53.000Z</time>
      </trkpt>
      <trkpt lat="47.19482" lon="-1.20969">
        <ele>139</ele>
        <time>2021-04-24T10:53:55.000Z</time>
      </trkpt>
      <trkpt lat="47.19491" lon="-1.20958">
        <ele>138</ele>
        <time>2021-04-24T10:53:57.000Z</time>
      </trkpt>
      <trkpt lat="47.195" lon="-1.20946">
        <ele>138</ele>
        <time>2021-04-24T10:53:59.000Z</time>
      </trkpt>
      <trkpt lat="47.19508" lon="-1.20935">
        <ele>138</ele>
        <time>2021-04-24T10:54:01.000Z</time>
      </trkpt>
      <trkpt lat="47.19517" lon="-1.20924">
        <ele>139</ele>
        <time>2021-04-24T10:54:03.000Z</time>
      </trkpt>
      <trkpt lat="47.19525" lon="-1.20912">
        <ele>139</ele>
        <time>2021-04-24T10:54:05.000Z</time>
      </trkpt>
      <trkpt lat="47.19534" lon="-1.20901">
        <ele>139</ele>
        <time>2021-04-24T10:54:07.000Z</time>
      </trkpt>
      <trkpt lat="47.19542" lon="-1.20889">
        <ele>139</ele>
        <time>2021-04-24T10:54:09.000Z</time>
      </trkpt>
      <trkpt lat="47.19551" lon="-1.20879">
        <ele>139</ele>
        <time>2021-04-24T10:54:11.000Z</time>
      </trkpt>
      <trkpt lat="47.19559" lon="-1.20868">
        <ele>139</ele>
        <time>2021-04-24T10:54:13.000Z</time>
      </trkpt>
      <trkpt lat="47.19567" lon="-1.20857">
        <ele>139</ele>
        <time>2021-04-24T10:54:15.000Z</time>
      </trkpt>
      <trkpt lat="47.19575" lon="-1.20846">
        <ele>139</ele>
        <time>2021-04-24T10:54:17.000Z</time>
      </trkpt>
      <trkpt lat="47.19584" lon="-1.20835">
        <ele>139</ele>
        <time>2021-04-24T10:54:19.000Z</time>
      </trkpt>
      <trkpt lat="47.19593" lon="-1.20825">
        <ele>139</ele>
        <time>2021-04-24T10:54:21.000Z</time>
      </trkpt>
      <trkpt lat="47.19601" lon="-1.20815">
        <ele>139</ele>
        <time>2021-04-24T10:54:23.000Z</time>
      </trkpt>
      <trkpt lat="47.1961" lon="-1.20807">
        <ele>139</ele>
        <time>2021-04-24T10:54:25.000Z</time>
      </trkpt>
      <trkpt lat="47.19619" lon="-1.20798">
        <ele>139</ele>
        <time>2021-04-24T10:54:27.000Z</time>
      </trkpt>
      <trkpt lat="47.19628" lon="-1.20791">
        <ele>140</ele>
        <time>2021-04-24T10:54:29.000Z</time>
      </trkpt>
      <trkpt lat="47.19637" lon="-1.20785">
        <ele>140</ele>
        <time>2021-04-24T10:54:31.000Z</time>
      </trkpt>
      <trkpt lat="47.19648" lon="-1.2078">
        <ele>140</ele>
        <time>2021-04-24T10:54:33.000Z</time>
      </trkpt>
      <trkpt lat="47.19658" lon="-1.20773">
        <ele>140</ele>
        <time>2021-04-24T10:54:35.000Z</time>
      </trkpt>
      <trkpt lat="47.19668" lon="-1.20768">
        <ele>140</ele>
        <time>2021-04-24T10:54:37.000Z</time>
      </trkpt>
      <trkpt lat="47.19678" lon="-1.20762">
        <ele>140</ele>
        <time>2021-04-24T10:54:39.000Z</time>
      </trkpt>
      <trkpt lat="47.19688" lon="-1.20756">
        <ele>140</ele>
        <time>2021-04-24T10:54:41.000Z</time>
      </trkpt>
      <trkpt lat="47.19699" lon="-1.20751">
        <ele>140</ele>
        <time>2021-04-24T10:54:43.000Z</time>
      </trkpt>
      <trkpt lat="47.1971" lon="-1.20745">
        <ele>140</ele>
        <time>2021-04-24T10:54:45.000Z</time>
      </trkpt>
      <trkpt lat="47.19721" lon="-1.20738">
        <ele>139</ele>
        <time>2021-04-24T10:54:47.000Z</time>
      </trkpt>
      <trkpt lat="47.19732" lon="-1.20733">
        <ele>139</ele>
        <time>2021-04-24T10:54:49.000Z</time>
      </trkpt>
      <trkpt lat="47.19743" lon="-1.20727">
        <ele>139</ele>
        <time>2021-04-24T10:54:51.000Z</time>
      </trkpt>
      <trkpt lat="47.19753" lon="-1.20721">
        <ele>139</ele>
        <time>2021-04-24T10:54:53.000Z</time>
      </trkpt>
      <trkpt lat="47.19763" lon="-1.20715">
        <ele>138</ele>
        <time>2021-04-24T10:54:55.000Z</time>
      </trkpt>
      <trkpt lat="47.19772" lon="-1.20709">
        <ele>138</ele>
        <time>2021-04-24T10:54:57.000Z</time>
      </trkpt>
      <trkpt lat="47.19786" lon="-1.20715">
        <ele>139</ele>
        <time>2021-04-24T10:55:00.000Z</time>
      </trkpt>
      <trkpt lat="47.19795" lon="-1.20724">
        <ele>139</ele>
        <time>2021-04-24T10:55:02.000Z</time>
      </trkpt>
      <trkpt lat="47.19805" lon="-1.20733">
        <ele>139</ele>
        <time>2021-04-24T10:55:04.000Z</time>
      </trkpt>
      <trkpt lat="47.19815" lon="-1.2074">
        <ele>139</ele>
        <time>2021-04-24T10:55:06.000Z</time>
      </trkpt>
      <trkpt lat="47.19825" lon="-1.20747">
        <ele>139</ele>
        <time>2021-04-24T10:55:08.000Z</time>
      </trkpt>
      <trkpt lat="47.19835" lon="-1.20753">
        <ele>139</ele>
        <time>2021-04-24T10:55:10.000Z</time>
      </trkpt>
      <trkpt lat="47.19845" lon="-1.20758">
        <ele>139</ele>
        <time>2021-04-24T10:55:12.000Z</time>
      </trkpt>
      <trkpt lat="47.19856" lon="-1.20763">
        <ele>139</ele>
        <time>2021-04-24T10:55:14.000Z</time>
      </trkpt>
      <trkpt lat="47.19867" lon="-1.20768">
        <ele>139</ele>
        <time>2021-04-24T10:55:16.000Z</time>
      </trkpt>
      <trkpt lat="47.19877" lon="-1.20773">
        <ele>139</ele>
        <time>2021-04-24T10:55:18.000Z</time>
      </trkpt>
      <trkpt lat="47.19888" lon="-1.20778">
        <ele>139</ele>
        <time>2021-04-24T10:55:20.000Z</time>
      </trkpt>
      <trkpt lat="47.19898" lon="-1.20782">
        <ele>140</ele>
        <time>2021-04-24T10:55:22.000Z</time>
      </trkpt>
      <trkpt lat="47.19909" lon="-1.20787">
        <ele>140</ele>
        <time>2021-04-24T10:55:24.000Z</time>
      </trkpt>
      <trkpt lat="47.1992" lon="-1.20791">
        <ele>139</ele>
        <time>2021-04-24T10:55:26.000Z</time>
      </trkpt>
      <trkpt lat="47.19931" lon="-1.20794">
        <ele>139</ele>
        <time>2021-04-24T10:55:28.000Z</time>
      </trkpt>
      <trkpt lat="47.19942" lon="-1.20795">
        <ele>139</ele>
        <time>2021-04-24T10:55:30.000Z</time>
      </trkpt>
      <trkpt lat="47.19954" lon="-1.20796">
        <ele>139</ele>
        <time>2021-04-24T10:55:32.000Z</time>
      </trkpt>
      <trkpt lat="47.19965" lon="-1.20795">
        <ele>139</ele>
        <time>2021-04-24T10:55:34.000Z</time>
      </trkpt>
      <trkpt lat="47.19977" lon="-1.20794">
        <ele>139</ele>
        <time>2021-04-24T10:55:36.000Z</time>
      </trkpt>
      <trkpt lat="47.19988" lon="-1.20791">
        <ele>140</ele>
        <time>2021-04-24T10:55:38.000Z</time>
      </trkpt>
      <trkpt lat="47.19999" lon="-1.20789">
        <ele>140</ele>
        <time>2021-04-24T10:55:40.000Z</time>
      </trkpt>
      <trkpt lat="47.20011" lon="-1.20786">
        <ele>140</ele>
        <time>2021-04-24T10:55:42.000Z</time>
      </trkpt>
      <trkpt lat="47.20022" lon="-1.20783">
        <ele>141</ele>
        <time>2021-04-24T10:55:44.000Z</time>
      </trkpt>
      <trkpt lat="47.20033" lon="-1.2078">
        <ele>141</ele>
        <time>2021-04-24T10:55:46.000Z</time>
      </trkpt>
      <trkpt lat="47.20043" lon="-1.20777">
        <ele>141</ele>
        <time>2021-04-24T10:55:48.000Z</time>
      </trkpt>
      <trkpt lat="47.20054" lon="-1.20774">
        <ele>141</ele>
        <time>2021-04-24T10:55:50.000Z</time>
      </trkpt>
      <trkpt lat="47.20065" lon="-1.20772">
        <ele>141</ele>
        <time>2021-04-24T10:55:52.000Z</time>
      </trkpt>
      <trkpt lat="47.20076" lon="-1.2077">
        <ele>141</ele>
        <time>2021-04-24T10:55:54.000Z</time>
      </trkpt>
      <trkpt lat="47.20086" lon="-1.20769">
        <ele>141</ele>
        <time>2021-04-24T10:55:56.000Z</time>
      </trkpt>
      <trkpt lat="47.20097" lon="-1.20767">
        <ele>140</ele>
        <time>2021-04-24T10:55:58.000Z</time>
      </trkpt>
      <trkpt lat="47.20107" lon="-1.20765">
        <ele>140</ele>
        <time>2021-04-24T10:56:00.000Z</time>
      </trkpt>
      <trkpt lat="47.20117" lon="-1.20765">
        <ele>140</ele>
        <time>2021-04-24T10:56:02.000Z</time>
      </trkpt>
      <trkpt lat="47.20128" lon="-1.20764">
        <ele>140</ele>
        <time>2021-04-24T10:56:04.000Z</time>
      </trkpt>
      <trkpt lat="47.20139" lon="-1.20763">
        <ele>140</ele>
        <time>2021-04-24T10:56:06.000Z</time>
      </trkpt>
      <trkpt lat="47.2015" lon="-1.20762">
        <ele>140</ele>
        <time>2021-04-24T10:56:08.000Z</time>
      </trkpt>
      <trkpt lat="47.20161" lon="-1.20761">
        <ele>140</ele>
        <time>2021-04-24T10:56:10.000Z</time>
      </trkpt>
      <trkpt lat="47.20172" lon="-1.2076">
        <ele>140</ele>
        <time>2021-04-24T10:56:12.000Z</time>
      </trkpt>
      <trkpt lat="47.20182" lon="-1.20759">
        <ele>140</ele>
        <time>2021-04-24T10:56:14.000Z</time>
      </trkpt>
      <trkpt lat="47.20193" lon="-1.20758">
        <ele>140</ele>
        <time>2021-04-24T10:56:16.000Z</time>
      </trkpt>
      <trkpt lat="47.20204" lon="-1.20757">
        <ele>140</ele>
        <time>2021-04-24T10:56:18.000Z</time>
      </trkpt>
      <trkpt lat="47.20215" lon="-1.20755">
        <ele>141</ele>
        <time>2021-04-24T10:56:20.000Z</time>
      </trkpt>
      <trkpt lat="47.20225" lon="-1.20754">
        <ele>141</ele>
        <time>2021-04-24T10:56:22.000Z</time>
      </trkpt>
      <trkpt lat="47.20236" lon="-1.20754">
        <ele>141</ele>
        <time>2021-04-24T10:56:24.000Z</time>
      </trkpt>
      <trkpt lat="47.20247" lon="-1.20754">
        <ele>141</ele>
        <time>2021-04-24T10:56:26.000Z</time>
      </trkpt>
      <trkpt lat="47.20258" lon="-1.20754">
        <ele>141</ele>
        <time>2021-04-24T10:56:28.000Z</time>
      </trkpt>
      <trkpt lat="47.20269" lon="-1.20754">
        <ele>140</ele>
        <time>2021-04-24T10:56:30.000Z</time>
      </trkpt>
      <trkpt lat="47.2028" lon="-1.20757">
        <ele>140</ele>
        <time>2021-04-24T10:56:32.000Z</time>
      </trkpt>
      <trkpt lat="47.20292" lon="-1.20761">
        <ele>140</ele>
        <time>2021-04-24T10:56:34.000Z</time>
      </trkpt>
      <trkpt lat="47.20302" lon="-1.20765">
        <ele>141</ele>
        <time>2021-04-24T10:56:36.000Z</time>
      </trkpt>
      <trkpt lat="47.20313" lon="-1.20771">
        <ele>141</ele>
        <time>2021-04-24T10:56:38.000Z</time>
      </trkpt>
      <trkpt lat="47.20324" lon="-1.20777">
        <ele>140</ele>
        <time>2021-04-24T10:56:40.000Z</time>
      </trkpt>
      <trkpt lat="47.20334" lon="-1.20783">
        <ele>140</ele>
        <time>2021-04-24T10:56:42.000Z</time>
      </trkpt>
      <trkpt lat="47.20343" lon="-1.20789">
        <ele>141</ele>
        <time>2021-04-24T10:56:44.000Z</time>
      </trkpt>
      <trkpt lat="47.20352" lon="-1.20796">
        <ele>141</ele>
        <time>2021-04-24T10:56:46.000Z</time>
      </trkpt>
      <trkpt lat="47.20363" lon="-1.20802">
        <ele>141</ele>
        <time>2021-04-24T10:56:48.000Z</time>
      </trkpt>
      <trkpt lat="47.20373" lon="-1.20807">
        <ele>141</ele>
        <time>2021-04-24T10:56:50.000Z</time>
      </trkpt>
      <trkpt lat="47.20384" lon="-1.20813">
        <ele>142</ele>
        <time>2021-04-24T10:56:52.000Z</time>
      </trkpt>
      <trkpt lat="47.20395" lon="-1.20819">
        <ele>142</ele>
        <time>2021-04-24T10:56:54.000Z</time>
      </trkpt>
      <trkpt lat="47.20406" lon="-1.20825">
        <ele>142</ele>
        <time>2021-04-24T10:56:56.000Z</time>
      </trkpt>
      <trkpt lat="47.20418" lon="-1.2083">
        <ele>142</ele>
        <time>2021-04-24T10:56:58.000Z</time>
      </trkpt>
      <trkpt lat="47.20429" lon="-1.20835">
        <ele>142</ele>
        <time>2021-04-24T10:57:00.000Z</time>
      </trkpt>
      <trkpt lat="47.2044" lon="-1.20841">
        <ele>141</ele>
        <time>2021-04-24T10:57:02.000Z</time>
      </trkpt>
      <trkpt lat="47.20451" lon="-1.20846">
        <ele>141</ele>
        <time>2021-04-24T10:57:04.000Z</time>
      </trkpt>
      <trkpt lat="47.20461" lon="-1.20851">
        <ele>141</ele>
        <time>2021-04-24T10:57:06.000Z</time>
      </trkpt>
      <trkpt lat="47.20472" lon="-1.20856">
        <ele>141</ele>
        <time>2021-04-24T10:57:08.000Z</time>
      </trkpt>
      <trkpt lat="47.20483" lon="-1.20861">
        <ele>141</ele>
        <time>2021-04-24T10:57:10.000Z</time>
      </trkpt>
      <trkpt lat="47.20494" lon="-1.20867">
        <ele>142</ele>
        <time>2021-04-24T10:57:12.000Z</time>
      </trkpt>
      <trkpt lat="47.20505" lon="-1.20871">
        <ele>142</ele>
        <time>2021-04-24T10:57:14.000Z</time>
      </trkpt>
      <trkpt lat="47.20516" lon="-1.20877">
        <ele>142</ele>
        <time>2021-04-24T10:57:16.000Z</time>
      </trkpt>
      <trkpt lat="47.20526" lon="-1.20883">
        <ele>142</ele>
        <time>2021-04-24T10:57:18.000Z</time>
      </trkpt>
      <trkpt lat="47.20537" lon="-1.20891">
        <ele>143</ele>
        <time>2021-04-24T10:57:20.000Z</time>
      </trkpt>
      <trkpt lat="47.20547" lon="-1.20899">
        <ele>142</ele>
        <time>2021-04-24T10:57:22.000Z</time>
      </trkpt>
      <trkpt lat="47.20557" lon="-1.20908">
        <ele>142</ele>
        <time>2021-04-24T10:57:24.000Z</time>
      </trkpt>
      <trkpt lat="47.20566" lon="-1.20917">
        <ele>142</ele>
        <time>2021-04-24T10:57:26.000Z</time>
      </trkpt>
      <trkpt lat="47.20575" lon="-1.20927">
        <ele>141</ele>
        <time>2021-04-24T10:57:28.000Z</time>
      </trkpt>
      <trkpt lat="47.20585" lon="-1.20937">
        <ele>141</ele>
        <time>2021-04-24T10:57:30.000Z</time>
      </trkpt>
      <trkpt lat="47.20594" lon="-1.20947">
        <ele>141</ele>
        <time>2021-04-24T10:57:32.000Z</time>
      </trkpt>
      <trkpt lat="47.20603" lon="-1.20957">
        <ele>141</ele>
        <time>2021-04-24T10:57:34.000Z</time>
      </trkpt>
      <trkpt lat="47.20612" lon="-1.20967">
        <ele>141</ele>
        <time>2021-04-24T10:57:36.000Z</time>
      </trkpt>
      <trkpt lat="47.20621" lon="-1.20976">
        <ele>141</ele>
        <time>2021-04-24T10:57:38.000Z</time>
      </trkpt>
      <trkpt lat="47.20629" lon="-1.20986">
        <ele>140</ele>
        <time>2021-04-24T10:57:40.000Z</time>
      </trkpt>
      <trkpt lat="47.20636" lon="-1.20998">
        <ele>140</ele>
        <time>2021-04-24T10:57:42.000Z</time>
      </trkpt>
      <trkpt lat="47.20644" lon="-1.2101">
        <ele>140</ele>
        <time>2021-04-24T10:57:44.000Z</time>
      </trkpt>
      <trkpt lat="47.20652" lon="-1.21024">
        <ele>139</ele>
        <time>2021-04-24T10:57:46.000Z</time>
      </trkpt>
      <trkpt lat="47.20659" lon="-1.2104">
        <ele>139</ele>
        <time>2021-04-24T10:57:48.000Z</time>
      </trkpt>
      <trkpt lat="47.20667" lon="-1.21055">
        <ele>138</ele>
        <time>2021-04-24T10:57:50.000Z</time>
      </trkpt>
      <trkpt lat="47.20674" lon="-1.21071">
        <ele>138</ele>
        <time>2021-04-24T10:57:52.000Z</time>
      </trkpt>
      <trkpt lat="47.20682" lon="-1.21086">
        <ele>138</ele>
        <time>2021-04-24T10:57:54.000Z</time>
      </trkpt>
      <trkpt lat="47.2069" lon="-1.21102">
        <ele>138</ele>
        <time>2021-04-24T10:57:56.000Z</time>
      </trkpt>
      <trkpt lat="47.20697" lon="-1.21117">
        <ele>138</ele>
        <time>2021-04-24T10:57:58.000Z</time>
      </trkpt>
      <trkpt lat="47.20704" lon="-1.21132">
        <ele>137</ele>
        <time>2021-04-24T10:58:00.000Z</time>
      </trkpt>
      <trkpt lat="47.20712" lon="-1.21147">
        <ele>137</ele>
        <time>2021-04-24T10:58:02.000Z</time>
      </trkpt>
      <trkpt lat="47.2072" lon="-1.21162">
        <ele>137</ele>
        <time>2021-04-24T10:58:04.000Z</time>
      </trkpt>
      <trkpt lat="47.20728" lon="-1.21178">
        <ele>137</ele>
        <time>2021-04-24T10:58:06.000Z</time>
      </trkpt>
      <trkpt lat="47.20735" lon="-1.21193">
        <ele>137</ele>
        <time>2021-04-24T10:58:08.000Z</time>
      </trkpt>
      <trkpt lat="47.20743" lon="-1.21209">
        <ele>137</ele>
        <time>2021-04-24T10:58:10.000Z</time>
      </trkpt>
      <trkpt lat="47.20751" lon="-1.21223">
        <ele>138</ele>
        <time>2021-04-24T10:58:12.000Z</time>
      </trkpt>
      <trkpt lat="47.20759" lon="-1.21238">
        <ele>138</ele>
        <time>2021-04-24T10:58:14.000Z</time>
      </trkpt>
      <trkpt lat="47.20768" lon="-1.21253">
        <ele>138</ele>
        <time>2021-04-24T10:58:16.000Z</time>
      </trkpt>
      <trkpt lat="47.20776" lon="-1.21267">
        <ele>138</ele>
        <time>2021-04-24T10:58:18.000Z</time>
      </trkpt>
      <trkpt lat="47.20784" lon="-1.21282">
        <ele>139</ele>
        <time>2021-04-24T10:58:20.000Z</time>
      </trkpt>
      <trkpt lat="47.20792" lon="-1.21296">
        <ele>139</ele>
        <time>2021-04-24T10:58:22.000Z</time>
      </trkpt>
      <trkpt lat="47.20801" lon="-1.21311">
        <ele>139</ele>
        <time>2021-04-24T10:58:24.000Z</time>
      </trkpt>
      <trkpt lat="47.20809" lon="-1.21326">
        <ele>139</ele>
        <time>2021-04-24T10:58:26.000Z</time>
      </trkpt>
      <trkpt lat="47.20817" lon="-1.21341">
        <ele>139</ele>
        <time>2021-04-24T10:58:28.000Z</time>
      </trkpt>
      <trkpt lat="47.20826" lon="-1.21356">
        <ele>138</ele>
        <time>2021-04-24T10:58:30.000Z</time>
      </trkpt>
      <trkpt lat="47.20835" lon="-1.2137">
        <ele>138</ele>
        <time>2021-04-24T10:58:32.000Z</time>
      </trkpt>
      <trkpt lat="47.20844" lon="-1.21383">
        <ele>138</ele>
        <time>2021-04-24T10:58:34.000Z</time>
      </trkpt>
      <trkpt lat="47.20853" lon="-1.21395">
        <ele>138</ele>
        <time>2021-04-24T10:58:36.000Z</time>
      </trkpt>
      <trkpt lat="47.20863" lon="-1.21407">
        <ele>138</ele>
        <time>2021-04-24T10:58:38.000Z</time>
      </trkpt>
      <trkpt lat="47.20873" lon="-1.21419">
        <ele>138</ele>
        <time>2021-04-24T10:58:40.000Z</time>
      </trkpt>
      <trkpt lat="47.20883" lon="-1.21431">
        <ele>138</ele>
        <time>2021-04-24T10:58:42.000Z</time>
      </trkpt>
      <trkpt lat="47.20893" lon="-1.21443">
        <ele>138</ele>
        <time>2021-04-24T10:58:44.000Z</time>
      </trkpt>
      <trkpt lat="47.20903" lon="-1.21455">
        <ele>138</ele>
        <time>2021-04-24T10:58:46.000Z</time>
      </trkpt>
      <trkpt lat="47.20913" lon="-1.21467">
        <ele>138</ele>
        <time>2021-04-24T10:58:48.000Z</time>
      </trkpt>
      <trkpt lat="47.20923" lon="-1.21479">
        <ele>138</ele>
        <time>2021-04-24T10:58:50.000Z</time>
      </trkpt>
      <trkpt lat="47.20934" lon="-1.21491">
        <ele>138</ele>
        <time>2021-04-24T10:58:52.000Z</time>
      </trkpt>
      <trkpt lat="47.20944" lon="-1.21504">
        <ele>138</ele>
        <time>2021-04-24T10:58:54.000Z</time>
      </trkpt>
      <trkpt lat="47.20953" lon="-1.21516">
        <ele>138</ele>
        <time>2021-04-24T10:58:56.000Z</time>
      </trkpt>
      <trkpt lat="47.20963" lon="-1.21529">
        <ele>138</ele>
        <time>2021-04-24T10:58:58.000Z</time>
      </trkpt>
      <trkpt lat="47.20973" lon="-1.21542">
        <ele>138</ele>
        <time>2021-04-24T10:59:00.000Z</time>
      </trkpt>
      <trkpt lat="47.20983" lon="-1.21556">
        <ele>138</ele>
        <time>2021-04-24T10:59:02.000Z</time>
      </trkpt>
      <trkpt lat="47.20993" lon="-1.2157">
        <ele>138</ele>
        <time>2021-04-24T10:59:04.000Z</time>
      </trkpt>
      <trkpt lat="47.21002" lon="-1.21584">
        <ele>139</ele>
        <time>2021-04-24T10:59:06.000Z</time>
      </trkpt>
      <trkpt lat="47.21012" lon="-1.21599">
        <ele>139</ele>
        <time>2021-04-24T10:59:08.000Z</time>
      </trkpt>
      <trkpt lat="47.21022" lon="-1.21613">
        <ele>139</ele>
        <time>2021-04-24T10:59:10.000Z</time>
      </trkpt>
      <trkpt lat="47.21031" lon="-1.21628">
        <ele>139</ele>
        <time>2021-04-24T10:59:12.000Z</time>
      </trkpt>
      <trkpt lat="47.2104" lon="-1.21641">
        <ele>139</ele>
        <time>2021-04-24T10:59:14.000Z</time>
      </trkpt>
      <trkpt lat="47.2105" lon="-1.21654">
        <ele>140</ele>
        <time>2021-04-24T10:59:16.000Z</time>
      </trkpt>
      <trkpt lat="47.21059" lon="-1.21669">
        <ele>140</ele>
        <time>2021-04-24T10:59:18.000Z</time>
      </trkpt>
      <trkpt lat="47.21069" lon="-1.21683">
        <ele>140</ele>
        <time>2021-04-24T10:59:20.000Z</time>
      </trkpt>
      <trkpt lat="47.21078" lon="-1.21698">
        <ele>141</ele>
        <time>2021-04-24T10:59:22.000Z</time>
      </trkpt>
      <trkpt lat="47.21086" lon="-1.21714">
        <ele>141</ele>
        <time>2021-04-24T10:59:24.000Z</time>
      </trkpt>
      <trkpt lat="47.21094" lon="-1.21731">
        <ele>141</ele>
        <time>2021-04-24T10:59:26.000Z</time>
      </trkpt>
      <trkpt lat="47.21102" lon="-1.21747">
        <ele>141</ele>
        <time>2021-04-24T10:59:28.000Z</time>
      </trkpt>
      <trkpt lat="47.2111" lon="-1.21764">
        <ele>140</ele>
        <time>2021-04-24T10:59:30.000Z</time>
      </trkpt>
      <trkpt lat="47.21118" lon="-1.21781">
        <ele>141</ele>
        <time>2021-04-24T10:59:32.000Z</time>
      </trkpt>
      <trkpt lat="47.21126" lon="-1.21798">
        <ele>140</ele>
        <time>2021-04-24T10:59:34.000Z</time>
      </trkpt>
      <trkpt lat="47.21133" lon="-1.21814">
        <ele>140</ele>
        <time>2021-04-24T10:59:36.000Z</time>
      </trkpt>
      <trkpt lat="47.2114" lon="-1.21829">
        <ele>139</ele>
        <time>2021-04-24T10:59:38.000Z</time>
      </trkpt>
      <trkpt lat="47.21146" lon="-1.21845">
        <ele>139</ele>
        <time>2021-04-24T10:59:40.000Z</time>
      </trkpt>
      <trkpt lat="47.21153" lon="-1.21862">
        <ele>139</ele>
        <time>2021-04-24T10:59:42.000Z</time>
      </trkpt>
      <trkpt lat="47.21159" lon="-1.21879">
        <ele>138</ele>
        <time>2021-04-24T10:59:44.000Z</time>
      </trkpt>
      <trkpt lat="47.21167" lon="-1.21895">
        <ele>138</ele>
        <time>2021-04-24T10:59:46.000Z</time>
      </trkpt>
      <trkpt lat="47.21174" lon="-1.21911">
        <ele>138</ele>
        <time>2021-04-24T10:59:48.000Z</time>
      </trkpt>
      <trkpt lat="47.21182" lon="-1.21927">
        <ele>138</ele>
        <time>2021-04-24T10:59:50.000Z</time>
      </trkpt>
      <trkpt lat="47.21191" lon="-1.21943">
        <ele>139</ele>
        <time>2021-04-24T10:59:52.000Z</time>
      </trkpt>
      <trkpt lat="47.21199" lon="-1.21957">
        <ele>139</ele>
        <time>2021-04-24T10:59:54.000Z</time>
      </trkpt>
      <trkpt lat="47.21208" lon="-1.21971">
        <ele>140</ele>
        <time>2021-04-24T10:59:56.000Z</time>
      </trkpt>
      <trkpt lat="47.21216" lon="-1.21986">
        <ele>141</ele>
        <time>2021-04-24T10:59:58.000Z</time>
      </trkpt>
      <trkpt lat="47.21225" lon="-1.22002">
        <ele>141</ele>
        <time>2021-04-24T11:00:00.000Z</time>
      </trkpt>
      <trkpt lat="47.21234" lon="-1.22016">
        <ele>141</ele>
        <time>2021-04-24T11:00:02.000Z</time>
      </trkpt>
      <trkpt lat="47.21242" lon="-1.2203">
        <ele>141</ele>
        <time>2021-04-24T11:00:04.000Z</time>
      </trkpt>
      <trkpt lat="47.21251" lon="-1.22045">
        <ele>141</ele>
        <time>2021-04-24T11:00:06.000Z</time>
      </trkpt>
      <trkpt lat="47.2126" lon="-1.2206">
        <ele>141</ele>
        <time>2021-04-24T11:00:08.000Z</time>
      </trkpt>
      <trkpt lat="47.21269" lon="-1.22075">
        <ele>141</ele>
        <time>2021-04-24T11:00:10.000Z</time>
      </trkpt>
      <trkpt lat="47.21277" lon="-1.22091">
        <ele>142</ele>
        <time>2021-04-24T11:00:12.000Z</time>
      </trkpt>
      <trkpt lat="47.21284" lon="-1.22107">
        <ele>142</ele>
        <time>2021-04-24T11:00:14.000Z</time>
      </trkpt>
      <trkpt lat="47.2129" lon="-1.22124">
        <ele>142</ele>
        <time>2021-04-24T11:00:16.000Z</time>
      </trkpt>
      <trkpt lat="47.21296" lon="-1.22141">
        <ele>142</ele>
        <time>2021-04-24T11:00:18.000Z</time>
      </trkpt>
      <trkpt lat="47.21301" lon="-1.22159">
        <ele>142</ele>
        <time>2021-04-24T11:00:20.000Z</time>
      </trkpt>
      <trkpt lat="47.21307" lon="-1.22176">
        <ele>142</ele>
        <time>2021-04-24T11:00:22.000Z</time>
      </trkpt>
      <trkpt lat="47.21312" lon="-1.22194">
        <ele>142</ele>
        <time>2021-04-24T11:00:24.000Z</time>
      </trkpt>
      <trkpt lat="47.21318" lon="-1.2221">
        <ele>142</ele>
        <time>2021-04-24T11:00:26.000Z</time>
      </trkpt>
      <trkpt lat="47.21324" lon="-1.22228">
        <ele>142</ele>
        <time>2021-04-24T11:00:28.000Z</time>
      </trkpt>
      <trkpt lat="47.2133" lon="-1.22246">
        <ele>142</ele>
        <time>2021-04-24T11:00:30.000Z</time>
      </trkpt>
      <trkpt lat="47.21336" lon="-1.22264">
        <ele>142</ele>
        <time>2021-04-24T11:00:32.000Z</time>
      </trkpt>
      <trkpt lat="47.21342" lon="-1.22283">
        <ele>142</ele>
        <time>2021-04-24T11:00:34.000Z</time>
      </trkpt>
      <trkpt lat="47.21349" lon="-1.22301">
        <ele>142</ele>
        <time>2021-04-24T11:00:36.000Z</time>
      </trkpt>
      <trkpt lat="47.21355" lon="-1.2232">
        <ele>141</ele>
        <time>2021-04-24T11:00:38.000Z</time>
      </trkpt>
      <trkpt lat="47.21361" lon="-1.22339">
        <ele>141</ele>
        <time>2021-04-24T11:00:40.000Z</time>
      </trkpt>
      <trkpt lat="47.21368" lon="-1.22357">
        <ele>141</ele>
        <time>2021-04-24T11:00:42.000Z</time>
      </trkpt>
      <trkpt lat="47.21374" lon="-1.22376">
        <ele>141</ele>
        <time>2021-04-24T11:00:44.000Z</time>
      </trkpt>
      <trkpt lat="47.2138" lon="-1.22395">
        <ele>141</ele>
        <time>2021-04-24T11:00:46.000Z</time>
      </trkpt>
      <trkpt lat="47.21387" lon="-1.22414">
        <ele>141</ele>
        <time>2021-04-24T11:00:48.000Z</time>
      </trkpt>
      <trkpt lat="47.21393" lon="-1.22434">
        <ele>140</ele>
        <time>2021-04-24T11:00:50.000Z</time>
      </trkpt>
      <trkpt lat="47.214" lon="-1.22453">
        <ele>140</ele>
        <time>2021-04-24T11:00:52.000Z</time>
      </trkpt>
      <trkpt lat="47.21406" lon="-1.22471">
        <ele>140</ele>
        <time>2021-04-24T11:00:54.000Z</time>
      </trkpt>
      <trkpt lat="47.21412" lon="-1.2249">
        <ele>140</ele>
        <time>2021-04-24T11:00:56.000Z</time>
      </trkpt>
      <trkpt lat="47.21418" lon="-1.22509">
        <ele>140</ele>
        <time>2021-04-24T11:00:58.000Z</time>
      </trkpt>
      <trkpt lat="47.21424" lon="-1.22528">
        <ele>140</ele>
        <time>2021-04-24T11:01:00.000Z</time>
      </trkpt>
      <trkpt lat="47.21428" lon="-1.22548">
        <ele>139</ele>
        <time>2021-04-24T11:01:02.000Z</time>
      </trkpt>
      <trkpt lat="47.21433" lon="-1.22567">
        <ele>139</ele>
        <time>2021-04-24T11:01:04.000Z</time>
      </trkpt>
      <trkpt lat="47.21438" lon="-1.22586">
        <ele>138</ele>
        <time>2021-04-24T11:01:06.000Z</time>
      </trkpt>
      <trkpt lat="47.21441" lon="-1.22606">
        <ele>138</ele>
        <time>2021-04-24T11:01:08.000Z</time>
      </trkpt>
      <trkpt lat="47.21446" lon="-1.22626">
        <ele>138</ele>
        <time>2021-04-24T11:01:10.000Z</time>
      </trkpt>
      <trkpt lat="47.21451" lon="-1.22645">
        <ele>137</ele>
        <time>2021-04-24T11:01:12.000Z</time>
      </trkpt>
      <trkpt lat="47.21456" lon="-1.22664">
        <ele>137</ele>
        <time>2021-04-24T11:01:14.000Z</time>
      </trkpt>
      <trkpt lat="47.21462" lon="-1.22682">
        <ele>137</ele>
        <time>2021-04-24T11:01:16.000Z</time>
      </trkpt>
      <trkpt lat="47.21468" lon="-1.22699">
        <ele>137</ele>
        <time>2021-04-24T11:01:18.000Z</time>
      </trkpt>
      <trkpt lat="47.21475" lon="-1.22716">
        <ele>136</ele>
        <time>2021-04-24T11:01:20.000Z</time>
      </trkpt>
      <trkpt lat="47.21481" lon="-1.22733">
        <ele>136</ele>
        <time>2021-04-24T11:01:22.000Z</time>
      </trkpt>
      <trkpt lat="47.21488" lon="-1.22749">
        <ele>137</ele>
        <time>2021-04-24T11:01:24.000Z</time>
      </trkpt>
      <trkpt lat="47.21495" lon="-1.22767">
        <ele>137</ele>
        <time>2021-04-24T11:01:26.000Z</time>
      </trkpt>
      <trkpt lat="47.21502" lon="-1.22786">
        <ele>137</ele>
        <time>2021-04-24T11:01:28.000Z</time>
      </trkpt>
      <trkpt lat="47.21509" lon="-1.22803">
        <ele>137</ele>
        <time>2021-04-24T11:01:30.000Z</time>
      </trkpt>
      <trkpt lat="47.21516" lon="-1.2282">
        <ele>138</ele>
        <time>2021-04-24T11:01:32.000Z</time>
      </trkpt>
      <trkpt lat="47.21523" lon="-1.22836">
        <ele>138</ele>
        <time>2021-04-24T11:01:34.000Z</time>
      </trkpt>
      <trkpt lat="47.21531" lon="-1.22852">
        <ele>138</ele>
        <time>2021-04-24T11:01:36.000Z</time>
      </trkpt>
      <trkpt lat="47.21539" lon="-1.22866">
        <ele>138</ele>
        <time>2021-04-24T11:01:38.000Z</time>
      </trkpt>
      <trkpt lat="47.21546" lon="-1.22881">
        <ele>138</ele>
        <time>2021-04-24T11:01:40.000Z</time>
      </trkpt>
      <trkpt lat="47.21555" lon="-1.22895">
        <ele>139</ele>
        <time>2021-04-24T11:01:42.000Z</time>
      </trkpt>
      <trkpt lat="47.21564" lon="-1.2291">
        <ele>139</ele>
        <time>2021-04-24T11:01:44.000Z</time>
      </trkpt>
      <trkpt lat="47.21572" lon="-1.22924">
        <ele>139</ele>
        <time>2021-04-24T11:01:46.000Z</time>
      </trkpt>
      <trkpt lat="47.2158" lon="-1.22938">
        <ele>139</ele>
        <time>2021-04-24T11:01:48.000Z</time>
      </trkpt>
      <trkpt lat="47.21588" lon="-1.22951">
        <ele>139</ele>
        <time>2021-04-24T11:01:50.000Z</time>
      </trkpt>
      <trkpt lat="47.21596" lon="-1.22965">
        <ele>139</ele>
        <time>2021-04-24T11:01:52.000Z</time>
      </trkpt>
      <trkpt lat="47.21605" lon="-1.22979">
        <ele>138</ele>
        <time>2021-04-24T11:01:54.000Z</time>
      </trkpt>
      <trkpt lat="47.21614" lon="-1.22993">
        <ele>139</ele>
        <time>2021-04-24T11:01:56.000Z</time>
      </trkpt>
      <trkpt lat="47.21623" lon="-1.23007">
        <ele>139</ele>
        <time>2021-04-24T11:01:58.000Z</time>
      </trkpt>
      <trkpt lat="47.21632" lon="-1.23021">
        <ele>139</ele>
        <time>2021-04-24T11:02:00.000Z</time>
      </trkpt>
      <trkpt lat="47.21641" lon="-1.23034">
        <ele>139</ele>
        <time>2021-04-24T11:02:02.000Z</time>
      </trkpt>
      <trkpt lat="47.21649" lon="-1.23047">
        <ele>139</ele>
        <time>2021-04-24T11:02:04.000Z</time>
      </trkpt>
      <trkpt lat="47.21657" lon="-1.23061">
        <ele>139</ele>
        <time>2021-04-24T11:02:06.000Z</time>
      </trkpt>
      <trkpt lat="47.21666" lon="-1.23074">
        <ele>139</ele>
        <time>2021-04-24T11:02:08.000Z</time>
      </trkpt>
      <trkpt lat="47.21675" lon="-1.23087">
        <ele>139</ele>
        <time>2021-04-24T11:02:10.000Z</time>
      </trkpt>
      <trkpt lat="47.21684" lon="-1.23101">
        <ele>139</ele>
        <time>2021-04-24T11:02:12.000Z</time>
      </trkpt>
      <trkpt lat="47.21694" lon="-1.23114">
        <ele>139</ele>
        <time>2021-04-24T11:02:14.000Z</time>
      </trkpt>
      <trkpt lat="47.21702" lon="-1.23127">
        <ele>139</ele>
        <time>2021-04-24T11:02:16.000Z</time>
      </trkpt>
      <trkpt lat="47.21712" lon="-1.23141">
        <ele>139</ele>
        <time>2021-04-24T11:02:18.000Z</time>
      </trkpt>
      <trkpt lat="47.21721" lon="-1.23154">
        <ele>140</ele>
        <time>2021-04-24T11:02:20.000Z</time>
      </trkpt>
      <trkpt lat="47.2173" lon="-1.23168">
        <ele>140</ele>
        <time>2021-04-24T11:02:22.000Z</time>
      </trkpt>
      <trkpt lat="47.2174" lon="-1.23183">
        <ele>140</ele>
        <time>2021-04-24T11:02:24.000Z</time>
      </trkpt>
      <trkpt lat="47.21749" lon="-1.23196">
        <ele>140</ele>
        <time>2021-04-24T11:02:26.000Z</time>
      </trkpt>
      <trkpt lat="47.21759" lon="-1.2321">
        <ele>140</ele>
        <time>2021-04-24T11:02:28.000Z</time>
      </trkpt>
      <trkpt lat="47.21768" lon="-1.23225">
        <ele>140</ele>
        <time>2021-04-24T11:02:30.000Z</time>
      </trkpt>
      <trkpt lat="47.21777" lon="-1.23238">
        <ele>141</ele>
        <time>2021-04-24T11:02:32.000Z</time>
      </trkpt>
      <trkpt lat="47.21786" lon="-1.23252">
        <ele>141</ele>
        <time>2021-04-24T11:02:34.000Z</time>
      </trkpt>
      <trkpt lat="47.21796" lon="-1.23265">
        <ele>142</ele>
        <time>2021-04-24T11:02:36.000Z</time>
      </trkpt>
      <trkpt lat="47.21805" lon="-1.23278">
        <ele>142</ele>
        <time>2021-04-24T11:02:38.000Z</time>
      </trkpt>
      <trkpt lat="47.21815" lon="-1.23291">
        <ele>142</ele>
        <time>2021-04-24T11:02:40.000Z</time>
      </trkpt>
      <trkpt lat="47.21823" lon="-1.23305">
        <ele>142</ele>
        <time>2021-04-24T11:02:42.000Z</time>
      </trkpt>
      <trkpt lat="47.21832" lon="-1.2332">
        <ele>141</ele>
        <time>2021-04-24T11:02:44.000Z</time>
      </trkpt>
      <trkpt lat="47.21841" lon="-1.23334">
        <ele>140</ele>
        <time>2021-04-24T11:02:46.000Z</time>
      </trkpt>
      <trkpt lat="47.21849" lon="-1.23348">
        <ele>139</ele>
        <time>2021-04-24T11:02:48.000Z</time>
      </trkpt>
      <trkpt lat="47.21857" lon="-1.23363">
        <ele>138</ele>
        <time>2021-04-24T11:02:50.000Z</time>
      </trkpt>
      <trkpt lat="47.21865" lon="-1.23377">
        <ele>138</ele>
        <time>2021-04-24T11:02:52.000Z</time>
      </trkpt>
      <trkpt lat="47.21873" lon="-1.23392">
        <ele>139</ele>
        <time>2021-04-24T11:02:54.000Z</time>
      </trkpt>
      <trkpt lat="47.21879" lon="-1.23408">
        <ele>139</ele>
        <time>2021-04-24T11:02:56.000Z</time>
      </trkpt>
      <trkpt lat="47.21887" lon="-1.23424">
        <ele>138</ele>
        <time>2021-04-24T11:02:58.000Z</time>
      </trkpt>
      <trkpt lat="47.21895" lon="-1.23438">
        <ele>138</ele>
        <time>2021-04-24T11:03:00.000Z</time>
      </trkpt>
      <trkpt lat="47.21905" lon="-1.23447">
        <ele>138</ele>
        <time>2021-04-24T11:03:02.000Z</time>
      </trkpt>
      <trkpt lat="47.21915" lon="-1.23458">
        <ele>139</ele>
        <time>2021-04-24T11:03:04.000Z</time>
      </trkpt>
      <trkpt lat="47.2192" lon="-1.23475">
        <ele>139</ele>
        <time>2021-04-24T11:03:06.000Z</time>
      </trkpt>
      <trkpt lat="47.21925" lon="-1.23494">
        <ele>138</ele>
        <time>2021-04-24T11:03:08.000Z</time>
      </trkpt>
      <trkpt lat="47.21932" lon="-1.23511">
        <ele>138</ele>
        <time>2021-04-24T11:03:10.000Z</time>
      </trkpt>
      <trkpt lat="47.2194" lon="-1.23528">
        <ele>137</ele>
        <time>2021-04-24T11:03:12.000Z</time>
      </trkpt>
      <trkpt lat="47.21947" lon="-1.23545">
        <ele>137</ele>
        <time>2021-04-24T11:03:14.000Z</time>
      </trkpt>
      <trkpt lat="47.21955" lon="-1.23561">
        <ele>136</ele>
        <time>2021-04-24T11:03:16.000Z</time>
      </trkpt>
      <trkpt lat="47.21962" lon="-1.23577">
        <ele>136</ele>
        <time>2021-04-24T11:03:18.000Z</time>
      </trkpt>
      <trkpt lat="47.2197" lon="-1.23591">
        <ele>137</ele>
        <time>2021-04-24T11:03:20.000Z</time>
      </trkpt>
      <trkpt lat="47.21977" lon="-1.23606">
        <ele>137</ele>
        <time>2021-04-24T11:03:22.000Z</time>
      </trkpt>
      <trkpt lat="47.21984" lon="-1.23624">
        <ele>137</ele>
        <time>2021-04-24T11:03:24.000Z</time>
      </trkpt>
      <trkpt lat="47.2199" lon="-1.23641">
        <ele>138</ele>
        <time>2021-04-24T11:03:26.000Z</time>
      </trkpt>
      <trkpt lat="47.21997" lon="-1.2366">
        <ele>138</ele>
        <time>2021-04-24T11:03:28.000Z</time>
      </trkpt>
      <trkpt lat="47.22002" lon="-1.23679">
        <ele>138</ele>
        <time>2021-04-24T11:03:30.000Z</time>
      </trkpt>
      <trkpt lat="47.22007" lon="-1.23697">
        <ele>139</ele>
        <time>2021-04-24T11:03:32.000Z</time>
      </trkpt>
      <trkpt lat="47.22012" lon="-1.23715">
        <ele>139</ele>
        <time>2021-04-24T11:03:34.000Z</time>
      </trkpt>
      <trkpt lat="47.22016" lon="-1.23733">
        <ele>139</ele>
        <time>2021-04-24T11:03:36.000Z</time>
      </trkpt>
      <trkpt lat="47.2202" lon="-1.23752">
        <ele>140</ele>
        <time>2021-04-24T11:03:38.000Z</time>
      </trkpt>
      <trkpt lat="47.22024" lon="-1.23772">
        <ele>141</ele>
        <time>2021-04-24T11:03:40.000Z</time>
      </trkpt>
      <trkpt lat="47.22027" lon="-1.23791">
        <ele>141</ele>
        <time>2021-04-24T11:03:42.000Z</time>
      </trkpt>
      <trkpt lat="47.22031" lon="-1.2381">
        <ele>141</ele>
        <time>2021-04-24T11:03:44.000Z</time>
      </trkpt>
      <trkpt lat="47.22034" lon="-1.23831">
        <ele>141</ele>
        <time>2021-04-24T11:03:46.000Z</time>
      </trkpt>
      <trkpt lat="47.22037" lon="-1.23851">
        <ele>141</ele>
        <time>2021-04-24T11:03:48.000Z</time>
      </trkpt>
      <trkpt lat="47.2204" lon="-1.23871">
        <ele>141</ele>
        <time>2021-04-24T11:03:50.000Z</time>
      </trkpt>
      <trkpt lat="47.22043" lon="-1.2389">
        <ele>140</ele>
        <time>2021-04-24T11:03:52.000Z</time>
      </trkpt>
      <trkpt lat="47.22046" lon="-1.23908">
        <ele>141</ele>
        <time>2021-04-24T11:03:54.000Z</time>
      </trkpt>
      <trkpt lat="47.22049" lon="-1.23926">
        <ele>141</ele>
        <time>2021-04-24T11:03:56.000Z</time>
      </trkpt>
      <trkpt lat="47.22051" lon="-1.23944">
        <ele>141</ele>
        <time>2021-04-24T11:03:58.000Z</time>
      </trkpt>
      <trkpt lat="47.22054" lon="-1.23964">
        <ele>140</ele>
        <time>2021-04-24T11:04:00.000Z</time>
      </trkpt>
      <trkpt lat="47.22057" lon="-1.23983">
        <ele>141</ele>
        <time>2021-04-24T11:04:02.000Z</time>
      </trkpt>
      <trkpt lat="47.2206" lon="-1.24002">
        <ele>141</ele>
        <time>2021-04-24T11:04:04.000Z</time>
      </trkpt>
      <trkpt lat="47.22062" lon="-1.2402">
        <ele>141</ele>
        <time>2021-04-24T11:04:06.000Z</time>
      </trkpt>
      <trkpt lat="47.22067" lon="-1.24039">
        <ele>141</ele>
        <time>2021-04-24T11:04:08.000Z</time>
      </trkpt>
      <trkpt lat="47.22075" lon="-1.24054">
        <ele>141</ele>
        <time>2021-04-24T11:04:10.000Z</time>
      </trkpt>
      <trkpt lat="47.22085" lon="-1.24067">
        <ele>141</ele>
        <time>2021-04-24T11:04:12.000Z</time>
      </trkpt>
      <trkpt lat="47.22096" lon="-1.24077">
        <ele>141</ele>
        <time>2021-04-24T11:04:14.000Z</time>
      </trkpt>
      <trkpt lat="47.22107" lon="-1.24087">
        <ele>141</ele>
        <time>2021-04-24T11:04:16.000Z</time>
      </trkpt>
      <trkpt lat="47.22119" lon="-1.24095">
        <ele>141</ele>
        <time>2021-04-24T11:04:18.000Z</time>
      </trkpt>
      <trkpt lat="47.22131" lon="-1.24105">
        <ele>140</ele>
        <time>2021-04-24T11:04:20.000Z</time>
      </trkpt>
      <trkpt lat="47.22143" lon="-1.24115">
        <ele>140</ele>
        <time>2021-04-24T11:04:22.000Z</time>
      </trkpt>
      <trkpt lat="47.22154" lon="-1.24125">
        <ele>140</ele>
        <time>2021-04-24T11:04:24.000Z</time>
      </trkpt>
      <trkpt lat="47.22166" lon="-1.24133">
        <ele>139</ele>
        <time>2021-04-24T11:04:26.000Z</time>
      </trkpt>
      <trkpt lat="47.22177" lon="-1.24142">
        <ele>139</ele>
        <time>2021-04-24T11:04:28.000Z</time>
      </trkpt>
      <trkpt lat="47.22188" lon="-1.24151">
        <ele>139</ele>
        <time>2021-04-24T11:04:30.000Z</time>
      </trkpt>
      <trkpt lat="47.222" lon="-1.2416">
        <ele>139</ele>
        <time>2021-04-24T11:04:32.000Z</time>
      </trkpt>
      <trkpt lat="47.22211" lon="-1.2417">
        <ele>139</ele>
        <time>2021-04-24T11:04:34.000Z</time>
      </trkpt>
      <trkpt lat="47.22223" lon="-1.24178">
        <ele>139</ele>
        <time>2021-04-24T11:04:36.000Z</time>
      </trkpt>
      <trkpt lat="47.22235" lon="-1.24187">
        <ele>140</ele>
        <time>2021-04-24T11:04:38.000Z</time>
      </trkpt>
      <trkpt lat="47.22247" lon="-1.24196">
        <ele>140</ele>
        <time>2021-04-24T11:04:40.000Z</time>
      </trkpt>
      <trkpt lat="47.22258" lon="-1.24206">
        <ele>139</ele>
        <time>2021-04-24T11:04:42.000Z</time>
      </trkpt>
      <trkpt lat="47.2227" lon="-1.24215">
        <ele>139</ele>
        <time>2021-04-24T11:04:44.000Z</time>
      </trkpt>
      <trkpt lat="47.22281" lon="-1.24225">
        <ele>139</ele>
        <time>2021-04-24T11:04:46.000Z</time>
      </trkpt>
      <trkpt lat="47.22293" lon="-1.24234">
        <ele>139</ele>
        <time>2021-04-24T11:04:48.000Z</time>
      </trkpt>
      <trkpt lat="47.22305" lon="-1.24242">
        <ele>140</ele>
        <time>2021-04-24T11:04:50.000Z</time>
      </trkpt>
      <trkpt lat="47.22316" lon="-1.24251">
        <ele>139</ele>
        <time>2021-04-24T11:04:52.000Z</time>
      </trkpt>
      <trkpt lat="47.22328" lon="-1.2426">
        <ele>140</ele>
        <time>2021-04-24T11:04:54.000Z</time>
      </trkpt>
      <trkpt lat="47.22339" lon="-1.2427">
        <ele>139</ele>
        <time>2021-04-24T11:04:56.000Z</time>
      </trkpt>
      <trkpt lat="47.22351" lon="-1.24279">
        <ele>139</ele>
        <time>2021-04-24T11:04:58.000Z</time>
      </trkpt>
      <trkpt lat="47.22363" lon="-1.24288">
        <ele>139</ele>
        <time>2021-04-24T11:05:00.000Z</time>
      </trkpt>
      <trkpt lat="47.22375" lon="-1.24298">
        <ele>139</ele>
        <time>2021-04-24T11:05:02.000Z</time>
      </trkpt>
      <trkpt lat="47.22387" lon="-1.24307">
        <ele>139</ele>
        <time>2021-04-24T11:05:04.000Z</time>
      </trkpt>
      <trkpt lat="47.22398" lon="-1.24316">
        <ele>138</ele>
        <time>2021-04-24T11:05:06.000Z</time>
      </trkpt>
      <trkpt lat="47.2241" lon="-1.24326">
        <ele>138</ele>
        <time>2021-04-24T11:05:08.000Z</time>
      </trkpt>
      <trkpt lat="47.22421" lon="-1.24336">
        <ele>138</ele>
        <time>2021-04-24T11:05:10.000Z</time>
      </trkpt>
      <trkpt lat="47.22431" lon="-1.24348">
        <ele>138</ele>
        <time>2021-04-24T11:05:12.000Z</time>
      </trkpt>
      <trkpt lat="47.22441" lon="-1.24363">
        <ele>138</ele>
        <time>2021-04-24T11:05:14.000Z</time>
      </trkpt>
      <trkpt lat="47.2245" lon="-1.24378">
        <ele>138</ele>
        <time>2021-04-24T11:05:16.000Z</time>
      </trkpt>
      <trkpt lat="47.22457" lon="-1.24394">
        <ele>137</ele>
        <time>2021-04-24T11:05:18.000Z</time>
      </trkpt>
      <trkpt lat="47.22463" lon="-1.24411">
        <ele>137</ele>
        <time>2021-04-24T11:05:20.000Z</time>
      </trkpt>
      <trkpt lat="47.22471" lon="-1.24428">
        <ele>137</ele>
        <time>2021-04-24T11:05:22.000Z</time>
      </trkpt>
      <trkpt lat="47.22477" lon="-1.24445">
        <ele>137</ele>
        <time>2021-04-24T11:05:24.000Z</time>
      </trkpt>
      <trkpt lat="47.22484" lon="-1.24462">
        <ele>137</ele>
        <time>2021-04-24T11:05:26.000Z</time>
      </trkpt>
      <trkpt lat="47.2249" lon="-1.24479">
        <ele>137</ele>
        <time>2021-04-24T11:05:28.000Z</time>
      </trkpt>
      <trkpt lat="47.22497" lon="-1.24496">
        <ele>136</ele>
        <time>2021-04-24T11:05:30.000Z</time>
      </trkpt>
      <trkpt lat="47.22503" lon="-1.24514">
        <ele>136</ele>
        <time>2021-04-24T11:05:32.000Z</time>
      </trkpt>
      <trkpt lat="47.22511" lon="-1.2453">
        <ele>136</ele>
        <time>2021-04-24T11:05:34.000Z</time>
      </trkpt>
      <trkpt lat="47.22518" lon="-1.24548">
        <ele>136</ele>
        <time>2021-04-24T11:05:36.000Z</time>
      </trkpt>
      <trkpt lat="47.22525" lon="-1.24565">
        <ele>136</ele>
        <time>2021-04-24T11:05:38.000Z</time>
      </trkpt>
      <trkpt lat="47.22532" lon="-1.24582">
        <ele>136</ele>
        <time>2021-04-24T11:05:40.000Z</time>
      </trkpt>
      <trkpt lat="47.22538" lon="-1.24599">
        <ele>136</ele>
        <time>2021-04-24T11:05:42.000Z</time>
      </trkpt>
      <trkpt lat="47.22546" lon="-1.24615">
        <ele>136</ele>
        <time>2021-04-24T11:05:44.000Z</time>
      </trkpt>
      <trkpt lat="47.22554" lon="-1.24631">
        <ele>136</ele>
        <time>2021-04-24T11:05:46.000Z</time>
      </trkpt>
      <trkpt lat="47.22562" lon="-1.24647">
        <ele>136</ele>
        <time>2021-04-24T11:05:48.000Z</time>
      </trkpt>
      <trkpt lat="47.22569" lon="-1.24663">
        <ele>137</ele>
        <time>2021-04-24T11:05:50.000Z</time>
      </trkpt>
      <trkpt lat="47.22577" lon="-1.24679">
        <ele>137</ele>
        <time>2021-04-24T11:05:52.000Z</time>
      </trkpt>
      <trkpt lat="47.22585" lon="-1.24695">
        <ele>137</ele>
        <time>2021-04-24T11:05:54.000Z</time>
      </trkpt>
      <trkpt lat="47.22594" lon="-1.24713">
        <ele>137</ele>
        <time>2021-04-24T11:05:56.000Z</time>
      </trkpt>
      <trkpt lat="47.22601" lon="-1.24728">
        <ele>138</ele>
        <time>2021-04-24T11:05:58.000Z</time>
      </trkpt>
      <trkpt lat="47.2261" lon="-1.24743">
        <ele>138</ele>
        <time>2021-04-24T11:06:00.000Z</time>
      </trkpt>
      <trkpt lat="47.22619" lon="-1.24757">
        <ele>138</ele>
        <time>2021-04-24T11:06:02.000Z</time>
      </trkpt>
      <trkpt lat="47.22628" lon="-1.2477">
        <ele>138</ele>
        <time>2021-04-24T11:06:04.000Z</time>
      </trkpt>
      <trkpt lat="47.22638" lon="-1.24783">
        <ele>139</ele>
        <time>2021-04-24T11:06:06.000Z</time>
      </trkpt>
      <trkpt lat="47.22648" lon="-1.24796">
        <ele>139</ele>
        <time>2021-04-24T11:06:08.000Z</time>
      </trkpt>
      <trkpt lat="47.22658" lon="-1.24808">
        <ele>140</ele>
        <time>2021-04-24T11:06:10.000Z</time>
      </trkpt>
      <trkpt lat="47.2267" lon="-1.24819">
        <ele>140</ele>
        <time>2021-04-24T11:06:12.000Z</time>
      </trkpt>
      <trkpt lat="47.22682" lon="-1.24825">
        <ele>140</ele>
        <time>2021-04-24T11:06:14.000Z</time>
      </trkpt>
      <trkpt lat="47.22696" lon="-1.24825">
        <ele>139</ele>
        <time>2021-04-24T11:06:16.000Z</time>
      </trkpt>
      <trkpt lat="47.22709" lon="-1.24821">
        <ele>139</ele>
        <time>2021-04-24T11:06:18.000Z</time>
      </trkpt>
      <trkpt lat="47.22722" lon="-1.24814">
        <ele>139</ele>
        <time>2021-04-24T11:06:20.000Z</time>
      </trkpt>
      <trkpt lat="47.22733" lon="-1.24805">
        <ele>139</ele>
        <time>2021-04-24T11:06:22.000Z</time>
      </trkpt>
      <trkpt lat="47.22744" lon="-1.24795">
        <ele>139</ele>
        <time>2021-04-24T11:06:24.000Z</time>
      </trkpt>
      <trkpt lat="47.22756" lon="-1.24785">
        <ele>138</ele>
        <time>2021-04-24T11:06:26.000Z</time>
      </trkpt>
      <trkpt lat="47.22767" lon="-1.24775">
        <ele>138</ele>
        <time>2021-04-24T11:06:28.000Z</time>
      </trkpt>
      <trkpt lat="47.22779" lon="-1.24766">
        <ele>138</ele>
        <time>2021-04-24T11:06:30.000Z</time>
      </trkpt>
      <trkpt lat="47.2279" lon="-1.24756">
        <ele>138</ele>
        <time>2021-04-24T11:06:32.000Z</time>
      </trkpt>
      <trkpt lat="47.22802" lon="-1.24747">
        <ele>138</ele>
        <time>2021-04-24T11:06:34.000Z</time>
      </trkpt>
      <trkpt lat="47.22813" lon="-1.24737">
        <ele>138</ele>
        <time>2021-04-24T11:06:36.000Z</time>
      </trkpt>
      <trkpt lat="47.22825" lon="-1.24727">
        <ele>138</ele>
        <time>2021-04-24T11:06:38.000Z</time>
      </trkpt>
      <trkpt lat="47.22836" lon="-1.24718">
        <ele>137</ele>
        <time>2021-04-24T11:06:40.000Z</time>
      </trkpt>
      <trkpt lat="47.22848" lon="-1.24708">
        <ele>137</ele>
        <time>2021-04-24T11:06:42.000Z</time>
      </trkpt>
      <trkpt lat="47.2286" lon="-1.24699">
        <ele>136</ele>
        <time>2021-04-24T11:06:44.000Z</time>
      </trkpt>
      <trkpt lat="47.22871" lon="-1.24689">
        <ele>136</ele>
        <time>2021-04-24T11:06:46.000Z</time>
      </trkpt>
      <trkpt lat="47.22882" lon="-1.24679">
        <ele>136</ele>
        <time>2021-04-24T11:06:48.000Z</time>
      </trkpt>
      <trkpt lat="47.22893" lon="-1.24669">
        <ele>136</ele>
        <time>2021-04-24T11:06:50.000Z</time>
      </trkpt>
      <trkpt lat="47.22904" lon="-1.24659">
        <ele>136</ele>
        <time>2021-04-24T11:06:52.000Z</time>
      </trkpt>
      <trkpt lat="47.22915" lon="-1.24648">
        <ele>136</ele>
        <time>2021-04-24T11:06:54.000Z</time>
      </trkpt>
      <trkpt lat="47.22926" lon="-1.24636">
        <ele>136</ele>
        <time>2021-04-24T11:06:56.000Z</time>
      </trkpt>
      <trkpt lat="47.22936" lon="-1.24624">
        <ele>135</ele>
        <time>2021-04-24T11:06:58.000Z</time>
      </trkpt>
      <trkpt lat="47.22947" lon="-1.24613">
        <ele>135</ele>
        <time>2021-04-24T11:07:00.000Z</time>
      </trkpt>
      <trkpt lat="47.22957" lon="-1.24601">
        <ele>135</ele>
        <time>2021-04-24T11:07:02.000Z</time>
      </trkpt>
      <trkpt lat="47.22967" lon="-1.2459">
        <ele>135</ele>
        <time>2021-04-24T11:07:04.000Z</time>
      </trkpt>
      <trkpt lat="47.22978" lon="-1.24578">
        <ele>135</ele>
        <time>2021-04-24T11:07:06.000Z</time>
      </trkpt>
      <trkpt lat="47.22989" lon="-1.24566">
        <ele>135</ele>
        <time>2021-04-24T11:07:08.000Z</time>
      </trkpt>
      <trkpt lat="47.22999" lon="-1.24554">
        <ele>134</ele>
        <time>2021-04-24T11:07:10.000Z</time>
      </trkpt>
      <trkpt lat="47.23008" lon="-1.24541">
        <ele>134</ele>
        <time>2021-04-24T11:07:12.000Z</time>
      </trkpt>
      <trkpt lat="47.23018" lon="-1.24529">
        <ele>134</ele>
        <time>2021-04-24T11:07:14.000Z</time>
      </trkpt>
      <trkpt lat="47.23028" lon="-1.24517">
        <ele>134</ele>
        <time>2021-04-24T11:07:16.000Z</time>
      </trkpt>
      <trkpt lat="47.23038" lon="-1.24504">
        <ele>134</ele>
        <time>2021-04-24T11:07:18.000Z</time>
      </trkpt>
      <trkpt lat="47.23048" lon="-1.24491">
        <ele>134</ele>
        <time>2021-04-24T11:07:20.000Z</time>
      </trkpt>
      <trkpt lat="47.2306" lon="-1.24481">
        <ele>134</ele>
        <time>2021-04-24T11:07:22.000Z</time>
      </trkpt>
      <trkpt lat="47.23071" lon="-1.24472">
        <ele>134</ele>
        <time>2021-04-24T11:07:24.000Z</time>
      </trkpt>
      <trkpt lat="47.23083" lon="-1.24464">
        <ele>135</ele>
        <time>2021-04-24T11:07:26.000Z</time>
      </trkpt>
      <trkpt lat="47.23095" lon="-1.24456">
        <ele>135</ele>
        <time>2021-04-24T11:07:28.000Z</time>
      </trkpt>
      <trkpt lat="47.23106" lon="-1.24449">
        <ele>134</ele>
        <time>2021-04-24T11:07:30.000Z</time>
      </trkpt>
      <trkpt lat="47.23118" lon="-1.24442">
        <ele>135</ele>
        <time>2021-04-24T11:07:32.000Z</time>
      </trkpt>
      <trkpt lat="47.2313" lon="-1.24436">
        <ele>135</ele>
        <time>2021-04-24T11:07:34.000Z</time>
      </trkpt>
      <trkpt lat="47.23143" lon="-1.24432">
        <ele>135</ele>
        <time>2021-04-24T11:07:36.000Z</time>
      </trkpt>
      <trkpt lat="47.23155" lon="-1.24429">
        <ele>135</ele>
        <time>2021-04-24T11:07:38.000Z</time>
      </trkpt>
      <trkpt lat="47.23168" lon="-1.24428">
        <ele>135</ele>
        <time>2021-04-24T11:07:40.000Z</time>
      </trkpt>
      <trkpt lat="47.23179" lon="-1.24429">
        <ele>135</ele>
        <time>2021-04-24T11:07:42.000Z</time>
      </trkpt>
      <trkpt lat="47.23192" lon="-1.24429">
        <ele>135</ele>
        <time>2021-04-24T11:07:44.000Z</time>
      </trkpt>
      <trkpt lat="47.23204" lon="-1.24431">
        <ele>134</ele>
        <time>2021-04-24T11:07:46.000Z</time>
      </trkpt>
      <trkpt lat="47.23217" lon="-1.24432">
        <ele>135</ele>
        <time>2021-04-24T11:07:48.000Z</time>
      </trkpt>
      <trkpt lat="47.23229" lon="-1.24434">
        <ele>135</ele>
        <time>2021-04-24T11:07:50.000Z</time>
      </trkpt>
      <trkpt lat="47.23241" lon="-1.24436">
        <ele>135</ele>
        <time>2021-04-24T11:07:52.000Z</time>
      </trkpt>
      <trkpt lat="47.23254" lon="-1.24438">
        <ele>136</ele>
        <time>2021-04-24T11:07:54.000Z</time>
      </trkpt>
      <trkpt lat="47.23266" lon="-1.24438">
        <ele>135</ele>
        <time>2021-04-24T11:07:56.000Z</time>
      </trkpt>
      <trkpt lat="47.23278" lon="-1.24439">
        <ele>135</ele>
        <time>2021-04-24T11:07:58.000Z</time>
      </trkpt>
      <trkpt lat="47.2329" lon="-1.24441">
        <ele>135</ele>
        <time>2021-04-24T11:08:00.000Z</time>
      </trkpt>
      <trkpt lat="47.23302" lon="-1.24442">
        <ele>135</ele>
        <time>2021-04-24T11:08:02.000Z</time>
      </trkpt>
      <trkpt lat="47.23314" lon="-1.24444">
        <ele>135</ele>
        <time>2021-04-24T11:08:04.000Z</time>
      </trkpt>
      <trkpt lat="47.23326" lon="-1.24446">
        <ele>135</ele>
        <time>2021-04-24T11:08:06.000Z</time>
      </trkpt>
      <trkpt lat="47.23338" lon="-1.24446">
        <ele>134</ele>
        <time>2021-04-24T11:08:08.000Z</time>
      </trkpt>
      <trkpt lat="47.2335" lon="-1.24447">
        <ele>134</ele>
        <time>2021-04-24T11:08:10.000Z</time>
      </trkpt>
      <trkpt lat="47.23363" lon="-1.24449">
        <ele>134</ele>
        <time>2021-04-24T11:08:12.000Z</time>
      </trkpt>
      <trkpt lat="47.23375" lon="-1.24451">
        <ele>134</ele>
        <time>2021-04-24T11:08:14.000Z</time>
      </trkpt>
      <trkpt lat="47.23387" lon="-1.24453">
        <ele>134</ele>
        <time>2021-04-24T11:08:16.000Z</time>
      </trkpt>
      <trkpt lat="47.234" lon="-1.24454">
        <ele>134</ele>
        <time>2021-04-24T11:08:18.000Z</time>
      </trkpt>
      <trkpt lat="47.23413" lon="-1.24454">
        <ele>133</ele>
        <time>2021-04-24T11:08:20.000Z</time>
      </trkpt>
      <trkpt lat="47.23426" lon="-1.24453">
        <ele>133</ele>
        <time>2021-04-24T11:08:22.000Z</time>
      </trkpt>
      <trkpt lat="47.23438" lon="-1.24451">
        <ele>133</ele>
        <time>2021-04-24T11:08:24.000Z</time>
      </trkpt>
      <trkpt lat="47.23451" lon="-1.24449">
        <ele>133</ele>
        <time>2021-04-24T11:08:26.000Z</time>
      </trkpt>
      <trkpt lat="47.23464" lon="-1.24446">
        <ele>132</ele>
        <time>2021-04-24T11:08:28.000Z</time>
      </trkpt>
      <trkpt lat="47.23477" lon="-1.24444">
        <ele>132</ele>
        <time>2021-04-24T11:08:30.000Z</time>
      </trkpt>
      <trkpt lat="47.23491" lon="-1.2444">
        <ele>131</ele>
        <time>2021-04-24T11:08:32.000Z</time>
      </trkpt>
      <trkpt lat="47.23504" lon="-1.24437">
        <ele>131</ele>
        <time>2021-04-24T11:08:34.000Z</time>
      </trkpt>
      <trkpt lat="47.23517" lon="-1.24434">
        <ele>131</ele>
        <time>2021-04-24T11:08:36.000Z</time>
      </trkpt>
      <trkpt lat="47.2353" lon="-1.24431">
        <ele>131</ele>
        <time>2021-04-24T11:08:38.000Z</time>
      </trkpt>
      <trkpt lat="47.23543" lon="-1.24428">
        <ele>130</ele>
        <time>2021-04-24T11:08:40.000Z</time>
      </trkpt>
      <trkpt lat="47.23555" lon="-1.24425">
        <ele>130</ele>
        <time>2021-04-24T11:08:42.000Z</time>
      </trkpt>
      <trkpt lat="47.23569" lon="-1.24421">
        <ele>129</ele>
        <time>2021-04-24T11:08:44.000Z</time>
      </trkpt>
      <trkpt lat="47.23582" lon="-1.24419">
        <ele>129</ele>
        <time>2021-04-24T11:08:46.000Z</time>
      </trkpt>
      <trkpt lat="47.23594" lon="-1.24415">
        <ele>129</ele>
        <time>2021-04-24T11:08:48.000Z</time>
      </trkpt>
      <trkpt lat="47.23608" lon="-1.24412">
        <ele>129</ele>
        <time>2021-04-24T11:08:50.000Z</time>
      </trkpt>
      <trkpt lat="47.23621" lon="-1.24409">
        <ele>128</ele>
        <time>2021-04-24T11:08:52.000Z</time>
      </trkpt>
      <trkpt lat="47.23634" lon="-1.24405">
        <ele>128</ele>
        <time>2021-04-24T11:08:54.000Z</time>
      </trkpt>
      <trkpt lat="47.23648" lon="-1.244">
        <ele>127</ele>
        <time>2021-04-24T11:08:56.000Z</time>
      </trkpt>
      <trkpt lat="47.23661" lon="-1.24394">
        <ele>127</ele>
        <time>2021-04-24T11:08:58.000Z</time>
      </trkpt>
      <trkpt lat="47.23674" lon="-1.24388">
        <ele>126</ele>
        <time>2021-04-24T11:09:00.000Z</time>
      </trkpt>
      <trkpt lat="47.23687" lon="-1.24382">
        <ele>126</ele>
        <time>2021-04-24T11:09:02.000Z</time>
      </trkpt>
      <trkpt lat="47.23699" lon="-1.24376">
        <ele>125</ele>
        <time>2021-04-24T11:09:04.000Z</time>
      </trkpt>
      <trkpt lat="47.23711" lon="-1.24371">
        <ele>125</ele>
        <time>2021-04-24T11:09:06.000Z</time>
      </trkpt>
      <trkpt lat="47.23722" lon="-1.24365">
        <ele>125</ele>
        <time>2021-04-24T11:09:08.000Z</time>
      </trkpt>
      <trkpt lat="47.23732" lon="-1.24359">
        <ele>125</ele>
        <time>2021-04-24T11:09:10.000Z</time>
      </trkpt>
      <trkpt lat="47.23743" lon="-1.24353">
        <ele>124</ele>
        <time>2021-04-24T11:09:12.000Z</time>
      </trkpt>
      <trkpt lat="47.23752" lon="-1.24345">
        <ele>123</ele>
        <time>2021-04-24T11:09:15.000Z</time>
      </trkpt>
      <trkpt lat="47.23763" lon="-1.24337">
        <ele>123</ele>
        <time>2021-04-24T11:09:18.000Z</time>
      </trkpt>
      <trkpt lat="47.23769" lon="-1.24352">
        <ele>124</ele>
        <time>2021-04-24T11:09:20.000Z</time>
      </trkpt>
      <trkpt lat="47.23771" lon="-1.2437">
        <ele>123</ele>
        <time>2021-04-24T11:09:22.000Z</time>
      </trkpt>
      <trkpt lat="47.23775" lon="-1.24389">
        <ele>123</ele>
        <time>2021-04-24T11:09:24.000Z</time>
      </trkpt>
      <trkpt lat="47.23779" lon="-1.24408">
        <ele>123</ele>
        <time>2021-04-24T11:09:26.000Z</time>
      </trkpt>
      <trkpt lat="47.23783" lon="-1.24427">
        <ele>123</ele>
        <time>2021-04-24T11:09:28.000Z</time>
      </trkpt>
      <trkpt lat="47.23787" lon="-1.24447">
        <ele>123</ele>
        <time>2021-04-24T11:09:30.000Z</time>
      </trkpt>
      <trkpt lat="47.23792" lon="-1.24468">
        <ele>123</ele>
        <time>2021-04-24T11:09:32.000Z</time>
      </trkpt>
      <trkpt lat="47.23803" lon="-1.24482">
        <ele>122</ele>
        <time>2021-04-24T11:09:34.000Z</time>
      </trkpt>
      <trkpt lat="47.23815" lon="-1.24493">
        <ele>121</ele>
        <time>2021-04-24T11:09:36.000Z</time>
      </trkpt>
      <trkpt lat="47.23828" lon="-1.24503">
        <ele>121</ele>
        <time>2021-04-24T11:09:38.000Z</time>
      </trkpt>
      <trkpt lat="47.23839" lon="-1.24515">
        <ele>121</ele>
        <time>2021-04-24T11:09:40.000Z</time>
      </trkpt>
      <trkpt lat="47.2385" lon="-1.24527">
        <ele>122</ele>
        <time>2021-04-24T11:09:42.000Z</time>
      </trkpt>
      <trkpt lat="47.2386" lon="-1.24542">
        <ele>122</ele>
        <time>2021-04-24T11:09:44.000Z</time>
      </trkpt>
      <trkpt lat="47.23867" lon="-1.24558">
        <ele>122</ele>
        <time>2021-04-24T11:09:46.000Z</time>
      </trkpt>
      <trkpt lat="47.23871" lon="-1.24576">
        <ele>122</ele>
        <time>2021-04-24T11:09:48.000Z</time>
      </trkpt>
      <trkpt lat="47.23875" lon="-1.24595">
        <ele>121</ele>
        <time>2021-04-24T11:09:50.000Z</time>
      </trkpt>
      <trkpt lat="47.23879" lon="-1.24614">
        <ele>121</ele>
        <time>2021-04-24T11:09:52.000Z</time>
      </trkpt>
      <trkpt lat="47.23883" lon="-1.24633">
        <ele>121</ele>
        <time>2021-04-24T11:09:54.000Z</time>
      </trkpt>
      <trkpt lat="47.23888" lon="-1.24651">
        <ele>121</ele>
        <time>2021-04-24T11:09:56.000Z</time>
      </trkpt>
      <trkpt lat="47.23893" lon="-1.2467">
        <ele>121</ele>
        <time>2021-04-24T11:09:58.000Z</time>
      </trkpt>
      <trkpt lat="47.23899" lon="-1.24688">
        <ele>122</ele>
        <time>2021-04-24T11:10:00.000Z</time>
      </trkpt>
      <trkpt lat="47.23906" lon="-1.24706">
        <ele>122</ele>
        <time>2021-04-24T11:10:02.000Z</time>
      </trkpt>
      <trkpt lat="47.23911" lon="-1.24723">
        <ele>122</ele>
        <time>2021-04-24T11:10:04.000Z</time>
      </trkpt>
      <trkpt lat="47.23917" lon="-1.24742">
        <ele>122</ele>
        <time>2021-04-24T11:10:06.000Z</time>
      </trkpt>
      <trkpt lat="47.23923" lon="-1.2476">
        <ele>121</ele>
        <time>2021-04-24T11:10:08.000Z</time>
      </trkpt>
      <trkpt lat="47.23929" lon="-1.24778">
        <ele>121</ele>
        <time>2021-04-24T11:10:10.000Z</time>
      </trkpt>
      <trkpt lat="47.23937" lon="-1.24795">
        <ele>120</ele>
        <time>2021-04-24T11:10:12.000Z</time>
      </trkpt>
      <trkpt lat="47.23945" lon="-1.24812">
        <ele>120</ele>
        <time>2021-04-24T11:10:14.000Z</time>
      </trkpt>
      <trkpt lat="47.23953" lon="-1.24828">
        <ele>120</ele>
        <time>2021-04-24T11:10:16.000Z</time>
      </trkpt>
      <trkpt lat="47.23963" lon="-1.24843">
        <ele>121</ele>
        <time>2021-04-24T11:10:18.000Z</time>
      </trkpt>
      <trkpt lat="47.23973" lon="-1.24856">
        <ele>121</ele>
        <time>2021-04-24T11:10:20.000Z</time>
      </trkpt>
      <trkpt lat="47.23984" lon="-1.24868">
        <ele>121</ele>
        <time>2021-04-24T11:10:22.000Z</time>
      </trkpt>
      <trkpt lat="47.23995" lon="-1.24879">
        <ele>121</ele>
        <time>2021-04-24T11:10:24.000Z</time>
      </trkpt>
      <trkpt lat="47.24007" lon="-1.24891">
        <ele>121</ele>
        <time>2021-04-24T11:10:26.000Z</time>
      </trkpt>
      <trkpt lat="47.24019" lon="-1.24902">
        <ele>121</ele>
        <time>2021-04-24T11:10:28.000Z</time>
      </trkpt>
      <trkpt lat="47.2403" lon="-1.24913">
        <ele>121</ele>
        <time>2021-04-24T11:10:30.000Z</time>
      </trkpt>
      <trkpt lat="47.24041" lon="-1.24924">
        <ele>121</ele>
        <time>2021-04-24T11:10:32.000Z</time>
      </trkpt>
      <trkpt lat="47.24052" lon="-1.24935">
        <ele>121</ele>
        <time>2021-04-24T11:10:34.000Z</time>
      </trkpt>
      <trkpt lat="47.24063" lon="-1.24946">
        <ele>121</ele>
        <time>2021-04-24T11:10:36.000Z</time>
      </trkpt>
      <trkpt lat="47.24075" lon="-1.24957">
        <ele>121</ele>
        <time>2021-04-24T11:10:38.000Z</time>
      </trkpt>
      <trkpt lat="47.24086" lon="-1.24967">
        <ele>121</ele>
        <time>2021-04-24T11:10:40.000Z</time>
      </trkpt>
      <trkpt lat="47.24097" lon="-1.24978">
        <ele>121</ele>
        <time>2021-04-24T11:10:42.000Z</time>
      </trkpt>
      <trkpt lat="47.24108" lon="-1.24988">
        <ele>121</ele>
        <time>2021-04-24T11:10:44.000Z</time>
      </trkpt>
      <trkpt lat="47.24119" lon="-1.24998">
        <ele>122</ele>
        <time>2021-04-24T11:10:46.000Z</time>
      </trkpt>
      <trkpt lat="47.2413" lon="-1.25009">
        <ele>122</ele>
        <time>2021-04-24T11:10:48.000Z</time>
      </trkpt>
      <trkpt lat="47.24141" lon="-1.2502">
        <ele>122</ele>
        <time>2021-04-24T11:10:50.000Z</time>
      </trkpt>
      <trkpt lat="47.24152" lon="-1.25031">
        <ele>122</ele>
        <time>2021-04-24T11:10:52.000Z</time>
      </trkpt>
      <trkpt lat="47.24164" lon="-1.25041">
        <ele>122</ele>
        <time>2021-04-24T11:10:54.000Z</time>
      </trkpt>
      <trkpt lat="47.24174" lon="-1.25052">
        <ele>123</ele>
        <time>2021-04-24T11:10:56.000Z</time>
      </trkpt>
      <trkpt lat="47.24186" lon="-1.25063">
        <ele>123</ele>
        <time>2021-04-24T11:10:58.000Z</time>
      </trkpt>
      <trkpt lat="47.24197" lon="-1.25074">
        <ele>123</ele>
        <time>2021-04-24T11:11:00.000Z</time>
      </trkpt>
      <trkpt lat="47.24209" lon="-1.25084">
        <ele>123</ele>
        <time>2021-04-24T11:11:02.000Z</time>
      </trkpt>
      <trkpt lat="47.2422" lon="-1.25095">
        <ele>122</ele>
        <time>2021-04-24T11:11:04.000Z</time>
      </trkpt>
      <trkpt lat="47.24231" lon="-1.25106">
        <ele>123</ele>
        <time>2021-04-24T11:11:06.000Z</time>
      </trkpt>
      <trkpt lat="47.24242" lon="-1.25117">
        <ele>123</ele>
        <time>2021-04-24T11:11:08.000Z</time>
      </trkpt>
      <trkpt lat="47.24253" lon="-1.25129">
        <ele>123</ele>
        <time>2021-04-24T11:11:10.000Z</time>
      </trkpt>
      <trkpt lat="47.24263" lon="-1.25142">
        <ele>124</ele>
        <time>2021-04-24T11:11:12.000Z</time>
      </trkpt>
      <trkpt lat="47.24272" lon="-1.25157">
        <ele>124</ele>
        <time>2021-04-24T11:11:14.000Z</time>
      </trkpt>
      <trkpt lat="47.24281" lon="-1.25174">
        <ele>124</ele>
        <time>2021-04-24T11:11:16.000Z</time>
      </trkpt>
      <trkpt lat="47.24288" lon="-1.2519">
        <ele>124</ele>
        <time>2021-04-24T11:11:18.000Z</time>
      </trkpt>
      <trkpt lat="47.24296" lon="-1.25217">
        <ele>125</ele>
        <time>2021-04-24T11:11:21.000Z</time>
      </trkpt>
      <trkpt lat="47.24302" lon="-1.25235">
        <ele>125</ele>
        <time>2021-04-24T11:11:23.000Z</time>
      </trkpt>
      <trkpt lat="47.24307" lon="-1.25254">
        <ele>125</ele>
        <time>2021-04-24T11:11:25.000Z</time>
      </trkpt>
      <trkpt lat="47.24312" lon="-1.25274">
        <ele>125</ele>
        <time>2021-04-24T11:11:27.000Z</time>
      </trkpt>
      <trkpt lat="47.24318" lon="-1.25294">
        <ele>124</ele>
        <time>2021-04-24T11:11:29.000Z</time>
      </trkpt>
      <trkpt lat="47.24326" lon="-1.25323">
        <ele>123</ele>
        <time>2021-04-24T11:11:32.000Z</time>
      </trkpt>
      <trkpt lat="47.24331" lon="-1.25343">
        <ele>123</ele>
        <time>2021-04-24T11:11:34.000Z</time>
      </trkpt>
      <trkpt lat="47.24336" lon="-1.25361">
        <ele>123</ele>
        <time>2021-04-24T11:11:36.000Z</time>
      </trkpt>
      <trkpt lat="47.24341" lon="-1.2538">
        <ele>123</ele>
        <time>2021-04-24T11:11:38.000Z</time>
      </trkpt>
      <trkpt lat="47.24346" lon="-1.25399">
        <ele>123</ele>
        <time>2021-04-24T11:11:40.000Z</time>
      </trkpt>
      <trkpt lat="47.24351" lon="-1.25417">
        <ele>122</ele>
        <time>2021-04-24T11:11:42.000Z</time>
      </trkpt>
      <trkpt lat="47.24356" lon="-1.25436">
        <ele>122</ele>
        <time>2021-04-24T11:11:44.000Z</time>
      </trkpt>
      <trkpt lat="47.24361" lon="-1.25454">
        <ele>122</ele>
        <time>2021-04-24T11:11:46.000Z</time>
      </trkpt>
      <trkpt lat="47.24367" lon="-1.25473">
        <ele>121</ele>
        <time>2021-04-24T11:11:48.000Z</time>
      </trkpt>
      <trkpt lat="47.24372" lon="-1.25492">
        <ele>121</ele>
        <time>2021-04-24T11:11:50.000Z</time>
      </trkpt>
      <trkpt lat="47.24377" lon="-1.25511">
        <ele>121</ele>
        <time>2021-04-24T11:11:52.000Z</time>
      </trkpt>
      <trkpt lat="47.24382" lon="-1.25529">
        <ele>122</ele>
        <time>2021-04-24T11:11:54.000Z</time>
      </trkpt>
      <trkpt lat="47.24387" lon="-1.25547">
        <ele>122</ele>
        <time>2021-04-24T11:11:56.000Z</time>
      </trkpt>
      <trkpt lat="47.24392" lon="-1.25566">
        <ele>122</ele>
        <time>2021-04-24T11:11:58.000Z</time>
      </trkpt>
      <trkpt lat="47.24398" lon="-1.25585">
        <ele>122</ele>
        <time>2021-04-24T11:12:00.000Z</time>
      </trkpt>
      <trkpt lat="47.24403" lon="-1.25604">
        <ele>122</ele>
        <time>2021-04-24T11:12:02.000Z</time>
      </trkpt>
      <trkpt lat="47.24407" lon="-1.25622">
        <ele>123</ele>
        <time>2021-04-24T11:12:04.000Z</time>
      </trkpt>
      <trkpt lat="47.24412" lon="-1.2564">
        <ele>123</ele>
        <time>2021-04-24T11:12:06.000Z</time>
      </trkpt>
      <trkpt lat="47.24417" lon="-1.25658">
        <ele>123</ele>
        <time>2021-04-24T11:12:08.000Z</time>
      </trkpt>
      <trkpt lat="47.24423" lon="-1.25676">
        <ele>123</ele>
        <time>2021-04-24T11:12:10.000Z</time>
      </trkpt>
      <trkpt lat="47.24428" lon="-1.25695">
        <ele>123</ele>
        <time>2021-04-24T11:12:12.000Z</time>
      </trkpt>
      <trkpt lat="47.24434" lon="-1.25713">
        <ele>123</ele>
        <time>2021-04-24T11:12:14.000Z</time>
      </trkpt>
      <trkpt lat="47.24441" lon="-1.25731">
        <ele>122</ele>
        <time>2021-04-24T11:12:16.000Z</time>
      </trkpt>
      <trkpt lat="47.24453" lon="-1.25756">
        <ele>122</ele>
        <time>2021-04-24T11:12:19.000Z</time>
      </trkpt>
      <trkpt lat="47.24462" lon="-1.25773">
        <ele>122</ele>
        <time>2021-04-24T11:12:21.000Z</time>
      </trkpt>
      <trkpt lat="47.24471" lon="-1.2579">
        <ele>121</ele>
        <time>2021-04-24T11:12:23.000Z</time>
      </trkpt>
      <trkpt lat="47.2448" lon="-1.25808">
        <ele>121</ele>
        <time>2021-04-24T11:12:25.000Z</time>
      </trkpt>
      <trkpt lat="47.2449" lon="-1.25825">
        <ele>121</ele>
        <time>2021-04-24T11:12:27.000Z</time>
      </trkpt>
      <trkpt lat="47.245" lon="-1.25844">
        <ele>121</ele>
        <time>2021-04-24T11:12:29.000Z</time>
      </trkpt>
      <trkpt lat="47.24509" lon="-1.25861">
        <ele>121</ele>
        <time>2021-04-24T11:12:31.000Z</time>
      </trkpt>
      <trkpt lat="47.24517" lon="-1.25877">
        <ele>120</ele>
        <time>2021-04-24T11:12:33.000Z</time>
      </trkpt>
      <trkpt lat="47.24524" lon="-1.25891">
        <ele>119</ele>
        <time>2021-04-24T11:12:35.000Z</time>
      </trkpt>
      <trkpt lat="47.24534" lon="-1.25896">
        <ele>119</ele>
        <time>2021-04-24T11:12:38.000Z</time>
      </trkpt>
      <trkpt lat="47.24532" lon="-1.25911">
        <ele>119</ele>
        <time>2021-04-24T11:14:15.000Z</time>
      </trkpt>
      <trkpt lat="47.24536" lon="-1.25924">
        <ele>119</ele>
        <time>2021-04-24T11:14:17.000Z</time>
      </trkpt>
      <trkpt lat="47.2454" lon="-1.25938">
        <ele>119</ele>
        <time>2021-04-24T11:14:19.000Z</time>
      </trkpt>
      <trkpt lat="47.24546" lon="-1.25953">
        <ele>118</ele>
        <time>2021-04-24T11:14:21.000Z</time>
      </trkpt>
      <trkpt lat="47.24551" lon="-1.2597">
        <ele>117</ele>
        <time>2021-04-24T11:14:23.000Z</time>
      </trkpt>
      <trkpt lat="47.24557" lon="-1.25988">
        <ele>116</ele>
        <time>2021-04-24T11:14:25.000Z</time>
      </trkpt>
      <trkpt lat="47.24564" lon="-1.26007">
        <ele>116</ele>
        <time>2021-04-24T11:14:27.000Z</time>
      </trkpt>
      <trkpt lat="47.2457" lon="-1.26026">
        <ele>115</ele>
        <time>2021-04-24T11:14:29.000Z</time>
      </trkpt>
      <trkpt lat="47.24576" lon="-1.26046">
        <ele>114</ele>
        <time>2021-04-24T11:14:31.000Z</time>
      </trkpt>
      <trkpt lat="47.24584" lon="-1.26067">
        <ele>113</ele>
        <time>2021-04-24T11:14:33.000Z</time>
      </trkpt>
      <trkpt lat="47.24594" lon="-1.26085">
        <ele>113</ele>
        <time>2021-04-24T11:14:35.000Z</time>
      </trkpt>
      <trkpt lat="47.24607" lon="-1.26101">
        <ele>112</ele>
        <time>2021-04-24T11:14:37.000Z</time>
      </trkpt>
      <trkpt lat="47.24622" lon="-1.26114">
        <ele>111</ele>
        <time>2021-04-24T11:14:39.000Z</time>
      </trkpt>
      <trkpt lat="47.24637" lon="-1.26127">
        <ele>111</ele>
        <time>2021-04-24T11:14:41.000Z</time>
      </trkpt>
      <trkpt lat="47.2465" lon="-1.26143">
        <ele>110</ele>
        <time>2021-04-24T11:14:43.000Z</time>
      </trkpt>
      <trkpt lat="47.24661" lon="-1.26163">
        <ele>109</ele>
        <time>2021-04-24T11:14:45.000Z</time>
      </trkpt>
      <trkpt lat="47.24667" lon="-1.26188">
        <ele>107</ele>
        <time>2021-04-24T11:14:47.000Z</time>
      </trkpt>
      <trkpt lat="47.2467" lon="-1.26201">
        <ele>107</ele>
        <time>2021-04-24T11:14:48.000Z</time>
      </trkpt>
      <trkpt lat="47.24673" lon="-1.26214">
        <ele>106</ele>
        <time>2021-04-24T11:14:49.000Z</time>
      </trkpt>
      <trkpt lat="47.24676" lon="-1.26228">
        <ele>106</ele>
        <time>2021-04-24T11:14:50.000Z</time>
      </trkpt>
      <trkpt lat="47.24678" lon="-1.26241">
        <ele>106</ele>
        <time>2021-04-24T11:14:51.000Z</time>
      </trkpt>
      <trkpt lat="47.24681" lon="-1.26254">
        <ele>106</ele>
        <time>2021-04-24T11:14:52.000Z</time>
      </trkpt>
      <trkpt lat="47.24684" lon="-1.26268">
        <ele>105</ele>
        <time>2021-04-24T11:14:53.000Z</time>
      </trkpt>
      <trkpt lat="47.24687" lon="-1.26281">
        <ele>105</ele>
        <time>2021-04-24T11:14:54.000Z</time>
      </trkpt>
      <trkpt lat="47.24689" lon="-1.26293">
        <ele>105</ele>
        <time>2021-04-24T11:14:55.000Z</time>
      </trkpt>
      <trkpt lat="47.24692" lon="-1.26307">
        <ele>104</ele>
        <time>2021-04-24T11:14:56.000Z</time>
      </trkpt>
      <trkpt lat="47.24695" lon="-1.2632">
        <ele>104</ele>
        <time>2021-04-24T11:14:57.000Z</time>
      </trkpt>
      <trkpt lat="47.24698" lon="-1.26333">
        <ele>104</ele>
        <time>2021-04-24T11:14:58.000Z</time>
      </trkpt>
      <trkpt lat="47.247" lon="-1.26346">
        <ele>104</ele>
        <time>2021-04-24T11:14:59.000Z</time>
      </trkpt>
      <trkpt lat="47.24704" lon="-1.2637">
        <ele>104</ele>
        <time>2021-04-24T11:15:01.000Z</time>
      </trkpt>
      <trkpt lat="47.24707" lon="-1.26393">
        <ele>104</ele>
        <time>2021-04-24T11:15:03.000Z</time>
      </trkpt>
      <trkpt lat="47.24708" lon="-1.26415">
        <ele>104</ele>
        <time>2021-04-24T11:15:05.000Z</time>
      </trkpt>
      <trkpt lat="47.24707" lon="-1.26437">
        <ele>106</ele>
        <time>2021-04-24T11:15:07.000Z</time>
      </trkpt>
      <trkpt lat="47.24706" lon="-1.26457">
        <ele>107</ele>
        <time>2021-04-24T11:15:09.000Z</time>
      </trkpt>
      <trkpt lat="47.24705" lon="-1.26477">
        <ele>107</ele>
        <time>2021-04-24T11:15:11.000Z</time>
      </trkpt>
      <trkpt lat="47.24703" lon="-1.26498">
        <ele>107</ele>
        <time>2021-04-24T11:15:13.000Z</time>
      </trkpt>
      <trkpt lat="47.24701" lon="-1.26518">
        <ele>107</ele>
        <time>2021-04-24T11:15:15.000Z</time>
      </trkpt>
      <trkpt lat="47.24699" lon="-1.26537">
        <ele>108</ele>
        <time>2021-04-24T11:15:17.000Z</time>
      </trkpt>
      <trkpt lat="47.24697" lon="-1.26556">
        <ele>109</ele>
        <time>2021-04-24T11:15:19.000Z</time>
      </trkpt>
      <trkpt lat="47.24696" lon="-1.26577">
        <ele>109</ele>
        <time>2021-04-24T11:15:21.000Z</time>
      </trkpt>
      <trkpt lat="47.24695" lon="-1.26597">
        <ele>109</ele>
        <time>2021-04-24T11:15:23.000Z</time>
      </trkpt>
      <trkpt lat="47.24696" lon="-1.26615">
        <ele>110</ele>
        <time>2021-04-24T11:15:25.000Z</time>
      </trkpt>
      <trkpt lat="47.247" lon="-1.26633">
        <ele>110</ele>
        <time>2021-04-24T11:15:27.000Z</time>
      </trkpt>
      <trkpt lat="47.24705" lon="-1.26649">
        <ele>110</ele>
        <time>2021-04-24T11:15:29.000Z</time>
      </trkpt>
      <trkpt lat="47.24711" lon="-1.26664">
        <ele>111</ele>
        <time>2021-04-24T11:15:31.000Z</time>
      </trkpt>
      <trkpt lat="47.2472" lon="-1.26677">
        <ele>111</ele>
        <time>2021-04-24T11:15:33.000Z</time>
      </trkpt>
      <trkpt lat="47.24728" lon="-1.26688">
        <ele>111</ele>
        <time>2021-04-24T11:15:35.000Z</time>
      </trkpt>
      <trkpt lat="47.24736" lon="-1.267">
        <ele>112</ele>
        <time>2021-04-24T11:15:37.000Z</time>
      </trkpt>
      <trkpt lat="47.24744" lon="-1.26711">
        <ele>112</ele>
        <time>2021-04-24T11:15:39.000Z</time>
      </trkpt>
      <trkpt lat="47.24752" lon="-1.26721">
        <ele>112</ele>
        <time>2021-04-24T11:15:41.000Z</time>
      </trkpt>
      <trkpt lat="47.24759" lon="-1.26731">
        <ele>113</ele>
        <time>2021-04-24T11:15:43.000Z</time>
      </trkpt>
      <trkpt lat="47.24767" lon="-1.26742">
        <ele>113</ele>
        <time>2021-04-24T11:15:45.000Z</time>
      </trkpt>
      <trkpt lat="47.24775" lon="-1.26753">
        <ele>113</ele>
        <time>2021-04-24T11:15:47.000Z</time>
      </trkpt>
      <trkpt lat="47.24783" lon="-1.26763">
        <ele>114</ele>
        <time>2021-04-24T11:15:49.000Z</time>
      </trkpt>
      <trkpt lat="47.24791" lon="-1.26774">
        <ele>114</ele>
        <time>2021-04-24T11:15:51.000Z</time>
      </trkpt>
      <trkpt lat="47.24798" lon="-1.26785">
        <ele>115</ele>
        <time>2021-04-24T11:15:53.000Z</time>
      </trkpt>
      <trkpt lat="47.24806" lon="-1.26795">
        <ele>115</ele>
        <time>2021-04-24T11:15:55.000Z</time>
      </trkpt>
      <trkpt lat="47.24813" lon="-1.26806">
        <ele>115</ele>
        <time>2021-04-24T11:15:57.000Z</time>
      </trkpt>
      <trkpt lat="47.2482" lon="-1.26816">
        <ele>115</ele>
        <time>2021-04-24T11:15:59.000Z</time>
      </trkpt>
      <trkpt lat="47.24827" lon="-1.26826">
        <ele>115</ele>
        <time>2021-04-24T11:16:01.000Z</time>
      </trkpt>
      <trkpt lat="47.24834" lon="-1.26835">
        <ele>116</ele>
        <time>2021-04-24T11:16:03.000Z</time>
      </trkpt>
      <trkpt lat="47.24841" lon="-1.26845">
        <ele>117</ele>
        <time>2021-04-24T11:16:05.000Z</time>
      </trkpt>
      <trkpt lat="47.24847" lon="-1.26854">
        <ele>117</ele>
        <time>2021-04-24T11:16:07.000Z</time>
      </trkpt>
      <trkpt lat="47.24854" lon="-1.26863">
        <ele>118</ele>
        <time>2021-04-24T11:16:09.000Z</time>
      </trkpt>
      <trkpt lat="47.24861" lon="-1.26873">
        <ele>118</ele>
        <time>2021-04-24T11:16:11.000Z</time>
      </trkpt>
      <trkpt lat="47.24868" lon="-1.26883">
        <ele>118</ele>
        <time>2021-04-24T11:16:13.000Z</time>
      </trkpt>
      <trkpt lat="47.24875" lon="-1.26892">
        <ele>119</ele>
        <time>2021-04-24T11:16:15.000Z</time>
      </trkpt>
      <trkpt lat="47.24882" lon="-1.26902">
        <ele>119</ele>
        <time>2021-04-24T11:16:17.000Z</time>
      </trkpt>
      <trkpt lat="47.2489" lon="-1.2691">
        <ele>119</ele>
        <time>2021-04-24T11:16:19.000Z</time>
      </trkpt>
      <trkpt lat="47.24898" lon="-1.26917">
        <ele>119</ele>
        <time>2021-04-24T11:16:21.000Z</time>
      </trkpt>
      <trkpt lat="47.24906" lon="-1.26923">
        <ele>120</ele>
        <time>2021-04-24T11:16:23.000Z</time>
      </trkpt>
      <trkpt lat="47.24915" lon="-1.26929">
        <ele>120</ele>
        <time>2021-04-24T11:16:25.000Z</time>
      </trkpt>
      <trkpt lat="47.24923" lon="-1.26934">
        <ele>120</ele>
        <time>2021-04-24T11:16:27.000Z</time>
      </trkpt>
      <trkpt lat="47.24935" lon="-1.26942">
        <ele>121</ele>
        <time>2021-04-24T11:16:30.000Z</time>
      </trkpt>
      <trkpt lat="47.24944" lon="-1.26948">
        <ele>121</ele>
        <time>2021-04-24T11:16:32.000Z</time>
      </trkpt>
      <trkpt lat="47.24953" lon="-1.26954">
        <ele>121</ele>
        <time>2021-04-24T11:16:34.000Z</time>
      </trkpt>
      <trkpt lat="47.24961" lon="-1.26961">
        <ele>122</ele>
        <time>2021-04-24T11:16:36.000Z</time>
      </trkpt>
      <trkpt lat="47.24972" lon="-1.26971">
        <ele>122</ele>
        <time>2021-04-24T11:16:39.000Z</time>
      </trkpt>
      <trkpt lat="47.24979" lon="-1.2698">
        <ele>123</ele>
        <time>2021-04-24T11:16:41.000Z</time>
      </trkpt>
      <trkpt lat="47.24986" lon="-1.26988">
        <ele>123</ele>
        <time>2021-04-24T11:16:43.000Z</time>
      </trkpt>
      <trkpt lat="47.24996" lon="-1.27003">
        <ele>123</ele>
        <time>2021-04-24T11:16:46.000Z</time>
      </trkpt>
      <trkpt lat="47.25002" lon="-1.27013">
        <ele>123</ele>
        <time>2021-04-24T11:16:48.000Z</time>
      </trkpt>
      <trkpt lat="47.25011" lon="-1.27028">
        <ele>123</ele>
        <time>2021-04-24T11:16:51.000Z</time>
      </trkpt>
      <trkpt lat="47.25017" lon="-1.27038">
        <ele>124</ele>
        <time>2021-04-24T11:16:53.000Z</time>
      </trkpt>
      <trkpt lat="47.25023" lon="-1.27048">
        <ele>124</ele>
        <time>2021-04-24T11:16:55.000Z</time>
      </trkpt>
      <trkpt lat="47.25029" lon="-1.27059">
        <ele>125</ele>
        <time>2021-04-24T11:16:57.000Z</time>
      </trkpt>
      <trkpt lat="47.25035" lon="-1.27069">
        <ele>125</ele>
        <time>2021-04-24T11:16:59.000Z</time>
      </trkpt>
      <trkpt lat="47.25042" lon="-1.2708">
        <ele>125</ele>
        <time>2021-04-24T11:17:01.000Z</time>
      </trkpt>
      <trkpt lat="47.25048" lon="-1.2709">
        <ele>125</ele>
        <time>2021-04-24T11:17:03.000Z</time>
      </trkpt>
      <trkpt lat="47.25054" lon="-1.27101">
        <ele>125</ele>
        <time>2021-04-24T11:17:05.000Z</time>
      </trkpt>
      <trkpt lat="47.25061" lon="-1.27112">
        <ele>125</ele>
        <time>2021-04-24T11:17:07.000Z</time>
      </trkpt>
      <trkpt lat="47.25068" lon="-1.27123">
        <ele>125</ele>
        <time>2021-04-24T11:17:09.000Z</time>
      </trkpt>
      <trkpt lat="47.25075" lon="-1.27135">
        <ele>125</ele>
        <time>2021-04-24T11:17:11.000Z</time>
      </trkpt>
      <trkpt lat="47.25082" lon="-1.27147">
        <ele>125</ele>
        <time>2021-04-24T11:17:13.000Z</time>
      </trkpt>
      <trkpt lat="47.25089" lon="-1.2716">
        <ele>125</ele>
        <time>2021-04-24T11:17:15.000Z</time>
      </trkpt>
      <trkpt lat="47.25097" lon="-1.27173">
        <ele>124</ele>
        <time>2021-04-24T11:17:17.000Z</time>
      </trkpt>
      <trkpt lat="47.25104" lon="-1.27186">
        <ele>124</ele>
        <time>2021-04-24T11:17:19.000Z</time>
      </trkpt>
      <trkpt lat="47.25112" lon="-1.27198">
        <ele>124</ele>
        <time>2021-04-24T11:17:21.000Z</time>
      </trkpt>
      <trkpt lat="47.25119" lon="-1.27211">
        <ele>124</ele>
        <time>2021-04-24T11:17:23.000Z</time>
      </trkpt>
      <trkpt lat="47.25127" lon="-1.27225">
        <ele>123</ele>
        <time>2021-04-24T11:17:25.000Z</time>
      </trkpt>
      <trkpt lat="47.25135" lon="-1.27239">
        <ele>123</ele>
        <time>2021-04-24T11:17:27.000Z</time>
      </trkpt>
      <trkpt lat="47.25144" lon="-1.27253">
        <ele>123</ele>
        <time>2021-04-24T11:17:29.000Z</time>
      </trkpt>
      <trkpt lat="47.25153" lon="-1.27267">
        <ele>123</ele>
        <time>2021-04-24T11:17:31.000Z</time>
      </trkpt>
      <trkpt lat="47.25161" lon="-1.27281">
        <ele>123</ele>
        <time>2021-04-24T11:17:33.000Z</time>
      </trkpt>
      <trkpt lat="47.25169" lon="-1.27295">
        <ele>123</ele>
        <time>2021-04-24T11:17:35.000Z</time>
      </trkpt>
      <trkpt lat="47.25177" lon="-1.27309">
        <ele>123</ele>
        <time>2021-04-24T11:17:37.000Z</time>
      </trkpt>
      <trkpt lat="47.25185" lon="-1.27322">
        <ele>124</ele>
        <time>2021-04-24T11:17:39.000Z</time>
      </trkpt>
      <trkpt lat="47.25192" lon="-1.27335">
        <ele>124</ele>
        <time>2021-04-24T11:17:41.000Z</time>
      </trkpt>
      <trkpt lat="47.25199" lon="-1.27346">
        <ele>124</ele>
        <time>2021-04-24T11:17:43.000Z</time>
      </trkpt>
      <trkpt lat="47.25206" lon="-1.27359">
        <ele>125</ele>
        <time>2021-04-24T11:17:45.000Z</time>
      </trkpt>
      <trkpt lat="47.25214" lon="-1.27372">
        <ele>125</ele>
        <time>2021-04-24T11:17:47.000Z</time>
      </trkpt>
      <trkpt lat="47.25221" lon="-1.27385">
        <ele>125</ele>
        <time>2021-04-24T11:17:49.000Z</time>
      </trkpt>
      <trkpt lat="47.25229" lon="-1.27398">
        <ele>126</ele>
        <time>2021-04-24T11:17:51.000Z</time>
      </trkpt>
      <trkpt lat="47.25237" lon="-1.27411">
        <ele>126</ele>
        <time>2021-04-24T11:17:53.000Z</time>
      </trkpt>
      <trkpt lat="47.25244" lon="-1.27424">
        <ele>127</ele>
        <time>2021-04-24T11:17:55.000Z</time>
      </trkpt>
      <trkpt lat="47.25253" lon="-1.27437">
        <ele>128</ele>
        <time>2021-04-24T11:17:57.000Z</time>
      </trkpt>
      <trkpt lat="47.2526" lon="-1.2745">
        <ele>128</ele>
        <time>2021-04-24T11:17:59.000Z</time>
      </trkpt>
      <trkpt lat="47.25268" lon="-1.27463">
        <ele>128</ele>
        <time>2021-04-24T11:18:01.000Z</time>
      </trkpt>
      <trkpt lat="47.25275" lon="-1.27475">
        <ele>128</ele>
        <time>2021-04-24T11:18:03.000Z</time>
      </trkpt>
      <trkpt lat="47.25282" lon="-1.27487">
        <ele>129</ele>
        <time>2021-04-24T11:18:05.000Z</time>
      </trkpt>
      <trkpt lat="47.25289" lon="-1.27499">
        <ele>129</ele>
        <time>2021-04-24T11:18:07.000Z</time>
      </trkpt>
      <trkpt lat="47.25296" lon="-1.27511">
        <ele>129</ele>
        <time>2021-04-24T11:18:09.000Z</time>
      </trkpt>
      <trkpt lat="47.25303" lon="-1.27523">
        <ele>129</ele>
        <time>2021-04-24T11:18:11.000Z</time>
      </trkpt>
      <trkpt lat="47.2531" lon="-1.27536">
        <ele>130</ele>
        <time>2021-04-24T11:18:13.000Z</time>
      </trkpt>
      <trkpt lat="47.25317" lon="-1.27548">
        <ele>130</ele>
        <time>2021-04-24T11:18:15.000Z</time>
      </trkpt>
      <trkpt lat="47.25324" lon="-1.2756">
        <ele>130</ele>
        <time>2021-04-24T11:18:17.000Z</time>
      </trkpt>
      <trkpt lat="47.25331" lon="-1.27572">
        <ele>130</ele>
        <time>2021-04-24T11:18:19.000Z</time>
      </trkpt>
      <trkpt lat="47.25338" lon="-1.27583">
        <ele>130</ele>
        <time>2021-04-24T11:18:21.000Z</time>
      </trkpt>
      <trkpt lat="47.25345" lon="-1.27595">
        <ele>130</ele>
        <time>2021-04-24T11:18:23.000Z</time>
      </trkpt>
      <trkpt lat="47.25353" lon="-1.27608">
        <ele>130</ele>
        <time>2021-04-24T11:18:25.000Z</time>
      </trkpt>
      <trkpt lat="47.2536" lon="-1.27619">
        <ele>131</ele>
        <time>2021-04-24T11:18:27.000Z</time>
      </trkpt>
      <trkpt lat="47.25367" lon="-1.2763">
        <ele>131</ele>
        <time>2021-04-24T11:18:29.000Z</time>
      </trkpt>
      <trkpt lat="47.25373" lon="-1.27641">
        <ele>131</ele>
        <time>2021-04-24T11:18:31.000Z</time>
      </trkpt>
      <trkpt lat="47.25381" lon="-1.27654">
        <ele>131</ele>
        <time>2021-04-24T11:18:34.000Z</time>
      </trkpt>
      <trkpt lat="47.25389" lon="-1.27663">
        <ele>131</ele>
        <time>2021-04-24T11:18:37.000Z</time>
      </trkpt>
      <trkpt lat="47.25396" lon="-1.27676">
        <ele>132</ele>
        <time>2021-04-24T11:18:40.000Z</time>
      </trkpt>
      <trkpt lat="47.254" lon="-1.2769">
        <ele>132</ele>
        <time>2021-04-24T11:18:42.000Z</time>
      </trkpt>
      <trkpt lat="47.25406" lon="-1.27706">
        <ele>132</ele>
        <time>2021-04-24T11:18:44.000Z</time>
      </trkpt>
      <trkpt lat="47.25412" lon="-1.2772">
        <ele>132</ele>
        <time>2021-04-24T11:18:46.000Z</time>
      </trkpt>
      <trkpt lat="47.25418" lon="-1.27734">
        <ele>132</ele>
        <time>2021-04-24T11:18:48.000Z</time>
      </trkpt>
      <trkpt lat="47.25425" lon="-1.27747">
        <ele>132</ele>
        <time>2021-04-24T11:18:50.000Z</time>
      </trkpt>
      <trkpt lat="47.25432" lon="-1.27761">
        <ele>132</ele>
        <time>2021-04-24T11:18:52.000Z</time>
      </trkpt>
      <trkpt lat="47.25438" lon="-1.27775">
        <ele>132</ele>
        <time>2021-04-24T11:18:54.000Z</time>
      </trkpt>
      <trkpt lat="47.25444" lon="-1.2779">
        <ele>131</ele>
        <time>2021-04-24T11:18:56.000Z</time>
      </trkpt>
      <trkpt lat="47.25449" lon="-1.27805">
        <ele>131</ele>
        <time>2021-04-24T11:18:58.000Z</time>
      </trkpt>
      <trkpt lat="47.25454" lon="-1.2782">
        <ele>131</ele>
        <time>2021-04-24T11:19:00.000Z</time>
      </trkpt>
      <trkpt lat="47.25459" lon="-1.27837">
        <ele>132</ele>
        <time>2021-04-24T11:19:02.000Z</time>
      </trkpt>
      <trkpt lat="47.25464" lon="-1.27854">
        <ele>132</ele>
        <time>2021-04-24T11:19:04.000Z</time>
      </trkpt>
      <trkpt lat="47.25466" lon="-1.27869">
        <ele>132</ele>
        <time>2021-04-24T11:19:06.000Z</time>
      </trkpt>
      <trkpt lat="47.25468" lon="-1.27885">
        <ele>133</ele>
        <time>2021-04-24T11:19:08.000Z</time>
      </trkpt>
      <trkpt lat="47.2547" lon="-1.27902">
        <ele>133</ele>
        <time>2021-04-24T11:19:10.000Z</time>
      </trkpt>
      <trkpt lat="47.25471" lon="-1.27918">
        <ele>133</ele>
        <time>2021-04-24T11:19:12.000Z</time>
      </trkpt>
      <trkpt lat="47.25471" lon="-1.27935">
        <ele>133</ele>
        <time>2021-04-24T11:19:14.000Z</time>
      </trkpt>
      <trkpt lat="47.25472" lon="-1.27952">
        <ele>133</ele>
        <time>2021-04-24T11:19:16.000Z</time>
      </trkpt>
      <trkpt lat="47.25472" lon="-1.27971">
        <ele>133</ele>
        <time>2021-04-24T11:19:18.000Z</time>
      </trkpt>
      <trkpt lat="47.25472" lon="-1.27988">
        <ele>134</ele>
        <time>2021-04-24T11:19:20.000Z</time>
      </trkpt>
      <trkpt lat="47.25473" lon="-1.28007">
        <ele>134</ele>
        <time>2021-04-24T11:19:22.000Z</time>
      </trkpt>
      <trkpt lat="47.25473" lon="-1.28024">
        <ele>134</ele>
        <time>2021-04-24T11:19:24.000Z</time>
      </trkpt>
      <trkpt lat="47.25474" lon="-1.28042">
        <ele>133</ele>
        <time>2021-04-24T11:19:26.000Z</time>
      </trkpt>
      <trkpt lat="47.25474" lon="-1.28062">
        <ele>133</ele>
        <time>2021-04-24T11:19:28.000Z</time>
      </trkpt>
      <trkpt lat="47.25474" lon="-1.28079">
        <ele>132</ele>
        <time>2021-04-24T11:19:30.000Z</time>
      </trkpt>
      <trkpt lat="47.25474" lon="-1.28098">
        <ele>132</ele>
        <time>2021-04-24T11:19:32.000Z</time>
      </trkpt>
      <trkpt lat="47.25474" lon="-1.28117">
        <ele>132</ele>
        <time>2021-04-24T11:19:34.000Z</time>
      </trkpt>
      <trkpt lat="47.25474" lon="-1.28137">
        <ele>131</ele>
        <time>2021-04-24T11:19:36.000Z</time>
      </trkpt>
      <trkpt lat="47.25475" lon="-1.28156">
        <ele>131</ele>
        <time>2021-04-24T11:19:38.000Z</time>
      </trkpt>
      <trkpt lat="47.25475" lon="-1.28176">
        <ele>131</ele>
        <time>2021-04-24T11:19:40.000Z</time>
      </trkpt>
      <trkpt lat="47.25476" lon="-1.28196">
        <ele>131</ele>
        <time>2021-04-24T11:19:42.000Z</time>
      </trkpt>
      <trkpt lat="47.25476" lon="-1.28216">
        <ele>130</ele>
        <time>2021-04-24T11:19:44.000Z</time>
      </trkpt>
      <trkpt lat="47.25477" lon="-1.28237">
        <ele>130</ele>
        <time>2021-04-24T11:19:46.000Z</time>
      </trkpt>
      <trkpt lat="47.25477" lon="-1.28258">
        <ele>130</ele>
        <time>2021-04-24T11:19:48.000Z</time>
      </trkpt>
      <trkpt lat="47.25477" lon="-1.2828">
        <ele>130</ele>
        <time>2021-04-24T11:19:50.000Z</time>
      </trkpt>
      <trkpt lat="47.25478" lon="-1.28302">
        <ele>129</ele>
        <time>2021-04-24T11:19:52.000Z</time>
      </trkpt>
      <trkpt lat="47.25479" lon="-1.28324">
        <ele>129</ele>
        <time>2021-04-24T11:19:54.000Z</time>
      </trkpt>
      <trkpt lat="47.25479" lon="-1.28345">
        <ele>128</ele>
        <time>2021-04-24T11:19:56.000Z</time>
      </trkpt>
      <trkpt lat="47.2548" lon="-1.28367">
        <ele>128</ele>
        <time>2021-04-24T11:19:58.000Z</time>
      </trkpt>
      <trkpt lat="47.2548" lon="-1.28389">
        <ele>128</ele>
        <time>2021-04-24T11:20:00.000Z</time>
      </trkpt>
      <trkpt lat="47.25481" lon="-1.2841">
        <ele>127</ele>
        <time>2021-04-24T11:20:02.000Z</time>
      </trkpt>
      <trkpt lat="47.25481" lon="-1.28431">
        <ele>127</ele>
        <time>2021-04-24T11:20:04.000Z</time>
      </trkpt>
      <trkpt lat="47.25481" lon="-1.28452">
        <ele>127</ele>
        <time>2021-04-24T11:20:06.000Z</time>
      </trkpt>
      <trkpt lat="47.25483" lon="-1.28472">
        <ele>127</ele>
        <time>2021-04-24T11:20:08.000Z</time>
      </trkpt>
      <trkpt lat="47.25482" lon="-1.28488">
        <ele>127</ele>
        <time>2021-04-24T11:20:10.000Z</time>
      </trkpt>
      <trkpt lat="47.25478" lon="-1.28502">
        <ele>127</ele>
        <time>2021-04-24T11:20:13.000Z</time>
      </trkpt>
      <trkpt lat="47.25475" lon="-1.28516">
        <ele>127</ele>
        <time>2021-04-24T11:20:17.000Z</time>
      </trkpt>
      <trkpt lat="47.25479" lon="-1.28501">
        <ele>127</ele>
        <time>2021-04-24T11:21:14.000Z</time>
      </trkpt>
      <trkpt lat="47.25491" lon="-1.28509">
        <ele>127</ele>
        <time>2021-04-24T11:21:18.000Z</time>
      </trkpt>
      <trkpt lat="47.25495" lon="-1.28523">
        <ele>127</ele>
        <time>2021-04-24T11:21:20.000Z</time>
      </trkpt>
      <trkpt lat="47.25499" lon="-1.28538">
        <ele>127</ele>
        <time>2021-04-24T11:21:22.000Z</time>
      </trkpt>
      <trkpt lat="47.25504" lon="-1.28554">
        <ele>128</ele>
        <time>2021-04-24T11:21:24.000Z</time>
      </trkpt>
      <trkpt lat="47.25511" lon="-1.28572">
        <ele>127</ele>
        <time>2021-04-24T11:21:26.000Z</time>
      </trkpt>
      <trkpt lat="47.25519" lon="-1.28589">
        <ele>126</ele>
        <time>2021-04-24T11:21:28.000Z</time>
      </trkpt>
      <trkpt lat="47.25528" lon="-1.28605">
        <ele>126</ele>
        <time>2021-04-24T11:21:30.000Z</time>
      </trkpt>
      <trkpt lat="47.25538" lon="-1.2862">
        <ele>126</ele>
        <time>2021-04-24T11:21:32.000Z</time>
      </trkpt>
      <trkpt lat="47.25547" lon="-1.28635">
        <ele>125</ele>
        <time>2021-04-24T11:21:34.000Z</time>
      </trkpt>
      <trkpt lat="47.25557" lon="-1.2865">
        <ele>125</ele>
        <time>2021-04-24T11:21:36.000Z</time>
      </trkpt>
      <trkpt lat="47.25568" lon="-1.28665">
        <ele>124</ele>
        <time>2021-04-24T11:21:38.000Z</time>
      </trkpt>
      <trkpt lat="47.25578" lon="-1.2868">
        <ele>124</ele>
        <time>2021-04-24T11:21:40.000Z</time>
      </trkpt>
      <trkpt lat="47.25589" lon="-1.28695">
        <ele>123</ele>
        <time>2021-04-24T11:21:42.000Z</time>
      </trkpt>
      <trkpt lat="47.25599" lon="-1.2871">
        <ele>123</ele>
        <time>2021-04-24T11:21:44.000Z</time>
      </trkpt>
      <trkpt lat="47.2561" lon="-1.28725">
        <ele>123</ele>
        <time>2021-04-24T11:21:46.000Z</time>
      </trkpt>
      <trkpt lat="47.2562" lon="-1.2874">
        <ele>122</ele>
        <time>2021-04-24T11:21:48.000Z</time>
      </trkpt>
      <trkpt lat="47.25631" lon="-1.28756">
        <ele>122</ele>
        <time>2021-04-24T11:21:50.000Z</time>
      </trkpt>
      <trkpt lat="47.2564" lon="-1.28773">
        <ele>121</ele>
        <time>2021-04-24T11:21:52.000Z</time>
      </trkpt>
      <trkpt lat="47.25649" lon="-1.28792">
        <ele>122</ele>
        <time>2021-04-24T11:21:54.000Z</time>
      </trkpt>
      <trkpt lat="47.25657" lon="-1.28811">
        <ele>122</ele>
        <time>2021-04-24T11:21:56.000Z</time>
      </trkpt>
      <trkpt lat="47.25663" lon="-1.2883">
        <ele>122</ele>
        <time>2021-04-24T11:21:58.000Z</time>
      </trkpt>
      <trkpt lat="47.25668" lon="-1.2885">
        <ele>122</ele>
        <time>2021-04-24T11:22:00.000Z</time>
      </trkpt>
      <trkpt lat="47.25673" lon="-1.28871">
        <ele>122</ele>
        <time>2021-04-24T11:22:02.000Z</time>
      </trkpt>
      <trkpt lat="47.25678" lon="-1.28891">
        <ele>122</ele>
        <time>2021-04-24T11:22:04.000Z</time>
      </trkpt>
      <trkpt lat="47.25683" lon="-1.28912">
        <ele>122</ele>
        <time>2021-04-24T11:22:06.000Z</time>
      </trkpt>
      <trkpt lat="47.25688" lon="-1.28932">
        <ele>122</ele>
        <time>2021-04-24T11:22:08.000Z</time>
      </trkpt>
      <trkpt lat="47.25693" lon="-1.28952">
        <ele>122</ele>
        <time>2021-04-24T11:22:10.000Z</time>
      </trkpt>
      <trkpt lat="47.25697" lon="-1.28972">
        <ele>122</ele>
        <time>2021-04-24T11:22:12.000Z</time>
      </trkpt>
      <trkpt lat="47.25702" lon="-1.28992">
        <ele>123</ele>
        <time>2021-04-24T11:22:14.000Z</time>
      </trkpt>
      <trkpt lat="47.25709" lon="-1.29022">
        <ele>123</ele>
        <time>2021-04-24T11:22:17.000Z</time>
      </trkpt>
      <trkpt lat="47.25714" lon="-1.29041">
        <ele>123</ele>
        <time>2021-04-24T11:22:19.000Z</time>
      </trkpt>
      <trkpt lat="47.25719" lon="-1.2906">
        <ele>123</ele>
        <time>2021-04-24T11:22:21.000Z</time>
      </trkpt>
      <trkpt lat="47.25724" lon="-1.29078">
        <ele>124</ele>
        <time>2021-04-24T11:22:23.000Z</time>
      </trkpt>
      <trkpt lat="47.2573" lon="-1.29096">
        <ele>124</ele>
        <time>2021-04-24T11:22:25.000Z</time>
      </trkpt>
      <trkpt lat="47.25735" lon="-1.29113">
        <ele>125</ele>
        <time>2021-04-24T11:22:27.000Z</time>
      </trkpt>
      <trkpt lat="47.25742" lon="-1.29131">
        <ele>125</ele>
        <time>2021-04-24T11:22:29.000Z</time>
      </trkpt>
      <trkpt lat="47.2575" lon="-1.29147">
        <ele>125</ele>
        <time>2021-04-24T11:22:31.000Z</time>
      </trkpt>
      <trkpt lat="47.2576" lon="-1.29163">
        <ele>125</ele>
        <time>2021-04-24T11:22:33.000Z</time>
      </trkpt>
      <trkpt lat="47.2577" lon="-1.29177">
        <ele>125</ele>
        <time>2021-04-24T11:22:35.000Z</time>
      </trkpt>
      <trkpt lat="47.2578" lon="-1.29191">
        <ele>126</ele>
        <time>2021-04-24T11:22:37.000Z</time>
      </trkpt>
      <trkpt lat="47.2579" lon="-1.29204">
        <ele>126</ele>
        <time>2021-04-24T11:22:39.000Z</time>
      </trkpt>
      <trkpt lat="47.258" lon="-1.29216">
        <ele>127</ele>
        <time>2021-04-24T11:22:41.000Z</time>
      </trkpt>
      <trkpt lat="47.25809" lon="-1.29227">
        <ele>127</ele>
        <time>2021-04-24T11:22:43.000Z</time>
      </trkpt>
      <trkpt lat="47.25819" lon="-1.2924">
        <ele>128</ele>
        <time>2021-04-24T11:22:45.000Z</time>
      </trkpt>
      <trkpt lat="47.25828" lon="-1.29252">
        <ele>128</ele>
        <time>2021-04-24T11:22:47.000Z</time>
      </trkpt>
      <trkpt lat="47.25837" lon="-1.29264">
        <ele>128</ele>
        <time>2021-04-24T11:22:49.000Z</time>
      </trkpt>
      <trkpt lat="47.25846" lon="-1.29277">
        <ele>128</ele>
        <time>2021-04-24T11:22:51.000Z</time>
      </trkpt>
      <trkpt lat="47.25854" lon="-1.29291">
        <ele>128</ele>
        <time>2021-04-24T11:22:53.000Z</time>
      </trkpt>
      <trkpt lat="47.25861" lon="-1.29306">
        <ele>128</ele>
        <time>2021-04-24T11:22:55.000Z</time>
      </trkpt>
      <trkpt lat="47.25868" lon="-1.2932">
        <ele>128</ele>
        <time>2021-04-24T11:22:57.000Z</time>
      </trkpt>
      <trkpt lat="47.25874" lon="-1.29336">
        <ele>128</ele>
        <time>2021-04-24T11:22:59.000Z</time>
      </trkpt>
      <trkpt lat="47.25881" lon="-1.29351">
        <ele>128</ele>
        <time>2021-04-24T11:23:01.000Z</time>
      </trkpt>
      <trkpt lat="47.25887" lon="-1.29367">
        <ele>128</ele>
        <time>2021-04-24T11:23:03.000Z</time>
      </trkpt>
      <trkpt lat="47.25893" lon="-1.29384">
        <ele>128</ele>
        <time>2021-04-24T11:23:05.000Z</time>
      </trkpt>
      <trkpt lat="47.259" lon="-1.294">
        <ele>127</ele>
        <time>2021-04-24T11:23:07.000Z</time>
      </trkpt>
      <trkpt lat="47.25906" lon="-1.29416">
        <ele>127</ele>
        <time>2021-04-24T11:23:09.000Z</time>
      </trkpt>
      <trkpt lat="47.25913" lon="-1.29433">
        <ele>128</ele>
        <time>2021-04-24T11:23:11.000Z</time>
      </trkpt>
      <trkpt lat="47.25919" lon="-1.29449">
        <ele>128</ele>
        <time>2021-04-24T11:23:13.000Z</time>
      </trkpt>
      <trkpt lat="47.25926" lon="-1.29467">
        <ele>128</ele>
        <time>2021-04-24T11:23:15.000Z</time>
      </trkpt>
      <trkpt lat="47.25932" lon="-1.29484">
        <ele>128</ele>
        <time>2021-04-24T11:23:17.000Z</time>
      </trkpt>
      <trkpt lat="47.25939" lon="-1.295">
        <ele>128</ele>
        <time>2021-04-24T11:23:19.000Z</time>
      </trkpt>
      <trkpt lat="47.25946" lon="-1.29517">
        <ele>128</ele>
        <time>2021-04-24T11:23:21.000Z</time>
      </trkpt>
      <trkpt lat="47.25953" lon="-1.29534">
        <ele>127</ele>
        <time>2021-04-24T11:23:23.000Z</time>
      </trkpt>
      <trkpt lat="47.2596" lon="-1.29551">
        <ele>128</ele>
        <time>2021-04-24T11:23:25.000Z</time>
      </trkpt>
      <trkpt lat="47.25967" lon="-1.29567">
        <ele>127</ele>
        <time>2021-04-24T11:23:27.000Z</time>
      </trkpt>
      <trkpt lat="47.25974" lon="-1.29583">
        <ele>127</ele>
        <time>2021-04-24T11:23:29.000Z</time>
      </trkpt>
      <trkpt lat="47.25982" lon="-1.29599">
        <ele>127</ele>
        <time>2021-04-24T11:23:31.000Z</time>
      </trkpt>
      <trkpt lat="47.2599" lon="-1.29614">
        <ele>127</ele>
        <time>2021-04-24T11:23:33.000Z</time>
      </trkpt>
      <trkpt lat="47.25997" lon="-1.2963">
        <ele>126</ele>
        <time>2021-04-24T11:23:35.000Z</time>
      </trkpt>
      <trkpt lat="47.26005" lon="-1.29646">
        <ele>126</ele>
        <time>2021-04-24T11:23:37.000Z</time>
      </trkpt>
      <trkpt lat="47.26013" lon="-1.29662">
        <ele>126</ele>
        <time>2021-04-24T11:23:39.000Z</time>
      </trkpt>
      <trkpt lat="47.26022" lon="-1.29678">
        <ele>125</ele>
        <time>2021-04-24T11:23:41.000Z</time>
      </trkpt>
      <trkpt lat="47.2603" lon="-1.29695">
        <ele>125</ele>
        <time>2021-04-24T11:23:43.000Z</time>
      </trkpt>
      <trkpt lat="47.26038" lon="-1.29711">
        <ele>125</ele>
        <time>2021-04-24T11:23:45.000Z</time>
      </trkpt>
      <trkpt lat="47.26046" lon="-1.29727">
        <ele>124</ele>
        <time>2021-04-24T11:23:47.000Z</time>
      </trkpt>
      <trkpt lat="47.26054" lon="-1.29743">
        <ele>124</ele>
        <time>2021-04-24T11:23:49.000Z</time>
      </trkpt>
      <trkpt lat="47.26062" lon="-1.29759">
        <ele>125</ele>
        <time>2021-04-24T11:23:51.000Z</time>
      </trkpt>
      <trkpt lat="47.2607" lon="-1.29776">
        <ele>125</ele>
        <time>2021-04-24T11:23:53.000Z</time>
      </trkpt>
      <trkpt lat="47.26078" lon="-1.29793">
        <ele>125</ele>
        <time>2021-04-24T11:23:55.000Z</time>
      </trkpt>
      <trkpt lat="47.26086" lon="-1.29811">
        <ele>125</ele>
        <time>2021-04-24T11:23:57.000Z</time>
      </trkpt>
      <trkpt lat="47.26093" lon="-1.29828">
        <ele>125</ele>
        <time>2021-04-24T11:23:59.000Z</time>
      </trkpt>
      <trkpt lat="47.261" lon="-1.29846">
        <ele>125</ele>
        <time>2021-04-24T11:24:01.000Z</time>
      </trkpt>
      <trkpt lat="47.26106" lon="-1.29864">
        <ele>125</ele>
        <time>2021-04-24T11:24:03.000Z</time>
      </trkpt>
      <trkpt lat="47.26112" lon="-1.29882">
        <ele>124</ele>
        <time>2021-04-24T11:24:05.000Z</time>
      </trkpt>
      <trkpt lat="47.26117" lon="-1.29901">
        <ele>125</ele>
        <time>2021-04-24T11:24:07.000Z</time>
      </trkpt>
      <trkpt lat="47.26123" lon="-1.29919">
        <ele>124</ele>
        <time>2021-04-24T11:24:09.000Z</time>
      </trkpt>
      <trkpt lat="47.26127" lon="-1.29937">
        <ele>125</ele>
        <time>2021-04-24T11:24:11.000Z</time>
      </trkpt>
      <trkpt lat="47.26132" lon="-1.29956">
        <ele>125</ele>
        <time>2021-04-24T11:24:13.000Z</time>
      </trkpt>
      <trkpt lat="47.26137" lon="-1.29974">
        <ele>125</ele>
        <time>2021-04-24T11:24:15.000Z</time>
      </trkpt>
      <trkpt lat="47.26142" lon="-1.29993">
        <ele>126</ele>
        <time>2021-04-24T11:24:17.000Z</time>
      </trkpt>
      <trkpt lat="47.26148" lon="-1.30011">
        <ele>125</ele>
        <time>2021-04-24T11:24:19.000Z</time>
      </trkpt>
      <trkpt lat="47.26153" lon="-1.3003">
        <ele>125</ele>
        <time>2021-04-24T11:24:21.000Z</time>
      </trkpt>
      <trkpt lat="47.26158" lon="-1.30049">
        <ele>125</ele>
        <time>2021-04-24T11:24:23.000Z</time>
      </trkpt>
      <trkpt lat="47.26163" lon="-1.30068">
        <ele>125</ele>
        <time>2021-04-24T11:24:25.000Z</time>
      </trkpt>
      <trkpt lat="47.26168" lon="-1.30086">
        <ele>124</ele>
        <time>2021-04-24T11:24:27.000Z</time>
      </trkpt>
      <trkpt lat="47.26174" lon="-1.30106">
        <ele>124</ele>
        <time>2021-04-24T11:24:29.000Z</time>
      </trkpt>
      <trkpt lat="47.26179" lon="-1.30125">
        <ele>124</ele>
        <time>2021-04-24T11:24:31.000Z</time>
      </trkpt>
      <trkpt lat="47.26184" lon="-1.30144">
        <ele>124</ele>
        <time>2021-04-24T11:24:33.000Z</time>
      </trkpt>
      <trkpt lat="47.26189" lon="-1.30163">
        <ele>124</ele>
        <time>2021-04-24T11:24:35.000Z</time>
      </trkpt>
      <trkpt lat="47.26194" lon="-1.30183">
        <ele>125</ele>
        <time>2021-04-24T11:24:37.000Z</time>
      </trkpt>
      <trkpt lat="47.262" lon="-1.30202">
        <ele>124</ele>
        <time>2021-04-24T11:24:39.000Z</time>
      </trkpt>
      <trkpt lat="47.26205" lon="-1.30221">
        <ele>124</ele>
        <time>2021-04-24T11:24:41.000Z</time>
      </trkpt>
      <trkpt lat="47.26211" lon="-1.3024">
        <ele>124</ele>
        <time>2021-04-24T11:24:43.000Z</time>
      </trkpt>
      <trkpt lat="47.26216" lon="-1.3026">
        <ele>124</ele>
        <time>2021-04-24T11:24:45.000Z</time>
      </trkpt>
      <trkpt lat="47.26221" lon="-1.30279">
        <ele>124</ele>
        <time>2021-04-24T11:24:47.000Z</time>
      </trkpt>
      <trkpt lat="47.26227" lon="-1.30299">
        <ele>124</ele>
        <time>2021-04-24T11:24:49.000Z</time>
      </trkpt>
      <trkpt lat="47.26233" lon="-1.30317">
        <ele>123</ele>
        <time>2021-04-24T11:24:51.000Z</time>
      </trkpt>
      <trkpt lat="47.26239" lon="-1.30335">
        <ele>123</ele>
        <time>2021-04-24T11:24:53.000Z</time>
      </trkpt>
      <trkpt lat="47.26245" lon="-1.30354">
        <ele>123</ele>
        <time>2021-04-24T11:24:55.000Z</time>
      </trkpt>
      <trkpt lat="47.26251" lon="-1.30372">
        <ele>122</ele>
        <time>2021-04-24T11:24:57.000Z</time>
      </trkpt>
      <trkpt lat="47.26257" lon="-1.3039">
        <ele>122</ele>
        <time>2021-04-24T11:24:59.000Z</time>
      </trkpt>
      <trkpt lat="47.26263" lon="-1.30409">
        <ele>122</ele>
        <time>2021-04-24T11:25:01.000Z</time>
      </trkpt>
      <trkpt lat="47.2627" lon="-1.30427">
        <ele>122</ele>
        <time>2021-04-24T11:25:03.000Z</time>
      </trkpt>
      <trkpt lat="47.26276" lon="-1.30446">
        <ele>122</ele>
        <time>2021-04-24T11:25:05.000Z</time>
      </trkpt>
      <trkpt lat="47.26282" lon="-1.30465">
        <ele>122</ele>
        <time>2021-04-24T11:25:07.000Z</time>
      </trkpt>
      <trkpt lat="47.26289" lon="-1.30484">
        <ele>122</ele>
        <time>2021-04-24T11:25:09.000Z</time>
      </trkpt>
      <trkpt lat="47.26295" lon="-1.30502">
        <ele>122</ele>
        <time>2021-04-24T11:25:11.000Z</time>
      </trkpt>
      <trkpt lat="47.26302" lon="-1.30521">
        <ele>122</ele>
        <time>2021-04-24T11:25:13.000Z</time>
      </trkpt>
      <trkpt lat="47.26308" lon="-1.30539">
        <ele>122</ele>
        <time>2021-04-24T11:25:15.000Z</time>
      </trkpt>
      <trkpt lat="47.26315" lon="-1.30557">
        <ele>122</ele>
        <time>2021-04-24T11:25:17.000Z</time>
      </trkpt>
      <trkpt lat="47.26321" lon="-1.30577">
        <ele>122</ele>
        <time>2021-04-24T11:25:19.000Z</time>
      </trkpt>
      <trkpt lat="47.26327" lon="-1.30595">
        <ele>123</ele>
        <time>2021-04-24T11:25:21.000Z</time>
      </trkpt>
      <trkpt lat="47.26333" lon="-1.30613">
        <ele>123</ele>
        <time>2021-04-24T11:25:23.000Z</time>
      </trkpt>
      <trkpt lat="47.2634" lon="-1.30631">
        <ele>123</ele>
        <time>2021-04-24T11:25:25.000Z</time>
      </trkpt>
      <trkpt lat="47.26345" lon="-1.30649">
        <ele>123</ele>
        <time>2021-04-24T11:25:27.000Z</time>
      </trkpt>
      <trkpt lat="47.26352" lon="-1.30668">
        <ele>123</ele>
        <time>2021-04-24T11:25:29.000Z</time>
      </trkpt>
      <trkpt lat="47.26358" lon="-1.30687">
        <ele>123</ele>
        <time>2021-04-24T11:25:31.000Z</time>
      </trkpt>
      <trkpt lat="47.26365" lon="-1.30706">
        <ele>123</ele>
        <time>2021-04-24T11:25:33.000Z</time>
      </trkpt>
      <trkpt lat="47.26371" lon="-1.30724">
        <ele>123</ele>
        <time>2021-04-24T11:25:35.000Z</time>
      </trkpt>
      <trkpt lat="47.26377" lon="-1.30743">
        <ele>124</ele>
        <time>2021-04-24T11:25:37.000Z</time>
      </trkpt>
      <trkpt lat="47.26384" lon="-1.30761">
        <ele>124</ele>
        <time>2021-04-24T11:25:39.000Z</time>
      </trkpt>
      <trkpt lat="47.2639" lon="-1.3078">
        <ele>124</ele>
        <time>2021-04-24T11:25:41.000Z</time>
      </trkpt>
      <trkpt lat="47.26395" lon="-1.30798">
        <ele>124</ele>
        <time>2021-04-24T11:25:43.000Z</time>
      </trkpt>
      <trkpt lat="47.26401" lon="-1.30816">
        <ele>124</ele>
        <time>2021-04-24T11:25:45.000Z</time>
      </trkpt>
      <trkpt lat="47.26406" lon="-1.30836">
        <ele>124</ele>
        <time>2021-04-24T11:25:47.000Z</time>
      </trkpt>
      <trkpt lat="47.26411" lon="-1.30855">
        <ele>124</ele>
        <time>2021-04-24T11:25:49.000Z</time>
      </trkpt>
      <trkpt lat="47.26416" lon="-1.30875">
        <ele>124</ele>
        <time>2021-04-24T11:25:51.000Z</time>
      </trkpt>
      <trkpt lat="47.26421" lon="-1.30894">
        <ele>124</ele>
        <time>2021-04-24T11:25:53.000Z</time>
      </trkpt>
      <trkpt lat="47.26427" lon="-1.30912">
        <ele>124</ele>
        <time>2021-04-24T11:25:55.000Z</time>
      </trkpt>
      <trkpt lat="47.26431" lon="-1.30931">
        <ele>123</ele>
        <time>2021-04-24T11:25:57.000Z</time>
      </trkpt>
      <trkpt lat="47.26436" lon="-1.30951">
        <ele>124</ele>
        <time>2021-04-24T11:25:59.000Z</time>
      </trkpt>
      <trkpt lat="47.26441" lon="-1.3097">
        <ele>124</ele>
        <time>2021-04-24T11:26:01.000Z</time>
      </trkpt>
      <trkpt lat="47.26446" lon="-1.3099">
        <ele>124</ele>
        <time>2021-04-24T11:26:03.000Z</time>
      </trkpt>
      <trkpt lat="47.26452" lon="-1.31009">
        <ele>124</ele>
        <time>2021-04-24T11:26:05.000Z</time>
      </trkpt>
      <trkpt lat="47.26457" lon="-1.31029">
        <ele>124</ele>
        <time>2021-04-24T11:26:07.000Z</time>
      </trkpt>
      <trkpt lat="47.26463" lon="-1.31048">
        <ele>124</ele>
        <time>2021-04-24T11:26:09.000Z</time>
      </trkpt>
      <trkpt lat="47.26468" lon="-1.31067">
        <ele>124</ele>
        <time>2021-04-24T11:26:11.000Z</time>
      </trkpt>
      <trkpt lat="47.26473" lon="-1.31087">
        <ele>124</ele>
        <time>2021-04-24T11:26:13.000Z</time>
      </trkpt>
      <trkpt lat="47.26478" lon="-1.31106">
        <ele>124</ele>
        <time>2021-04-24T11:26:15.000Z</time>
      </trkpt>
      <trkpt lat="47.26484" lon="-1.31126">
        <ele>124</ele>
        <time>2021-04-24T11:26:17.000Z</time>
      </trkpt>
      <trkpt lat="47.26489" lon="-1.31146">
        <ele>124</ele>
        <time>2021-04-24T11:26:19.000Z</time>
      </trkpt>
      <trkpt lat="47.26494" lon="-1.31166">
        <ele>124</ele>
        <time>2021-04-24T11:26:21.000Z</time>
      </trkpt>
      <trkpt lat="47.26499" lon="-1.31185">
        <ele>124</ele>
        <time>2021-04-24T11:26:23.000Z</time>
      </trkpt>
      <trkpt lat="47.26503" lon="-1.31204">
        <ele>124</ele>
        <time>2021-04-24T11:26:25.000Z</time>
      </trkpt>
      <trkpt lat="47.26508" lon="-1.31223">
        <ele>124</ele>
        <time>2021-04-24T11:26:27.000Z</time>
      </trkpt>
      <trkpt lat="47.26512" lon="-1.31243">
        <ele>124</ele>
        <time>2021-04-24T11:26:29.000Z</time>
      </trkpt>
      <trkpt lat="47.26515" lon="-1.31263">
        <ele>124</ele>
        <time>2021-04-24T11:26:31.000Z</time>
      </trkpt>
      <trkpt lat="47.26518" lon="-1.31284">
        <ele>124</ele>
        <time>2021-04-24T11:26:33.000Z</time>
      </trkpt>
      <trkpt lat="47.26521" lon="-1.31304">
        <ele>124</ele>
        <time>2021-04-24T11:26:35.000Z</time>
      </trkpt>
      <trkpt lat="47.26523" lon="-1.31325">
        <ele>124</ele>
        <time>2021-04-24T11:26:37.000Z</time>
      </trkpt>
      <trkpt lat="47.26525" lon="-1.31345">
        <ele>124</ele>
        <time>2021-04-24T11:26:39.000Z</time>
      </trkpt>
      <trkpt lat="47.26526" lon="-1.31364">
        <ele>124</ele>
        <time>2021-04-24T11:26:41.000Z</time>
      </trkpt>
      <trkpt lat="47.26528" lon="-1.31384">
        <ele>124</ele>
        <time>2021-04-24T11:26:43.000Z</time>
      </trkpt>
      <trkpt lat="47.2653" lon="-1.31404">
        <ele>125</ele>
        <time>2021-04-24T11:26:45.000Z</time>
      </trkpt>
      <trkpt lat="47.26532" lon="-1.31423">
        <ele>125</ele>
        <time>2021-04-24T11:26:47.000Z</time>
      </trkpt>
      <trkpt lat="47.26534" lon="-1.31444">
        <ele>125</ele>
        <time>2021-04-24T11:26:49.000Z</time>
      </trkpt>
      <trkpt lat="47.26536" lon="-1.31463">
        <ele>125</ele>
        <time>2021-04-24T11:26:51.000Z</time>
      </trkpt>
      <trkpt lat="47.26538" lon="-1.31483">
        <ele>125</ele>
        <time>2021-04-24T11:26:53.000Z</time>
      </trkpt>
      <trkpt lat="47.2654" lon="-1.31503">
        <ele>125</ele>
        <time>2021-04-24T11:26:55.000Z</time>
      </trkpt>
      <trkpt lat="47.26542" lon="-1.31523">
        <ele>124</ele>
        <time>2021-04-24T11:26:57.000Z</time>
      </trkpt>
      <trkpt lat="47.26545" lon="-1.31542">
        <ele>124</ele>
        <time>2021-04-24T11:26:59.000Z</time>
      </trkpt>
      <trkpt lat="47.26548" lon="-1.31561">
        <ele>124</ele>
        <time>2021-04-24T11:27:01.000Z</time>
      </trkpt>
      <trkpt lat="47.26552" lon="-1.3158">
        <ele>124</ele>
        <time>2021-04-24T11:27:03.000Z</time>
      </trkpt>
      <trkpt lat="47.26556" lon="-1.31599">
        <ele>125</ele>
        <time>2021-04-24T11:27:05.000Z</time>
      </trkpt>
      <trkpt lat="47.2656" lon="-1.31618">
        <ele>125</ele>
        <time>2021-04-24T11:27:07.000Z</time>
      </trkpt>
      <trkpt lat="47.26565" lon="-1.31637">
        <ele>125</ele>
        <time>2021-04-24T11:27:09.000Z</time>
      </trkpt>
      <trkpt lat="47.26569" lon="-1.31655">
        <ele>125</ele>
        <time>2021-04-24T11:27:11.000Z</time>
      </trkpt>
      <trkpt lat="47.26573" lon="-1.31674">
        <ele>125</ele>
        <time>2021-04-24T11:27:13.000Z</time>
      </trkpt>
      <trkpt lat="47.26578" lon="-1.31692">
        <ele>125</ele>
        <time>2021-04-24T11:27:15.000Z</time>
      </trkpt>
      <trkpt lat="47.26582" lon="-1.3171">
        <ele>125</ele>
        <time>2021-04-24T11:27:17.000Z</time>
      </trkpt>
      <trkpt lat="47.26587" lon="-1.31728">
        <ele>125</ele>
        <time>2021-04-24T11:27:19.000Z</time>
      </trkpt>
      <trkpt lat="47.26591" lon="-1.31746">
        <ele>125</ele>
        <time>2021-04-24T11:27:21.000Z</time>
      </trkpt>
      <trkpt lat="47.26595" lon="-1.31765">
        <ele>125</ele>
        <time>2021-04-24T11:27:23.000Z</time>
      </trkpt>
      <trkpt lat="47.266" lon="-1.31784">
        <ele>125</ele>
        <time>2021-04-24T11:27:25.000Z</time>
      </trkpt>
      <trkpt lat="47.26604" lon="-1.31803">
        <ele>125</ele>
        <time>2021-04-24T11:27:27.000Z</time>
      </trkpt>
      <trkpt lat="47.26609" lon="-1.31821">
        <ele>125</ele>
        <time>2021-04-24T11:27:29.000Z</time>
      </trkpt>
      <trkpt lat="47.26613" lon="-1.3184">
        <ele>124</ele>
        <time>2021-04-24T11:27:31.000Z</time>
      </trkpt>
      <trkpt lat="47.26618" lon="-1.31859">
        <ele>124</ele>
        <time>2021-04-24T11:27:33.000Z</time>
      </trkpt>
      <trkpt lat="47.26622" lon="-1.31878">
        <ele>124</ele>
        <time>2021-04-24T11:27:35.000Z</time>
      </trkpt>
      <trkpt lat="47.26627" lon="-1.31897">
        <ele>124</ele>
        <time>2021-04-24T11:27:37.000Z</time>
      </trkpt>
      <trkpt lat="47.26631" lon="-1.31916">
        <ele>123</ele>
        <time>2021-04-24T11:27:39.000Z</time>
      </trkpt>
      <trkpt lat="47.26636" lon="-1.31936">
        <ele>123</ele>
        <time>2021-04-24T11:27:41.000Z</time>
      </trkpt>
      <trkpt lat="47.2664" lon="-1.31955">
        <ele>123</ele>
        <time>2021-04-24T11:27:43.000Z</time>
      </trkpt>
      <trkpt lat="47.26645" lon="-1.31974">
        <ele>122</ele>
        <time>2021-04-24T11:27:45.000Z</time>
      </trkpt>
      <trkpt lat="47.2665" lon="-1.31993">
        <ele>122</ele>
        <time>2021-04-24T11:27:47.000Z</time>
      </trkpt>
      <trkpt lat="47.26654" lon="-1.32013">
        <ele>121</ele>
        <time>2021-04-24T11:27:49.000Z</time>
      </trkpt>
      <trkpt lat="47.26659" lon="-1.32032">
        <ele>121</ele>
        <time>2021-04-24T11:27:51.000Z</time>
      </trkpt>
      <trkpt lat="47.26663" lon="-1.32052">
        <ele>121</ele>
        <time>2021-04-24T11:27:53.000Z</time>
      </trkpt>
      <trkpt lat="47.26668" lon="-1.32072">
        <ele>121</ele>
        <time>2021-04-24T11:27:55.000Z</time>
      </trkpt>
      <trkpt lat="47.26673" lon="-1.32092">
        <ele>121</ele>
        <time>2021-04-24T11:27:57.000Z</time>
      </trkpt>
      <trkpt lat="47.26677" lon="-1.32112">
        <ele>121</ele>
        <time>2021-04-24T11:27:59.000Z</time>
      </trkpt>
      <trkpt lat="47.26682" lon="-1.32132">
        <ele>120</ele>
        <time>2021-04-24T11:28:01.000Z</time>
      </trkpt>
      <trkpt lat="47.26687" lon="-1.32152">
        <ele>120</ele>
        <time>2021-04-24T11:28:03.000Z</time>
      </trkpt>
      <trkpt lat="47.26692" lon="-1.32172">
        <ele>120</ele>
        <time>2021-04-24T11:28:05.000Z</time>
      </trkpt>
      <trkpt lat="47.26696" lon="-1.32192">
        <ele>119</ele>
        <time>2021-04-24T11:28:07.000Z</time>
      </trkpt>
      <trkpt lat="47.267" lon="-1.32212">
        <ele>119</ele>
        <time>2021-04-24T11:28:09.000Z</time>
      </trkpt>
      <trkpt lat="47.26703" lon="-1.32233">
        <ele>119</ele>
        <time>2021-04-24T11:28:11.000Z</time>
      </trkpt>
      <trkpt lat="47.26706" lon="-1.32254">
        <ele>119</ele>
        <time>2021-04-24T11:28:13.000Z</time>
      </trkpt>
      <trkpt lat="47.26707" lon="-1.32275">
        <ele>119</ele>
        <time>2021-04-24T11:28:15.000Z</time>
      </trkpt>
      <trkpt lat="47.2671" lon="-1.32297">
        <ele>119</ele>
        <time>2021-04-24T11:28:17.000Z</time>
      </trkpt>
      <trkpt lat="47.26713" lon="-1.32318">
        <ele>118</ele>
        <time>2021-04-24T11:28:19.000Z</time>
      </trkpt>
      <trkpt lat="47.26717" lon="-1.3234">
        <ele>118</ele>
        <time>2021-04-24T11:28:21.000Z</time>
      </trkpt>
      <trkpt lat="47.26721" lon="-1.32361">
        <ele>117</ele>
        <time>2021-04-24T11:28:23.000Z</time>
      </trkpt>
      <trkpt lat="47.26727" lon="-1.32381">
        <ele>117</ele>
        <time>2021-04-24T11:28:25.000Z</time>
      </trkpt>
      <trkpt lat="47.26733" lon="-1.32401">
        <ele>117</ele>
        <time>2021-04-24T11:28:27.000Z</time>
      </trkpt>
      <trkpt lat="47.26739" lon="-1.3242">
        <ele>116</ele>
        <time>2021-04-24T11:28:29.000Z</time>
      </trkpt>
      <trkpt lat="47.26745" lon="-1.3244">
        <ele>116</ele>
        <time>2021-04-24T11:28:31.000Z</time>
      </trkpt>
      <trkpt lat="47.26751" lon="-1.32459">
        <ele>117</ele>
        <time>2021-04-24T11:28:33.000Z</time>
      </trkpt>
      <trkpt lat="47.26757" lon="-1.32477">
        <ele>116</ele>
        <time>2021-04-24T11:28:35.000Z</time>
      </trkpt>
      <trkpt lat="47.26763" lon="-1.32496">
        <ele>116</ele>
        <time>2021-04-24T11:28:37.000Z</time>
      </trkpt>
      <trkpt lat="47.26769" lon="-1.32515">
        <ele>116</ele>
        <time>2021-04-24T11:28:39.000Z</time>
      </trkpt>
      <trkpt lat="47.26775" lon="-1.32533">
        <ele>116</ele>
        <time>2021-04-24T11:28:41.000Z</time>
      </trkpt>
      <trkpt lat="47.26781" lon="-1.32552">
        <ele>116</ele>
        <time>2021-04-24T11:28:43.000Z</time>
      </trkpt>
      <trkpt lat="47.26787" lon="-1.32571">
        <ele>116</ele>
        <time>2021-04-24T11:28:45.000Z</time>
      </trkpt>
      <trkpt lat="47.26793" lon="-1.32591">
        <ele>115</ele>
        <time>2021-04-24T11:28:47.000Z</time>
      </trkpt>
      <trkpt lat="47.26797" lon="-1.32613">
        <ele>115</ele>
        <time>2021-04-24T11:28:49.000Z</time>
      </trkpt>
      <trkpt lat="47.268" lon="-1.32634">
        <ele>115</ele>
        <time>2021-04-24T11:28:51.000Z</time>
      </trkpt>
      <trkpt lat="47.26806" lon="-1.32655">
        <ele>114</ele>
        <time>2021-04-24T11:28:53.000Z</time>
      </trkpt>
      <trkpt lat="47.2681" lon="-1.32676">
        <ele>114</ele>
        <time>2021-04-24T11:28:55.000Z</time>
      </trkpt>
      <trkpt lat="47.26815" lon="-1.32697">
        <ele>114</ele>
        <time>2021-04-24T11:28:57.000Z</time>
      </trkpt>
      <trkpt lat="47.26819" lon="-1.32718">
        <ele>113</ele>
        <time>2021-04-24T11:28:59.000Z</time>
      </trkpt>
      <trkpt lat="47.26824" lon="-1.3274">
        <ele>113</ele>
        <time>2021-04-24T11:29:01.000Z</time>
      </trkpt>
      <trkpt lat="47.26828" lon="-1.32762">
        <ele>113</ele>
        <time>2021-04-24T11:29:03.000Z</time>
      </trkpt>
      <trkpt lat="47.26833" lon="-1.32783">
        <ele>113</ele>
        <time>2021-04-24T11:29:05.000Z</time>
      </trkpt>
      <trkpt lat="47.26837" lon="-1.32805">
        <ele>112</ele>
        <time>2021-04-24T11:29:07.000Z</time>
      </trkpt>
      <trkpt lat="47.26841" lon="-1.32827">
        <ele>112</ele>
        <time>2021-04-24T11:29:09.000Z</time>
      </trkpt>
      <trkpt lat="47.26844" lon="-1.32849">
        <ele>112</ele>
        <time>2021-04-24T11:29:11.000Z</time>
      </trkpt>
      <trkpt lat="47.26845" lon="-1.32871">
        <ele>111</ele>
        <time>2021-04-24T11:29:13.000Z</time>
      </trkpt>
      <trkpt lat="47.26844" lon="-1.32894">
        <ele>111</ele>
        <time>2021-04-24T11:29:15.000Z</time>
      </trkpt>
      <trkpt lat="47.26842" lon="-1.32917">
        <ele>111</ele>
        <time>2021-04-24T11:29:17.000Z</time>
      </trkpt>
      <trkpt lat="47.26839" lon="-1.32941">
        <ele>111</ele>
        <time>2021-04-24T11:29:19.000Z</time>
      </trkpt>
      <trkpt lat="47.26836" lon="-1.32965">
        <ele>111</ele>
        <time>2021-04-24T11:29:21.000Z</time>
      </trkpt>
      <trkpt lat="47.26834" lon="-1.32989">
        <ele>110</ele>
        <time>2021-04-24T11:29:23.000Z</time>
      </trkpt>
      <trkpt lat="47.26833" lon="-1.33014">
        <ele>110</ele>
        <time>2021-04-24T11:29:25.000Z</time>
      </trkpt>
      <trkpt lat="47.26834" lon="-1.33039">
        <ele>110</ele>
        <time>2021-04-24T11:29:27.000Z</time>
      </trkpt>
      <trkpt lat="47.26838" lon="-1.33062">
        <ele>110</ele>
        <time>2021-04-24T11:29:29.000Z</time>
      </trkpt>
      <trkpt lat="47.26844" lon="-1.33084">
        <ele>110</ele>
        <time>2021-04-24T11:29:31.000Z</time>
      </trkpt>
      <trkpt lat="47.26849" lon="-1.33106">
        <ele>109</ele>
        <time>2021-04-24T11:29:33.000Z</time>
      </trkpt>
      <trkpt lat="47.26855" lon="-1.33128">
        <ele>109</ele>
        <time>2021-04-24T11:29:35.000Z</time>
      </trkpt>
      <trkpt lat="47.2686" lon="-1.33149">
        <ele>108</ele>
        <time>2021-04-24T11:29:37.000Z</time>
      </trkpt>
      <trkpt lat="47.26867" lon="-1.3317">
        <ele>108</ele>
        <time>2021-04-24T11:29:39.000Z</time>
      </trkpt>
      <trkpt lat="47.26873" lon="-1.33192">
        <ele>108</ele>
        <time>2021-04-24T11:29:41.000Z</time>
      </trkpt>
      <trkpt lat="47.26878" lon="-1.33214">
        <ele>108</ele>
        <time>2021-04-24T11:29:43.000Z</time>
      </trkpt>
      <trkpt lat="47.26883" lon="-1.33235">
        <ele>108</ele>
        <time>2021-04-24T11:29:45.000Z</time>
      </trkpt>
      <trkpt lat="47.26887" lon="-1.33258">
        <ele>107</ele>
        <time>2021-04-24T11:29:47.000Z</time>
      </trkpt>
      <trkpt lat="47.26889" lon="-1.33281">
        <ele>107</ele>
        <time>2021-04-24T11:29:49.000Z</time>
      </trkpt>
      <trkpt lat="47.26892" lon="-1.33303">
        <ele>107</ele>
        <time>2021-04-24T11:29:51.000Z</time>
      </trkpt>
      <trkpt lat="47.26898" lon="-1.33323">
        <ele>107</ele>
        <time>2021-04-24T11:29:53.000Z</time>
      </trkpt>
      <trkpt lat="47.26907" lon="-1.3334">
        <ele>107</ele>
        <time>2021-04-24T11:29:55.000Z</time>
      </trkpt>
      <trkpt lat="47.26917" lon="-1.33355">
        <ele>107</ele>
        <time>2021-04-24T11:29:57.000Z</time>
      </trkpt>
      <trkpt lat="47.26923" lon="-1.33371">
        <ele>106</ele>
        <time>2021-04-24T11:29:59.000Z</time>
      </trkpt>
      <trkpt lat="47.26927" lon="-1.33392">
        <ele>107</ele>
        <time>2021-04-24T11:30:01.000Z</time>
      </trkpt>
      <trkpt lat="47.26934" lon="-1.33412">
        <ele>106</ele>
        <time>2021-04-24T11:30:03.000Z</time>
      </trkpt>
      <trkpt lat="47.26944" lon="-1.3343">
        <ele>106</ele>
        <time>2021-04-24T11:30:05.000Z</time>
      </trkpt>
      <trkpt lat="47.26956" lon="-1.33445">
        <ele>105</ele>
        <time>2021-04-24T11:30:07.000Z</time>
      </trkpt>
      <trkpt lat="47.26966" lon="-1.33462">
        <ele>106</ele>
        <time>2021-04-24T11:30:09.000Z</time>
      </trkpt>
      <trkpt lat="47.26977" lon="-1.33477">
        <ele>105</ele>
        <time>2021-04-24T11:30:11.000Z</time>
      </trkpt>
      <trkpt lat="47.26988" lon="-1.33492">
        <ele>105</ele>
        <time>2021-04-24T11:30:13.000Z</time>
      </trkpt>
      <trkpt lat="47.26999" lon="-1.33507">
        <ele>105</ele>
        <time>2021-04-24T11:30:15.000Z</time>
      </trkpt>
      <trkpt lat="47.27008" lon="-1.33524">
        <ele>105</ele>
        <time>2021-04-24T11:30:17.000Z</time>
      </trkpt>
      <trkpt lat="47.27017" lon="-1.33543">
        <ele>104</ele>
        <time>2021-04-24T11:30:19.000Z</time>
      </trkpt>
      <trkpt lat="47.27024" lon="-1.33562">
        <ele>104</ele>
        <time>2021-04-24T11:30:21.000Z</time>
      </trkpt>
      <trkpt lat="47.27031" lon="-1.33581">
        <ele>104</ele>
        <time>2021-04-24T11:30:23.000Z</time>
      </trkpt>
      <trkpt lat="47.27038" lon="-1.336">
        <ele>104</ele>
        <time>2021-04-24T11:30:25.000Z</time>
      </trkpt>
      <trkpt lat="47.27044" lon="-1.3362">
        <ele>104</ele>
        <time>2021-04-24T11:30:27.000Z</time>
      </trkpt>
      <trkpt lat="47.27052" lon="-1.33639">
        <ele>104</ele>
        <time>2021-04-24T11:30:29.000Z</time>
      </trkpt>
      <trkpt lat="47.27059" lon="-1.33658">
        <ele>104</ele>
        <time>2021-04-24T11:30:31.000Z</time>
      </trkpt>
      <trkpt lat="47.27068" lon="-1.33675">
        <ele>104</ele>
        <time>2021-04-24T11:30:33.000Z</time>
      </trkpt>
      <trkpt lat="47.27078" lon="-1.33691">
        <ele>104</ele>
        <time>2021-04-24T11:30:35.000Z</time>
      </trkpt>
      <trkpt lat="47.27088" lon="-1.33708">
        <ele>104</ele>
        <time>2021-04-24T11:30:37.000Z</time>
      </trkpt>
      <trkpt lat="47.27098" lon="-1.33723">
        <ele>103</ele>
        <time>2021-04-24T11:30:39.000Z</time>
      </trkpt>
      <trkpt lat="47.27108" lon="-1.33738">
        <ele>102</ele>
        <time>2021-04-24T11:30:41.000Z</time>
      </trkpt>
      <trkpt lat="47.27118" lon="-1.33753">
        <ele>102</ele>
        <time>2021-04-24T11:30:43.000Z</time>
      </trkpt>
      <trkpt lat="47.27127" lon="-1.33768">
        <ele>101</ele>
        <time>2021-04-24T11:30:45.000Z</time>
      </trkpt>
      <trkpt lat="47.27136" lon="-1.33783">
        <ele>101</ele>
        <time>2021-04-24T11:30:47.000Z</time>
      </trkpt>
      <trkpt lat="47.27144" lon="-1.338">
        <ele>100</ele>
        <time>2021-04-24T11:30:49.000Z</time>
      </trkpt>
      <trkpt lat="47.27152" lon="-1.33814">
        <ele>99</ele>
        <time>2021-04-24T11:30:51.000Z</time>
      </trkpt>
      <trkpt lat="47.2716" lon="-1.33827">
        <ele>100</ele>
        <time>2021-04-24T11:30:53.000Z</time>
      </trkpt>
      <trkpt lat="47.27166" lon="-1.33839">
        <ele>100</ele>
        <time>2021-04-24T11:30:55.000Z</time>
      </trkpt>
      <trkpt lat="47.2718" lon="-1.33836">
        <ele>100</ele>
        <time>2021-04-24T11:30:58.000Z</time>
      </trkpt>
      <trkpt lat="47.27193" lon="-1.33826">
        <ele>100</ele>
        <time>2021-04-24T11:31:00.000Z</time>
      </trkpt>
      <trkpt lat="47.27205" lon="-1.33816">
        <ele>100</ele>
        <time>2021-04-24T11:31:02.000Z</time>
      </trkpt>
      <trkpt lat="47.27215" lon="-1.33803">
        <ele>100</ele>
        <time>2021-04-24T11:31:04.000Z</time>
      </trkpt>
      <trkpt lat="47.27224" lon="-1.33788">
        <ele>100</ele>
        <time>2021-04-24T11:31:06.000Z</time>
      </trkpt>
      <trkpt lat="47.27232" lon="-1.33773">
        <ele>100</ele>
        <time>2021-04-24T11:31:08.000Z</time>
      </trkpt>
      <trkpt lat="47.27242" lon="-1.33761">
        <ele>99</ele>
        <time>2021-04-24T11:31:10.000Z</time>
      </trkpt>
      <trkpt lat="47.27255" lon="-1.33765">
        <ele>99</ele>
        <time>2021-04-24T11:31:12.000Z</time>
      </trkpt>
      <trkpt lat="47.27266" lon="-1.3378">
        <ele>98</ele>
        <time>2021-04-24T11:31:14.000Z</time>
      </trkpt>
      <trkpt lat="47.27276" lon="-1.33797">
        <ele>98</ele>
        <time>2021-04-24T11:31:16.000Z</time>
      </trkpt>
      <trkpt lat="47.27285" lon="-1.33814">
        <ele>98</ele>
        <time>2021-04-24T11:31:18.000Z</time>
      </trkpt>
      <trkpt lat="47.27296" lon="-1.3383">
        <ele>97</ele>
        <time>2021-04-24T11:31:20.000Z</time>
      </trkpt>
      <trkpt lat="47.2731" lon="-1.33844">
        <ele>95</ele>
        <time>2021-04-24T11:31:22.000Z</time>
      </trkpt>
      <trkpt lat="47.27322" lon="-1.33861">
        <ele>93</ele>
        <time>2021-04-24T11:31:24.000Z</time>
      </trkpt>
      <trkpt lat="47.27336" lon="-1.33878">
        <ele>91</ele>
        <time>2021-04-24T11:31:26.000Z</time>
      </trkpt>
      <trkpt lat="47.27343" lon="-1.33887">
        <ele>91</ele>
        <time>2021-04-24T11:31:27.000Z</time>
      </trkpt>
      <trkpt lat="47.2735" lon="-1.33896">
        <ele>91</ele>
        <time>2021-04-24T11:31:28.000Z</time>
      </trkpt>
      <trkpt lat="47.27358" lon="-1.33904">
        <ele>91</ele>
        <time>2021-04-24T11:31:29.000Z</time>
      </trkpt>
      <trkpt lat="47.27365" lon="-1.33913">
        <ele>91</ele>
        <time>2021-04-24T11:31:30.000Z</time>
      </trkpt>
      <trkpt lat="47.27373" lon="-1.33921">
        <ele>90</ele>
        <time>2021-04-24T11:31:31.000Z</time>
      </trkpt>
      <trkpt lat="47.27381" lon="-1.3393">
        <ele>90</ele>
        <time>2021-04-24T11:31:32.000Z</time>
      </trkpt>
      <trkpt lat="47.27388" lon="-1.33939">
        <ele>89</ele>
        <time>2021-04-24T11:31:33.000Z</time>
      </trkpt>
      <trkpt lat="47.27395" lon="-1.33948">
        <ele>88</ele>
        <time>2021-04-24T11:31:34.000Z</time>
      </trkpt>
      <trkpt lat="47.27402" lon="-1.33956">
        <ele>88</ele>
        <time>2021-04-24T11:31:35.000Z</time>
      </trkpt>
      <trkpt lat="47.2741" lon="-1.33965">
        <ele>88</ele>
        <time>2021-04-24T11:31:36.000Z</time>
      </trkpt>
      <trkpt lat="47.27418" lon="-1.33974">
        <ele>87</ele>
        <time>2021-04-24T11:31:37.000Z</time>
      </trkpt>
      <trkpt lat="47.27425" lon="-1.33983">
        <ele>87</ele>
        <time>2021-04-24T11:31:38.000Z</time>
      </trkpt>
      <trkpt lat="47.27432" lon="-1.33992">
        <ele>87</ele>
        <time>2021-04-24T11:31:39.000Z</time>
      </trkpt>
      <trkpt lat="47.27447" lon="-1.34008">
        <ele>87</ele>
        <time>2021-04-24T11:31:41.000Z</time>
      </trkpt>
      <trkpt lat="47.2746" lon="-1.34023">
        <ele>87</ele>
        <time>2021-04-24T11:31:43.000Z</time>
      </trkpt>
      <trkpt lat="47.27472" lon="-1.34038">
        <ele>86</ele>
        <time>2021-04-24T11:31:45.000Z</time>
      </trkpt>
      <trkpt lat="47.27484" lon="-1.34053">
        <ele>86</ele>
        <time>2021-04-24T11:31:47.000Z</time>
      </trkpt>
      <trkpt lat="47.27496" lon="-1.34066">
        <ele>87</ele>
        <time>2021-04-24T11:31:49.000Z</time>
      </trkpt>
      <trkpt lat="47.27507" lon="-1.3408">
        <ele>87</ele>
        <time>2021-04-24T11:31:51.000Z</time>
      </trkpt>
      <trkpt lat="47.27518" lon="-1.34093">
        <ele>88</ele>
        <time>2021-04-24T11:31:53.000Z</time>
      </trkpt>
      <trkpt lat="47.27528" lon="-1.34105">
        <ele>88</ele>
        <time>2021-04-24T11:31:55.000Z</time>
      </trkpt>
      <trkpt lat="47.27537" lon="-1.34117">
        <ele>88</ele>
        <time>2021-04-24T11:31:57.000Z</time>
      </trkpt>
      <trkpt lat="47.27547" lon="-1.34129">
        <ele>88</ele>
        <time>2021-04-24T11:31:59.000Z</time>
      </trkpt>
      <trkpt lat="47.27558" lon="-1.34142">
        <ele>89</ele>
        <time>2021-04-24T11:32:01.000Z</time>
      </trkpt>
      <trkpt lat="47.27567" lon="-1.34155">
        <ele>90</ele>
        <time>2021-04-24T11:32:03.000Z</time>
      </trkpt>
      <trkpt lat="47.27577" lon="-1.34167">
        <ele>90</ele>
        <time>2021-04-24T11:32:05.000Z</time>
      </trkpt>
      <trkpt lat="47.27587" lon="-1.34179">
        <ele>90</ele>
        <time>2021-04-24T11:32:07.000Z</time>
      </trkpt>
      <trkpt lat="47.27597" lon="-1.34191">
        <ele>90</ele>
        <time>2021-04-24T11:32:09.000Z</time>
      </trkpt>
      <trkpt lat="47.27606" lon="-1.34201">
        <ele>91</ele>
        <time>2021-04-24T11:32:11.000Z</time>
      </trkpt>
      <trkpt lat="47.27617" lon="-1.34211">
        <ele>90</ele>
        <time>2021-04-24T11:32:13.000Z</time>
      </trkpt>
      <trkpt lat="47.27627" lon="-1.34221">
        <ele>91</ele>
        <time>2021-04-24T11:32:15.000Z</time>
      </trkpt>
      <trkpt lat="47.27637" lon="-1.3423">
        <ele>91</ele>
        <time>2021-04-24T11:32:17.000Z</time>
      </trkpt>
      <trkpt lat="47.27646" lon="-1.34241">
        <ele>91</ele>
        <time>2021-04-24T11:32:19.000Z</time>
      </trkpt>
      <trkpt lat="47.27656" lon="-1.34251">
        <ele>91</ele>
        <time>2021-04-24T11:32:21.000Z</time>
      </trkpt>
      <trkpt lat="47.27665" lon="-1.3426">
        <ele>91</ele>
        <time>2021-04-24T11:32:23.000Z</time>
      </trkpt>
      <trkpt lat="47.27674" lon="-1.34271">
        <ele>91</ele>
        <time>2021-04-24T11:32:25.000Z</time>
      </trkpt>
      <trkpt lat="47.27682" lon="-1.34283">
        <ele>91</ele>
        <time>2021-04-24T11:32:27.000Z</time>
      </trkpt>
      <trkpt lat="47.27691" lon="-1.34297">
        <ele>91</ele>
        <time>2021-04-24T11:32:29.000Z</time>
      </trkpt>
      <trkpt lat="47.27699" lon="-1.34312">
        <ele>90</ele>
        <time>2021-04-24T11:32:31.000Z</time>
      </trkpt>
      <trkpt lat="47.27707" lon="-1.3433">
        <ele>89</ele>
        <time>2021-04-24T11:32:33.000Z</time>
      </trkpt>
      <trkpt lat="47.27713" lon="-1.34348">
        <ele>89</ele>
        <time>2021-04-24T11:32:35.000Z</time>
      </trkpt>
      <trkpt lat="47.27719" lon="-1.34368">
        <ele>88</ele>
        <time>2021-04-24T11:32:37.000Z</time>
      </trkpt>
      <trkpt lat="47.27725" lon="-1.34388">
        <ele>87</ele>
        <time>2021-04-24T11:32:39.000Z</time>
      </trkpt>
      <trkpt lat="47.2773" lon="-1.3441">
        <ele>86</ele>
        <time>2021-04-24T11:32:41.000Z</time>
      </trkpt>
      <trkpt lat="47.27737" lon="-1.34433">
        <ele>85</ele>
        <time>2021-04-24T11:32:43.000Z</time>
      </trkpt>
      <trkpt lat="47.27743" lon="-1.34457">
        <ele>85</ele>
        <time>2021-04-24T11:32:45.000Z</time>
      </trkpt>
      <trkpt lat="47.27751" lon="-1.3448">
        <ele>84</ele>
        <time>2021-04-24T11:32:47.000Z</time>
      </trkpt>
      <trkpt lat="47.2776" lon="-1.34502">
        <ele>84</ele>
        <time>2021-04-24T11:32:49.000Z</time>
      </trkpt>
      <trkpt lat="47.27771" lon="-1.34523">
        <ele>83</ele>
        <time>2021-04-24T11:32:51.000Z</time>
      </trkpt>
      <trkpt lat="47.27777" lon="-1.34533">
        <ele>83</ele>
        <time>2021-04-24T11:32:52.000Z</time>
      </trkpt>
      <trkpt lat="47.27784" lon="-1.34543">
        <ele>82</ele>
        <time>2021-04-24T11:32:53.000Z</time>
      </trkpt>
      <trkpt lat="47.2779" lon="-1.34553">
        <ele>82</ele>
        <time>2021-04-24T11:32:54.000Z</time>
      </trkpt>
      <trkpt lat="47.27796" lon="-1.34563">
        <ele>81</ele>
        <time>2021-04-24T11:32:55.000Z</time>
      </trkpt>
      <trkpt lat="47.27803" lon="-1.34573">
        <ele>81</ele>
        <time>2021-04-24T11:32:56.000Z</time>
      </trkpt>
      <trkpt lat="47.27809" lon="-1.34583">
        <ele>80</ele>
        <time>2021-04-24T11:32:57.000Z</time>
      </trkpt>
      <trkpt lat="47.27821" lon="-1.34603">
        <ele>80</ele>
        <time>2021-04-24T11:32:59.000Z</time>
      </trkpt>
      <trkpt lat="47.27826" lon="-1.34613">
        <ele>79</ele>
        <time>2021-04-24T11:33:00.000Z</time>
      </trkpt>
      <trkpt lat="47.27832" lon="-1.34624">
        <ele>79</ele>
        <time>2021-04-24T11:33:01.000Z</time>
      </trkpt>
      <trkpt lat="47.27842" lon="-1.34645">
        <ele>79</ele>
        <time>2021-04-24T11:33:03.000Z</time>
      </trkpt>
      <trkpt lat="47.27851" lon="-1.34667">
        <ele>79</ele>
        <time>2021-04-24T11:33:05.000Z</time>
      </trkpt>
      <trkpt lat="47.27859" lon="-1.3469">
        <ele>78</ele>
        <time>2021-04-24T11:33:07.000Z</time>
      </trkpt>
      <trkpt lat="47.27866" lon="-1.34714">
        <ele>78</ele>
        <time>2021-04-24T11:33:09.000Z</time>
      </trkpt>
      <trkpt lat="47.27871" lon="-1.34738">
        <ele>77</ele>
        <time>2021-04-24T11:33:11.000Z</time>
      </trkpt>
      <trkpt lat="47.27874" lon="-1.34763">
        <ele>78</ele>
        <time>2021-04-24T11:33:13.000Z</time>
      </trkpt>
      <trkpt lat="47.27877" lon="-1.34788">
        <ele>78</ele>
        <time>2021-04-24T11:33:15.000Z</time>
      </trkpt>
      <trkpt lat="47.2788" lon="-1.34812">
        <ele>78</ele>
        <time>2021-04-24T11:33:17.000Z</time>
      </trkpt>
      <trkpt lat="47.27883" lon="-1.34837">
        <ele>78</ele>
        <time>2021-04-24T11:33:19.000Z</time>
      </trkpt>
      <trkpt lat="47.27886" lon="-1.34861">
        <ele>78</ele>
        <time>2021-04-24T11:33:21.000Z</time>
      </trkpt>
      <trkpt lat="47.27889" lon="-1.34886">
        <ele>78</ele>
        <time>2021-04-24T11:33:23.000Z</time>
      </trkpt>
      <trkpt lat="47.27893" lon="-1.3491">
        <ele>78</ele>
        <time>2021-04-24T11:33:25.000Z</time>
      </trkpt>
      <trkpt lat="47.27896" lon="-1.34934">
        <ele>78</ele>
        <time>2021-04-24T11:33:27.000Z</time>
      </trkpt>
      <trkpt lat="47.27899" lon="-1.34958">
        <ele>78</ele>
        <time>2021-04-24T11:33:29.000Z</time>
      </trkpt>
      <trkpt lat="47.27902" lon="-1.34982">
        <ele>77</ele>
        <time>2021-04-24T11:33:31.000Z</time>
      </trkpt>
      <trkpt lat="47.27905" lon="-1.35007">
        <ele>76</ele>
        <time>2021-04-24T11:33:33.000Z</time>
      </trkpt>
      <trkpt lat="47.27908" lon="-1.35033">
        <ele>76</ele>
        <time>2021-04-24T11:33:35.000Z</time>
      </trkpt>
      <trkpt lat="47.2791" lon="-1.35046">
        <ele>75</ele>
        <time>2021-04-24T11:33:36.000Z</time>
      </trkpt>
      <trkpt lat="47.27912" lon="-1.35059">
        <ele>75</ele>
        <time>2021-04-24T11:33:37.000Z</time>
      </trkpt>
      <trkpt lat="47.27914" lon="-1.35072">
        <ele>74</ele>
        <time>2021-04-24T11:33:38.000Z</time>
      </trkpt>
      <trkpt lat="47.27916" lon="-1.35086">
        <ele>73</ele>
        <time>2021-04-24T11:33:39.000Z</time>
      </trkpt>
      <trkpt lat="47.27918" lon="-1.351">
        <ele>73</ele>
        <time>2021-04-24T11:33:40.000Z</time>
      </trkpt>
      <trkpt lat="47.2792" lon="-1.35115">
        <ele>72</ele>
        <time>2021-04-24T11:33:41.000Z</time>
      </trkpt>
      <trkpt lat="47.27922" lon="-1.35129">
        <ele>71</ele>
        <time>2021-04-24T11:33:42.000Z</time>
      </trkpt>
      <trkpt lat="47.27923" lon="-1.35145">
        <ele>70</ele>
        <time>2021-04-24T11:33:43.000Z</time>
      </trkpt>
      <trkpt lat="47.27926" lon="-1.3516">
        <ele>69</ele>
        <time>2021-04-24T11:33:44.000Z</time>
      </trkpt>
      <trkpt lat="47.27928" lon="-1.35176">
        <ele>69</ele>
        <time>2021-04-24T11:33:45.000Z</time>
      </trkpt>
      <trkpt lat="47.2793" lon="-1.35191">
        <ele>68</ele>
        <time>2021-04-24T11:33:46.000Z</time>
      </trkpt>
      <trkpt lat="47.27932" lon="-1.35207">
        <ele>68</ele>
        <time>2021-04-24T11:33:47.000Z</time>
      </trkpt>
      <trkpt lat="47.27934" lon="-1.35224">
        <ele>67</ele>
        <time>2021-04-24T11:33:48.000Z</time>
      </trkpt>
      <trkpt lat="47.27936" lon="-1.3524">
        <ele>66</ele>
        <time>2021-04-24T11:33:49.000Z</time>
      </trkpt>
      <trkpt lat="47.27939" lon="-1.35257">
        <ele>66</ele>
        <time>2021-04-24T11:33:50.000Z</time>
      </trkpt>
      <trkpt lat="47.27941" lon="-1.35274">
        <ele>65</ele>
        <time>2021-04-24T11:33:51.000Z</time>
      </trkpt>
      <trkpt lat="47.27944" lon="-1.35291">
        <ele>64</ele>
        <time>2021-04-24T11:33:52.000Z</time>
      </trkpt>
      <trkpt lat="47.27948" lon="-1.35309">
        <ele>63</ele>
        <time>2021-04-24T11:33:53.000Z</time>
      </trkpt>
      <trkpt lat="47.27951" lon="-1.35327">
        <ele>62</ele>
        <time>2021-04-24T11:33:54.000Z</time>
      </trkpt>
      <trkpt lat="47.27955" lon="-1.35345">
        <ele>61</ele>
        <time>2021-04-24T11:33:55.000Z</time>
      </trkpt>
      <trkpt lat="47.2796" lon="-1.35361">
        <ele>60</ele>
        <time>2021-04-24T11:33:56.000Z</time>
      </trkpt>
      <trkpt lat="47.27965" lon="-1.35378">
        <ele>59</ele>
        <time>2021-04-24T11:33:57.000Z</time>
      </trkpt>
      <trkpt lat="47.2797" lon="-1.35395">
        <ele>58</ele>
        <time>2021-04-24T11:33:58.000Z</time>
      </trkpt>
      <trkpt lat="47.27975" lon="-1.35411">
        <ele>58</ele>
        <time>2021-04-24T11:33:59.000Z</time>
      </trkpt>
      <trkpt lat="47.27981" lon="-1.35427">
        <ele>57</ele>
        <time>2021-04-24T11:34:00.000Z</time>
      </trkpt>
      <trkpt lat="47.27986" lon="-1.35443">
        <ele>56</ele>
        <time>2021-04-24T11:34:01.000Z</time>
      </trkpt>
      <trkpt lat="47.27991" lon="-1.35459">
        <ele>56</ele>
        <time>2021-04-24T11:34:02.000Z</time>
      </trkpt>
      <trkpt lat="47.27995" lon="-1.35474">
        <ele>56</ele>
        <time>2021-04-24T11:34:03.000Z</time>
      </trkpt>
      <trkpt lat="47.28" lon="-1.35489">
        <ele>55</ele>
        <time>2021-04-24T11:34:04.000Z</time>
      </trkpt>
      <trkpt lat="47.28004" lon="-1.35504">
        <ele>55</ele>
        <time>2021-04-24T11:34:05.000Z</time>
      </trkpt>
      <trkpt lat="47.28008" lon="-1.35518">
        <ele>55</ele>
        <time>2021-04-24T11:34:06.000Z</time>
      </trkpt>
      <trkpt lat="47.28013" lon="-1.35531">
        <ele>55</ele>
        <time>2021-04-24T11:34:07.000Z</time>
      </trkpt>
      <trkpt lat="47.28017" lon="-1.35545">
        <ele>55</ele>
        <time>2021-04-24T11:34:08.000Z</time>
      </trkpt>
      <trkpt lat="47.28021" lon="-1.35558">
        <ele>55</ele>
        <time>2021-04-24T11:34:09.000Z</time>
      </trkpt>
      <trkpt lat="47.28025" lon="-1.3557">
        <ele>55</ele>
        <time>2021-04-24T11:34:10.000Z</time>
      </trkpt>
      <trkpt lat="47.28028" lon="-1.35583">
        <ele>54</ele>
        <time>2021-04-24T11:34:11.000Z</time>
      </trkpt>
      <trkpt lat="47.28031" lon="-1.35597">
        <ele>54</ele>
        <time>2021-04-24T11:34:12.000Z</time>
      </trkpt>
      <trkpt lat="47.28035" lon="-1.3561">
        <ele>54</ele>
        <time>2021-04-24T11:34:13.000Z</time>
      </trkpt>
      <trkpt lat="47.28038" lon="-1.35623">
        <ele>54</ele>
        <time>2021-04-24T11:34:14.000Z</time>
      </trkpt>
      <trkpt lat="47.28041" lon="-1.35636">
        <ele>54</ele>
        <time>2021-04-24T11:34:15.000Z</time>
      </trkpt>
      <trkpt lat="47.28044" lon="-1.35649">
        <ele>54</ele>
        <time>2021-04-24T11:34:16.000Z</time>
      </trkpt>
      <trkpt lat="47.28048" lon="-1.35673">
        <ele>54</ele>
        <time>2021-04-24T11:34:18.000Z</time>
      </trkpt>
      <trkpt lat="47.28052" lon="-1.35697">
        <ele>54</ele>
        <time>2021-04-24T11:34:20.000Z</time>
      </trkpt>
      <trkpt lat="47.28056" lon="-1.35721">
        <ele>54</ele>
        <time>2021-04-24T11:34:22.000Z</time>
      </trkpt>
      <trkpt lat="47.2806" lon="-1.35745">
        <ele>53</ele>
        <time>2021-04-24T11:34:24.000Z</time>
      </trkpt>
      <trkpt lat="47.28063" lon="-1.35768">
        <ele>53</ele>
        <time>2021-04-24T11:34:26.000Z</time>
      </trkpt>
      <trkpt lat="47.28068" lon="-1.35792">
        <ele>52</ele>
        <time>2021-04-24T11:34:28.000Z</time>
      </trkpt>
      <trkpt lat="47.28076" lon="-1.35814">
        <ele>52</ele>
        <time>2021-04-24T11:34:30.000Z</time>
      </trkpt>
      <trkpt lat="47.28085" lon="-1.35833">
        <ele>52</ele>
        <time>2021-04-24T11:34:32.000Z</time>
      </trkpt>
      <trkpt lat="47.28095" lon="-1.35851">
        <ele>51</ele>
        <time>2021-04-24T11:34:34.000Z</time>
      </trkpt>
      <trkpt lat="47.28106" lon="-1.35868">
        <ele>51</ele>
        <time>2021-04-24T11:34:36.000Z</time>
      </trkpt>
      <trkpt lat="47.28116" lon="-1.35884">
        <ele>51</ele>
        <time>2021-04-24T11:34:38.000Z</time>
      </trkpt>
      <trkpt lat="47.28126" lon="-1.359">
        <ele>51</ele>
        <time>2021-04-24T11:34:40.000Z</time>
      </trkpt>
      <trkpt lat="47.28136" lon="-1.35916">
        <ele>51</ele>
        <time>2021-04-24T11:34:42.000Z</time>
      </trkpt>
      <trkpt lat="47.28146" lon="-1.35931">
        <ele>51</ele>
        <time>2021-04-24T11:34:44.000Z</time>
      </trkpt>
      <trkpt lat="47.28156" lon="-1.35947">
        <ele>51</ele>
        <time>2021-04-24T11:34:46.000Z</time>
      </trkpt>
      <trkpt lat="47.28166" lon="-1.35963">
        <ele>50</ele>
        <time>2021-04-24T11:34:48.000Z</time>
      </trkpt>
      <trkpt lat="47.28175" lon="-1.35979">
        <ele>50</ele>
        <time>2021-04-24T11:34:50.000Z</time>
      </trkpt>
      <trkpt lat="47.28184" lon="-1.35996">
        <ele>50</ele>
        <time>2021-04-24T11:34:52.000Z</time>
      </trkpt>
      <trkpt lat="47.28192" lon="-1.36014">
        <ele>50</ele>
        <time>2021-04-24T11:34:54.000Z</time>
      </trkpt>
      <trkpt lat="47.28199" lon="-1.36034">
        <ele>50</ele>
        <time>2021-04-24T11:34:56.000Z</time>
      </trkpt>
      <trkpt lat="47.28206" lon="-1.36054">
        <ele>50</ele>
        <time>2021-04-24T11:34:58.000Z</time>
      </trkpt>
      <trkpt lat="47.28212" lon="-1.36074">
        <ele>50</ele>
        <time>2021-04-24T11:35:00.000Z</time>
      </trkpt>
      <trkpt lat="47.28217" lon="-1.36094">
        <ele>50</ele>
        <time>2021-04-24T11:35:02.000Z</time>
      </trkpt>
      <trkpt lat="47.28222" lon="-1.36113">
        <ele>50</ele>
        <time>2021-04-24T11:35:04.000Z</time>
      </trkpt>
      <trkpt lat="47.28227" lon="-1.36133">
        <ele>49</ele>
        <time>2021-04-24T11:35:06.000Z</time>
      </trkpt>
      <trkpt lat="47.28232" lon="-1.36153">
        <ele>49</ele>
        <time>2021-04-24T11:35:08.000Z</time>
      </trkpt>
      <trkpt lat="47.28237" lon="-1.36173">
        <ele>49</ele>
        <time>2021-04-24T11:35:10.000Z</time>
      </trkpt>
      <trkpt lat="47.28242" lon="-1.36192">
        <ele>49</ele>
        <time>2021-04-24T11:35:12.000Z</time>
      </trkpt>
      <trkpt lat="47.28248" lon="-1.36212">
        <ele>49</ele>
        <time>2021-04-24T11:35:14.000Z</time>
      </trkpt>
      <trkpt lat="47.28253" lon="-1.36232">
        <ele>49</ele>
        <time>2021-04-24T11:35:16.000Z</time>
      </trkpt>
      <trkpt lat="47.28257" lon="-1.36252">
        <ele>49</ele>
        <time>2021-04-24T11:35:18.000Z</time>
      </trkpt>
      <trkpt lat="47.28263" lon="-1.36271">
        <ele>49</ele>
        <time>2021-04-24T11:35:20.000Z</time>
      </trkpt>
      <trkpt lat="47.28269" lon="-1.36291">
        <ele>49</ele>
        <time>2021-04-24T11:35:22.000Z</time>
      </trkpt>
      <trkpt lat="47.28276" lon="-1.3631">
        <ele>49</ele>
        <time>2021-04-24T11:35:24.000Z</time>
      </trkpt>
      <trkpt lat="47.28283" lon="-1.36328">
        <ele>49</ele>
        <time>2021-04-24T11:35:26.000Z</time>
      </trkpt>
      <trkpt lat="47.28291" lon="-1.36345">
        <ele>49</ele>
        <time>2021-04-24T11:35:28.000Z</time>
      </trkpt>
      <trkpt lat="47.28299" lon="-1.36362">
        <ele>49</ele>
        <time>2021-04-24T11:35:30.000Z</time>
      </trkpt>
      <trkpt lat="47.28307" lon="-1.36377">
        <ele>50</ele>
        <time>2021-04-24T11:35:32.000Z</time>
      </trkpt>
      <trkpt lat="47.28316" lon="-1.36394">
        <ele>50</ele>
        <time>2021-04-24T11:35:34.000Z</time>
      </trkpt>
      <trkpt lat="47.28325" lon="-1.36409">
        <ele>50</ele>
        <time>2021-04-24T11:35:36.000Z</time>
      </trkpt>
      <trkpt lat="47.28334" lon="-1.36426">
        <ele>49</ele>
        <time>2021-04-24T11:35:38.000Z</time>
      </trkpt>
      <trkpt lat="47.28342" lon="-1.36442">
        <ele>49</ele>
        <time>2021-04-24T11:35:40.000Z</time>
      </trkpt>
      <trkpt lat="47.28351" lon="-1.36459">
        <ele>49</ele>
        <time>2021-04-24T11:35:42.000Z</time>
      </trkpt>
      <trkpt lat="47.2836" lon="-1.36475">
        <ele>50</ele>
        <time>2021-04-24T11:35:44.000Z</time>
      </trkpt>
      <trkpt lat="47.28368" lon="-1.36492">
        <ele>50</ele>
        <time>2021-04-24T11:35:46.000Z</time>
      </trkpt>
      <trkpt lat="47.28377" lon="-1.36508">
        <ele>50</ele>
        <time>2021-04-24T11:35:48.000Z</time>
      </trkpt>
      <trkpt lat="47.28385" lon="-1.36524">
        <ele>50</ele>
        <time>2021-04-24T11:35:50.000Z</time>
      </trkpt>
      <trkpt lat="47.28393" lon="-1.36538">
        <ele>50</ele>
        <time>2021-04-24T11:35:52.000Z</time>
      </trkpt>
      <trkpt lat="47.28401" lon="-1.36553">
        <ele>51</ele>
        <time>2021-04-24T11:35:54.000Z</time>
      </trkpt>
      <trkpt lat="47.2841" lon="-1.36569">
        <ele>51</ele>
        <time>2021-04-24T11:35:56.000Z</time>
      </trkpt>
      <trkpt lat="47.28418" lon="-1.36585">
        <ele>51</ele>
        <time>2021-04-24T11:35:58.000Z</time>
      </trkpt>
      <trkpt lat="47.28427" lon="-1.366">
        <ele>51</ele>
        <time>2021-04-24T11:36:00.000Z</time>
      </trkpt>
      <trkpt lat="47.28436" lon="-1.36616">
        <ele>51</ele>
        <time>2021-04-24T11:36:02.000Z</time>
      </trkpt>
      <trkpt lat="47.28445" lon="-1.36631">
        <ele>51</ele>
        <time>2021-04-24T11:36:04.000Z</time>
      </trkpt>
      <trkpt lat="47.28454" lon="-1.36647">
        <ele>51</ele>
        <time>2021-04-24T11:36:06.000Z</time>
      </trkpt>
      <trkpt lat="47.28462" lon="-1.36664">
        <ele>51</ele>
        <time>2021-04-24T11:36:08.000Z</time>
      </trkpt>
      <trkpt lat="47.28469" lon="-1.36681">
        <ele>51</ele>
        <time>2021-04-24T11:36:10.000Z</time>
      </trkpt>
      <trkpt lat="47.28474" lon="-1.367">
        <ele>52</ele>
        <time>2021-04-24T11:36:12.000Z</time>
      </trkpt>
      <trkpt lat="47.28478" lon="-1.36719">
        <ele>51</ele>
        <time>2021-04-24T11:36:14.000Z</time>
      </trkpt>
      <trkpt lat="47.28481" lon="-1.3674">
        <ele>52</ele>
        <time>2021-04-24T11:36:16.000Z</time>
      </trkpt>
      <trkpt lat="47.28484" lon="-1.36761">
        <ele>52</ele>
        <time>2021-04-24T11:36:18.000Z</time>
      </trkpt>
      <trkpt lat="47.28488" lon="-1.36782">
        <ele>52</ele>
        <time>2021-04-24T11:36:20.000Z</time>
      </trkpt>
      <trkpt lat="47.28491" lon="-1.36803">
        <ele>51</ele>
        <time>2021-04-24T11:36:22.000Z</time>
      </trkpt>
      <trkpt lat="47.28495" lon="-1.36824">
        <ele>51</ele>
        <time>2021-04-24T11:36:24.000Z</time>
      </trkpt>
      <trkpt lat="47.28499" lon="-1.36843">
        <ele>51</ele>
        <time>2021-04-24T11:36:26.000Z</time>
      </trkpt>
      <trkpt lat="47.28504" lon="-1.36864">
        <ele>51</ele>
        <time>2021-04-24T11:36:28.000Z</time>
      </trkpt>
      <trkpt lat="47.28509" lon="-1.36884">
        <ele>51</ele>
        <time>2021-04-24T11:36:30.000Z</time>
      </trkpt>
      <trkpt lat="47.28513" lon="-1.36904">
        <ele>52</ele>
        <time>2021-04-24T11:36:32.000Z</time>
      </trkpt>
      <trkpt lat="47.28519" lon="-1.36923">
        <ele>52</ele>
        <time>2021-04-24T11:36:34.000Z</time>
      </trkpt>
      <trkpt lat="47.28524" lon="-1.36942">
        <ele>53</ele>
        <time>2021-04-24T11:36:36.000Z</time>
      </trkpt>
      <trkpt lat="47.28531" lon="-1.3696">
        <ele>53</ele>
        <time>2021-04-24T11:36:38.000Z</time>
      </trkpt>
      <trkpt lat="47.28537" lon="-1.36977">
        <ele>53</ele>
        <time>2021-04-24T11:36:40.000Z</time>
      </trkpt>
      <trkpt lat="47.28544" lon="-1.36995">
        <ele>53</ele>
        <time>2021-04-24T11:36:42.000Z</time>
      </trkpt>
      <trkpt lat="47.28552" lon="-1.37013">
        <ele>53</ele>
        <time>2021-04-24T11:36:44.000Z</time>
      </trkpt>
      <trkpt lat="47.2856" lon="-1.3703">
        <ele>53</ele>
        <time>2021-04-24T11:36:46.000Z</time>
      </trkpt>
      <trkpt lat="47.28568" lon="-1.37047">
        <ele>53</ele>
        <time>2021-04-24T11:36:48.000Z</time>
      </trkpt>
      <trkpt lat="47.28576" lon="-1.37064">
        <ele>53</ele>
        <time>2021-04-24T11:36:50.000Z</time>
      </trkpt>
      <trkpt lat="47.28584" lon="-1.3708">
        <ele>53</ele>
        <time>2021-04-24T11:36:52.000Z</time>
      </trkpt>
      <trkpt lat="47.28593" lon="-1.37097">
        <ele>53</ele>
        <time>2021-04-24T11:36:54.000Z</time>
      </trkpt>
      <trkpt lat="47.28601" lon="-1.37115">
        <ele>53</ele>
        <time>2021-04-24T11:36:56.000Z</time>
      </trkpt>
      <trkpt lat="47.28609" lon="-1.37131">
        <ele>53</ele>
        <time>2021-04-24T11:36:58.000Z</time>
      </trkpt>
      <trkpt lat="47.28617" lon="-1.37148">
        <ele>53</ele>
        <time>2021-04-24T11:37:00.000Z</time>
      </trkpt>
      <trkpt lat="47.28626" lon="-1.37164">
        <ele>54</ele>
        <time>2021-04-24T11:37:02.000Z</time>
      </trkpt>
      <trkpt lat="47.28634" lon="-1.3718">
        <ele>53</ele>
        <time>2021-04-24T11:37:04.000Z</time>
      </trkpt>
      <trkpt lat="47.28642" lon="-1.37197">
        <ele>53</ele>
        <time>2021-04-24T11:37:06.000Z</time>
      </trkpt>
      <trkpt lat="47.2865" lon="-1.37213">
        <ele>53</ele>
        <time>2021-04-24T11:37:08.000Z</time>
      </trkpt>
      <trkpt lat="47.28658" lon="-1.3723">
        <ele>53</ele>
        <time>2021-04-24T11:37:10.000Z</time>
      </trkpt>
      <trkpt lat="47.28666" lon="-1.37246">
        <ele>53</ele>
        <time>2021-04-24T11:37:12.000Z</time>
      </trkpt>
      <trkpt lat="47.28674" lon="-1.37262">
        <ele>53</ele>
        <time>2021-04-24T11:37:14.000Z</time>
      </trkpt>
      <trkpt lat="47.28683" lon="-1.37277">
        <ele>53</ele>
        <time>2021-04-24T11:37:16.000Z</time>
      </trkpt>
      <trkpt lat="47.28691" lon="-1.37294">
        <ele>53</ele>
        <time>2021-04-24T11:37:18.000Z</time>
      </trkpt>
      <trkpt lat="47.28699" lon="-1.37311">
        <ele>53</ele>
        <time>2021-04-24T11:37:20.000Z</time>
      </trkpt>
      <trkpt lat="47.28708" lon="-1.37327">
        <ele>53</ele>
        <time>2021-04-24T11:37:22.000Z</time>
      </trkpt>
      <trkpt lat="47.28715" lon="-1.37344">
        <ele>53</ele>
        <time>2021-04-24T11:37:24.000Z</time>
      </trkpt>
      <trkpt lat="47.28724" lon="-1.37359">
        <ele>53</ele>
        <time>2021-04-24T11:37:26.000Z</time>
      </trkpt>
      <trkpt lat="47.28731" lon="-1.37375">
        <ele>53</ele>
        <time>2021-04-24T11:37:28.000Z</time>
      </trkpt>
      <trkpt lat="47.28739" lon="-1.37391">
        <ele>53</ele>
        <time>2021-04-24T11:37:30.000Z</time>
      </trkpt>
      <trkpt lat="47.28747" lon="-1.37407">
        <ele>53</ele>
        <time>2021-04-24T11:37:32.000Z</time>
      </trkpt>
      <trkpt lat="47.28754" lon="-1.37421">
        <ele>53</ele>
        <time>2021-04-24T11:37:34.000Z</time>
      </trkpt>
      <trkpt lat="47.28761" lon="-1.37437">
        <ele>53</ele>
        <time>2021-04-24T11:37:36.000Z</time>
      </trkpt>
      <trkpt lat="47.28769" lon="-1.37452">
        <ele>53</ele>
        <time>2021-04-24T11:37:38.000Z</time>
      </trkpt>
      <trkpt lat="47.28776" lon="-1.37467">
        <ele>53</ele>
        <time>2021-04-24T11:37:40.000Z</time>
      </trkpt>
      <trkpt lat="47.28783" lon="-1.37481">
        <ele>53</ele>
        <time>2021-04-24T11:37:42.000Z</time>
      </trkpt>
      <trkpt lat="47.2879" lon="-1.37495">
        <ele>53</ele>
        <time>2021-04-24T11:37:44.000Z</time>
      </trkpt>
      <trkpt lat="47.28797" lon="-1.37509">
        <ele>54</ele>
        <time>2021-04-24T11:37:46.000Z</time>
      </trkpt>
      <trkpt lat="47.28804" lon="-1.37522">
        <ele>54</ele>
        <time>2021-04-24T11:37:48.000Z</time>
      </trkpt>
      <trkpt lat="47.2881" lon="-1.37534">
        <ele>54</ele>
        <time>2021-04-24T11:37:50.000Z</time>
      </trkpt>
      <trkpt lat="47.28817" lon="-1.37546">
        <ele>54</ele>
        <time>2021-04-24T11:37:52.000Z</time>
      </trkpt>
      <trkpt lat="47.28822" lon="-1.37559">
        <ele>55</ele>
        <time>2021-04-24T11:37:54.000Z</time>
      </trkpt>
      <trkpt lat="47.28833" lon="-1.37572">
        <ele>55</ele>
        <time>2021-04-24T11:37:57.000Z</time>
      </trkpt>
      <trkpt lat="47.28839" lon="-1.37583">
        <ele>55</ele>
        <time>2021-04-24T11:37:59.000Z</time>
      </trkpt>
      <trkpt lat="47.28847" lon="-1.37595">
        <ele>55</ele>
        <time>2021-04-24T11:38:01.000Z</time>
      </trkpt>
      <trkpt lat="47.28855" lon="-1.37605">
        <ele>56</ele>
        <time>2021-04-24T11:38:03.000Z</time>
      </trkpt>
      <trkpt lat="47.28864" lon="-1.37614">
        <ele>56</ele>
        <time>2021-04-24T11:38:05.000Z</time>
      </trkpt>
      <trkpt lat="47.28872" lon="-1.37625">
        <ele>56</ele>
        <time>2021-04-24T11:38:07.000Z</time>
      </trkpt>
      <trkpt lat="47.28881" lon="-1.37635">
        <ele>56</ele>
        <time>2021-04-24T11:38:09.000Z</time>
      </trkpt>
      <trkpt lat="47.28889" lon="-1.37646">
        <ele>57</ele>
        <time>2021-04-24T11:38:11.000Z</time>
      </trkpt>
      <trkpt lat="47.28897" lon="-1.37656">
        <ele>57</ele>
        <time>2021-04-24T11:38:13.000Z</time>
      </trkpt>
      <trkpt lat="47.28904" lon="-1.37666">
        <ele>57</ele>
        <time>2021-04-24T11:38:15.000Z</time>
      </trkpt>
      <trkpt lat="47.28911" lon="-1.37675">
        <ele>57</ele>
        <time>2021-04-24T11:38:17.000Z</time>
      </trkpt>
      <trkpt lat="47.28919" lon="-1.37685">
        <ele>56</ele>
        <time>2021-04-24T11:38:19.000Z</time>
      </trkpt>
      <trkpt lat="47.28928" lon="-1.37696">
        <ele>56</ele>
        <time>2021-04-24T11:38:21.000Z</time>
      </trkpt>
      <trkpt lat="47.28938" lon="-1.37709">
        <ele>56</ele>
        <time>2021-04-24T11:38:23.000Z</time>
      </trkpt>
      <trkpt lat="47.28949" lon="-1.37721">
        <ele>56</ele>
        <time>2021-04-24T11:38:25.000Z</time>
      </trkpt>
      <trkpt lat="47.28958" lon="-1.37733">
        <ele>56</ele>
        <time>2021-04-24T11:38:27.000Z</time>
      </trkpt>
      <trkpt lat="47.28967" lon="-1.37744">
        <ele>56</ele>
        <time>2021-04-24T11:38:29.000Z</time>
      </trkpt>
      <trkpt lat="47.28977" lon="-1.37755">
        <ele>56</ele>
        <time>2021-04-24T11:38:31.000Z</time>
      </trkpt>
      <trkpt lat="47.28986" lon="-1.37767">
        <ele>56</ele>
        <time>2021-04-24T11:38:33.000Z</time>
      </trkpt>
      <trkpt lat="47.28995" lon="-1.37778">
        <ele>56</ele>
        <time>2021-04-24T11:38:35.000Z</time>
      </trkpt>
      <trkpt lat="47.29004" lon="-1.37789">
        <ele>56</ele>
        <time>2021-04-24T11:38:37.000Z</time>
      </trkpt>
      <trkpt lat="47.29013" lon="-1.37801">
        <ele>56</ele>
        <time>2021-04-24T11:38:39.000Z</time>
      </trkpt>
      <trkpt lat="47.29022" lon="-1.37813">
        <ele>56</ele>
        <time>2021-04-24T11:38:41.000Z</time>
      </trkpt>
      <trkpt lat="47.29032" lon="-1.37824">
        <ele>56</ele>
        <time>2021-04-24T11:38:43.000Z</time>
      </trkpt>
      <trkpt lat="47.2904" lon="-1.37835">
        <ele>56</ele>
        <time>2021-04-24T11:38:45.000Z</time>
      </trkpt>
      <trkpt lat="47.29049" lon="-1.37847">
        <ele>55</ele>
        <time>2021-04-24T11:38:47.000Z</time>
      </trkpt>
      <trkpt lat="47.29059" lon="-1.37858">
        <ele>55</ele>
        <time>2021-04-24T11:38:49.000Z</time>
      </trkpt>
      <trkpt lat="47.29068" lon="-1.37869">
        <ele>55</ele>
        <time>2021-04-24T11:38:51.000Z</time>
      </trkpt>
      <trkpt lat="47.29077" lon="-1.37879">
        <ele>55</ele>
        <time>2021-04-24T11:38:53.000Z</time>
      </trkpt>
      <trkpt lat="47.29085" lon="-1.37889">
        <ele>56</ele>
        <time>2021-04-24T11:38:55.000Z</time>
      </trkpt>
      <trkpt lat="47.29094" lon="-1.37897">
        <ele>56</ele>
        <time>2021-04-24T11:38:57.000Z</time>
      </trkpt>
      <trkpt lat="47.29102" lon="-1.37907">
        <ele>56</ele>
        <time>2021-04-24T11:38:59.000Z</time>
      </trkpt>
      <trkpt lat="47.29111" lon="-1.37918">
        <ele>56</ele>
        <time>2021-04-24T11:39:01.000Z</time>
      </trkpt>
      <trkpt lat="47.2912" lon="-1.37929">
        <ele>56</ele>
        <time>2021-04-24T11:39:03.000Z</time>
      </trkpt>
      <trkpt lat="47.29129" lon="-1.3794">
        <ele>56</ele>
        <time>2021-04-24T11:39:05.000Z</time>
      </trkpt>
      <trkpt lat="47.29138" lon="-1.37951">
        <ele>56</ele>
        <time>2021-04-24T11:39:07.000Z</time>
      </trkpt>
      <trkpt lat="47.29146" lon="-1.37962">
        <ele>56</ele>
        <time>2021-04-24T11:39:09.000Z</time>
      </trkpt>
      <trkpt lat="47.29155" lon="-1.37973">
        <ele>56</ele>
        <time>2021-04-24T11:39:11.000Z</time>
      </trkpt>
      <trkpt lat="47.29164" lon="-1.37983">
        <ele>57</ele>
        <time>2021-04-24T11:39:13.000Z</time>
      </trkpt>
      <trkpt lat="47.29173" lon="-1.37994">
        <ele>57</ele>
        <time>2021-04-24T11:39:15.000Z</time>
      </trkpt>
      <trkpt lat="47.29181" lon="-1.38004">
        <ele>57</ele>
        <time>2021-04-24T11:39:17.000Z</time>
      </trkpt>
      <trkpt lat="47.2919" lon="-1.38014">
        <ele>58</ele>
        <time>2021-04-24T11:39:19.000Z</time>
      </trkpt>
      <trkpt lat="47.29198" lon="-1.38024">
        <ele>58</ele>
        <time>2021-04-24T11:39:21.000Z</time>
      </trkpt>
      <trkpt lat="47.29206" lon="-1.38034">
        <ele>58</ele>
        <time>2021-04-24T11:39:23.000Z</time>
      </trkpt>
      <trkpt lat="47.29214" lon="-1.38045">
        <ele>59</ele>
        <time>2021-04-24T11:39:25.000Z</time>
      </trkpt>
      <trkpt lat="47.29223" lon="-1.38054">
        <ele>58</ele>
        <time>2021-04-24T11:39:27.000Z</time>
      </trkpt>
      <trkpt lat="47.29231" lon="-1.38064">
        <ele>59</ele>
        <time>2021-04-24T11:39:29.000Z</time>
      </trkpt>
      <trkpt lat="47.29239" lon="-1.38074">
        <ele>59</ele>
        <time>2021-04-24T11:39:31.000Z</time>
      </trkpt>
      <trkpt lat="47.29248" lon="-1.38084">
        <ele>60</ele>
        <time>2021-04-24T11:39:33.000Z</time>
      </trkpt>
      <trkpt lat="47.29257" lon="-1.38095">
        <ele>60</ele>
        <time>2021-04-24T11:39:35.000Z</time>
      </trkpt>
      <trkpt lat="47.29266" lon="-1.38105">
        <ele>59</ele>
        <time>2021-04-24T11:39:37.000Z</time>
      </trkpt>
      <trkpt lat="47.29275" lon="-1.38116">
        <ele>60</ele>
        <time>2021-04-24T11:39:39.000Z</time>
      </trkpt>
      <trkpt lat="47.29283" lon="-1.38128">
        <ele>59</ele>
        <time>2021-04-24T11:39:41.000Z</time>
      </trkpt>
      <trkpt lat="47.29292" lon="-1.38139">
        <ele>59</ele>
        <time>2021-04-24T11:39:43.000Z</time>
      </trkpt>
      <trkpt lat="47.29301" lon="-1.3815">
        <ele>58</ele>
        <time>2021-04-24T11:39:45.000Z</time>
      </trkpt>
      <trkpt lat="47.29309" lon="-1.38161">
        <ele>59</ele>
        <time>2021-04-24T11:39:47.000Z</time>
      </trkpt>
      <trkpt lat="47.29317" lon="-1.38172">
        <ele>58</ele>
        <time>2021-04-24T11:39:49.000Z</time>
      </trkpt>
      <trkpt lat="47.29326" lon="-1.38182">
        <ele>58</ele>
        <time>2021-04-24T11:39:51.000Z</time>
      </trkpt>
      <trkpt lat="47.29334" lon="-1.38191">
        <ele>58</ele>
        <time>2021-04-24T11:39:53.000Z</time>
      </trkpt>
      <trkpt lat="47.29343" lon="-1.38203">
        <ele>59</ele>
        <time>2021-04-24T11:39:56.000Z</time>
      </trkpt>
      <trkpt lat="47.29351" lon="-1.38213">
        <ele>58</ele>
        <time>2021-04-24T11:39:59.000Z</time>
      </trkpt>
      <trkpt lat="47.2936" lon="-1.38221">
        <ele>58</ele>
        <time>2021-04-24T11:40:01.000Z</time>
      </trkpt>
      <trkpt lat="47.2937" lon="-1.38234">
        <ele>59</ele>
        <time>2021-04-24T11:40:03.000Z</time>
      </trkpt>
      <trkpt lat="47.2938" lon="-1.38246">
        <ele>57</ele>
        <time>2021-04-24T11:40:05.000Z</time>
      </trkpt>
      <trkpt lat="47.2939" lon="-1.38259">
        <ele>57</ele>
        <time>2021-04-24T11:40:07.000Z</time>
      </trkpt>
      <trkpt lat="47.294" lon="-1.38272">
        <ele>57</ele>
        <time>2021-04-24T11:40:09.000Z</time>
      </trkpt>
      <trkpt lat="47.29409" lon="-1.38284">
        <ele>56</ele>
        <time>2021-04-24T11:40:11.000Z</time>
      </trkpt>
      <trkpt lat="47.2942" lon="-1.38297">
        <ele>56</ele>
        <time>2021-04-24T11:40:13.000Z</time>
      </trkpt>
      <trkpt lat="47.2943" lon="-1.38308">
        <ele>55</ele>
        <time>2021-04-24T11:40:15.000Z</time>
      </trkpt>
      <trkpt lat="47.2944" lon="-1.38318">
        <ele>55</ele>
        <time>2021-04-24T11:40:17.000Z</time>
      </trkpt>
      <trkpt lat="47.2944" lon="-1.38336">
        <ele>55</ele>
        <time>2021-04-24T11:40:20.000Z</time>
      </trkpt>
      <trkpt lat="47.29435" lon="-1.38351">
        <ele>55</ele>
        <time>2021-04-24T11:40:22.000Z</time>
      </trkpt>
      <trkpt lat="47.29432" lon="-1.38371">
        <ele>54</ele>
        <time>2021-04-24T11:40:24.000Z</time>
      </trkpt>
      <trkpt lat="47.29427" lon="-1.38392">
        <ele>54</ele>
        <time>2021-04-24T11:40:26.000Z</time>
      </trkpt>
      <trkpt lat="47.29423" lon="-1.38413">
        <ele>54</ele>
        <time>2021-04-24T11:40:28.000Z</time>
      </trkpt>
      <trkpt lat="47.29418" lon="-1.38434">
        <ele>54</ele>
        <time>2021-04-24T11:40:30.000Z</time>
      </trkpt>
      <trkpt lat="47.29413" lon="-1.38455">
        <ele>54</ele>
        <time>2021-04-24T11:40:32.000Z</time>
      </trkpt>
      <trkpt lat="47.29406" lon="-1.38473">
        <ele>54</ele>
        <time>2021-04-24T11:40:34.000Z</time>
      </trkpt>
      <trkpt lat="47.29399" lon="-1.38491">
        <ele>54</ele>
        <time>2021-04-24T11:40:36.000Z</time>
      </trkpt>
      <trkpt lat="47.29392" lon="-1.3851">
        <ele>54</ele>
        <time>2021-04-24T11:40:38.000Z</time>
      </trkpt>
      <trkpt lat="47.29385" lon="-1.38529">
        <ele>54</ele>
        <time>2021-04-24T11:40:40.000Z</time>
      </trkpt>
      <trkpt lat="47.29379" lon="-1.38548">
        <ele>53</ele>
        <time>2021-04-24T11:40:42.000Z</time>
      </trkpt>
      <trkpt lat="47.29372" lon="-1.38568">
        <ele>52</ele>
        <time>2021-04-24T11:40:44.000Z</time>
      </trkpt>
      <trkpt lat="47.29365" lon="-1.3859">
        <ele>52</ele>
        <time>2021-04-24T11:40:46.000Z</time>
      </trkpt>
      <trkpt lat="47.29358" lon="-1.38612">
        <ele>51</ele>
        <time>2021-04-24T11:40:48.000Z</time>
      </trkpt>
      <trkpt lat="47.29351" lon="-1.38634">
        <ele>51</ele>
        <time>2021-04-24T11:40:50.000Z</time>
      </trkpt>
      <trkpt lat="47.29345" lon="-1.38654">
        <ele>50</ele>
        <time>2021-04-24T11:40:52.000Z</time>
      </trkpt>
      <trkpt lat="47.2934" lon="-1.38673">
        <ele>50</ele>
        <time>2021-04-24T11:40:54.000Z</time>
      </trkpt>
      <trkpt lat="47.29333" lon="-1.38691">
        <ele>50</ele>
        <time>2021-04-24T11:40:56.000Z</time>
      </trkpt>
      <trkpt lat="47.29327" lon="-1.3871">
        <ele>49</ele>
        <time>2021-04-24T11:40:58.000Z</time>
      </trkpt>
      <trkpt lat="47.29322" lon="-1.38731">
        <ele>48</ele>
        <time>2021-04-24T11:41:00.000Z</time>
      </trkpt>
      <trkpt lat="47.29319" lon="-1.38753">
        <ele>48</ele>
        <time>2021-04-24T11:41:02.000Z</time>
      </trkpt>
      <trkpt lat="47.29314" lon="-1.38773">
        <ele>49</ele>
        <time>2021-04-24T11:41:04.000Z</time>
      </trkpt>
      <trkpt lat="47.29308" lon="-1.38793">
        <ele>49</ele>
        <time>2021-04-24T11:41:06.000Z</time>
      </trkpt>
      <trkpt lat="47.29303" lon="-1.38813">
        <ele>49</ele>
        <time>2021-04-24T11:41:08.000Z</time>
      </trkpt>
      <trkpt lat="47.29298" lon="-1.38833">
        <ele>50</ele>
        <time>2021-04-24T11:41:10.000Z</time>
      </trkpt>
      <trkpt lat="47.29293" lon="-1.38853">
        <ele>50</ele>
        <time>2021-04-24T11:41:12.000Z</time>
      </trkpt>
      <trkpt lat="47.29287" lon="-1.38873">
        <ele>50</ele>
        <time>2021-04-24T11:41:14.000Z</time>
      </trkpt>
      <trkpt lat="47.29282" lon="-1.38893">
        <ele>51</ele>
        <time>2021-04-24T11:41:16.000Z</time>
      </trkpt>
      <trkpt lat="47.29278" lon="-1.38913">
        <ele>51</ele>
        <time>2021-04-24T11:41:18.000Z</time>
      </trkpt>
      <trkpt lat="47.29272" lon="-1.38931">
        <ele>51</ele>
        <time>2021-04-24T11:41:20.000Z</time>
      </trkpt>
      <trkpt lat="47.29267" lon="-1.38951">
        <ele>51</ele>
        <time>2021-04-24T11:41:22.000Z</time>
      </trkpt>
      <trkpt lat="47.29262" lon="-1.3897">
        <ele>51</ele>
        <time>2021-04-24T11:41:24.000Z</time>
      </trkpt>
      <trkpt lat="47.29256" lon="-1.38989">
        <ele>52</ele>
        <time>2021-04-24T11:41:26.000Z</time>
      </trkpt>
      <trkpt lat="47.29251" lon="-1.39009">
        <ele>52</ele>
        <time>2021-04-24T11:41:28.000Z</time>
      </trkpt>
      <trkpt lat="47.29246" lon="-1.39029">
        <ele>53</ele>
        <time>2021-04-24T11:41:30.000Z</time>
      </trkpt>
      <trkpt lat="47.29241" lon="-1.39049">
        <ele>53</ele>
        <time>2021-04-24T11:41:32.000Z</time>
      </trkpt>
      <trkpt lat="47.29235" lon="-1.39069">
        <ele>53</ele>
        <time>2021-04-24T11:41:34.000Z</time>
      </trkpt>
      <trkpt lat="47.29228" lon="-1.39087">
        <ele>53</ele>
        <time>2021-04-24T11:41:36.000Z</time>
      </trkpt>
      <trkpt lat="47.2922" lon="-1.39105">
        <ele>53</ele>
        <time>2021-04-24T11:41:38.000Z</time>
      </trkpt>
      <trkpt lat="47.2921" lon="-1.39121">
        <ele>53</ele>
        <time>2021-04-24T11:41:40.000Z</time>
      </trkpt>
      <trkpt lat="47.29199" lon="-1.39136">
        <ele>53</ele>
        <time>2021-04-24T11:41:42.000Z</time>
      </trkpt>
      <trkpt lat="47.29188" lon="-1.39151">
        <ele>53</ele>
        <time>2021-04-24T11:41:44.000Z</time>
      </trkpt>
      <trkpt lat="47.29176" lon="-1.39164">
        <ele>54</ele>
        <time>2021-04-24T11:41:46.000Z</time>
      </trkpt>
      <trkpt lat="47.29165" lon="-1.39177">
        <ele>54</ele>
        <time>2021-04-24T11:41:48.000Z</time>
      </trkpt>
      <trkpt lat="47.29154" lon="-1.39191">
        <ele>53</ele>
        <time>2021-04-24T11:41:50.000Z</time>
      </trkpt>
      <trkpt lat="47.29143" lon="-1.39204">
        <ele>53</ele>
        <time>2021-04-24T11:41:52.000Z</time>
      </trkpt>
      <trkpt lat="47.29132" lon="-1.39218">
        <ele>53</ele>
        <time>2021-04-24T11:41:54.000Z</time>
      </trkpt>
      <trkpt lat="47.29121" lon="-1.39232">
        <ele>53</ele>
        <time>2021-04-24T11:41:56.000Z</time>
      </trkpt>
      <trkpt lat="47.2911" lon="-1.39246">
        <ele>53</ele>
        <time>2021-04-24T11:41:58.000Z</time>
      </trkpt>
      <trkpt lat="47.29101" lon="-1.39261">
        <ele>54</ele>
        <time>2021-04-24T11:42:00.000Z</time>
      </trkpt>
      <trkpt lat="47.29093" lon="-1.39277">
        <ele>53</ele>
        <time>2021-04-24T11:42:02.000Z</time>
      </trkpt>
      <trkpt lat="47.29084" lon="-1.39292">
        <ele>53</ele>
        <time>2021-04-24T11:42:04.000Z</time>
      </trkpt>
      <trkpt lat="47.29073" lon="-1.39304">
        <ele>54</ele>
        <time>2021-04-24T11:42:06.000Z</time>
      </trkpt>
      <trkpt lat="47.29061" lon="-1.39315">
        <ele>54</ele>
        <time>2021-04-24T11:42:08.000Z</time>
      </trkpt>
      <trkpt lat="47.2905" lon="-1.39327">
        <ele>55</ele>
        <time>2021-04-24T11:42:10.000Z</time>
      </trkpt>
      <trkpt lat="47.29039" lon="-1.3934">
        <ele>55</ele>
        <time>2021-04-24T11:42:12.000Z</time>
      </trkpt>
      <trkpt lat="47.29029" lon="-1.39353">
        <ele>55</ele>
        <time>2021-04-24T11:42:14.000Z</time>
      </trkpt>
      <trkpt lat="47.29019" lon="-1.39367">
        <ele>56</ele>
        <time>2021-04-24T11:42:16.000Z</time>
      </trkpt>
      <trkpt lat="47.29009" lon="-1.39383">
        <ele>56</ele>
        <time>2021-04-24T11:42:18.000Z</time>
      </trkpt>
      <trkpt lat="47.28999" lon="-1.39397">
        <ele>56</ele>
        <time>2021-04-24T11:42:20.000Z</time>
      </trkpt>
      <trkpt lat="47.28988" lon="-1.3941">
        <ele>55</ele>
        <time>2021-04-24T11:42:22.000Z</time>
      </trkpt>
      <trkpt lat="47.28978" lon="-1.39424">
        <ele>55</ele>
        <time>2021-04-24T11:42:24.000Z</time>
      </trkpt>
      <trkpt lat="47.28967" lon="-1.39438">
        <ele>55</ele>
        <time>2021-04-24T11:42:26.000Z</time>
      </trkpt>
      <trkpt lat="47.28957" lon="-1.39451">
        <ele>55</ele>
        <time>2021-04-24T11:42:28.000Z</time>
      </trkpt>
      <trkpt lat="47.28946" lon="-1.39464">
        <ele>55</ele>
        <time>2021-04-24T11:42:30.000Z</time>
      </trkpt>
      <trkpt lat="47.28935" lon="-1.39478">
        <ele>55</ele>
        <time>2021-04-24T11:42:32.000Z</time>
      </trkpt>
      <trkpt lat="47.28923" lon="-1.3949">
        <ele>55</ele>
        <time>2021-04-24T11:42:34.000Z</time>
      </trkpt>
      <trkpt lat="47.28911" lon="-1.39505">
        <ele>55</ele>
        <time>2021-04-24T11:42:36.000Z</time>
      </trkpt>
      <trkpt lat="47.289" lon="-1.39517">
        <ele>56</ele>
        <time>2021-04-24T11:42:38.000Z</time>
      </trkpt>
      <trkpt lat="47.28888" lon="-1.39531">
        <ele>56</ele>
        <time>2021-04-24T11:42:40.000Z</time>
      </trkpt>
      <trkpt lat="47.28877" lon="-1.39544">
        <ele>56</ele>
        <time>2021-04-24T11:42:42.000Z</time>
      </trkpt>
      <trkpt lat="47.28866" lon="-1.39557">
        <ele>56</ele>
        <time>2021-04-24T11:42:44.000Z</time>
      </trkpt>
      <trkpt lat="47.28856" lon="-1.39569">
        <ele>55</ele>
        <time>2021-04-24T11:42:46.000Z</time>
      </trkpt>
      <trkpt lat="47.28845" lon="-1.39582">
        <ele>55</ele>
        <time>2021-04-24T11:42:48.000Z</time>
      </trkpt>
      <trkpt lat="47.28834" lon="-1.39596">
        <ele>55</ele>
        <time>2021-04-24T11:42:50.000Z</time>
      </trkpt>
      <trkpt lat="47.28823" lon="-1.39608">
        <ele>55</ele>
        <time>2021-04-24T11:42:52.000Z</time>
      </trkpt>
      <trkpt lat="47.28811" lon="-1.39621">
        <ele>55</ele>
        <time>2021-04-24T11:42:54.000Z</time>
      </trkpt>
      <trkpt lat="47.288" lon="-1.39634">
        <ele>54</ele>
        <time>2021-04-24T11:42:56.000Z</time>
      </trkpt>
      <trkpt lat="47.28789" lon="-1.39648">
        <ele>54</ele>
        <time>2021-04-24T11:42:58.000Z</time>
      </trkpt>
      <trkpt lat="47.28778" lon="-1.39661">
        <ele>54</ele>
        <time>2021-04-24T11:43:00.000Z</time>
      </trkpt>
      <trkpt lat="47.28766" lon="-1.39675">
        <ele>55</ele>
        <time>2021-04-24T11:43:02.000Z</time>
      </trkpt>
      <trkpt lat="47.28756" lon="-1.39688">
        <ele>55</ele>
        <time>2021-04-24T11:43:04.000Z</time>
      </trkpt>
      <trkpt lat="47.28746" lon="-1.39701">
        <ele>55</ele>
        <time>2021-04-24T11:43:06.000Z</time>
      </trkpt>
      <trkpt lat="47.28736" lon="-1.39713">
        <ele>55</ele>
        <time>2021-04-24T11:43:08.000Z</time>
      </trkpt>
      <trkpt lat="47.28725" lon="-1.39725">
        <ele>55</ele>
        <time>2021-04-24T11:43:10.000Z</time>
      </trkpt>
      <trkpt lat="47.28715" lon="-1.39738">
        <ele>55</ele>
        <time>2021-04-24T11:43:12.000Z</time>
      </trkpt>
      <trkpt lat="47.28706" lon="-1.3975">
        <ele>55</ele>
        <time>2021-04-24T11:43:14.000Z</time>
      </trkpt>
      <trkpt lat="47.28696" lon="-1.39763">
        <ele>54</ele>
        <time>2021-04-24T11:43:16.000Z</time>
      </trkpt>
      <trkpt lat="47.28685" lon="-1.39775">
        <ele>54</ele>
        <time>2021-04-24T11:43:18.000Z</time>
      </trkpt>
      <trkpt lat="47.28676" lon="-1.39788">
        <ele>54</ele>
        <time>2021-04-24T11:43:20.000Z</time>
      </trkpt>
      <trkpt lat="47.28666" lon="-1.39801">
        <ele>54</ele>
        <time>2021-04-24T11:43:22.000Z</time>
      </trkpt>
      <trkpt lat="47.28657" lon="-1.39815">
        <ele>53</ele>
        <time>2021-04-24T11:43:24.000Z</time>
      </trkpt>
      <trkpt lat="47.28648" lon="-1.39829">
        <ele>53</ele>
        <time>2021-04-24T11:43:26.000Z</time>
      </trkpt>
      <trkpt lat="47.28638" lon="-1.39844">
        <ele>53</ele>
        <time>2021-04-24T11:43:28.000Z</time>
      </trkpt>
      <trkpt lat="47.28628" lon="-1.39859">
        <ele>53</ele>
        <time>2021-04-24T11:43:30.000Z</time>
      </trkpt>
      <trkpt lat="47.2862" lon="-1.39872">
        <ele>53</ele>
        <time>2021-04-24T11:43:32.000Z</time>
      </trkpt>
      <trkpt lat="47.2861" lon="-1.39886">
        <ele>53</ele>
        <time>2021-04-24T11:43:34.000Z</time>
      </trkpt>
      <trkpt lat="47.28602" lon="-1.399">
        <ele>53</ele>
        <time>2021-04-24T11:43:36.000Z</time>
      </trkpt>
      <trkpt lat="47.28592" lon="-1.39913">
        <ele>53</ele>
        <time>2021-04-24T11:43:38.000Z</time>
      </trkpt>
      <trkpt lat="47.28583" lon="-1.39927">
        <ele>52</ele>
        <time>2021-04-24T11:43:40.000Z</time>
      </trkpt>
      <trkpt lat="47.28574" lon="-1.39941">
        <ele>53</ele>
        <time>2021-04-24T11:43:42.000Z</time>
      </trkpt>
      <trkpt lat="47.28565" lon="-1.39954">
        <ele>52</ele>
        <time>2021-04-24T11:43:44.000Z</time>
      </trkpt>
      <trkpt lat="47.28556" lon="-1.39968">
        <ele>52</ele>
        <time>2021-04-24T11:43:46.000Z</time>
      </trkpt>
      <trkpt lat="47.28546" lon="-1.39982">
        <ele>52</ele>
        <time>2021-04-24T11:43:48.000Z</time>
      </trkpt>
      <trkpt lat="47.28536" lon="-1.39996">
        <ele>52</ele>
        <time>2021-04-24T11:43:50.000Z</time>
      </trkpt>
      <trkpt lat="47.28527" lon="-1.40008">
        <ele>52</ele>
        <time>2021-04-24T11:43:52.000Z</time>
      </trkpt>
      <trkpt lat="47.28519" lon="-1.40021">
        <ele>52</ele>
        <time>2021-04-24T11:43:54.000Z</time>
      </trkpt>
      <trkpt lat="47.2851" lon="-1.40035">
        <ele>52</ele>
        <time>2021-04-24T11:43:56.000Z</time>
      </trkpt>
      <trkpt lat="47.28503" lon="-1.40048">
        <ele>51</ele>
        <time>2021-04-24T11:43:58.000Z</time>
      </trkpt>
      <trkpt lat="47.28498" lon="-1.40064">
        <ele>51</ele>
        <time>2021-04-24T11:44:00.000Z</time>
      </trkpt>
      <trkpt lat="47.28491" lon="-1.40079">
        <ele>51</ele>
        <time>2021-04-24T11:44:02.000Z</time>
      </trkpt>
      <trkpt lat="47.28485" lon="-1.40094">
        <ele>51</ele>
        <time>2021-04-24T11:44:04.000Z</time>
      </trkpt>
      <trkpt lat="47.28479" lon="-1.4011">
        <ele>51</ele>
        <time>2021-04-24T11:44:06.000Z</time>
      </trkpt>
      <trkpt lat="47.28474" lon="-1.40127">
        <ele>50</ele>
        <time>2021-04-24T11:44:08.000Z</time>
      </trkpt>
      <trkpt lat="47.28467" lon="-1.40145">
        <ele>50</ele>
        <time>2021-04-24T11:44:10.000Z</time>
      </trkpt>
      <trkpt lat="47.28459" lon="-1.40162">
        <ele>50</ele>
        <time>2021-04-24T11:44:12.000Z</time>
      </trkpt>
      <trkpt lat="47.28451" lon="-1.40181">
        <ele>50</ele>
        <time>2021-04-24T11:44:14.000Z</time>
      </trkpt>
      <trkpt lat="47.28444" lon="-1.40198">
        <ele>50</ele>
        <time>2021-04-24T11:44:16.000Z</time>
      </trkpt>
      <trkpt lat="47.28437" lon="-1.40214">
        <ele>50</ele>
        <time>2021-04-24T11:44:18.000Z</time>
      </trkpt>
      <trkpt lat="47.28433" lon="-1.4023">
        <ele>50</ele>
        <time>2021-04-24T11:44:20.000Z</time>
      </trkpt>
      <trkpt lat="47.28428" lon="-1.40245">
        <ele>49</ele>
        <time>2021-04-24T11:44:22.000Z</time>
      </trkpt>
      <trkpt lat="47.2842" lon="-1.40263">
        <ele>49</ele>
        <time>2021-04-24T11:44:24.000Z</time>
      </trkpt>
      <trkpt lat="47.2841" lon="-1.40281">
        <ele>49</ele>
        <time>2021-04-24T11:44:26.000Z</time>
      </trkpt>
      <trkpt lat="47.284" lon="-1.40298">
        <ele>49</ele>
        <time>2021-04-24T11:44:28.000Z</time>
      </trkpt>
      <trkpt lat="47.2839" lon="-1.40314">
        <ele>49</ele>
        <time>2021-04-24T11:44:30.000Z</time>
      </trkpt>
      <trkpt lat="47.2838" lon="-1.40329">
        <ele>49</ele>
        <time>2021-04-24T11:44:32.000Z</time>
      </trkpt>
      <trkpt lat="47.2837" lon="-1.40344">
        <ele>49</ele>
        <time>2021-04-24T11:44:34.000Z</time>
      </trkpt>
      <trkpt lat="47.28359" lon="-1.40358">
        <ele>50</ele>
        <time>2021-04-24T11:44:36.000Z</time>
      </trkpt>
      <trkpt lat="47.28349" lon="-1.40373">
        <ele>50</ele>
        <time>2021-04-24T11:44:38.000Z</time>
      </trkpt>
      <trkpt lat="47.28338" lon="-1.40386">
        <ele>50</ele>
        <time>2021-04-24T11:44:40.000Z</time>
      </trkpt>
      <trkpt lat="47.28327" lon="-1.404">
        <ele>50</ele>
        <time>2021-04-24T11:44:42.000Z</time>
      </trkpt>
      <trkpt lat="47.28316" lon="-1.40412">
        <ele>50</ele>
        <time>2021-04-24T11:44:44.000Z</time>
      </trkpt>
      <trkpt lat="47.28305" lon="-1.40425">
        <ele>50</ele>
        <time>2021-04-24T11:44:46.000Z</time>
      </trkpt>
      <trkpt lat="47.28293" lon="-1.40437">
        <ele>50</ele>
        <time>2021-04-24T11:44:48.000Z</time>
      </trkpt>
      <trkpt lat="47.28281" lon="-1.40448">
        <ele>51</ele>
        <time>2021-04-24T11:44:50.000Z</time>
      </trkpt>
      <trkpt lat="47.28269" lon="-1.40459">
        <ele>50</ele>
        <time>2021-04-24T11:44:52.000Z</time>
      </trkpt>
      <trkpt lat="47.28259" lon="-1.4047">
        <ele>51</ele>
        <time>2021-04-24T11:44:54.000Z</time>
      </trkpt>
      <trkpt lat="47.28248" lon="-1.40482">
        <ele>51</ele>
        <time>2021-04-24T11:44:56.000Z</time>
      </trkpt>
      <trkpt lat="47.28237" lon="-1.40492">
        <ele>51</ele>
        <time>2021-04-24T11:44:58.000Z</time>
      </trkpt>
      <trkpt lat="47.28226" lon="-1.40503">
        <ele>51</ele>
        <time>2021-04-24T11:45:00.000Z</time>
      </trkpt>
      <trkpt lat="47.28215" lon="-1.40513">
        <ele>50</ele>
        <time>2021-04-24T11:45:02.000Z</time>
      </trkpt>
      <trkpt lat="47.28203" lon="-1.40525">
        <ele>50</ele>
        <time>2021-04-24T11:45:04.000Z</time>
      </trkpt>
      <trkpt lat="47.28191" lon="-1.40535">
        <ele>50</ele>
        <time>2021-04-24T11:45:06.000Z</time>
      </trkpt>
      <trkpt lat="47.2818" lon="-1.40546">
        <ele>51</ele>
        <time>2021-04-24T11:45:08.000Z</time>
      </trkpt>
      <trkpt lat="47.28168" lon="-1.40557">
        <ele>51</ele>
        <time>2021-04-24T11:45:10.000Z</time>
      </trkpt>
      <trkpt lat="47.28156" lon="-1.40568">
        <ele>51</ele>
        <time>2021-04-24T11:45:12.000Z</time>
      </trkpt>
      <trkpt lat="47.28144" lon="-1.40579">
        <ele>51</ele>
        <time>2021-04-24T11:45:14.000Z</time>
      </trkpt>
      <trkpt lat="47.28132" lon="-1.4059">
        <ele>51</ele>
        <time>2021-04-24T11:45:16.000Z</time>
      </trkpt>
      <trkpt lat="47.28121" lon="-1.40601">
        <ele>51</ele>
        <time>2021-04-24T11:45:18.000Z</time>
      </trkpt>
      <trkpt lat="47.2811" lon="-1.40612">
        <ele>51</ele>
        <time>2021-04-24T11:45:20.000Z</time>
      </trkpt>
      <trkpt lat="47.28098" lon="-1.40623">
        <ele>51</ele>
        <time>2021-04-24T11:45:22.000Z</time>
      </trkpt>
      <trkpt lat="47.28087" lon="-1.40635">
        <ele>51</ele>
        <time>2021-04-24T11:45:24.000Z</time>
      </trkpt>
      <trkpt lat="47.28075" lon="-1.40646">
        <ele>52</ele>
        <time>2021-04-24T11:45:26.000Z</time>
      </trkpt>
      <trkpt lat="47.28063" lon="-1.40657">
        <ele>52</ele>
        <time>2021-04-24T11:45:28.000Z</time>
      </trkpt>
      <trkpt lat="47.28051" lon="-1.40668">
        <ele>52</ele>
        <time>2021-04-24T11:45:30.000Z</time>
      </trkpt>
      <trkpt lat="47.28039" lon="-1.40681">
        <ele>52</ele>
        <time>2021-04-24T11:45:32.000Z</time>
      </trkpt>
      <trkpt lat="47.28028" lon="-1.40693">
        <ele>52</ele>
        <time>2021-04-24T11:45:34.000Z</time>
      </trkpt>
      <trkpt lat="47.28016" lon="-1.40705">
        <ele>52</ele>
        <time>2021-04-24T11:45:36.000Z</time>
      </trkpt>
      <trkpt lat="47.28004" lon="-1.40716">
        <ele>52</ele>
        <time>2021-04-24T11:45:38.000Z</time>
      </trkpt>
      <trkpt lat="47.27993" lon="-1.40726">
        <ele>52</ele>
        <time>2021-04-24T11:45:40.000Z</time>
      </trkpt>
      <trkpt lat="47.27981" lon="-1.40738">
        <ele>52</ele>
        <time>2021-04-24T11:45:42.000Z</time>
      </trkpt>
      <trkpt lat="47.27969" lon="-1.40749">
        <ele>52</ele>
        <time>2021-04-24T11:45:44.000Z</time>
      </trkpt>
      <trkpt lat="47.27957" lon="-1.40761">
        <ele>52</ele>
        <time>2021-04-24T11:45:46.000Z</time>
      </trkpt>
      <trkpt lat="47.27945" lon="-1.40772">
        <ele>52</ele>
        <time>2021-04-24T11:45:48.000Z</time>
      </trkpt>
      <trkpt lat="47.27933" lon="-1.40783">
        <ele>52</ele>
        <time>2021-04-24T11:45:50.000Z</time>
      </trkpt>
      <trkpt lat="47.27921" lon="-1.40794">
        <ele>52</ele>
        <time>2021-04-24T11:45:52.000Z</time>
      </trkpt>
      <trkpt lat="47.27909" lon="-1.40806">
        <ele>52</ele>
        <time>2021-04-24T11:45:54.000Z</time>
      </trkpt>
      <trkpt lat="47.27898" lon="-1.40818">
        <ele>52</ele>
        <time>2021-04-24T11:45:56.000Z</time>
      </trkpt>
      <trkpt lat="47.27887" lon="-1.40831">
        <ele>52</ele>
        <time>2021-04-24T11:45:58.000Z</time>
      </trkpt>
      <trkpt lat="47.27878" lon="-1.40846">
        <ele>52</ele>
        <time>2021-04-24T11:46:00.000Z</time>
      </trkpt>
      <trkpt lat="47.27868" lon="-1.40862">
        <ele>52</ele>
        <time>2021-04-24T11:46:02.000Z</time>
      </trkpt>
      <trkpt lat="47.27859" lon="-1.40879">
        <ele>52</ele>
        <time>2021-04-24T11:46:04.000Z</time>
      </trkpt>
      <trkpt lat="47.2785" lon="-1.40898">
        <ele>52</ele>
        <time>2021-04-24T11:46:06.000Z</time>
      </trkpt>
      <trkpt lat="47.27842" lon="-1.40917">
        <ele>52</ele>
        <time>2021-04-24T11:46:08.000Z</time>
      </trkpt>
      <trkpt lat="47.27834" lon="-1.40936">
        <ele>52</ele>
        <time>2021-04-24T11:46:10.000Z</time>
      </trkpt>
      <trkpt lat="47.27826" lon="-1.40954">
        <ele>52</ele>
        <time>2021-04-24T11:46:12.000Z</time>
      </trkpt>
      <trkpt lat="47.27817" lon="-1.40972">
        <ele>52</ele>
        <time>2021-04-24T11:46:14.000Z</time>
      </trkpt>
      <trkpt lat="47.27806" lon="-1.40989">
        <ele>53</ele>
        <time>2021-04-24T11:46:16.000Z</time>
      </trkpt>
      <trkpt lat="47.27796" lon="-1.41005">
        <ele>52</ele>
        <time>2021-04-24T11:46:18.000Z</time>
      </trkpt>
      <trkpt lat="47.27785" lon="-1.4102">
        <ele>52</ele>
        <time>2021-04-24T11:46:20.000Z</time>
      </trkpt>
      <trkpt lat="47.27777" lon="-1.41038">
        <ele>52</ele>
        <time>2021-04-24T11:46:22.000Z</time>
      </trkpt>
      <trkpt lat="47.2777" lon="-1.41057">
        <ele>53</ele>
        <time>2021-04-24T11:46:24.000Z</time>
      </trkpt>
      <trkpt lat="47.2776" lon="-1.41074">
        <ele>53</ele>
        <time>2021-04-24T11:46:26.000Z</time>
      </trkpt>
      <trkpt lat="47.27747" lon="-1.41086">
        <ele>53</ele>
        <time>2021-04-24T11:46:28.000Z</time>
      </trkpt>
      <trkpt lat="47.27734" lon="-1.41099">
        <ele>53</ele>
        <time>2021-04-24T11:46:30.000Z</time>
      </trkpt>
      <trkpt lat="47.27722" lon="-1.41111">
        <ele>53</ele>
        <time>2021-04-24T11:46:32.000Z</time>
      </trkpt>
      <trkpt lat="47.27711" lon="-1.41124">
        <ele>53</ele>
        <time>2021-04-24T11:46:34.000Z</time>
      </trkpt>
      <trkpt lat="47.27699" lon="-1.41136">
        <ele>54</ele>
        <time>2021-04-24T11:46:36.000Z</time>
      </trkpt>
      <trkpt lat="47.27687" lon="-1.4115">
        <ele>53</ele>
        <time>2021-04-24T11:46:38.000Z</time>
      </trkpt>
      <trkpt lat="47.27676" lon="-1.41163">
        <ele>53</ele>
        <time>2021-04-24T11:46:40.000Z</time>
      </trkpt>
      <trkpt lat="47.27664" lon="-1.41177">
        <ele>53</ele>
        <time>2021-04-24T11:46:42.000Z</time>
      </trkpt>
      <trkpt lat="47.27652" lon="-1.4119">
        <ele>53</ele>
        <time>2021-04-24T11:46:44.000Z</time>
      </trkpt>
      <trkpt lat="47.27641" lon="-1.41201">
        <ele>53</ele>
        <time>2021-04-24T11:46:46.000Z</time>
      </trkpt>
      <trkpt lat="47.27628" lon="-1.41212">
        <ele>53</ele>
        <time>2021-04-24T11:46:48.000Z</time>
      </trkpt>
      <trkpt lat="47.27616" lon="-1.41224">
        <ele>53</ele>
        <time>2021-04-24T11:46:50.000Z</time>
      </trkpt>
      <trkpt lat="47.27604" lon="-1.41236">
        <ele>54</ele>
        <time>2021-04-24T11:46:52.000Z</time>
      </trkpt>
      <trkpt lat="47.27592" lon="-1.4125">
        <ele>54</ele>
        <time>2021-04-24T11:46:54.000Z</time>
      </trkpt>
      <trkpt lat="47.2758" lon="-1.41263">
        <ele>54</ele>
        <time>2021-04-24T11:46:56.000Z</time>
      </trkpt>
      <trkpt lat="47.27569" lon="-1.41277">
        <ele>53</ele>
        <time>2021-04-24T11:46:58.000Z</time>
      </trkpt>
      <trkpt lat="47.27558" lon="-1.41291">
        <ele>53</ele>
        <time>2021-04-24T11:47:00.000Z</time>
      </trkpt>
      <trkpt lat="47.27547" lon="-1.41305">
        <ele>53</ele>
        <time>2021-04-24T11:47:02.000Z</time>
      </trkpt>
      <trkpt lat="47.27535" lon="-1.4132">
        <ele>53</ele>
        <time>2021-04-24T11:47:04.000Z</time>
      </trkpt>
      <trkpt lat="47.27525" lon="-1.41334">
        <ele>53</ele>
        <time>2021-04-24T11:47:06.000Z</time>
      </trkpt>
      <trkpt lat="47.27514" lon="-1.41349">
        <ele>52</ele>
        <time>2021-04-24T11:47:08.000Z</time>
      </trkpt>
      <trkpt lat="47.27504" lon="-1.41364">
        <ele>52</ele>
        <time>2021-04-24T11:47:10.000Z</time>
      </trkpt>
      <trkpt lat="47.27494" lon="-1.41379">
        <ele>52</ele>
        <time>2021-04-24T11:47:12.000Z</time>
      </trkpt>
      <trkpt lat="47.27484" lon="-1.41395">
        <ele>52</ele>
        <time>2021-04-24T11:47:14.000Z</time>
      </trkpt>
      <trkpt lat="47.27475" lon="-1.41411">
        <ele>53</ele>
        <time>2021-04-24T11:47:16.000Z</time>
      </trkpt>
      <trkpt lat="47.27465" lon="-1.41427">
        <ele>53</ele>
        <time>2021-04-24T11:47:18.000Z</time>
      </trkpt>
      <trkpt lat="47.27457" lon="-1.41443">
        <ele>53</ele>
        <time>2021-04-24T11:47:20.000Z</time>
      </trkpt>
      <trkpt lat="47.27448" lon="-1.41459">
        <ele>53</ele>
        <time>2021-04-24T11:47:22.000Z</time>
      </trkpt>
      <trkpt lat="47.27439" lon="-1.41475">
        <ele>53</ele>
        <time>2021-04-24T11:47:24.000Z</time>
      </trkpt>
      <trkpt lat="47.2743" lon="-1.41491">
        <ele>53</ele>
        <time>2021-04-24T11:47:26.000Z</time>
      </trkpt>
      <trkpt lat="47.27421" lon="-1.41507">
        <ele>53</ele>
        <time>2021-04-24T11:47:28.000Z</time>
      </trkpt>
      <trkpt lat="47.27412" lon="-1.41523">
        <ele>54</ele>
        <time>2021-04-24T11:47:30.000Z</time>
      </trkpt>
      <trkpt lat="47.27403" lon="-1.41539">
        <ele>54</ele>
        <time>2021-04-24T11:47:32.000Z</time>
      </trkpt>
      <trkpt lat="47.27394" lon="-1.41554">
        <ele>54</ele>
        <time>2021-04-24T11:47:34.000Z</time>
      </trkpt>
      <trkpt lat="47.27385" lon="-1.41569">
        <ele>54</ele>
        <time>2021-04-24T11:47:36.000Z</time>
      </trkpt>
      <trkpt lat="47.27375" lon="-1.41583">
        <ele>54</ele>
        <time>2021-04-24T11:47:38.000Z</time>
      </trkpt>
      <trkpt lat="47.27361" lon="-1.41605">
        <ele>55</ele>
        <time>2021-04-24T11:47:41.000Z</time>
      </trkpt>
      <trkpt lat="47.2735" lon="-1.4162">
        <ele>54</ele>
        <time>2021-04-24T11:47:43.000Z</time>
      </trkpt>
      <trkpt lat="47.27339" lon="-1.41635">
        <ele>54</ele>
        <time>2021-04-24T11:47:45.000Z</time>
      </trkpt>
      <trkpt lat="47.27329" lon="-1.41651">
        <ele>54</ele>
        <time>2021-04-24T11:47:47.000Z</time>
      </trkpt>
      <trkpt lat="47.2732" lon="-1.41667">
        <ele>54</ele>
        <time>2021-04-24T11:47:49.000Z</time>
      </trkpt>
      <trkpt lat="47.27306" lon="-1.41691">
        <ele>54</ele>
        <time>2021-04-24T11:47:52.000Z</time>
      </trkpt>
      <trkpt lat="47.27297" lon="-1.41708">
        <ele>54</ele>
        <time>2021-04-24T11:47:54.000Z</time>
      </trkpt>
      <trkpt lat="47.27289" lon="-1.41726">
        <ele>54</ele>
        <time>2021-04-24T11:47:56.000Z</time>
      </trkpt>
      <trkpt lat="47.2728" lon="-1.41744">
        <ele>54</ele>
        <time>2021-04-24T11:47:58.000Z</time>
      </trkpt>
      <trkpt lat="47.27271" lon="-1.41761">
        <ele>53</ele>
        <time>2021-04-24T11:48:00.000Z</time>
      </trkpt>
      <trkpt lat="47.27262" lon="-1.41778">
        <ele>53</ele>
        <time>2021-04-24T11:48:02.000Z</time>
      </trkpt>
      <trkpt lat="47.27253" lon="-1.41795">
        <ele>53</ele>
        <time>2021-04-24T11:48:04.000Z</time>
      </trkpt>
      <trkpt lat="47.27244" lon="-1.41811">
        <ele>53</ele>
        <time>2021-04-24T11:48:06.000Z</time>
      </trkpt>
      <trkpt lat="47.27234" lon="-1.41829">
        <ele>53</ele>
        <time>2021-04-24T11:48:08.000Z</time>
      </trkpt>
      <trkpt lat="47.27225" lon="-1.41846">
        <ele>53</ele>
        <time>2021-04-24T11:48:10.000Z</time>
      </trkpt>
      <trkpt lat="47.27215" lon="-1.41863">
        <ele>53</ele>
        <time>2021-04-24T11:48:12.000Z</time>
      </trkpt>
      <trkpt lat="47.27206" lon="-1.4188">
        <ele>53</ele>
        <time>2021-04-24T11:48:14.000Z</time>
      </trkpt>
      <trkpt lat="47.27196" lon="-1.41896">
        <ele>53</ele>
        <time>2021-04-24T11:48:16.000Z</time>
      </trkpt>
      <trkpt lat="47.27186" lon="-1.41913">
        <ele>53</ele>
        <time>2021-04-24T11:48:18.000Z</time>
      </trkpt>
      <trkpt lat="47.27176" lon="-1.4193">
        <ele>53</ele>
        <time>2021-04-24T11:48:20.000Z</time>
      </trkpt>
      <trkpt lat="47.27167" lon="-1.41947">
        <ele>53</ele>
        <time>2021-04-24T11:48:22.000Z</time>
      </trkpt>
      <trkpt lat="47.27157" lon="-1.41964">
        <ele>53</ele>
        <time>2021-04-24T11:48:24.000Z</time>
      </trkpt>
      <trkpt lat="47.27148" lon="-1.41982">
        <ele>53</ele>
        <time>2021-04-24T11:48:26.000Z</time>
      </trkpt>
      <trkpt lat="47.27139" lon="-1.42">
        <ele>53</ele>
        <time>2021-04-24T11:48:28.000Z</time>
      </trkpt>
      <trkpt lat="47.27128" lon="-1.42017">
        <ele>53</ele>
        <time>2021-04-24T11:48:30.000Z</time>
      </trkpt>
      <trkpt lat="47.27118" lon="-1.42033">
        <ele>53</ele>
        <time>2021-04-24T11:48:32.000Z</time>
      </trkpt>
      <trkpt lat="47.27107" lon="-1.42049">
        <ele>54</ele>
        <time>2021-04-24T11:48:34.000Z</time>
      </trkpt>
      <trkpt lat="47.27097" lon="-1.42064">
        <ele>54</ele>
        <time>2021-04-24T11:48:36.000Z</time>
      </trkpt>
      <trkpt lat="47.27086" lon="-1.42081">
        <ele>54</ele>
        <time>2021-04-24T11:48:38.000Z</time>
      </trkpt>
      <trkpt lat="47.27076" lon="-1.42098">
        <ele>54</ele>
        <time>2021-04-24T11:48:40.000Z</time>
      </trkpt>
      <trkpt lat="47.27067" lon="-1.42114">
        <ele>54</ele>
        <time>2021-04-24T11:48:42.000Z</time>
      </trkpt>
      <trkpt lat="47.27058" lon="-1.42131">
        <ele>54</ele>
        <time>2021-04-24T11:48:44.000Z</time>
      </trkpt>
      <trkpt lat="47.27048" lon="-1.42148">
        <ele>54</ele>
        <time>2021-04-24T11:48:46.000Z</time>
      </trkpt>
      <trkpt lat="47.27038" lon="-1.42165">
        <ele>53</ele>
        <time>2021-04-24T11:48:48.000Z</time>
      </trkpt>
      <trkpt lat="47.27029" lon="-1.42182">
        <ele>54</ele>
        <time>2021-04-24T11:48:50.000Z</time>
      </trkpt>
      <trkpt lat="47.27019" lon="-1.42199">
        <ele>54</ele>
        <time>2021-04-24T11:48:52.000Z</time>
      </trkpt>
      <trkpt lat="47.2701" lon="-1.42217">
        <ele>55</ele>
        <time>2021-04-24T11:48:54.000Z</time>
      </trkpt>
      <trkpt lat="47.26999" lon="-1.42235">
        <ele>54</ele>
        <time>2021-04-24T11:48:56.000Z</time>
      </trkpt>
      <trkpt lat="47.2699" lon="-1.42253">
        <ele>54</ele>
        <time>2021-04-24T11:48:58.000Z</time>
      </trkpt>
      <trkpt lat="47.2698" lon="-1.42271">
        <ele>54</ele>
        <time>2021-04-24T11:49:00.000Z</time>
      </trkpt>
      <trkpt lat="47.26965" lon="-1.42297">
        <ele>53</ele>
        <time>2021-04-24T11:49:03.000Z</time>
      </trkpt>
      <trkpt lat="47.26957" lon="-1.42314">
        <ele>52</ele>
        <time>2021-04-24T11:49:05.000Z</time>
      </trkpt>
      <trkpt lat="47.26948" lon="-1.42332">
        <ele>52</ele>
        <time>2021-04-24T11:49:07.000Z</time>
      </trkpt>
      <trkpt lat="47.26939" lon="-1.4235">
        <ele>52</ele>
        <time>2021-04-24T11:49:09.000Z</time>
      </trkpt>
      <trkpt lat="47.26931" lon="-1.42368">
        <ele>52</ele>
        <time>2021-04-24T11:49:11.000Z</time>
      </trkpt>
      <trkpt lat="47.26923" lon="-1.42386">
        <ele>52</ele>
        <time>2021-04-24T11:49:13.000Z</time>
      </trkpt>
      <trkpt lat="47.26914" lon="-1.42403">
        <ele>52</ele>
        <time>2021-04-24T11:49:15.000Z</time>
      </trkpt>
      <trkpt lat="47.26904" lon="-1.42421">
        <ele>51</ele>
        <time>2021-04-24T11:49:17.000Z</time>
      </trkpt>
      <trkpt lat="47.26894" lon="-1.42437">
        <ele>51</ele>
        <time>2021-04-24T11:49:19.000Z</time>
      </trkpt>
      <trkpt lat="47.26884" lon="-1.42454">
        <ele>51</ele>
        <time>2021-04-24T11:49:21.000Z</time>
      </trkpt>
      <trkpt lat="47.26875" lon="-1.42472">
        <ele>51</ele>
        <time>2021-04-24T11:49:23.000Z</time>
      </trkpt>
      <trkpt lat="47.26865" lon="-1.42489">
        <ele>51</ele>
        <time>2021-04-24T11:49:25.000Z</time>
      </trkpt>
      <trkpt lat="47.26855" lon="-1.42506">
        <ele>50</ele>
        <time>2021-04-24T11:49:27.000Z</time>
      </trkpt>
      <trkpt lat="47.26846" lon="-1.42524">
        <ele>51</ele>
        <time>2021-04-24T11:49:29.000Z</time>
      </trkpt>
      <trkpt lat="47.26837" lon="-1.42542">
        <ele>51</ele>
        <time>2021-04-24T11:49:31.000Z</time>
      </trkpt>
      <trkpt lat="47.26828" lon="-1.42559">
        <ele>51</ele>
        <time>2021-04-24T11:49:33.000Z</time>
      </trkpt>
      <trkpt lat="47.26819" lon="-1.42577">
        <ele>51</ele>
        <time>2021-04-24T11:49:35.000Z</time>
      </trkpt>
      <trkpt lat="47.26811" lon="-1.42596">
        <ele>50</ele>
        <time>2021-04-24T11:49:37.000Z</time>
      </trkpt>
      <trkpt lat="47.26803" lon="-1.42614">
        <ele>49</ele>
        <time>2021-04-24T11:49:39.000Z</time>
      </trkpt>
      <trkpt lat="47.26796" lon="-1.42634">
        <ele>50</ele>
        <time>2021-04-24T11:49:41.000Z</time>
      </trkpt>
      <trkpt lat="47.26789" lon="-1.42652">
        <ele>50</ele>
        <time>2021-04-24T11:49:43.000Z</time>
      </trkpt>
      <trkpt lat="47.26783" lon="-1.42671">
        <ele>50</ele>
        <time>2021-04-24T11:49:45.000Z</time>
      </trkpt>
      <trkpt lat="47.26777" lon="-1.42689">
        <ele>50</ele>
        <time>2021-04-24T11:49:47.000Z</time>
      </trkpt>
      <trkpt lat="47.26771" lon="-1.42708">
        <ele>50</ele>
        <time>2021-04-24T11:49:49.000Z</time>
      </trkpt>
      <trkpt lat="47.26763" lon="-1.42725">
        <ele>50</ele>
        <time>2021-04-24T11:49:51.000Z</time>
      </trkpt>
      <trkpt lat="47.26755" lon="-1.42743">
        <ele>50</ele>
        <time>2021-04-24T11:49:53.000Z</time>
      </trkpt>
      <trkpt lat="47.26745" lon="-1.4276">
        <ele>50</ele>
        <time>2021-04-24T11:49:55.000Z</time>
      </trkpt>
      <trkpt lat="47.26736" lon="-1.42789">
        <ele>51</ele>
        <time>2021-04-24T11:49:58.000Z</time>
      </trkpt>
      <trkpt lat="47.26732" lon="-1.42809">
        <ele>51</ele>
        <time>2021-04-24T11:50:00.000Z</time>
      </trkpt>
      <trkpt lat="47.26727" lon="-1.42826">
        <ele>52</ele>
        <time>2021-04-24T11:50:02.000Z</time>
      </trkpt>
      <trkpt lat="47.2672" lon="-1.42847">
        <ele>52</ele>
        <time>2021-04-24T11:50:04.000Z</time>
      </trkpt>
      <trkpt lat="47.26711" lon="-1.42866">
        <ele>52</ele>
        <time>2021-04-24T11:50:06.000Z</time>
      </trkpt>
      <trkpt lat="47.26702" lon="-1.42884">
        <ele>52</ele>
        <time>2021-04-24T11:50:08.000Z</time>
      </trkpt>
      <trkpt lat="47.26692" lon="-1.42903">
        <ele>51</ele>
        <time>2021-04-24T11:50:10.000Z</time>
      </trkpt>
      <trkpt lat="47.26681" lon="-1.42923">
        <ele>51</ele>
        <time>2021-04-24T11:50:12.000Z</time>
      </trkpt>
      <trkpt lat="47.26671" lon="-1.42941">
        <ele>52</ele>
        <time>2021-04-24T11:50:14.000Z</time>
      </trkpt>
      <trkpt lat="47.26662" lon="-1.42959">
        <ele>52</ele>
        <time>2021-04-24T11:50:16.000Z</time>
      </trkpt>
      <trkpt lat="47.26654" lon="-1.42977">
        <ele>52</ele>
        <time>2021-04-24T11:50:18.000Z</time>
      </trkpt>
      <trkpt lat="47.26646" lon="-1.42993">
        <ele>52</ele>
        <time>2021-04-24T11:50:20.000Z</time>
      </trkpt>
      <trkpt lat="47.26638" lon="-1.4301">
        <ele>53</ele>
        <time>2021-04-24T11:50:22.000Z</time>
      </trkpt>
      <trkpt lat="47.2663" lon="-1.43027">
        <ele>53</ele>
        <time>2021-04-24T11:50:24.000Z</time>
      </trkpt>
      <trkpt lat="47.26621" lon="-1.43044">
        <ele>53</ele>
        <time>2021-04-24T11:50:26.000Z</time>
      </trkpt>
      <trkpt lat="47.26612" lon="-1.43061">
        <ele>53</ele>
        <time>2021-04-24T11:50:28.000Z</time>
      </trkpt>
      <trkpt lat="47.26603" lon="-1.43077">
        <ele>52</ele>
        <time>2021-04-24T11:50:30.000Z</time>
      </trkpt>
      <trkpt lat="47.26594" lon="-1.43093">
        <ele>52</ele>
        <time>2021-04-24T11:50:32.000Z</time>
      </trkpt>
      <trkpt lat="47.26584" lon="-1.43109">
        <ele>51</ele>
        <time>2021-04-24T11:50:34.000Z</time>
      </trkpt>
      <trkpt lat="47.26575" lon="-1.43124">
        <ele>51</ele>
        <time>2021-04-24T11:50:36.000Z</time>
      </trkpt>
      <trkpt lat="47.26567" lon="-1.43139">
        <ele>51</ele>
        <time>2021-04-24T11:50:38.000Z</time>
      </trkpt>
      <trkpt lat="47.26558" lon="-1.43153">
        <ele>51</ele>
        <time>2021-04-24T11:50:40.000Z</time>
      </trkpt>
      <trkpt lat="47.26548" lon="-1.43168">
        <ele>51</ele>
        <time>2021-04-24T11:50:42.000Z</time>
      </trkpt>
      <trkpt lat="47.26538" lon="-1.43182">
        <ele>52</ele>
        <time>2021-04-24T11:50:44.000Z</time>
      </trkpt>
      <trkpt lat="47.26529" lon="-1.43196">
        <ele>52</ele>
        <time>2021-04-24T11:50:46.000Z</time>
      </trkpt>
      <trkpt lat="47.26519" lon="-1.4321">
        <ele>52</ele>
        <time>2021-04-24T11:50:48.000Z</time>
      </trkpt>
      <trkpt lat="47.2651" lon="-1.43223">
        <ele>52</ele>
        <time>2021-04-24T11:50:50.000Z</time>
      </trkpt>
      <trkpt lat="47.265" lon="-1.43236">
        <ele>52</ele>
        <time>2021-04-24T11:50:52.000Z</time>
      </trkpt>
      <trkpt lat="47.26491" lon="-1.4325">
        <ele>51</ele>
        <time>2021-04-24T11:50:54.000Z</time>
      </trkpt>
      <trkpt lat="47.26481" lon="-1.43264">
        <ele>51</ele>
        <time>2021-04-24T11:50:56.000Z</time>
      </trkpt>
      <trkpt lat="47.26471" lon="-1.43278">
        <ele>50</ele>
        <time>2021-04-24T11:50:58.000Z</time>
      </trkpt>
      <trkpt lat="47.26462" lon="-1.43292">
        <ele>50</ele>
        <time>2021-04-24T11:51:00.000Z</time>
      </trkpt>
      <trkpt lat="47.26452" lon="-1.43307">
        <ele>49</ele>
        <time>2021-04-24T11:51:02.000Z</time>
      </trkpt>
      <trkpt lat="47.26443" lon="-1.43322">
        <ele>50</ele>
        <time>2021-04-24T11:51:04.000Z</time>
      </trkpt>
      <trkpt lat="47.26433" lon="-1.43335">
        <ele>51</ele>
        <time>2021-04-24T11:51:06.000Z</time>
      </trkpt>
      <trkpt lat="47.26423" lon="-1.4335">
        <ele>51</ele>
        <time>2021-04-24T11:51:08.000Z</time>
      </trkpt>
      <trkpt lat="47.26411" lon="-1.43364">
        <ele>51</ele>
        <time>2021-04-24T11:51:10.000Z</time>
      </trkpt>
      <trkpt lat="47.26401" lon="-1.43377">
        <ele>51</ele>
        <time>2021-04-24T11:51:12.000Z</time>
      </trkpt>
      <trkpt lat="47.2639" lon="-1.4339">
        <ele>51</ele>
        <time>2021-04-24T11:51:14.000Z</time>
      </trkpt>
      <trkpt lat="47.26378" lon="-1.43402">
        <ele>51</ele>
        <time>2021-04-24T11:51:16.000Z</time>
      </trkpt>
      <trkpt lat="47.26366" lon="-1.43414">
        <ele>51</ele>
        <time>2021-04-24T11:51:18.000Z</time>
      </trkpt>
      <trkpt lat="47.26355" lon="-1.43425">
        <ele>51</ele>
        <time>2021-04-24T11:51:20.000Z</time>
      </trkpt>
      <trkpt lat="47.26344" lon="-1.43437">
        <ele>51</ele>
        <time>2021-04-24T11:51:22.000Z</time>
      </trkpt>
      <trkpt lat="47.26332" lon="-1.43448">
        <ele>51</ele>
        <time>2021-04-24T11:51:24.000Z</time>
      </trkpt>
      <trkpt lat="47.26321" lon="-1.4346">
        <ele>51</ele>
        <time>2021-04-24T11:51:26.000Z</time>
      </trkpt>
      <trkpt lat="47.2631" lon="-1.43471">
        <ele>51</ele>
        <time>2021-04-24T11:51:28.000Z</time>
      </trkpt>
      <trkpt lat="47.26299" lon="-1.43482">
        <ele>51</ele>
        <time>2021-04-24T11:51:30.000Z</time>
      </trkpt>
      <trkpt lat="47.26287" lon="-1.43489">
        <ele>51</ele>
        <time>2021-04-24T11:51:32.000Z</time>
      </trkpt>
      <trkpt lat="47.26274" lon="-1.43492">
        <ele>52</ele>
        <time>2021-04-24T11:51:34.000Z</time>
      </trkpt>
      <trkpt lat="47.2626" lon="-1.43497">
        <ele>52</ele>
        <time>2021-04-24T11:51:36.000Z</time>
      </trkpt>
      <trkpt lat="47.26248" lon="-1.43509">
        <ele>52</ele>
        <time>2021-04-24T11:51:38.000Z</time>
      </trkpt>
      <trkpt lat="47.26235" lon="-1.4352">
        <ele>52</ele>
        <time>2021-04-24T11:51:40.000Z</time>
      </trkpt>
      <trkpt lat="47.26226" lon="-1.43533">
        <ele>52</ele>
        <time>2021-04-24T11:51:42.000Z</time>
      </trkpt>
      <trkpt lat="47.26218" lon="-1.43547">
        <ele>52</ele>
        <time>2021-04-24T11:51:44.000Z</time>
      </trkpt>
      <trkpt lat="47.26216" lon="-1.43566">
        <ele>52</ele>
        <time>2021-04-24T11:51:46.000Z</time>
      </trkpt>
      <trkpt lat="47.26212" lon="-1.43583">
        <ele>51</ele>
        <time>2021-04-24T11:51:48.000Z</time>
      </trkpt>
      <trkpt lat="47.26202" lon="-1.436">
        <ele>51</ele>
        <time>2021-04-24T11:51:50.000Z</time>
      </trkpt>
      <trkpt lat="47.26193" lon="-1.43616">
        <ele>52</ele>
        <time>2021-04-24T11:51:52.000Z</time>
      </trkpt>
      <trkpt lat="47.26184" lon="-1.43633">
        <ele>52</ele>
        <time>2021-04-24T11:51:54.000Z</time>
      </trkpt>
      <trkpt lat="47.26174" lon="-1.4365">
        <ele>52</ele>
        <time>2021-04-24T11:51:56.000Z</time>
      </trkpt>
      <trkpt lat="47.26163" lon="-1.43666">
        <ele>52</ele>
        <time>2021-04-24T11:51:58.000Z</time>
      </trkpt>
      <trkpt lat="47.26153" lon="-1.43681">
        <ele>52</ele>
        <time>2021-04-24T11:52:00.000Z</time>
      </trkpt>
      <trkpt lat="47.26143" lon="-1.43697">
        <ele>52</ele>
        <time>2021-04-24T11:52:02.000Z</time>
      </trkpt>
      <trkpt lat="47.26135" lon="-1.43712">
        <ele>52</ele>
        <time>2021-04-24T11:52:04.000Z</time>
      </trkpt>
      <trkpt lat="47.26126" lon="-1.43726">
        <ele>52</ele>
        <time>2021-04-24T11:52:06.000Z</time>
      </trkpt>
      <trkpt lat="47.26116" lon="-1.43741">
        <ele>52</ele>
        <time>2021-04-24T11:52:08.000Z</time>
      </trkpt>
      <trkpt lat="47.26104" lon="-1.43753">
        <ele>52</ele>
        <time>2021-04-24T11:52:10.000Z</time>
      </trkpt>
      <trkpt lat="47.26093" lon="-1.43766">
        <ele>52</ele>
        <time>2021-04-24T11:52:12.000Z</time>
      </trkpt>
      <trkpt lat="47.26083" lon="-1.43779">
        <ele>51</ele>
        <time>2021-04-24T11:52:14.000Z</time>
      </trkpt>
      <trkpt lat="47.26068" lon="-1.43798">
        <ele>50</ele>
        <time>2021-04-24T11:52:17.000Z</time>
      </trkpt>
      <trkpt lat="47.26058" lon="-1.43813">
        <ele>50</ele>
        <time>2021-04-24T11:52:19.000Z</time>
      </trkpt>
      <trkpt lat="47.26052" lon="-1.4383">
        <ele>50</ele>
        <time>2021-04-24T11:52:21.000Z</time>
      </trkpt>
      <trkpt lat="47.26045" lon="-1.43851">
        <ele>50</ele>
        <time>2021-04-24T11:52:23.000Z</time>
      </trkpt>
      <trkpt lat="47.26035" lon="-1.43865">
        <ele>50</ele>
        <time>2021-04-24T11:52:25.000Z</time>
      </trkpt>
      <trkpt lat="47.26023" lon="-1.43877">
        <ele>50</ele>
        <time>2021-04-24T11:52:27.000Z</time>
      </trkpt>
      <trkpt lat="47.26012" lon="-1.43888">
        <ele>50</ele>
        <time>2021-04-24T11:52:29.000Z</time>
      </trkpt>
      <trkpt lat="47.25999" lon="-1.43901">
        <ele>50</ele>
        <time>2021-04-24T11:52:31.000Z</time>
      </trkpt>
      <trkpt lat="47.25988" lon="-1.43914">
        <ele>50</ele>
        <time>2021-04-24T11:52:33.000Z</time>
      </trkpt>
      <trkpt lat="47.25978" lon="-1.43927">
        <ele>51</ele>
        <time>2021-04-24T11:52:35.000Z</time>
      </trkpt>
      <trkpt lat="47.25968" lon="-1.4394">
        <ele>51</ele>
        <time>2021-04-24T11:52:37.000Z</time>
      </trkpt>
      <trkpt lat="47.25957" lon="-1.43953">
        <ele>51</ele>
        <time>2021-04-24T11:52:39.000Z</time>
      </trkpt>
      <trkpt lat="47.25946" lon="-1.43965">
        <ele>51</ele>
        <time>2021-04-24T11:52:41.000Z</time>
      </trkpt>
      <trkpt lat="47.25934" lon="-1.43978">
        <ele>51</ele>
        <time>2021-04-24T11:52:43.000Z</time>
      </trkpt>
      <trkpt lat="47.25923" lon="-1.43989">
        <ele>50</ele>
        <time>2021-04-24T11:52:45.000Z</time>
      </trkpt>
      <trkpt lat="47.25912" lon="-1.44002">
        <ele>50</ele>
        <time>2021-04-24T11:52:47.000Z</time>
      </trkpt>
      <trkpt lat="47.259" lon="-1.44015">
        <ele>50</ele>
        <time>2021-04-24T11:52:49.000Z</time>
      </trkpt>
      <trkpt lat="47.2589" lon="-1.44027">
        <ele>50</ele>
        <time>2021-04-24T11:52:51.000Z</time>
      </trkpt>
      <trkpt lat="47.25881" lon="-1.44043">
        <ele>49</ele>
        <time>2021-04-24T11:52:53.000Z</time>
      </trkpt>
      <trkpt lat="47.25875" lon="-1.44063">
        <ele>49</ele>
        <time>2021-04-24T11:52:55.000Z</time>
      </trkpt>
      <trkpt lat="47.25867" lon="-1.44078">
        <ele>49</ele>
        <time>2021-04-24T11:52:57.000Z</time>
      </trkpt>
      <trkpt lat="47.25856" lon="-1.44093">
        <ele>49</ele>
        <time>2021-04-24T11:52:59.000Z</time>
      </trkpt>
      <trkpt lat="47.25845" lon="-1.44108">
        <ele>49</ele>
        <time>2021-04-24T11:53:01.000Z</time>
      </trkpt>
      <trkpt lat="47.25833" lon="-1.44122">
        <ele>50</ele>
        <time>2021-04-24T11:53:03.000Z</time>
      </trkpt>
      <trkpt lat="47.25822" lon="-1.44137">
        <ele>50</ele>
        <time>2021-04-24T11:53:05.000Z</time>
      </trkpt>
      <trkpt lat="47.25809" lon="-1.44151">
        <ele>50</ele>
        <time>2021-04-24T11:53:07.000Z</time>
      </trkpt>
      <trkpt lat="47.25795" lon="-1.44165">
        <ele>51</ele>
        <time>2021-04-24T11:53:09.000Z</time>
      </trkpt>
      <trkpt lat="47.25782" lon="-1.4418">
        <ele>52</ele>
        <time>2021-04-24T11:53:11.000Z</time>
      </trkpt>
      <trkpt lat="47.25769" lon="-1.44195">
        <ele>52</ele>
        <time>2021-04-24T11:53:13.000Z</time>
      </trkpt>
      <trkpt lat="47.25756" lon="-1.44211">
        <ele>52</ele>
        <time>2021-04-24T11:53:15.000Z</time>
      </trkpt>
      <trkpt lat="47.25744" lon="-1.44227">
        <ele>52</ele>
        <time>2021-04-24T11:53:17.000Z</time>
      </trkpt>
      <trkpt lat="47.25732" lon="-1.44242">
        <ele>52</ele>
        <time>2021-04-24T11:53:19.000Z</time>
      </trkpt>
      <trkpt lat="47.2572" lon="-1.44257">
        <ele>51</ele>
        <time>2021-04-24T11:53:21.000Z</time>
      </trkpt>
      <trkpt lat="47.25708" lon="-1.4427">
        <ele>51</ele>
        <time>2021-04-24T11:53:23.000Z</time>
      </trkpt>
      <trkpt lat="47.25695" lon="-1.44284">
        <ele>52</ele>
        <time>2021-04-24T11:53:25.000Z</time>
      </trkpt>
      <trkpt lat="47.25684" lon="-1.44298">
        <ele>52</ele>
        <time>2021-04-24T11:53:27.000Z</time>
      </trkpt>
      <trkpt lat="47.25673" lon="-1.44313">
        <ele>52</ele>
        <time>2021-04-24T11:53:29.000Z</time>
      </trkpt>
      <trkpt lat="47.25662" lon="-1.44326">
        <ele>51</ele>
        <time>2021-04-24T11:53:31.000Z</time>
      </trkpt>
      <trkpt lat="47.2565" lon="-1.44339">
        <ele>51</ele>
        <time>2021-04-24T11:53:33.000Z</time>
      </trkpt>
      <trkpt lat="47.25638" lon="-1.44353">
        <ele>51</ele>
        <time>2021-04-24T11:53:35.000Z</time>
      </trkpt>
      <trkpt lat="47.25626" lon="-1.44365">
        <ele>51</ele>
        <time>2021-04-24T11:53:37.000Z</time>
      </trkpt>
      <trkpt lat="47.25614" lon="-1.44378">
        <ele>51</ele>
        <time>2021-04-24T11:53:39.000Z</time>
      </trkpt>
      <trkpt lat="47.25603" lon="-1.44392">
        <ele>51</ele>
        <time>2021-04-24T11:53:41.000Z</time>
      </trkpt>
      <trkpt lat="47.25591" lon="-1.44407">
        <ele>51</ele>
        <time>2021-04-24T11:53:43.000Z</time>
      </trkpt>
      <trkpt lat="47.25579" lon="-1.44421">
        <ele>50</ele>
        <time>2021-04-24T11:53:45.000Z</time>
      </trkpt>
      <trkpt lat="47.25567" lon="-1.44435">
        <ele>50</ele>
        <time>2021-04-24T11:53:47.000Z</time>
      </trkpt>
      <trkpt lat="47.25557" lon="-1.4445">
        <ele>50</ele>
        <time>2021-04-24T11:53:49.000Z</time>
      </trkpt>
      <trkpt lat="47.25547" lon="-1.44465">
        <ele>51</ele>
        <time>2021-04-24T11:53:51.000Z</time>
      </trkpt>
      <trkpt lat="47.25537" lon="-1.4448">
        <ele>51</ele>
        <time>2021-04-24T11:53:53.000Z</time>
      </trkpt>
      <trkpt lat="47.25527" lon="-1.44496">
        <ele>51</ele>
        <time>2021-04-24T11:53:55.000Z</time>
      </trkpt>
      <trkpt lat="47.25517" lon="-1.44512">
        <ele>51</ele>
        <time>2021-04-24T11:53:57.000Z</time>
      </trkpt>
      <trkpt lat="47.25506" lon="-1.44527">
        <ele>51</ele>
        <time>2021-04-24T11:53:59.000Z</time>
      </trkpt>
      <trkpt lat="47.25495" lon="-1.44541">
        <ele>50</ele>
        <time>2021-04-24T11:54:01.000Z</time>
      </trkpt>
      <trkpt lat="47.25484" lon="-1.44556">
        <ele>50</ele>
        <time>2021-04-24T11:54:03.000Z</time>
      </trkpt>
      <trkpt lat="47.25474" lon="-1.44571">
        <ele>50</ele>
        <time>2021-04-24T11:54:05.000Z</time>
      </trkpt>
      <trkpt lat="47.25463" lon="-1.44587">
        <ele>50</ele>
        <time>2021-04-24T11:54:07.000Z</time>
      </trkpt>
      <trkpt lat="47.25453" lon="-1.44604">
        <ele>50</ele>
        <time>2021-04-24T11:54:09.000Z</time>
      </trkpt>
      <trkpt lat="47.25443" lon="-1.44619">
        <ele>51</ele>
        <time>2021-04-24T11:54:11.000Z</time>
      </trkpt>
      <trkpt lat="47.25431" lon="-1.44634">
        <ele>51</ele>
        <time>2021-04-24T11:54:13.000Z</time>
      </trkpt>
      <trkpt lat="47.2542" lon="-1.44649">
        <ele>51</ele>
        <time>2021-04-24T11:54:15.000Z</time>
      </trkpt>
      <trkpt lat="47.25409" lon="-1.44664">
        <ele>51</ele>
        <time>2021-04-24T11:54:17.000Z</time>
      </trkpt>
      <trkpt lat="47.25397" lon="-1.4468">
        <ele>51</ele>
        <time>2021-04-24T11:54:19.000Z</time>
      </trkpt>
      <trkpt lat="47.25385" lon="-1.44694">
        <ele>51</ele>
        <time>2021-04-24T11:54:21.000Z</time>
      </trkpt>
      <trkpt lat="47.25374" lon="-1.44708">
        <ele>51</ele>
        <time>2021-04-24T11:54:23.000Z</time>
      </trkpt>
      <trkpt lat="47.25362" lon="-1.44721">
        <ele>50</ele>
        <time>2021-04-24T11:54:25.000Z</time>
      </trkpt>
      <trkpt lat="47.2535" lon="-1.44734">
        <ele>50</ele>
        <time>2021-04-24T11:54:27.000Z</time>
      </trkpt>
      <trkpt lat="47.25338" lon="-1.44747">
        <ele>51</ele>
        <time>2021-04-24T11:54:29.000Z</time>
      </trkpt>
      <trkpt lat="47.25325" lon="-1.44759">
        <ele>50</ele>
        <time>2021-04-24T11:54:31.000Z</time>
      </trkpt>
      <trkpt lat="47.25312" lon="-1.44773">
        <ele>51</ele>
        <time>2021-04-24T11:54:33.000Z</time>
      </trkpt>
      <trkpt lat="47.253" lon="-1.44786">
        <ele>51</ele>
        <time>2021-04-24T11:54:35.000Z</time>
      </trkpt>
      <trkpt lat="47.25288" lon="-1.448">
        <ele>51</ele>
        <time>2021-04-24T11:54:37.000Z</time>
      </trkpt>
      <trkpt lat="47.25278" lon="-1.44813">
        <ele>51</ele>
        <time>2021-04-24T11:54:39.000Z</time>
      </trkpt>
      <trkpt lat="47.25266" lon="-1.44826">
        <ele>51</ele>
        <time>2021-04-24T11:54:41.000Z</time>
      </trkpt>
      <trkpt lat="47.25254" lon="-1.44839">
        <ele>51</ele>
        <time>2021-04-24T11:54:43.000Z</time>
      </trkpt>
      <trkpt lat="47.25242" lon="-1.44852">
        <ele>51</ele>
        <time>2021-04-24T11:54:45.000Z</time>
      </trkpt>
      <trkpt lat="47.25231" lon="-1.44863">
        <ele>51</ele>
        <time>2021-04-24T11:54:47.000Z</time>
      </trkpt>
      <trkpt lat="47.25218" lon="-1.44873">
        <ele>51</ele>
        <time>2021-04-24T11:54:49.000Z</time>
      </trkpt>
      <trkpt lat="47.25206" lon="-1.44885">
        <ele>51</ele>
        <time>2021-04-24T11:54:51.000Z</time>
      </trkpt>
      <trkpt lat="47.25193" lon="-1.44896">
        <ele>52</ele>
        <time>2021-04-24T11:54:53.000Z</time>
      </trkpt>
      <trkpt lat="47.25179" lon="-1.44908">
        <ele>52</ele>
        <time>2021-04-24T11:54:55.000Z</time>
      </trkpt>
      <trkpt lat="47.25166" lon="-1.4492">
        <ele>52</ele>
        <time>2021-04-24T11:54:57.000Z</time>
      </trkpt>
      <trkpt lat="47.25152" lon="-1.44933">
        <ele>52</ele>
        <time>2021-04-24T11:54:59.000Z</time>
      </trkpt>
      <trkpt lat="47.25139" lon="-1.44945">
        <ele>52</ele>
        <time>2021-04-24T11:55:01.000Z</time>
      </trkpt>
      <trkpt lat="47.25126" lon="-1.44958">
        <ele>52</ele>
        <time>2021-04-24T11:55:03.000Z</time>
      </trkpt>
      <trkpt lat="47.25114" lon="-1.44971">
        <ele>52</ele>
        <time>2021-04-24T11:55:05.000Z</time>
      </trkpt>
      <trkpt lat="47.25101" lon="-1.44983">
        <ele>53</ele>
        <time>2021-04-24T11:55:07.000Z</time>
      </trkpt>
      <trkpt lat="47.25088" lon="-1.44994">
        <ele>53</ele>
        <time>2021-04-24T11:55:09.000Z</time>
      </trkpt>
      <trkpt lat="47.25075" lon="-1.45005">
        <ele>52</ele>
        <time>2021-04-24T11:55:11.000Z</time>
      </trkpt>
      <trkpt lat="47.25061" lon="-1.45015">
        <ele>52</ele>
        <time>2021-04-24T11:55:13.000Z</time>
      </trkpt>
      <trkpt lat="47.25047" lon="-1.45026">
        <ele>53</ele>
        <time>2021-04-24T11:55:15.000Z</time>
      </trkpt>
      <trkpt lat="47.25033" lon="-1.45036">
        <ele>53</ele>
        <time>2021-04-24T11:55:17.000Z</time>
      </trkpt>
      <trkpt lat="47.25019" lon="-1.45047">
        <ele>52</ele>
        <time>2021-04-24T11:55:19.000Z</time>
      </trkpt>
      <trkpt lat="47.25006" lon="-1.45058">
        <ele>52</ele>
        <time>2021-04-24T11:55:21.000Z</time>
      </trkpt>
      <trkpt lat="47.24994" lon="-1.45071">
        <ele>52</ele>
        <time>2021-04-24T11:55:23.000Z</time>
      </trkpt>
      <trkpt lat="47.24983" lon="-1.45085">
        <ele>51</ele>
        <time>2021-04-24T11:55:25.000Z</time>
      </trkpt>
      <trkpt lat="47.24972" lon="-1.45098">
        <ele>51</ele>
        <time>2021-04-24T11:55:27.000Z</time>
      </trkpt>
      <trkpt lat="47.24962" lon="-1.45111">
        <ele>51</ele>
        <time>2021-04-24T11:55:29.000Z</time>
      </trkpt>
      <trkpt lat="47.2495" lon="-1.45123">
        <ele>50</ele>
        <time>2021-04-24T11:55:31.000Z</time>
      </trkpt>
      <trkpt lat="47.24938" lon="-1.45135">
        <ele>50</ele>
        <time>2021-04-24T11:55:33.000Z</time>
      </trkpt>
      <trkpt lat="47.24926" lon="-1.45148">
        <ele>50</ele>
        <time>2021-04-24T11:55:35.000Z</time>
      </trkpt>
      <trkpt lat="47.24915" lon="-1.4516">
        <ele>51</ele>
        <time>2021-04-24T11:55:37.000Z</time>
      </trkpt>
      <trkpt lat="47.24905" lon="-1.45172">
        <ele>50</ele>
        <time>2021-04-24T11:55:39.000Z</time>
      </trkpt>
      <trkpt lat="47.24895" lon="-1.45185">
        <ele>50</ele>
        <time>2021-04-24T11:55:41.000Z</time>
      </trkpt>
      <trkpt lat="47.24885" lon="-1.45199">
        <ele>51</ele>
        <time>2021-04-24T11:55:43.000Z</time>
      </trkpt>
      <trkpt lat="47.24876" lon="-1.45211">
        <ele>50</ele>
        <time>2021-04-24T11:55:45.000Z</time>
      </trkpt>
      <trkpt lat="47.24867" lon="-1.45224">
        <ele>50</ele>
        <time>2021-04-24T11:55:47.000Z</time>
      </trkpt>
      <trkpt lat="47.24858" lon="-1.45239">
        <ele>49</ele>
        <time>2021-04-24T11:55:49.000Z</time>
      </trkpt>
      <trkpt lat="47.24848" lon="-1.45255">
        <ele>49</ele>
        <time>2021-04-24T11:55:51.000Z</time>
      </trkpt>
      <trkpt lat="47.24838" lon="-1.45271">
        <ele>49</ele>
        <time>2021-04-24T11:55:53.000Z</time>
      </trkpt>
      <trkpt lat="47.24828" lon="-1.45287">
        <ele>48</ele>
        <time>2021-04-24T11:55:55.000Z</time>
      </trkpt>
      <trkpt lat="47.24821" lon="-1.45303">
        <ele>48</ele>
        <time>2021-04-24T11:55:57.000Z</time>
      </trkpt>
      <trkpt lat="47.24811" lon="-1.45321">
        <ele>49</ele>
        <time>2021-04-24T11:55:59.000Z</time>
      </trkpt>
      <trkpt lat="47.24802" lon="-1.45339">
        <ele>50</ele>
        <time>2021-04-24T11:56:01.000Z</time>
      </trkpt>
      <trkpt lat="47.24795" lon="-1.45356">
        <ele>50</ele>
        <time>2021-04-24T11:56:03.000Z</time>
      </trkpt>
      <trkpt lat="47.24788" lon="-1.45376">
        <ele>50</ele>
        <time>2021-04-24T11:56:05.000Z</time>
      </trkpt>
      <trkpt lat="47.24779" lon="-1.45397">
        <ele>51</ele>
        <time>2021-04-24T11:56:07.000Z</time>
      </trkpt>
      <trkpt lat="47.24771" lon="-1.45417">
        <ele>51</ele>
        <time>2021-04-24T11:56:09.000Z</time>
      </trkpt>
      <trkpt lat="47.24763" lon="-1.45437">
        <ele>51</ele>
        <time>2021-04-24T11:56:11.000Z</time>
      </trkpt>
      <trkpt lat="47.24756" lon="-1.45456">
        <ele>51</ele>
        <time>2021-04-24T11:56:13.000Z</time>
      </trkpt>
      <trkpt lat="47.24749" lon="-1.45474">
        <ele>50</ele>
        <time>2021-04-24T11:56:15.000Z</time>
      </trkpt>
      <trkpt lat="47.24741" lon="-1.45493">
        <ele>49</ele>
        <time>2021-04-24T11:56:17.000Z</time>
      </trkpt>
      <trkpt lat="47.24733" lon="-1.45512">
        <ele>49</ele>
        <time>2021-04-24T11:56:19.000Z</time>
      </trkpt>
      <trkpt lat="47.24725" lon="-1.45531">
        <ele>50</ele>
        <time>2021-04-24T11:56:21.000Z</time>
      </trkpt>
      <trkpt lat="47.24717" lon="-1.45549">
        <ele>50</ele>
        <time>2021-04-24T11:56:23.000Z</time>
      </trkpt>
      <trkpt lat="47.2471" lon="-1.45568">
        <ele>50</ele>
        <time>2021-04-24T11:56:25.000Z</time>
      </trkpt>
      <trkpt lat="47.24704" lon="-1.45585">
        <ele>49</ele>
        <time>2021-04-24T11:56:27.000Z</time>
      </trkpt>
      <trkpt lat="47.247" lon="-1.45602">
        <ele>49</ele>
        <time>2021-04-24T11:56:29.000Z</time>
      </trkpt>
      <trkpt lat="47.24695" lon="-1.45617">
        <ele>49</ele>
        <time>2021-04-24T11:56:31.000Z</time>
      </trkpt>
      <trkpt lat="47.2469" lon="-1.45632">
        <ele>49</ele>
        <time>2021-04-24T11:56:33.000Z</time>
      </trkpt>
      <trkpt lat="47.24686" lon="-1.45645">
        <ele>49</ele>
        <time>2021-04-24T11:56:35.000Z</time>
      </trkpt>
      <trkpt lat="47.24681" lon="-1.45656">
        <ele>50</ele>
        <time>2021-04-24T11:56:37.000Z</time>
      </trkpt>
      <trkpt lat="47.24677" lon="-1.45672">
        <ele>50</ele>
        <time>2021-04-24T11:56:40.000Z</time>
      </trkpt>
      <trkpt lat="47.24674" lon="-1.4569">
        <ele>51</ele>
        <time>2021-04-24T11:56:43.000Z</time>
      </trkpt>
      <trkpt lat="47.24671" lon="-1.45705">
        <ele>52</ele>
        <time>2021-04-24T11:56:45.000Z</time>
      </trkpt>
      <trkpt lat="47.24668" lon="-1.45723">
        <ele>52</ele>
        <time>2021-04-24T11:56:47.000Z</time>
      </trkpt>
      <trkpt lat="47.24664" lon="-1.45744">
        <ele>52</ele>
        <time>2021-04-24T11:56:49.000Z</time>
      </trkpt>
      <trkpt lat="47.2466" lon="-1.45766">
        <ele>52</ele>
        <time>2021-04-24T11:56:51.000Z</time>
      </trkpt>
      <trkpt lat="47.24655" lon="-1.4579">
        <ele>52</ele>
        <time>2021-04-24T11:56:53.000Z</time>
      </trkpt>
      <trkpt lat="47.24648" lon="-1.45811">
        <ele>51</ele>
        <time>2021-04-24T11:56:55.000Z</time>
      </trkpt>
      <trkpt lat="47.24641" lon="-1.45833">
        <ele>51</ele>
        <time>2021-04-24T11:56:57.000Z</time>
      </trkpt>
      <trkpt lat="47.24636" lon="-1.45856">
        <ele>51</ele>
        <time>2021-04-24T11:56:59.000Z</time>
      </trkpt>
      <trkpt lat="47.2463" lon="-1.45879">
        <ele>51</ele>
        <time>2021-04-24T11:57:01.000Z</time>
      </trkpt>
      <trkpt lat="47.24621" lon="-1.45902">
        <ele>51</ele>
        <time>2021-04-24T11:57:03.000Z</time>
      </trkpt>
      <trkpt lat="47.24614" lon="-1.45922">
        <ele>50</ele>
        <time>2021-04-24T11:57:05.000Z</time>
      </trkpt>
      <trkpt lat="47.24606" lon="-1.4594">
        <ele>50</ele>
        <time>2021-04-24T11:57:07.000Z</time>
      </trkpt>
      <trkpt lat="47.24597" lon="-1.45959">
        <ele>50</ele>
        <time>2021-04-24T11:57:09.000Z</time>
      </trkpt>
      <trkpt lat="47.24589" lon="-1.45978">
        <ele>50</ele>
        <time>2021-04-24T11:57:11.000Z</time>
      </trkpt>
      <trkpt lat="47.2458" lon="-1.45997">
        <ele>50</ele>
        <time>2021-04-24T11:57:13.000Z</time>
      </trkpt>
      <trkpt lat="47.24571" lon="-1.46017">
        <ele>50</ele>
        <time>2021-04-24T11:57:15.000Z</time>
      </trkpt>
      <trkpt lat="47.24561" lon="-1.46034">
        <ele>49</ele>
        <time>2021-04-24T11:57:17.000Z</time>
      </trkpt>
      <trkpt lat="47.24552" lon="-1.46051">
        <ele>49</ele>
        <time>2021-04-24T11:57:19.000Z</time>
      </trkpt>
      <trkpt lat="47.24543" lon="-1.46068">
        <ele>48</ele>
        <time>2021-04-24T11:57:21.000Z</time>
      </trkpt>
      <trkpt lat="47.24533" lon="-1.46085">
        <ele>48</ele>
        <time>2021-04-24T11:57:23.000Z</time>
      </trkpt>
      <trkpt lat="47.24522" lon="-1.46101">
        <ele>48</ele>
        <time>2021-04-24T11:57:25.000Z</time>
      </trkpt>
      <trkpt lat="47.24509" lon="-1.46116">
        <ele>48</ele>
        <time>2021-04-24T11:57:27.000Z</time>
      </trkpt>
      <trkpt lat="47.24496" lon="-1.46132">
        <ele>49</ele>
        <time>2021-04-24T11:57:29.000Z</time>
      </trkpt>
      <trkpt lat="47.24485" lon="-1.46148">
        <ele>50</ele>
        <time>2021-04-24T11:57:31.000Z</time>
      </trkpt>
      <trkpt lat="47.24474" lon="-1.46163">
        <ele>51</ele>
        <time>2021-04-24T11:57:33.000Z</time>
      </trkpt>
      <trkpt lat="47.24462" lon="-1.46178">
        <ele>51</ele>
        <time>2021-04-24T11:57:35.000Z</time>
      </trkpt>
      <trkpt lat="47.2445" lon="-1.46192">
        <ele>51</ele>
        <time>2021-04-24T11:57:37.000Z</time>
      </trkpt>
      <trkpt lat="47.24439" lon="-1.46207">
        <ele>52</ele>
        <time>2021-04-24T11:57:39.000Z</time>
      </trkpt>
      <trkpt lat="47.24429" lon="-1.46221">
        <ele>51</ele>
        <time>2021-04-24T11:57:41.000Z</time>
      </trkpt>
      <trkpt lat="47.24419" lon="-1.46234">
        <ele>51</ele>
        <time>2021-04-24T11:57:43.000Z</time>
      </trkpt>
      <trkpt lat="47.2441" lon="-1.46247">
        <ele>51</ele>
        <time>2021-04-24T11:57:45.000Z</time>
      </trkpt>
      <trkpt lat="47.24399" lon="-1.4626">
        <ele>52</ele>
        <time>2021-04-24T11:57:47.000Z</time>
      </trkpt>
      <trkpt lat="47.24389" lon="-1.46273">
        <ele>53</ele>
        <time>2021-04-24T11:57:49.000Z</time>
      </trkpt>
      <trkpt lat="47.24379" lon="-1.46287">
        <ele>54</ele>
        <time>2021-04-24T11:57:51.000Z</time>
      </trkpt>
      <trkpt lat="47.2437" lon="-1.46303">
        <ele>54</ele>
        <time>2021-04-24T11:57:53.000Z</time>
      </trkpt>
      <trkpt lat="47.24361" lon="-1.46316">
        <ele>54</ele>
        <time>2021-04-24T11:57:55.000Z</time>
      </trkpt>
      <trkpt lat="47.24352" lon="-1.4633">
        <ele>54</ele>
        <time>2021-04-24T11:57:57.000Z</time>
      </trkpt>
      <trkpt lat="47.24344" lon="-1.46344">
        <ele>53</ele>
        <time>2021-04-24T11:57:59.000Z</time>
      </trkpt>
      <trkpt lat="47.24336" lon="-1.46358">
        <ele>53</ele>
        <time>2021-04-24T11:58:01.000Z</time>
      </trkpt>
      <trkpt lat="47.24327" lon="-1.46372">
        <ele>53</ele>
        <time>2021-04-24T11:58:03.000Z</time>
      </trkpt>
      <trkpt lat="47.24319" lon="-1.46389">
        <ele>52</ele>
        <time>2021-04-24T11:58:05.000Z</time>
      </trkpt>
      <trkpt lat="47.2431" lon="-1.46406">
        <ele>52</ele>
        <time>2021-04-24T11:58:07.000Z</time>
      </trkpt>
      <trkpt lat="47.243" lon="-1.46422">
        <ele>51</ele>
        <time>2021-04-24T11:58:09.000Z</time>
      </trkpt>
      <trkpt lat="47.2429" lon="-1.46438">
        <ele>51</ele>
        <time>2021-04-24T11:58:11.000Z</time>
      </trkpt>
      <trkpt lat="47.24278" lon="-1.46454">
        <ele>51</ele>
        <time>2021-04-24T11:58:13.000Z</time>
      </trkpt>
      <trkpt lat="47.24266" lon="-1.46469">
        <ele>51</ele>
        <time>2021-04-24T11:58:15.000Z</time>
      </trkpt>
      <trkpt lat="47.24253" lon="-1.46484">
        <ele>52</ele>
        <time>2021-04-24T11:58:17.000Z</time>
      </trkpt>
      <trkpt lat="47.24241" lon="-1.46498">
        <ele>52</ele>
        <time>2021-04-24T11:58:19.000Z</time>
      </trkpt>
      <trkpt lat="47.2423" lon="-1.46514">
        <ele>52</ele>
        <time>2021-04-24T11:58:21.000Z</time>
      </trkpt>
      <trkpt lat="47.24218" lon="-1.46528">
        <ele>53</ele>
        <time>2021-04-24T11:58:23.000Z</time>
      </trkpt>
      <trkpt lat="47.24207" lon="-1.46543">
        <ele>53</ele>
        <time>2021-04-24T11:58:25.000Z</time>
      </trkpt>
      <trkpt lat="47.24197" lon="-1.46557">
        <ele>53</ele>
        <time>2021-04-24T11:58:27.000Z</time>
      </trkpt>
      <trkpt lat="47.24186" lon="-1.46571">
        <ele>53</ele>
        <time>2021-04-24T11:58:29.000Z</time>
      </trkpt>
      <trkpt lat="47.24175" lon="-1.46585">
        <ele>53</ele>
        <time>2021-04-24T11:58:31.000Z</time>
      </trkpt>
      <trkpt lat="47.24165" lon="-1.46598">
        <ele>53</ele>
        <time>2021-04-24T11:58:33.000Z</time>
      </trkpt>
      <trkpt lat="47.24155" lon="-1.46611">
        <ele>53</ele>
        <time>2021-04-24T11:58:35.000Z</time>
      </trkpt>
      <trkpt lat="47.24144" lon="-1.46624">
        <ele>53</ele>
        <time>2021-04-24T11:58:37.000Z</time>
      </trkpt>
      <trkpt lat="47.24133" lon="-1.46639">
        <ele>53</ele>
        <time>2021-04-24T11:58:39.000Z</time>
      </trkpt>
      <trkpt lat="47.24124" lon="-1.46653">
        <ele>53</ele>
        <time>2021-04-24T11:58:41.000Z</time>
      </trkpt>
      <trkpt lat="47.24114" lon="-1.46667">
        <ele>53</ele>
        <time>2021-04-24T11:58:43.000Z</time>
      </trkpt>
      <trkpt lat="47.24105" lon="-1.46681">
        <ele>53</ele>
        <time>2021-04-24T11:58:45.000Z</time>
      </trkpt>
      <trkpt lat="47.24095" lon="-1.46693">
        <ele>53</ele>
        <time>2021-04-24T11:58:47.000Z</time>
      </trkpt>
      <trkpt lat="47.24087" lon="-1.46709">
        <ele>52</ele>
        <time>2021-04-24T11:58:49.000Z</time>
      </trkpt>
      <trkpt lat="47.24079" lon="-1.46727">
        <ele>52</ele>
        <time>2021-04-24T11:58:51.000Z</time>
      </trkpt>
      <trkpt lat="47.24067" lon="-1.4674">
        <ele>52</ele>
        <time>2021-04-24T11:58:53.000Z</time>
      </trkpt>
      <trkpt lat="47.24053" lon="-1.4675">
        <ele>52</ele>
        <time>2021-04-24T11:58:55.000Z</time>
      </trkpt>
      <trkpt lat="47.24041" lon="-1.46762">
        <ele>52</ele>
        <time>2021-04-24T11:58:57.000Z</time>
      </trkpt>
      <trkpt lat="47.24029" lon="-1.46774">
        <ele>52</ele>
        <time>2021-04-24T11:58:59.000Z</time>
      </trkpt>
      <trkpt lat="47.24017" lon="-1.46789">
        <ele>52</ele>
        <time>2021-04-24T11:59:01.000Z</time>
      </trkpt>
      <trkpt lat="47.24006" lon="-1.46802">
        <ele>52</ele>
        <time>2021-04-24T11:59:03.000Z</time>
      </trkpt>
      <trkpt lat="47.23995" lon="-1.46814">
        <ele>52</ele>
        <time>2021-04-24T11:59:05.000Z</time>
      </trkpt>
      <trkpt lat="47.23983" lon="-1.46826">
        <ele>51</ele>
        <time>2021-04-24T11:59:07.000Z</time>
      </trkpt>
      <trkpt lat="47.23971" lon="-1.46839">
        <ele>52</ele>
        <time>2021-04-24T11:59:09.000Z</time>
      </trkpt>
      <trkpt lat="47.23959" lon="-1.46851">
        <ele>52</ele>
        <time>2021-04-24T11:59:11.000Z</time>
      </trkpt>
      <trkpt lat="47.23947" lon="-1.46862">
        <ele>53</ele>
        <time>2021-04-24T11:59:13.000Z</time>
      </trkpt>
      <trkpt lat="47.23934" lon="-1.46873">
        <ele>53</ele>
        <time>2021-04-24T11:59:15.000Z</time>
      </trkpt>
      <trkpt lat="47.23923" lon="-1.46885">
        <ele>52</ele>
        <time>2021-04-24T11:59:17.000Z</time>
      </trkpt>
      <trkpt lat="47.23912" lon="-1.469">
        <ele>52</ele>
        <time>2021-04-24T11:59:19.000Z</time>
      </trkpt>
      <trkpt lat="47.239" lon="-1.46914">
        <ele>51</ele>
        <time>2021-04-24T11:59:21.000Z</time>
      </trkpt>
      <trkpt lat="47.2389" lon="-1.46929">
        <ele>51</ele>
        <time>2021-04-24T11:59:23.000Z</time>
      </trkpt>
      <trkpt lat="47.23879" lon="-1.46943">
        <ele>51</ele>
        <time>2021-04-24T11:59:25.000Z</time>
      </trkpt>
      <trkpt lat="47.23868" lon="-1.46957">
        <ele>51</ele>
        <time>2021-04-24T11:59:27.000Z</time>
      </trkpt>
      <trkpt lat="47.23857" lon="-1.46971">
        <ele>50</ele>
        <time>2021-04-24T11:59:29.000Z</time>
      </trkpt>
      <trkpt lat="47.23846" lon="-1.46986">
        <ele>50</ele>
        <time>2021-04-24T11:59:31.000Z</time>
      </trkpt>
      <trkpt lat="47.23834" lon="-1.47002">
        <ele>50</ele>
        <time>2021-04-24T11:59:33.000Z</time>
      </trkpt>
      <trkpt lat="47.23823" lon="-1.47017">
        <ele>50</ele>
        <time>2021-04-24T11:59:35.000Z</time>
      </trkpt>
      <trkpt lat="47.23813" lon="-1.47032">
        <ele>50</ele>
        <time>2021-04-24T11:59:37.000Z</time>
      </trkpt>
      <trkpt lat="47.23803" lon="-1.47047">
        <ele>50</ele>
        <time>2021-04-24T11:59:39.000Z</time>
      </trkpt>
      <trkpt lat="47.23793" lon="-1.47063">
        <ele>50</ele>
        <time>2021-04-24T11:59:41.000Z</time>
      </trkpt>
      <trkpt lat="47.23781" lon="-1.47078">
        <ele>50</ele>
        <time>2021-04-24T11:59:43.000Z</time>
      </trkpt>
      <trkpt lat="47.2377" lon="-1.47093">
        <ele>50</ele>
        <time>2021-04-24T11:59:45.000Z</time>
      </trkpt>
      <trkpt lat="47.23759" lon="-1.47108">
        <ele>49</ele>
        <time>2021-04-24T11:59:47.000Z</time>
      </trkpt>
      <trkpt lat="47.23748" lon="-1.47123">
        <ele>49</ele>
        <time>2021-04-24T11:59:49.000Z</time>
      </trkpt>
      <trkpt lat="47.23737" lon="-1.47137">
        <ele>50</ele>
        <time>2021-04-24T11:59:51.000Z</time>
      </trkpt>
      <trkpt lat="47.23726" lon="-1.4715">
        <ele>51</ele>
        <time>2021-04-24T11:59:53.000Z</time>
      </trkpt>
      <trkpt lat="47.23715" lon="-1.47164">
        <ele>51</ele>
        <time>2021-04-24T11:59:55.000Z</time>
      </trkpt>
      <trkpt lat="47.23706" lon="-1.47178">
        <ele>52</ele>
        <time>2021-04-24T11:59:57.000Z</time>
      </trkpt>
      <trkpt lat="47.23695" lon="-1.47192">
        <ele>52</ele>
        <time>2021-04-24T11:59:59.000Z</time>
      </trkpt>
      <trkpt lat="47.23685" lon="-1.47208">
        <ele>51</ele>
        <time>2021-04-24T12:00:01.000Z</time>
      </trkpt>
      <trkpt lat="47.23674" lon="-1.47224">
        <ele>50</ele>
        <time>2021-04-24T12:00:03.000Z</time>
      </trkpt>
      <trkpt lat="47.2366" lon="-1.47239">
        <ele>50</ele>
        <time>2021-04-24T12:00:05.000Z</time>
      </trkpt>
      <trkpt lat="47.23648" lon="-1.47253">
        <ele>50</ele>
        <time>2021-04-24T12:00:07.000Z</time>
      </trkpt>
      <trkpt lat="47.23636" lon="-1.47267">
        <ele>50</ele>
        <time>2021-04-24T12:00:09.000Z</time>
      </trkpt>
      <trkpt lat="47.23624" lon="-1.47281">
        <ele>49</ele>
        <time>2021-04-24T12:00:11.000Z</time>
      </trkpt>
      <trkpt lat="47.23612" lon="-1.47295">
        <ele>49</ele>
        <time>2021-04-24T12:00:13.000Z</time>
      </trkpt>
      <trkpt lat="47.236" lon="-1.47307">
        <ele>50</ele>
        <time>2021-04-24T12:00:15.000Z</time>
      </trkpt>
      <trkpt lat="47.23587" lon="-1.47319">
        <ele>50</ele>
        <time>2021-04-24T12:00:17.000Z</time>
      </trkpt>
      <trkpt lat="47.23575" lon="-1.4733">
        <ele>51</ele>
        <time>2021-04-24T12:00:19.000Z</time>
      </trkpt>
      <trkpt lat="47.23562" lon="-1.47341">
        <ele>51</ele>
        <time>2021-04-24T12:00:21.000Z</time>
      </trkpt>
      <trkpt lat="47.2355" lon="-1.47352">
        <ele>52</ele>
        <time>2021-04-24T12:00:23.000Z</time>
      </trkpt>
      <trkpt lat="47.23537" lon="-1.47362">
        <ele>52</ele>
        <time>2021-04-24T12:00:25.000Z</time>
      </trkpt>
      <trkpt lat="47.23525" lon="-1.47372">
        <ele>52</ele>
        <time>2021-04-24T12:00:27.000Z</time>
      </trkpt>
      <trkpt lat="47.23513" lon="-1.47382">
        <ele>52</ele>
        <time>2021-04-24T12:00:29.000Z</time>
      </trkpt>
      <trkpt lat="47.235" lon="-1.47392">
        <ele>52</ele>
        <time>2021-04-24T12:00:31.000Z</time>
      </trkpt>
      <trkpt lat="47.23488" lon="-1.47401">
        <ele>52</ele>
        <time>2021-04-24T12:00:33.000Z</time>
      </trkpt>
      <trkpt lat="47.23475" lon="-1.47406">
        <ele>52</ele>
        <time>2021-04-24T12:00:35.000Z</time>
      </trkpt>
      <trkpt lat="47.23461" lon="-1.47413">
        <ele>52</ele>
        <time>2021-04-24T12:00:37.000Z</time>
      </trkpt>
      <trkpt lat="47.23449" lon="-1.47418">
        <ele>52</ele>
        <time>2021-04-24T12:00:39.000Z</time>
      </trkpt>
      <trkpt lat="47.23438" lon="-1.47424">
        <ele>52</ele>
        <time>2021-04-24T12:00:41.000Z</time>
      </trkpt>
      <trkpt lat="47.23427" lon="-1.47431">
        <ele>53</ele>
        <time>2021-04-24T12:00:43.000Z</time>
      </trkpt>
      <trkpt lat="47.23419" lon="-1.47437">
        <ele>53</ele>
        <time>2021-04-24T12:00:45.000Z</time>
      </trkpt>
      <trkpt lat="47.23409" lon="-1.47442">
        <ele>53</ele>
        <time>2021-04-24T12:00:47.000Z</time>
      </trkpt>
      <trkpt lat="47.23398" lon="-1.47449">
        <ele>53</ele>
        <time>2021-04-24T12:00:49.000Z</time>
      </trkpt>
      <trkpt lat="47.23386" lon="-1.47457">
        <ele>53</ele>
        <time>2021-04-24T12:00:51.000Z</time>
      </trkpt>
      <trkpt lat="47.23373" lon="-1.47464">
        <ele>53</ele>
        <time>2021-04-24T12:00:53.000Z</time>
      </trkpt>
      <trkpt lat="47.23358" lon="-1.4747">
        <ele>53</ele>
        <time>2021-04-24T12:00:55.000Z</time>
      </trkpt>
      <trkpt lat="47.23346" lon="-1.47476">
        <ele>53</ele>
        <time>2021-04-24T12:00:57.000Z</time>
      </trkpt>
      <trkpt lat="47.23334" lon="-1.47485">
        <ele>52</ele>
        <time>2021-04-24T12:00:59.000Z</time>
      </trkpt>
      <trkpt lat="47.23323" lon="-1.47497">
        <ele>52</ele>
        <time>2021-04-24T12:01:01.000Z</time>
      </trkpt>
      <trkpt lat="47.23309" lon="-1.47506">
        <ele>53</ele>
        <time>2021-04-24T12:01:03.000Z</time>
      </trkpt>
      <trkpt lat="47.23293" lon="-1.47513">
        <ele>54</ele>
        <time>2021-04-24T12:01:05.000Z</time>
      </trkpt>
      <trkpt lat="47.23278" lon="-1.47521">
        <ele>55</ele>
        <time>2021-04-24T12:01:07.000Z</time>
      </trkpt>
      <trkpt lat="47.23265" lon="-1.47531">
        <ele>55</ele>
        <time>2021-04-24T12:01:09.000Z</time>
      </trkpt>
      <trkpt lat="47.23257" lon="-1.47545">
        <ele>54</ele>
        <time>2021-04-24T12:01:11.000Z</time>
      </trkpt>
      <trkpt lat="47.23249" lon="-1.47561">
        <ele>54</ele>
        <time>2021-04-24T12:01:13.000Z</time>
      </trkpt>
      <trkpt lat="47.23239" lon="-1.47577">
        <ele>55</ele>
        <time>2021-04-24T12:01:15.000Z</time>
      </trkpt>
      <trkpt lat="47.2323" lon="-1.47592">
        <ele>54</ele>
        <time>2021-04-24T12:01:17.000Z</time>
      </trkpt>
      <trkpt lat="47.23222" lon="-1.47608">
        <ele>54</ele>
        <time>2021-04-24T12:01:19.000Z</time>
      </trkpt>
      <trkpt lat="47.23215" lon="-1.47626">
        <ele>54</ele>
        <time>2021-04-24T12:01:21.000Z</time>
      </trkpt>
      <trkpt lat="47.23208" lon="-1.47643">
        <ele>54</ele>
        <time>2021-04-24T12:01:23.000Z</time>
      </trkpt>
      <trkpt lat="47.232" lon="-1.47661">
        <ele>55</ele>
        <time>2021-04-24T12:01:25.000Z</time>
      </trkpt>
      <trkpt lat="47.23193" lon="-1.47678">
        <ele>54</ele>
        <time>2021-04-24T12:01:27.000Z</time>
      </trkpt>
      <trkpt lat="47.23185" lon="-1.47695">
        <ele>54</ele>
        <time>2021-04-24T12:01:29.000Z</time>
      </trkpt>
      <trkpt lat="47.23177" lon="-1.47713">
        <ele>54</ele>
        <time>2021-04-24T12:01:31.000Z</time>
      </trkpt>
      <trkpt lat="47.23169" lon="-1.47731">
        <ele>53</ele>
        <time>2021-04-24T12:01:33.000Z</time>
      </trkpt>
      <trkpt lat="47.23161" lon="-1.47749">
        <ele>53</ele>
        <time>2021-04-24T12:01:35.000Z</time>
      </trkpt>
      <trkpt lat="47.23154" lon="-1.47767">
        <ele>53</ele>
        <time>2021-04-24T12:01:37.000Z</time>
      </trkpt>
      <trkpt lat="47.23148" lon="-1.47784">
        <ele>53</ele>
        <time>2021-04-24T12:01:39.000Z</time>
      </trkpt>
      <trkpt lat="47.23143" lon="-1.47802">
        <ele>53</ele>
        <time>2021-04-24T12:01:41.000Z</time>
      </trkpt>
      <trkpt lat="47.23138" lon="-1.47819">
        <ele>53</ele>
        <time>2021-04-24T12:01:43.000Z</time>
      </trkpt>
      <trkpt lat="47.23131" lon="-1.47834">
        <ele>52</ele>
        <time>2021-04-24T12:01:45.000Z</time>
      </trkpt>
      <trkpt lat="47.23123" lon="-1.47851">
        <ele>53</ele>
        <time>2021-04-24T12:01:47.000Z</time>
      </trkpt>
      <trkpt lat="47.23113" lon="-1.47866">
        <ele>53</ele>
        <time>2021-04-24T12:01:49.000Z</time>
      </trkpt>
      <trkpt lat="47.23102" lon="-1.47881">
        <ele>53</ele>
        <time>2021-04-24T12:01:51.000Z</time>
      </trkpt>
      <trkpt lat="47.23092" lon="-1.47895">
        <ele>53</ele>
        <time>2021-04-24T12:01:53.000Z</time>
      </trkpt>
      <trkpt lat="47.23082" lon="-1.47909">
        <ele>53</ele>
        <time>2021-04-24T12:01:55.000Z</time>
      </trkpt>
      <trkpt lat="47.23072" lon="-1.47922">
        <ele>53</ele>
        <time>2021-04-24T12:01:57.000Z</time>
      </trkpt>
      <trkpt lat="47.23062" lon="-1.47935">
        <ele>53</ele>
        <time>2021-04-24T12:01:59.000Z</time>
      </trkpt>
      <trkpt lat="47.23052" lon="-1.47949">
        <ele>53</ele>
        <time>2021-04-24T12:02:01.000Z</time>
      </trkpt>
      <trkpt lat="47.23041" lon="-1.47963">
        <ele>53</ele>
        <time>2021-04-24T12:02:03.000Z</time>
      </trkpt>
      <trkpt lat="47.23031" lon="-1.47976">
        <ele>53</ele>
        <time>2021-04-24T12:02:05.000Z</time>
      </trkpt>
      <trkpt lat="47.2302" lon="-1.47991">
        <ele>53</ele>
        <time>2021-04-24T12:02:07.000Z</time>
      </trkpt>
      <trkpt lat="47.2301" lon="-1.48006">
        <ele>53</ele>
        <time>2021-04-24T12:02:09.000Z</time>
      </trkpt>
      <trkpt lat="47.23001" lon="-1.48022">
        <ele>52</ele>
        <time>2021-04-24T12:02:11.000Z</time>
      </trkpt>
      <trkpt lat="47.22991" lon="-1.48037">
        <ele>52</ele>
        <time>2021-04-24T12:02:13.000Z</time>
      </trkpt>
      <trkpt lat="47.22983" lon="-1.48052">
        <ele>52</ele>
        <time>2021-04-24T12:02:15.000Z</time>
      </trkpt>
      <trkpt lat="47.22975" lon="-1.48066">
        <ele>52</ele>
        <time>2021-04-24T12:02:17.000Z</time>
      </trkpt>
      <trkpt lat="47.22968" lon="-1.48078">
        <ele>52</ele>
        <time>2021-04-24T12:02:19.000Z</time>
      </trkpt>
      <trkpt lat="47.2296" lon="-1.48089">
        <ele>52</ele>
        <time>2021-04-24T12:02:21.000Z</time>
      </trkpt>
      <trkpt lat="47.22953" lon="-1.48103">
        <ele>53</ele>
        <time>2021-04-24T12:02:24.000Z</time>
      </trkpt>
      <trkpt lat="47.22941" lon="-1.48107">
        <ele>52</ele>
        <time>2021-04-24T12:02:27.000Z</time>
      </trkpt>
      <trkpt lat="47.22927" lon="-1.48109">
        <ele>52</ele>
        <time>2021-04-24T12:02:29.000Z</time>
      </trkpt>
      <trkpt lat="47.22913" lon="-1.48117">
        <ele>52</ele>
        <time>2021-04-24T12:02:31.000Z</time>
      </trkpt>
      <trkpt lat="47.229" lon="-1.48131">
        <ele>52</ele>
        <time>2021-04-24T12:02:33.000Z</time>
      </trkpt>
      <trkpt lat="47.22887" lon="-1.48147">
        <ele>53</ele>
        <time>2021-04-24T12:02:35.000Z</time>
      </trkpt>
      <trkpt lat="47.22876" lon="-1.48164">
        <ele>52</ele>
        <time>2021-04-24T12:02:37.000Z</time>
      </trkpt>
      <trkpt lat="47.22866" lon="-1.48181">
        <ele>52</ele>
        <time>2021-04-24T12:02:39.000Z</time>
      </trkpt>
      <trkpt lat="47.22857" lon="-1.48197">
        <ele>52</ele>
        <time>2021-04-24T12:02:41.000Z</time>
      </trkpt>
      <trkpt lat="47.22847" lon="-1.48212">
        <ele>52</ele>
        <time>2021-04-24T12:02:43.000Z</time>
      </trkpt>
      <trkpt lat="47.22837" lon="-1.48227">
        <ele>53</ele>
        <time>2021-04-24T12:02:45.000Z</time>
      </trkpt>
      <trkpt lat="47.22826" lon="-1.48241">
        <ele>53</ele>
        <time>2021-04-24T12:02:47.000Z</time>
      </trkpt>
      <trkpt lat="47.22816" lon="-1.48255">
        <ele>53</ele>
        <time>2021-04-24T12:02:49.000Z</time>
      </trkpt>
      <trkpt lat="47.22807" lon="-1.48273">
        <ele>53</ele>
        <time>2021-04-24T12:02:51.000Z</time>
      </trkpt>
      <trkpt lat="47.22796" lon="-1.48291">
        <ele>53</ele>
        <time>2021-04-24T12:02:53.000Z</time>
      </trkpt>
      <trkpt lat="47.22786" lon="-1.48308">
        <ele>53</ele>
        <time>2021-04-24T12:02:55.000Z</time>
      </trkpt>
      <trkpt lat="47.22775" lon="-1.48324">
        <ele>53</ele>
        <time>2021-04-24T12:02:57.000Z</time>
      </trkpt>
      <trkpt lat="47.22765" lon="-1.4834">
        <ele>53</ele>
        <time>2021-04-24T12:02:59.000Z</time>
      </trkpt>
      <trkpt lat="47.22754" lon="-1.48355">
        <ele>53</ele>
        <time>2021-04-24T12:03:01.000Z</time>
      </trkpt>
      <trkpt lat="47.22743" lon="-1.48369">
        <ele>53</ele>
        <time>2021-04-24T12:03:03.000Z</time>
      </trkpt>
      <trkpt lat="47.22733" lon="-1.48383">
        <ele>53</ele>
        <time>2021-04-24T12:03:05.000Z</time>
      </trkpt>
      <trkpt lat="47.22721" lon="-1.48396">
        <ele>53</ele>
        <time>2021-04-24T12:03:07.000Z</time>
      </trkpt>
      <trkpt lat="47.22712" lon="-1.48411">
        <ele>53</ele>
        <time>2021-04-24T12:03:09.000Z</time>
      </trkpt>
      <trkpt lat="47.22703" lon="-1.48428">
        <ele>53</ele>
        <time>2021-04-24T12:03:11.000Z</time>
      </trkpt>
      <trkpt lat="47.22696" lon="-1.48445">
        <ele>53</ele>
        <time>2021-04-24T12:03:13.000Z</time>
      </trkpt>
      <trkpt lat="47.2269" lon="-1.48463">
        <ele>53</ele>
        <time>2021-04-24T12:03:15.000Z</time>
      </trkpt>
      <trkpt lat="47.22682" lon="-1.48483">
        <ele>54</ele>
        <time>2021-04-24T12:03:17.000Z</time>
      </trkpt>
      <trkpt lat="47.22673" lon="-1.48503">
        <ele>54</ele>
        <time>2021-04-24T12:03:19.000Z</time>
      </trkpt>
      <trkpt lat="47.22666" lon="-1.48525">
        <ele>54</ele>
        <time>2021-04-24T12:03:21.000Z</time>
      </trkpt>
      <trkpt lat="47.2266" lon="-1.48549">
        <ele>54</ele>
        <time>2021-04-24T12:03:23.000Z</time>
      </trkpt>
      <trkpt lat="47.22653" lon="-1.48571">
        <ele>54</ele>
        <time>2021-04-24T12:03:25.000Z</time>
      </trkpt>
      <trkpt lat="47.22644" lon="-1.4859">
        <ele>53</ele>
        <time>2021-04-24T12:03:27.000Z</time>
      </trkpt>
      <trkpt lat="47.22638" lon="-1.4861">
        <ele>53</ele>
        <time>2021-04-24T12:03:29.000Z</time>
      </trkpt>
      <trkpt lat="47.22632" lon="-1.48629">
        <ele>53</ele>
        <time>2021-04-24T12:03:31.000Z</time>
      </trkpt>
      <trkpt lat="47.22625" lon="-1.48651">
        <ele>53</ele>
        <time>2021-04-24T12:03:33.000Z</time>
      </trkpt>
      <trkpt lat="47.22617" lon="-1.48672">
        <ele>53</ele>
        <time>2021-04-24T12:03:35.000Z</time>
      </trkpt>
      <trkpt lat="47.2261" lon="-1.48692">
        <ele>52</ele>
        <time>2021-04-24T12:03:37.000Z</time>
      </trkpt>
      <trkpt lat="47.22604" lon="-1.48714">
        <ele>52</ele>
        <time>2021-04-24T12:03:39.000Z</time>
      </trkpt>
      <trkpt lat="47.22598" lon="-1.48737">
        <ele>53</ele>
        <time>2021-04-24T12:03:41.000Z</time>
      </trkpt>
      <trkpt lat="47.22592" lon="-1.48762">
        <ele>53</ele>
        <time>2021-04-24T12:03:43.000Z</time>
      </trkpt>
      <trkpt lat="47.22585" lon="-1.48784">
        <ele>53</ele>
        <time>2021-04-24T12:03:45.000Z</time>
      </trkpt>
      <trkpt lat="47.22578" lon="-1.48805">
        <ele>52</ele>
        <time>2021-04-24T12:03:47.000Z</time>
      </trkpt>
      <trkpt lat="47.22571" lon="-1.48826">
        <ele>52</ele>
        <time>2021-04-24T12:03:49.000Z</time>
      </trkpt>
      <trkpt lat="47.22565" lon="-1.48847">
        <ele>53</ele>
        <time>2021-04-24T12:03:51.000Z</time>
      </trkpt>
      <trkpt lat="47.2256" lon="-1.48868">
        <ele>54</ele>
        <time>2021-04-24T12:03:53.000Z</time>
      </trkpt>
      <trkpt lat="47.22554" lon="-1.48887">
        <ele>53</ele>
        <time>2021-04-24T12:03:55.000Z</time>
      </trkpt>
      <trkpt lat="47.22549" lon="-1.48908">
        <ele>54</ele>
        <time>2021-04-24T12:03:57.000Z</time>
      </trkpt>
      <trkpt lat="47.22542" lon="-1.48929">
        <ele>53</ele>
        <time>2021-04-24T12:03:59.000Z</time>
      </trkpt>
      <trkpt lat="47.22535" lon="-1.4895">
        <ele>52</ele>
        <time>2021-04-24T12:04:01.000Z</time>
      </trkpt>
      <trkpt lat="47.22528" lon="-1.48971">
        <ele>53</ele>
        <time>2021-04-24T12:04:03.000Z</time>
      </trkpt>
      <trkpt lat="47.22522" lon="-1.48992">
        <ele>52</ele>
        <time>2021-04-24T12:04:05.000Z</time>
      </trkpt>
      <trkpt lat="47.22516" lon="-1.49013">
        <ele>51</ele>
        <time>2021-04-24T12:04:07.000Z</time>
      </trkpt>
      <trkpt lat="47.2251" lon="-1.49032">
        <ele>50</ele>
        <time>2021-04-24T12:04:09.000Z</time>
      </trkpt>
      <trkpt lat="47.22504" lon="-1.4905">
        <ele>50</ele>
        <time>2021-04-24T12:04:11.000Z</time>
      </trkpt>
      <trkpt lat="47.22497" lon="-1.49072">
        <ele>50</ele>
        <time>2021-04-24T12:04:13.000Z</time>
      </trkpt>
      <trkpt lat="47.2249" lon="-1.49094">
        <ele>50</ele>
        <time>2021-04-24T12:04:15.000Z</time>
      </trkpt>
      <trkpt lat="47.22483" lon="-1.49114">
        <ele>50</ele>
        <time>2021-04-24T12:04:17.000Z</time>
      </trkpt>
      <trkpt lat="47.22477" lon="-1.49135">
        <ele>49</ele>
        <time>2021-04-24T12:04:19.000Z</time>
      </trkpt>
      <trkpt lat="47.2247" lon="-1.49156">
        <ele>49</ele>
        <time>2021-04-24T12:04:21.000Z</time>
      </trkpt>
      <trkpt lat="47.22461" lon="-1.49177">
        <ele>48</ele>
        <time>2021-04-24T12:04:23.000Z</time>
      </trkpt>
      <trkpt lat="47.22453" lon="-1.49197">
        <ele>48</ele>
        <time>2021-04-24T12:04:25.000Z</time>
      </trkpt>
      <trkpt lat="47.22447" lon="-1.49217">
        <ele>48</ele>
        <time>2021-04-24T12:04:27.000Z</time>
      </trkpt>
      <trkpt lat="47.2244" lon="-1.49237">
        <ele>48</ele>
        <time>2021-04-24T12:04:29.000Z</time>
      </trkpt>
      <trkpt lat="47.22431" lon="-1.49257">
        <ele>48</ele>
        <time>2021-04-24T12:04:31.000Z</time>
      </trkpt>
      <trkpt lat="47.22421" lon="-1.49279">
        <ele>49</ele>
        <time>2021-04-24T12:04:33.000Z</time>
      </trkpt>
      <trkpt lat="47.22413" lon="-1.49299">
        <ele>48</ele>
        <time>2021-04-24T12:04:35.000Z</time>
      </trkpt>
      <trkpt lat="47.22406" lon="-1.49319">
        <ele>48</ele>
        <time>2021-04-24T12:04:37.000Z</time>
      </trkpt>
      <trkpt lat="47.22399" lon="-1.49339">
        <ele>48</ele>
        <time>2021-04-24T12:04:39.000Z</time>
      </trkpt>
      <trkpt lat="47.22391" lon="-1.49359">
        <ele>49</ele>
        <time>2021-04-24T12:04:41.000Z</time>
      </trkpt>
      <trkpt lat="47.22383" lon="-1.49377">
        <ele>49</ele>
        <time>2021-04-24T12:04:43.000Z</time>
      </trkpt>
      <trkpt lat="47.22375" lon="-1.49396">
        <ele>49</ele>
        <time>2021-04-24T12:04:45.000Z</time>
      </trkpt>
      <trkpt lat="47.22366" lon="-1.49414">
        <ele>49</ele>
        <time>2021-04-24T12:04:47.000Z</time>
      </trkpt>
      <trkpt lat="47.22359" lon="-1.49432">
        <ele>49</ele>
        <time>2021-04-24T12:04:49.000Z</time>
      </trkpt>
      <trkpt lat="47.22352" lon="-1.4945">
        <ele>50</ele>
        <time>2021-04-24T12:04:51.000Z</time>
      </trkpt>
      <trkpt lat="47.22345" lon="-1.4947">
        <ele>51</ele>
        <time>2021-04-24T12:04:53.000Z</time>
      </trkpt>
      <trkpt lat="47.22338" lon="-1.49491">
        <ele>50</ele>
        <time>2021-04-24T12:04:55.000Z</time>
      </trkpt>
      <trkpt lat="47.22332" lon="-1.49511">
        <ele>50</ele>
        <time>2021-04-24T12:04:57.000Z</time>
      </trkpt>
      <trkpt lat="47.22325" lon="-1.4953">
        <ele>50</ele>
        <time>2021-04-24T12:04:59.000Z</time>
      </trkpt>
      <trkpt lat="47.22318" lon="-1.49549">
        <ele>50</ele>
        <time>2021-04-24T12:05:01.000Z</time>
      </trkpt>
      <trkpt lat="47.22312" lon="-1.49567">
        <ele>50</ele>
        <time>2021-04-24T12:05:03.000Z</time>
      </trkpt>
      <trkpt lat="47.22305" lon="-1.49585">
        <ele>51</ele>
        <time>2021-04-24T12:05:05.000Z</time>
      </trkpt>
      <trkpt lat="47.223" lon="-1.49604">
        <ele>50</ele>
        <time>2021-04-24T12:05:07.000Z</time>
      </trkpt>
      <trkpt lat="47.22297" lon="-1.49626">
        <ele>49</ele>
        <time>2021-04-24T12:05:09.000Z</time>
      </trkpt>
      <trkpt lat="47.22291" lon="-1.49648">
        <ele>49</ele>
        <time>2021-04-24T12:05:11.000Z</time>
      </trkpt>
      <trkpt lat="47.22285" lon="-1.49669">
        <ele>49</ele>
        <time>2021-04-24T12:05:13.000Z</time>
      </trkpt>
      <trkpt lat="47.22278" lon="-1.49689">
        <ele>49</ele>
        <time>2021-04-24T12:05:15.000Z</time>
      </trkpt>
      <trkpt lat="47.2227" lon="-1.49709">
        <ele>50</ele>
        <time>2021-04-24T12:05:17.000Z</time>
      </trkpt>
      <trkpt lat="47.22263" lon="-1.49729">
        <ele>51</ele>
        <time>2021-04-24T12:05:19.000Z</time>
      </trkpt>
      <trkpt lat="47.22259" lon="-1.4975">
        <ele>51</ele>
        <time>2021-04-24T12:05:21.000Z</time>
      </trkpt>
      <trkpt lat="47.22255" lon="-1.49771">
        <ele>51</ele>
        <time>2021-04-24T12:05:23.000Z</time>
      </trkpt>
      <trkpt lat="47.22253" lon="-1.49791">
        <ele>52</ele>
        <time>2021-04-24T12:05:25.000Z</time>
      </trkpt>
      <trkpt lat="47.2225" lon="-1.49811">
        <ele>52</ele>
        <time>2021-04-24T12:05:27.000Z</time>
      </trkpt>
      <trkpt lat="47.22246" lon="-1.49831">
        <ele>53</ele>
        <time>2021-04-24T12:05:29.000Z</time>
      </trkpt>
      <trkpt lat="47.22242" lon="-1.49852">
        <ele>52</ele>
        <time>2021-04-24T12:05:31.000Z</time>
      </trkpt>
      <trkpt lat="47.22237" lon="-1.49872">
        <ele>52</ele>
        <time>2021-04-24T12:05:33.000Z</time>
      </trkpt>
      <trkpt lat="47.22232" lon="-1.49893">
        <ele>51</ele>
        <time>2021-04-24T12:05:35.000Z</time>
      </trkpt>
      <trkpt lat="47.22227" lon="-1.49912">
        <ele>51</ele>
        <time>2021-04-24T12:05:37.000Z</time>
      </trkpt>
      <trkpt lat="47.22224" lon="-1.49932">
        <ele>50</ele>
        <time>2021-04-24T12:05:39.000Z</time>
      </trkpt>
      <trkpt lat="47.22219" lon="-1.49952">
        <ele>50</ele>
        <time>2021-04-24T12:05:41.000Z</time>
      </trkpt>
      <trkpt lat="47.22215" lon="-1.4997">
        <ele>50</ele>
        <time>2021-04-24T12:05:43.000Z</time>
      </trkpt>
      <trkpt lat="47.22208" lon="-1.4999">
        <ele>50</ele>
        <time>2021-04-24T12:05:45.000Z</time>
      </trkpt>
      <trkpt lat="47.22203" lon="-1.50012">
        <ele>50</ele>
        <time>2021-04-24T12:05:47.000Z</time>
      </trkpt>
      <trkpt lat="47.22198" lon="-1.50032">
        <ele>49</ele>
        <time>2021-04-24T12:05:49.000Z</time>
      </trkpt>
      <trkpt lat="47.22193" lon="-1.50053">
        <ele>48</ele>
        <time>2021-04-24T12:05:51.000Z</time>
      </trkpt>
      <trkpt lat="47.22188" lon="-1.50073">
        <ele>47</ele>
        <time>2021-04-24T12:05:53.000Z</time>
      </trkpt>
      <trkpt lat="47.22183" lon="-1.50094">
        <ele>47</ele>
        <time>2021-04-24T12:05:55.000Z</time>
      </trkpt>
      <trkpt lat="47.22176" lon="-1.50115">
        <ele>47</ele>
        <time>2021-04-24T12:05:57.000Z</time>
      </trkpt>
      <trkpt lat="47.22169" lon="-1.50135">
        <ele>47</ele>
        <time>2021-04-24T12:05:59.000Z</time>
      </trkpt>
      <trkpt lat="47.22162" lon="-1.50155">
        <ele>47</ele>
        <time>2021-04-24T12:06:01.000Z</time>
      </trkpt>
      <trkpt lat="47.22156" lon="-1.50176">
        <ele>46</ele>
        <time>2021-04-24T12:06:03.000Z</time>
      </trkpt>
      <trkpt lat="47.22151" lon="-1.50197">
        <ele>46</ele>
        <time>2021-04-24T12:06:05.000Z</time>
      </trkpt>
      <trkpt lat="47.22147" lon="-1.50217">
        <ele>46</ele>
        <time>2021-04-24T12:06:07.000Z</time>
      </trkpt>
      <trkpt lat="47.22141" lon="-1.50236">
        <ele>46</ele>
        <time>2021-04-24T12:06:09.000Z</time>
      </trkpt>
      <trkpt lat="47.22134" lon="-1.50255">
        <ele>47</ele>
        <time>2021-04-24T12:06:11.000Z</time>
      </trkpt>
      <trkpt lat="47.22127" lon="-1.50275">
        <ele>47</ele>
        <time>2021-04-24T12:06:13.000Z</time>
      </trkpt>
      <trkpt lat="47.22118" lon="-1.50293">
        <ele>49</ele>
        <time>2021-04-24T12:06:15.000Z</time>
      </trkpt>
      <trkpt lat="47.22109" lon="-1.5031">
        <ele>50</ele>
        <time>2021-04-24T12:06:17.000Z</time>
      </trkpt>
      <trkpt lat="47.22101" lon="-1.50327">
        <ele>50</ele>
        <time>2021-04-24T12:06:19.000Z</time>
      </trkpt>
      <trkpt lat="47.22094" lon="-1.50345">
        <ele>50</ele>
        <time>2021-04-24T12:06:21.000Z</time>
      </trkpt>
      <trkpt lat="47.22088" lon="-1.50366">
        <ele>50</ele>
        <time>2021-04-24T12:06:23.000Z</time>
      </trkpt>
      <trkpt lat="47.22083" lon="-1.50387">
        <ele>51</ele>
        <time>2021-04-24T12:06:25.000Z</time>
      </trkpt>
      <trkpt lat="47.22078" lon="-1.50406">
        <ele>51</ele>
        <time>2021-04-24T12:06:27.000Z</time>
      </trkpt>
      <trkpt lat="47.22073" lon="-1.50425">
        <ele>50</ele>
        <time>2021-04-24T12:06:29.000Z</time>
      </trkpt>
      <trkpt lat="47.2207" lon="-1.50446">
        <ele>50</ele>
        <time>2021-04-24T12:06:31.000Z</time>
      </trkpt>
      <trkpt lat="47.22066" lon="-1.50468">
        <ele>50</ele>
        <time>2021-04-24T12:06:33.000Z</time>
      </trkpt>
      <trkpt lat="47.22064" lon="-1.50488">
        <ele>50</ele>
        <time>2021-04-24T12:06:35.000Z</time>
      </trkpt>
      <trkpt lat="47.22063" lon="-1.50508">
        <ele>49</ele>
        <time>2021-04-24T12:06:37.000Z</time>
      </trkpt>
      <trkpt lat="47.22062" lon="-1.50528">
        <ele>49</ele>
        <time>2021-04-24T12:06:39.000Z</time>
      </trkpt>
      <trkpt lat="47.2206" lon="-1.50547">
        <ele>49</ele>
        <time>2021-04-24T12:06:41.000Z</time>
      </trkpt>
      <trkpt lat="47.22058" lon="-1.50568">
        <ele>48</ele>
        <time>2021-04-24T12:06:43.000Z</time>
      </trkpt>
      <trkpt lat="47.22057" lon="-1.50586">
        <ele>48</ele>
        <time>2021-04-24T12:06:45.000Z</time>
      </trkpt>
      <trkpt lat="47.22056" lon="-1.50605">
        <ele>47</ele>
        <time>2021-04-24T12:06:47.000Z</time>
      </trkpt>
      <trkpt lat="47.22055" lon="-1.50622">
        <ele>47</ele>
        <time>2021-04-24T12:06:49.000Z</time>
      </trkpt>
      <trkpt lat="47.22054" lon="-1.50642">
        <ele>46</ele>
        <time>2021-04-24T12:06:51.000Z</time>
      </trkpt>
      <trkpt lat="47.22053" lon="-1.50662">
        <ele>46</ele>
        <time>2021-04-24T12:06:53.000Z</time>
      </trkpt>
      <trkpt lat="47.22053" lon="-1.5068">
        <ele>46</ele>
        <time>2021-04-24T12:06:55.000Z</time>
      </trkpt>
      <trkpt lat="47.22053" lon="-1.507">
        <ele>46</ele>
        <time>2021-04-24T12:06:57.000Z</time>
      </trkpt>
      <trkpt lat="47.2205" lon="-1.50719">
        <ele>46</ele>
        <time>2021-04-24T12:06:59.000Z</time>
      </trkpt>
      <trkpt lat="47.22048" lon="-1.5074">
        <ele>46</ele>
        <time>2021-04-24T12:07:01.000Z</time>
      </trkpt>
      <trkpt lat="47.22045" lon="-1.5076">
        <ele>46</ele>
        <time>2021-04-24T12:07:03.000Z</time>
      </trkpt>
      <trkpt lat="47.22042" lon="-1.50781">
        <ele>45</ele>
        <time>2021-04-24T12:07:05.000Z</time>
      </trkpt>
      <trkpt lat="47.22037" lon="-1.50799">
        <ele>45</ele>
        <time>2021-04-24T12:07:07.000Z</time>
      </trkpt>
      <trkpt lat="47.22032" lon="-1.50816">
        <ele>45</ele>
        <time>2021-04-24T12:07:09.000Z</time>
      </trkpt>
      <trkpt lat="47.22024" lon="-1.50835">
        <ele>44</ele>
        <time>2021-04-24T12:07:11.000Z</time>
      </trkpt>
      <trkpt lat="47.22016" lon="-1.50856">
        <ele>45</ele>
        <time>2021-04-24T12:07:13.000Z</time>
      </trkpt>
      <trkpt lat="47.22007" lon="-1.5088">
        <ele>45</ele>
        <time>2021-04-24T12:07:15.000Z</time>
      </trkpt>
      <trkpt lat="47.22003" lon="-1.50891">
        <ele>45</ele>
        <time>2021-04-24T12:07:16.000Z</time>
      </trkpt>
      <trkpt lat="47.21995" lon="-1.50914">
        <ele>46</ele>
        <time>2021-04-24T12:07:18.000Z</time>
      </trkpt>
      <trkpt lat="47.21989" lon="-1.50937">
        <ele>47</ele>
        <time>2021-04-24T12:07:20.000Z</time>
      </trkpt>
      <trkpt lat="47.21984" lon="-1.50959">
        <ele>47</ele>
        <time>2021-04-24T12:07:22.000Z</time>
      </trkpt>
      <trkpt lat="47.21977" lon="-1.5098">
        <ele>47</ele>
        <time>2021-04-24T12:07:24.000Z</time>
      </trkpt>
      <trkpt lat="47.2197" lon="-1.51">
        <ele>47</ele>
        <time>2021-04-24T12:07:26.000Z</time>
      </trkpt>
      <trkpt lat="47.21964" lon="-1.5102">
        <ele>48</ele>
        <time>2021-04-24T12:07:28.000Z</time>
      </trkpt>
      <trkpt lat="47.21958" lon="-1.51039">
        <ele>47</ele>
        <time>2021-04-24T12:07:30.000Z</time>
      </trkpt>
      <trkpt lat="47.21951" lon="-1.51056">
        <ele>49</ele>
        <time>2021-04-24T12:07:32.000Z</time>
      </trkpt>
      <trkpt lat="47.2194" lon="-1.51068">
        <ele>51</ele>
        <time>2021-04-24T12:07:34.000Z</time>
      </trkpt>
      <trkpt lat="47.21932" lon="-1.51084">
        <ele>51</ele>
        <time>2021-04-24T12:07:36.000Z</time>
      </trkpt>
      <trkpt lat="47.21926" lon="-1.51102">
        <ele>52</ele>
        <time>2021-04-24T12:07:38.000Z</time>
      </trkpt>
      <trkpt lat="47.2192" lon="-1.5112">
        <ele>52</ele>
        <time>2021-04-24T12:07:40.000Z</time>
      </trkpt>
      <trkpt lat="47.21914" lon="-1.51139">
        <ele>52</ele>
        <time>2021-04-24T12:07:42.000Z</time>
      </trkpt>
      <trkpt lat="47.21909" lon="-1.51158">
        <ele>53</ele>
        <time>2021-04-24T12:07:44.000Z</time>
      </trkpt>
      <trkpt lat="47.21903" lon="-1.51176">
        <ele>54</ele>
        <time>2021-04-24T12:07:46.000Z</time>
      </trkpt>
      <trkpt lat="47.21897" lon="-1.51195">
        <ele>54</ele>
        <time>2021-04-24T12:07:48.000Z</time>
      </trkpt>
      <trkpt lat="47.21891" lon="-1.51213">
        <ele>54</ele>
        <time>2021-04-24T12:07:50.000Z</time>
      </trkpt>
      <trkpt lat="47.21886" lon="-1.5123">
        <ele>53</ele>
        <time>2021-04-24T12:07:52.000Z</time>
      </trkpt>
      <trkpt lat="47.21881" lon="-1.51245">
        <ele>53</ele>
        <time>2021-04-24T12:07:54.000Z</time>
      </trkpt>
      <trkpt lat="47.21876" lon="-1.51257">
        <ele>54</ele>
        <time>2021-04-24T12:07:56.000Z</time>
      </trkpt>
      <trkpt lat="47.21871" lon="-1.5127">
        <ele>53</ele>
        <time>2021-04-24T12:07:58.000Z</time>
      </trkpt>
      <trkpt lat="47.21867" lon="-1.51286">
        <ele>53</ele>
        <time>2021-04-24T12:08:00.000Z</time>
      </trkpt>
      <trkpt lat="47.21863" lon="-1.51301">
        <ele>53</ele>
        <time>2021-04-24T12:08:02.000Z</time>
      </trkpt>
      <trkpt lat="47.21857" lon="-1.51322">
        <ele>53</ele>
        <time>2021-04-24T12:08:04.000Z</time>
      </trkpt>
      <trkpt lat="47.21851" lon="-1.51345">
        <ele>54</ele>
        <time>2021-04-24T12:08:06.000Z</time>
      </trkpt>
      <trkpt lat="47.21845" lon="-1.5137">
        <ele>54</ele>
        <time>2021-04-24T12:08:08.000Z</time>
      </trkpt>
      <trkpt lat="47.21842" lon="-1.51383">
        <ele>54</ele>
        <time>2021-04-24T12:08:09.000Z</time>
      </trkpt>
      <trkpt lat="47.2184" lon="-1.51395">
        <ele>54</ele>
        <time>2021-04-24T12:08:10.000Z</time>
      </trkpt>
      <trkpt lat="47.21834" lon="-1.5142">
        <ele>54</ele>
        <time>2021-04-24T12:08:12.000Z</time>
      </trkpt>
      <trkpt lat="47.21827" lon="-1.51443">
        <ele>53</ele>
        <time>2021-04-24T12:08:14.000Z</time>
      </trkpt>
      <trkpt lat="47.21823" lon="-1.51465">
        <ele>53</ele>
        <time>2021-04-24T12:08:16.000Z</time>
      </trkpt>
      <trkpt lat="47.21817" lon="-1.51488">
        <ele>53</ele>
        <time>2021-04-24T12:08:18.000Z</time>
      </trkpt>
      <trkpt lat="47.21809" lon="-1.51508">
        <ele>53</ele>
        <time>2021-04-24T12:08:20.000Z</time>
      </trkpt>
      <trkpt lat="47.218" lon="-1.51527">
        <ele>53</ele>
        <time>2021-04-24T12:08:22.000Z</time>
      </trkpt>
      <trkpt lat="47.21792" lon="-1.51547">
        <ele>53</ele>
        <time>2021-04-24T12:08:24.000Z</time>
      </trkpt>
      <trkpt lat="47.21783" lon="-1.51567">
        <ele>53</ele>
        <time>2021-04-24T12:08:26.000Z</time>
      </trkpt>
      <trkpt lat="47.21773" lon="-1.51584">
        <ele>54</ele>
        <time>2021-04-24T12:08:28.000Z</time>
      </trkpt>
      <trkpt lat="47.21763" lon="-1.51599">
        <ele>54</ele>
        <time>2021-04-24T12:08:30.000Z</time>
      </trkpt>
      <trkpt lat="47.21753" lon="-1.51615">
        <ele>54</ele>
        <time>2021-04-24T12:08:32.000Z</time>
      </trkpt>
      <trkpt lat="47.21744" lon="-1.51633">
        <ele>53</ele>
        <time>2021-04-24T12:08:34.000Z</time>
      </trkpt>
      <trkpt lat="47.21736" lon="-1.51651">
        <ele>53</ele>
        <time>2021-04-24T12:08:36.000Z</time>
      </trkpt>
      <trkpt lat="47.21729" lon="-1.51669">
        <ele>52</ele>
        <time>2021-04-24T12:08:38.000Z</time>
      </trkpt>
      <trkpt lat="47.2172" lon="-1.51687">
        <ele>52</ele>
        <time>2021-04-24T12:08:40.000Z</time>
      </trkpt>
      <trkpt lat="47.21712" lon="-1.51704">
        <ele>53</ele>
        <time>2021-04-24T12:08:42.000Z</time>
      </trkpt>
      <trkpt lat="47.21704" lon="-1.51722">
        <ele>53</ele>
        <time>2021-04-24T12:08:44.000Z</time>
      </trkpt>
      <trkpt lat="47.21696" lon="-1.5174">
        <ele>53</ele>
        <time>2021-04-24T12:08:46.000Z</time>
      </trkpt>
      <trkpt lat="47.21688" lon="-1.51758">
        <ele>52</ele>
        <time>2021-04-24T12:08:48.000Z</time>
      </trkpt>
      <trkpt lat="47.2168" lon="-1.51777">
        <ele>52</ele>
        <time>2021-04-24T12:08:50.000Z</time>
      </trkpt>
      <trkpt lat="47.21673" lon="-1.51795">
        <ele>52</ele>
        <time>2021-04-24T12:08:52.000Z</time>
      </trkpt>
      <trkpt lat="47.21666" lon="-1.51813">
        <ele>52</ele>
        <time>2021-04-24T12:08:54.000Z</time>
      </trkpt>
      <trkpt lat="47.21658" lon="-1.51831">
        <ele>52</ele>
        <time>2021-04-24T12:08:56.000Z</time>
      </trkpt>
      <trkpt lat="47.21652" lon="-1.51849">
        <ele>52</ele>
        <time>2021-04-24T12:08:58.000Z</time>
      </trkpt>
      <trkpt lat="47.21648" lon="-1.51868">
        <ele>52</ele>
        <time>2021-04-24T12:09:00.000Z</time>
      </trkpt>
      <trkpt lat="47.21644" lon="-1.51887">
        <ele>53</ele>
        <time>2021-04-24T12:09:02.000Z</time>
      </trkpt>
      <trkpt lat="47.21635" lon="-1.51903">
        <ele>53</ele>
        <time>2021-04-24T12:09:04.000Z</time>
      </trkpt>
      <trkpt lat="47.21628" lon="-1.51922">
        <ele>53</ele>
        <time>2021-04-24T12:09:06.000Z</time>
      </trkpt>
      <trkpt lat="47.21624" lon="-1.51941">
        <ele>52</ele>
        <time>2021-04-24T12:09:08.000Z</time>
      </trkpt>
      <trkpt lat="47.21621" lon="-1.51962">
        <ele>51</ele>
        <time>2021-04-24T12:09:10.000Z</time>
      </trkpt>
      <trkpt lat="47.21614" lon="-1.51979">
        <ele>52</ele>
        <time>2021-04-24T12:09:12.000Z</time>
      </trkpt>
      <trkpt lat="47.21605" lon="-1.51994">
        <ele>53</ele>
        <time>2021-04-24T12:09:14.000Z</time>
      </trkpt>
      <trkpt lat="47.21599" lon="-1.52012">
        <ele>54</ele>
        <time>2021-04-24T12:09:16.000Z</time>
      </trkpt>
      <trkpt lat="47.21593" lon="-1.52031">
        <ele>54</ele>
        <time>2021-04-24T12:09:18.000Z</time>
      </trkpt>
      <trkpt lat="47.21587" lon="-1.52051">
        <ele>53</ele>
        <time>2021-04-24T12:09:20.000Z</time>
      </trkpt>
      <trkpt lat="47.21581" lon="-1.5207">
        <ele>53</ele>
        <time>2021-04-24T12:09:22.000Z</time>
      </trkpt>
      <trkpt lat="47.21575" lon="-1.52089">
        <ele>52</ele>
        <time>2021-04-24T12:09:24.000Z</time>
      </trkpt>
      <trkpt lat="47.21569" lon="-1.52108">
        <ele>53</ele>
        <time>2021-04-24T12:09:26.000Z</time>
      </trkpt>
      <trkpt lat="47.21563" lon="-1.52127">
        <ele>52</ele>
        <time>2021-04-24T12:09:28.000Z</time>
      </trkpt>
      <trkpt lat="47.21557" lon="-1.52146">
        <ele>53</ele>
        <time>2021-04-24T12:09:30.000Z</time>
      </trkpt>
      <trkpt lat="47.21552" lon="-1.52166">
        <ele>52</ele>
        <time>2021-04-24T12:09:32.000Z</time>
      </trkpt>
      <trkpt lat="47.21545" lon="-1.52185">
        <ele>53</ele>
        <time>2021-04-24T12:09:34.000Z</time>
      </trkpt>
      <trkpt lat="47.21538" lon="-1.52204">
        <ele>53</ele>
        <time>2021-04-24T12:09:36.000Z</time>
      </trkpt>
      <trkpt lat="47.21532" lon="-1.52224">
        <ele>53</ele>
        <time>2021-04-24T12:09:38.000Z</time>
      </trkpt>
      <trkpt lat="47.21527" lon="-1.52244">
        <ele>53</ele>
        <time>2021-04-24T12:09:40.000Z</time>
      </trkpt>
      <trkpt lat="47.2152" lon="-1.52263">
        <ele>53</ele>
        <time>2021-04-24T12:09:42.000Z</time>
      </trkpt>
      <trkpt lat="47.21514" lon="-1.52283">
        <ele>53</ele>
        <time>2021-04-24T12:09:44.000Z</time>
      </trkpt>
      <trkpt lat="47.21508" lon="-1.52303">
        <ele>53</ele>
        <time>2021-04-24T12:09:46.000Z</time>
      </trkpt>
      <trkpt lat="47.21501" lon="-1.52323">
        <ele>53</ele>
        <time>2021-04-24T12:09:48.000Z</time>
      </trkpt>
      <trkpt lat="47.21495" lon="-1.52342">
        <ele>53</ele>
        <time>2021-04-24T12:09:50.000Z</time>
      </trkpt>
      <trkpt lat="47.21489" lon="-1.52362">
        <ele>53</ele>
        <time>2021-04-24T12:09:52.000Z</time>
      </trkpt>
      <trkpt lat="47.21483" lon="-1.52383">
        <ele>54</ele>
        <time>2021-04-24T12:09:54.000Z</time>
      </trkpt>
      <trkpt lat="47.21476" lon="-1.52403">
        <ele>53</ele>
        <time>2021-04-24T12:09:56.000Z</time>
      </trkpt>
      <trkpt lat="47.21469" lon="-1.52424">
        <ele>53</ele>
        <time>2021-04-24T12:09:58.000Z</time>
      </trkpt>
      <trkpt lat="47.21461" lon="-1.52446">
        <ele>53</ele>
        <time>2021-04-24T12:10:00.000Z</time>
      </trkpt>
      <trkpt lat="47.21455" lon="-1.52466">
        <ele>53</ele>
        <time>2021-04-24T12:10:02.000Z</time>
      </trkpt>
      <trkpt lat="47.21449" lon="-1.52487">
        <ele>53</ele>
        <time>2021-04-24T12:10:04.000Z</time>
      </trkpt>
      <trkpt lat="47.21443" lon="-1.52509">
        <ele>53</ele>
        <time>2021-04-24T12:10:06.000Z</time>
      </trkpt>
      <trkpt lat="47.21435" lon="-1.5253">
        <ele>53</ele>
        <time>2021-04-24T12:10:08.000Z</time>
      </trkpt>
      <trkpt lat="47.21429" lon="-1.5255">
        <ele>53</ele>
        <time>2021-04-24T12:10:10.000Z</time>
      </trkpt>
      <trkpt lat="47.21422" lon="-1.52571">
        <ele>54</ele>
        <time>2021-04-24T12:10:12.000Z</time>
      </trkpt>
      <trkpt lat="47.21415" lon="-1.52592">
        <ele>55</ele>
        <time>2021-04-24T12:10:14.000Z</time>
      </trkpt>
      <trkpt lat="47.21408" lon="-1.52613">
        <ele>54</ele>
        <time>2021-04-24T12:10:16.000Z</time>
      </trkpt>
      <trkpt lat="47.21403" lon="-1.52634">
        <ele>55</ele>
        <time>2021-04-24T12:10:18.000Z</time>
      </trkpt>
      <trkpt lat="47.21396" lon="-1.52654">
        <ele>55</ele>
        <time>2021-04-24T12:10:20.000Z</time>
      </trkpt>
      <trkpt lat="47.21392" lon="-1.52674">
        <ele>55</ele>
        <time>2021-04-24T12:10:22.000Z</time>
      </trkpt>
      <trkpt lat="47.21387" lon="-1.52695">
        <ele>55</ele>
        <time>2021-04-24T12:10:24.000Z</time>
      </trkpt>
      <trkpt lat="47.21382" lon="-1.52715">
        <ele>55</ele>
        <time>2021-04-24T12:10:26.000Z</time>
      </trkpt>
      <trkpt lat="47.21378" lon="-1.52737">
        <ele>55</ele>
        <time>2021-04-24T12:10:28.000Z</time>
      </trkpt>
      <trkpt lat="47.21374" lon="-1.5276">
        <ele>54</ele>
        <time>2021-04-24T12:10:30.000Z</time>
      </trkpt>
      <trkpt lat="47.21371" lon="-1.52782">
        <ele>54</ele>
        <time>2021-04-24T12:10:32.000Z</time>
      </trkpt>
      <trkpt lat="47.21367" lon="-1.52804">
        <ele>53</ele>
        <time>2021-04-24T12:10:34.000Z</time>
      </trkpt>
      <trkpt lat="47.21363" lon="-1.52825">
        <ele>52</ele>
        <time>2021-04-24T12:10:36.000Z</time>
      </trkpt>
      <trkpt lat="47.21357" lon="-1.52846">
        <ele>52</ele>
        <time>2021-04-24T12:10:38.000Z</time>
      </trkpt>
      <trkpt lat="47.21353" lon="-1.52869">
        <ele>52</ele>
        <time>2021-04-24T12:10:40.000Z</time>
      </trkpt>
      <trkpt lat="47.21349" lon="-1.52892">
        <ele>51</ele>
        <time>2021-04-24T12:10:42.000Z</time>
      </trkpt>
      <trkpt lat="47.21345" lon="-1.52914">
        <ele>51</ele>
        <time>2021-04-24T12:10:44.000Z</time>
      </trkpt>
      <trkpt lat="47.21342" lon="-1.52937">
        <ele>51</ele>
        <time>2021-04-24T12:10:46.000Z</time>
      </trkpt>
      <trkpt lat="47.21339" lon="-1.5296">
        <ele>51</ele>
        <time>2021-04-24T12:10:48.000Z</time>
      </trkpt>
      <trkpt lat="47.21338" lon="-1.52983">
        <ele>51</ele>
        <time>2021-04-24T12:10:50.000Z</time>
      </trkpt>
      <trkpt lat="47.21337" lon="-1.53004">
        <ele>52</ele>
        <time>2021-04-24T12:10:52.000Z</time>
      </trkpt>
      <trkpt lat="47.21335" lon="-1.53027">
        <ele>53</ele>
        <time>2021-04-24T12:10:54.000Z</time>
      </trkpt>
      <trkpt lat="47.21332" lon="-1.53047">
        <ele>53</ele>
        <time>2021-04-24T12:10:56.000Z</time>
      </trkpt>
      <trkpt lat="47.21331" lon="-1.53068">
        <ele>53</ele>
        <time>2021-04-24T12:10:58.000Z</time>
      </trkpt>
      <trkpt lat="47.21329" lon="-1.53089">
        <ele>53</ele>
        <time>2021-04-24T12:11:00.000Z</time>
      </trkpt>
      <trkpt lat="47.21327" lon="-1.53109">
        <ele>53</ele>
        <time>2021-04-24T12:11:02.000Z</time>
      </trkpt>
      <trkpt lat="47.21323" lon="-1.53131">
        <ele>53</ele>
        <time>2021-04-24T12:11:04.000Z</time>
      </trkpt>
      <trkpt lat="47.2132" lon="-1.53152">
        <ele>53</ele>
        <time>2021-04-24T12:11:06.000Z</time>
      </trkpt>
      <trkpt lat="47.21317" lon="-1.53174">
        <ele>53</ele>
        <time>2021-04-24T12:11:08.000Z</time>
      </trkpt>
      <trkpt lat="47.21316" lon="-1.53196">
        <ele>54</ele>
        <time>2021-04-24T12:11:10.000Z</time>
      </trkpt>
      <trkpt lat="47.21315" lon="-1.53218">
        <ele>54</ele>
        <time>2021-04-24T12:11:12.000Z</time>
      </trkpt>
      <trkpt lat="47.21314" lon="-1.53239">
        <ele>54</ele>
        <time>2021-04-24T12:11:14.000Z</time>
      </trkpt>
      <trkpt lat="47.21313" lon="-1.53261">
        <ele>53</ele>
        <time>2021-04-24T12:11:16.000Z</time>
      </trkpt>
      <trkpt lat="47.21312" lon="-1.53282">
        <ele>54</ele>
        <time>2021-04-24T12:11:18.000Z</time>
      </trkpt>
      <trkpt lat="47.2131" lon="-1.53303">
        <ele>54</ele>
        <time>2021-04-24T12:11:20.000Z</time>
      </trkpt>
      <trkpt lat="47.21308" lon="-1.53324">
        <ele>54</ele>
        <time>2021-04-24T12:11:22.000Z</time>
      </trkpt>
      <trkpt lat="47.21305" lon="-1.53345">
        <ele>54</ele>
        <time>2021-04-24T12:11:24.000Z</time>
      </trkpt>
      <trkpt lat="47.21301" lon="-1.53365">
        <ele>53</ele>
        <time>2021-04-24T12:11:26.000Z</time>
      </trkpt>
      <trkpt lat="47.21297" lon="-1.53386">
        <ele>53</ele>
        <time>2021-04-24T12:11:28.000Z</time>
      </trkpt>
      <trkpt lat="47.21295" lon="-1.53408">
        <ele>53</ele>
        <time>2021-04-24T12:11:30.000Z</time>
      </trkpt>
      <trkpt lat="47.21293" lon="-1.53428">
        <ele>53</ele>
        <time>2021-04-24T12:11:32.000Z</time>
      </trkpt>
      <trkpt lat="47.21292" lon="-1.5345">
        <ele>53</ele>
        <time>2021-04-24T12:11:34.000Z</time>
      </trkpt>
      <trkpt lat="47.21298" lon="-1.5347">
        <ele>53</ele>
        <time>2021-04-24T12:11:36.000Z</time>
      </trkpt>
      <trkpt lat="47.21301" lon="-1.5349">
        <ele>53</ele>
        <time>2021-04-24T12:11:38.000Z</time>
      </trkpt>
      <trkpt lat="47.21301" lon="-1.5351">
        <ele>53</ele>
        <time>2021-04-24T12:11:40.000Z</time>
      </trkpt>
      <trkpt lat="47.21302" lon="-1.53531">
        <ele>53</ele>
        <time>2021-04-24T12:11:42.000Z</time>
      </trkpt>
      <trkpt lat="47.21302" lon="-1.53552">
        <ele>52</ele>
        <time>2021-04-24T12:11:44.000Z</time>
      </trkpt>
      <trkpt lat="47.21303" lon="-1.53571">
        <ele>52</ele>
        <time>2021-04-24T12:11:46.000Z</time>
      </trkpt>
      <trkpt lat="47.21304" lon="-1.53591">
        <ele>52</ele>
        <time>2021-04-24T12:11:48.000Z</time>
      </trkpt>
      <trkpt lat="47.21304" lon="-1.53609">
        <ele>51</ele>
        <time>2021-04-24T12:11:50.000Z</time>
      </trkpt>
      <trkpt lat="47.21304" lon="-1.53626">
        <ele>52</ele>
        <time>2021-04-24T12:11:52.000Z</time>
      </trkpt>
      <trkpt lat="47.21297" lon="-1.53636">
        <ele>51</ele>
        <time>2021-04-24T12:11:54.000Z</time>
      </trkpt>
      <trkpt lat="47.21295" lon="-1.53653">
        <ele>53</ele>
        <time>2021-04-24T12:11:56.000Z</time>
      </trkpt>
      <trkpt lat="47.21294" lon="-1.53666">
        <ele>54</ele>
        <time>2021-04-24T12:11:58.000Z</time>
      </trkpt>
      <trkpt lat="47.21298" lon="-1.5368">
        <ele>54</ele>
        <time>2021-04-24T12:12:00.000Z</time>
      </trkpt>
      <trkpt lat="47.21304" lon="-1.53695">
        <ele>55</ele>
        <time>2021-04-24T12:12:02.000Z</time>
      </trkpt>
      <trkpt lat="47.21309" lon="-1.53715">
        <ele>55</ele>
        <time>2021-04-24T12:12:04.000Z</time>
      </trkpt>
      <trkpt lat="47.21315" lon="-1.53735">
        <ele>54</ele>
        <time>2021-04-24T12:12:06.000Z</time>
      </trkpt>
      <trkpt lat="47.21319" lon="-1.53756">
        <ele>55</ele>
        <time>2021-04-24T12:12:08.000Z</time>
      </trkpt>
      <trkpt lat="47.21322" lon="-1.53778">
        <ele>55</ele>
        <time>2021-04-24T12:12:10.000Z</time>
      </trkpt>
      <trkpt lat="47.21323" lon="-1.53799">
        <ele>54</ele>
        <time>2021-04-24T12:12:12.000Z</time>
      </trkpt>
      <trkpt lat="47.21327" lon="-1.5382">
        <ele>55</ele>
        <time>2021-04-24T12:12:14.000Z</time>
      </trkpt>
      <trkpt lat="47.2133" lon="-1.5384">
        <ele>55</ele>
        <time>2021-04-24T12:12:16.000Z</time>
      </trkpt>
      <trkpt lat="47.21334" lon="-1.53857">
        <ele>55</ele>
        <time>2021-04-24T12:12:18.000Z</time>
      </trkpt>
      <trkpt lat="47.21338" lon="-1.53875">
        <ele>56</ele>
        <time>2021-04-24T12:12:20.000Z</time>
      </trkpt>
      <trkpt lat="47.21341" lon="-1.53891">
        <ele>56</ele>
        <time>2021-04-24T12:12:22.000Z</time>
      </trkpt>
      <trkpt lat="47.21343" lon="-1.53906">
        <ele>56</ele>
        <time>2021-04-24T12:12:24.000Z</time>
      </trkpt>
      <trkpt lat="47.21344" lon="-1.5392">
        <ele>56</ele>
        <time>2021-04-24T12:12:27.000Z</time>
      </trkpt>
      <trkpt lat="47.21353" lon="-1.53925">
        <ele>56</ele>
        <time>2021-04-24T12:12:32.000Z</time>
      </trkpt>
      <trkpt lat="47.21362" lon="-1.5393">
        <ele>55</ele>
        <time>2021-04-24T12:12:35.000Z</time>
      </trkpt>
      <trkpt lat="47.21376" lon="-1.53928">
        <ele>54</ele>
        <time>2021-04-24T12:12:38.000Z</time>
      </trkpt>
      <trkpt lat="47.21385" lon="-1.53935">
        <ele>54</ele>
        <time>2021-04-24T12:12:40.000Z</time>
      </trkpt>
      <trkpt lat="47.2139" lon="-1.53952">
        <ele>54</ele>
        <time>2021-04-24T12:12:42.000Z</time>
      </trkpt>
      <trkpt lat="47.2139" lon="-1.53972">
        <ele>54</ele>
        <time>2021-04-24T12:12:44.000Z</time>
      </trkpt>
      <trkpt lat="47.21385" lon="-1.5399">
        <ele>53</ele>
        <time>2021-04-24T12:12:46.000Z</time>
      </trkpt>
      <trkpt lat="47.21388" lon="-1.54009">
        <ele>54</ele>
        <time>2021-04-24T12:12:48.000Z</time>
      </trkpt>
      <trkpt lat="47.21397" lon="-1.54022">
        <ele>53</ele>
        <time>2021-04-24T12:12:50.000Z</time>
      </trkpt>
      <trkpt lat="47.21407" lon="-1.54035">
        <ele>53</ele>
        <time>2021-04-24T12:12:52.000Z</time>
      </trkpt>
      <trkpt lat="47.21417" lon="-1.54049">
        <ele>53</ele>
        <time>2021-04-24T12:12:54.000Z</time>
      </trkpt>
      <trkpt lat="47.21427" lon="-1.54063">
        <ele>52</ele>
        <time>2021-04-24T12:12:56.000Z</time>
      </trkpt>
      <trkpt lat="47.21437" lon="-1.54078">
        <ele>52</ele>
        <time>2021-04-24T12:12:58.000Z</time>
      </trkpt>
      <trkpt lat="47.21446" lon="-1.54092">
        <ele>52</ele>
        <time>2021-04-24T12:13:00.000Z</time>
      </trkpt>
      <trkpt lat="47.21456" lon="-1.54106">
        <ele>52</ele>
        <time>2021-04-24T12:13:02.000Z</time>
      </trkpt>
      <trkpt lat="47.21466" lon="-1.54122">
        <ele>52</ele>
        <time>2021-04-24T12:13:04.000Z</time>
      </trkpt>
      <trkpt lat="47.21476" lon="-1.54136">
        <ele>51</ele>
        <time>2021-04-24T12:13:06.000Z</time>
      </trkpt>
      <trkpt lat="47.21487" lon="-1.5415">
        <ele>51</ele>
        <time>2021-04-24T12:13:08.000Z</time>
      </trkpt>
      <trkpt lat="47.21497" lon="-1.54163">
        <ele>51</ele>
        <time>2021-04-24T12:13:10.000Z</time>
      </trkpt>
      <trkpt lat="47.21505" lon="-1.54178">
        <ele>51</ele>
        <time>2021-04-24T12:13:12.000Z</time>
      </trkpt>
      <trkpt lat="47.21515" lon="-1.54192">
        <ele>51</ele>
        <time>2021-04-24T12:13:14.000Z</time>
      </trkpt>
      <trkpt lat="47.21525" lon="-1.54208">
        <ele>50</ele>
        <time>2021-04-24T12:13:16.000Z</time>
      </trkpt>
      <trkpt lat="47.21534" lon="-1.54222">
        <ele>50</ele>
        <time>2021-04-24T12:13:18.000Z</time>
      </trkpt>
      <trkpt lat="47.21543" lon="-1.54237">
        <ele>50</ele>
        <time>2021-04-24T12:13:20.000Z</time>
      </trkpt>
      <trkpt lat="47.21554" lon="-1.54246">
        <ele>50</ele>
        <time>2021-04-24T12:13:22.000Z</time>
      </trkpt>
      <trkpt lat="47.21566" lon="-1.54249">
        <ele>50</ele>
        <time>2021-04-24T12:13:24.000Z</time>
      </trkpt>
      <trkpt lat="47.21574" lon="-1.5426">
        <ele>51</ele>
        <time>2021-04-24T12:13:26.000Z</time>
      </trkpt>
      <trkpt lat="47.21577" lon="-1.54281">
        <ele>51</ele>
        <time>2021-04-24T12:13:28.000Z</time>
      </trkpt>
      <trkpt lat="47.21581" lon="-1.543">
        <ele>51</ele>
        <time>2021-04-24T12:13:30.000Z</time>
      </trkpt>
      <trkpt lat="47.21588" lon="-1.54318">
        <ele>51</ele>
        <time>2021-04-24T12:13:32.000Z</time>
      </trkpt>
      <trkpt lat="47.21597" lon="-1.54335">
        <ele>51</ele>
        <time>2021-04-24T12:13:34.000Z</time>
      </trkpt>
      <trkpt lat="47.21606" lon="-1.54351">
        <ele>51</ele>
        <time>2021-04-24T12:13:36.000Z</time>
      </trkpt>
      <trkpt lat="47.21612" lon="-1.5437">
        <ele>52</ele>
        <time>2021-04-24T12:13:38.000Z</time>
      </trkpt>
      <trkpt lat="47.21617" lon="-1.54389">
        <ele>52</ele>
        <time>2021-04-24T12:13:40.000Z</time>
      </trkpt>
      <trkpt lat="47.21618" lon="-1.54409">
        <ele>52</ele>
        <time>2021-04-24T12:13:42.000Z</time>
      </trkpt>
      <trkpt lat="47.21615" lon="-1.54429">
        <ele>52</ele>
        <time>2021-04-24T12:13:44.000Z</time>
      </trkpt>
      <trkpt lat="47.21613" lon="-1.54449">
        <ele>52</ele>
        <time>2021-04-24T12:13:46.000Z</time>
      </trkpt>
      <trkpt lat="47.21612" lon="-1.54467">
        <ele>53</ele>
        <time>2021-04-24T12:13:48.000Z</time>
      </trkpt>
      <trkpt lat="47.21609" lon="-1.54486">
        <ele>54</ele>
        <time>2021-04-24T12:13:50.000Z</time>
      </trkpt>
      <trkpt lat="47.21605" lon="-1.54505">
        <ele>55</ele>
        <time>2021-04-24T12:13:52.000Z</time>
      </trkpt>
      <trkpt lat="47.21599" lon="-1.54523">
        <ele>55</ele>
        <time>2021-04-24T12:13:54.000Z</time>
      </trkpt>
      <trkpt lat="47.21593" lon="-1.5454">
        <ele>56</ele>
        <time>2021-04-24T12:13:56.000Z</time>
      </trkpt>
      <trkpt lat="47.21586" lon="-1.54556">
        <ele>56</ele>
        <time>2021-04-24T12:13:58.000Z</time>
      </trkpt>
      <trkpt lat="47.21581" lon="-1.54572">
        <ele>56</ele>
        <time>2021-04-24T12:14:00.000Z</time>
      </trkpt>
      <trkpt lat="47.21574" lon="-1.5459">
        <ele>56</ele>
        <time>2021-04-24T12:14:02.000Z</time>
      </trkpt>
      <trkpt lat="47.21568" lon="-1.54609">
        <ele>56</ele>
        <time>2021-04-24T12:14:04.000Z</time>
      </trkpt>
      <trkpt lat="47.21561" lon="-1.54629">
        <ele>56</ele>
        <time>2021-04-24T12:14:06.000Z</time>
      </trkpt>
      <trkpt lat="47.21553" lon="-1.54647">
        <ele>56</ele>
        <time>2021-04-24T12:14:08.000Z</time>
      </trkpt>
      <trkpt lat="47.21548" lon="-1.54664">
        <ele>56</ele>
        <time>2021-04-24T12:14:10.000Z</time>
      </trkpt>
      <trkpt lat="47.21544" lon="-1.5468">
        <ele>56</ele>
        <time>2021-04-24T12:14:12.000Z</time>
      </trkpt>
      <trkpt lat="47.21539" lon="-1.54697">
        <ele>57</ele>
        <time>2021-04-24T12:14:14.000Z</time>
      </trkpt>
      <trkpt lat="47.21532" lon="-1.54717">
        <ele>57</ele>
        <time>2021-04-24T12:14:16.000Z</time>
      </trkpt>
      <trkpt lat="47.21524" lon="-1.54737">
        <ele>57</ele>
        <time>2021-04-24T12:14:18.000Z</time>
      </trkpt>
      <trkpt lat="47.21516" lon="-1.54756">
        <ele>57</ele>
        <time>2021-04-24T12:14:20.000Z</time>
      </trkpt>
      <trkpt lat="47.21509" lon="-1.54775">
        <ele>57</ele>
        <time>2021-04-24T12:14:22.000Z</time>
      </trkpt>
      <trkpt lat="47.215" lon="-1.54795">
        <ele>57</ele>
        <time>2021-04-24T12:14:24.000Z</time>
      </trkpt>
      <trkpt lat="47.21491" lon="-1.54813">
        <ele>57</ele>
        <time>2021-04-24T12:14:26.000Z</time>
      </trkpt>
      <trkpt lat="47.21483" lon="-1.5483">
        <ele>58</ele>
        <time>2021-04-24T12:14:28.000Z</time>
      </trkpt>
      <trkpt lat="47.21474" lon="-1.54848">
        <ele>57</ele>
        <time>2021-04-24T12:14:30.000Z</time>
      </trkpt>
      <trkpt lat="47.21465" lon="-1.54865">
        <ele>57</ele>
        <time>2021-04-24T12:14:32.000Z</time>
      </trkpt>
      <trkpt lat="47.21457" lon="-1.54882">
        <ele>58</ele>
        <time>2021-04-24T12:14:34.000Z</time>
      </trkpt>
      <trkpt lat="47.21449" lon="-1.54899">
        <ele>58</ele>
        <time>2021-04-24T12:14:36.000Z</time>
      </trkpt>
      <trkpt lat="47.21441" lon="-1.54915">
        <ele>58</ele>
        <time>2021-04-24T12:14:38.000Z</time>
      </trkpt>
      <trkpt lat="47.21433" lon="-1.54932">
        <ele>57</ele>
        <time>2021-04-24T12:14:40.000Z</time>
      </trkpt>
      <trkpt lat="47.21425" lon="-1.5495">
        <ele>57</ele>
        <time>2021-04-24T12:14:42.000Z</time>
      </trkpt>
      <trkpt lat="47.21417" lon="-1.54967">
        <ele>57</ele>
        <time>2021-04-24T12:14:44.000Z</time>
      </trkpt>
      <trkpt lat="47.21409" lon="-1.54984">
        <ele>57</ele>
        <time>2021-04-24T12:14:46.000Z</time>
      </trkpt>
      <trkpt lat="47.21401" lon="-1.55002">
        <ele>56</ele>
        <time>2021-04-24T12:14:48.000Z</time>
      </trkpt>
      <trkpt lat="47.21393" lon="-1.55019">
        <ele>56</ele>
        <time>2021-04-24T12:14:50.000Z</time>
      </trkpt>
      <trkpt lat="47.21387" lon="-1.55038">
        <ele>56</ele>
        <time>2021-04-24T12:14:52.000Z</time>
      </trkpt>
      <trkpt lat="47.21379" lon="-1.55056">
        <ele>57</ele>
        <time>2021-04-24T12:14:54.000Z</time>
      </trkpt>
      <trkpt lat="47.21371" lon="-1.55074">
        <ele>56</ele>
        <time>2021-04-24T12:14:56.000Z</time>
      </trkpt>
      <trkpt lat="47.21365" lon="-1.55093">
        <ele>56</ele>
        <time>2021-04-24T12:14:58.000Z</time>
      </trkpt>
      <trkpt lat="47.21358" lon="-1.55112">
        <ele>56</ele>
        <time>2021-04-24T12:15:00.000Z</time>
      </trkpt>
      <trkpt lat="47.2135" lon="-1.5513">
        <ele>57</ele>
        <time>2021-04-24T12:15:02.000Z</time>
      </trkpt>
      <trkpt lat="47.21343" lon="-1.55148">
        <ele>56</ele>
        <time>2021-04-24T12:15:04.000Z</time>
      </trkpt>
      <trkpt lat="47.21335" lon="-1.55165">
        <ele>56</ele>
        <time>2021-04-24T12:15:06.000Z</time>
      </trkpt>
      <trkpt lat="47.21327" lon="-1.55182">
        <ele>56</ele>
        <time>2021-04-24T12:15:08.000Z</time>
      </trkpt>
      <trkpt lat="47.2132" lon="-1.552">
        <ele>55</ele>
        <time>2021-04-24T12:15:10.000Z</time>
      </trkpt>
      <trkpt lat="47.21313" lon="-1.55217">
        <ele>55</ele>
        <time>2021-04-24T12:15:12.000Z</time>
      </trkpt>
      <trkpt lat="47.21306" lon="-1.55235">
        <ele>55</ele>
        <time>2021-04-24T12:15:14.000Z</time>
      </trkpt>
      <trkpt lat="47.213" lon="-1.55253">
        <ele>55</ele>
        <time>2021-04-24T12:15:16.000Z</time>
      </trkpt>
      <trkpt lat="47.21292" lon="-1.55269">
        <ele>56</ele>
        <time>2021-04-24T12:15:18.000Z</time>
      </trkpt>
      <trkpt lat="47.21286" lon="-1.55285">
        <ele>56</ele>
        <time>2021-04-24T12:15:20.000Z</time>
      </trkpt>
      <trkpt lat="47.21278" lon="-1.55297">
        <ele>56</ele>
        <time>2021-04-24T12:15:22.000Z</time>
      </trkpt>
      <trkpt lat="47.21264" lon="-1.553">
        <ele>56</ele>
        <time>2021-04-24T12:15:24.000Z</time>
      </trkpt>
      <trkpt lat="47.21258" lon="-1.55309">
        <ele>57</ele>
        <time>2021-04-24T12:15:26.000Z</time>
      </trkpt>
      <trkpt lat="47.21261" lon="-1.55326">
        <ele>57</ele>
        <time>2021-04-24T12:15:28.000Z</time>
      </trkpt>
      <trkpt lat="47.21267" lon="-1.55341">
        <ele>57</ele>
        <time>2021-04-24T12:15:30.000Z</time>
      </trkpt>
      <trkpt lat="47.21275" lon="-1.5535">
        <ele>56</ele>
        <time>2021-04-24T12:15:32.000Z</time>
      </trkpt>
      <trkpt lat="47.21284" lon="-1.55357">
        <ele>56</ele>
        <time>2021-04-24T12:15:34.000Z</time>
      </trkpt>
      <trkpt lat="47.21286" lon="-1.55374">
        <ele>56</ele>
        <time>2021-04-24T12:15:36.000Z</time>
      </trkpt>
      <trkpt lat="47.21278" lon="-1.55386">
        <ele>56</ele>
        <time>2021-04-24T12:15:38.000Z</time>
      </trkpt>
      <trkpt lat="47.21272" lon="-1.55396">
        <ele>56</ele>
        <time>2021-04-24T12:15:40.000Z</time>
      </trkpt>
      <trkpt lat="47.21265" lon="-1.55407">
        <ele>57</ele>
        <time>2021-04-24T12:15:42.000Z</time>
      </trkpt>
      <trkpt lat="47.21258" lon="-1.55424">
        <ele>57</ele>
        <time>2021-04-24T12:15:44.000Z</time>
      </trkpt>
      <trkpt lat="47.21247" lon="-1.55442">
        <ele>57</ele>
        <time>2021-04-24T12:15:46.000Z</time>
      </trkpt>
      <trkpt lat="47.21236" lon="-1.5546">
        <ele>57</ele>
        <time>2021-04-24T12:15:48.000Z</time>
      </trkpt>
      <trkpt lat="47.21226" lon="-1.55479">
        <ele>57</ele>
        <time>2021-04-24T12:15:50.000Z</time>
      </trkpt>
      <trkpt lat="47.21219" lon="-1.55499">
        <ele>57</ele>
        <time>2021-04-24T12:15:52.000Z</time>
      </trkpt>
      <trkpt lat="47.21213" lon="-1.55519">
        <ele>57</ele>
        <time>2021-04-24T12:15:54.000Z</time>
      </trkpt>
      <trkpt lat="47.21207" lon="-1.55541">
        <ele>57</ele>
        <time>2021-04-24T12:15:56.000Z</time>
      </trkpt>
      <trkpt lat="47.212" lon="-1.55562">
        <ele>56</ele>
        <time>2021-04-24T12:15:58.000Z</time>
      </trkpt>
      <trkpt lat="47.21193" lon="-1.55582">
        <ele>56</ele>
        <time>2021-04-24T12:16:00.000Z</time>
      </trkpt>
      <trkpt lat="47.21187" lon="-1.55602">
        <ele>57</ele>
        <time>2021-04-24T12:16:02.000Z</time>
      </trkpt>
      <trkpt lat="47.2118" lon="-1.55622">
        <ele>57</ele>
        <time>2021-04-24T12:16:04.000Z</time>
      </trkpt>
      <trkpt lat="47.21174" lon="-1.55642">
        <ele>57</ele>
        <time>2021-04-24T12:16:06.000Z</time>
      </trkpt>
      <trkpt lat="47.21169" lon="-1.55662">
        <ele>57</ele>
        <time>2021-04-24T12:16:08.000Z</time>
      </trkpt>
      <trkpt lat="47.21157" lon="-1.55672">
        <ele>56</ele>
        <time>2021-04-24T12:16:10.000Z</time>
      </trkpt>
      <trkpt lat="47.21142" lon="-1.55665">
        <ele>56</ele>
        <time>2021-04-24T12:16:12.000Z</time>
      </trkpt>
      <trkpt lat="47.21129" lon="-1.55652">
        <ele>56</ele>
        <time>2021-04-24T12:16:14.000Z</time>
      </trkpt>
      <trkpt lat="47.21116" lon="-1.5564">
        <ele>56</ele>
        <time>2021-04-24T12:16:16.000Z</time>
      </trkpt>
      <trkpt lat="47.21102" lon="-1.55628">
        <ele>57</ele>
        <time>2021-04-24T12:16:18.000Z</time>
      </trkpt>
      <trkpt lat="47.21087" lon="-1.55616">
        <ele>56</ele>
        <time>2021-04-24T12:16:20.000Z</time>
      </trkpt>
      <trkpt lat="47.21073" lon="-1.55604">
        <ele>56</ele>
        <time>2021-04-24T12:16:22.000Z</time>
      </trkpt>
      <trkpt lat="47.21059" lon="-1.55593">
        <ele>56</ele>
        <time>2021-04-24T12:16:24.000Z</time>
      </trkpt>
      <trkpt lat="47.21044" lon="-1.55586">
        <ele>56</ele>
        <time>2021-04-24T12:16:26.000Z</time>
      </trkpt>
      <trkpt lat="47.2103" lon="-1.55582">
        <ele>55</ele>
        <time>2021-04-24T12:16:28.000Z</time>
      </trkpt>
      <trkpt lat="47.21016" lon="-1.55578">
        <ele>55</ele>
        <time>2021-04-24T12:16:30.000Z</time>
      </trkpt>
      <trkpt lat="47.21003" lon="-1.55577">
        <ele>55</ele>
        <time>2021-04-24T12:16:32.000Z</time>
      </trkpt>
      <trkpt lat="47.20991" lon="-1.55575">
        <ele>55</ele>
        <time>2021-04-24T12:16:34.000Z</time>
      </trkpt>
      <trkpt lat="47.20979" lon="-1.55573">
        <ele>55</ele>
        <time>2021-04-24T12:16:37.000Z</time>
      </trkpt>
      <trkpt lat="47.20969" lon="-1.55571">
        <ele>55</ele>
        <time>2021-04-24T12:16:41.000Z</time>
      </trkpt>
      <trkpt lat="47.20959" lon="-1.5557">
        <ele>55</ele>
        <time>2021-04-24T12:16:46.000Z</time>
      </trkpt>
      <trkpt lat="47.20947" lon="-1.55571">
        <ele>55</ele>
        <time>2021-04-24T12:16:53.000Z</time>
      </trkpt>
      <trkpt lat="47.20935" lon="-1.55569">
        <ele>56</ele>
        <time>2021-04-24T12:16:56.000Z</time>
      </trkpt>
      <trkpt lat="47.2092" lon="-1.55562">
        <ele>57</ele>
        <time>2021-04-24T12:16:58.000Z</time>
      </trkpt>
      <trkpt lat="47.20906" lon="-1.55557">
        <ele>57</ele>
        <time>2021-04-24T12:17:00.000Z</time>
      </trkpt>
      <trkpt lat="47.20891" lon="-1.55553">
        <ele>58</ele>
        <time>2021-04-24T12:17:02.000Z</time>
      </trkpt>
      <trkpt lat="47.20878" lon="-1.5555">
        <ele>58</ele>
        <time>2021-04-24T12:17:04.000Z</time>
      </trkpt>
      <trkpt lat="47.20864" lon="-1.55547">
        <ele>59</ele>
        <time>2021-04-24T12:17:06.000Z</time>
      </trkpt>
      <trkpt lat="47.20852" lon="-1.55543">
        <ele>59</ele>
        <time>2021-04-24T12:17:08.000Z</time>
      </trkpt>
      <trkpt lat="47.2084" lon="-1.5554">
        <ele>59</ele>
        <time>2021-04-24T12:17:10.000Z</time>
      </trkpt>
      <trkpt lat="47.20828" lon="-1.55537">
        <ele>59</ele>
        <time>2021-04-24T12:17:12.000Z</time>
      </trkpt>
      <trkpt lat="47.20816" lon="-1.55535">
        <ele>59</ele>
        <time>2021-04-24T12:17:14.000Z</time>
      </trkpt>
      <trkpt lat="47.20804" lon="-1.55532">
        <ele>58</ele>
        <time>2021-04-24T12:17:16.000Z</time>
      </trkpt>
      <trkpt lat="47.20792" lon="-1.5553">
        <ele>58</ele>
        <time>2021-04-24T12:17:18.000Z</time>
      </trkpt>
      <trkpt lat="47.20779" lon="-1.55526">
        <ele>58</ele>
        <time>2021-04-24T12:17:20.000Z</time>
      </trkpt>
      <trkpt lat="47.20765" lon="-1.55523">
        <ele>57</ele>
        <time>2021-04-24T12:17:22.000Z</time>
      </trkpt>
      <trkpt lat="47.20751" lon="-1.5552">
        <ele>56</ele>
        <time>2021-04-24T12:17:24.000Z</time>
      </trkpt>
      <trkpt lat="47.20736" lon="-1.55516">
        <ele>55</ele>
        <time>2021-04-24T12:17:26.000Z</time>
      </trkpt>
      <trkpt lat="47.20722" lon="-1.55511">
        <ele>56</ele>
        <time>2021-04-24T12:17:28.000Z</time>
      </trkpt>
      <trkpt lat="47.20708" lon="-1.55508">
        <ele>56</ele>
        <time>2021-04-24T12:17:30.000Z</time>
      </trkpt>
      <trkpt lat="47.20695" lon="-1.55504">
        <ele>56</ele>
        <time>2021-04-24T12:17:32.000Z</time>
      </trkpt>
      <trkpt lat="47.20684" lon="-1.55503">
        <ele>56</ele>
        <time>2021-04-24T12:17:34.000Z</time>
      </trkpt>
      <trkpt lat="47.20671" lon="-1.55501">
        <ele>56</ele>
        <time>2021-04-24T12:17:37.000Z</time>
      </trkpt>
      <trkpt lat="47.20661" lon="-1.55502">
        <ele>56</ele>
        <time>2021-04-24T12:17:41.000Z</time>
      </trkpt>
      <trkpt lat="47.20647" lon="-1.55499">
        <ele>56</ele>
        <time>2021-04-24T12:17:44.000Z</time>
      </trkpt>
      <trkpt lat="47.20636" lon="-1.55494">
        <ele>56</ele>
        <time>2021-04-24T12:17:46.000Z</time>
      </trkpt>
      <trkpt lat="47.20624" lon="-1.55492">
        <ele>57</ele>
        <time>2021-04-24T12:17:48.000Z</time>
      </trkpt>
      <trkpt lat="47.20611" lon="-1.55489">
        <ele>57</ele>
        <time>2021-04-24T12:17:50.000Z</time>
      </trkpt>
      <trkpt lat="47.206" lon="-1.55486">
        <ele>57</ele>
        <time>2021-04-24T12:17:52.000Z</time>
      </trkpt>
      <trkpt lat="47.20587" lon="-1.55482">
        <ele>57</ele>
        <time>2021-04-24T12:17:54.000Z</time>
      </trkpt>
      <trkpt lat="47.20574" lon="-1.5548">
        <ele>57</ele>
        <time>2021-04-24T12:17:56.000Z</time>
      </trkpt>
      <trkpt lat="47.20561" lon="-1.55485">
        <ele>57</ele>
        <time>2021-04-24T12:17:58.000Z</time>
      </trkpt>
      <trkpt lat="47.2055" lon="-1.55497">
        <ele>56</ele>
        <time>2021-04-24T12:18:00.000Z</time>
      </trkpt>
      <trkpt lat="47.20536" lon="-1.55504">
        <ele>55</ele>
        <time>2021-04-24T12:18:02.000Z</time>
      </trkpt>
      <trkpt lat="47.20522" lon="-1.55501">
        <ele>55</ele>
        <time>2021-04-24T12:18:04.000Z</time>
      </trkpt>
      <trkpt lat="47.2051" lon="-1.5549">
        <ele>55</ele>
        <time>2021-04-24T12:18:06.000Z</time>
      </trkpt>
      <trkpt lat="47.20504" lon="-1.55475">
        <ele>56</ele>
        <time>2021-04-24T12:18:08.000Z</time>
      </trkpt>
      <trkpt lat="47.20504" lon="-1.55458">
        <ele>56</ele>
        <time>2021-04-24T12:18:10.000Z</time>
      </trkpt>
      <trkpt lat="47.20507" lon="-1.55439">
        <ele>56</ele>
        <time>2021-04-24T12:18:12.000Z</time>
      </trkpt>
      <trkpt lat="47.20506" lon="-1.5542">
        <ele>56</ele>
        <time>2021-04-24T12:18:14.000Z</time>
      </trkpt>
      <trkpt lat="47.20499" lon="-1.55406">
        <ele>56</ele>
        <time>2021-04-24T12:18:16.000Z</time>
      </trkpt>
      <trkpt lat="47.20492" lon="-1.55393">
        <ele>56</ele>
        <time>2021-04-24T12:18:18.000Z</time>
      </trkpt>
      <trkpt lat="47.20486" lon="-1.55381">
        <ele>56</ele>
        <time>2021-04-24T12:18:20.000Z</time>
      </trkpt>
      <trkpt lat="47.2048" lon="-1.55369">
        <ele>56</ele>
        <time>2021-04-24T12:18:22.000Z</time>
      </trkpt>
      <trkpt lat="47.20473" lon="-1.55357">
        <ele>57</ele>
        <time>2021-04-24T12:18:24.000Z</time>
      </trkpt>
      <trkpt lat="47.20467" lon="-1.55347">
        <ele>57</ele>
        <time>2021-04-24T12:18:26.000Z</time>
      </trkpt>
      <trkpt lat="47.20461" lon="-1.55334">
        <ele>56</ele>
        <time>2021-04-24T12:18:28.000Z</time>
      </trkpt>
      <trkpt lat="47.20455" lon="-1.55322">
        <ele>56</ele>
        <time>2021-04-24T12:18:30.000Z</time>
      </trkpt>
      <trkpt lat="47.20449" lon="-1.55309">
        <ele>56</ele>
        <time>2021-04-24T12:18:32.000Z</time>
      </trkpt>
      <trkpt lat="47.20444" lon="-1.55298">
        <ele>56</ele>
        <time>2021-04-24T12:18:34.000Z</time>
      </trkpt>
      <trkpt lat="47.20437" lon="-1.55286">
        <ele>55</ele>
        <time>2021-04-24T12:18:36.000Z</time>
      </trkpt>
      <trkpt lat="47.20428" lon="-1.55269">
        <ele>55</ele>
        <time>2021-04-24T12:18:38.000Z</time>
      </trkpt>
      <trkpt lat="47.20418" lon="-1.5525">
        <ele>54</ele>
        <time>2021-04-24T12:18:40.000Z</time>
      </trkpt>
      <trkpt lat="47.20408" lon="-1.55231">
        <ele>54</ele>
        <time>2021-04-24T12:18:42.000Z</time>
      </trkpt>
      <trkpt lat="47.204" lon="-1.55214">
        <ele>54</ele>
        <time>2021-04-24T12:18:44.000Z</time>
      </trkpt>
      <trkpt lat="47.20392" lon="-1.55199">
        <ele>54</ele>
        <time>2021-04-24T12:18:46.000Z</time>
      </trkpt>
      <trkpt lat="47.20382" lon="-1.55193">
        <ele>54</ele>
        <time>2021-04-24T12:18:49.000Z</time>
      </trkpt>
      <trkpt lat="47.20372" lon="-1.55196">
        <ele>54</ele>
        <time>2021-04-24T12:18:51.000Z</time>
      </trkpt>
      <trkpt lat="47.20361" lon="-1.55206">
        <ele>54</ele>
        <time>2021-04-24T12:18:53.000Z</time>
      </trkpt>
      <trkpt lat="47.20349" lon="-1.55218">
        <ele>54</ele>
        <time>2021-04-24T12:18:55.000Z</time>
      </trkpt>
      <trkpt lat="47.20338" lon="-1.55233">
        <ele>54</ele>
        <time>2021-04-24T12:18:57.000Z</time>
      </trkpt>
      <trkpt lat="47.20326" lon="-1.55246">
        <ele>54</ele>
        <time>2021-04-24T12:18:59.000Z</time>
      </trkpt>
      <trkpt lat="47.20313" lon="-1.55261">
        <ele>54</ele>
        <time>2021-04-24T12:19:01.000Z</time>
      </trkpt>
      <trkpt lat="47.20302" lon="-1.55275">
        <ele>55</ele>
        <time>2021-04-24T12:19:03.000Z</time>
      </trkpt>
      <trkpt lat="47.20291" lon="-1.5529">
        <ele>55</ele>
        <time>2021-04-24T12:19:05.000Z</time>
      </trkpt>
      <trkpt lat="47.20281" lon="-1.55304">
        <ele>55</ele>
        <time>2021-04-24T12:19:07.000Z</time>
      </trkpt>
      <trkpt lat="47.20271" lon="-1.55317">
        <ele>56</ele>
        <time>2021-04-24T12:19:09.000Z</time>
      </trkpt>
      <trkpt lat="47.20262" lon="-1.55331">
        <ele>55</ele>
        <time>2021-04-24T12:19:11.000Z</time>
      </trkpt>
      <trkpt lat="47.20252" lon="-1.55346">
        <ele>55</ele>
        <time>2021-04-24T12:19:13.000Z</time>
      </trkpt>
      <trkpt lat="47.20241" lon="-1.5536">
        <ele>55</ele>
        <time>2021-04-24T12:19:15.000Z</time>
      </trkpt>
      <trkpt lat="47.2023" lon="-1.55375">
        <ele>56</ele>
        <time>2021-04-24T12:19:17.000Z</time>
      </trkpt>
      <trkpt lat="47.20219" lon="-1.5539">
        <ele>57</ele>
        <time>2021-04-24T12:19:19.000Z</time>
      </trkpt>
      <trkpt lat="47.20207" lon="-1.55404">
        <ele>57</ele>
        <time>2021-04-24T12:19:21.000Z</time>
      </trkpt>
      <trkpt lat="47.20197" lon="-1.55418">
        <ele>57</ele>
        <time>2021-04-24T12:19:23.000Z</time>
      </trkpt>
      <trkpt lat="47.20187" lon="-1.55433">
        <ele>57</ele>
        <time>2021-04-24T12:19:25.000Z</time>
      </trkpt>
      <trkpt lat="47.20177" lon="-1.55447">
        <ele>57</ele>
        <time>2021-04-24T12:19:27.000Z</time>
      </trkpt>
      <trkpt lat="47.20165" lon="-1.55458">
        <ele>57</ele>
        <time>2021-04-24T12:19:29.000Z</time>
      </trkpt>
      <trkpt lat="47.20153" lon="-1.55469">
        <ele>57</ele>
        <time>2021-04-24T12:19:31.000Z</time>
      </trkpt>
      <trkpt lat="47.20143" lon="-1.55482">
        <ele>57</ele>
        <time>2021-04-24T12:19:33.000Z</time>
      </trkpt>
      <trkpt lat="47.20129" lon="-1.55492">
        <ele>57</ele>
        <time>2021-04-24T12:19:35.000Z</time>
      </trkpt>
      <trkpt lat="47.20115" lon="-1.55504">
        <ele>58</ele>
        <time>2021-04-24T12:19:37.000Z</time>
      </trkpt>
      <trkpt lat="47.20104" lon="-1.5552">
        <ele>58</ele>
        <time>2021-04-24T12:19:39.000Z</time>
      </trkpt>
      <trkpt lat="47.20093" lon="-1.55535">
        <ele>58</ele>
        <time>2021-04-24T12:19:41.000Z</time>
      </trkpt>
      <trkpt lat="47.20083" lon="-1.5555">
        <ele>59</ele>
        <time>2021-04-24T12:19:43.000Z</time>
      </trkpt>
      <trkpt lat="47.20072" lon="-1.55565">
        <ele>60</ele>
        <time>2021-04-24T12:19:45.000Z</time>
      </trkpt>
      <trkpt lat="47.20061" lon="-1.5558">
        <ele>60</ele>
        <time>2021-04-24T12:19:47.000Z</time>
      </trkpt>
      <trkpt lat="47.2005" lon="-1.55594">
        <ele>61</ele>
        <time>2021-04-24T12:19:49.000Z</time>
      </trkpt>
      <trkpt lat="47.20039" lon="-1.5561">
        <ele>61</ele>
        <time>2021-04-24T12:19:51.000Z</time>
      </trkpt>
      <trkpt lat="47.20028" lon="-1.55624">
        <ele>62</ele>
        <time>2021-04-24T12:19:53.000Z</time>
      </trkpt>
      <trkpt lat="47.20017" lon="-1.55634">
        <ele>62</ele>
        <time>2021-04-24T12:19:55.000Z</time>
      </trkpt>
      <trkpt lat="47.20001" lon="-1.55634">
        <ele>62</ele>
        <time>2021-04-24T12:19:57.000Z</time>
      </trkpt>
      <trkpt lat="47.19988" lon="-1.55642">
        <ele>61</ele>
        <time>2021-04-24T12:19:59.000Z</time>
      </trkpt>
      <trkpt lat="47.19975" lon="-1.5565">
        <ele>61</ele>
        <time>2021-04-24T12:20:01.000Z</time>
      </trkpt>
      <trkpt lat="47.19962" lon="-1.55659">
        <ele>60</ele>
        <time>2021-04-24T12:20:03.000Z</time>
      </trkpt>
      <trkpt lat="47.19951" lon="-1.55672">
        <ele>60</ele>
        <time>2021-04-24T12:20:05.000Z</time>
      </trkpt>
      <trkpt lat="47.19941" lon="-1.55687">
        <ele>59</ele>
        <time>2021-04-24T12:20:07.000Z</time>
      </trkpt>
      <trkpt lat="47.19935" lon="-1.55707">
        <ele>58</ele>
        <time>2021-04-24T12:20:09.000Z</time>
      </trkpt>
      <trkpt lat="47.19931" lon="-1.55728">
        <ele>58</ele>
        <time>2021-04-24T12:20:11.000Z</time>
      </trkpt>
      <trkpt lat="47.1993" lon="-1.55749">
        <ele>57</ele>
        <time>2021-04-24T12:20:13.000Z</time>
      </trkpt>
      <trkpt lat="47.19931" lon="-1.5577">
        <ele>57</ele>
        <time>2021-04-24T12:20:15.000Z</time>
      </trkpt>
      <trkpt lat="47.19931" lon="-1.55791">
        <ele>57</ele>
        <time>2021-04-24T12:20:17.000Z</time>
      </trkpt>
      <trkpt lat="47.19931" lon="-1.55811">
        <ele>57</ele>
        <time>2021-04-24T12:20:19.000Z</time>
      </trkpt>
      <trkpt lat="47.19931" lon="-1.55833">
        <ele>57</ele>
        <time>2021-04-24T12:20:21.000Z</time>
      </trkpt>
      <trkpt lat="47.19932" lon="-1.55854">
        <ele>57</ele>
        <time>2021-04-24T12:20:23.000Z</time>
      </trkpt>
      <trkpt lat="47.19932" lon="-1.55875">
        <ele>57</ele>
        <time>2021-04-24T12:20:25.000Z</time>
      </trkpt>
      <trkpt lat="47.19932" lon="-1.55896">
        <ele>56</ele>
        <time>2021-04-24T12:20:27.000Z</time>
      </trkpt>
      <trkpt lat="47.19933" lon="-1.55917">
        <ele>57</ele>
        <time>2021-04-24T12:20:29.000Z</time>
      </trkpt>
      <trkpt lat="47.19933" lon="-1.55938">
        <ele>56</ele>
        <time>2021-04-24T12:20:31.000Z</time>
      </trkpt>
      <trkpt lat="47.19933" lon="-1.5596">
        <ele>56</ele>
        <time>2021-04-24T12:20:33.000Z</time>
      </trkpt>
      <trkpt lat="47.19933" lon="-1.55982">
        <ele>56</ele>
        <time>2021-04-24T12:20:35.000Z</time>
      </trkpt>
      <trkpt lat="47.19933" lon="-1.56003">
        <ele>56</ele>
        <time>2021-04-24T12:20:37.000Z</time>
      </trkpt>
      <trkpt lat="47.19933" lon="-1.56023">
        <ele>56</ele>
        <time>2021-04-24T12:20:39.000Z</time>
      </trkpt>
      <trkpt lat="47.19933" lon="-1.56043">
        <ele>56</ele>
        <time>2021-04-24T12:20:41.000Z</time>
      </trkpt>
      <trkpt lat="47.19935" lon="-1.56062">
        <ele>56</ele>
        <time>2021-04-24T12:20:43.000Z</time>
      </trkpt>
      <trkpt lat="47.19939" lon="-1.5608">
        <ele>56</ele>
        <time>2021-04-24T12:20:45.000Z</time>
      </trkpt>
      <trkpt lat="47.19946" lon="-1.56094">
        <ele>56</ele>
        <time>2021-04-24T12:20:47.000Z</time>
      </trkpt>
      <trkpt lat="47.19952" lon="-1.56108">
        <ele>55</ele>
        <time>2021-04-24T12:20:49.000Z</time>
      </trkpt>
      <trkpt lat="47.19957" lon="-1.5612">
        <ele>55</ele>
        <time>2021-04-24T12:20:51.000Z</time>
      </trkpt>
      <trkpt lat="47.19959" lon="-1.56135">
        <ele>55</ele>
        <time>2021-04-24T12:20:56.000Z</time>
      </trkpt>
      <trkpt lat="47.19967" lon="-1.56141">
        <ele>55</ele>
        <time>2021-04-24T12:20:59.000Z</time>
      </trkpt>
      <trkpt lat="47.1997" lon="-1.56157">
        <ele>55</ele>
        <time>2021-04-24T12:21:02.000Z</time>
      </trkpt>
      <trkpt lat="47.1996" lon="-1.56169">
        <ele>57</ele>
        <time>2021-04-24T12:21:05.000Z</time>
      </trkpt>
      <trkpt lat="47.19947" lon="-1.56169">
        <ele>58</ele>
        <time>2021-04-24T12:21:07.000Z</time>
      </trkpt>
      <trkpt lat="47.19933" lon="-1.56173">
        <ele>59</ele>
        <time>2021-04-24T12:21:09.000Z</time>
      </trkpt>
      <trkpt lat="47.19919" lon="-1.56175">
        <ele>59</ele>
        <time>2021-04-24T12:21:11.000Z</time>
      </trkpt>
      <trkpt lat="47.19905" lon="-1.56178">
        <ele>60</ele>
        <time>2021-04-24T12:21:13.000Z</time>
      </trkpt>
      <trkpt lat="47.1989" lon="-1.56181">
        <ele>61</ele>
        <time>2021-04-24T12:21:15.000Z</time>
      </trkpt>
      <trkpt lat="47.19875" lon="-1.56183">
        <ele>61</ele>
        <time>2021-04-24T12:21:17.000Z</time>
      </trkpt>
      <trkpt lat="47.19861" lon="-1.56186">
        <ele>62</ele>
        <time>2021-04-24T12:21:19.000Z</time>
      </trkpt>
      <trkpt lat="47.19847" lon="-1.56188">
        <ele>62</ele>
        <time>2021-04-24T12:21:21.000Z</time>
      </trkpt>
      <trkpt lat="47.19833" lon="-1.56189">
        <ele>62</ele>
        <time>2021-04-24T12:21:23.000Z</time>
      </trkpt>
      <trkpt lat="47.19819" lon="-1.56192">
        <ele>62</ele>
        <time>2021-04-24T12:21:25.000Z</time>
      </trkpt>
      <trkpt lat="47.19805" lon="-1.56194">
        <ele>62</ele>
        <time>2021-04-24T12:21:27.000Z</time>
      </trkpt>
      <trkpt lat="47.19791" lon="-1.56197">
        <ele>63</ele>
        <time>2021-04-24T12:21:29.000Z</time>
      </trkpt>
      <trkpt lat="47.19776" lon="-1.562">
        <ele>62</ele>
        <time>2021-04-24T12:21:31.000Z</time>
      </trkpt>
      <trkpt lat="47.19761" lon="-1.56202">
        <ele>62</ele>
        <time>2021-04-24T12:21:33.000Z</time>
      </trkpt>
      <trkpt lat="47.19746" lon="-1.56206">
        <ele>62</ele>
        <time>2021-04-24T12:21:35.000Z</time>
      </trkpt>
      <trkpt lat="47.19729" lon="-1.56208">
        <ele>61</ele>
        <time>2021-04-24T12:21:37.000Z</time>
      </trkpt>
      <trkpt lat="47.19712" lon="-1.56211">
        <ele>60</ele>
        <time>2021-04-24T12:21:39.000Z</time>
      </trkpt>
      <trkpt lat="47.19695" lon="-1.56215">
        <ele>59</ele>
        <time>2021-04-24T12:21:41.000Z</time>
      </trkpt>
      <trkpt lat="47.19677" lon="-1.56219">
        <ele>57</ele>
        <time>2021-04-24T12:21:43.000Z</time>
      </trkpt>
      <trkpt lat="47.1966" lon="-1.56225">
        <ele>56</ele>
        <time>2021-04-24T12:21:45.000Z</time>
      </trkpt>
      <trkpt lat="47.19642" lon="-1.56232">
        <ele>55</ele>
        <time>2021-04-24T12:21:47.000Z</time>
      </trkpt>
      <trkpt lat="47.19637" lon="-1.56243">
        <ele>55</ele>
        <time>2021-04-24T12:21:48.000Z</time>
      </trkpt>
      <trkpt lat="47.19634" lon="-1.56257">
        <ele>54</ele>
        <time>2021-04-24T12:21:49.000Z</time>
      </trkpt>
      <trkpt lat="47.19634" lon="-1.5627">
        <ele>54</ele>
        <time>2021-04-24T12:21:50.000Z</time>
      </trkpt>
      <trkpt lat="47.19633" lon="-1.56293">
        <ele>54</ele>
        <time>2021-04-24T12:21:52.000Z</time>
      </trkpt>
      <trkpt lat="47.19631" lon="-1.56317">
        <ele>54</ele>
        <time>2021-04-24T12:21:54.000Z</time>
      </trkpt>
      <trkpt lat="47.19629" lon="-1.5634">
        <ele>54</ele>
        <time>2021-04-24T12:21:56.000Z</time>
      </trkpt>
      <trkpt lat="47.19629" lon="-1.56361">
        <ele>53</ele>
        <time>2021-04-24T12:21:58.000Z</time>
      </trkpt>
      <trkpt lat="47.19629" lon="-1.56385">
        <ele>52</ele>
        <time>2021-04-24T12:22:00.000Z</time>
      </trkpt>
      <trkpt lat="47.1963" lon="-1.56408">
        <ele>52</ele>
        <time>2021-04-24T12:22:02.000Z</time>
      </trkpt>
      <trkpt lat="47.1963" lon="-1.56431">
        <ele>52</ele>
        <time>2021-04-24T12:22:04.000Z</time>
      </trkpt>
      <trkpt lat="47.19632" lon="-1.56454">
        <ele>53</ele>
        <time>2021-04-24T12:22:06.000Z</time>
      </trkpt>
      <trkpt lat="47.19632" lon="-1.56477">
        <ele>53</ele>
        <time>2021-04-24T12:22:08.000Z</time>
      </trkpt>
      <trkpt lat="47.19633" lon="-1.56499">
        <ele>53</ele>
        <time>2021-04-24T12:22:10.000Z</time>
      </trkpt>
      <trkpt lat="47.19633" lon="-1.56521">
        <ele>53</ele>
        <time>2021-04-24T12:22:12.000Z</time>
      </trkpt>
      <trkpt lat="47.19632" lon="-1.56544">
        <ele>54</ele>
        <time>2021-04-24T12:22:14.000Z</time>
      </trkpt>
      <trkpt lat="47.19632" lon="-1.56567">
        <ele>53</ele>
        <time>2021-04-24T12:22:16.000Z</time>
      </trkpt>
      <trkpt lat="47.1963" lon="-1.56589">
        <ele>53</ele>
        <time>2021-04-24T12:22:18.000Z</time>
      </trkpt>
      <trkpt lat="47.1963" lon="-1.56611">
        <ele>53</ele>
        <time>2021-04-24T12:22:20.000Z</time>
      </trkpt>
      <trkpt lat="47.19629" lon="-1.56634">
        <ele>54</ele>
        <time>2021-04-24T12:22:22.000Z</time>
      </trkpt>
      <trkpt lat="47.19629" lon="-1.56656">
        <ele>54</ele>
        <time>2021-04-24T12:22:24.000Z</time>
      </trkpt>
      <trkpt lat="47.19629" lon="-1.56678">
        <ele>55</ele>
        <time>2021-04-24T12:22:26.000Z</time>
      </trkpt>
      <trkpt lat="47.19629" lon="-1.567">
        <ele>55</ele>
        <time>2021-04-24T12:22:28.000Z</time>
      </trkpt>
      <trkpt lat="47.19628" lon="-1.56722">
        <ele>55</ele>
        <time>2021-04-24T12:22:30.000Z</time>
      </trkpt>
      <trkpt lat="47.19626" lon="-1.56743">
        <ele>54</ele>
        <time>2021-04-24T12:22:32.000Z</time>
      </trkpt>
      <trkpt lat="47.19623" lon="-1.56765">
        <ele>54</ele>
        <time>2021-04-24T12:22:34.000Z</time>
      </trkpt>
      <trkpt lat="47.19622" lon="-1.56786">
        <ele>53</ele>
        <time>2021-04-24T12:22:36.000Z</time>
      </trkpt>
      <trkpt lat="47.1962" lon="-1.56808">
        <ele>53</ele>
        <time>2021-04-24T12:22:38.000Z</time>
      </trkpt>
      <trkpt lat="47.19619" lon="-1.56841">
        <ele>53</ele>
        <time>2021-04-24T12:22:41.000Z</time>
      </trkpt>
      <trkpt lat="47.19618" lon="-1.56863">
        <ele>53</ele>
        <time>2021-04-24T12:22:43.000Z</time>
      </trkpt>
      <trkpt lat="47.19617" lon="-1.56884">
        <ele>53</ele>
        <time>2021-04-24T12:22:45.000Z</time>
      </trkpt>
      <trkpt lat="47.19615" lon="-1.56905">
        <ele>53</ele>
        <time>2021-04-24T12:22:47.000Z</time>
      </trkpt>
      <trkpt lat="47.19613" lon="-1.56926">
        <ele>54</ele>
        <time>2021-04-24T12:22:49.000Z</time>
      </trkpt>
      <trkpt lat="47.19613" lon="-1.56947">
        <ele>54</ele>
        <time>2021-04-24T12:22:51.000Z</time>
      </trkpt>
      <trkpt lat="47.19611" lon="-1.56967">
        <ele>53</ele>
        <time>2021-04-24T12:22:53.000Z</time>
      </trkpt>
      <trkpt lat="47.19609" lon="-1.56989">
        <ele>52</ele>
        <time>2021-04-24T12:22:55.000Z</time>
      </trkpt>
      <trkpt lat="47.19608" lon="-1.5701">
        <ele>52</ele>
        <time>2021-04-24T12:22:57.000Z</time>
      </trkpt>
      <trkpt lat="47.19606" lon="-1.5703">
        <ele>52</ele>
        <time>2021-04-24T12:22:59.000Z</time>
      </trkpt>
      <trkpt lat="47.19604" lon="-1.57052">
        <ele>52</ele>
        <time>2021-04-24T12:23:01.000Z</time>
      </trkpt>
      <trkpt lat="47.19603" lon="-1.57073">
        <ele>52</ele>
        <time>2021-04-24T12:23:03.000Z</time>
      </trkpt>
      <trkpt lat="47.19602" lon="-1.57094">
        <ele>52</ele>
        <time>2021-04-24T12:23:05.000Z</time>
      </trkpt>
      <trkpt lat="47.196" lon="-1.57114">
        <ele>51</ele>
        <time>2021-04-24T12:23:07.000Z</time>
      </trkpt>
      <trkpt lat="47.19599" lon="-1.57134">
        <ele>51</ele>
        <time>2021-04-24T12:23:09.000Z</time>
      </trkpt>
      <trkpt lat="47.19598" lon="-1.57154">
        <ele>51</ele>
        <time>2021-04-24T12:23:11.000Z</time>
      </trkpt>
      <trkpt lat="47.19596" lon="-1.57174">
        <ele>51</ele>
        <time>2021-04-24T12:23:13.000Z</time>
      </trkpt>
      <trkpt lat="47.19596" lon="-1.57194">
        <ele>51</ele>
        <time>2021-04-24T12:23:15.000Z</time>
      </trkpt>
      <trkpt lat="47.19595" lon="-1.57215">
        <ele>51</ele>
        <time>2021-04-24T12:23:17.000Z</time>
      </trkpt>
      <trkpt lat="47.19593" lon="-1.57236">
        <ele>51</ele>
        <time>2021-04-24T12:23:19.000Z</time>
      </trkpt>
      <trkpt lat="47.19591" lon="-1.57256">
        <ele>51</ele>
        <time>2021-04-24T12:23:21.000Z</time>
      </trkpt>
      <trkpt lat="47.19589" lon="-1.57276">
        <ele>51</ele>
        <time>2021-04-24T12:23:23.000Z</time>
      </trkpt>
      <trkpt lat="47.19588" lon="-1.57296">
        <ele>51</ele>
        <time>2021-04-24T12:23:25.000Z</time>
      </trkpt>
      <trkpt lat="47.19587" lon="-1.57316">
        <ele>51</ele>
        <time>2021-04-24T12:23:27.000Z</time>
      </trkpt>
      <trkpt lat="47.19584" lon="-1.57336">
        <ele>50</ele>
        <time>2021-04-24T12:23:29.000Z</time>
      </trkpt>
      <trkpt lat="47.19579" lon="-1.57355">
        <ele>50</ele>
        <time>2021-04-24T12:23:31.000Z</time>
      </trkpt>
      <trkpt lat="47.19576" lon="-1.57374">
        <ele>51</ele>
        <time>2021-04-24T12:23:33.000Z</time>
      </trkpt>
      <trkpt lat="47.19572" lon="-1.57392">
        <ele>52</ele>
        <time>2021-04-24T12:23:35.000Z</time>
      </trkpt>
      <trkpt lat="47.19568" lon="-1.57412">
        <ele>52</ele>
        <time>2021-04-24T12:23:37.000Z</time>
      </trkpt>
      <trkpt lat="47.19564" lon="-1.57432">
        <ele>52</ele>
        <time>2021-04-24T12:23:39.000Z</time>
      </trkpt>
      <trkpt lat="47.1956" lon="-1.57451">
        <ele>53</ele>
        <time>2021-04-24T12:23:41.000Z</time>
      </trkpt>
      <trkpt lat="47.19556" lon="-1.57471">
        <ele>53</ele>
        <time>2021-04-24T12:23:43.000Z</time>
      </trkpt>
      <trkpt lat="47.19552" lon="-1.5749">
        <ele>53</ele>
        <time>2021-04-24T12:23:45.000Z</time>
      </trkpt>
      <trkpt lat="47.19548" lon="-1.5751">
        <ele>53</ele>
        <time>2021-04-24T12:23:47.000Z</time>
      </trkpt>
      <trkpt lat="47.19542" lon="-1.57541">
        <ele>53</ele>
        <time>2021-04-24T12:23:50.000Z</time>
      </trkpt>
      <trkpt lat="47.19538" lon="-1.5756">
        <ele>53</ele>
        <time>2021-04-24T12:23:52.000Z</time>
      </trkpt>
      <trkpt lat="47.19534" lon="-1.57579">
        <ele>53</ele>
        <time>2021-04-24T12:23:54.000Z</time>
      </trkpt>
      <trkpt lat="47.1953" lon="-1.57599">
        <ele>53</ele>
        <time>2021-04-24T12:23:56.000Z</time>
      </trkpt>
      <trkpt lat="47.19526" lon="-1.57618">
        <ele>53</ele>
        <time>2021-04-24T12:23:58.000Z</time>
      </trkpt>
      <trkpt lat="47.19522" lon="-1.57637">
        <ele>52</ele>
        <time>2021-04-24T12:24:00.000Z</time>
      </trkpt>
      <trkpt lat="47.19518" lon="-1.57655">
        <ele>52</ele>
        <time>2021-04-24T12:24:02.000Z</time>
      </trkpt>
      <trkpt lat="47.19514" lon="-1.57675">
        <ele>52</ele>
        <time>2021-04-24T12:24:04.000Z</time>
      </trkpt>
      <trkpt lat="47.19511" lon="-1.57695">
        <ele>52</ele>
        <time>2021-04-24T12:24:06.000Z</time>
      </trkpt>
      <trkpt lat="47.19505" lon="-1.57725">
        <ele>52</ele>
        <time>2021-04-24T12:24:09.000Z</time>
      </trkpt>
      <trkpt lat="47.19501" lon="-1.57745">
        <ele>52</ele>
        <time>2021-04-24T12:24:11.000Z</time>
      </trkpt>
      <trkpt lat="47.19497" lon="-1.57766">
        <ele>52</ele>
        <time>2021-04-24T12:24:13.000Z</time>
      </trkpt>
      <trkpt lat="47.19492" lon="-1.57785">
        <ele>53</ele>
        <time>2021-04-24T12:24:15.000Z</time>
      </trkpt>
      <trkpt lat="47.19488" lon="-1.57805">
        <ele>53</ele>
        <time>2021-04-24T12:24:17.000Z</time>
      </trkpt>
      <trkpt lat="47.19484" lon="-1.57825">
        <ele>53</ele>
        <time>2021-04-24T12:24:19.000Z</time>
      </trkpt>
      <trkpt lat="47.19482" lon="-1.57844">
        <ele>53</ele>
        <time>2021-04-24T12:24:21.000Z</time>
      </trkpt>
      <trkpt lat="47.19479" lon="-1.57864">
        <ele>53</ele>
        <time>2021-04-24T12:24:23.000Z</time>
      </trkpt>
      <trkpt lat="47.19476" lon="-1.57885">
        <ele>54</ele>
        <time>2021-04-24T12:24:25.000Z</time>
      </trkpt>
      <trkpt lat="47.19472" lon="-1.57905">
        <ele>53</ele>
        <time>2021-04-24T12:24:27.000Z</time>
      </trkpt>
      <trkpt lat="47.1947" lon="-1.57927">
        <ele>53</ele>
        <time>2021-04-24T12:24:29.000Z</time>
      </trkpt>
      <trkpt lat="47.19467" lon="-1.57948">
        <ele>52</ele>
        <time>2021-04-24T12:24:31.000Z</time>
      </trkpt>
      <trkpt lat="47.19465" lon="-1.57968">
        <ele>52</ele>
        <time>2021-04-24T12:24:33.000Z</time>
      </trkpt>
      <trkpt lat="47.19464" lon="-1.57987">
        <ele>52</ele>
        <time>2021-04-24T12:24:35.000Z</time>
      </trkpt>
      <trkpt lat="47.19463" lon="-1.58006">
        <ele>52</ele>
        <time>2021-04-24T12:24:37.000Z</time>
      </trkpt>
      <trkpt lat="47.19462" lon="-1.58026">
        <ele>52</ele>
        <time>2021-04-24T12:24:39.000Z</time>
      </trkpt>
      <trkpt lat="47.1946" lon="-1.58053">
        <ele>52</ele>
        <time>2021-04-24T12:24:42.000Z</time>
      </trkpt>
      <trkpt lat="47.19457" lon="-1.5807">
        <ele>51</ele>
        <time>2021-04-24T12:24:44.000Z</time>
      </trkpt>
      <trkpt lat="47.19455" lon="-1.58087">
        <ele>51</ele>
        <time>2021-04-24T12:24:46.000Z</time>
      </trkpt>
      <trkpt lat="47.19449" lon="-1.58102">
        <ele>50</ele>
        <time>2021-04-24T12:24:48.000Z</time>
      </trkpt>
      <trkpt lat="47.1944" lon="-1.58115">
        <ele>50</ele>
        <time>2021-04-24T12:24:50.000Z</time>
      </trkpt>
      <trkpt lat="47.19429" lon="-1.58128">
        <ele>51</ele>
        <time>2021-04-24T12:24:52.000Z</time>
      </trkpt>
      <trkpt lat="47.19417" lon="-1.5814">
        <ele>52</ele>
        <time>2021-04-24T12:24:54.000Z</time>
      </trkpt>
      <trkpt lat="47.19407" lon="-1.58154">
        <ele>53</ele>
        <time>2021-04-24T12:24:56.000Z</time>
      </trkpt>
      <trkpt lat="47.19397" lon="-1.5817">
        <ele>54</ele>
        <time>2021-04-24T12:24:58.000Z</time>
      </trkpt>
      <trkpt lat="47.19389" lon="-1.58187">
        <ele>54</ele>
        <time>2021-04-24T12:25:00.000Z</time>
      </trkpt>
      <trkpt lat="47.19382" lon="-1.58204">
        <ele>54</ele>
        <time>2021-04-24T12:25:02.000Z</time>
      </trkpt>
      <trkpt lat="47.19376" lon="-1.58222">
        <ele>54</ele>
        <time>2021-04-24T12:25:04.000Z</time>
      </trkpt>
      <trkpt lat="47.19369" lon="-1.5824">
        <ele>54</ele>
        <time>2021-04-24T12:25:06.000Z</time>
      </trkpt>
      <trkpt lat="47.19363" lon="-1.58259">
        <ele>54</ele>
        <time>2021-04-24T12:25:08.000Z</time>
      </trkpt>
      <trkpt lat="47.19354" lon="-1.58275">
        <ele>53</ele>
        <time>2021-04-24T12:25:10.000Z</time>
      </trkpt>
      <trkpt lat="47.19343" lon="-1.58289">
        <ele>54</ele>
        <time>2021-04-24T12:25:12.000Z</time>
      </trkpt>
      <trkpt lat="47.19331" lon="-1.583">
        <ele>54</ele>
        <time>2021-04-24T12:25:14.000Z</time>
      </trkpt>
      <trkpt lat="47.19319" lon="-1.5831">
        <ele>54</ele>
        <time>2021-04-24T12:25:16.000Z</time>
      </trkpt>
      <trkpt lat="47.19307" lon="-1.58321">
        <ele>54</ele>
        <time>2021-04-24T12:25:18.000Z</time>
      </trkpt>
      <trkpt lat="47.19289" lon="-1.58336">
        <ele>54</ele>
        <time>2021-04-24T12:25:21.000Z</time>
      </trkpt>
      <trkpt lat="47.19278" lon="-1.58347">
        <ele>55</ele>
        <time>2021-04-24T12:25:23.000Z</time>
      </trkpt>
      <trkpt lat="47.19266" lon="-1.58359">
        <ele>55</ele>
        <time>2021-04-24T12:25:25.000Z</time>
      </trkpt>
      <trkpt lat="47.19254" lon="-1.58371">
        <ele>55</ele>
        <time>2021-04-24T12:25:27.000Z</time>
      </trkpt>
      <trkpt lat="47.19243" lon="-1.58382">
        <ele>55</ele>
        <time>2021-04-24T12:25:29.000Z</time>
      </trkpt>
      <trkpt lat="47.1923" lon="-1.58393">
        <ele>55</ele>
        <time>2021-04-24T12:25:31.000Z</time>
      </trkpt>
      <trkpt lat="47.19218" lon="-1.58403">
        <ele>55</ele>
        <time>2021-04-24T12:25:33.000Z</time>
      </trkpt>
      <trkpt lat="47.19207" lon="-1.58414">
        <ele>55</ele>
        <time>2021-04-24T12:25:35.000Z</time>
      </trkpt>
      <trkpt lat="47.19195" lon="-1.58424">
        <ele>55</ele>
        <time>2021-04-24T12:25:37.000Z</time>
      </trkpt>
      <trkpt lat="47.19184" lon="-1.58435">
        <ele>55</ele>
        <time>2021-04-24T12:25:39.000Z</time>
      </trkpt>
      <trkpt lat="47.19174" lon="-1.58445">
        <ele>55</ele>
        <time>2021-04-24T12:25:41.000Z</time>
      </trkpt>
      <trkpt lat="47.19165" lon="-1.58455">
        <ele>55</ele>
        <time>2021-04-24T12:25:43.000Z</time>
      </trkpt>
      <trkpt lat="47.19156" lon="-1.58465">
        <ele>55</ele>
        <time>2021-04-24T12:25:45.000Z</time>
      </trkpt>
      <trkpt lat="47.19145" lon="-1.58477">
        <ele>55</ele>
        <time>2021-04-24T12:25:49.000Z</time>
      </trkpt>
      <trkpt lat="47.19136" lon="-1.58485">
        <ele>55</ele>
        <time>2021-04-24T12:25:51.000Z</time>
      </trkpt>
      <trkpt lat="47.19124" lon="-1.58496">
        <ele>55</ele>
        <time>2021-04-24T12:25:53.000Z</time>
      </trkpt>
      <trkpt lat="47.19112" lon="-1.58507">
        <ele>56</ele>
        <time>2021-04-24T12:25:55.000Z</time>
      </trkpt>
      <trkpt lat="47.191" lon="-1.58518">
        <ele>57</ele>
        <time>2021-04-24T12:25:57.000Z</time>
      </trkpt>
      <trkpt lat="47.19088" lon="-1.5853">
        <ele>57</ele>
        <time>2021-04-24T12:25:59.000Z</time>
      </trkpt>
      <trkpt lat="47.19076" lon="-1.58542">
        <ele>57</ele>
        <time>2021-04-24T12:26:01.000Z</time>
      </trkpt>
      <trkpt lat="47.19064" lon="-1.58555">
        <ele>57</ele>
        <time>2021-04-24T12:26:03.000Z</time>
      </trkpt>
      <trkpt lat="47.19047" lon="-1.58573">
        <ele>57</ele>
        <time>2021-04-24T12:26:06.000Z</time>
      </trkpt>
      <trkpt lat="47.19035" lon="-1.58585">
        <ele>58</ele>
        <time>2021-04-24T12:26:08.000Z</time>
      </trkpt>
      <trkpt lat="47.19023" lon="-1.58598">
        <ele>58</ele>
        <time>2021-04-24T12:26:10.000Z</time>
      </trkpt>
      <trkpt lat="47.19011" lon="-1.5861">
        <ele>58</ele>
        <time>2021-04-24T12:26:12.000Z</time>
      </trkpt>
      <trkpt lat="47.18999" lon="-1.58622">
        <ele>58</ele>
        <time>2021-04-24T12:26:14.000Z</time>
      </trkpt>
      <trkpt lat="47.18988" lon="-1.58634">
        <ele>58</ele>
        <time>2021-04-24T12:26:16.000Z</time>
      </trkpt>
      <trkpt lat="47.18975" lon="-1.58645">
        <ele>58</ele>
        <time>2021-04-24T12:26:18.000Z</time>
      </trkpt>
      <trkpt lat="47.18963" lon="-1.58656">
        <ele>58</ele>
        <time>2021-04-24T12:26:20.000Z</time>
      </trkpt>
      <trkpt lat="47.18951" lon="-1.58668">
        <ele>57</ele>
        <time>2021-04-24T12:26:22.000Z</time>
      </trkpt>
      <trkpt lat="47.1894" lon="-1.58679">
        <ele>57</ele>
        <time>2021-04-24T12:26:24.000Z</time>
      </trkpt>
      <trkpt lat="47.18928" lon="-1.5869">
        <ele>57</ele>
        <time>2021-04-24T12:26:26.000Z</time>
      </trkpt>
      <trkpt lat="47.18916" lon="-1.58702">
        <ele>57</ele>
        <time>2021-04-24T12:26:28.000Z</time>
      </trkpt>
      <trkpt lat="47.18904" lon="-1.58711">
        <ele>57</ele>
        <time>2021-04-24T12:26:30.000Z</time>
      </trkpt>
      <trkpt lat="47.18891" lon="-1.58719">
        <ele>57</ele>
        <time>2021-04-24T12:26:32.000Z</time>
      </trkpt>
      <trkpt lat="47.18879" lon="-1.58725">
        <ele>56</ele>
        <time>2021-04-24T12:26:34.000Z</time>
      </trkpt>
      <trkpt lat="47.18868" lon="-1.58732">
        <ele>56</ele>
        <time>2021-04-24T12:26:36.000Z</time>
      </trkpt>
      <trkpt lat="47.18857" lon="-1.58737">
        <ele>57</ele>
        <time>2021-04-24T12:26:38.000Z</time>
      </trkpt>
      <trkpt lat="47.18846" lon="-1.58742">
        <ele>57</ele>
        <time>2021-04-24T12:26:40.000Z</time>
      </trkpt>
      <trkpt lat="47.18836" lon="-1.58751">
        <ele>57</ele>
        <time>2021-04-24T12:26:42.000Z</time>
      </trkpt>
      <trkpt lat="47.18831" lon="-1.58769">
        <ele>56</ele>
        <time>2021-04-24T12:26:44.000Z</time>
      </trkpt>
      <trkpt lat="47.18825" lon="-1.58786">
        <ele>57</ele>
        <time>2021-04-24T12:26:46.000Z</time>
      </trkpt>
      <trkpt lat="47.18816" lon="-1.588">
        <ele>56</ele>
        <time>2021-04-24T12:26:48.000Z</time>
      </trkpt>
      <trkpt lat="47.18805" lon="-1.58809">
        <ele>56</ele>
        <time>2021-04-24T12:26:50.000Z</time>
      </trkpt>
      <trkpt lat="47.18793" lon="-1.58816">
        <ele>57</ele>
        <time>2021-04-24T12:26:52.000Z</time>
      </trkpt>
      <trkpt lat="47.18789" lon="-1.58833">
        <ele>57</ele>
        <time>2021-04-24T12:26:54.000Z</time>
      </trkpt>
      <trkpt lat="47.18785" lon="-1.58852">
        <ele>56</ele>
        <time>2021-04-24T12:26:56.000Z</time>
      </trkpt>
      <trkpt lat="47.18781" lon="-1.5887">
        <ele>56</ele>
        <time>2021-04-24T12:26:58.000Z</time>
      </trkpt>
      <trkpt lat="47.18777" lon="-1.58889">
        <ele>57</ele>
        <time>2021-04-24T12:27:00.000Z</time>
      </trkpt>
      <trkpt lat="47.18774" lon="-1.58909">
        <ele>57</ele>
        <time>2021-04-24T12:27:02.000Z</time>
      </trkpt>
      <trkpt lat="47.18772" lon="-1.58931">
        <ele>57</ele>
        <time>2021-04-24T12:27:04.000Z</time>
      </trkpt>
      <trkpt lat="47.18769" lon="-1.58953">
        <ele>57</ele>
        <time>2021-04-24T12:27:06.000Z</time>
      </trkpt>
      <trkpt lat="47.18766" lon="-1.58974">
        <ele>58</ele>
        <time>2021-04-24T12:27:08.000Z</time>
      </trkpt>
      <trkpt lat="47.18763" lon="-1.58995">
        <ele>58</ele>
        <time>2021-04-24T12:27:10.000Z</time>
      </trkpt>
      <trkpt lat="47.1876" lon="-1.59016">
        <ele>59</ele>
        <time>2021-04-24T12:27:12.000Z</time>
      </trkpt>
      <trkpt lat="47.18757" lon="-1.59038">
        <ele>59</ele>
        <time>2021-04-24T12:27:14.000Z</time>
      </trkpt>
      <trkpt lat="47.18755" lon="-1.5906">
        <ele>59</ele>
        <time>2021-04-24T12:27:16.000Z</time>
      </trkpt>
      <trkpt lat="47.18752" lon="-1.59082">
        <ele>59</ele>
        <time>2021-04-24T12:27:18.000Z</time>
      </trkpt>
      <trkpt lat="47.18751" lon="-1.59105">
        <ele>59</ele>
        <time>2021-04-24T12:27:20.000Z</time>
      </trkpt>
      <trkpt lat="47.1875" lon="-1.59128">
        <ele>59</ele>
        <time>2021-04-24T12:27:22.000Z</time>
      </trkpt>
      <trkpt lat="47.18747" lon="-1.5915">
        <ele>59</ele>
        <time>2021-04-24T12:27:24.000Z</time>
      </trkpt>
      <trkpt lat="47.18744" lon="-1.59173">
        <ele>58</ele>
        <time>2021-04-24T12:27:26.000Z</time>
      </trkpt>
      <trkpt lat="47.18742" lon="-1.59195">
        <ele>58</ele>
        <time>2021-04-24T12:27:28.000Z</time>
      </trkpt>
      <trkpt lat="47.18739" lon="-1.59219">
        <ele>58</ele>
        <time>2021-04-24T12:27:30.000Z</time>
      </trkpt>
      <trkpt lat="47.18737" lon="-1.59241">
        <ele>57</ele>
        <time>2021-04-24T12:27:32.000Z</time>
      </trkpt>
      <trkpt lat="47.18734" lon="-1.59264">
        <ele>57</ele>
        <time>2021-04-24T12:27:34.000Z</time>
      </trkpt>
      <trkpt lat="47.18732" lon="-1.59287">
        <ele>57</ele>
        <time>2021-04-24T12:27:36.000Z</time>
      </trkpt>
      <trkpt lat="47.18729" lon="-1.59309">
        <ele>57</ele>
        <time>2021-04-24T12:27:38.000Z</time>
      </trkpt>
      <trkpt lat="47.18727" lon="-1.59332">
        <ele>57</ele>
        <time>2021-04-24T12:27:40.000Z</time>
      </trkpt>
      <trkpt lat="47.18724" lon="-1.59354">
        <ele>57</ele>
        <time>2021-04-24T12:27:42.000Z</time>
      </trkpt>
      <trkpt lat="47.18722" lon="-1.59378">
        <ele>57</ele>
        <time>2021-04-24T12:27:44.000Z</time>
      </trkpt>
      <trkpt lat="47.1872" lon="-1.594">
        <ele>56</ele>
        <time>2021-04-24T12:27:46.000Z</time>
      </trkpt>
      <trkpt lat="47.18717" lon="-1.59423">
        <ele>56</ele>
        <time>2021-04-24T12:27:48.000Z</time>
      </trkpt>
      <trkpt lat="47.18715" lon="-1.59445">
        <ele>56</ele>
        <time>2021-04-24T12:27:50.000Z</time>
      </trkpt>
      <trkpt lat="47.18712" lon="-1.59468">
        <ele>55</ele>
        <time>2021-04-24T12:27:52.000Z</time>
      </trkpt>
      <trkpt lat="47.18709" lon="-1.5949">
        <ele>55</ele>
        <time>2021-04-24T12:27:54.000Z</time>
      </trkpt>
      <trkpt lat="47.18707" lon="-1.59513">
        <ele>55</ele>
        <time>2021-04-24T12:27:56.000Z</time>
      </trkpt>
      <trkpt lat="47.18704" lon="-1.59535">
        <ele>56</ele>
        <time>2021-04-24T12:27:58.000Z</time>
      </trkpt>
      <trkpt lat="47.18702" lon="-1.59558">
        <ele>56</ele>
        <time>2021-04-24T12:28:00.000Z</time>
      </trkpt>
      <trkpt lat="47.18699" lon="-1.5958">
        <ele>56</ele>
        <time>2021-04-24T12:28:02.000Z</time>
      </trkpt>
      <trkpt lat="47.18696" lon="-1.59603">
        <ele>56</ele>
        <time>2021-04-24T12:28:04.000Z</time>
      </trkpt>
      <trkpt lat="47.18693" lon="-1.59626">
        <ele>56</ele>
        <time>2021-04-24T12:28:06.000Z</time>
      </trkpt>
      <trkpt lat="47.18691" lon="-1.59648">
        <ele>56</ele>
        <time>2021-04-24T12:28:08.000Z</time>
      </trkpt>
      <trkpt lat="47.18688" lon="-1.59669">
        <ele>56</ele>
        <time>2021-04-24T12:28:10.000Z</time>
      </trkpt>
      <trkpt lat="47.18685" lon="-1.5969">
        <ele>56</ele>
        <time>2021-04-24T12:28:12.000Z</time>
      </trkpt>
      <trkpt lat="47.18683" lon="-1.59712">
        <ele>56</ele>
        <time>2021-04-24T12:28:14.000Z</time>
      </trkpt>
      <trkpt lat="47.18682" lon="-1.59733">
        <ele>56</ele>
        <time>2021-04-24T12:28:16.000Z</time>
      </trkpt>
      <trkpt lat="47.18682" lon="-1.59754">
        <ele>55</ele>
        <time>2021-04-24T12:28:18.000Z</time>
      </trkpt>
      <trkpt lat="47.18685" lon="-1.59773">
        <ele>55</ele>
        <time>2021-04-24T12:28:20.000Z</time>
      </trkpt>
      <trkpt lat="47.1869" lon="-1.59792">
        <ele>55</ele>
        <time>2021-04-24T12:28:22.000Z</time>
      </trkpt>
      <trkpt lat="47.18685" lon="-1.59815">
        <ele>55</ele>
        <time>2021-04-24T12:28:24.000Z</time>
      </trkpt>
      <trkpt lat="47.18678" lon="-1.59825">
        <ele>55</ele>
        <time>2021-04-24T12:28:25.000Z</time>
      </trkpt>
      <trkpt lat="47.18671" lon="-1.59835">
        <ele>55</ele>
        <time>2021-04-24T12:28:26.000Z</time>
      </trkpt>
      <trkpt lat="47.18663" lon="-1.59843">
        <ele>56</ele>
        <time>2021-04-24T12:28:27.000Z</time>
      </trkpt>
      <trkpt lat="47.18646" lon="-1.59844">
        <ele>56</ele>
        <time>2021-04-24T12:28:29.000Z</time>
      </trkpt>
      <trkpt lat="47.18632" lon="-1.59833">
        <ele>55</ele>
        <time>2021-04-24T12:28:31.000Z</time>
      </trkpt>
      <trkpt lat="47.18618" lon="-1.59833">
        <ele>54</ele>
        <time>2021-04-24T12:28:33.000Z</time>
      </trkpt>
      <trkpt lat="47.18615" lon="-1.59847">
        <ele>53</ele>
        <time>2021-04-24T12:28:35.000Z</time>
      </trkpt>
      <trkpt lat="47.1862" lon="-1.59862">
        <ele>53</ele>
        <time>2021-04-24T12:28:37.000Z</time>
      </trkpt>
      <trkpt lat="47.18617" lon="-1.59881">
        <ele>54</ele>
        <time>2021-04-24T12:28:39.000Z</time>
      </trkpt>
      <trkpt lat="47.18614" lon="-1.59901">
        <ele>55</ele>
        <time>2021-04-24T12:28:41.000Z</time>
      </trkpt>
      <trkpt lat="47.18609" lon="-1.59921">
        <ele>55</ele>
        <time>2021-04-24T12:28:43.000Z</time>
      </trkpt>
      <trkpt lat="47.18604" lon="-1.5994">
        <ele>55</ele>
        <time>2021-04-24T12:28:45.000Z</time>
      </trkpt>
      <trkpt lat="47.18598" lon="-1.59959">
        <ele>55</ele>
        <time>2021-04-24T12:28:47.000Z</time>
      </trkpt>
      <trkpt lat="47.18591" lon="-1.59979">
        <ele>55</ele>
        <time>2021-04-24T12:28:49.000Z</time>
      </trkpt>
      <trkpt lat="47.18585" lon="-1.59998">
        <ele>55</ele>
        <time>2021-04-24T12:28:51.000Z</time>
      </trkpt>
      <trkpt lat="47.18579" lon="-1.60016">
        <ele>55</ele>
        <time>2021-04-24T12:28:53.000Z</time>
      </trkpt>
      <trkpt lat="47.18573" lon="-1.60035">
        <ele>55</ele>
        <time>2021-04-24T12:28:55.000Z</time>
      </trkpt>
      <trkpt lat="47.18566" lon="-1.60053">
        <ele>55</ele>
        <time>2021-04-24T12:28:57.000Z</time>
      </trkpt>
      <trkpt lat="47.18559" lon="-1.60071">
        <ele>55</ele>
        <time>2021-04-24T12:28:59.000Z</time>
      </trkpt>
      <trkpt lat="47.18552" lon="-1.60089">
        <ele>55</ele>
        <time>2021-04-24T12:29:01.000Z</time>
      </trkpt>
      <trkpt lat="47.18545" lon="-1.60106">
        <ele>55</ele>
        <time>2021-04-24T12:29:03.000Z</time>
      </trkpt>
      <trkpt lat="47.18538" lon="-1.60124">
        <ele>55</ele>
        <time>2021-04-24T12:29:05.000Z</time>
      </trkpt>
      <trkpt lat="47.1853" lon="-1.60142">
        <ele>56</ele>
        <time>2021-04-24T12:29:07.000Z</time>
      </trkpt>
      <trkpt lat="47.18523" lon="-1.60158">
        <ele>56</ele>
        <time>2021-04-24T12:29:09.000Z</time>
      </trkpt>
      <trkpt lat="47.18515" lon="-1.60174">
        <ele>56</ele>
        <time>2021-04-24T12:29:11.000Z</time>
      </trkpt>
      <trkpt lat="47.18508" lon="-1.6019">
        <ele>56</ele>
        <time>2021-04-24T12:29:13.000Z</time>
      </trkpt>
      <trkpt lat="47.18501" lon="-1.60205">
        <ele>57</ele>
        <time>2021-04-24T12:29:15.000Z</time>
      </trkpt>
      <trkpt lat="47.18493" lon="-1.60221">
        <ele>57</ele>
        <time>2021-04-24T12:29:17.000Z</time>
      </trkpt>
      <trkpt lat="47.18484" lon="-1.60237">
        <ele>57</ele>
        <time>2021-04-24T12:29:19.000Z</time>
      </trkpt>
      <trkpt lat="47.18475" lon="-1.60252">
        <ele>57</ele>
        <time>2021-04-24T12:29:21.000Z</time>
      </trkpt>
      <trkpt lat="47.18467" lon="-1.60267">
        <ele>57</ele>
        <time>2021-04-24T12:29:23.000Z</time>
      </trkpt>
      <trkpt lat="47.18459" lon="-1.60282">
        <ele>57</ele>
        <time>2021-04-24T12:29:25.000Z</time>
      </trkpt>
      <trkpt lat="47.18451" lon="-1.60297">
        <ele>57</ele>
        <time>2021-04-24T12:29:27.000Z</time>
      </trkpt>
      <trkpt lat="47.18442" lon="-1.6031">
        <ele>57</ele>
        <time>2021-04-24T12:29:29.000Z</time>
      </trkpt>
      <trkpt lat="47.18433" lon="-1.60325">
        <ele>57</ele>
        <time>2021-04-24T12:29:31.000Z</time>
      </trkpt>
      <trkpt lat="47.18424" lon="-1.60339">
        <ele>56</ele>
        <time>2021-04-24T12:29:33.000Z</time>
      </trkpt>
      <trkpt lat="47.18416" lon="-1.60353">
        <ele>56</ele>
        <time>2021-04-24T12:29:35.000Z</time>
      </trkpt>
      <trkpt lat="47.18406" lon="-1.60365">
        <ele>56</ele>
        <time>2021-04-24T12:29:37.000Z</time>
      </trkpt>
      <trkpt lat="47.18397" lon="-1.60379">
        <ele>56</ele>
        <time>2021-04-24T12:29:39.000Z</time>
      </trkpt>
      <trkpt lat="47.18387" lon="-1.60391">
        <ele>56</ele>
        <time>2021-04-24T12:29:41.000Z</time>
      </trkpt>
      <trkpt lat="47.18377" lon="-1.60404">
        <ele>56</ele>
        <time>2021-04-24T12:29:43.000Z</time>
      </trkpt>
      <trkpt lat="47.18367" lon="-1.60417">
        <ele>56</ele>
        <time>2021-04-24T12:29:45.000Z</time>
      </trkpt>
      <trkpt lat="47.18358" lon="-1.60429">
        <ele>56</ele>
        <time>2021-04-24T12:29:47.000Z</time>
      </trkpt>
      <trkpt lat="47.18348" lon="-1.60442">
        <ele>56</ele>
        <time>2021-04-24T12:29:49.000Z</time>
      </trkpt>
      <trkpt lat="47.18338" lon="-1.60455">
        <ele>56</ele>
        <time>2021-04-24T12:29:51.000Z</time>
      </trkpt>
      <trkpt lat="47.18328" lon="-1.60467">
        <ele>56</ele>
        <time>2021-04-24T12:29:53.000Z</time>
      </trkpt>
      <trkpt lat="47.18318" lon="-1.60479">
        <ele>56</ele>
        <time>2021-04-24T12:29:55.000Z</time>
      </trkpt>
      <trkpt lat="47.18307" lon="-1.6049">
        <ele>55</ele>
        <time>2021-04-24T12:29:57.000Z</time>
      </trkpt>
      <trkpt lat="47.18297" lon="-1.60503">
        <ele>55</ele>
        <time>2021-04-24T12:29:59.000Z</time>
      </trkpt>
      <trkpt lat="47.18286" lon="-1.60514">
        <ele>55</ele>
        <time>2021-04-24T12:30:01.000Z</time>
      </trkpt>
      <trkpt lat="47.18275" lon="-1.60525">
        <ele>55</ele>
        <time>2021-04-24T12:30:03.000Z</time>
      </trkpt>
      <trkpt lat="47.18263" lon="-1.60535">
        <ele>55</ele>
        <time>2021-04-24T12:30:05.000Z</time>
      </trkpt>
      <trkpt lat="47.18252" lon="-1.60545">
        <ele>56</ele>
        <time>2021-04-24T12:30:07.000Z</time>
      </trkpt>
      <trkpt lat="47.18241" lon="-1.60553">
        <ele>56</ele>
        <time>2021-04-24T12:30:09.000Z</time>
      </trkpt>
      <trkpt lat="47.18229" lon="-1.6056">
        <ele>56</ele>
        <time>2021-04-24T12:30:11.000Z</time>
      </trkpt>
      <trkpt lat="47.18219" lon="-1.60566">
        <ele>56</ele>
        <time>2021-04-24T12:30:13.000Z</time>
      </trkpt>
      <trkpt lat="47.18208" lon="-1.60571">
        <ele>56</ele>
        <time>2021-04-24T12:30:15.000Z</time>
      </trkpt>
      <trkpt lat="47.18198" lon="-1.60575">
        <ele>56</ele>
        <time>2021-04-24T12:30:17.000Z</time>
      </trkpt>
      <trkpt lat="47.18191" lon="-1.60587">
        <ele>55</ele>
        <time>2021-04-24T12:30:20.000Z</time>
      </trkpt>
      <trkpt lat="47.18183" lon="-1.606">
        <ele>56</ele>
        <time>2021-04-24T12:30:22.000Z</time>
      </trkpt>
      <trkpt lat="47.18169" lon="-1.60604">
        <ele>56</ele>
        <time>2021-04-24T12:30:24.000Z</time>
      </trkpt>
      <trkpt lat="47.18155" lon="-1.60605">
        <ele>56</ele>
        <time>2021-04-24T12:30:26.000Z</time>
      </trkpt>
      <trkpt lat="47.1814" lon="-1.60604">
        <ele>56</ele>
        <time>2021-04-24T12:30:28.000Z</time>
      </trkpt>
      <trkpt lat="47.18124" lon="-1.60601">
        <ele>56</ele>
        <time>2021-04-24T12:30:30.000Z</time>
      </trkpt>
      <trkpt lat="47.18109" lon="-1.60597">
        <ele>56</ele>
        <time>2021-04-24T12:30:32.000Z</time>
      </trkpt>
      <trkpt lat="47.18094" lon="-1.6059">
        <ele>56</ele>
        <time>2021-04-24T12:30:34.000Z</time>
      </trkpt>
      <trkpt lat="47.1808" lon="-1.60583">
        <ele>56</ele>
        <time>2021-04-24T12:30:36.000Z</time>
      </trkpt>
      <trkpt lat="47.18066" lon="-1.60574">
        <ele>56</ele>
        <time>2021-04-24T12:30:38.000Z</time>
      </trkpt>
      <trkpt lat="47.18052" lon="-1.60567">
        <ele>56</ele>
        <time>2021-04-24T12:30:40.000Z</time>
      </trkpt>
      <trkpt lat="47.18038" lon="-1.60559">
        <ele>56</ele>
        <time>2021-04-24T12:30:42.000Z</time>
      </trkpt>
      <trkpt lat="47.18023" lon="-1.60554">
        <ele>56</ele>
        <time>2021-04-24T12:30:44.000Z</time>
      </trkpt>
      <trkpt lat="47.18008" lon="-1.60554">
        <ele>55</ele>
        <time>2021-04-24T12:30:46.000Z</time>
      </trkpt>
      <trkpt lat="47.17994" lon="-1.60559">
        <ele>55</ele>
        <time>2021-04-24T12:30:48.000Z</time>
      </trkpt>
      <trkpt lat="47.1798" lon="-1.60564">
        <ele>55</ele>
        <time>2021-04-24T12:30:50.000Z</time>
      </trkpt>
      <trkpt lat="47.17967" lon="-1.60571">
        <ele>55</ele>
        <time>2021-04-24T12:30:52.000Z</time>
      </trkpt>
      <trkpt lat="47.17953" lon="-1.60578">
        <ele>55</ele>
        <time>2021-04-24T12:30:54.000Z</time>
      </trkpt>
      <trkpt lat="47.17941" lon="-1.60584">
        <ele>56</ele>
        <time>2021-04-24T12:30:56.000Z</time>
      </trkpt>
      <trkpt lat="47.17929" lon="-1.60586">
        <ele>56</ele>
        <time>2021-04-24T12:30:58.000Z</time>
      </trkpt>
      <trkpt lat="47.17918" lon="-1.60588">
        <ele>56</ele>
        <time>2021-04-24T12:31:00.000Z</time>
      </trkpt>
      <trkpt lat="47.17907" lon="-1.6059">
        <ele>56</ele>
        <time>2021-04-24T12:31:02.000Z</time>
      </trkpt>
      <trkpt lat="47.17902" lon="-1.60609">
        <ele>56</ele>
        <time>2021-04-24T12:31:04.000Z</time>
      </trkpt>
      <trkpt lat="47.17897" lon="-1.6063">
        <ele>55</ele>
        <time>2021-04-24T12:31:06.000Z</time>
      </trkpt>
      <trkpt lat="47.1789" lon="-1.60653">
        <ele>56</ele>
        <time>2021-04-24T12:31:08.000Z</time>
      </trkpt>
      <trkpt lat="47.17883" lon="-1.60675">
        <ele>56</ele>
        <time>2021-04-24T12:31:10.000Z</time>
      </trkpt>
      <trkpt lat="47.17877" lon="-1.60696">
        <ele>56</ele>
        <time>2021-04-24T12:31:12.000Z</time>
      </trkpt>
      <trkpt lat="47.17871" lon="-1.60717">
        <ele>55</ele>
        <time>2021-04-24T12:31:14.000Z</time>
      </trkpt>
      <trkpt lat="47.17866" lon="-1.60738">
        <ele>55</ele>
        <time>2021-04-24T12:31:16.000Z</time>
      </trkpt>
      <trkpt lat="47.17862" lon="-1.6076">
        <ele>55</ele>
        <time>2021-04-24T12:31:18.000Z</time>
      </trkpt>
      <trkpt lat="47.17857" lon="-1.6078">
        <ele>54</ele>
        <time>2021-04-24T12:31:20.000Z</time>
      </trkpt>
      <trkpt lat="47.17852" lon="-1.60801">
        <ele>54</ele>
        <time>2021-04-24T12:31:22.000Z</time>
      </trkpt>
      <trkpt lat="47.17847" lon="-1.60822">
        <ele>53</ele>
        <time>2021-04-24T12:31:24.000Z</time>
      </trkpt>
      <trkpt lat="47.1784" lon="-1.60841">
        <ele>53</ele>
        <time>2021-04-24T12:31:26.000Z</time>
      </trkpt>
      <trkpt lat="47.17832" lon="-1.60859">
        <ele>53</ele>
        <time>2021-04-24T12:31:28.000Z</time>
      </trkpt>
      <trkpt lat="47.17821" lon="-1.60876">
        <ele>54</ele>
        <time>2021-04-24T12:31:30.000Z</time>
      </trkpt>
      <trkpt lat="47.17811" lon="-1.60891">
        <ele>54</ele>
        <time>2021-04-24T12:31:32.000Z</time>
      </trkpt>
      <trkpt lat="47.17798" lon="-1.60902">
        <ele>56</ele>
        <time>2021-04-24T12:31:34.000Z</time>
      </trkpt>
      <trkpt lat="47.17785" lon="-1.60912">
        <ele>56</ele>
        <time>2021-04-24T12:31:36.000Z</time>
      </trkpt>
      <trkpt lat="47.17772" lon="-1.60922">
        <ele>56</ele>
        <time>2021-04-24T12:31:38.000Z</time>
      </trkpt>
      <trkpt lat="47.1776" lon="-1.60932">
        <ele>56</ele>
        <time>2021-04-24T12:31:40.000Z</time>
      </trkpt>
      <trkpt lat="47.17748" lon="-1.60941">
        <ele>56</ele>
        <time>2021-04-24T12:31:42.000Z</time>
      </trkpt>
      <trkpt lat="47.17736" lon="-1.6095">
        <ele>56</ele>
        <time>2021-04-24T12:31:44.000Z</time>
      </trkpt>
      <trkpt lat="47.17723" lon="-1.60959">
        <ele>55</ele>
        <time>2021-04-24T12:31:46.000Z</time>
      </trkpt>
      <trkpt lat="47.1771" lon="-1.60968">
        <ele>56</ele>
        <time>2021-04-24T12:31:48.000Z</time>
      </trkpt>
      <trkpt lat="47.17697" lon="-1.60975">
        <ele>56</ele>
        <time>2021-04-24T12:31:50.000Z</time>
      </trkpt>
      <trkpt lat="47.17682" lon="-1.60975">
        <ele>56</ele>
        <time>2021-04-24T12:31:52.000Z</time>
      </trkpt>
      <trkpt lat="47.17666" lon="-1.60972">
        <ele>54</ele>
        <time>2021-04-24T12:31:54.000Z</time>
      </trkpt>
      <trkpt lat="47.17651" lon="-1.6098">
        <ele>53</ele>
        <time>2021-04-24T12:31:56.000Z</time>
      </trkpt>
      <trkpt lat="47.17638" lon="-1.60992">
        <ele>53</ele>
        <time>2021-04-24T12:31:58.000Z</time>
      </trkpt>
      <trkpt lat="47.17626" lon="-1.61004">
        <ele>54</ele>
        <time>2021-04-24T12:32:00.000Z</time>
      </trkpt>
      <trkpt lat="47.17613" lon="-1.61015">
        <ele>54</ele>
        <time>2021-04-24T12:32:02.000Z</time>
      </trkpt>
      <trkpt lat="47.176" lon="-1.61025">
        <ele>54</ele>
        <time>2021-04-24T12:32:04.000Z</time>
      </trkpt>
      <trkpt lat="47.17588" lon="-1.61035">
        <ele>54</ele>
        <time>2021-04-24T12:32:06.000Z</time>
      </trkpt>
      <trkpt lat="47.17576" lon="-1.61045">
        <ele>54</ele>
        <time>2021-04-24T12:32:08.000Z</time>
      </trkpt>
      <trkpt lat="47.17563" lon="-1.61055">
        <ele>54</ele>
        <time>2021-04-24T12:32:10.000Z</time>
      </trkpt>
      <trkpt lat="47.17552" lon="-1.61066">
        <ele>54</ele>
        <time>2021-04-24T12:32:12.000Z</time>
      </trkpt>
      <trkpt lat="47.17539" lon="-1.61077">
        <ele>55</ele>
        <time>2021-04-24T12:32:14.000Z</time>
      </trkpt>
      <trkpt lat="47.17527" lon="-1.61088">
        <ele>55</ele>
        <time>2021-04-24T12:32:16.000Z</time>
      </trkpt>
      <trkpt lat="47.17514" lon="-1.61098">
        <ele>55</ele>
        <time>2021-04-24T12:32:18.000Z</time>
      </trkpt>
      <trkpt lat="47.17502" lon="-1.61104">
        <ele>55</ele>
        <time>2021-04-24T12:32:20.000Z</time>
      </trkpt>
      <trkpt lat="47.17488" lon="-1.61105">
        <ele>55</ele>
        <time>2021-04-24T12:32:22.000Z</time>
      </trkpt>
      <trkpt lat="47.17475" lon="-1.61102">
        <ele>55</ele>
        <time>2021-04-24T12:32:24.000Z</time>
      </trkpt>
      <trkpt lat="47.17463" lon="-1.61093">
        <ele>55</ele>
        <time>2021-04-24T12:32:26.000Z</time>
      </trkpt>
      <trkpt lat="47.17451" lon="-1.61081">
        <ele>56</ele>
        <time>2021-04-24T12:32:28.000Z</time>
      </trkpt>
      <trkpt lat="47.17443" lon="-1.61067">
        <ele>56</ele>
        <time>2021-04-24T12:32:30.000Z</time>
      </trkpt>
      <trkpt lat="47.17436" lon="-1.61051">
        <ele>56</ele>
        <time>2021-04-24T12:32:32.000Z</time>
      </trkpt>
      <trkpt lat="47.17431" lon="-1.61037">
        <ele>56</ele>
        <time>2021-04-24T12:32:34.000Z</time>
      </trkpt>
      <trkpt lat="47.17428" lon="-1.61024">
        <ele>56</ele>
        <time>2021-04-24T12:32:36.000Z</time>
      </trkpt>
      <trkpt lat="47.17419" lon="-1.61032">
        <ele>56</ele>
        <time>2021-04-24T12:32:40.000Z</time>
      </trkpt>
      <trkpt lat="47.17421" lon="-1.61047">
        <ele>56</ele>
        <time>2021-04-24T12:32:42.000Z</time>
      </trkpt>
      <trkpt lat="47.17426" lon="-1.61061">
        <ele>56</ele>
        <time>2021-04-24T12:32:44.000Z</time>
      </trkpt>
      <trkpt lat="47.17433" lon="-1.61078">
        <ele>56</ele>
        <time>2021-04-24T12:32:46.000Z</time>
      </trkpt>
      <trkpt lat="47.1744" lon="-1.61095">
        <ele>55</ele>
        <time>2021-04-24T12:32:48.000Z</time>
      </trkpt>
      <trkpt lat="47.17448" lon="-1.61112">
        <ele>56</ele>
        <time>2021-04-24T12:32:50.000Z</time>
      </trkpt>
      <trkpt lat="47.17455" lon="-1.6113">
        <ele>57</ele>
        <time>2021-04-24T12:32:52.000Z</time>
      </trkpt>
      <trkpt lat="47.17463" lon="-1.61148">
        <ele>57</ele>
        <time>2021-04-24T12:32:54.000Z</time>
      </trkpt>
      <trkpt lat="47.1747" lon="-1.61164">
        <ele>57</ele>
        <time>2021-04-24T12:32:56.000Z</time>
      </trkpt>
      <trkpt lat="47.17476" lon="-1.6118">
        <ele>58</ele>
        <time>2021-04-24T12:32:58.000Z</time>
      </trkpt>
      <trkpt lat="47.17481" lon="-1.61196">
        <ele>59</ele>
        <time>2021-04-24T12:33:00.000Z</time>
      </trkpt>
      <trkpt lat="47.17488" lon="-1.61212">
        <ele>59</ele>
        <time>2021-04-24T12:33:02.000Z</time>
      </trkpt>
      <trkpt lat="47.17495" lon="-1.61228">
        <ele>59</ele>
        <time>2021-04-24T12:33:04.000Z</time>
      </trkpt>
      <trkpt lat="47.17501" lon="-1.61243">
        <ele>59</ele>
        <time>2021-04-24T12:33:06.000Z</time>
      </trkpt>
      <trkpt lat="47.17509" lon="-1.61257">
        <ele>59</ele>
        <time>2021-04-24T12:33:08.000Z</time>
      </trkpt>
      <trkpt lat="47.17518" lon="-1.61271">
        <ele>59</ele>
        <time>2021-04-24T12:33:10.000Z</time>
      </trkpt>
      <trkpt lat="47.17527" lon="-1.61282">
        <ele>60</ele>
        <time>2021-04-24T12:33:12.000Z</time>
      </trkpt>
      <trkpt lat="47.17537" lon="-1.6129">
        <ele>60</ele>
        <time>2021-04-24T12:33:14.000Z</time>
      </trkpt>
      <trkpt lat="47.17549" lon="-1.61297">
        <ele>60</ele>
        <time>2021-04-24T12:33:16.000Z</time>
      </trkpt>
      <trkpt lat="47.17558" lon="-1.6131">
        <ele>59</ele>
        <time>2021-04-24T12:33:18.000Z</time>
      </trkpt>
      <trkpt lat="47.17559" lon="-1.6133">
        <ele>58</ele>
        <time>2021-04-24T12:33:20.000Z</time>
      </trkpt>
      <trkpt lat="47.17551" lon="-1.61347">
        <ele>59</ele>
        <time>2021-04-24T12:33:22.000Z</time>
      </trkpt>
      <trkpt lat="47.17539" lon="-1.61358">
        <ele>59</ele>
        <time>2021-04-24T12:33:24.000Z</time>
      </trkpt>
      <trkpt lat="47.1753" lon="-1.61373">
        <ele>59</ele>
        <time>2021-04-24T12:33:26.000Z</time>
      </trkpt>
      <trkpt lat="47.17524" lon="-1.61392">
        <ele>60</ele>
        <time>2021-04-24T12:33:28.000Z</time>
      </trkpt>
      <trkpt lat="47.1752" lon="-1.6141">
        <ele>60</ele>
        <time>2021-04-24T12:33:30.000Z</time>
      </trkpt>
      <trkpt lat="47.17516" lon="-1.61428">
        <ele>61</ele>
        <time>2021-04-24T12:33:32.000Z</time>
      </trkpt>
      <trkpt lat="47.17512" lon="-1.61446">
        <ele>62</ele>
        <time>2021-04-24T12:33:34.000Z</time>
      </trkpt>
      <trkpt lat="47.17505" lon="-1.6146">
        <ele>64</ele>
        <time>2021-04-24T12:33:36.000Z</time>
      </trkpt>
      <trkpt lat="47.17493" lon="-1.61467">
        <ele>64</ele>
        <time>2021-04-24T12:33:38.000Z</time>
      </trkpt>
      <trkpt lat="47.17479" lon="-1.61472">
        <ele>64</ele>
        <time>2021-04-24T12:33:40.000Z</time>
      </trkpt>
      <trkpt lat="47.17467" lon="-1.61477">
        <ele>64</ele>
        <time>2021-04-24T12:33:42.000Z</time>
      </trkpt>
      <trkpt lat="47.17455" lon="-1.61483">
        <ele>65</ele>
        <time>2021-04-24T12:33:44.000Z</time>
      </trkpt>
      <trkpt lat="47.17444" lon="-1.61488">
        <ele>65</ele>
        <time>2021-04-24T12:33:46.000Z</time>
      </trkpt>
      <trkpt lat="47.17432" lon="-1.61495">
        <ele>66</ele>
        <time>2021-04-24T12:33:48.000Z</time>
      </trkpt>
      <trkpt lat="47.17421" lon="-1.61502">
        <ele>66</ele>
        <time>2021-04-24T12:33:50.000Z</time>
      </trkpt>
      <trkpt lat="47.1741" lon="-1.6151">
        <ele>67</ele>
        <time>2021-04-24T12:33:52.000Z</time>
      </trkpt>
      <trkpt lat="47.174" lon="-1.61517">
        <ele>67</ele>
        <time>2021-04-24T12:33:54.000Z</time>
      </trkpt>
      <trkpt lat="47.1739" lon="-1.61525">
        <ele>68</ele>
        <time>2021-04-24T12:33:56.000Z</time>
      </trkpt>
      <trkpt lat="47.17381" lon="-1.61535">
        <ele>69</ele>
        <time>2021-04-24T12:33:58.000Z</time>
      </trkpt>
      <trkpt lat="47.17371" lon="-1.61546">
        <ele>70</ele>
        <time>2021-04-24T12:34:00.000Z</time>
      </trkpt>
      <trkpt lat="47.17362" lon="-1.61555">
        <ele>71</ele>
        <time>2021-04-24T12:34:02.000Z</time>
      </trkpt>
      <trkpt lat="47.17353" lon="-1.61566">
        <ele>72</ele>
        <time>2021-04-24T12:34:04.000Z</time>
      </trkpt>
      <trkpt lat="47.17346" lon="-1.61576">
        <ele>73</ele>
        <time>2021-04-24T12:34:06.000Z</time>
      </trkpt>
      <trkpt lat="47.17338" lon="-1.61586">
        <ele>73</ele>
        <time>2021-04-24T12:34:08.000Z</time>
      </trkpt>
      <trkpt lat="47.17329" lon="-1.61596">
        <ele>74</ele>
        <time>2021-04-24T12:34:10.000Z</time>
      </trkpt>
      <trkpt lat="47.1732" lon="-1.61607">
        <ele>74</ele>
        <time>2021-04-24T12:34:12.000Z</time>
      </trkpt>
      <trkpt lat="47.17312" lon="-1.6162">
        <ele>74</ele>
        <time>2021-04-24T12:34:14.000Z</time>
      </trkpt>
      <trkpt lat="47.17303" lon="-1.61633">
        <ele>74</ele>
        <time>2021-04-24T12:34:16.000Z</time>
      </trkpt>
      <trkpt lat="47.17296" lon="-1.61646">
        <ele>75</ele>
        <time>2021-04-24T12:34:18.000Z</time>
      </trkpt>
      <trkpt lat="47.17288" lon="-1.61659">
        <ele>75</ele>
        <time>2021-04-24T12:34:20.000Z</time>
      </trkpt>
      <trkpt lat="47.17281" lon="-1.61674">
        <ele>76</ele>
        <time>2021-04-24T12:34:22.000Z</time>
      </trkpt>
      <trkpt lat="47.17274" lon="-1.61689">
        <ele>76</ele>
        <time>2021-04-24T12:34:24.000Z</time>
      </trkpt>
      <trkpt lat="47.17267" lon="-1.61704">
        <ele>76</ele>
        <time>2021-04-24T12:34:26.000Z</time>
      </trkpt>
      <trkpt lat="47.1726" lon="-1.61718">
        <ele>76</ele>
        <time>2021-04-24T12:34:28.000Z</time>
      </trkpt>
      <trkpt lat="47.17253" lon="-1.61733">
        <ele>75</ele>
        <time>2021-04-24T12:34:30.000Z</time>
      </trkpt>
      <trkpt lat="47.17247" lon="-1.61751">
        <ele>75</ele>
        <time>2021-04-24T12:34:32.000Z</time>
      </trkpt>
      <trkpt lat="47.17244" lon="-1.61769">
        <ele>74</ele>
        <time>2021-04-24T12:34:34.000Z</time>
      </trkpt>
      <trkpt lat="47.17236" lon="-1.61783">
        <ele>73</ele>
        <time>2021-04-24T12:34:36.000Z</time>
      </trkpt>
      <trkpt lat="47.17224" lon="-1.61794">
        <ele>72</ele>
        <time>2021-04-24T12:34:38.000Z</time>
      </trkpt>
      <trkpt lat="47.17212" lon="-1.61804">
        <ele>72</ele>
        <time>2021-04-24T12:34:40.000Z</time>
      </trkpt>
      <trkpt lat="47.17199" lon="-1.61815">
        <ele>72</ele>
        <time>2021-04-24T12:34:42.000Z</time>
      </trkpt>
      <trkpt lat="47.17187" lon="-1.61826">
        <ele>72</ele>
        <time>2021-04-24T12:34:44.000Z</time>
      </trkpt>
      <trkpt lat="47.17176" lon="-1.61836">
        <ele>72</ele>
        <time>2021-04-24T12:34:46.000Z</time>
      </trkpt>
      <trkpt lat="47.17166" lon="-1.61847">
        <ele>72</ele>
        <time>2021-04-24T12:34:48.000Z</time>
      </trkpt>
      <trkpt lat="47.17155" lon="-1.61858">
        <ele>72</ele>
        <time>2021-04-24T12:34:50.000Z</time>
      </trkpt>
      <trkpt lat="47.17143" lon="-1.61869">
        <ele>72</ele>
        <time>2021-04-24T12:34:52.000Z</time>
      </trkpt>
      <trkpt lat="47.17132" lon="-1.6188">
        <ele>72</ele>
        <time>2021-04-24T12:34:54.000Z</time>
      </trkpt>
      <trkpt lat="47.1712" lon="-1.61891">
        <ele>71</ele>
        <time>2021-04-24T12:34:56.000Z</time>
      </trkpt>
      <trkpt lat="47.1711" lon="-1.61902">
        <ele>71</ele>
        <time>2021-04-24T12:34:58.000Z</time>
      </trkpt>
      <trkpt lat="47.17098" lon="-1.61913">
        <ele>71</ele>
        <time>2021-04-24T12:35:00.000Z</time>
      </trkpt>
      <trkpt lat="47.17088" lon="-1.61922">
        <ele>71</ele>
        <time>2021-04-24T12:35:02.000Z</time>
      </trkpt>
      <trkpt lat="47.17078" lon="-1.61933">
        <ele>71</ele>
        <time>2021-04-24T12:35:04.000Z</time>
      </trkpt>
      <trkpt lat="47.17067" lon="-1.61945">
        <ele>72</ele>
        <time>2021-04-24T12:35:06.000Z</time>
      </trkpt>
      <trkpt lat="47.17055" lon="-1.61958">
        <ele>71</ele>
        <time>2021-04-24T12:35:08.000Z</time>
      </trkpt>
      <trkpt lat="47.17044" lon="-1.61973">
        <ele>71</ele>
        <time>2021-04-24T12:35:10.000Z</time>
      </trkpt>
      <trkpt lat="47.17033" lon="-1.61989">
        <ele>72</ele>
        <time>2021-04-24T12:35:12.000Z</time>
      </trkpt>
      <trkpt lat="47.17023" lon="-1.62006">
        <ele>72</ele>
        <time>2021-04-24T12:35:14.000Z</time>
      </trkpt>
      <trkpt lat="47.17012" lon="-1.62023">
        <ele>72</ele>
        <time>2021-04-24T12:35:16.000Z</time>
      </trkpt>
      <trkpt lat="47.17002" lon="-1.6204">
        <ele>73</ele>
        <time>2021-04-24T12:35:18.000Z</time>
      </trkpt>
      <trkpt lat="47.16993" lon="-1.62058">
        <ele>73</ele>
        <time>2021-04-24T12:35:20.000Z</time>
      </trkpt>
      <trkpt lat="47.16983" lon="-1.62075">
        <ele>73</ele>
        <time>2021-04-24T12:35:22.000Z</time>
      </trkpt>
      <trkpt lat="47.16973" lon="-1.62092">
        <ele>73</ele>
        <time>2021-04-24T12:35:24.000Z</time>
      </trkpt>
      <trkpt lat="47.16964" lon="-1.62109">
        <ele>73</ele>
        <time>2021-04-24T12:35:26.000Z</time>
      </trkpt>
      <trkpt lat="47.16954" lon="-1.62126">
        <ele>73</ele>
        <time>2021-04-24T12:35:28.000Z</time>
      </trkpt>
      <trkpt lat="47.16946" lon="-1.62143">
        <ele>73</ele>
        <time>2021-04-24T12:35:30.000Z</time>
      </trkpt>
      <trkpt lat="47.16937" lon="-1.6216">
        <ele>73</ele>
        <time>2021-04-24T12:35:32.000Z</time>
      </trkpt>
      <trkpt lat="47.16929" lon="-1.62178">
        <ele>74</ele>
        <time>2021-04-24T12:35:34.000Z</time>
      </trkpt>
      <trkpt lat="47.1692" lon="-1.62194">
        <ele>74</ele>
        <time>2021-04-24T12:35:36.000Z</time>
      </trkpt>
      <trkpt lat="47.1691" lon="-1.6221">
        <ele>74</ele>
        <time>2021-04-24T12:35:38.000Z</time>
      </trkpt>
      <trkpt lat="47.16899" lon="-1.62225">
        <ele>74</ele>
        <time>2021-04-24T12:35:40.000Z</time>
      </trkpt>
      <trkpt lat="47.16888" lon="-1.62239">
        <ele>74</ele>
        <time>2021-04-24T12:35:42.000Z</time>
      </trkpt>
      <trkpt lat="47.16876" lon="-1.62253">
        <ele>75</ele>
        <time>2021-04-24T12:35:44.000Z</time>
      </trkpt>
      <trkpt lat="47.16865" lon="-1.62267">
        <ele>75</ele>
        <time>2021-04-24T12:35:46.000Z</time>
      </trkpt>
      <trkpt lat="47.16854" lon="-1.62281">
        <ele>74</ele>
        <time>2021-04-24T12:35:48.000Z</time>
      </trkpt>
      <trkpt lat="47.16843" lon="-1.62294">
        <ele>74</ele>
        <time>2021-04-24T12:35:50.000Z</time>
      </trkpt>
      <trkpt lat="47.16832" lon="-1.62307">
        <ele>74</ele>
        <time>2021-04-24T12:35:52.000Z</time>
      </trkpt>
      <trkpt lat="47.1682" lon="-1.62317">
        <ele>74</ele>
        <time>2021-04-24T12:35:54.000Z</time>
      </trkpt>
      <trkpt lat="47.16808" lon="-1.62324">
        <ele>74</ele>
        <time>2021-04-24T12:35:56.000Z</time>
      </trkpt>
      <trkpt lat="47.16795" lon="-1.62332">
        <ele>74</ele>
        <time>2021-04-24T12:35:58.000Z</time>
      </trkpt>
      <trkpt lat="47.16781" lon="-1.6234">
        <ele>73</ele>
        <time>2021-04-24T12:36:00.000Z</time>
      </trkpt>
      <trkpt lat="47.16768" lon="-1.62348">
        <ele>72</ele>
        <time>2021-04-24T12:36:02.000Z</time>
      </trkpt>
      <trkpt lat="47.16755" lon="-1.62357">
        <ele>72</ele>
        <time>2021-04-24T12:36:04.000Z</time>
      </trkpt>
      <trkpt lat="47.16745" lon="-1.62369">
        <ele>72</ele>
        <time>2021-04-24T12:36:06.000Z</time>
      </trkpt>
      <trkpt lat="47.16737" lon="-1.62386">
        <ele>71</ele>
        <time>2021-04-24T12:36:08.000Z</time>
      </trkpt>
      <trkpt lat="47.16732" lon="-1.62404">
        <ele>71</ele>
        <time>2021-04-24T12:36:10.000Z</time>
      </trkpt>
      <trkpt lat="47.1673" lon="-1.62422">
        <ele>71</ele>
        <time>2021-04-24T12:36:12.000Z</time>
      </trkpt>
      <trkpt lat="47.16727" lon="-1.62441">
        <ele>71</ele>
        <time>2021-04-24T12:36:14.000Z</time>
      </trkpt>
      <trkpt lat="47.16722" lon="-1.62459">
        <ele>71</ele>
        <time>2021-04-24T12:36:16.000Z</time>
      </trkpt>
      <trkpt lat="47.16718" lon="-1.62475">
        <ele>71</ele>
        <time>2021-04-24T12:36:18.000Z</time>
      </trkpt>
      <trkpt lat="47.16718" lon="-1.62491">
        <ele>70</ele>
        <time>2021-04-24T12:36:20.000Z</time>
      </trkpt>
      <trkpt lat="47.1673" lon="-1.62498">
        <ele>69</ele>
        <time>2021-04-24T12:36:22.000Z</time>
      </trkpt>
      <trkpt lat="47.16742" lon="-1.62504">
        <ele>69</ele>
        <time>2021-04-24T12:36:24.000Z</time>
      </trkpt>
      <trkpt lat="47.16754" lon="-1.62511">
        <ele>69</ele>
        <time>2021-04-24T12:36:26.000Z</time>
      </trkpt>
      <trkpt lat="47.16765" lon="-1.62517">
        <ele>68</ele>
        <time>2021-04-24T12:36:28.000Z</time>
      </trkpt>
      <trkpt lat="47.16776" lon="-1.62525">
        <ele>69</ele>
        <time>2021-04-24T12:36:30.000Z</time>
      </trkpt>
      <trkpt lat="47.16787" lon="-1.62532">
        <ele>69</ele>
        <time>2021-04-24T12:36:32.000Z</time>
      </trkpt>
      <trkpt lat="47.16797" lon="-1.62539">
        <ele>69</ele>
        <time>2021-04-24T12:36:34.000Z</time>
      </trkpt>
      <trkpt lat="47.16807" lon="-1.62546">
        <ele>68</ele>
        <time>2021-04-24T12:36:36.000Z</time>
      </trkpt>
      <trkpt lat="47.16816" lon="-1.62554">
        <ele>68</ele>
        <time>2021-04-24T12:36:38.000Z</time>
      </trkpt>
      <trkpt lat="47.16825" lon="-1.62564">
        <ele>67</ele>
        <time>2021-04-24T12:36:40.000Z</time>
      </trkpt>
      <trkpt lat="47.1683" lon="-1.62577">
        <ele>67</ele>
        <time>2021-04-24T12:36:42.000Z</time>
      </trkpt>
      <trkpt lat="47.16827" lon="-1.62591">
        <ele>68</ele>
        <time>2021-04-24T12:36:44.000Z</time>
      </trkpt>
      <trkpt lat="47.16821" lon="-1.62603">
        <ele>68</ele>
        <time>2021-04-24T12:36:46.000Z</time>
      </trkpt>
      <trkpt lat="47.16815" lon="-1.62614">
        <ele>68</ele>
        <time>2021-04-24T12:36:48.000Z</time>
      </trkpt>
      <trkpt lat="47.16808" lon="-1.62625">
        <ele>69</ele>
        <time>2021-04-24T12:36:50.000Z</time>
      </trkpt>
      <trkpt lat="47.16801" lon="-1.62635">
        <ele>70</ele>
        <time>2021-04-24T12:36:52.000Z</time>
      </trkpt>
      <trkpt lat="47.16795" lon="-1.62645">
        <ele>70</ele>
        <time>2021-04-24T12:36:54.000Z</time>
      </trkpt>
      <trkpt lat="47.16789" lon="-1.62659">
        <ele>70</ele>
        <time>2021-04-24T12:36:57.000Z</time>
      </trkpt>
      <trkpt lat="47.16779" lon="-1.62656">
        <ele>70</ele>
        <time>2021-04-24T12:37:00.000Z</time>
      </trkpt>
    </trkseg>
  </trk>
</gpx>